<?xml version='1.0' encoding='UTF-8'?><gpx version="1.1" creator="JPX - https://github.com/jenetics/jpx" xmlns="http://www.topografix.com/GPX/1/1"><trk><trkseg><trkpt lat="45.5076315" lon="10.4635108"><ele>182.0</ele><time>2026-03-28T08:09:37.844Z</time></trkpt><trkpt lat="45.5076783" lon="10.4635789"><ele>182.0</ele><time>2026-03-28T08:13:54.844Z</time></trkpt><trkpt lat="45.5077783" lon="10.4635717"><ele>182.0</ele><time>2026-03-28T08:16:50.844Z</time></trkpt><trkpt lat="45.5078448" lon="10.4635843"><ele>182.0</ele><time>2026-03-28T08:17:23.844Z</time></trkpt><trkpt lat="45.5079367" lon="10.4635802"><ele>182.0</ele><time>2026-03-28T08:20:50.843Z</time></trkpt><trkpt lat="45.5080027" lon="10.4635764"><ele>182.0</ele><time>2026-03-28T08:22:40.842Z</time></trkpt><trkpt lat="45.5080794" lon="10.4635571"><ele>183.0</ele><time>2026-03-28T08:24:00.843Z</time></trkpt><trkpt lat="45.5081788" lon="10.4635394"><ele>184.0</ele><time>2026-03-28T08:25:09.842Z</time></trkpt><trkpt lat="45.5082495" lon="10.4635369"><ele>185.0</ele><time>2026-03-28T08:25:11.841Z</time></trkpt><trkpt lat="45.5083275" lon="10.4635448"><ele>186.0</ele><time>2026-03-28T08:25:13.842Z</time></trkpt><trkpt lat="45.5083491" lon="10.4636397"><ele>187.0</ele><time>2026-03-28T08:25:16.842Z</time></trkpt><trkpt lat="45.5082541" lon="10.4636982"><ele>188.0</ele><time>2026-03-28T08:25:18.842Z</time></trkpt><trkpt lat="45.5081537" lon="10.463716"><ele>188.0</ele><time>2026-03-28T08:25:19.841Z</time></trkpt><trkpt lat="45.508015" lon="10.4637394"><ele>188.0</ele><time>2026-03-28T08:25:20.842Z</time></trkpt><trkpt lat="45.5078353" lon="10.46376"><ele>188.0</ele><time>2026-03-28T08:25:21.841Z</time></trkpt><trkpt lat="45.507638" lon="10.4637758"><ele>186.66666666666666</ele><time>2026-03-28T08:25:22.842Z</time></trkpt><trkpt lat="45.5074483" lon="10.4637908"><ele>185.33333333333334</ele><time>2026-03-28T08:25:23.843Z</time></trkpt><trkpt lat="45.5072873" lon="10.4638016"><ele>184.0</ele><time>2026-03-28T08:25:24.841Z</time></trkpt><trkpt lat="45.507158" lon="10.463808"><ele>183.66666666666669</ele><time>2026-03-28T08:25:25.842Z</time></trkpt><trkpt lat="45.5070589" lon="10.4637891"><ele>183.33333333333334</ele><time>2026-03-28T08:25:26.841Z</time></trkpt><trkpt lat="45.5069776" lon="10.4637508"><ele>183.0</ele><time>2026-03-28T08:25:27.842Z</time></trkpt><trkpt lat="45.5069022" lon="10.4636847"><ele>182.66666666666666</ele><time>2026-03-28T08:25:28.842Z</time></trkpt><trkpt lat="45.5068288" lon="10.4636492"><ele>182.33333333333331</ele><time>2026-03-28T08:25:29.84Z</time></trkpt><trkpt lat="45.5067609" lon="10.4636367"><ele>182.0</ele><time>2026-03-28T08:25:30.841Z</time></trkpt><trkpt lat="45.5066565" lon="10.4637064"><ele>182.0</ele><time>2026-03-28T08:25:32.842Z</time></trkpt><trkpt lat="45.506629" lon="10.4638625"><ele>182.0</ele><time>2026-03-28T08:25:34.843Z</time></trkpt><trkpt lat="45.50664" lon="10.4639533"><ele>182.0</ele><time>2026-03-28T08:25:35.841Z</time></trkpt><trkpt lat="45.5066702" lon="10.4640562"><ele>182.0</ele><time>2026-03-28T08:25:36.842Z</time></trkpt><trkpt lat="45.5067121" lon="10.4641633"><ele>182.0</ele><time>2026-03-28T08:25:37.843Z</time></trkpt><trkpt lat="45.5067383" lon="10.4642738"><ele>182.0</ele><time>2026-03-28T08:25:38.842Z</time></trkpt><trkpt lat="45.5067425" lon="10.4644123"><ele>182.0</ele><time>2026-03-28T08:25:39.843Z</time></trkpt><trkpt lat="45.506739" lon="10.4645549"><ele>182.0</ele><time>2026-03-28T08:25:40.841Z</time></trkpt><trkpt lat="45.5067279" lon="10.4647045"><ele>182.0</ele><time>2026-03-28T08:25:41.842Z</time></trkpt><trkpt lat="45.5067117" lon="10.4648584"><ele>182.0</ele><time>2026-03-28T08:25:42.843Z</time></trkpt><trkpt lat="45.5066947" lon="10.4650206"><ele>182.0</ele><time>2026-03-28T08:25:43.841Z</time></trkpt><trkpt lat="45.5066829" lon="10.465185"><ele>182.25</ele><time>2026-03-28T08:25:44.842Z</time></trkpt><trkpt lat="45.5066727" lon="10.4653463"><ele>182.5</ele><time>2026-03-28T08:25:45.841Z</time></trkpt><trkpt lat="45.5066608" lon="10.4655127"><ele>182.75</ele><time>2026-03-28T08:25:46.842Z</time></trkpt><trkpt lat="45.5066508" lon="10.4656758"><ele>183.0</ele><time>2026-03-28T08:25:47.841Z</time></trkpt><trkpt lat="45.5066443" lon="10.4658374"><ele>183.0</ele><time>2026-03-28T08:25:48.843Z</time></trkpt><trkpt lat="45.5066606" lon="10.4660131"><ele>183.0</ele><time>2026-03-28T08:25:49.841Z</time></trkpt><trkpt lat="45.5066798" lon="10.4661901"><ele>183.0</ele><time>2026-03-28T08:25:50.842Z</time></trkpt><trkpt lat="45.506703" lon="10.4663749"><ele>183.0</ele><time>2026-03-28T08:25:51.84Z</time></trkpt><trkpt lat="45.5067274" lon="10.4665653"><ele>183.0</ele><time>2026-03-28T08:25:52.84Z</time></trkpt><trkpt lat="45.506756" lon="10.4667529"><ele>183.0</ele><time>2026-03-28T08:25:53.842Z</time></trkpt><trkpt lat="45.506784" lon="10.4669521"><ele>183.0</ele><time>2026-03-28T08:25:54.84Z</time></trkpt><trkpt lat="45.5068113" lon="10.4671475"><ele>183.0</ele><time>2026-03-28T08:25:55.841Z</time></trkpt><trkpt lat="45.5068413" lon="10.4673487"><ele>183.0</ele><time>2026-03-28T08:25:56.841Z</time></trkpt><trkpt lat="45.5068732" lon="10.4675501"><ele>183.0</ele><time>2026-03-28T08:25:57.841Z</time></trkpt><trkpt lat="45.5069051" lon="10.4677523"><ele>183.0</ele><time>2026-03-28T08:25:58.842Z</time></trkpt><trkpt lat="45.5069372" lon="10.4679511"><ele>183.0</ele><time>2026-03-28T08:25:59.84Z</time></trkpt><trkpt lat="45.5069662" lon="10.4681477"><ele>183.75</ele><time>2026-03-28T08:26:00.84Z</time></trkpt><trkpt lat="45.5069986" lon="10.4683403"><ele>184.5</ele><time>2026-03-28T08:26:01.841Z</time></trkpt><trkpt lat="45.5070302" lon="10.4685362"><ele>185.25</ele><time>2026-03-28T08:26:02.842Z</time></trkpt><trkpt lat="45.5070571" lon="10.4687263"><ele>186.0</ele><time>2026-03-28T08:26:03.841Z</time></trkpt><trkpt lat="45.507084" lon="10.4689193"><ele>187.0</ele><time>2026-03-28T08:26:04.841Z</time></trkpt><trkpt lat="45.5071058" lon="10.469116"><ele>188.0</ele><time>2026-03-28T08:26:05.841Z</time></trkpt><trkpt lat="45.5071104" lon="10.4693174"><ele>189.0</ele><time>2026-03-28T08:26:06.841Z</time></trkpt><trkpt lat="45.5070987" lon="10.4695288"><ele>190.0</ele><time>2026-03-28T08:26:07.841Z</time></trkpt><trkpt lat="45.5070809" lon="10.4697409"><ele>189.66666666666669</ele><time>2026-03-28T08:26:08.842Z</time></trkpt><trkpt lat="45.5070549" lon="10.4699602"><ele>189.33333333333334</ele><time>2026-03-28T08:26:09.842Z</time></trkpt><trkpt lat="45.5070181" lon="10.4701799"><ele>189.0</ele><time>2026-03-28T08:26:10.841Z</time></trkpt><trkpt lat="45.5069766" lon="10.4703961"><ele>189.66666666666666</ele><time>2026-03-28T08:26:11.84Z</time></trkpt><trkpt lat="45.5069313" lon="10.4706126"><ele>190.33333333333331</ele><time>2026-03-28T08:26:12.841Z</time></trkpt><trkpt lat="45.5068798" lon="10.4708229"><ele>191.0</ele><time>2026-03-28T08:26:13.84Z</time></trkpt><trkpt lat="45.5068247" lon="10.4710307"><ele>191.0</ele><time>2026-03-28T08:26:14.84Z</time></trkpt><trkpt lat="45.5067728" lon="10.4712429"><ele>191.0</ele><time>2026-03-28T08:26:15.841Z</time></trkpt><trkpt lat="45.5067197" lon="10.4714511"><ele>191.0</ele><time>2026-03-28T08:26:16.841Z</time></trkpt><trkpt lat="45.5066722" lon="10.4716561"><ele>191.5</ele><time>2026-03-28T08:26:17.842Z</time></trkpt><trkpt lat="45.5066387" lon="10.4718698"><ele>192.0</ele><time>2026-03-28T08:26:18.84Z</time></trkpt><trkpt lat="45.5066119" lon="10.4720782"><ele>192.5</ele><time>2026-03-28T08:26:19.841Z</time></trkpt><trkpt lat="45.5065913" lon="10.4722856"><ele>193.0</ele><time>2026-03-28T08:26:20.841Z</time></trkpt><trkpt lat="45.5065709" lon="10.4724907"><ele>193.5</ele><time>2026-03-28T08:26:21.84Z</time></trkpt><trkpt lat="45.5065516" lon="10.4727006"><ele>194.0</ele><time>2026-03-28T08:26:22.841Z</time></trkpt><trkpt lat="45.5065388" lon="10.4729065"><ele>194.5</ele><time>2026-03-28T08:26:23.842Z</time></trkpt><trkpt lat="45.5065163" lon="10.4731082"><ele>195.0</ele><time>2026-03-28T08:26:24.841Z</time></trkpt><trkpt lat="45.5064909" lon="10.473312"><ele>195.0</ele><time>2026-03-28T08:26:25.841Z</time></trkpt><trkpt lat="45.5064656" lon="10.4735123"><ele>195.0</ele><time>2026-03-28T08:26:26.842Z</time></trkpt><trkpt lat="45.506442" lon="10.4737095"><ele>195.0</ele><time>2026-03-28T08:26:27.84Z</time></trkpt><trkpt lat="45.5064158" lon="10.4738859"><ele>195.0</ele><time>2026-03-28T08:26:28.84Z</time></trkpt><trkpt lat="45.506395" lon="10.4740387"><ele>194.8</ele><time>2026-03-28T08:26:29.841Z</time></trkpt><trkpt lat="45.5063638" lon="10.4741969"><ele>194.6</ele><time>2026-03-28T08:26:30.842Z</time></trkpt><trkpt lat="45.5063211" lon="10.4743095"><ele>194.39999999999998</ele><time>2026-03-28T08:26:31.841Z</time></trkpt><trkpt lat="45.5062625" lon="10.474399"><ele>194.2</ele><time>2026-03-28T08:26:32.84Z</time></trkpt><trkpt lat="45.5061997" lon="10.4744911"><ele>194.0</ele><time>2026-03-28T08:26:33.84Z</time></trkpt><trkpt lat="45.5061464" lon="10.4745631"><ele>194.00000000000003</ele><time>2026-03-28T08:26:34.842Z</time></trkpt><trkpt lat="45.5060381" lon="10.4746118"><ele>194.0</ele><time>2026-03-28T08:26:36.841Z</time></trkpt><trkpt lat="45.5059755" lon="10.4745747"><ele>194.0</ele><time>2026-03-28T08:26:37.841Z</time></trkpt><trkpt lat="45.5059117" lon="10.4745035"><ele>194.0</ele><time>2026-03-28T08:26:38.841Z</time></trkpt><trkpt lat="45.5058616" lon="10.4743998"><ele>194.00000000000003</ele><time>2026-03-28T08:26:39.84Z</time></trkpt><trkpt lat="45.5058326" lon="10.4742706"><ele>194.0</ele><time>2026-03-28T08:26:40.841Z</time></trkpt><trkpt lat="45.5058171" lon="10.4741171"><ele>194.0</ele><time>2026-03-28T08:26:41.84Z</time></trkpt><trkpt lat="45.5057959" lon="10.4739461"><ele>194.0</ele><time>2026-03-28T08:26:42.841Z</time></trkpt><trkpt lat="45.5057559" lon="10.4737441"><ele>194.0</ele><time>2026-03-28T08:26:43.842Z</time></trkpt><trkpt lat="45.5057155" lon="10.4735337"><ele>194.0</ele><time>2026-03-28T08:26:44.841Z</time></trkpt><trkpt lat="45.5056674" lon="10.4733367"><ele>194.0</ele><time>2026-03-28T08:26:45.841Z</time></trkpt><trkpt lat="45.5056072" lon="10.4731906"><ele>194.0</ele><time>2026-03-28T08:26:46.842Z</time></trkpt><trkpt lat="45.505557" lon="10.4730877"><ele>194.0</ele><time>2026-03-28T08:26:47.841Z</time></trkpt><trkpt lat="45.5055076" lon="10.473023"><ele>194.0</ele><time>2026-03-28T08:26:48.841Z</time></trkpt><trkpt lat="45.5053981" lon="10.4730638"><ele>194.0</ele><time>2026-03-28T08:26:50.841Z</time></trkpt><trkpt lat="45.5053408" lon="10.473143"><ele>194.2</ele><time>2026-03-28T08:26:51.84Z</time></trkpt><trkpt lat="45.5052857" lon="10.4732412"><ele>194.39999999999998</ele><time>2026-03-28T08:26:52.841Z</time></trkpt><trkpt lat="45.5052089" lon="10.4733423"><ele>194.6</ele><time>2026-03-28T08:26:53.84Z</time></trkpt><trkpt lat="45.5051136" lon="10.4734523"><ele>194.8</ele><time>2026-03-28T08:26:54.842Z</time></trkpt><trkpt lat="45.505018" lon="10.4735671"><ele>195.0</ele><time>2026-03-28T08:26:55.842Z</time></trkpt><trkpt lat="45.504918" lon="10.4736827"><ele>194.75</ele><time>2026-03-28T08:26:56.841Z</time></trkpt><trkpt lat="45.504823" lon="10.4737956"><ele>194.5</ele><time>2026-03-28T08:26:57.841Z</time></trkpt><trkpt lat="45.5047219" lon="10.473901"><ele>194.25</ele><time>2026-03-28T08:26:58.841Z</time></trkpt><trkpt lat="45.5046133" lon="10.4739829"><ele>194.0</ele><time>2026-03-28T08:26:59.84Z</time></trkpt><trkpt lat="45.5044922" lon="10.4740419"><ele>196.75</ele><time>2026-03-28T08:27:00.84Z</time></trkpt><trkpt lat="45.5043691" lon="10.4740686"><ele>199.5</ele><time>2026-03-28T08:27:01.841Z</time></trkpt><trkpt lat="45.5042419" lon="10.4740738"><ele>202.25</ele><time>2026-03-28T08:27:02.842Z</time></trkpt><trkpt lat="45.504109" lon="10.4740629"><ele>205.0</ele><time>2026-03-28T08:27:03.841Z</time></trkpt><trkpt lat="45.5039784" lon="10.4740427"><ele>205.0</ele><time>2026-03-28T08:27:04.841Z</time></trkpt><trkpt lat="45.5038517" lon="10.4740196"><ele>205.0</ele><time>2026-03-28T08:27:05.841Z</time></trkpt><trkpt lat="45.5037257" lon="10.4740054"><ele>205.0</ele><time>2026-03-28T08:27:06.841Z</time></trkpt><trkpt lat="45.503601" lon="10.4740041"><ele>205.0</ele><time>2026-03-28T08:27:07.841Z</time></trkpt><trkpt lat="45.5034803" lon="10.4740283"><ele>206.25</ele><time>2026-03-28T08:27:08.84Z</time></trkpt><trkpt lat="45.5033506" lon="10.4740868"><ele>207.5</ele><time>2026-03-28T08:27:09.841Z</time></trkpt><trkpt lat="45.5032192" lon="10.4741645"><ele>208.75</ele><time>2026-03-28T08:27:10.841Z</time></trkpt><trkpt lat="45.5030874" lon="10.4742737"><ele>210.0</ele><time>2026-03-28T08:27:11.841Z</time></trkpt><trkpt lat="45.5029558" lon="10.4743738"><ele>209.75</ele><time>2026-03-28T08:27:12.84Z</time></trkpt><trkpt lat="45.5028265" lon="10.4744749"><ele>209.5</ele><time>2026-03-28T08:27:13.841Z</time></trkpt><trkpt lat="45.5027118" lon="10.4745662"><ele>209.25</ele><time>2026-03-28T08:27:14.841Z</time></trkpt><trkpt lat="45.5026039" lon="10.4746306"><ele>209.0</ele><time>2026-03-28T08:27:15.841Z</time></trkpt><trkpt lat="45.5024907" lon="10.4746661"><ele>209.0</ele><time>2026-03-28T08:27:16.842Z</time></trkpt><trkpt lat="45.5023725" lon="10.4746623"><ele>209.0</ele><time>2026-03-28T08:27:17.841Z</time></trkpt><trkpt lat="45.50225" lon="10.474625"><ele>209.0</ele><time>2026-03-28T08:27:18.841Z</time></trkpt><trkpt lat="45.5021341" lon="10.4745786"><ele>209.0</ele><time>2026-03-28T08:27:19.842Z</time></trkpt><trkpt lat="45.502018" lon="10.4745172"><ele>209.25</ele><time>2026-03-28T08:27:20.84Z</time></trkpt><trkpt lat="45.5019006" lon="10.4744477"><ele>209.5</ele><time>2026-03-28T08:27:21.841Z</time></trkpt><trkpt lat="45.5017855" lon="10.4743677"><ele>209.75</ele><time>2026-03-28T08:27:22.841Z</time></trkpt><trkpt lat="45.501687" lon="10.4742876"><ele>210.0</ele><time>2026-03-28T08:27:23.84Z</time></trkpt><trkpt lat="45.5015944" lon="10.4742011"><ele>210.0</ele><time>2026-03-28T08:27:24.841Z</time></trkpt><trkpt lat="45.5015167" lon="10.4741285"><ele>210.0</ele><time>2026-03-28T08:27:25.842Z</time></trkpt><trkpt lat="45.5014556" lon="10.4740738"><ele>210.0</ele><time>2026-03-28T08:27:26.842Z</time></trkpt><trkpt lat="45.501327" lon="10.4740596"><ele>210.0</ele><time>2026-03-28T08:27:28.841Z</time></trkpt><trkpt lat="45.5012606" lon="10.4740839"><ele>210.0</ele><time>2026-03-28T08:27:29.84Z</time></trkpt><trkpt lat="45.5011374" lon="10.4740596"><ele>209.8</ele><time>2026-03-28T08:27:31.84Z</time></trkpt><trkpt lat="45.5010675" lon="10.4740018"><ele>209.6</ele><time>2026-03-28T08:27:32.842Z</time></trkpt><trkpt lat="45.5010114" lon="10.4739129"><ele>209.39999999999998</ele><time>2026-03-28T08:27:33.842Z</time></trkpt><trkpt lat="45.5009597" lon="10.4738096"><ele>209.2</ele><time>2026-03-28T08:27:34.84Z</time></trkpt><trkpt lat="45.5009088" lon="10.4736884"><ele>209.0</ele><time>2026-03-28T08:27:35.841Z</time></trkpt><trkpt lat="45.5008644" lon="10.4735625"><ele>209.0</ele><time>2026-03-28T08:27:36.842Z</time></trkpt><trkpt lat="45.5008128" lon="10.4734248"><ele>209.0</ele><time>2026-03-28T08:27:37.841Z</time></trkpt><trkpt lat="45.5007724" lon="10.4732943"><ele>209.0</ele><time>2026-03-28T08:27:38.84Z</time></trkpt><trkpt lat="45.5007368" lon="10.4731774"><ele>209.0</ele><time>2026-03-28T08:27:39.841Z</time></trkpt><trkpt lat="45.5006948" lon="10.4730781"><ele>209.0</ele><time>2026-03-28T08:27:40.841Z</time></trkpt><trkpt lat="45.5006026" lon="10.4730513"><ele>209.0</ele><time>2026-03-28T08:27:41.842Z</time></trkpt><trkpt lat="45.5005119" lon="10.4730059"><ele>209.0</ele><time>2026-03-28T08:27:42.84Z</time></trkpt><trkpt lat="45.5003658" lon="10.4729896"><ele>209.0</ele><time>2026-03-28T08:27:43.842Z</time></trkpt><trkpt lat="45.5002477" lon="10.4729505"><ele>209.0</ele><time>2026-03-28T08:27:44.842Z</time></trkpt><trkpt lat="45.5001264" lon="10.4729143"><ele>207.25</ele><time>2026-03-28T08:27:45.84Z</time></trkpt><trkpt lat="45.5000084" lon="10.4728835"><ele>205.5</ele><time>2026-03-28T08:27:46.841Z</time></trkpt><trkpt lat="45.499885" lon="10.4728459"><ele>203.75</ele><time>2026-03-28T08:27:47.841Z</time></trkpt><trkpt lat="45.499764" lon="10.4728091"><ele>202.0</ele><time>2026-03-28T08:27:48.842Z</time></trkpt><trkpt lat="45.4996452" lon="10.4727776"><ele>201.39999999999998</ele><time>2026-03-28T08:27:49.84Z</time></trkpt><trkpt lat="45.4995381" lon="10.4727436"><ele>200.79999999999998</ele><time>2026-03-28T08:27:50.84Z</time></trkpt><trkpt lat="45.4994284" lon="10.4727085"><ele>200.2</ele><time>2026-03-28T08:27:51.84Z</time></trkpt><trkpt lat="45.4993214" lon="10.4726809"><ele>199.6</ele><time>2026-03-28T08:27:52.84Z</time></trkpt><trkpt lat="45.4992227" lon="10.4726533"><ele>199.0</ele><time>2026-03-28T08:27:53.842Z</time></trkpt><trkpt lat="45.4991356" lon="10.4726223"><ele>199.0</ele><time>2026-03-28T08:27:54.841Z</time></trkpt><trkpt lat="45.499035" lon="10.4725939"><ele>199.0</ele><time>2026-03-28T08:27:56.842Z</time></trkpt><trkpt lat="45.4990201" lon="10.4727263"><ele>199.0</ele><time>2026-03-28T08:28:08.841Z</time></trkpt><trkpt lat="45.4990186" lon="10.4728716"><ele>199.0</ele><time>2026-03-28T08:28:09.841Z</time></trkpt><trkpt lat="45.499011" lon="10.4730113"><ele>199.0</ele><time>2026-03-28T08:28:10.84Z</time></trkpt><trkpt lat="45.4990083" lon="10.4731512"><ele>199.2</ele><time>2026-03-28T08:28:11.84Z</time></trkpt><trkpt lat="45.499003" lon="10.4732992"><ele>199.39999999999998</ele><time>2026-03-28T08:28:12.841Z</time></trkpt><trkpt lat="45.4989959" lon="10.4734493"><ele>199.6</ele><time>2026-03-28T08:28:13.842Z</time></trkpt><trkpt lat="45.4989883" lon="10.4736223"><ele>199.8</ele><time>2026-03-28T08:28:14.84Z</time></trkpt><trkpt lat="45.4989837" lon="10.4737779"><ele>200.0</ele><time>2026-03-28T08:28:15.842Z</time></trkpt><trkpt lat="45.4989792" lon="10.4739362"><ele>200.4</ele><time>2026-03-28T08:28:16.842Z</time></trkpt><trkpt lat="45.4989736" lon="10.4740943"><ele>200.8</ele><time>2026-03-28T08:28:17.842Z</time></trkpt><trkpt lat="45.4989686" lon="10.4742518"><ele>201.2</ele><time>2026-03-28T08:28:18.841Z</time></trkpt><trkpt lat="45.4989623" lon="10.4744103"><ele>201.6</ele><time>2026-03-28T08:28:19.841Z</time></trkpt><trkpt lat="45.498961" lon="10.47457"><ele>202.0</ele><time>2026-03-28T08:28:20.841Z</time></trkpt><trkpt lat="45.4989594" lon="10.4747318"><ele>202.33333333333331</ele><time>2026-03-28T08:28:21.84Z</time></trkpt><trkpt lat="45.4989516" lon="10.474867"><ele>202.66666666666666</ele><time>2026-03-28T08:28:22.842Z</time></trkpt><trkpt lat="45.498941" lon="10.4749795"><ele>203.0</ele><time>2026-03-28T08:28:23.841Z</time></trkpt><trkpt lat="45.498929" lon="10.4750934"><ele>203.33333333333331</ele><time>2026-03-28T08:28:24.841Z</time></trkpt><trkpt lat="45.4989255" lon="10.4752084"><ele>203.66666666666666</ele><time>2026-03-28T08:28:25.842Z</time></trkpt><trkpt lat="45.4989249" lon="10.4753036"><ele>204.0</ele><time>2026-03-28T08:28:26.841Z</time></trkpt><trkpt lat="45.4988885" lon="10.4754252"><ele>204.79999999999998</ele><time>2026-03-28T08:28:28.842Z</time></trkpt><trkpt lat="45.49879" lon="10.4754476"><ele>205.6</ele><time>2026-03-28T08:28:30.84Z</time></trkpt><trkpt lat="45.4987124" lon="10.4754387"><ele>206.4</ele><time>2026-03-28T08:28:31.841Z</time></trkpt><trkpt lat="45.4986232" lon="10.4754488"><ele>207.2</ele><time>2026-03-28T08:28:32.841Z</time></trkpt><trkpt lat="45.4985292" lon="10.4754645"><ele>208.0</ele><time>2026-03-28T08:28:33.841Z</time></trkpt><trkpt lat="45.4984263" lon="10.4754775"><ele>208.0</ele><time>2026-03-28T08:28:34.84Z</time></trkpt><trkpt lat="45.4983149" lon="10.4754867"><ele>208.0</ele><time>2026-03-28T08:28:35.842Z</time></trkpt><trkpt lat="45.4981956" lon="10.475493"><ele>208.0</ele><time>2026-03-28T08:28:36.841Z</time></trkpt><trkpt lat="45.4980687" lon="10.4754934"><ele>208.0</ele><time>2026-03-28T08:28:37.841Z</time></trkpt><trkpt lat="45.4979269" lon="10.4754948"><ele>208.25</ele><time>2026-03-28T08:28:38.84Z</time></trkpt><trkpt lat="45.497783" lon="10.4754825"><ele>208.5</ele><time>2026-03-28T08:28:39.841Z</time></trkpt><trkpt lat="45.4976404" lon="10.4754586"><ele>208.75</ele><time>2026-03-28T08:28:40.842Z</time></trkpt><trkpt lat="45.497498" lon="10.4754259"><ele>209.0</ele><time>2026-03-28T08:28:41.841Z</time></trkpt><trkpt lat="45.4973719" lon="10.4753909"><ele>208.0</ele><time>2026-03-28T08:28:42.84Z</time></trkpt><trkpt lat="45.4972577" lon="10.4753565"><ele>207.0</ele><time>2026-03-28T08:28:43.841Z</time></trkpt><trkpt lat="45.4971327" lon="10.475331"><ele>206.0</ele><time>2026-03-28T08:28:44.841Z</time></trkpt><trkpt lat="45.4970103" lon="10.4752999"><ele>205.0</ele><time>2026-03-28T08:28:45.84Z</time></trkpt><trkpt lat="45.4968902" lon="10.4752549"><ele>205.0</ele><time>2026-03-28T08:28:46.842Z</time></trkpt><trkpt lat="45.4967698" lon="10.4752225"><ele>205.0</ele><time>2026-03-28T08:28:47.84Z</time></trkpt><trkpt lat="45.4966361" lon="10.4751953"><ele>205.0</ele><time>2026-03-28T08:28:48.841Z</time></trkpt><trkpt lat="45.4965037" lon="10.4751778"><ele>205.0</ele><time>2026-03-28T08:28:49.842Z</time></trkpt><trkpt lat="45.4963622" lon="10.4751585"><ele>205.5</ele><time>2026-03-28T08:28:50.84Z</time></trkpt><trkpt lat="45.4962238" lon="10.4751394"><ele>206.0</ele><time>2026-03-28T08:28:51.842Z</time></trkpt><trkpt lat="45.4960877" lon="10.4751258"><ele>206.5</ele><time>2026-03-28T08:28:52.841Z</time></trkpt><trkpt lat="45.4959555" lon="10.4751119"><ele>207.0</ele><time>2026-03-28T08:28:53.84Z</time></trkpt><trkpt lat="45.4958347" lon="10.4750929"><ele>207.0</ele><time>2026-03-28T08:28:54.84Z</time></trkpt><trkpt lat="45.495716" lon="10.4750602"><ele>207.0</ele><time>2026-03-28T08:28:55.842Z</time></trkpt><trkpt lat="45.4955992" lon="10.4750411"><ele>207.0</ele><time>2026-03-28T08:28:56.841Z</time></trkpt><trkpt lat="45.4954793" lon="10.47503"><ele>207.0</ele><time>2026-03-28T08:28:57.842Z</time></trkpt><trkpt lat="45.4953562" lon="10.4750151"><ele>207.25</ele><time>2026-03-28T08:28:58.841Z</time></trkpt><trkpt lat="45.4952388" lon="10.4750023"><ele>207.5</ele><time>2026-03-28T08:28:59.842Z</time></trkpt><trkpt lat="45.4951148" lon="10.4749935"><ele>207.75</ele><time>2026-03-28T08:29:00.841Z</time></trkpt><trkpt lat="45.4949899" lon="10.47499"><ele>208.0</ele><time>2026-03-28T08:29:01.841Z</time></trkpt><trkpt lat="45.4948636" lon="10.4749815"><ele>208.0</ele><time>2026-03-28T08:29:02.84Z</time></trkpt><trkpt lat="45.4947392" lon="10.4749702"><ele>208.0</ele><time>2026-03-28T08:29:03.84Z</time></trkpt><trkpt lat="45.4946099" lon="10.4749609"><ele>208.0</ele><time>2026-03-28T08:29:04.842Z</time></trkpt><trkpt lat="45.494483" lon="10.4749426"><ele>208.0</ele><time>2026-03-28T08:29:05.84Z</time></trkpt><trkpt lat="45.4943534" lon="10.4749339"><ele>208.0</ele><time>2026-03-28T08:29:06.841Z</time></trkpt><trkpt lat="45.4942219" lon="10.4749197"><ele>208.0</ele><time>2026-03-28T08:29:07.84Z</time></trkpt><trkpt lat="45.4940961" lon="10.4749103"><ele>208.0</ele><time>2026-03-28T08:29:08.842Z</time></trkpt><trkpt lat="45.4939773" lon="10.4749023"><ele>208.0</ele><time>2026-03-28T08:29:09.841Z</time></trkpt><trkpt lat="45.4938582" lon="10.474904"><ele>209.0</ele><time>2026-03-28T08:29:10.841Z</time></trkpt><trkpt lat="45.49375" lon="10.4749144"><ele>210.0</ele><time>2026-03-28T08:29:11.841Z</time></trkpt><trkpt lat="45.493637" lon="10.4749324"><ele>211.0</ele><time>2026-03-28T08:29:12.841Z</time></trkpt><trkpt lat="45.4935184" lon="10.4749442"><ele>212.0</ele><time>2026-03-28T08:29:13.842Z</time></trkpt><trkpt lat="45.4933989" lon="10.4749454"><ele>212.0</ele><time>2026-03-28T08:29:14.842Z</time></trkpt><trkpt lat="45.4932728" lon="10.4749393"><ele>212.0</ele><time>2026-03-28T08:29:15.841Z</time></trkpt><trkpt lat="45.4931456" lon="10.4749295"><ele>212.0</ele><time>2026-03-28T08:29:16.841Z</time></trkpt><trkpt lat="45.4930323" lon="10.4749185"><ele>212.0</ele><time>2026-03-28T08:29:17.841Z</time></trkpt><trkpt lat="45.4929419" lon="10.4749115"><ele>212.8</ele><time>2026-03-28T08:29:18.841Z</time></trkpt><trkpt lat="45.492879" lon="10.4748912"><ele>213.6</ele><time>2026-03-28T08:29:19.841Z</time></trkpt><trkpt lat="45.4928143" lon="10.4748571"><ele>214.40000000000003</ele><time>2026-03-28T08:29:20.841Z</time></trkpt><trkpt lat="45.4928179" lon="10.474714"><ele>215.20000000000002</ele><time>2026-03-28T08:29:21.84Z</time></trkpt><trkpt lat="45.492799" lon="10.4745782"><ele>216.0</ele><time>2026-03-28T08:29:22.84Z</time></trkpt><trkpt lat="45.4927733" lon="10.4743969"><ele>216.0</ele><time>2026-03-28T08:29:23.842Z</time></trkpt><trkpt lat="45.4927417" lon="10.4742279"><ele>216.0</ele><time>2026-03-28T08:29:24.84Z</time></trkpt><trkpt lat="45.4926879" lon="10.4740243"><ele>216.0</ele><time>2026-03-28T08:29:25.842Z</time></trkpt><trkpt lat="45.4926508" lon="10.4738689"><ele>216.0</ele><time>2026-03-28T08:29:26.841Z</time></trkpt><trkpt lat="45.4925981" lon="10.4737456"><ele>214.8</ele><time>2026-03-28T08:29:27.841Z</time></trkpt><trkpt lat="45.4925268" lon="10.4736207"><ele>213.60000000000002</ele><time>2026-03-28T08:29:28.841Z</time></trkpt><trkpt lat="45.49246" lon="10.4734841"><ele>212.4</ele><time>2026-03-28T08:29:29.841Z</time></trkpt><trkpt lat="45.492402" lon="10.4733498"><ele>211.2</ele><time>2026-03-28T08:29:30.841Z</time></trkpt><trkpt lat="45.4923627" lon="10.4732462"><ele>210.0</ele><time>2026-03-28T08:29:31.84Z</time></trkpt><trkpt lat="45.4922886" lon="10.4731419"><ele>210.0</ele><time>2026-03-28T08:29:32.841Z</time></trkpt><trkpt lat="45.4922074" lon="10.4730622"><ele>210.0</ele><time>2026-03-28T08:29:33.84Z</time></trkpt><trkpt lat="45.4921218" lon="10.4729887"><ele>210.0</ele><time>2026-03-28T08:29:34.84Z</time></trkpt><trkpt lat="45.4920324" lon="10.4729269"><ele>210.0</ele><time>2026-03-28T08:29:35.841Z</time></trkpt><trkpt lat="45.4919335" lon="10.4728778"><ele>210.0</ele><time>2026-03-28T08:29:36.84Z</time></trkpt><trkpt lat="45.491831" lon="10.4728616"><ele>208.75</ele><time>2026-03-28T08:29:37.841Z</time></trkpt><trkpt lat="45.491715" lon="10.4728764"><ele>207.5</ele><time>2026-03-28T08:29:38.842Z</time></trkpt><trkpt lat="45.491596" lon="10.4729071"><ele>206.25</ele><time>2026-03-28T08:29:39.842Z</time></trkpt><trkpt lat="45.4914744" lon="10.4729363"><ele>205.0</ele><time>2026-03-28T08:29:40.841Z</time></trkpt><trkpt lat="45.4913474" lon="10.4729683"><ele>204.0</ele><time>2026-03-28T08:29:41.842Z</time></trkpt><trkpt lat="45.4912194" lon="10.4729979"><ele>203.0</ele><time>2026-03-28T08:29:42.84Z</time></trkpt><trkpt lat="45.4910913" lon="10.4730257"><ele>202.0</ele><time>2026-03-28T08:29:43.839Z</time></trkpt><trkpt lat="45.4909757" lon="10.4730509"><ele>201.0</ele><time>2026-03-28T08:29:44.84Z</time></trkpt><trkpt lat="45.4908655" lon="10.4730693"><ele>201.0</ele><time>2026-03-28T08:29:45.839Z</time></trkpt><trkpt lat="45.4907632" lon="10.4730792"><ele>201.0</ele><time>2026-03-28T08:29:46.84Z</time></trkpt><trkpt lat="45.4906601" lon="10.4731021"><ele>201.0</ele><time>2026-03-28T08:29:47.84Z</time></trkpt><trkpt lat="45.4905473" lon="10.4731421"><ele>201.0</ele><time>2026-03-28T08:29:48.84Z</time></trkpt><trkpt lat="45.4904339" lon="10.4732003"><ele>201.0</ele><time>2026-03-28T08:29:49.84Z</time></trkpt><trkpt lat="45.4903144" lon="10.4732731"><ele>198.60000000000002</ele><time>2026-03-28T08:29:50.84Z</time></trkpt><trkpt lat="45.4902004" lon="10.4733544"><ele>196.2</ele><time>2026-03-28T08:29:51.84Z</time></trkpt><trkpt lat="45.4900937" lon="10.4734364"><ele>193.8</ele><time>2026-03-28T08:29:52.84Z</time></trkpt><trkpt lat="45.4900087" lon="10.4735099"><ele>191.39999999999998</ele><time>2026-03-28T08:29:53.84Z</time></trkpt><trkpt lat="45.4899301" lon="10.4735876"><ele>189.0</ele><time>2026-03-28T08:29:54.84Z</time></trkpt><trkpt lat="45.4898478" lon="10.4736711"><ele>189.0</ele><time>2026-03-28T08:29:55.839Z</time></trkpt><trkpt lat="45.4897711" lon="10.4737615"><ele>189.0</ele><time>2026-03-28T08:29:56.84Z</time></trkpt><trkpt lat="45.4896785" lon="10.4738563"><ele>189.0</ele><time>2026-03-28T08:29:57.84Z</time></trkpt><trkpt lat="45.4895833" lon="10.4739439"><ele>189.0</ele><time>2026-03-28T08:29:58.84Z</time></trkpt><trkpt lat="45.4894822" lon="10.4740309"><ele>189.0</ele><time>2026-03-28T08:29:59.84Z</time></trkpt><trkpt lat="45.4893737" lon="10.4741055"><ele>188.25</ele><time>2026-03-28T08:30:00.841Z</time></trkpt><trkpt lat="45.4892614" lon="10.4741714"><ele>187.5</ele><time>2026-03-28T08:30:01.839Z</time></trkpt><trkpt lat="45.489146" lon="10.4742405"><ele>186.75</ele><time>2026-03-28T08:30:02.839Z</time></trkpt><trkpt lat="45.4890236" lon="10.4743087"><ele>186.0</ele><time>2026-03-28T08:30:03.841Z</time></trkpt><trkpt lat="45.4889059" lon="10.4743789"><ele>186.0</ele><time>2026-03-28T08:30:04.84Z</time></trkpt><trkpt lat="45.4887987" lon="10.4744399"><ele>186.0</ele><time>2026-03-28T08:30:05.84Z</time></trkpt><trkpt lat="45.4886929" lon="10.4744927"><ele>186.0</ele><time>2026-03-28T08:30:06.841Z</time></trkpt><trkpt lat="45.4885944" lon="10.4745403"><ele>186.0</ele><time>2026-03-28T08:30:07.84Z</time></trkpt><trkpt lat="45.4884944" lon="10.4745933"><ele>186.0</ele><time>2026-03-28T08:30:08.84Z</time></trkpt><trkpt lat="45.4884009" lon="10.4746507"><ele>185.60000000000002</ele><time>2026-03-28T08:30:09.84Z</time></trkpt><trkpt lat="45.4883145" lon="10.474707"><ele>185.2</ele><time>2026-03-28T08:30:10.841Z</time></trkpt><trkpt lat="45.4882257" lon="10.4747652"><ele>184.8</ele><time>2026-03-28T08:30:11.841Z</time></trkpt><trkpt lat="45.4881377" lon="10.4748194"><ele>184.39999999999998</ele><time>2026-03-28T08:30:12.84Z</time></trkpt><trkpt lat="45.4880441" lon="10.4748656"><ele>184.0</ele><time>2026-03-28T08:30:13.841Z</time></trkpt><trkpt lat="45.4879481" lon="10.4749165"><ele>183.6</ele><time>2026-03-28T08:30:14.84Z</time></trkpt><trkpt lat="45.4878473" lon="10.4749793"><ele>183.2</ele><time>2026-03-28T08:30:15.839Z</time></trkpt><trkpt lat="45.4877572" lon="10.4750458"><ele>182.79999999999998</ele><time>2026-03-28T08:30:16.84Z</time></trkpt><trkpt lat="45.4876789" lon="10.4751176"><ele>182.39999999999998</ele><time>2026-03-28T08:30:17.84Z</time></trkpt><trkpt lat="45.4876031" lon="10.4751893"><ele>182.0</ele><time>2026-03-28T08:30:18.841Z</time></trkpt><trkpt lat="45.4875433" lon="10.4752462"><ele>182.0</ele><time>2026-03-28T08:30:19.84Z</time></trkpt><trkpt lat="45.487505" lon="10.475352"><ele>182.0</ele><time>2026-03-28T08:30:21.84Z</time></trkpt><trkpt lat="45.487478" lon="10.4754407"><ele>182.0</ele><time>2026-03-28T08:30:24.84Z</time></trkpt><trkpt lat="45.4874147" lon="10.4754692"><ele>182.0</ele><time>2026-03-28T08:30:34.84Z</time></trkpt><trkpt lat="45.4873346" lon="10.4755499"><ele>182.0</ele><time>2026-03-28T08:30:36.84Z</time></trkpt><trkpt lat="45.4872722" lon="10.4755816"><ele>182.0</ele><time>2026-03-28T08:30:37.839Z</time></trkpt><trkpt lat="45.4872045" lon="10.4756151"><ele>182.66666666666666</ele><time>2026-03-28T08:30:38.84Z</time></trkpt><trkpt lat="45.4870909" lon="10.4755941"><ele>183.33333333333331</ele><time>2026-03-28T08:30:40.839Z</time></trkpt><trkpt lat="45.4870336" lon="10.4755351"><ele>184.0</ele><time>2026-03-28T08:30:41.84Z</time></trkpt><trkpt lat="45.48699" lon="10.475463"><ele>184.66666666666666</ele><time>2026-03-28T08:30:42.84Z</time></trkpt><trkpt lat="45.486961" lon="10.4753488"><ele>185.33333333333334</ele><time>2026-03-28T08:30:43.839Z</time></trkpt><trkpt lat="45.486927" lon="10.4752448"><ele>186.0</ele><time>2026-03-28T08:30:44.84Z</time></trkpt><trkpt lat="45.4868916" lon="10.4751258"><ele>186.0</ele><time>2026-03-28T08:30:45.841Z</time></trkpt><trkpt lat="45.48686" lon="10.4750109"><ele>186.0</ele><time>2026-03-28T08:30:46.841Z</time></trkpt><trkpt lat="45.486831" lon="10.4749041"><ele>186.0</ele><time>2026-03-28T08:30:47.841Z</time></trkpt><trkpt lat="45.4868063" lon="10.4748071"><ele>186.0</ele><time>2026-03-28T08:30:48.841Z</time></trkpt><trkpt lat="45.4867825" lon="10.4747013"><ele>186.0</ele><time>2026-03-28T08:30:49.84Z</time></trkpt><trkpt lat="45.4867528" lon="10.4745912"><ele>186.0</ele><time>2026-03-28T08:30:50.839Z</time></trkpt><trkpt lat="45.486727" lon="10.4744727"><ele>185.83333333333334</ele><time>2026-03-28T08:30:51.839Z</time></trkpt><trkpt lat="45.4867045" lon="10.4743484"><ele>185.66666666666666</ele><time>2026-03-28T08:30:52.84Z</time></trkpt><trkpt lat="45.4866898" lon="10.4742261"><ele>185.5</ele><time>2026-03-28T08:30:53.841Z</time></trkpt><trkpt lat="45.4866747" lon="10.4741029"><ele>185.33333333333331</ele><time>2026-03-28T08:30:54.841Z</time></trkpt><trkpt lat="45.4866531" lon="10.4739857"><ele>185.16666666666666</ele><time>2026-03-28T08:30:55.84Z</time></trkpt><trkpt lat="45.4866399" lon="10.4738721"><ele>185.0</ele><time>2026-03-28T08:30:56.841Z</time></trkpt><trkpt lat="45.4866224" lon="10.4737727"><ele>185.0</ele><time>2026-03-28T08:30:57.839Z</time></trkpt><trkpt lat="45.4865977" lon="10.4736762"><ele>185.0</ele><time>2026-03-28T08:30:58.84Z</time></trkpt><trkpt lat="45.4865594" lon="10.4735725"><ele>185.0</ele><time>2026-03-28T08:30:59.84Z</time></trkpt><trkpt lat="45.4865307" lon="10.4734888"><ele>185.0</ele><time>2026-03-28T08:31:00.84Z</time></trkpt><trkpt lat="45.4864751" lon="10.4733656"><ele>185.0</ele><time>2026-03-28T08:31:02.841Z</time></trkpt><trkpt lat="45.4864213" lon="10.4732628"><ele>185.0</ele><time>2026-03-28T08:31:04.84Z</time></trkpt><trkpt lat="45.4863835" lon="10.4731564"><ele>185.0</ele><time>2026-03-28T08:31:50.839Z</time></trkpt><trkpt lat="45.4863442" lon="10.4730762"><ele>185.0</ele><time>2026-03-28T08:31:51.841Z</time></trkpt><trkpt lat="45.4863019" lon="10.4729887"><ele>185.0</ele><time>2026-03-28T08:31:52.839Z</time></trkpt><trkpt lat="45.4862561" lon="10.4728838"><ele>185.0</ele><time>2026-03-28T08:31:53.84Z</time></trkpt><trkpt lat="45.4862103" lon="10.4727879"><ele>185.0</ele><time>2026-03-28T08:31:54.841Z</time></trkpt><trkpt lat="45.4861577" lon="10.4727039"><ele>185.0</ele><time>2026-03-28T08:31:55.84Z</time></trkpt><trkpt lat="45.4861031" lon="10.4726278"><ele>184.66666666666666</ele><time>2026-03-28T08:31:56.84Z</time></trkpt><trkpt lat="45.4860376" lon="10.4725583"><ele>184.33333333333331</ele><time>2026-03-28T08:31:57.841Z</time></trkpt><trkpt lat="45.4859728" lon="10.4724973"><ele>184.0</ele><time>2026-03-28T08:31:58.84Z</time></trkpt><trkpt lat="45.4859141" lon="10.4724385"><ele>183.66666666666666</ele><time>2026-03-28T08:31:59.839Z</time></trkpt><trkpt lat="45.4858361" lon="10.4723514"><ele>183.33333333333334</ele><time>2026-03-28T08:32:01.839Z</time></trkpt><trkpt lat="45.4857502" lon="10.4723196"><ele>183.0</ele><time>2026-03-28T08:32:03.839Z</time></trkpt><trkpt lat="45.485646" lon="10.4723444"><ele>183.0</ele><time>2026-03-28T08:32:05.84Z</time></trkpt><trkpt lat="45.4855847" lon="10.472275"><ele>183.0</ele><time>2026-03-28T08:32:07.84Z</time></trkpt><trkpt lat="45.4855496" lon="10.4721876"><ele>183.0</ele><time>2026-03-28T08:32:08.839Z</time></trkpt><trkpt lat="45.485525" lon="10.4720733"><ele>183.0</ele><time>2026-03-28T08:32:09.839Z</time></trkpt><trkpt lat="45.4855014" lon="10.4719347"><ele>183.0</ele><time>2026-03-28T08:32:10.84Z</time></trkpt><trkpt lat="45.485476" lon="10.4717921"><ele>183.0</ele><time>2026-03-28T08:32:11.84Z</time></trkpt><trkpt lat="45.4854437" lon="10.4716467"><ele>181.75</ele><time>2026-03-28T08:32:12.84Z</time></trkpt><trkpt lat="45.4854018" lon="10.4715002"><ele>180.5</ele><time>2026-03-28T08:32:13.839Z</time></trkpt><trkpt lat="45.4853584" lon="10.4713514"><ele>179.25</ele><time>2026-03-28T08:32:14.839Z</time></trkpt><trkpt lat="45.4853245" lon="10.4712042"><ele>178.0</ele><time>2026-03-28T08:32:15.841Z</time></trkpt><trkpt lat="45.4852964" lon="10.4710397"><ele>177.25</ele><time>2026-03-28T08:32:16.84Z</time></trkpt><trkpt lat="45.4852773" lon="10.4708653"><ele>176.5</ele><time>2026-03-28T08:32:17.84Z</time></trkpt><trkpt lat="45.4852493" lon="10.4706831"><ele>175.75</ele><time>2026-03-28T08:32:18.84Z</time></trkpt><trkpt lat="45.4852226" lon="10.4704941"><ele>175.0</ele><time>2026-03-28T08:32:19.84Z</time></trkpt><trkpt lat="45.4851962" lon="10.4703088"><ele>174.25</ele><time>2026-03-28T08:32:20.84Z</time></trkpt><trkpt lat="45.4851713" lon="10.4701316"><ele>173.5</ele><time>2026-03-28T08:32:21.84Z</time></trkpt><trkpt lat="45.4851487" lon="10.4699716"><ele>172.75</ele><time>2026-03-28T08:32:22.841Z</time></trkpt><trkpt lat="45.4851274" lon="10.4698164"><ele>172.0</ele><time>2026-03-28T08:32:23.84Z</time></trkpt><trkpt lat="45.4851117" lon="10.469659"><ele>171.75</ele><time>2026-03-28T08:32:24.839Z</time></trkpt><trkpt lat="45.4851082" lon="10.4694975"><ele>171.5</ele><time>2026-03-28T08:32:25.84Z</time></trkpt><trkpt lat="45.48512" lon="10.4693298"><ele>171.25</ele><time>2026-03-28T08:32:26.839Z</time></trkpt><trkpt lat="45.4851286" lon="10.4691568"><ele>171.0</ele><time>2026-03-28T08:32:27.84Z</time></trkpt><trkpt lat="45.4851278" lon="10.4689802"><ele>171.0</ele><time>2026-03-28T08:32:28.84Z</time></trkpt><trkpt lat="45.4851205" lon="10.4688011"><ele>171.0</ele><time>2026-03-28T08:32:29.84Z</time></trkpt><trkpt lat="45.4851101" lon="10.4686222"><ele>171.0</ele><time>2026-03-28T08:32:30.84Z</time></trkpt><trkpt lat="45.4850966" lon="10.468445"><ele>171.0</ele><time>2026-03-28T08:32:31.84Z</time></trkpt><trkpt lat="45.4850841" lon="10.4682687"><ele>170.75</ele><time>2026-03-28T08:32:32.84Z</time></trkpt><trkpt lat="45.4850757" lon="10.4680936"><ele>170.5</ele><time>2026-03-28T08:32:33.84Z</time></trkpt><trkpt lat="45.485065" lon="10.4679152"><ele>170.25</ele><time>2026-03-28T08:32:34.84Z</time></trkpt><trkpt lat="45.4850524" lon="10.467742"><ele>170.0</ele><time>2026-03-28T08:32:35.84Z</time></trkpt><trkpt lat="45.485036" lon="10.4675721"><ele>169.75</ele><time>2026-03-28T08:32:36.84Z</time></trkpt><trkpt lat="45.4850184" lon="10.4673974"><ele>169.5</ele><time>2026-03-28T08:32:37.839Z</time></trkpt><trkpt lat="45.4850002" lon="10.4672189"><ele>169.25</ele><time>2026-03-28T08:32:38.841Z</time></trkpt><trkpt lat="45.4849783" lon="10.4670373"><ele>169.0</ele><time>2026-03-28T08:32:39.841Z</time></trkpt><trkpt lat="45.4849474" lon="10.4668562"><ele>169.0</ele><time>2026-03-28T08:32:40.84Z</time></trkpt><trkpt lat="45.4849176" lon="10.4666798"><ele>169.0</ele><time>2026-03-28T08:32:41.839Z</time></trkpt><trkpt lat="45.4848859" lon="10.466488"><ele>169.0</ele><time>2026-03-28T08:32:42.841Z</time></trkpt><trkpt lat="45.4848587" lon="10.4662798"><ele>169.0</ele><time>2026-03-28T08:32:43.839Z</time></trkpt><trkpt lat="45.4848383" lon="10.4660653"><ele>168.33333333333334</ele><time>2026-03-28T08:32:44.84Z</time></trkpt><trkpt lat="45.4848154" lon="10.4658472"><ele>167.66666666666666</ele><time>2026-03-28T08:32:45.839Z</time></trkpt><trkpt lat="45.4847904" lon="10.465632"><ele>167.0</ele><time>2026-03-28T08:32:46.839Z</time></trkpt><trkpt lat="45.484765" lon="10.4654323"><ele>166.66666666666666</ele><time>2026-03-28T08:32:47.841Z</time></trkpt><trkpt lat="45.4847368" lon="10.4652288"><ele>166.33333333333334</ele><time>2026-03-28T08:32:48.839Z</time></trkpt><trkpt lat="45.484712" lon="10.4650075"><ele>166.0</ele><time>2026-03-28T08:32:49.839Z</time></trkpt><trkpt lat="45.4846838" lon="10.4647488"><ele>165.66666666666669</ele><time>2026-03-28T08:32:50.84Z</time></trkpt><trkpt lat="45.4846564" lon="10.4644816"><ele>165.33333333333334</ele><time>2026-03-28T08:32:51.839Z</time></trkpt><trkpt lat="45.4846274" lon="10.4642208"><ele>165.0</ele><time>2026-03-28T08:32:52.84Z</time></trkpt><trkpt lat="45.484604" lon="10.4639699"><ele>164.66666666666666</ele><time>2026-03-28T08:32:53.841Z</time></trkpt><trkpt lat="45.4845855" lon="10.4637155"><ele>164.33333333333331</ele><time>2026-03-28T08:32:54.841Z</time></trkpt><trkpt lat="45.4845779" lon="10.4634922"><ele>164.0</ele><time>2026-03-28T08:32:55.841Z</time></trkpt><trkpt lat="45.484578" lon="10.4632992"><ele>164.0</ele><time>2026-03-28T08:32:56.841Z</time></trkpt><trkpt lat="45.4845865" lon="10.4631183"><ele>164.0</ele><time>2026-03-28T08:32:57.839Z</time></trkpt><trkpt lat="45.4845974" lon="10.462929"><ele>164.0</ele><time>2026-03-28T08:32:58.84Z</time></trkpt><trkpt lat="45.4845991" lon="10.462772"><ele>164.0</ele><time>2026-03-28T08:32:59.84Z</time></trkpt><trkpt lat="45.4846039" lon="10.4626294"><ele>164.0</ele><time>2026-03-28T08:33:00.84Z</time></trkpt><trkpt lat="45.4846098" lon="10.4624971"><ele>164.0</ele><time>2026-03-28T08:33:01.839Z</time></trkpt><trkpt lat="45.4846175" lon="10.4623807"><ele>164.0</ele><time>2026-03-28T08:33:02.839Z</time></trkpt><trkpt lat="45.4846234" lon="10.4622877"><ele>164.0</ele><time>2026-03-28T08:33:03.839Z</time></trkpt><trkpt lat="45.4846379" lon="10.4621509"><ele>164.0</ele><time>2026-03-28T08:33:05.839Z</time></trkpt><trkpt lat="45.4846456" lon="10.4620353"><ele>164.0</ele><time>2026-03-28T08:33:09.84Z</time></trkpt><trkpt lat="45.4847064" lon="10.4619978"><ele>164.0</ele><time>2026-03-28T08:33:23.84Z</time></trkpt><trkpt lat="45.4846433" lon="10.4621121"><ele>164.0</ele><time>2026-03-28T08:33:27.84Z</time></trkpt><trkpt lat="45.4846273" lon="10.4622926"><ele>164.0</ele><time>2026-03-28T08:33:29.841Z</time></trkpt><trkpt lat="45.4846286" lon="10.4624551"><ele>164.0</ele><time>2026-03-28T08:33:31.84Z</time></trkpt><trkpt lat="45.484625" lon="10.4625692"><ele>164.0</ele><time>2026-03-28T08:33:32.84Z</time></trkpt><trkpt lat="45.484622" lon="10.4626922"><ele>164.0</ele><time>2026-03-28T08:33:33.839Z</time></trkpt><trkpt lat="45.4846135" lon="10.4628172"><ele>164.0</ele><time>2026-03-28T08:33:34.841Z</time></trkpt><trkpt lat="45.4846026" lon="10.4629313"><ele>164.0</ele><time>2026-03-28T08:33:35.84Z</time></trkpt><trkpt lat="45.4845965" lon="10.4630247"><ele>164.0</ele><time>2026-03-28T08:33:36.84Z</time></trkpt><trkpt lat="45.4845678" lon="10.4631241"><ele>164.0</ele><time>2026-03-28T08:33:38.84Z</time></trkpt><trkpt lat="45.4844868" lon="10.4630978"><ele>164.0</ele><time>2026-03-28T08:33:40.84Z</time></trkpt><trkpt lat="45.4844287" lon="10.462998"><ele>163.75</ele><time>2026-03-28T08:33:41.84Z</time></trkpt><trkpt lat="45.4843653" lon="10.4628479"><ele>163.5</ele><time>2026-03-28T08:33:42.841Z</time></trkpt><trkpt lat="45.4843123" lon="10.4626708"><ele>163.25</ele><time>2026-03-28T08:33:43.841Z</time></trkpt><trkpt lat="45.4842698" lon="10.4625076"><ele>163.0</ele><time>2026-03-28T08:33:44.839Z</time></trkpt><trkpt lat="45.4842071" lon="10.4623593"><ele>163.0</ele><time>2026-03-28T08:33:45.839Z</time></trkpt><trkpt lat="45.4841291" lon="10.4622012"><ele>163.0</ele><time>2026-03-28T08:33:46.84Z</time></trkpt><trkpt lat="45.484071" lon="10.4620756"><ele>163.0</ele><time>2026-03-28T08:33:47.839Z</time></trkpt><trkpt lat="45.48401" lon="10.4619487"><ele>163.0</ele><time>2026-03-28T08:33:48.841Z</time></trkpt><trkpt lat="45.4839615" lon="10.461857"><ele>163.0</ele><time>2026-03-28T08:33:49.84Z</time></trkpt><trkpt lat="45.4839362" lon="10.461764"><ele>163.0</ele><time>2026-03-28T08:33:50.84Z</time></trkpt><trkpt lat="45.4839281" lon="10.4616466"><ele>163.0</ele><time>2026-03-28T08:33:51.84Z</time></trkpt><trkpt lat="45.4839381" lon="10.4614949"><ele>163.0</ele><time>2026-03-28T08:33:52.84Z</time></trkpt><trkpt lat="45.4839481" lon="10.4613264"><ele>163.0</ele><time>2026-03-28T08:33:53.841Z</time></trkpt><trkpt lat="45.4839535" lon="10.4611469"><ele>163.0</ele><time>2026-03-28T08:33:54.839Z</time></trkpt><trkpt lat="45.4839592" lon="10.4609566"><ele>163.0</ele><time>2026-03-28T08:33:55.84Z</time></trkpt><trkpt lat="45.4839558" lon="10.4607519"><ele>163.0</ele><time>2026-03-28T08:33:56.84Z</time></trkpt><trkpt lat="45.4839442" lon="10.4605276"><ele>163.0</ele><time>2026-03-28T08:33:57.84Z</time></trkpt><trkpt lat="45.4839254" lon="10.4603067"><ele>162.75</ele><time>2026-03-28T08:33:58.84Z</time></trkpt><trkpt lat="45.4838971" lon="10.4601002"><ele>162.5</ele><time>2026-03-28T08:33:59.84Z</time></trkpt><trkpt lat="45.4838729" lon="10.4599132"><ele>162.25</ele><time>2026-03-28T08:34:00.84Z</time></trkpt><trkpt lat="45.4838469" lon="10.4597435"><ele>162.0</ele><time>2026-03-28T08:34:01.841Z</time></trkpt><trkpt lat="45.4838134" lon="10.4595836"><ele>161.83333333333334</ele><time>2026-03-28T08:34:02.84Z</time></trkpt><trkpt lat="45.4837898" lon="10.4594556"><ele>161.66666666666666</ele><time>2026-03-28T08:34:03.841Z</time></trkpt><trkpt lat="45.4837908" lon="10.4593548"><ele>161.5</ele><time>2026-03-28T08:34:04.84Z</time></trkpt><trkpt lat="45.4838139" lon="10.4592591"><ele>161.33333333333331</ele><time>2026-03-28T08:34:05.839Z</time></trkpt><trkpt lat="45.4838563" lon="10.4591718"><ele>161.16666666666666</ele><time>2026-03-28T08:34:06.841Z</time></trkpt><trkpt lat="45.4839251" lon="10.4590747"><ele>161.0</ele><time>2026-03-28T08:34:07.839Z</time></trkpt><trkpt lat="45.4839903" lon="10.4589721"><ele>161.0</ele><time>2026-03-28T08:34:08.84Z</time></trkpt><trkpt lat="45.4840619" lon="10.4588601"><ele>161.0</ele><time>2026-03-28T08:34:09.84Z</time></trkpt><trkpt lat="45.4841397" lon="10.4587477"><ele>161.0</ele><time>2026-03-28T08:34:10.84Z</time></trkpt><trkpt lat="45.4842247" lon="10.4586206"><ele>161.0</ele><time>2026-03-28T08:34:11.84Z</time></trkpt><trkpt lat="45.4843146" lon="10.458489"><ele>160.4</ele><time>2026-03-28T08:34:12.841Z</time></trkpt><trkpt lat="45.4843911" lon="10.4583758"><ele>159.8</ele><time>2026-03-28T08:34:13.839Z</time></trkpt><trkpt lat="45.4844528" lon="10.4582618"><ele>159.20000000000002</ele><time>2026-03-28T08:34:14.839Z</time></trkpt><trkpt lat="45.4845049" lon="10.4581232"><ele>158.60000000000002</ele><time>2026-03-28T08:34:15.839Z</time></trkpt><trkpt lat="45.4845298" lon="10.4579999"><ele>158.0</ele><time>2026-03-28T08:34:16.838Z</time></trkpt><trkpt lat="45.4845467" lon="10.4578319"><ele>158.0</ele><time>2026-03-28T08:34:17.839Z</time></trkpt><trkpt lat="45.4845535" lon="10.4576522"><ele>158.0</ele><time>2026-03-28T08:34:18.839Z</time></trkpt><trkpt lat="45.4845545" lon="10.4574348"><ele>158.0</ele><time>2026-03-28T08:34:19.838Z</time></trkpt><trkpt lat="45.4845572" lon="10.4572111"><ele>158.0</ele><time>2026-03-28T08:34:20.84Z</time></trkpt><trkpt lat="45.4845597" lon="10.4569829"><ele>158.0</ele><time>2026-03-28T08:34:21.839Z</time></trkpt><trkpt lat="45.484558" lon="10.4567496"><ele>158.0</ele><time>2026-03-28T08:34:22.839Z</time></trkpt><trkpt lat="45.484559" lon="10.4565384"><ele>158.0</ele><time>2026-03-28T08:34:23.838Z</time></trkpt><trkpt lat="45.484557" lon="10.4563363"><ele>157.75</ele><time>2026-03-28T08:34:24.839Z</time></trkpt><trkpt lat="45.484555" lon="10.4561423"><ele>157.5</ele><time>2026-03-28T08:34:25.839Z</time></trkpt><trkpt lat="45.4845529" lon="10.45595"><ele>157.25</ele><time>2026-03-28T08:34:26.839Z</time></trkpt><trkpt lat="45.4845498" lon="10.4557564"><ele>157.0</ele><time>2026-03-28T08:34:27.839Z</time></trkpt><trkpt lat="45.4845518" lon="10.455576"><ele>156.75</ele><time>2026-03-28T08:34:28.84Z</time></trkpt><trkpt lat="45.4845551" lon="10.4553861"><ele>156.5</ele><time>2026-03-28T08:34:29.838Z</time></trkpt><trkpt lat="45.4845542" lon="10.4552043"><ele>156.25</ele><time>2026-03-28T08:34:30.839Z</time></trkpt><trkpt lat="45.4845555" lon="10.4550161"><ele>156.0</ele><time>2026-03-28T08:34:31.839Z</time></trkpt><trkpt lat="45.4845615" lon="10.4548327"><ele>156.0</ele><time>2026-03-28T08:34:32.838Z</time></trkpt><trkpt lat="45.4845645" lon="10.4546807"><ele>156.0</ele><time>2026-03-28T08:34:33.839Z</time></trkpt><trkpt lat="45.4845672" lon="10.4545485"><ele>156.0</ele><time>2026-03-28T08:34:34.838Z</time></trkpt><trkpt lat="45.4845719" lon="10.4543984"><ele>156.0</ele><time>2026-03-28T08:34:35.839Z</time></trkpt><trkpt lat="45.4845772" lon="10.4542705"><ele>156.0</ele><time>2026-03-28T08:34:36.839Z</time></trkpt><trkpt lat="45.4845813" lon="10.4541538"><ele>155.8</ele><time>2026-03-28T08:34:37.838Z</time></trkpt><trkpt lat="45.4845555" lon="10.454004"><ele>155.6</ele><time>2026-03-28T08:34:39.838Z</time></trkpt><trkpt lat="45.4844754" lon="10.4539627"><ele>155.4</ele><time>2026-03-28T08:34:41.838Z</time></trkpt><trkpt lat="45.4844051" lon="10.4539462"><ele>155.2</ele><time>2026-03-28T08:34:42.839Z</time></trkpt><trkpt lat="45.4843103" lon="10.453928"><ele>155.0</ele><time>2026-03-28T08:34:43.839Z</time></trkpt><trkpt lat="45.4842192" lon="10.4539226"><ele>155.0</ele><time>2026-03-28T08:34:44.839Z</time></trkpt><trkpt lat="45.4841414" lon="10.4539128"><ele>155.0</ele><time>2026-03-28T08:34:45.838Z</time></trkpt><trkpt lat="45.4840641" lon="10.4538989"><ele>155.0</ele><time>2026-03-28T08:34:46.839Z</time></trkpt><trkpt lat="45.4839878" lon="10.453884"><ele>155.0</ele><time>2026-03-28T08:34:47.839Z</time></trkpt><trkpt lat="45.4839121" lon="10.4538715"><ele>155.0</ele><time>2026-03-28T08:34:48.832Z</time></trkpt><trkpt lat="45.4838352" lon="10.4538584"><ele>155.0</ele><time>2026-03-28T08:34:49.84Z</time></trkpt><trkpt lat="45.4837562" lon="10.4538463"><ele>154.8</ele><time>2026-03-28T08:34:50.838Z</time></trkpt><trkpt lat="45.4836734" lon="10.4538321"><ele>154.6</ele><time>2026-03-28T08:34:51.839Z</time></trkpt><trkpt lat="45.4835832" lon="10.4538203"><ele>154.4</ele><time>2026-03-28T08:34:52.839Z</time></trkpt><trkpt lat="45.4834854" lon="10.4538046"><ele>154.2</ele><time>2026-03-28T08:34:53.839Z</time></trkpt><trkpt lat="45.4833847" lon="10.4537896"><ele>154.0</ele><time>2026-03-28T08:34:54.839Z</time></trkpt><trkpt lat="45.4832768" lon="10.4537765"><ele>153.75</ele><time>2026-03-28T08:34:55.839Z</time></trkpt><trkpt lat="45.4831641" lon="10.4537597"><ele>153.5</ele><time>2026-03-28T08:34:56.839Z</time></trkpt><trkpt lat="45.483046" lon="10.45374"><ele>153.25</ele><time>2026-03-28T08:34:57.84Z</time></trkpt><trkpt lat="45.482924" lon="10.4537218"><ele>153.0</ele><time>2026-03-28T08:34:58.839Z</time></trkpt><trkpt lat="45.4827941" lon="10.4537053"><ele>152.75</ele><time>2026-03-28T08:34:59.839Z</time></trkpt><trkpt lat="45.4826617" lon="10.453685"><ele>152.5</ele><time>2026-03-28T08:35:00.839Z</time></trkpt><trkpt lat="45.4825285" lon="10.4536668"><ele>152.25</ele><time>2026-03-28T08:35:01.839Z</time></trkpt><trkpt lat="45.4823947" lon="10.4536457"><ele>152.0</ele><time>2026-03-28T08:35:02.84Z</time></trkpt><trkpt lat="45.4822581" lon="10.4536243"><ele>152.0</ele><time>2026-03-28T08:35:03.839Z</time></trkpt><trkpt lat="45.4821191" lon="10.4536101"><ele>152.0</ele><time>2026-03-28T08:35:04.84Z</time></trkpt><trkpt lat="45.4819821" lon="10.4535915"><ele>152.0</ele><time>2026-03-28T08:35:05.839Z</time></trkpt><trkpt lat="45.4818606" lon="10.4535721"><ele>152.0</ele><time>2026-03-28T08:35:06.838Z</time></trkpt><trkpt lat="45.4817299" lon="10.4535479"><ele>152.0</ele><time>2026-03-28T08:35:07.839Z</time></trkpt><trkpt lat="45.4815904" lon="10.4535228"><ele>152.0</ele><time>2026-03-28T08:35:08.838Z</time></trkpt><trkpt lat="45.4814466" lon="10.4535019"><ele>152.0</ele><time>2026-03-28T08:35:09.839Z</time></trkpt><trkpt lat="45.4812952" lon="10.4534799"><ele>152.0</ele><time>2026-03-28T08:35:10.839Z</time></trkpt><trkpt lat="45.4811445" lon="10.453458"><ele>151.75</ele><time>2026-03-28T08:35:11.839Z</time></trkpt><trkpt lat="45.480998" lon="10.4534333"><ele>151.5</ele><time>2026-03-28T08:35:12.839Z</time></trkpt><trkpt lat="45.4808495" lon="10.453409"><ele>151.25</ele><time>2026-03-28T08:35:13.838Z</time></trkpt><trkpt lat="45.4806994" lon="10.4533849"><ele>151.0</ele><time>2026-03-28T08:35:14.839Z</time></trkpt><trkpt lat="45.4805537" lon="10.4533639"><ele>151.25</ele><time>2026-03-28T08:35:15.839Z</time></trkpt><trkpt lat="45.4804116" lon="10.4533464"><ele>151.5</ele><time>2026-03-28T08:35:16.839Z</time></trkpt><trkpt lat="45.4802872" lon="10.4533307"><ele>151.75</ele><time>2026-03-28T08:35:17.838Z</time></trkpt><trkpt lat="45.480186" lon="10.4533164"><ele>152.0</ele><time>2026-03-28T08:35:18.839Z</time></trkpt><trkpt lat="45.4801051" lon="10.4533043"><ele>152.0</ele><time>2026-03-28T08:35:19.839Z</time></trkpt><trkpt lat="45.4800344" lon="10.4533009"><ele>152.0</ele><time>2026-03-28T08:35:20.838Z</time></trkpt><trkpt lat="45.479925" lon="10.4533315"><ele>152.0</ele><time>2026-03-28T08:35:22.839Z</time></trkpt><trkpt lat="45.4798069" lon="10.4534125"><ele>152.0</ele><time>2026-03-28T08:35:24.839Z</time></trkpt><trkpt lat="45.4797286" lon="10.4534701"><ele>152.0</ele><time>2026-03-28T08:35:25.84Z</time></trkpt><trkpt lat="45.4796472" lon="10.4535405"><ele>151.75</ele><time>2026-03-28T08:35:26.839Z</time></trkpt><trkpt lat="45.4795557" lon="10.4536191"><ele>151.5</ele><time>2026-03-28T08:35:27.838Z</time></trkpt><trkpt lat="45.4794493" lon="10.4537191"><ele>151.25</ele><time>2026-03-28T08:35:28.84Z</time></trkpt><trkpt lat="45.479355" lon="10.453814"><ele>151.0</ele><time>2026-03-28T08:35:29.838Z</time></trkpt><trkpt lat="45.4792577" lon="10.4539135"><ele>151.0</ele><time>2026-03-28T08:35:30.839Z</time></trkpt><trkpt lat="45.4791659" lon="10.4540218"><ele>151.0</ele><time>2026-03-28T08:35:31.838Z</time></trkpt><trkpt lat="45.4790806" lon="10.4541262"><ele>151.0</ele><time>2026-03-28T08:35:32.839Z</time></trkpt><trkpt lat="45.478995" lon="10.4542279"><ele>151.0</ele><time>2026-03-28T08:35:33.839Z</time></trkpt><trkpt lat="45.4789095" lon="10.454333"><ele>151.0</ele><time>2026-03-28T08:35:34.838Z</time></trkpt><trkpt lat="45.4788203" lon="10.4544449"><ele>151.0</ele><time>2026-03-28T08:35:35.838Z</time></trkpt><trkpt lat="45.4787279" lon="10.454564"><ele>151.0</ele><time>2026-03-28T08:35:36.839Z</time></trkpt><trkpt lat="45.4786322" lon="10.4546868"><ele>151.0</ele><time>2026-03-28T08:35:37.84Z</time></trkpt><trkpt lat="45.478533" lon="10.4548088"><ele>151.0</ele><time>2026-03-28T08:35:38.839Z</time></trkpt><trkpt lat="45.4784308" lon="10.4549318"><ele>151.0</ele><time>2026-03-28T08:35:39.839Z</time></trkpt><trkpt lat="45.4783289" lon="10.4550591"><ele>151.0</ele><time>2026-03-28T08:35:40.839Z</time></trkpt><trkpt lat="45.4782221" lon="10.4551946"><ele>151.0</ele><time>2026-03-28T08:35:41.838Z</time></trkpt><trkpt lat="45.4781175" lon="10.4553254"><ele>151.0</ele><time>2026-03-28T08:35:42.84Z</time></trkpt><trkpt lat="45.4780133" lon="10.4554555"><ele>151.0</ele><time>2026-03-28T08:35:43.839Z</time></trkpt><trkpt lat="45.4779103" lon="10.4555835"><ele>151.0</ele><time>2026-03-28T08:35:44.84Z</time></trkpt><trkpt lat="45.4778165" lon="10.4557009"><ele>151.0</ele><time>2026-03-28T08:35:45.839Z</time></trkpt><trkpt lat="45.4777283" lon="10.4558055"><ele>151.6</ele><time>2026-03-28T08:35:46.839Z</time></trkpt><trkpt lat="45.4776468" lon="10.4558929"><ele>152.2</ele><time>2026-03-28T08:35:47.838Z</time></trkpt><trkpt lat="45.4775715" lon="10.4559701"><ele>152.8</ele><time>2026-03-28T08:35:48.838Z</time></trkpt><trkpt lat="45.4775089" lon="10.4560417"><ele>153.4</ele><time>2026-03-28T08:35:49.838Z</time></trkpt><trkpt lat="45.4774593" lon="10.4561075"><ele>154.0</ele><time>2026-03-28T08:35:50.838Z</time></trkpt><trkpt lat="45.4773827" lon="10.4562339"><ele>153.8</ele><time>2026-03-28T08:35:52.839Z</time></trkpt><trkpt lat="45.4773386" lon="10.4563344"><ele>153.60000000000002</ele><time>2026-03-28T08:35:53.84Z</time></trkpt><trkpt lat="45.4772992" lon="10.4564517"><ele>153.4</ele><time>2026-03-28T08:35:54.838Z</time></trkpt><trkpt lat="45.4772665" lon="10.456582"><ele>153.20000000000002</ele><time>2026-03-28T08:35:55.84Z</time></trkpt><trkpt lat="45.4772296" lon="10.4567194"><ele>153.0</ele><time>2026-03-28T08:35:56.838Z</time></trkpt><trkpt lat="45.4771889" lon="10.4568697"><ele>153.0</ele><time>2026-03-28T08:35:57.839Z</time></trkpt><trkpt lat="45.4771512" lon="10.4570369"><ele>153.0</ele><time>2026-03-28T08:35:58.839Z</time></trkpt><trkpt lat="45.4771195" lon="10.4572164"><ele>153.0</ele><time>2026-03-28T08:35:59.838Z</time></trkpt><trkpt lat="45.4770872" lon="10.4573995"><ele>153.0</ele><time>2026-03-28T08:36:00.838Z</time></trkpt><trkpt lat="45.4770567" lon="10.4575896"><ele>153.5</ele><time>2026-03-28T08:36:01.839Z</time></trkpt><trkpt lat="45.4770237" lon="10.4577834"><ele>154.0</ele><time>2026-03-28T08:36:02.839Z</time></trkpt><trkpt lat="45.4769963" lon="10.4579754"><ele>154.5</ele><time>2026-03-28T08:36:03.84Z</time></trkpt><trkpt lat="45.4769651" lon="10.4581671"><ele>155.0</ele><time>2026-03-28T08:36:04.84Z</time></trkpt><trkpt lat="45.4769313" lon="10.4583583"><ele>155.0</ele><time>2026-03-28T08:36:05.84Z</time></trkpt><trkpt lat="45.4768988" lon="10.4585451"><ele>155.0</ele><time>2026-03-28T08:36:06.839Z</time></trkpt><trkpt lat="45.4768607" lon="10.4587252"><ele>155.0</ele><time>2026-03-28T08:36:07.838Z</time></trkpt><trkpt lat="45.4768192" lon="10.4589025"><ele>155.0</ele><time>2026-03-28T08:36:08.838Z</time></trkpt><trkpt lat="45.4767798" lon="10.4590492"><ele>155.0</ele><time>2026-03-28T08:36:09.839Z</time></trkpt><trkpt lat="45.4767451" lon="10.4591759"><ele>155.0</ele><time>2026-03-28T08:36:10.839Z</time></trkpt><trkpt lat="45.4767017" lon="10.4592845"><ele>155.0</ele><time>2026-03-28T08:36:11.838Z</time></trkpt><trkpt lat="45.4766481" lon="10.4593792"><ele>155.0</ele><time>2026-03-28T08:36:12.838Z</time></trkpt><trkpt lat="45.4765817" lon="10.4594433"><ele>155.0</ele><time>2026-03-28T08:36:13.838Z</time></trkpt><trkpt lat="45.4765036" lon="10.4594928"><ele>155.0</ele><time>2026-03-28T08:36:14.839Z</time></trkpt><trkpt lat="45.4764188" lon="10.4595417"><ele>155.0</ele><time>2026-03-28T08:36:15.839Z</time></trkpt><trkpt lat="45.4763331" lon="10.4595934"><ele>155.0</ele><time>2026-03-28T08:36:16.84Z</time></trkpt><trkpt lat="45.4762564" lon="10.4596465"><ele>155.0</ele><time>2026-03-28T08:36:17.839Z</time></trkpt><trkpt lat="45.4761891" lon="10.4596957"><ele>155.0</ele><time>2026-03-28T08:36:18.839Z</time></trkpt><trkpt lat="45.4761201" lon="10.4597547"><ele>155.0</ele><time>2026-03-28T08:36:19.839Z</time></trkpt><trkpt lat="45.4760455" lon="10.4598334"><ele>155.0</ele><time>2026-03-28T08:36:20.839Z</time></trkpt><trkpt lat="45.4759567" lon="10.459913"><ele>155.0</ele><time>2026-03-28T08:36:21.838Z</time></trkpt><trkpt lat="45.4758588" lon="10.4599981"><ele>155.0</ele><time>2026-03-28T08:36:22.839Z</time></trkpt><trkpt lat="45.4757547" lon="10.4600917"><ele>155.0</ele><time>2026-03-28T08:36:23.839Z</time></trkpt><trkpt lat="45.475647" lon="10.460181"><ele>155.0</ele><time>2026-03-28T08:36:24.839Z</time></trkpt><trkpt lat="45.4755387" lon="10.4602705"><ele>154.5</ele><time>2026-03-28T08:36:25.839Z</time></trkpt><trkpt lat="45.4754264" lon="10.4603561"><ele>154.0</ele><time>2026-03-28T08:36:26.839Z</time></trkpt><trkpt lat="45.475302" lon="10.460431"><ele>153.5</ele><time>2026-03-28T08:36:27.839Z</time></trkpt><trkpt lat="45.4751687" lon="10.4605023"><ele>153.0</ele><time>2026-03-28T08:36:28.839Z</time></trkpt><trkpt lat="45.4750263" lon="10.4605753"><ele>152.66666666666666</ele><time>2026-03-28T08:36:29.838Z</time></trkpt><trkpt lat="45.4748804" lon="10.4606632"><ele>152.33333333333331</ele><time>2026-03-28T08:36:30.839Z</time></trkpt><trkpt lat="45.4747349" lon="10.4607739"><ele>152.0</ele><time>2026-03-28T08:36:31.839Z</time></trkpt><trkpt lat="45.4745965" lon="10.460884"><ele>152.66666666666666</ele><time>2026-03-28T08:36:32.839Z</time></trkpt><trkpt lat="45.4744641" lon="10.4609899"><ele>153.33333333333334</ele><time>2026-03-28T08:36:33.839Z</time></trkpt><trkpt lat="45.4743373" lon="10.4611019"><ele>154.0</ele><time>2026-03-28T08:36:34.84Z</time></trkpt><trkpt lat="45.4742152" lon="10.4612246"><ele>154.0</ele><time>2026-03-28T08:36:35.84Z</time></trkpt><trkpt lat="45.4740988" lon="10.4613603"><ele>154.0</ele><time>2026-03-28T08:36:36.84Z</time></trkpt><trkpt lat="45.4739883" lon="10.4615013"><ele>154.0</ele><time>2026-03-28T08:36:37.838Z</time></trkpt><trkpt lat="45.4738802" lon="10.4616454"><ele>154.0</ele><time>2026-03-28T08:36:38.84Z</time></trkpt><trkpt lat="45.473764" lon="10.4617785"><ele>153.75</ele><time>2026-03-28T08:36:39.84Z</time></trkpt><trkpt lat="45.4736486" lon="10.4619026"><ele>153.5</ele><time>2026-03-28T08:36:40.839Z</time></trkpt><trkpt lat="45.4735237" lon="10.4620142"><ele>153.25</ele><time>2026-03-28T08:36:41.839Z</time></trkpt><trkpt lat="45.4733967" lon="10.46212"><ele>153.0</ele><time>2026-03-28T08:36:42.84Z</time></trkpt><trkpt lat="45.4732659" lon="10.4622325"><ele>152.66666666666666</ele><time>2026-03-28T08:36:43.839Z</time></trkpt><trkpt lat="45.4731342" lon="10.4623571"><ele>152.33333333333331</ele><time>2026-03-28T08:36:44.838Z</time></trkpt><trkpt lat="45.4730015" lon="10.4624871"><ele>152.0</ele><time>2026-03-28T08:36:45.839Z</time></trkpt><trkpt lat="45.4728658" lon="10.4626193"><ele>152.0</ele><time>2026-03-28T08:36:46.84Z</time></trkpt><trkpt lat="45.4727283" lon="10.4627589"><ele>152.0</ele><time>2026-03-28T08:36:47.839Z</time></trkpt><trkpt lat="45.4725925" lon="10.4628946"><ele>152.0</ele><time>2026-03-28T08:36:48.839Z</time></trkpt><trkpt lat="45.4724581" lon="10.4630307"><ele>152.33333333333331</ele><time>2026-03-28T08:36:49.839Z</time></trkpt><trkpt lat="45.4723297" lon="10.4631685"><ele>152.66666666666666</ele><time>2026-03-28T08:36:50.838Z</time></trkpt><trkpt lat="45.4722055" lon="10.4633092"><ele>153.0</ele><time>2026-03-28T08:36:51.839Z</time></trkpt><trkpt lat="45.4720751" lon="10.4634449"><ele>153.0</ele><time>2026-03-28T08:36:52.838Z</time></trkpt><trkpt lat="45.4719388" lon="10.4635633"><ele>153.0</ele><time>2026-03-28T08:36:53.84Z</time></trkpt><trkpt lat="45.4717929" lon="10.4636634"><ele>153.0</ele><time>2026-03-28T08:36:54.838Z</time></trkpt><trkpt lat="45.4716444" lon="10.4637508"><ele>153.0</ele><time>2026-03-28T08:36:55.84Z</time></trkpt><trkpt lat="45.4714992" lon="10.4638278"><ele>153.0</ele><time>2026-03-28T08:36:56.84Z</time></trkpt><trkpt lat="45.4713622" lon="10.4639113"><ele>153.0</ele><time>2026-03-28T08:36:57.84Z</time></trkpt><trkpt lat="45.4712334" lon="10.4640214"><ele>152.66666666666666</ele><time>2026-03-28T08:36:58.839Z</time></trkpt><trkpt lat="45.47111" lon="10.4641596"><ele>152.33333333333331</ele><time>2026-03-28T08:36:59.838Z</time></trkpt><trkpt lat="45.4709929" lon="10.4643128"><ele>152.0</ele><time>2026-03-28T08:37:00.839Z</time></trkpt><trkpt lat="45.4708828" lon="10.4644796"><ele>152.0</ele><time>2026-03-28T08:37:01.839Z</time></trkpt><trkpt lat="45.470776" lon="10.4646516"><ele>152.0</ele><time>2026-03-28T08:37:02.839Z</time></trkpt><trkpt lat="45.4706744" lon="10.4648228"><ele>152.0</ele><time>2026-03-28T08:37:03.839Z</time></trkpt><trkpt lat="45.4705779" lon="10.4649893"><ele>152.0</ele><time>2026-03-28T08:37:04.839Z</time></trkpt><trkpt lat="45.4704826" lon="10.4651512"><ele>152.0</ele><time>2026-03-28T08:37:05.838Z</time></trkpt><trkpt lat="45.4703825" lon="10.465305"><ele>152.0</ele><time>2026-03-28T08:37:06.84Z</time></trkpt><trkpt lat="45.4702728" lon="10.465447"><ele>152.0</ele><time>2026-03-28T08:37:07.839Z</time></trkpt><trkpt lat="45.4701575" lon="10.4655807"><ele>152.0</ele><time>2026-03-28T08:37:08.839Z</time></trkpt><trkpt lat="45.4700413" lon="10.4657085"><ele>152.0</ele><time>2026-03-28T08:37:09.839Z</time></trkpt><trkpt lat="45.4699317" lon="10.465839"><ele>152.0</ele><time>2026-03-28T08:37:10.839Z</time></trkpt><trkpt lat="45.4698349" lon="10.4659677"><ele>152.0</ele><time>2026-03-28T08:37:11.838Z</time></trkpt><trkpt lat="45.4697607" lon="10.4661131"><ele>152.5</ele><time>2026-03-28T08:37:12.838Z</time></trkpt><trkpt lat="45.4697022" lon="10.4662821"><ele>153.0</ele><time>2026-03-28T08:37:13.84Z</time></trkpt><trkpt lat="45.4696505" lon="10.4664589"><ele>153.5</ele><time>2026-03-28T08:37:14.838Z</time></trkpt><trkpt lat="45.4696008" lon="10.4666351"><ele>154.0</ele><time>2026-03-28T08:37:15.839Z</time></trkpt><trkpt lat="45.469556" lon="10.466814"><ele>154.0</ele><time>2026-03-28T08:37:16.839Z</time></trkpt><trkpt lat="45.4695159" lon="10.466995"><ele>154.0</ele><time>2026-03-28T08:37:17.84Z</time></trkpt><trkpt lat="45.4694844" lon="10.4671751"><ele>154.0</ele><time>2026-03-28T08:37:18.838Z</time></trkpt><trkpt lat="45.4694471" lon="10.4673551"><ele>154.0</ele><time>2026-03-28T08:37:19.838Z</time></trkpt><trkpt lat="45.4693889" lon="10.4675221"><ele>154.0</ele><time>2026-03-28T08:37:20.839Z</time></trkpt><trkpt lat="45.4693177" lon="10.4676803"><ele>154.0</ele><time>2026-03-28T08:37:21.84Z</time></trkpt><trkpt lat="45.4692326" lon="10.4678173"><ele>154.0</ele><time>2026-03-28T08:37:22.84Z</time></trkpt><trkpt lat="45.4691277" lon="10.4679354"><ele>154.0</ele><time>2026-03-28T08:37:23.838Z</time></trkpt><trkpt lat="45.4690143" lon="10.4680327"><ele>154.0</ele><time>2026-03-28T08:37:24.838Z</time></trkpt><trkpt lat="45.4688909" lon="10.4681148"><ele>154.0</ele><time>2026-03-28T08:37:25.838Z</time></trkpt><trkpt lat="45.4687616" lon="10.4681867"><ele>154.0</ele><time>2026-03-28T08:37:26.839Z</time></trkpt><trkpt lat="45.4686313" lon="10.4682529"><ele>154.0</ele><time>2026-03-28T08:37:27.84Z</time></trkpt><trkpt lat="45.4685005" lon="10.4683079"><ele>154.0</ele><time>2026-03-28T08:37:28.839Z</time></trkpt><trkpt lat="45.4683797" lon="10.4683409"><ele>154.0</ele><time>2026-03-28T08:37:29.839Z</time></trkpt><trkpt lat="45.4682716" lon="10.46837"><ele>154.0</ele><time>2026-03-28T08:37:30.838Z</time></trkpt><trkpt lat="45.4681738" lon="10.4683904"><ele>154.0</ele><time>2026-03-28T08:37:31.838Z</time></trkpt><trkpt lat="45.4680832" lon="10.4684031"><ele>154.0</ele><time>2026-03-28T08:37:32.839Z</time></trkpt><trkpt lat="45.468002" lon="10.46841"><ele>154.0</ele><time>2026-03-28T08:37:33.838Z</time></trkpt><trkpt lat="45.4679361" lon="10.4684224"><ele>154.0</ele><time>2026-03-28T08:37:34.838Z</time></trkpt><trkpt lat="45.467841" lon="10.4685116"><ele>154.0</ele><time>2026-03-28T08:37:36.838Z</time></trkpt><trkpt lat="45.4678219" lon="10.4687031"><ele>154.0</ele><time>2026-03-28T08:37:38.839Z</time></trkpt><trkpt lat="45.4678046" lon="10.4688358"><ele>154.0</ele><time>2026-03-28T08:37:39.838Z</time></trkpt><trkpt lat="45.467782" lon="10.4689834"><ele>153.5</ele><time>2026-03-28T08:37:40.838Z</time></trkpt><trkpt lat="45.4677643" lon="10.469143"><ele>153.0</ele><time>2026-03-28T08:37:41.84Z</time></trkpt><trkpt lat="45.4677441" lon="10.4693081"><ele>152.5</ele><time>2026-03-28T08:37:42.839Z</time></trkpt><trkpt lat="45.4677253" lon="10.4694865"><ele>152.0</ele><time>2026-03-28T08:37:43.838Z</time></trkpt><trkpt lat="45.4677087" lon="10.4696726"><ele>152.0</ele><time>2026-03-28T08:37:44.838Z</time></trkpt><trkpt lat="45.467686" lon="10.4698574"><ele>152.0</ele><time>2026-03-28T08:37:45.838Z</time></trkpt><trkpt lat="45.4676529" lon="10.4700383"><ele>152.0</ele><time>2026-03-28T08:37:46.839Z</time></trkpt><trkpt lat="45.4676162" lon="10.4702144"><ele>152.0</ele><time>2026-03-28T08:37:47.84Z</time></trkpt><trkpt lat="45.4675765" lon="10.4703883"><ele>152.25</ele><time>2026-03-28T08:37:48.838Z</time></trkpt><trkpt lat="45.4675354" lon="10.4705668"><ele>152.5</ele><time>2026-03-28T08:37:49.84Z</time></trkpt><trkpt lat="45.4674904" lon="10.470745"><ele>152.75</ele><time>2026-03-28T08:37:50.84Z</time></trkpt><trkpt lat="45.4674541" lon="10.4709289"><ele>153.0</ele><time>2026-03-28T08:37:51.839Z</time></trkpt><trkpt lat="45.4674249" lon="10.4711225"><ele>153.25</ele><time>2026-03-28T08:37:52.838Z</time></trkpt><trkpt lat="45.4673954" lon="10.4713128"><ele>153.5</ele><time>2026-03-28T08:37:53.84Z</time></trkpt><trkpt lat="45.4673647" lon="10.4714987"><ele>153.75</ele><time>2026-03-28T08:37:54.839Z</time></trkpt><trkpt lat="45.4673369" lon="10.4716693"><ele>154.0</ele><time>2026-03-28T08:37:55.839Z</time></trkpt><trkpt lat="45.4673125" lon="10.4718185"><ele>154.0</ele><time>2026-03-28T08:37:56.839Z</time></trkpt><trkpt lat="45.4672806" lon="10.471943"><ele>154.0</ele><time>2026-03-28T08:37:57.839Z</time></trkpt><trkpt lat="45.4672443" lon="10.4720383"><ele>154.0</ele><time>2026-03-28T08:37:58.839Z</time></trkpt><trkpt lat="45.4671556" lon="10.47211"><ele>154.0</ele><time>2026-03-28T08:38:00.839Z</time></trkpt><trkpt lat="45.4670823" lon="10.4720996"><ele>154.0</ele><time>2026-03-28T08:38:01.839Z</time></trkpt><trkpt lat="45.4670049" lon="10.4720618"><ele>154.0</ele><time>2026-03-28T08:38:02.838Z</time></trkpt><trkpt lat="45.4669272" lon="10.4720083"><ele>154.66666666666669</ele><time>2026-03-28T08:38:03.838Z</time></trkpt><trkpt lat="45.4668416" lon="10.4719495"><ele>155.33333333333334</ele><time>2026-03-28T08:38:04.839Z</time></trkpt><trkpt lat="45.4667548" lon="10.4719128"><ele>156.0</ele><time>2026-03-28T08:38:05.84Z</time></trkpt><trkpt lat="45.4666704" lon="10.4718797"><ele>156.66666666666666</ele><time>2026-03-28T08:38:06.838Z</time></trkpt><trkpt lat="45.4665938" lon="10.471848"><ele>157.33333333333331</ele><time>2026-03-28T08:38:07.839Z</time></trkpt><trkpt lat="45.4665252" lon="10.4718359"><ele>158.0</ele><time>2026-03-28T08:38:08.839Z</time></trkpt><trkpt lat="45.4664636" lon="10.4718667"><ele>158.0</ele><time>2026-03-28T08:38:09.839Z</time></trkpt><trkpt lat="45.4664138" lon="10.4719377"><ele>158.0</ele><time>2026-03-28T08:38:10.839Z</time></trkpt><trkpt lat="45.4663445" lon="10.4720056"><ele>158.0</ele><time>2026-03-28T08:38:11.84Z</time></trkpt><trkpt lat="45.4662532" lon="10.4720528"><ele>158.0</ele><time>2026-03-28T08:38:12.839Z</time></trkpt><trkpt lat="45.4661499" lon="10.4720945"><ele>158.0</ele><time>2026-03-28T08:38:13.839Z</time></trkpt><trkpt lat="45.466041" lon="10.4721459"><ele>158.0</ele><time>2026-03-28T08:38:14.84Z</time></trkpt><trkpt lat="45.4659256" lon="10.472204"><ele>158.0</ele><time>2026-03-28T08:38:15.839Z</time></trkpt><trkpt lat="45.4658068" lon="10.4722602"><ele>158.0</ele><time>2026-03-28T08:38:16.839Z</time></trkpt><trkpt lat="45.4656815" lon="10.4723181"><ele>158.0</ele><time>2026-03-28T08:38:17.838Z</time></trkpt><trkpt lat="45.4655577" lon="10.4723775"><ele>158.0</ele><time>2026-03-28T08:38:18.839Z</time></trkpt><trkpt lat="45.4654292" lon="10.472422"><ele>158.0</ele><time>2026-03-28T08:38:19.839Z</time></trkpt><trkpt lat="45.4653004" lon="10.4724513"><ele>158.0</ele><time>2026-03-28T08:38:20.839Z</time></trkpt><trkpt lat="45.4651674" lon="10.4724759"><ele>158.0</ele><time>2026-03-28T08:38:21.839Z</time></trkpt><trkpt lat="45.465032" lon="10.4724895"><ele>158.0</ele><time>2026-03-28T08:38:22.84Z</time></trkpt><trkpt lat="45.464896" lon="10.4724919"><ele>158.0</ele><time>2026-03-28T08:38:23.838Z</time></trkpt><trkpt lat="45.4647605" lon="10.4724759"><ele>158.0</ele><time>2026-03-28T08:38:24.839Z</time></trkpt><trkpt lat="45.4646222" lon="10.4724576"><ele>158.0</ele><time>2026-03-28T08:38:25.839Z</time></trkpt><trkpt lat="45.4644856" lon="10.4724443"><ele>158.20000000000002</ele><time>2026-03-28T08:38:26.838Z</time></trkpt><trkpt lat="45.4643522" lon="10.4724276"><ele>158.4</ele><time>2026-03-28T08:38:27.84Z</time></trkpt><trkpt lat="45.4642329" lon="10.4724139"><ele>158.60000000000002</ele><time>2026-03-28T08:38:28.838Z</time></trkpt><trkpt lat="45.4641383" lon="10.4724028"><ele>158.8</ele><time>2026-03-28T08:38:29.84Z</time></trkpt><trkpt lat="45.4640583" lon="10.4723941"><ele>159.0</ele><time>2026-03-28T08:38:30.839Z</time></trkpt><trkpt lat="45.4639623" lon="10.4723831"><ele>159.0</ele><time>2026-03-28T08:38:32.84Z</time></trkpt><trkpt lat="45.46386" lon="10.4724451"><ele>159.0</ele><time>2026-03-28T08:38:48.839Z</time></trkpt><trkpt lat="45.4638446" lon="10.4725348"><ele>159.0</ele><time>2026-03-28T08:38:49.839Z</time></trkpt><trkpt lat="45.463833" lon="10.4726338"><ele>159.0</ele><time>2026-03-28T08:38:50.839Z</time></trkpt><trkpt lat="45.4638221" lon="10.4727317"><ele>159.0</ele><time>2026-03-28T08:38:51.84Z</time></trkpt><trkpt lat="45.4638071" lon="10.4728482"><ele>159.0</ele><time>2026-03-28T08:38:52.838Z</time></trkpt><trkpt lat="45.4637936" lon="10.4729776"><ele>159.25</ele><time>2026-03-28T08:38:53.839Z</time></trkpt><trkpt lat="45.4637812" lon="10.473119"><ele>159.5</ele><time>2026-03-28T08:38:54.84Z</time></trkpt><trkpt lat="45.4637693" lon="10.4732781"><ele>159.75</ele><time>2026-03-28T08:38:55.838Z</time></trkpt><trkpt lat="45.4637591" lon="10.473445"><ele>160.0</ele><time>2026-03-28T08:38:56.84Z</time></trkpt><trkpt lat="45.4637467" lon="10.4736211"><ele>160.5</ele><time>2026-03-28T08:38:57.839Z</time></trkpt><trkpt lat="45.4637362" lon="10.4737924"><ele>161.0</ele><time>2026-03-28T08:38:58.84Z</time></trkpt><trkpt lat="45.463724" lon="10.4739618"><ele>161.5</ele><time>2026-03-28T08:38:59.838Z</time></trkpt><trkpt lat="45.4637123" lon="10.4741245"><ele>162.0</ele><time>2026-03-28T08:39:00.839Z</time></trkpt><trkpt lat="45.4637034" lon="10.4742765"><ele>162.0</ele><time>2026-03-28T08:39:01.838Z</time></trkpt><trkpt lat="45.4636925" lon="10.4744059"><ele>162.0</ele><time>2026-03-28T08:39:02.839Z</time></trkpt><trkpt lat="45.4636728" lon="10.4745148"><ele>162.0</ele><time>2026-03-28T08:39:03.839Z</time></trkpt><trkpt lat="45.463619" lon="10.4746307"><ele>162.0</ele><time>2026-03-28T08:39:05.839Z</time></trkpt><trkpt lat="45.4635324" lon="10.4746031"><ele>162.0</ele><time>2026-03-28T08:39:07.839Z</time></trkpt><trkpt lat="45.4634831" lon="10.4745458"><ele>162.0</ele><time>2026-03-28T08:39:09.839Z</time></trkpt><trkpt lat="45.4633574" lon="10.4744797"><ele>162.0</ele><time>2026-03-28T08:39:44.839Z</time></trkpt><trkpt lat="45.4632953" lon="10.4744043"><ele>162.0</ele><time>2026-03-28T08:39:45.84Z</time></trkpt><trkpt lat="45.4632162" lon="10.4743245"><ele>162.0</ele><time>2026-03-28T08:39:46.839Z</time></trkpt><trkpt lat="45.4631323" lon="10.4742424"><ele>162.0</ele><time>2026-03-28T08:39:47.839Z</time></trkpt><trkpt lat="45.4630507" lon="10.4741662"><ele>162.0</ele><time>2026-03-28T08:39:48.839Z</time></trkpt><trkpt lat="45.4629813" lon="10.4740975"><ele>162.0</ele><time>2026-03-28T08:39:49.839Z</time></trkpt><trkpt lat="45.4629236" lon="10.4740341"><ele>162.0</ele><time>2026-03-28T08:39:50.838Z</time></trkpt><trkpt lat="45.4628254" lon="10.4739459"><ele>162.0</ele><time>2026-03-28T08:39:52.838Z</time></trkpt><trkpt lat="45.4627527" lon="10.473866"><ele>162.0</ele><time>2026-03-28T08:39:54.838Z</time></trkpt><trkpt lat="45.4626953" lon="10.4737633"><ele>162.0</ele><time>2026-03-28T08:39:56.839Z</time></trkpt><trkpt lat="45.4626187" lon="10.4737188"><ele>162.0</ele><time>2026-03-28T08:39:58.839Z</time></trkpt><trkpt lat="45.4625695" lon="10.4738277"><ele>162.0</ele><time>2026-03-28T08:40:01.839Z</time></trkpt><trkpt lat="45.4626202" lon="10.4739123"><ele>162.0</ele><time>2026-03-28T08:40:03.838Z</time></trkpt><trkpt lat="45.4626982" lon="10.4738613"><ele>162.0</ele><time>2026-03-28T08:40:05.838Z</time></trkpt><trkpt lat="45.4627244" lon="10.4737629"><ele>162.0</ele><time>2026-03-28T08:40:06.839Z</time></trkpt><trkpt lat="45.4627436" lon="10.4736503"><ele>162.0</ele><time>2026-03-28T08:40:07.839Z</time></trkpt><trkpt lat="45.4627822" lon="10.4735188"><ele>161.5</ele><time>2026-03-28T08:40:08.838Z</time></trkpt><trkpt lat="45.4628458" lon="10.4733607"><ele>161.0</ele><time>2026-03-28T08:40:09.838Z</time></trkpt><trkpt lat="45.462902" lon="10.4731865"><ele>160.5</ele><time>2026-03-28T08:40:10.84Z</time></trkpt><trkpt lat="45.4629629" lon="10.4730015"><ele>160.0</ele><time>2026-03-28T08:40:11.839Z</time></trkpt><trkpt lat="45.4630285" lon="10.4727971"><ele>160.0</ele><time>2026-03-28T08:40:12.84Z</time></trkpt><trkpt lat="45.4630954" lon="10.4725932"><ele>160.0</ele><time>2026-03-28T08:40:13.838Z</time></trkpt><trkpt lat="45.4631616" lon="10.4723958"><ele>160.0</ele><time>2026-03-28T08:40:14.84Z</time></trkpt><trkpt lat="45.4632267" lon="10.4721997"><ele>159.75</ele><time>2026-03-28T08:40:15.839Z</time></trkpt><trkpt lat="45.4632891" lon="10.4720082"><ele>159.5</ele><time>2026-03-28T08:40:16.838Z</time></trkpt><trkpt lat="45.4633495" lon="10.4718233"><ele>159.25</ele><time>2026-03-28T08:40:17.839Z</time></trkpt><trkpt lat="45.4634075" lon="10.4716706"><ele>159.0</ele><time>2026-03-28T08:40:18.838Z</time></trkpt><trkpt lat="45.4634615" lon="10.4715498"><ele>159.0</ele><time>2026-03-28T08:40:19.837Z</time></trkpt><trkpt lat="45.4635158" lon="10.471456"><ele>159.0</ele><time>2026-03-28T08:40:20.838Z</time></trkpt><trkpt lat="45.4635913" lon="10.4713537"><ele>159.0</ele><time>2026-03-28T08:40:22.838Z</time></trkpt><trkpt lat="45.463642" lon="10.4712983"><ele>159.0</ele><time>2026-03-28T08:40:24.839Z</time></trkpt><trkpt lat="45.463672" lon="10.4712133"><ele>159.0</ele><time>2026-03-28T08:40:31.839Z</time></trkpt><trkpt lat="45.4637034" lon="10.4711187"><ele>159.0</ele><time>2026-03-28T08:40:59.838Z</time></trkpt><trkpt lat="45.4637165" lon="10.4710069"><ele>158.66666666666666</ele><time>2026-03-28T08:41:03.838Z</time></trkpt><trkpt lat="45.4637204" lon="10.4709075"><ele>158.33333333333334</ele><time>2026-03-28T08:41:07.838Z</time></trkpt><trkpt lat="45.4637354" lon="10.4708069"><ele>158.0</ele><time>2026-03-28T08:41:10.838Z</time></trkpt><trkpt lat="45.4637761" lon="10.4706808"><ele>157.66666666666669</ele><time>2026-03-28T08:41:12.838Z</time></trkpt><trkpt lat="45.4638067" lon="10.4705978"><ele>157.33333333333334</ele><time>2026-03-28T08:41:13.837Z</time></trkpt><trkpt lat="45.4638412" lon="10.4704936"><ele>157.0</ele><time>2026-03-28T08:41:14.838Z</time></trkpt><trkpt lat="45.4638774" lon="10.4703727"><ele>156.6</ele><time>2026-03-28T08:41:15.838Z</time></trkpt><trkpt lat="45.4639183" lon="10.470239"><ele>156.2</ele><time>2026-03-28T08:41:16.839Z</time></trkpt><trkpt lat="45.4639624" lon="10.4700988"><ele>155.8</ele><time>2026-03-28T08:41:17.838Z</time></trkpt><trkpt lat="45.4640035" lon="10.4699575"><ele>155.4</ele><time>2026-03-28T08:41:18.839Z</time></trkpt><trkpt lat="45.4640462" lon="10.4698271"><ele>155.0</ele><time>2026-03-28T08:41:19.838Z</time></trkpt><trkpt lat="45.4640981" lon="10.4697076"><ele>154.8</ele><time>2026-03-28T08:41:20.839Z</time></trkpt><trkpt lat="45.4641557" lon="10.469592"><ele>154.6</ele><time>2026-03-28T08:41:21.838Z</time></trkpt><trkpt lat="45.4642053" lon="10.4694571"><ele>154.4</ele><time>2026-03-28T08:41:22.837Z</time></trkpt><trkpt lat="45.4642411" lon="10.4692937"><ele>154.2</ele><time>2026-03-28T08:41:23.839Z</time></trkpt><trkpt lat="45.464285" lon="10.4691302"><ele>154.0</ele><time>2026-03-28T08:41:24.838Z</time></trkpt><trkpt lat="45.4643326" lon="10.4689693"><ele>154.0</ele><time>2026-03-28T08:41:25.838Z</time></trkpt><trkpt lat="45.464382" lon="10.468812"><ele>154.0</ele><time>2026-03-28T08:41:26.837Z</time></trkpt><trkpt lat="45.4644308" lon="10.4686573"><ele>154.0</ele><time>2026-03-28T08:41:27.838Z</time></trkpt><trkpt lat="45.4644787" lon="10.4685011"><ele>154.0</ele><time>2026-03-28T08:41:28.838Z</time></trkpt><trkpt lat="45.4645232" lon="10.4683474"><ele>153.75</ele><time>2026-03-28T08:41:29.838Z</time></trkpt><trkpt lat="45.4645663" lon="10.4681915"><ele>153.5</ele><time>2026-03-28T08:41:30.839Z</time></trkpt><trkpt lat="45.4646062" lon="10.4680347"><ele>153.25</ele><time>2026-03-28T08:41:31.838Z</time></trkpt><trkpt lat="45.4646478" lon="10.4678797"><ele>153.0</ele><time>2026-03-28T08:41:32.837Z</time></trkpt><trkpt lat="45.4646853" lon="10.4677221"><ele>152.4</ele><time>2026-03-28T08:41:33.839Z</time></trkpt><trkpt lat="45.4647214" lon="10.4675662"><ele>151.8</ele><time>2026-03-28T08:41:34.838Z</time></trkpt><trkpt lat="45.4647576" lon="10.4674175"><ele>151.2</ele><time>2026-03-28T08:41:35.838Z</time></trkpt><trkpt lat="45.4647879" lon="10.4672741"><ele>150.6</ele><time>2026-03-28T08:41:36.839Z</time></trkpt><trkpt lat="45.4648181" lon="10.4671412"><ele>150.0</ele><time>2026-03-28T08:41:37.839Z</time></trkpt><trkpt lat="45.4648473" lon="10.4670093"><ele>150.0</ele><time>2026-03-28T08:41:38.839Z</time></trkpt><trkpt lat="45.4648765" lon="10.4668786"><ele>150.0</ele><time>2026-03-28T08:41:39.837Z</time></trkpt><trkpt lat="45.4649077" lon="10.4667542"><ele>150.0</ele><time>2026-03-28T08:41:40.838Z</time></trkpt><trkpt lat="45.4649425" lon="10.4666222"><ele>150.0</ele><time>2026-03-28T08:41:41.839Z</time></trkpt><trkpt lat="45.4649758" lon="10.4664861"><ele>150.0</ele><time>2026-03-28T08:41:42.839Z</time></trkpt><trkpt lat="45.4650102" lon="10.466348"><ele>149.75</ele><time>2026-03-28T08:41:43.838Z</time></trkpt><trkpt lat="45.4650455" lon="10.4662052"><ele>149.5</ele><time>2026-03-28T08:41:44.839Z</time></trkpt><trkpt lat="45.4650837" lon="10.4660531"><ele>149.25</ele><time>2026-03-28T08:41:45.838Z</time></trkpt><trkpt lat="45.4651215" lon="10.4658899"><ele>149.0</ele><time>2026-03-28T08:41:46.837Z</time></trkpt><trkpt lat="45.4651593" lon="10.4657204"><ele>149.0</ele><time>2026-03-28T08:41:47.838Z</time></trkpt><trkpt lat="45.4652019" lon="10.4655444"><ele>149.0</ele><time>2026-03-28T08:41:48.838Z</time></trkpt><trkpt lat="45.4652472" lon="10.4653625"><ele>149.0</ele><time>2026-03-28T08:41:49.838Z</time></trkpt><trkpt lat="45.4652904" lon="10.4651734"><ele>149.0</ele><time>2026-03-28T08:41:50.838Z</time></trkpt><trkpt lat="45.4653355" lon="10.464971"><ele>148.75</ele><time>2026-03-28T08:41:51.837Z</time></trkpt><trkpt lat="45.4653841" lon="10.4647677"><ele>148.5</ele><time>2026-03-28T08:41:52.837Z</time></trkpt><trkpt lat="45.4654322" lon="10.4645623"><ele>148.25</ele><time>2026-03-28T08:41:53.839Z</time></trkpt><trkpt lat="45.4654764" lon="10.4643654"><ele>148.0</ele><time>2026-03-28T08:41:54.838Z</time></trkpt><trkpt lat="45.4655172" lon="10.4641796"><ele>147.5</ele><time>2026-03-28T08:41:55.837Z</time></trkpt><trkpt lat="45.4655584" lon="10.46401"><ele>147.0</ele><time>2026-03-28T08:41:56.838Z</time></trkpt><trkpt lat="45.4656081" lon="10.4638434"><ele>146.5</ele><time>2026-03-28T08:41:57.837Z</time></trkpt><trkpt lat="45.4656541" lon="10.4636711"><ele>146.0</ele><time>2026-03-28T08:41:58.839Z</time></trkpt><trkpt lat="45.4656958" lon="10.4634871"><ele>146.0</ele><time>2026-03-28T08:41:59.838Z</time></trkpt><trkpt lat="45.4657341" lon="10.463293"><ele>146.0</ele><time>2026-03-28T08:42:00.838Z</time></trkpt><trkpt lat="45.4657771" lon="10.4631019"><ele>146.0</ele><time>2026-03-28T08:42:01.838Z</time></trkpt><trkpt lat="45.4658282" lon="10.4629051"><ele>146.0</ele><time>2026-03-28T08:42:02.837Z</time></trkpt><trkpt lat="45.465881" lon="10.4627086"><ele>146.25</ele><time>2026-03-28T08:42:03.839Z</time></trkpt><trkpt lat="45.4659288" lon="10.4625106"><ele>146.5</ele><time>2026-03-28T08:42:04.839Z</time></trkpt><trkpt lat="45.4659739" lon="10.4623088"><ele>146.75</ele><time>2026-03-28T08:42:05.838Z</time></trkpt><trkpt lat="45.4660203" lon="10.4621098"><ele>147.0</ele><time>2026-03-28T08:42:06.838Z</time></trkpt><trkpt lat="45.4660653" lon="10.4619118"><ele>146.5</ele><time>2026-03-28T08:42:07.838Z</time></trkpt><trkpt lat="45.4661113" lon="10.4617174"><ele>146.0</ele><time>2026-03-28T08:42:08.838Z</time></trkpt><trkpt lat="45.4661571" lon="10.4615246"><ele>145.5</ele><time>2026-03-28T08:42:09.837Z</time></trkpt><trkpt lat="45.4661943" lon="10.4613328"><ele>145.0</ele><time>2026-03-28T08:42:10.837Z</time></trkpt><trkpt lat="45.4662269" lon="10.4611436"><ele>145.0</ele><time>2026-03-28T08:42:11.838Z</time></trkpt><trkpt lat="45.4662527" lon="10.4609761"><ele>145.0</ele><time>2026-03-28T08:42:12.837Z</time></trkpt><trkpt lat="45.4662799" lon="10.4608185"><ele>145.0</ele><time>2026-03-28T08:42:13.839Z</time></trkpt><trkpt lat="45.4663115" lon="10.4606843"><ele>145.0</ele><time>2026-03-28T08:42:14.838Z</time></trkpt><trkpt lat="45.4663501" lon="10.4605681"><ele>145.0</ele><time>2026-03-28T08:42:15.838Z</time></trkpt><trkpt lat="45.4663891" lon="10.4604604"><ele>145.0</ele><time>2026-03-28T08:42:16.838Z</time></trkpt><trkpt lat="45.4664189" lon="10.4603405"><ele>145.0</ele><time>2026-03-28T08:42:17.838Z</time></trkpt><trkpt lat="45.4664385" lon="10.4602169"><ele>145.0</ele><time>2026-03-28T08:42:18.838Z</time></trkpt><trkpt lat="45.466461" lon="10.4600836"><ele>145.0</ele><time>2026-03-28T08:42:19.838Z</time></trkpt><trkpt lat="45.4664964" lon="10.4599383"><ele>145.0</ele><time>2026-03-28T08:42:20.838Z</time></trkpt><trkpt lat="45.4665373" lon="10.4597924"><ele>145.0</ele><time>2026-03-28T08:42:21.838Z</time></trkpt><trkpt lat="45.4665843" lon="10.4596265"><ele>145.0</ele><time>2026-03-28T08:42:22.838Z</time></trkpt><trkpt lat="45.4666347" lon="10.459455"><ele>145.0</ele><time>2026-03-28T08:42:23.838Z</time></trkpt><trkpt lat="45.466682" lon="10.4592822"><ele>145.0</ele><time>2026-03-28T08:42:24.838Z</time></trkpt><trkpt lat="45.4667291" lon="10.4591003"><ele>145.0</ele><time>2026-03-28T08:42:25.839Z</time></trkpt><trkpt lat="45.4667747" lon="10.4589094"><ele>145.0</ele><time>2026-03-28T08:42:26.838Z</time></trkpt><trkpt lat="45.4668186" lon="10.4587149"><ele>145.0</ele><time>2026-03-28T08:42:27.838Z</time></trkpt><trkpt lat="45.4668635" lon="10.4585283"><ele>145.0</ele><time>2026-03-28T08:42:28.838Z</time></trkpt><trkpt lat="45.4669085" lon="10.4583461"><ele>145.0</ele><time>2026-03-28T08:42:29.838Z</time></trkpt><trkpt lat="45.4669515" lon="10.4581666"><ele>145.0</ele><time>2026-03-28T08:42:30.838Z</time></trkpt><trkpt lat="45.4669913" lon="10.4579899"><ele>145.0</ele><time>2026-03-28T08:42:31.838Z</time></trkpt><trkpt lat="45.4670299" lon="10.4578138"><ele>145.0</ele><time>2026-03-28T08:42:32.838Z</time></trkpt><trkpt lat="45.4670703" lon="10.4576384"><ele>144.75</ele><time>2026-03-28T08:42:33.839Z</time></trkpt><trkpt lat="45.4671117" lon="10.4574653"><ele>144.5</ele><time>2026-03-28T08:42:34.837Z</time></trkpt><trkpt lat="45.4671526" lon="10.4572933"><ele>144.25</ele><time>2026-03-28T08:42:35.839Z</time></trkpt><trkpt lat="45.4671931" lon="10.4571231"><ele>144.0</ele><time>2026-03-28T08:42:36.838Z</time></trkpt><trkpt lat="45.4672305" lon="10.4569705"><ele>144.0</ele><time>2026-03-28T08:42:37.837Z</time></trkpt><trkpt lat="45.4672636" lon="10.4568486"><ele>144.0</ele><time>2026-03-28T08:42:38.837Z</time></trkpt><trkpt lat="45.4672917" lon="10.4567472"><ele>144.0</ele><time>2026-03-28T08:42:39.837Z</time></trkpt><trkpt lat="45.4673217" lon="10.4566574"><ele>144.0</ele><time>2026-03-28T08:42:40.838Z</time></trkpt><trkpt lat="45.4673947" lon="10.456524"><ele>144.0</ele><time>2026-03-28T08:42:42.839Z</time></trkpt><trkpt lat="45.4674767" lon="10.4564036"><ele>144.0</ele><time>2026-03-28T08:42:44.838Z</time></trkpt><trkpt lat="45.4675064" lon="10.4563208"><ele>144.0</ele><time>2026-03-28T08:42:45.838Z</time></trkpt><trkpt lat="45.467514" lon="10.4562209"><ele>144.0</ele><time>2026-03-28T08:42:46.838Z</time></trkpt><trkpt lat="45.4675031" lon="10.4561001"><ele>144.0</ele><time>2026-03-28T08:42:47.837Z</time></trkpt><trkpt lat="45.4674963" lon="10.4559609"><ele>144.0</ele><time>2026-03-28T08:42:48.838Z</time></trkpt><trkpt lat="45.467511" lon="10.4558059"><ele>144.0</ele><time>2026-03-28T08:42:49.838Z</time></trkpt><trkpt lat="45.4675382" lon="10.455658"><ele>144.0</ele><time>2026-03-28T08:42:50.837Z</time></trkpt><trkpt lat="45.4675734" lon="10.4554916"><ele>144.0</ele><time>2026-03-28T08:42:51.838Z</time></trkpt><trkpt lat="45.4676178" lon="10.4553172"><ele>144.0</ele><time>2026-03-28T08:42:52.838Z</time></trkpt><trkpt lat="45.4676637" lon="10.4551409"><ele>144.0</ele><time>2026-03-28T08:42:53.839Z</time></trkpt><trkpt lat="45.4677142" lon="10.4549611"><ele>144.0</ele><time>2026-03-28T08:42:54.839Z</time></trkpt><trkpt lat="45.4677646" lon="10.4547784"><ele>144.0</ele><time>2026-03-28T08:42:55.838Z</time></trkpt><trkpt lat="45.4678091" lon="10.4545844"><ele>144.0</ele><time>2026-03-28T08:42:56.838Z</time></trkpt><trkpt lat="45.4678547" lon="10.4543782"><ele>144.0</ele><time>2026-03-28T08:42:57.838Z</time></trkpt><trkpt lat="45.4679034" lon="10.4541667"><ele>144.33333333333334</ele><time>2026-03-28T08:42:58.839Z</time></trkpt><trkpt lat="45.4679558" lon="10.453955"><ele>144.66666666666669</ele><time>2026-03-28T08:42:59.838Z</time></trkpt><trkpt lat="45.4680104" lon="10.4537456"><ele>145.0</ele><time>2026-03-28T08:43:00.839Z</time></trkpt><trkpt lat="45.4680661" lon="10.4535341"><ele>144.33333333333334</ele><time>2026-03-28T08:43:01.838Z</time></trkpt><trkpt lat="45.4681224" lon="10.4533221"><ele>143.66666666666666</ele><time>2026-03-28T08:43:02.837Z</time></trkpt><trkpt lat="45.4681776" lon="10.4531077"><ele>143.0</ele><time>2026-03-28T08:43:03.838Z</time></trkpt><trkpt lat="45.4682316" lon="10.4528917"><ele>143.0</ele><time>2026-03-28T08:43:04.839Z</time></trkpt><trkpt lat="45.4682893" lon="10.4526653"><ele>143.0</ele><time>2026-03-28T08:43:05.838Z</time></trkpt><trkpt lat="45.4683511" lon="10.4524327"><ele>143.0</ele><time>2026-03-28T08:43:06.838Z</time></trkpt><trkpt lat="45.4684154" lon="10.452195"><ele>143.0</ele><time>2026-03-28T08:43:07.839Z</time></trkpt><trkpt lat="45.46848" lon="10.4519545"><ele>143.0</ele><time>2026-03-28T08:43:08.838Z</time></trkpt><trkpt lat="45.4685471" lon="10.4517131"><ele>143.0</ele><time>2026-03-28T08:43:09.838Z</time></trkpt><trkpt lat="45.468615" lon="10.4514732"><ele>143.0</ele><time>2026-03-28T08:43:10.838Z</time></trkpt><trkpt lat="45.4686809" lon="10.4512338"><ele>143.0</ele><time>2026-03-28T08:43:11.838Z</time></trkpt><trkpt lat="45.4687445" lon="10.4509948"><ele>143.0</ele><time>2026-03-28T08:43:12.837Z</time></trkpt><trkpt lat="45.4688072" lon="10.4507563"><ele>143.66666666666666</ele><time>2026-03-28T08:43:13.839Z</time></trkpt><trkpt lat="45.4688681" lon="10.4505195"><ele>144.33333333333334</ele><time>2026-03-28T08:43:14.837Z</time></trkpt><trkpt lat="45.4689306" lon="10.450284"><ele>145.0</ele><time>2026-03-28T08:43:15.838Z</time></trkpt><trkpt lat="45.4689972" lon="10.4500507"><ele>145.0</ele><time>2026-03-28T08:43:16.837Z</time></trkpt><trkpt lat="45.4690651" lon="10.449819"><ele>145.0</ele><time>2026-03-28T08:43:17.837Z</time></trkpt><trkpt lat="45.4691341" lon="10.44959"><ele>145.0</ele><time>2026-03-28T08:43:18.838Z</time></trkpt><trkpt lat="45.4692059" lon="10.4493625"><ele>144.0</ele><time>2026-03-28T08:43:19.837Z</time></trkpt><trkpt lat="45.4692838" lon="10.4491361"><ele>143.0</ele><time>2026-03-28T08:43:20.838Z</time></trkpt><trkpt lat="45.4693633" lon="10.4489151"><ele>142.0</ele><time>2026-03-28T08:43:21.839Z</time></trkpt><trkpt lat="45.4694458" lon="10.4486904"><ele>141.66666666666669</ele><time>2026-03-28T08:43:22.839Z</time></trkpt><trkpt lat="45.4695246" lon="10.4484656"><ele>141.33333333333334</ele><time>2026-03-28T08:43:23.837Z</time></trkpt><trkpt lat="45.4695992" lon="10.4482404"><ele>141.0</ele><time>2026-03-28T08:43:24.839Z</time></trkpt><trkpt lat="45.4696652" lon="10.4480084"><ele>141.0</ele><time>2026-03-28T08:43:25.838Z</time></trkpt><trkpt lat="45.4697187" lon="10.4477734"><ele>141.0</ele><time>2026-03-28T08:43:26.838Z</time></trkpt><trkpt lat="45.4697639" lon="10.4475359"><ele>141.0</ele><time>2026-03-28T08:43:27.839Z</time></trkpt><trkpt lat="45.4698059" lon="10.4472921"><ele>140.66666666666666</ele><time>2026-03-28T08:43:28.838Z</time></trkpt><trkpt lat="45.469841" lon="10.4470443"><ele>140.33333333333331</ele><time>2026-03-28T08:43:29.838Z</time></trkpt><trkpt lat="45.4698716" lon="10.446793"><ele>140.0</ele><time>2026-03-28T08:43:30.838Z</time></trkpt><trkpt lat="45.4698996" lon="10.446539"><ele>140.33333333333331</ele><time>2026-03-28T08:43:31.838Z</time></trkpt><trkpt lat="45.4699218" lon="10.4462834"><ele>140.66666666666666</ele><time>2026-03-28T08:43:32.838Z</time></trkpt><trkpt lat="45.4699377" lon="10.4460247"><ele>141.0</ele><time>2026-03-28T08:43:33.838Z</time></trkpt><trkpt lat="45.4699488" lon="10.445764"><ele>141.0</ele><time>2026-03-28T08:43:34.838Z</time></trkpt><trkpt lat="45.469958" lon="10.4455013"><ele>141.0</ele><time>2026-03-28T08:43:35.838Z</time></trkpt><trkpt lat="45.4699671" lon="10.4452361"><ele>141.0</ele><time>2026-03-28T08:43:36.837Z</time></trkpt><trkpt lat="45.4699796" lon="10.4449694"><ele>141.0</ele><time>2026-03-28T08:43:37.838Z</time></trkpt><trkpt lat="45.4699912" lon="10.4447036"><ele>141.0</ele><time>2026-03-28T08:43:38.838Z</time></trkpt><trkpt lat="45.4700029" lon="10.4444398"><ele>141.0</ele><time>2026-03-28T08:43:39.838Z</time></trkpt><trkpt lat="45.4700166" lon="10.4441784"><ele>141.0</ele><time>2026-03-28T08:43:40.838Z</time></trkpt><trkpt lat="45.470034" lon="10.4439204"><ele>141.0</ele><time>2026-03-28T08:43:41.838Z</time></trkpt><trkpt lat="45.4700557" lon="10.4436673"><ele>141.0</ele><time>2026-03-28T08:43:42.838Z</time></trkpt><trkpt lat="45.4700846" lon="10.4434185"><ele>141.0</ele><time>2026-03-28T08:43:43.838Z</time></trkpt><trkpt lat="45.4701217" lon="10.4431723"><ele>141.0</ele><time>2026-03-28T08:43:44.838Z</time></trkpt><trkpt lat="45.4701591" lon="10.4429394"><ele>141.0</ele><time>2026-03-28T08:43:45.837Z</time></trkpt><trkpt lat="45.4702011" lon="10.4427187"><ele>141.0</ele><time>2026-03-28T08:43:46.838Z</time></trkpt><trkpt lat="45.4702462" lon="10.4425098"><ele>141.0</ele><time>2026-03-28T08:43:47.838Z</time></trkpt><trkpt lat="45.4702881" lon="10.442323"><ele>141.0</ele><time>2026-03-28T08:43:48.838Z</time></trkpt><trkpt lat="45.4703362" lon="10.4421364"><ele>141.0</ele><time>2026-03-28T08:43:49.838Z</time></trkpt><trkpt lat="45.4703896" lon="10.4419523"><ele>140.5</ele><time>2026-03-28T08:43:50.839Z</time></trkpt><trkpt lat="45.4704505" lon="10.4417757"><ele>140.0</ele><time>2026-03-28T08:43:51.839Z</time></trkpt><trkpt lat="45.4705185" lon="10.4416038"><ele>139.5</ele><time>2026-03-28T08:43:52.838Z</time></trkpt><trkpt lat="45.4705924" lon="10.4414396"><ele>139.0</ele><time>2026-03-28T08:43:53.838Z</time></trkpt><trkpt lat="45.4706666" lon="10.4412848"><ele>138.83333333333334</ele><time>2026-03-28T08:43:54.837Z</time></trkpt><trkpt lat="45.4707309" lon="10.4411627"><ele>138.66666666666669</ele><time>2026-03-28T08:43:55.838Z</time></trkpt><trkpt lat="45.4707914" lon="10.4410506"><ele>138.5</ele><time>2026-03-28T08:43:56.838Z</time></trkpt><trkpt lat="45.4708476" lon="10.4409629"><ele>138.33333333333334</ele><time>2026-03-28T08:43:57.838Z</time></trkpt><trkpt lat="45.4709013" lon="10.440891"><ele>138.16666666666666</ele><time>2026-03-28T08:43:58.837Z</time></trkpt><trkpt lat="45.4709571" lon="10.4408377"><ele>138.0</ele><time>2026-03-28T08:43:59.838Z</time></trkpt><trkpt lat="45.4710139" lon="10.4407955"><ele>138.0</ele><time>2026-03-28T08:44:00.839Z</time></trkpt><trkpt lat="45.471126" lon="10.4407512"><ele>138.0</ele><time>2026-03-28T08:44:02.838Z</time></trkpt><trkpt lat="45.4712113" lon="10.4406443"><ele>138.0</ele><time>2026-03-28T08:44:04.838Z</time></trkpt><trkpt lat="45.4712355" lon="10.440519"><ele>138.0</ele><time>2026-03-28T08:44:06.838Z</time></trkpt><trkpt lat="45.4712196" lon="10.440409"><ele>138.0</ele><time>2026-03-28T08:44:08.838Z</time></trkpt><trkpt lat="45.4711873" lon="10.4403253"><ele>138.20000000000002</ele><time>2026-03-28T08:44:10.838Z</time></trkpt><trkpt lat="45.4711481" lon="10.440245"><ele>138.4</ele><time>2026-03-28T08:44:12.838Z</time></trkpt><trkpt lat="45.4711069" lon="10.4401229"><ele>138.60000000000002</ele><time>2026-03-28T08:44:14.838Z</time></trkpt><trkpt lat="45.4710768" lon="10.4399727"><ele>138.8</ele><time>2026-03-28T08:44:16.839Z</time></trkpt><trkpt lat="45.4710738" lon="10.4398085"><ele>139.0</ele><time>2026-03-28T08:44:18.838Z</time></trkpt><trkpt lat="45.4710926" lon="10.4396392"><ele>138.8</ele><time>2026-03-28T08:44:20.838Z</time></trkpt><trkpt lat="45.4711287" lon="10.4394722"><ele>138.60000000000002</ele><time>2026-03-28T08:44:22.837Z</time></trkpt><trkpt lat="45.4711623" lon="10.4393368"><ele>138.4</ele><time>2026-03-28T08:44:24.837Z</time></trkpt><trkpt lat="45.4711982" lon="10.4392145"><ele>138.20000000000002</ele><time>2026-03-28T08:44:26.837Z</time></trkpt><trkpt lat="45.4712391" lon="10.4390951"><ele>138.0</ele><time>2026-03-28T08:44:27.837Z</time></trkpt><trkpt lat="45.4712757" lon="10.4389682"><ele>138.0</ele><time>2026-03-28T08:44:28.837Z</time></trkpt><trkpt lat="45.4713114" lon="10.4388411"><ele>138.0</ele><time>2026-03-28T08:44:30.837Z</time></trkpt><trkpt lat="45.4713323" lon="10.4387563"><ele>138.0</ele><time>2026-03-28T08:45:33.836Z</time></trkpt><trkpt lat="45.4712901" lon="10.4386521"><ele>138.0</ele><time>2026-03-28T08:45:36.836Z</time></trkpt><trkpt lat="45.4712279" lon="10.4387387"><ele>138.0</ele><time>2026-03-28T08:45:39.836Z</time></trkpt><trkpt lat="45.471206" lon="10.4388334"><ele>138.0</ele><time>2026-03-28T08:45:40.837Z</time></trkpt><trkpt lat="45.4711805" lon="10.438942"><ele>138.0</ele><time>2026-03-28T08:45:41.837Z</time></trkpt><trkpt lat="45.4711511" lon="10.4390672"><ele>138.0</ele><time>2026-03-28T08:45:42.837Z</time></trkpt><trkpt lat="45.4711186" lon="10.4392038"><ele>138.0</ele><time>2026-03-28T08:45:43.836Z</time></trkpt><trkpt lat="45.4710866" lon="10.4393312"><ele>138.0</ele><time>2026-03-28T08:45:44.836Z</time></trkpt><trkpt lat="45.4710537" lon="10.4394629"><ele>138.0</ele><time>2026-03-28T08:45:45.836Z</time></trkpt><trkpt lat="45.4710261" lon="10.4395999"><ele>138.20000000000002</ele><time>2026-03-28T08:45:46.836Z</time></trkpt><trkpt lat="45.4710001" lon="10.4397374"><ele>138.4</ele><time>2026-03-28T08:45:47.836Z</time></trkpt><trkpt lat="45.4709814" lon="10.439872"><ele>138.60000000000002</ele><time>2026-03-28T08:45:48.836Z</time></trkpt><trkpt lat="45.4709615" lon="10.4399997"><ele>138.8</ele><time>2026-03-28T08:45:49.836Z</time></trkpt><trkpt lat="45.4709388" lon="10.4401116"><ele>139.0</ele><time>2026-03-28T08:45:50.836Z</time></trkpt><trkpt lat="45.4709083" lon="10.4402246"><ele>139.0</ele><time>2026-03-28T08:45:51.836Z</time></trkpt><trkpt lat="45.4708787" lon="10.4403372"><ele>139.0</ele><time>2026-03-28T08:45:52.837Z</time></trkpt><trkpt lat="45.470855" lon="10.4404425"><ele>139.0</ele><time>2026-03-28T08:45:53.836Z</time></trkpt><trkpt lat="45.470836" lon="10.4405361"><ele>139.0</ele><time>2026-03-28T08:45:54.836Z</time></trkpt><trkpt lat="45.4708194" lon="10.4406431"><ele>139.0</ele><time>2026-03-28T08:45:55.836Z</time></trkpt><trkpt lat="45.4707798" lon="10.4407861"><ele>139.0</ele><time>2026-03-28T08:45:56.836Z</time></trkpt><trkpt lat="45.4707224" lon="10.4409457"><ele>139.0</ele><time>2026-03-28T08:45:57.837Z</time></trkpt><trkpt lat="45.470656" lon="10.4411226"><ele>139.0</ele><time>2026-03-28T08:45:58.836Z</time></trkpt><trkpt lat="45.4705774" lon="10.4413183"><ele>139.0</ele><time>2026-03-28T08:45:59.836Z</time></trkpt><trkpt lat="45.4704952" lon="10.4415194"><ele>139.33333333333334</ele><time>2026-03-28T08:46:00.836Z</time></trkpt><trkpt lat="45.4704233" lon="10.4417237"><ele>139.66666666666666</ele><time>2026-03-28T08:46:01.836Z</time></trkpt><trkpt lat="45.4703635" lon="10.441935"><ele>140.0</ele><time>2026-03-28T08:46:02.836Z</time></trkpt><trkpt lat="45.470309" lon="10.4421408"><ele>140.25</ele><time>2026-03-28T08:46:03.836Z</time></trkpt><trkpt lat="45.4702558" lon="10.4423385"><ele>140.5</ele><time>2026-03-28T08:46:04.836Z</time></trkpt><trkpt lat="45.4702074" lon="10.4425331"><ele>140.75</ele><time>2026-03-28T08:46:05.836Z</time></trkpt><trkpt lat="45.4701631" lon="10.4427309"><ele>141.0</ele><time>2026-03-28T08:46:06.837Z</time></trkpt><trkpt lat="45.4701267" lon="10.4429358"><ele>141.33333333333334</ele><time>2026-03-28T08:46:07.836Z</time></trkpt><trkpt lat="45.4700884" lon="10.4431426"><ele>141.66666666666669</ele><time>2026-03-28T08:46:08.836Z</time></trkpt><trkpt lat="45.4700547" lon="10.4433579"><ele>142.0</ele><time>2026-03-28T08:46:09.836Z</time></trkpt><trkpt lat="45.4700264" lon="10.443575"><ele>142.0</ele><time>2026-03-28T08:46:10.837Z</time></trkpt><trkpt lat="45.4700035" lon="10.4437963"><ele>142.0</ele><time>2026-03-28T08:46:11.837Z</time></trkpt><trkpt lat="45.4699882" lon="10.4440198"><ele>142.0</ele><time>2026-03-28T08:46:12.836Z</time></trkpt><trkpt lat="45.4699759" lon="10.444247"><ele>142.0</ele><time>2026-03-28T08:46:13.837Z</time></trkpt><trkpt lat="45.4699647" lon="10.4444758"><ele>142.0</ele><time>2026-03-28T08:46:14.836Z</time></trkpt><trkpt lat="45.4699523" lon="10.4447079"><ele>142.0</ele><time>2026-03-28T08:46:15.836Z</time></trkpt><trkpt lat="45.4699408" lon="10.4449392"><ele>142.0</ele><time>2026-03-28T08:46:16.837Z</time></trkpt><trkpt lat="45.469931" lon="10.4451742"><ele>142.0</ele><time>2026-03-28T08:46:17.836Z</time></trkpt><trkpt lat="45.4699212" lon="10.4454116"><ele>142.0</ele><time>2026-03-28T08:46:18.837Z</time></trkpt><trkpt lat="45.4699123" lon="10.4456476"><ele>141.66666666666669</ele><time>2026-03-28T08:46:19.836Z</time></trkpt><trkpt lat="45.4699028" lon="10.4458835"><ele>141.33333333333334</ele><time>2026-03-28T08:46:20.836Z</time></trkpt><trkpt lat="45.4698913" lon="10.4461277"><ele>141.0</ele><time>2026-03-28T08:46:21.836Z</time></trkpt><trkpt lat="45.4698778" lon="10.4463735"><ele>140.66666666666666</ele><time>2026-03-28T08:46:22.836Z</time></trkpt><trkpt lat="45.4698585" lon="10.446613"><ele>140.33333333333331</ele><time>2026-03-28T08:46:23.836Z</time></trkpt><trkpt lat="45.4698339" lon="10.4468525"><ele>140.0</ele><time>2026-03-28T08:46:24.836Z</time></trkpt><trkpt lat="45.469808" lon="10.4470816"><ele>140.33333333333331</ele><time>2026-03-28T08:46:25.836Z</time></trkpt><trkpt lat="45.4697767" lon="10.4473039"><ele>140.66666666666666</ele><time>2026-03-28T08:46:26.836Z</time></trkpt><trkpt lat="45.4697386" lon="10.4475196"><ele>141.0</ele><time>2026-03-28T08:46:27.836Z</time></trkpt><trkpt lat="45.4696965" lon="10.4477326"><ele>141.0</ele><time>2026-03-28T08:46:28.836Z</time></trkpt><trkpt lat="45.4696467" lon="10.4479353"><ele>141.0</ele><time>2026-03-28T08:46:29.836Z</time></trkpt><trkpt lat="45.4695957" lon="10.4481275"><ele>141.0</ele><time>2026-03-28T08:46:30.837Z</time></trkpt><trkpt lat="45.4695411" lon="10.4483094"><ele>141.0</ele><time>2026-03-28T08:46:31.836Z</time></trkpt><trkpt lat="45.4694807" lon="10.4484859"><ele>141.0</ele><time>2026-03-28T08:46:32.836Z</time></trkpt><trkpt lat="45.4694177" lon="10.4486558"><ele>141.0</ele><time>2026-03-28T08:46:33.836Z</time></trkpt><trkpt lat="45.4693531" lon="10.4488266"><ele>141.0</ele><time>2026-03-28T08:46:34.836Z</time></trkpt><trkpt lat="45.4692864" lon="10.4490031"><ele>141.0</ele><time>2026-03-28T08:46:35.837Z</time></trkpt><trkpt lat="45.4692224" lon="10.4491875"><ele>141.25</ele><time>2026-03-28T08:46:36.836Z</time></trkpt><trkpt lat="45.4691608" lon="10.4493759"><ele>141.5</ele><time>2026-03-28T08:46:37.837Z</time></trkpt><trkpt lat="45.4691042" lon="10.4495659"><ele>141.75</ele><time>2026-03-28T08:46:38.836Z</time></trkpt><trkpt lat="45.4690517" lon="10.4497542"><ele>142.0</ele><time>2026-03-28T08:46:39.836Z</time></trkpt><trkpt lat="45.4690023" lon="10.4499442"><ele>142.75</ele><time>2026-03-28T08:46:40.837Z</time></trkpt><trkpt lat="45.4689513" lon="10.450127"><ele>143.5</ele><time>2026-03-28T08:46:41.837Z</time></trkpt><trkpt lat="45.4688997" lon="10.4503043"><ele>144.25</ele><time>2026-03-28T08:46:42.837Z</time></trkpt><trkpt lat="45.4688504" lon="10.4504825"><ele>145.0</ele><time>2026-03-28T08:46:43.836Z</time></trkpt><trkpt lat="45.4688032" lon="10.4506661"><ele>144.5</ele><time>2026-03-28T08:46:44.836Z</time></trkpt><trkpt lat="45.4687545" lon="10.4508511"><ele>144.0</ele><time>2026-03-28T08:46:45.836Z</time></trkpt><trkpt lat="45.4687069" lon="10.4510421"><ele>143.5</ele><time>2026-03-28T08:46:46.837Z</time></trkpt><trkpt lat="45.4686564" lon="10.4512329"><ele>143.0</ele><time>2026-03-28T08:46:47.837Z</time></trkpt><trkpt lat="45.4686032" lon="10.4514261"><ele>143.0</ele><time>2026-03-28T08:46:48.836Z</time></trkpt><trkpt lat="45.4685475" lon="10.4516185"><ele>143.0</ele><time>2026-03-28T08:46:49.836Z</time></trkpt><trkpt lat="45.4684901" lon="10.4518088"><ele>143.0</ele><time>2026-03-28T08:46:50.837Z</time></trkpt><trkpt lat="45.4684338" lon="10.4520012"><ele>143.0</ele><time>2026-03-28T08:46:51.836Z</time></trkpt><trkpt lat="45.4683815" lon="10.4521954"><ele>143.0</ele><time>2026-03-28T08:46:52.836Z</time></trkpt><trkpt lat="45.468326" lon="10.4523991"><ele>143.0</ele><time>2026-03-28T08:46:53.837Z</time></trkpt><trkpt lat="45.4682712" lon="10.4526058"><ele>143.0</ele><time>2026-03-28T08:46:54.836Z</time></trkpt><trkpt lat="45.4682152" lon="10.4528125"><ele>143.0</ele><time>2026-03-28T08:46:55.837Z</time></trkpt><trkpt lat="45.4681618" lon="10.4530189"><ele>143.0</ele><time>2026-03-28T08:46:56.836Z</time></trkpt><trkpt lat="45.4681049" lon="10.4532241"><ele>143.0</ele><time>2026-03-28T08:46:57.836Z</time></trkpt><trkpt lat="45.4680523" lon="10.4534315"><ele>143.0</ele><time>2026-03-28T08:46:58.836Z</time></trkpt><trkpt lat="45.468001" lon="10.4536385"><ele>143.0</ele><time>2026-03-28T08:46:59.837Z</time></trkpt><trkpt lat="45.4679495" lon="10.4538459"><ele>143.0</ele><time>2026-03-28T08:47:00.836Z</time></trkpt><trkpt lat="45.467899" lon="10.4540521"><ele>143.0</ele><time>2026-03-28T08:47:01.836Z</time></trkpt><trkpt lat="45.4678459" lon="10.4542645"><ele>143.0</ele><time>2026-03-28T08:47:02.836Z</time></trkpt><trkpt lat="45.4677918" lon="10.4544709"><ele>143.0</ele><time>2026-03-28T08:47:03.837Z</time></trkpt><trkpt lat="45.4677407" lon="10.4546744"><ele>143.0</ele><time>2026-03-28T08:47:04.836Z</time></trkpt><trkpt lat="45.4676905" lon="10.4548697"><ele>143.0</ele><time>2026-03-28T08:47:05.836Z</time></trkpt><trkpt lat="45.4676484" lon="10.4550543"><ele>143.0</ele><time>2026-03-28T08:47:06.837Z</time></trkpt><trkpt lat="45.46761" lon="10.4552255"><ele>143.0</ele><time>2026-03-28T08:47:07.836Z</time></trkpt><trkpt lat="45.4675754" lon="10.4553803"><ele>143.16666666666666</ele><time>2026-03-28T08:47:08.836Z</time></trkpt><trkpt lat="45.4675434" lon="10.4555228"><ele>143.33333333333331</ele><time>2026-03-28T08:47:09.836Z</time></trkpt><trkpt lat="45.4675098" lon="10.4556656"><ele>143.5</ele><time>2026-03-28T08:47:10.836Z</time></trkpt><trkpt lat="45.4674802" lon="10.4557914"><ele>143.66666666666666</ele><time>2026-03-28T08:47:11.836Z</time></trkpt><trkpt lat="45.467455" lon="10.4558902"><ele>143.83333333333334</ele><time>2026-03-28T08:47:12.837Z</time></trkpt><trkpt lat="45.4674232" lon="10.4559785"><ele>144.0</ele><time>2026-03-28T08:47:13.837Z</time></trkpt><trkpt lat="45.467377" lon="10.4560549"><ele>144.0</ele><time>2026-03-28T08:47:14.836Z</time></trkpt><trkpt lat="45.4673194" lon="10.4561248"><ele>144.0</ele><time>2026-03-28T08:47:15.837Z</time></trkpt><trkpt lat="45.4672656" lon="10.4562088"><ele>144.0</ele><time>2026-03-28T08:47:16.836Z</time></trkpt><trkpt lat="45.4672519" lon="10.4563114"><ele>144.0</ele><time>2026-03-28T08:47:17.836Z</time></trkpt><trkpt lat="45.4672579" lon="10.4564276"><ele>144.0</ele><time>2026-03-28T08:47:18.837Z</time></trkpt><trkpt lat="45.4672664" lon="10.4565506"><ele>144.0</ele><time>2026-03-28T08:47:19.837Z</time></trkpt><trkpt lat="45.4672639" lon="10.4566866"><ele>144.0</ele><time>2026-03-28T08:47:20.836Z</time></trkpt><trkpt lat="45.4672428" lon="10.4568268"><ele>144.0</ele><time>2026-03-28T08:47:21.837Z</time></trkpt><trkpt lat="45.4672126" lon="10.4569723"><ele>144.0</ele><time>2026-03-28T08:47:22.836Z</time></trkpt><trkpt lat="45.4671746" lon="10.457126"><ele>144.0</ele><time>2026-03-28T08:47:23.836Z</time></trkpt><trkpt lat="45.4671318" lon="10.4573061"><ele>144.33333333333334</ele><time>2026-03-28T08:47:24.836Z</time></trkpt><trkpt lat="45.4670821" lon="10.457509"><ele>144.66666666666669</ele><time>2026-03-28T08:47:25.836Z</time></trkpt><trkpt lat="45.4670281" lon="10.4577331"><ele>145.0</ele><time>2026-03-28T08:47:26.836Z</time></trkpt><trkpt lat="45.4669689" lon="10.4579687"><ele>145.0</ele><time>2026-03-28T08:47:27.836Z</time></trkpt><trkpt lat="45.4669082" lon="10.4582216"><ele>145.0</ele><time>2026-03-28T08:47:28.836Z</time></trkpt><trkpt lat="45.4668506" lon="10.4584913"><ele>145.0</ele><time>2026-03-28T08:47:29.836Z</time></trkpt><trkpt lat="45.4667922" lon="10.4587681"><ele>145.0</ele><time>2026-03-28T08:47:30.836Z</time></trkpt><trkpt lat="45.4667249" lon="10.4590392"><ele>145.0</ele><time>2026-03-28T08:47:31.836Z</time></trkpt><trkpt lat="45.4666474" lon="10.4592918"><ele>145.0</ele><time>2026-03-28T08:47:32.837Z</time></trkpt><trkpt lat="45.4665704" lon="10.4595117"><ele>145.0</ele><time>2026-03-28T08:47:33.836Z</time></trkpt><trkpt lat="45.4665033" lon="10.4597054"><ele>145.0</ele><time>2026-03-28T08:47:34.837Z</time></trkpt><trkpt lat="45.4664447" lon="10.4598649"><ele>145.0</ele><time>2026-03-28T08:47:35.836Z</time></trkpt><trkpt lat="45.4663833" lon="10.459998"><ele>145.0</ele><time>2026-03-28T08:47:36.837Z</time></trkpt><trkpt lat="45.4663107" lon="10.4600947"><ele>145.0</ele><time>2026-03-28T08:47:37.836Z</time></trkpt><trkpt lat="45.4662432" lon="10.4601663"><ele>145.0</ele><time>2026-03-28T08:47:38.836Z</time></trkpt><trkpt lat="45.4662078" lon="10.4602569"><ele>145.0</ele><time>2026-03-28T08:47:39.836Z</time></trkpt><trkpt lat="45.466206" lon="10.4603614"><ele>145.0</ele><time>2026-03-28T08:47:40.837Z</time></trkpt><trkpt lat="45.4662339" lon="10.4604903"><ele>145.0</ele><time>2026-03-28T08:47:41.836Z</time></trkpt><trkpt lat="45.4662383" lon="10.46065"><ele>145.0</ele><time>2026-03-28T08:47:42.837Z</time></trkpt><trkpt lat="45.4662231" lon="10.4608392"><ele>145.0</ele><time>2026-03-28T08:47:43.837Z</time></trkpt><trkpt lat="45.4661991" lon="10.4610408"><ele>145.0</ele><time>2026-03-28T08:47:44.836Z</time></trkpt><trkpt lat="45.4661594" lon="10.4612677"><ele>145.0</ele><time>2026-03-28T08:47:45.836Z</time></trkpt><trkpt lat="45.4661093" lon="10.4615055"><ele>145.0</ele><time>2026-03-28T08:47:46.836Z</time></trkpt><trkpt lat="45.4660566" lon="10.4617517"><ele>145.0</ele><time>2026-03-28T08:47:47.836Z</time></trkpt><trkpt lat="45.4660011" lon="10.4620123"><ele>145.0</ele><time>2026-03-28T08:47:48.836Z</time></trkpt><trkpt lat="45.4659412" lon="10.4622713"><ele>145.33333333333334</ele><time>2026-03-28T08:47:49.837Z</time></trkpt><trkpt lat="45.4658837" lon="10.4625247"><ele>145.66666666666666</ele><time>2026-03-28T08:47:50.837Z</time></trkpt><trkpt lat="45.4658257" lon="10.4627576"><ele>146.0</ele><time>2026-03-28T08:47:51.837Z</time></trkpt><trkpt lat="45.4657646" lon="10.4629616"><ele>146.0</ele><time>2026-03-28T08:47:52.836Z</time></trkpt><trkpt lat="45.4656943" lon="10.4631416"><ele>146.0</ele><time>2026-03-28T08:47:53.836Z</time></trkpt><trkpt lat="45.4656164" lon="10.4632841"><ele>146.0</ele><time>2026-03-28T08:47:54.836Z</time></trkpt><trkpt lat="45.4655325" lon="10.4633824"><ele>146.0</ele><time>2026-03-28T08:47:55.836Z</time></trkpt><trkpt lat="45.4654674" lon="10.4634717"><ele>146.0</ele><time>2026-03-28T08:47:56.836Z</time></trkpt><trkpt lat="45.4654433" lon="10.4635768"><ele>146.0</ele><time>2026-03-28T08:47:57.837Z</time></trkpt><trkpt lat="45.4654513" lon="10.4636847"><ele>146.0</ele><time>2026-03-28T08:47:58.837Z</time></trkpt><trkpt lat="45.4654792" lon="10.463814"><ele>146.0</ele><time>2026-03-28T08:47:59.836Z</time></trkpt><trkpt lat="45.4654891" lon="10.4639606"><ele>146.0</ele><time>2026-03-28T08:48:00.836Z</time></trkpt><trkpt lat="45.4654734" lon="10.4641296"><ele>146.25</ele><time>2026-03-28T08:48:01.837Z</time></trkpt><trkpt lat="45.4654338" lon="10.4643123"><ele>146.5</ele><time>2026-03-28T08:48:02.836Z</time></trkpt><trkpt lat="45.465386" lon="10.4645062"><ele>146.75</ele><time>2026-03-28T08:48:03.836Z</time></trkpt><trkpt lat="45.4653396" lon="10.464702"><ele>147.0</ele><time>2026-03-28T08:48:04.837Z</time></trkpt><trkpt lat="45.4652976" lon="10.4649118"><ele>147.33333333333334</ele><time>2026-03-28T08:48:05.837Z</time></trkpt><trkpt lat="45.4652534" lon="10.4651235"><ele>147.66666666666669</ele><time>2026-03-28T08:48:06.836Z</time></trkpt><trkpt lat="45.4652016" lon="10.4653346"><ele>148.0</ele><time>2026-03-28T08:48:07.837Z</time></trkpt><trkpt lat="45.465158" lon="10.4655374"><ele>148.20000000000002</ele><time>2026-03-28T08:48:08.836Z</time></trkpt><trkpt lat="45.4651215" lon="10.4657174"><ele>148.4</ele><time>2026-03-28T08:48:09.837Z</time></trkpt><trkpt lat="45.4650899" lon="10.4658759"><ele>148.60000000000002</ele><time>2026-03-28T08:48:10.836Z</time></trkpt><trkpt lat="45.4650699" lon="10.4660128"><ele>148.8</ele><time>2026-03-28T08:48:11.836Z</time></trkpt><trkpt lat="45.4650597" lon="10.4661309"><ele>149.0</ele><time>2026-03-28T08:48:12.836Z</time></trkpt><trkpt lat="45.4650684" lon="10.4662203"><ele>149.16666666666666</ele><time>2026-03-28T08:48:13.836Z</time></trkpt><trkpt lat="45.4651023" lon="10.4663393"><ele>149.33333333333331</ele><time>2026-03-28T08:48:15.836Z</time></trkpt><trkpt lat="45.4651416" lon="10.4664301"><ele>149.5</ele><time>2026-03-28T08:48:18.837Z</time></trkpt><trkpt lat="45.4651426" lon="10.4665446"><ele>149.66666666666666</ele><time>2026-03-28T08:55:13.837Z</time></trkpt><trkpt lat="45.4650905" lon="10.4666139"><ele>149.83333333333334</ele><time>2026-03-28T08:55:14.836Z</time></trkpt><trkpt lat="45.4650101" lon="10.4666815"><ele>150.0</ele><time>2026-03-28T08:55:16.836Z</time></trkpt><trkpt lat="45.4649482" lon="10.4666982"><ele>150.0</ele><time>2026-03-28T08:55:34.837Z</time></trkpt><trkpt lat="45.4648806" lon="10.4667953"><ele>150.0</ele><time>2026-03-28T08:55:36.836Z</time></trkpt><trkpt lat="45.4648481" lon="10.4668985"><ele>150.0</ele><time>2026-03-28T08:55:37.837Z</time></trkpt><trkpt lat="45.4648156" lon="10.4670365"><ele>150.0</ele><time>2026-03-28T08:55:38.836Z</time></trkpt><trkpt lat="45.4647788" lon="10.4671761"><ele>150.0</ele><time>2026-03-28T08:55:39.836Z</time></trkpt><trkpt lat="45.4647448" lon="10.4673069"><ele>150.0</ele><time>2026-03-28T08:55:40.837Z</time></trkpt><trkpt lat="45.4647117" lon="10.4674423"><ele>150.0</ele><time>2026-03-28T08:55:41.836Z</time></trkpt><trkpt lat="45.4646769" lon="10.4675913"><ele>150.0</ele><time>2026-03-28T08:55:42.837Z</time></trkpt><trkpt lat="45.4646432" lon="10.4677455"><ele>150.0</ele><time>2026-03-28T08:55:43.836Z</time></trkpt><trkpt lat="45.4646064" lon="10.4679043"><ele>150.0</ele><time>2026-03-28T08:55:44.837Z</time></trkpt><trkpt lat="45.4645635" lon="10.4680667"><ele>150.75</ele><time>2026-03-28T08:55:45.836Z</time></trkpt><trkpt lat="45.4645202" lon="10.4682347"><ele>151.5</ele><time>2026-03-28T08:55:46.836Z</time></trkpt><trkpt lat="45.4644759" lon="10.4683988"><ele>152.25</ele><time>2026-03-28T08:55:47.836Z</time></trkpt><trkpt lat="45.4644316" lon="10.4685593"><ele>153.0</ele><time>2026-03-28T08:55:48.837Z</time></trkpt><trkpt lat="45.4643883" lon="10.4687055"><ele>153.16666666666666</ele><time>2026-03-28T08:55:49.836Z</time></trkpt><trkpt lat="45.4643477" lon="10.4688335"><ele>153.33333333333334</ele><time>2026-03-28T08:55:50.836Z</time></trkpt><trkpt lat="45.4643095" lon="10.4689457"><ele>153.5</ele><time>2026-03-28T08:55:51.837Z</time></trkpt><trkpt lat="45.4642774" lon="10.469047"><ele>153.66666666666669</ele><time>2026-03-28T08:55:52.837Z</time></trkpt><trkpt lat="45.4642494" lon="10.4691505"><ele>153.83333333333334</ele><time>2026-03-28T08:55:53.836Z</time></trkpt><trkpt lat="45.4642196" lon="10.4692492"><ele>154.0</ele><time>2026-03-28T08:55:54.836Z</time></trkpt><trkpt lat="45.4641889" lon="10.4693484"><ele>154.0</ele><time>2026-03-28T08:55:55.837Z</time></trkpt><trkpt lat="45.4641604" lon="10.4694474"><ele>154.0</ele><time>2026-03-28T08:55:56.837Z</time></trkpt><trkpt lat="45.4641413" lon="10.4695565"><ele>154.0</ele><time>2026-03-28T08:55:57.837Z</time></trkpt><trkpt lat="45.4641455" lon="10.4696873"><ele>154.0</ele><time>2026-03-28T08:55:58.836Z</time></trkpt><trkpt lat="45.4641523" lon="10.4698314"><ele>154.0</ele><time>2026-03-28T08:55:59.836Z</time></trkpt><trkpt lat="45.4641482" lon="10.4699894"><ele>154.2</ele><time>2026-03-28T08:56:00.836Z</time></trkpt><trkpt lat="45.4641432" lon="10.4701419"><ele>154.4</ele><time>2026-03-28T08:56:01.836Z</time></trkpt><trkpt lat="45.4641418" lon="10.4702922"><ele>154.6</ele><time>2026-03-28T08:56:02.836Z</time></trkpt><trkpt lat="45.4641426" lon="10.4704409"><ele>154.8</ele><time>2026-03-28T08:56:03.837Z</time></trkpt><trkpt lat="45.4641346" lon="10.4705855"><ele>155.0</ele><time>2026-03-28T08:56:04.836Z</time></trkpt><trkpt lat="45.4641273" lon="10.4707246"><ele>155.2</ele><time>2026-03-28T08:56:05.837Z</time></trkpt><trkpt lat="45.4641201" lon="10.4708703"><ele>155.4</ele><time>2026-03-28T08:56:06.836Z</time></trkpt><trkpt lat="45.4641086" lon="10.4710126"><ele>155.6</ele><time>2026-03-28T08:56:07.836Z</time></trkpt><trkpt lat="45.4640876" lon="10.4711534"><ele>155.8</ele><time>2026-03-28T08:56:08.836Z</time></trkpt><trkpt lat="45.4640701" lon="10.4712941"><ele>156.0</ele><time>2026-03-28T08:56:09.836Z</time></trkpt><trkpt lat="45.4640511" lon="10.4714391"><ele>156.4</ele><time>2026-03-28T08:56:10.837Z</time></trkpt><trkpt lat="45.4640315" lon="10.4715817"><ele>156.8</ele><time>2026-03-28T08:56:11.836Z</time></trkpt><trkpt lat="45.4640074" lon="10.4717229"><ele>157.20000000000002</ele><time>2026-03-28T08:56:12.836Z</time></trkpt><trkpt lat="45.4639855" lon="10.4718626"><ele>157.6</ele><time>2026-03-28T08:56:13.836Z</time></trkpt><trkpt lat="45.4639631" lon="10.4719979"><ele>158.0</ele><time>2026-03-28T08:56:14.836Z</time></trkpt><trkpt lat="45.4639394" lon="10.4721318"><ele>158.20000000000002</ele><time>2026-03-28T08:56:15.836Z</time></trkpt><trkpt lat="45.4639157" lon="10.472272"><ele>158.4</ele><time>2026-03-28T08:56:16.836Z</time></trkpt><trkpt lat="45.4638891" lon="10.472415"><ele>158.60000000000002</ele><time>2026-03-28T08:56:17.836Z</time></trkpt><trkpt lat="45.4638623" lon="10.4725554"><ele>158.8</ele><time>2026-03-28T08:56:18.836Z</time></trkpt><trkpt lat="45.4638407" lon="10.4727023"><ele>159.0</ele><time>2026-03-28T08:56:19.836Z</time></trkpt><trkpt lat="45.4638232" lon="10.4728571"><ele>159.25</ele><time>2026-03-28T08:56:20.836Z</time></trkpt><trkpt lat="45.4638092" lon="10.4730083"><ele>159.5</ele><time>2026-03-28T08:56:21.837Z</time></trkpt><trkpt lat="45.4637936" lon="10.4731753"><ele>159.75</ele><time>2026-03-28T08:56:22.836Z</time></trkpt><trkpt lat="45.4637825" lon="10.4733517"><ele>160.0</ele><time>2026-03-28T08:56:23.836Z</time></trkpt><trkpt lat="45.4637731" lon="10.4735225"><ele>160.0</ele><time>2026-03-28T08:56:24.837Z</time></trkpt><trkpt lat="45.463761" lon="10.4736951"><ele>160.0</ele><time>2026-03-28T08:56:25.836Z</time></trkpt><trkpt lat="45.4637506" lon="10.4738611"><ele>160.0</ele><time>2026-03-28T08:56:26.836Z</time></trkpt><trkpt lat="45.4637422" lon="10.4740262"><ele>160.0</ele><time>2026-03-28T08:56:27.837Z</time></trkpt><trkpt lat="45.4637321" lon="10.4741743"><ele>160.4</ele><time>2026-03-28T08:56:28.836Z</time></trkpt><trkpt lat="45.4637204" lon="10.4743029"><ele>160.8</ele><time>2026-03-28T08:56:29.837Z</time></trkpt><trkpt lat="45.4637127" lon="10.4744178"><ele>161.2</ele><time>2026-03-28T08:56:30.836Z</time></trkpt><trkpt lat="45.4636989" lon="10.4745143"><ele>161.6</ele><time>2026-03-28T08:56:31.837Z</time></trkpt><trkpt lat="45.4636358" lon="10.4746398"><ele>162.0</ele><time>2026-03-28T08:56:33.836Z</time></trkpt><trkpt lat="45.4635144" lon="10.4746235"><ele>162.0</ele><time>2026-03-28T08:56:35.837Z</time></trkpt><trkpt lat="45.4634426" lon="10.4745538"><ele>162.0</ele><time>2026-03-28T08:56:36.836Z</time></trkpt><trkpt lat="45.4633604" lon="10.4744678"><ele>162.0</ele><time>2026-03-28T08:56:37.836Z</time></trkpt><trkpt lat="45.4632723" lon="10.4743778"><ele>162.0</ele><time>2026-03-28T08:56:38.836Z</time></trkpt><trkpt lat="45.4631785" lon="10.4742893"><ele>162.0</ele><time>2026-03-28T08:56:39.836Z</time></trkpt><trkpt lat="45.4630811" lon="10.4741968"><ele>162.0</ele><time>2026-03-28T08:56:40.836Z</time></trkpt><trkpt lat="45.4629893" lon="10.4741082"><ele>162.0</ele><time>2026-03-28T08:56:41.837Z</time></trkpt><trkpt lat="45.4629116" lon="10.4740336"><ele>162.0</ele><time>2026-03-28T08:56:42.837Z</time></trkpt><trkpt lat="45.4628456" lon="10.4739661"><ele>162.0</ele><time>2026-03-28T08:56:43.836Z</time></trkpt><trkpt lat="45.4627959" lon="10.4739048"><ele>162.0</ele><time>2026-03-28T08:56:44.837Z</time></trkpt><trkpt lat="45.4627496" lon="10.4738392"><ele>162.0</ele><time>2026-03-28T08:56:45.837Z</time></trkpt><trkpt lat="45.4626632" lon="10.4737401"><ele>162.0</ele><time>2026-03-28T08:56:47.837Z</time></trkpt><trkpt lat="45.4625438" lon="10.4737656"><ele>162.0</ele><time>2026-03-28T08:56:49.836Z</time></trkpt><trkpt lat="45.4624699" lon="10.473829"><ele>162.0</ele><time>2026-03-28T08:56:50.837Z</time></trkpt><trkpt lat="45.4623935" lon="10.4739275"><ele>162.0</ele><time>2026-03-28T08:56:51.836Z</time></trkpt><trkpt lat="45.4623173" lon="10.4740416"><ele>162.0</ele><time>2026-03-28T08:56:52.836Z</time></trkpt><trkpt lat="45.4622354" lon="10.4741681"><ele>162.0</ele><time>2026-03-28T08:56:53.836Z</time></trkpt><trkpt lat="45.4621466" lon="10.4743096"><ele>162.0</ele><time>2026-03-28T08:56:54.836Z</time></trkpt><trkpt lat="45.4620504" lon="10.4744496"><ele>162.0</ele><time>2026-03-28T08:56:55.836Z</time></trkpt><trkpt lat="45.4619541" lon="10.4745933"><ele>162.0</ele><time>2026-03-28T08:56:56.836Z</time></trkpt><trkpt lat="45.46186" lon="10.4747363"><ele>161.0</ele><time>2026-03-28T08:56:57.836Z</time></trkpt><trkpt lat="45.4617648" lon="10.4748824"><ele>160.0</ele><time>2026-03-28T08:56:58.836Z</time></trkpt><trkpt lat="45.461671" lon="10.4750228"><ele>159.0</ele><time>2026-03-28T08:56:59.837Z</time></trkpt><trkpt lat="45.4615867" lon="10.4751504"><ele>158.0</ele><time>2026-03-28T08:57:00.836Z</time></trkpt><trkpt lat="45.4615117" lon="10.4752645"><ele>158.0</ele><time>2026-03-28T08:57:01.836Z</time></trkpt><trkpt lat="45.4614516" lon="10.4753419"><ele>158.0</ele><time>2026-03-28T08:57:02.836Z</time></trkpt><trkpt lat="45.4613771" lon="10.4754364"><ele>158.0</ele><time>2026-03-28T08:57:04.836Z</time></trkpt><trkpt lat="45.4612735" lon="10.4754147"><ele>158.0</ele><time>2026-03-28T08:57:06.836Z</time></trkpt><trkpt lat="45.4611995" lon="10.4753553"><ele>158.0</ele><time>2026-03-28T08:57:07.836Z</time></trkpt><trkpt lat="45.4611095" lon="10.4752788"><ele>157.75</ele><time>2026-03-28T08:57:08.836Z</time></trkpt><trkpt lat="45.4610075" lon="10.4751966"><ele>157.5</ele><time>2026-03-28T08:57:09.837Z</time></trkpt><trkpt lat="45.4608946" lon="10.4751077"><ele>157.25</ele><time>2026-03-28T08:57:10.836Z</time></trkpt><trkpt lat="45.4607768" lon="10.4750196"><ele>157.0</ele><time>2026-03-28T08:57:11.837Z</time></trkpt><trkpt lat="45.460669" lon="10.4749261"><ele>157.0</ele><time>2026-03-28T08:57:12.836Z</time></trkpt><trkpt lat="45.4605686" lon="10.4748413"><ele>157.0</ele><time>2026-03-28T08:57:13.836Z</time></trkpt><trkpt lat="45.4604772" lon="10.4747637"><ele>157.0</ele><time>2026-03-28T08:57:14.836Z</time></trkpt><trkpt lat="45.4604027" lon="10.4746991"><ele>157.0</ele><time>2026-03-28T08:57:15.836Z</time></trkpt><trkpt lat="45.4603369" lon="10.4746574"><ele>157.0</ele><time>2026-03-28T08:57:16.837Z</time></trkpt><trkpt lat="45.4602175" lon="10.4747192"><ele>156.6</ele><time>2026-03-28T08:57:18.836Z</time></trkpt><trkpt lat="45.4601617" lon="10.4748164"><ele>156.2</ele><time>2026-03-28T08:57:19.836Z</time></trkpt><trkpt lat="45.4601031" lon="10.4749394"><ele>155.8</ele><time>2026-03-28T08:57:20.837Z</time></trkpt><trkpt lat="45.4600454" lon="10.4750813"><ele>155.4</ele><time>2026-03-28T08:57:21.837Z</time></trkpt><trkpt lat="45.4599858" lon="10.4752331"><ele>155.0</ele><time>2026-03-28T08:57:22.837Z</time></trkpt><trkpt lat="45.4599234" lon="10.4753944"><ele>155.0</ele><time>2026-03-28T08:57:23.836Z</time></trkpt><trkpt lat="45.4598576" lon="10.4755651"><ele>155.0</ele><time>2026-03-28T08:57:24.836Z</time></trkpt><trkpt lat="45.4597917" lon="10.4757406"><ele>155.0</ele><time>2026-03-28T08:57:25.836Z</time></trkpt><trkpt lat="45.4597202" lon="10.475922"><ele>155.0</ele><time>2026-03-28T08:57:26.837Z</time></trkpt><trkpt lat="45.4596471" lon="10.4761109"><ele>154.66666666666666</ele><time>2026-03-28T08:57:27.836Z</time></trkpt><trkpt lat="45.4595689" lon="10.4763038"><ele>154.33333333333334</ele><time>2026-03-28T08:57:28.836Z</time></trkpt><trkpt lat="45.4594934" lon="10.4765016"><ele>154.0</ele><time>2026-03-28T08:57:29.837Z</time></trkpt><trkpt lat="45.4594175" lon="10.4766997"><ele>154.0</ele><time>2026-03-28T08:57:30.836Z</time></trkpt><trkpt lat="45.4593402" lon="10.4768947"><ele>154.0</ele><time>2026-03-28T08:57:31.837Z</time></trkpt><trkpt lat="45.4592597" lon="10.4770893"><ele>154.0</ele><time>2026-03-28T08:57:32.836Z</time></trkpt><trkpt lat="45.4591804" lon="10.4772838"><ele>154.0</ele><time>2026-03-28T08:57:33.836Z</time></trkpt><trkpt lat="45.4591051" lon="10.477479"><ele>154.0</ele><time>2026-03-28T08:57:34.836Z</time></trkpt><trkpt lat="45.4590325" lon="10.477674"><ele>154.0</ele><time>2026-03-28T08:57:35.837Z</time></trkpt><trkpt lat="45.4589615" lon="10.4778673"><ele>154.33333333333334</ele><time>2026-03-28T08:57:36.836Z</time></trkpt><trkpt lat="45.4588871" lon="10.4780608"><ele>154.66666666666666</ele><time>2026-03-28T08:57:37.837Z</time></trkpt><trkpt lat="45.458813" lon="10.4782599"><ele>155.0</ele><time>2026-03-28T08:57:38.836Z</time></trkpt><trkpt lat="45.4587411" lon="10.4784601"><ele>155.33333333333331</ele><time>2026-03-28T08:57:39.836Z</time></trkpt><trkpt lat="45.4586716" lon="10.4786729"><ele>155.66666666666666</ele><time>2026-03-28T08:57:40.836Z</time></trkpt><trkpt lat="45.4586114" lon="10.4788875"><ele>156.0</ele><time>2026-03-28T08:57:41.836Z</time></trkpt><trkpt lat="45.4585556" lon="10.4790994"><ele>156.66666666666666</ele><time>2026-03-28T08:57:42.836Z</time></trkpt><trkpt lat="45.4584966" lon="10.4793032"><ele>157.33333333333331</ele><time>2026-03-28T08:57:43.836Z</time></trkpt><trkpt lat="45.4584324" lon="10.4794975"><ele>158.0</ele><time>2026-03-28T08:57:44.837Z</time></trkpt><trkpt lat="45.4583592" lon="10.4796849"><ele>158.0</ele><time>2026-03-28T08:57:45.836Z</time></trkpt><trkpt lat="45.458273" lon="10.4798607"><ele>158.0</ele><time>2026-03-28T08:57:46.836Z</time></trkpt><trkpt lat="45.4581726" lon="10.4800283"><ele>158.0</ele><time>2026-03-28T08:57:47.836Z</time></trkpt><trkpt lat="45.4580631" lon="10.4801834"><ele>157.75</ele><time>2026-03-28T08:57:48.836Z</time></trkpt><trkpt lat="45.4579484" lon="10.4803316"><ele>157.5</ele><time>2026-03-28T08:57:49.836Z</time></trkpt><trkpt lat="45.457836" lon="10.480468"><ele>157.25</ele><time>2026-03-28T08:57:50.836Z</time></trkpt><trkpt lat="45.4577255" lon="10.4806062"><ele>157.0</ele><time>2026-03-28T08:57:51.836Z</time></trkpt><trkpt lat="45.4576159" lon="10.4807379"><ele>157.0</ele><time>2026-03-28T08:57:52.836Z</time></trkpt><trkpt lat="45.4575147" lon="10.4808697"><ele>157.0</ele><time>2026-03-28T08:57:53.837Z</time></trkpt><trkpt lat="45.4574222" lon="10.4809948"><ele>157.0</ele><time>2026-03-28T08:57:54.836Z</time></trkpt><trkpt lat="45.4573376" lon="10.481116"><ele>157.0</ele><time>2026-03-28T08:57:55.836Z</time></trkpt><trkpt lat="45.4572705" lon="10.4812666"><ele>157.5</ele><time>2026-03-28T08:57:56.836Z</time></trkpt><trkpt lat="45.4572212" lon="10.4814429"><ele>158.0</ele><time>2026-03-28T08:57:57.836Z</time></trkpt><trkpt lat="45.4571913" lon="10.4816352"><ele>158.5</ele><time>2026-03-28T08:57:58.837Z</time></trkpt><trkpt lat="45.4571709" lon="10.4818312"><ele>159.0</ele><time>2026-03-28T08:57:59.836Z</time></trkpt><trkpt lat="45.457155" lon="10.4820316"><ele>159.5</ele><time>2026-03-28T08:58:00.836Z</time></trkpt><trkpt lat="45.457139" lon="10.482227"><ele>160.0</ele><time>2026-03-28T08:58:01.836Z</time></trkpt><trkpt lat="45.4571265" lon="10.4824191"><ele>160.5</ele><time>2026-03-28T08:58:02.837Z</time></trkpt><trkpt lat="45.457118" lon="10.4826097"><ele>161.0</ele><time>2026-03-28T08:58:03.837Z</time></trkpt><trkpt lat="45.4571096" lon="10.4827938"><ele>160.20000000000002</ele><time>2026-03-28T08:58:04.837Z</time></trkpt><trkpt lat="45.4571016" lon="10.4829574"><ele>159.4</ele><time>2026-03-28T08:58:05.836Z</time></trkpt><trkpt lat="45.4570981" lon="10.4831084"><ele>158.6</ele><time>2026-03-28T08:58:06.836Z</time></trkpt><trkpt lat="45.4571003" lon="10.4832559"><ele>157.8</ele><time>2026-03-28T08:58:07.836Z</time></trkpt><trkpt lat="45.4570953" lon="10.4833992"><ele>157.0</ele><time>2026-03-28T08:58:08.836Z</time></trkpt><trkpt lat="45.4570951" lon="10.4835441"><ele>157.0</ele><time>2026-03-28T08:58:09.836Z</time></trkpt><trkpt lat="45.4570955" lon="10.4836793"><ele>157.0</ele><time>2026-03-28T08:58:10.836Z</time></trkpt><trkpt lat="45.4570997" lon="10.4838094"><ele>157.0</ele><time>2026-03-28T08:58:11.837Z</time></trkpt><trkpt lat="45.4571051" lon="10.4839392"><ele>157.0</ele><time>2026-03-28T08:58:12.836Z</time></trkpt><trkpt lat="45.4571081" lon="10.4840758"><ele>157.0</ele><time>2026-03-28T08:58:13.836Z</time></trkpt><trkpt lat="45.457121" lon="10.4842123"><ele>159.0</ele><time>2026-03-28T08:58:14.837Z</time></trkpt><trkpt lat="45.4571414" lon="10.4843493"><ele>161.0</ele><time>2026-03-28T08:58:15.836Z</time></trkpt><trkpt lat="45.4571738" lon="10.4844823"><ele>163.0</ele><time>2026-03-28T08:58:16.836Z</time></trkpt><trkpt lat="45.4572174" lon="10.4846084"><ele>165.0</ele><time>2026-03-28T08:58:17.837Z</time></trkpt><trkpt lat="45.4572645" lon="10.4847338"><ele>167.0</ele><time>2026-03-28T08:58:18.836Z</time></trkpt><trkpt lat="45.4573018" lon="10.4848636"><ele>167.0</ele><time>2026-03-28T08:58:19.836Z</time></trkpt><trkpt lat="45.4573357" lon="10.4850002"><ele>167.0</ele><time>2026-03-28T08:58:20.837Z</time></trkpt><trkpt lat="45.457354" lon="10.4851512"><ele>167.0</ele><time>2026-03-28T08:58:21.836Z</time></trkpt><trkpt lat="45.4573615" lon="10.4853004"><ele>167.0</ele><time>2026-03-28T08:58:22.836Z</time></trkpt><trkpt lat="45.4573666" lon="10.4854576"><ele>167.0</ele><time>2026-03-28T08:58:23.836Z</time></trkpt><trkpt lat="45.4573701" lon="10.4856124"><ele>167.0</ele><time>2026-03-28T08:58:24.837Z</time></trkpt><trkpt lat="45.4573813" lon="10.4857699"><ele>167.0</ele><time>2026-03-28T08:58:25.837Z</time></trkpt><trkpt lat="45.4574121" lon="10.4859263"><ele>167.0</ele><time>2026-03-28T08:58:26.836Z</time></trkpt><trkpt lat="45.4574898" lon="10.4860701"><ele>167.0</ele><time>2026-03-28T08:58:27.837Z</time></trkpt><trkpt lat="45.4575506" lon="10.4862111"><ele>166.16666666666666</ele><time>2026-03-28T08:58:28.837Z</time></trkpt><trkpt lat="45.4576036" lon="10.4863565"><ele>165.33333333333331</ele><time>2026-03-28T08:58:29.836Z</time></trkpt><trkpt lat="45.4576502" lon="10.4864448"><ele>164.5</ele><time>2026-03-28T08:58:30.836Z</time></trkpt><trkpt lat="45.4576866" lon="10.4865504"><ele>163.66666666666666</ele><time>2026-03-28T08:58:31.836Z</time></trkpt><trkpt lat="45.4577115" lon="10.4866598"><ele>162.83333333333334</ele><time>2026-03-28T08:58:32.836Z</time></trkpt><trkpt lat="45.4577228" lon="10.4867781"><ele>162.0</ele><time>2026-03-28T08:58:33.836Z</time></trkpt><trkpt lat="45.4577149" lon="10.4869024"><ele>162.0</ele><time>2026-03-28T08:58:34.837Z</time></trkpt><trkpt lat="45.4576992" lon="10.4870229"><ele>162.0</ele><time>2026-03-28T08:58:35.836Z</time></trkpt><trkpt lat="45.457668" lon="10.4871498"><ele>162.0</ele><time>2026-03-28T08:58:36.837Z</time></trkpt><trkpt lat="45.4576338" lon="10.4873026"><ele>162.0</ele><time>2026-03-28T08:58:37.836Z</time></trkpt><trkpt lat="45.4576201" lon="10.487462"><ele>162.0</ele><time>2026-03-28T08:58:38.836Z</time></trkpt><trkpt lat="45.4576238" lon="10.4876225"><ele>161.0</ele><time>2026-03-28T08:58:39.837Z</time></trkpt><trkpt lat="45.4576441" lon="10.4877737"><ele>160.0</ele><time>2026-03-28T08:58:40.836Z</time></trkpt><trkpt lat="45.4576781" lon="10.4879285"><ele>159.0</ele><time>2026-03-28T08:58:41.836Z</time></trkpt><trkpt lat="45.4577167" lon="10.4880683"><ele>158.0</ele><time>2026-03-28T08:58:42.836Z</time></trkpt><trkpt lat="45.4577552" lon="10.4881759"><ele>157.0</ele><time>2026-03-28T08:58:43.836Z</time></trkpt><trkpt lat="45.4577891" lon="10.4882758"><ele>157.0</ele><time>2026-03-28T08:58:44.836Z</time></trkpt><trkpt lat="45.4578253" lon="10.4883753"><ele>157.0</ele><time>2026-03-28T08:58:45.836Z</time></trkpt><trkpt lat="45.4578528" lon="10.4884659"><ele>157.0</ele><time>2026-03-28T08:58:46.837Z</time></trkpt><trkpt lat="45.4578975" lon="10.4885978"><ele>157.0</ele><time>2026-03-28T08:58:48.836Z</time></trkpt><trkpt lat="45.4579314" lon="10.488694"><ele>157.0</ele><time>2026-03-28T08:58:50.837Z</time></trkpt><trkpt lat="45.4579654" lon="10.4887967"><ele>157.0</ele><time>2026-03-28T08:58:52.836Z</time></trkpt><trkpt lat="45.4580168" lon="10.4889628"><ele>157.66666666666669</ele><time>2026-03-28T08:58:54.836Z</time></trkpt><trkpt lat="45.4580368" lon="10.4890527"><ele>158.33333333333334</ele><time>2026-03-28T08:58:55.837Z</time></trkpt><trkpt lat="45.4580605" lon="10.4891661"><ele>159.0</ele><time>2026-03-28T08:58:57.837Z</time></trkpt><trkpt lat="45.4580672" lon="10.489257"><ele>159.66666666666666</ele><time>2026-03-28T08:59:01.836Z</time></trkpt><trkpt lat="45.4580579" lon="10.4893637"><ele>160.33333333333331</ele><time>2026-03-28T08:59:03.836Z</time></trkpt><trkpt lat="45.4579706" lon="10.4894665"><ele>161.0</ele><time>2026-03-28T08:59:05.836Z</time></trkpt><trkpt lat="45.4578986" lon="10.4895139"><ele>161.0</ele><time>2026-03-28T08:59:06.836Z</time></trkpt><trkpt lat="45.4578271" lon="10.4895654"><ele>161.0</ele><time>2026-03-28T08:59:07.836Z</time></trkpt><trkpt lat="45.457752" lon="10.4896155"><ele>161.0</ele><time>2026-03-28T08:59:08.836Z</time></trkpt><trkpt lat="45.457676" lon="10.4896639"><ele>161.0</ele><time>2026-03-28T08:59:09.836Z</time></trkpt><trkpt lat="45.457607" lon="10.4896997"><ele>161.0</ele><time>2026-03-28T08:59:10.836Z</time></trkpt><trkpt lat="45.4575394" lon="10.4897275"><ele>161.0</ele><time>2026-03-28T08:59:11.836Z</time></trkpt><trkpt lat="45.4574752" lon="10.4897519"><ele>161.0</ele><time>2026-03-28T08:59:12.836Z</time></trkpt><trkpt lat="45.4574094" lon="10.4897614"><ele>161.0</ele><time>2026-03-28T08:59:13.837Z</time></trkpt><trkpt lat="45.4573425" lon="10.4897279"><ele>161.0</ele><time>2026-03-28T08:59:14.837Z</time></trkpt><trkpt lat="45.4572866" lon="10.4896564"><ele>161.0</ele><time>2026-03-28T08:59:15.837Z</time></trkpt><trkpt lat="45.4572265" lon="10.489572"><ele>161.0</ele><time>2026-03-28T08:59:16.837Z</time></trkpt><trkpt lat="45.4571622" lon="10.4894731"><ele>161.0</ele><time>2026-03-28T08:59:17.836Z</time></trkpt><trkpt lat="45.4570907" lon="10.4893682"><ele>160.8</ele><time>2026-03-28T08:59:18.837Z</time></trkpt><trkpt lat="45.4570194" lon="10.489258"><ele>160.60000000000002</ele><time>2026-03-28T08:59:19.837Z</time></trkpt><trkpt lat="45.4569487" lon="10.4891537"><ele>160.4</ele><time>2026-03-28T08:59:20.837Z</time></trkpt><trkpt lat="45.4568934" lon="10.4890556"><ele>160.2</ele><time>2026-03-28T08:59:21.836Z</time></trkpt><trkpt lat="45.4568491" lon="10.4889708"><ele>160.0</ele><time>2026-03-28T08:59:22.837Z</time></trkpt><trkpt lat="45.456802" lon="10.4888429"><ele>159.83333333333334</ele><time>2026-03-28T08:59:24.836Z</time></trkpt><trkpt lat="45.4567852" lon="10.4887254"><ele>159.66666666666669</ele><time>2026-03-28T08:59:27.836Z</time></trkpt><trkpt lat="45.4567785" lon="10.4886043"><ele>159.5</ele><time>2026-03-28T08:59:29.836Z</time></trkpt><trkpt lat="45.4567714" lon="10.4884964"><ele>159.33333333333334</ele><time>2026-03-28T08:59:30.836Z</time></trkpt><trkpt lat="45.4567722" lon="10.4883678"><ele>159.16666666666666</ele><time>2026-03-28T08:59:31.836Z</time></trkpt><trkpt lat="45.4567766" lon="10.488223"><ele>159.0</ele><time>2026-03-28T08:59:32.836Z</time></trkpt><trkpt lat="45.4567894" lon="10.4880619"><ele>158.0</ele><time>2026-03-28T08:59:33.837Z</time></trkpt><trkpt lat="45.456808" lon="10.487889"><ele>157.0</ele><time>2026-03-28T08:59:34.836Z</time></trkpt><trkpt lat="45.4568272" lon="10.4877063"><ele>156.0</ele><time>2026-03-28T08:59:35.836Z</time></trkpt><trkpt lat="45.4568396" lon="10.4875205"><ele>155.0</ele><time>2026-03-28T08:59:36.836Z</time></trkpt><trkpt lat="45.4568499" lon="10.4873312"><ele>155.0</ele><time>2026-03-28T08:59:37.836Z</time></trkpt><trkpt lat="45.456862" lon="10.4871373"><ele>155.0</ele><time>2026-03-28T08:59:38.836Z</time></trkpt><trkpt lat="45.4568723" lon="10.4869306"><ele>155.0</ele><time>2026-03-28T08:59:39.836Z</time></trkpt><trkpt lat="45.4568728" lon="10.4867151"><ele>155.0</ele><time>2026-03-28T08:59:40.837Z</time></trkpt><trkpt lat="45.4568805" lon="10.486489"><ele>155.0</ele><time>2026-03-28T08:59:41.837Z</time></trkpt><trkpt lat="45.4568867" lon="10.486256"><ele>155.0</ele><time>2026-03-28T08:59:42.836Z</time></trkpt><trkpt lat="45.4568911" lon="10.4860248"><ele>155.0</ele><time>2026-03-28T08:59:43.836Z</time></trkpt><trkpt lat="45.456886" lon="10.4857891"><ele>155.0</ele><time>2026-03-28T08:59:44.836Z</time></trkpt><trkpt lat="45.4568755" lon="10.4855505"><ele>155.0</ele><time>2026-03-28T08:59:45.836Z</time></trkpt><trkpt lat="45.4568594" lon="10.4853179"><ele>155.0</ele><time>2026-03-28T08:59:46.836Z</time></trkpt><trkpt lat="45.4568397" lon="10.4850887"><ele>155.0</ele><time>2026-03-28T08:59:47.836Z</time></trkpt><trkpt lat="45.4568194" lon="10.4848614"><ele>155.0</ele><time>2026-03-28T08:59:48.836Z</time></trkpt><trkpt lat="45.4568013" lon="10.4846396"><ele>155.0</ele><time>2026-03-28T08:59:49.836Z</time></trkpt><trkpt lat="45.4567813" lon="10.4844205"><ele>155.33333333333331</ele><time>2026-03-28T08:59:50.836Z</time></trkpt><trkpt lat="45.4567482" lon="10.4842074"><ele>155.66666666666666</ele><time>2026-03-28T08:59:51.837Z</time></trkpt><trkpt lat="45.4566932" lon="10.4839997"><ele>156.0</ele><time>2026-03-28T08:59:52.837Z</time></trkpt><trkpt lat="45.4566278" lon="10.4837962"><ele>156.33333333333334</ele><time>2026-03-28T08:59:53.836Z</time></trkpt><trkpt lat="45.4565514" lon="10.483603"><ele>156.66666666666669</ele><time>2026-03-28T08:59:54.836Z</time></trkpt><trkpt lat="45.45646" lon="10.4834184"><ele>157.0</ele><time>2026-03-28T08:59:55.837Z</time></trkpt><trkpt lat="45.4563645" lon="10.4832483"><ele>156.25</ele><time>2026-03-28T08:59:56.836Z</time></trkpt><trkpt lat="45.4562687" lon="10.4830967"><ele>155.5</ele><time>2026-03-28T08:59:57.837Z</time></trkpt><trkpt lat="45.4561777" lon="10.4829616"><ele>154.75</ele><time>2026-03-28T08:59:58.837Z</time></trkpt><trkpt lat="45.4560907" lon="10.482828"><ele>154.0</ele><time>2026-03-28T08:59:59.837Z</time></trkpt><trkpt lat="45.4560066" lon="10.482691"><ele>153.75</ele><time>2026-03-28T09:00:00.836Z</time></trkpt><trkpt lat="45.4559165" lon="10.4825459"><ele>153.5</ele><time>2026-03-28T09:00:01.836Z</time></trkpt><trkpt lat="45.4558213" lon="10.4823937"><ele>153.25</ele><time>2026-03-28T09:00:02.836Z</time></trkpt><trkpt lat="45.4557174" lon="10.482236"><ele>153.0</ele><time>2026-03-28T09:00:03.836Z</time></trkpt><trkpt lat="45.4556075" lon="10.4820796"><ele>153.66666666666666</ele><time>2026-03-28T09:00:04.837Z</time></trkpt><trkpt lat="45.4554939" lon="10.4819199"><ele>154.33333333333331</ele><time>2026-03-28T09:00:05.836Z</time></trkpt><trkpt lat="45.4553784" lon="10.4817598"><ele>155.0</ele><time>2026-03-28T09:00:06.837Z</time></trkpt><trkpt lat="45.4552656" lon="10.4815989"><ele>154.0</ele><time>2026-03-28T09:00:07.836Z</time></trkpt><trkpt lat="45.4551531" lon="10.4814384"><ele>153.0</ele><time>2026-03-28T09:00:08.836Z</time></trkpt><trkpt lat="45.4550306" lon="10.4812879"><ele>152.0</ele><time>2026-03-28T09:00:09.836Z</time></trkpt><trkpt lat="45.4549168" lon="10.4811364"><ele>152.0</ele><time>2026-03-28T09:00:10.836Z</time></trkpt><trkpt lat="45.4548034" lon="10.4809841"><ele>152.0</ele><time>2026-03-28T09:00:11.836Z</time></trkpt><trkpt lat="45.4546952" lon="10.4808366"><ele>152.0</ele><time>2026-03-28T09:00:12.836Z</time></trkpt><trkpt lat="45.4545915" lon="10.4806777"><ele>151.33333333333331</ele><time>2026-03-28T09:00:13.836Z</time></trkpt><trkpt lat="45.4544854" lon="10.4805154"><ele>150.66666666666666</ele><time>2026-03-28T09:00:14.836Z</time></trkpt><trkpt lat="45.4543875" lon="10.4803408"><ele>150.0</ele><time>2026-03-28T09:00:15.836Z</time></trkpt><trkpt lat="45.4542913" lon="10.4801542"><ele>150.0</ele><time>2026-03-28T09:00:16.836Z</time></trkpt><trkpt lat="45.4541948" lon="10.4799625"><ele>150.0</ele><time>2026-03-28T09:00:17.836Z</time></trkpt><trkpt lat="45.4540971" lon="10.479766"><ele>150.0</ele><time>2026-03-28T09:00:18.836Z</time></trkpt><trkpt lat="45.4539955" lon="10.4795729"><ele>150.66666666666666</ele><time>2026-03-28T09:00:19.836Z</time></trkpt><trkpt lat="45.4538931" lon="10.4793787"><ele>151.33333333333331</ele><time>2026-03-28T09:00:20.836Z</time></trkpt><trkpt lat="45.4537887" lon="10.4791827"><ele>152.0</ele><time>2026-03-28T09:00:21.836Z</time></trkpt><trkpt lat="45.4536862" lon="10.4789858"><ele>151.0</ele><time>2026-03-28T09:00:22.836Z</time></trkpt><trkpt lat="45.4535817" lon="10.4787846"><ele>150.0</ele><time>2026-03-28T09:00:23.836Z</time></trkpt><trkpt lat="45.4534758" lon="10.4785866"><ele>149.0</ele><time>2026-03-28T09:00:24.836Z</time></trkpt><trkpt lat="45.4533702" lon="10.4783792"><ele>149.0</ele><time>2026-03-28T09:00:25.836Z</time></trkpt><trkpt lat="45.4532638" lon="10.4781776"><ele>149.0</ele><time>2026-03-28T09:00:26.836Z</time></trkpt><trkpt lat="45.4531578" lon="10.4779807"><ele>149.0</ele><time>2026-03-28T09:00:27.837Z</time></trkpt><trkpt lat="45.4530519" lon="10.4777831"><ele>148.33333333333331</ele><time>2026-03-28T09:00:28.837Z</time></trkpt><trkpt lat="45.4529427" lon="10.4775856"><ele>147.66666666666666</ele><time>2026-03-28T09:00:29.836Z</time></trkpt><trkpt lat="45.4528371" lon="10.477389"><ele>147.0</ele><time>2026-03-28T09:00:30.836Z</time></trkpt><trkpt lat="45.4527292" lon="10.4771885"><ele>147.66666666666666</ele><time>2026-03-28T09:00:31.836Z</time></trkpt><trkpt lat="45.4526144" lon="10.4769929"><ele>148.33333333333331</ele><time>2026-03-28T09:00:32.836Z</time></trkpt><trkpt lat="45.4524998" lon="10.4768004"><ele>149.0</ele><time>2026-03-28T09:00:33.837Z</time></trkpt><trkpt lat="45.4523844" lon="10.4766132"><ele>149.0</ele><time>2026-03-28T09:00:34.836Z</time></trkpt><trkpt lat="45.4522641" lon="10.4764288"><ele>149.0</ele><time>2026-03-28T09:00:35.837Z</time></trkpt><trkpt lat="45.4521412" lon="10.4762476"><ele>149.0</ele><time>2026-03-28T09:00:36.837Z</time></trkpt><trkpt lat="45.4520172" lon="10.4760663"><ele>146.66666666666666</ele><time>2026-03-28T09:00:37.836Z</time></trkpt><trkpt lat="45.451891" lon="10.4758954"><ele>144.33333333333334</ele><time>2026-03-28T09:00:38.837Z</time></trkpt><trkpt lat="45.4517614" lon="10.475725"><ele>142.0</ele><time>2026-03-28T09:00:39.836Z</time></trkpt><trkpt lat="45.4516314" lon="10.4755611"><ele>142.66666666666669</ele><time>2026-03-28T09:00:40.836Z</time></trkpt><trkpt lat="45.4515014" lon="10.475394"><ele>143.33333333333334</ele><time>2026-03-28T09:00:41.836Z</time></trkpt><trkpt lat="45.4513697" lon="10.4752308"><ele>144.0</ele><time>2026-03-28T09:00:42.837Z</time></trkpt><trkpt lat="45.4512414" lon="10.4750668"><ele>143.0</ele><time>2026-03-28T09:00:43.837Z</time></trkpt><trkpt lat="45.4511116" lon="10.4749009"><ele>142.0</ele><time>2026-03-28T09:00:44.836Z</time></trkpt><trkpt lat="45.4509869" lon="10.4747286"><ele>141.0</ele><time>2026-03-28T09:00:45.836Z</time></trkpt><trkpt lat="45.4508642" lon="10.4745504"><ele>141.0</ele><time>2026-03-28T09:00:46.837Z</time></trkpt><trkpt lat="45.4507461" lon="10.4743645"><ele>141.0</ele><time>2026-03-28T09:00:47.836Z</time></trkpt><trkpt lat="45.4506362" lon="10.4741715"><ele>141.0</ele><time>2026-03-28T09:00:48.836Z</time></trkpt><trkpt lat="45.4505285" lon="10.4739664"><ele>140.0</ele><time>2026-03-28T09:00:49.836Z</time></trkpt><trkpt lat="45.4504276" lon="10.473752"><ele>139.0</ele><time>2026-03-28T09:00:50.836Z</time></trkpt><trkpt lat="45.4503327" lon="10.4735253"><ele>138.0</ele><time>2026-03-28T09:00:51.836Z</time></trkpt><trkpt lat="45.4502436" lon="10.4732972"><ele>138.0</ele><time>2026-03-28T09:00:52.836Z</time></trkpt><trkpt lat="45.45016" lon="10.4730658"><ele>138.0</ele><time>2026-03-28T09:00:53.837Z</time></trkpt><trkpt lat="45.4500743" lon="10.4728337"><ele>138.0</ele><time>2026-03-28T09:00:54.837Z</time></trkpt><trkpt lat="45.4499915" lon="10.4725999"><ele>138.66666666666666</ele><time>2026-03-28T09:00:55.837Z</time></trkpt><trkpt lat="45.4499111" lon="10.4723643"><ele>139.33333333333331</ele><time>2026-03-28T09:00:56.837Z</time></trkpt><trkpt lat="45.4498257" lon="10.4721303"><ele>140.0</ele><time>2026-03-28T09:00:57.836Z</time></trkpt><trkpt lat="45.4497409" lon="10.4718961"><ele>139.66666666666666</ele><time>2026-03-28T09:00:58.836Z</time></trkpt><trkpt lat="45.4496572" lon="10.4716652"><ele>139.33333333333334</ele><time>2026-03-28T09:00:59.837Z</time></trkpt><trkpt lat="45.4495705" lon="10.471435"><ele>139.0</ele><time>2026-03-28T09:01:00.836Z</time></trkpt><trkpt lat="45.4494864" lon="10.4712003"><ele>139.0</ele><time>2026-03-28T09:01:01.836Z</time></trkpt><trkpt lat="45.4494033" lon="10.4709646"><ele>139.0</ele><time>2026-03-28T09:01:02.836Z</time></trkpt><trkpt lat="45.4493201" lon="10.4707341"><ele>139.0</ele><time>2026-03-28T09:01:03.837Z</time></trkpt><trkpt lat="45.4492375" lon="10.4705038"><ele>139.0</ele><time>2026-03-28T09:01:04.836Z</time></trkpt><trkpt lat="45.4491552" lon="10.4702804"><ele>139.0</ele><time>2026-03-28T09:01:05.837Z</time></trkpt><trkpt lat="45.4490777" lon="10.4700753"><ele>139.0</ele><time>2026-03-28T09:01:06.836Z</time></trkpt><trkpt lat="45.4490076" lon="10.4698922"><ele>139.0</ele><time>2026-03-28T09:01:07.836Z</time></trkpt><trkpt lat="45.4489415" lon="10.4697155"><ele>139.0</ele><time>2026-03-28T09:01:08.837Z</time></trkpt><trkpt lat="45.4488822" lon="10.4695555"><ele>139.0</ele><time>2026-03-28T09:01:09.836Z</time></trkpt><trkpt lat="45.4488278" lon="10.4694088"><ele>139.0</ele><time>2026-03-28T09:01:10.836Z</time></trkpt><trkpt lat="45.4487706" lon="10.4692777"><ele>138.8</ele><time>2026-03-28T09:01:11.837Z</time></trkpt><trkpt lat="45.4487019" lon="10.4691723"><ele>138.60000000000002</ele><time>2026-03-28T09:01:12.836Z</time></trkpt><trkpt lat="45.4486225" lon="10.4690969"><ele>138.4</ele><time>2026-03-28T09:01:13.837Z</time></trkpt><trkpt lat="45.4485397" lon="10.4690584"><ele>138.20000000000002</ele><time>2026-03-28T09:01:14.836Z</time></trkpt><trkpt lat="45.4484541" lon="10.4690343"><ele>138.0</ele><time>2026-03-28T09:01:15.836Z</time></trkpt><trkpt lat="45.4483717" lon="10.4690055"><ele>138.0</ele><time>2026-03-28T09:01:16.836Z</time></trkpt><trkpt lat="45.4482821" lon="10.4689733"><ele>138.0</ele><time>2026-03-28T09:01:17.837Z</time></trkpt><trkpt lat="45.4481897" lon="10.4689413"><ele>138.0</ele><time>2026-03-28T09:01:18.836Z</time></trkpt><trkpt lat="45.4480938" lon="10.4689139"><ele>138.0</ele><time>2026-03-28T09:01:19.836Z</time></trkpt><trkpt lat="45.4479968" lon="10.4688868"><ele>138.0</ele><time>2026-03-28T09:01:20.837Z</time></trkpt><trkpt lat="45.4478954" lon="10.4688567"><ele>137.4</ele><time>2026-03-28T09:01:21.836Z</time></trkpt><trkpt lat="45.4477941" lon="10.4688235"><ele>136.8</ele><time>2026-03-28T09:01:22.836Z</time></trkpt><trkpt lat="45.4476917" lon="10.4687839"><ele>136.2</ele><time>2026-03-28T09:01:23.837Z</time></trkpt><trkpt lat="45.4475923" lon="10.4687399"><ele>135.6</ele><time>2026-03-28T09:01:24.836Z</time></trkpt><trkpt lat="45.4474914" lon="10.4686892"><ele>135.0</ele><time>2026-03-28T09:01:25.836Z</time></trkpt><trkpt lat="45.4473916" lon="10.4686377"><ele>134.8</ele><time>2026-03-28T09:01:26.836Z</time></trkpt><trkpt lat="45.4472929" lon="10.4685757"><ele>134.6</ele><time>2026-03-28T09:01:27.837Z</time></trkpt><trkpt lat="45.4471931" lon="10.4685138"><ele>134.4</ele><time>2026-03-28T09:01:28.836Z</time></trkpt><trkpt lat="45.4470903" lon="10.4684587"><ele>134.2</ele><time>2026-03-28T09:01:29.836Z</time></trkpt><trkpt lat="45.4469854" lon="10.4684187"><ele>134.0</ele><time>2026-03-28T09:01:30.836Z</time></trkpt><trkpt lat="45.4468721" lon="10.4683925"><ele>133.75</ele><time>2026-03-28T09:01:31.836Z</time></trkpt><trkpt lat="45.446754" lon="10.468381"><ele>133.5</ele><time>2026-03-28T09:01:32.837Z</time></trkpt><trkpt lat="45.4466309" lon="10.4683698"><ele>133.25</ele><time>2026-03-28T09:01:33.836Z</time></trkpt><trkpt lat="45.446509" lon="10.4683546"><ele>133.0</ele><time>2026-03-28T09:01:34.836Z</time></trkpt><trkpt lat="45.4463883" lon="10.4683445"><ele>133.0</ele><time>2026-03-28T09:01:35.836Z</time></trkpt><trkpt lat="45.446264" lon="10.4683299"><ele>133.0</ele><time>2026-03-28T09:01:36.836Z</time></trkpt><trkpt lat="45.4461338" lon="10.4683172"><ele>133.0</ele><time>2026-03-28T09:01:37.837Z</time></trkpt><trkpt lat="45.4460001" lon="10.468299"><ele>133.0</ele><time>2026-03-28T09:01:38.837Z</time></trkpt><trkpt lat="45.4458652" lon="10.4682723"><ele>133.0</ele><time>2026-03-28T09:01:39.836Z</time></trkpt><trkpt lat="45.4457339" lon="10.4682453"><ele>133.0</ele><time>2026-03-28T09:01:40.837Z</time></trkpt><trkpt lat="45.4456" lon="10.468222"><ele>133.0</ele><time>2026-03-28T09:01:41.836Z</time></trkpt><trkpt lat="45.4454673" lon="10.4681951"><ele>133.0</ele><time>2026-03-28T09:01:42.837Z</time></trkpt><trkpt lat="45.4453301" lon="10.4681743"><ele>132.5</ele><time>2026-03-28T09:01:43.836Z</time></trkpt><trkpt lat="45.4451895" lon="10.4681658"><ele>132.0</ele><time>2026-03-28T09:01:44.837Z</time></trkpt><trkpt lat="45.4450521" lon="10.4681661"><ele>131.5</ele><time>2026-03-28T09:01:45.837Z</time></trkpt><trkpt lat="45.4449104" lon="10.4681731"><ele>131.0</ele><time>2026-03-28T09:01:46.836Z</time></trkpt><trkpt lat="45.4447704" lon="10.4681833"><ele>131.0</ele><time>2026-03-28T09:01:47.836Z</time></trkpt><trkpt lat="45.4446326" lon="10.4681931"><ele>131.0</ele><time>2026-03-28T09:01:48.836Z</time></trkpt><trkpt lat="45.4444932" lon="10.4681892"><ele>131.0</ele><time>2026-03-28T09:01:49.836Z</time></trkpt><trkpt lat="45.4443535" lon="10.4681796"><ele>131.0</ele><time>2026-03-28T09:01:50.836Z</time></trkpt><trkpt lat="45.4442165" lon="10.4681731"><ele>131.25</ele><time>2026-03-28T09:01:51.837Z</time></trkpt><trkpt lat="45.4440812" lon="10.468175"><ele>131.5</ele><time>2026-03-28T09:01:52.836Z</time></trkpt><trkpt lat="45.4439504" lon="10.4681898"><ele>131.75</ele><time>2026-03-28T09:01:53.836Z</time></trkpt><trkpt lat="45.4438302" lon="10.4682149"><ele>132.0</ele><time>2026-03-28T09:01:54.837Z</time></trkpt><trkpt lat="45.4437275" lon="10.4682421"><ele>132.0</ele><time>2026-03-28T09:01:55.837Z</time></trkpt><trkpt lat="45.4436358" lon="10.4682682"><ele>132.0</ele><time>2026-03-28T09:01:56.836Z</time></trkpt><trkpt lat="45.443551" lon="10.4682906"><ele>132.0</ele><time>2026-03-28T09:01:57.836Z</time></trkpt><trkpt lat="45.4434622" lon="10.4683151"><ele>132.0</ele><time>2026-03-28T09:01:58.836Z</time></trkpt><trkpt lat="45.4433716" lon="10.4683378"><ele>132.0</ele><time>2026-03-28T09:01:59.836Z</time></trkpt><trkpt lat="45.4432803" lon="10.4683484"><ele>132.0</ele><time>2026-03-28T09:02:00.837Z</time></trkpt><trkpt lat="45.4431898" lon="10.4683465"><ele>132.0</ele><time>2026-03-28T09:02:01.836Z</time></trkpt><trkpt lat="45.4430996" lon="10.4683403"><ele>132.0</ele><time>2026-03-28T09:02:02.836Z</time></trkpt><trkpt lat="45.4430053" lon="10.468328"><ele>132.0</ele><time>2026-03-28T09:02:03.837Z</time></trkpt><trkpt lat="45.4429092" lon="10.4683046"><ele>132.0</ele><time>2026-03-28T09:02:04.836Z</time></trkpt><trkpt lat="45.4428132" lon="10.468285"><ele>131.79999999999998</ele><time>2026-03-28T09:02:05.836Z</time></trkpt><trkpt lat="45.4427182" lon="10.4682657"><ele>131.6</ele><time>2026-03-28T09:02:06.836Z</time></trkpt><trkpt lat="45.4426218" lon="10.4682515"><ele>131.39999999999998</ele><time>2026-03-28T09:02:07.836Z</time></trkpt><trkpt lat="45.4425263" lon="10.4682337"><ele>131.2</ele><time>2026-03-28T09:02:08.836Z</time></trkpt><trkpt lat="45.4424294" lon="10.4682207"><ele>131.0</ele><time>2026-03-28T09:02:09.836Z</time></trkpt><trkpt lat="45.4423308" lon="10.4682126"><ele>131.0</ele><time>2026-03-28T09:02:10.836Z</time></trkpt><trkpt lat="45.4422312" lon="10.4682058"><ele>131.0</ele><time>2026-03-28T09:02:11.836Z</time></trkpt><trkpt lat="45.4421336" lon="10.4681949"><ele>131.0</ele><time>2026-03-28T09:02:12.836Z</time></trkpt><trkpt lat="45.442037" lon="10.4681789"><ele>131.0</ele><time>2026-03-28T09:02:13.837Z</time></trkpt><trkpt lat="45.4419402" lon="10.4681534"><ele>131.0</ele><time>2026-03-28T09:02:14.837Z</time></trkpt><trkpt lat="45.4418507" lon="10.4681158"><ele>130.8</ele><time>2026-03-28T09:02:15.836Z</time></trkpt><trkpt lat="45.4417631" lon="10.4680644"><ele>130.6</ele><time>2026-03-28T09:02:16.837Z</time></trkpt><trkpt lat="45.4416627" lon="10.4680027"><ele>130.4</ele><time>2026-03-28T09:02:17.836Z</time></trkpt><trkpt lat="45.441551" lon="10.4679304"><ele>130.2</ele><time>2026-03-28T09:02:18.836Z</time></trkpt><trkpt lat="45.4414451" lon="10.4678591"><ele>130.0</ele><time>2026-03-28T09:02:19.836Z</time></trkpt><trkpt lat="45.4413399" lon="10.4677857"><ele>129.5</ele><time>2026-03-28T09:02:20.836Z</time></trkpt><trkpt lat="45.4412364" lon="10.4677094"><ele>129.0</ele><time>2026-03-28T09:02:21.837Z</time></trkpt><trkpt lat="45.4411299" lon="10.4676328"><ele>128.5</ele><time>2026-03-28T09:02:22.836Z</time></trkpt><trkpt lat="45.4410222" lon="10.4675509"><ele>128.0</ele><time>2026-03-28T09:02:23.836Z</time></trkpt><trkpt lat="45.44091" lon="10.4674585"><ele>128.0</ele><time>2026-03-28T09:02:24.836Z</time></trkpt><trkpt lat="45.4407897" lon="10.4673561"><ele>128.0</ele><time>2026-03-28T09:02:25.837Z</time></trkpt><trkpt lat="45.4406604" lon="10.4672459"><ele>128.0</ele><time>2026-03-28T09:02:26.836Z</time></trkpt><trkpt lat="45.4405375" lon="10.4671463"><ele>128.0</ele><time>2026-03-28T09:02:27.836Z</time></trkpt><trkpt lat="45.4404239" lon="10.4670661"><ele>127.5</ele><time>2026-03-28T09:02:28.836Z</time></trkpt><trkpt lat="45.4403061" lon="10.4669832"><ele>127.0</ele><time>2026-03-28T09:02:29.836Z</time></trkpt><trkpt lat="45.4401769" lon="10.4668972"><ele>126.5</ele><time>2026-03-28T09:02:30.836Z</time></trkpt><trkpt lat="45.4400332" lon="10.4668198"><ele>126.0</ele><time>2026-03-28T09:02:31.836Z</time></trkpt><trkpt lat="45.4398859" lon="10.4667523"><ele>126.0</ele><time>2026-03-28T09:02:32.837Z</time></trkpt><trkpt lat="45.4397329" lon="10.4666968"><ele>126.0</ele><time>2026-03-28T09:02:33.836Z</time></trkpt><trkpt lat="45.4395707" lon="10.4666438"><ele>126.0</ele><time>2026-03-28T09:02:34.837Z</time></trkpt><trkpt lat="45.4394038" lon="10.4665917"><ele>126.0</ele><time>2026-03-28T09:02:35.836Z</time></trkpt><trkpt lat="45.4392423" lon="10.4665436"><ele>126.0</ele><time>2026-03-28T09:02:36.836Z</time></trkpt><trkpt lat="45.4391013" lon="10.4665017"><ele>126.0</ele><time>2026-03-28T09:02:37.836Z</time></trkpt><trkpt lat="45.4389657" lon="10.4664594"><ele>126.0</ele><time>2026-03-28T09:02:38.836Z</time></trkpt><trkpt lat="45.4388233" lon="10.4664224"><ele>126.0</ele><time>2026-03-28T09:02:39.837Z</time></trkpt><trkpt lat="45.438678" lon="10.4663861"><ele>126.0</ele><time>2026-03-28T09:02:40.836Z</time></trkpt><trkpt lat="45.4385328" lon="10.4663394"><ele>126.0</ele><time>2026-03-28T09:02:41.837Z</time></trkpt><trkpt lat="45.4383981" lon="10.4662776"><ele>126.0</ele><time>2026-03-28T09:02:42.836Z</time></trkpt><trkpt lat="45.4382685" lon="10.4661896"><ele>126.33333333333334</ele><time>2026-03-28T09:02:43.836Z</time></trkpt><trkpt lat="45.4381343" lon="10.4660821"><ele>126.66666666666667</ele><time>2026-03-28T09:02:44.837Z</time></trkpt><trkpt lat="45.4379951" lon="10.4659738"><ele>127.0</ele><time>2026-03-28T09:02:45.836Z</time></trkpt><trkpt lat="45.4378626" lon="10.4658588"><ele>126.25</ele><time>2026-03-28T09:02:46.837Z</time></trkpt><trkpt lat="45.4377345" lon="10.4657411"><ele>125.5</ele><time>2026-03-28T09:02:47.836Z</time></trkpt><trkpt lat="45.4376079" lon="10.465624"><ele>124.75</ele><time>2026-03-28T09:02:48.837Z</time></trkpt><trkpt lat="45.4374832" lon="10.4655183"><ele>124.0</ele><time>2026-03-28T09:02:49.836Z</time></trkpt><trkpt lat="45.4373524" lon="10.4654221"><ele>124.0</ele><time>2026-03-28T09:02:50.836Z</time></trkpt><trkpt lat="45.4372227" lon="10.4653358"><ele>124.0</ele><time>2026-03-28T09:02:51.836Z</time></trkpt><trkpt lat="45.4371005" lon="10.4652587"><ele>124.0</ele><time>2026-03-28T09:02:52.837Z</time></trkpt><trkpt lat="45.4369881" lon="10.4651918"><ele>124.0</ele><time>2026-03-28T09:02:53.837Z</time></trkpt><trkpt lat="45.4368843" lon="10.465137"><ele>124.00000000000001</ele><time>2026-03-28T09:02:54.836Z</time></trkpt><trkpt lat="45.4367917" lon="10.4650902"><ele>124.0</ele><time>2026-03-28T09:02:55.836Z</time></trkpt><trkpt lat="45.4367079" lon="10.4650576"><ele>124.0</ele><time>2026-03-28T09:02:56.836Z</time></trkpt><trkpt lat="45.4366367" lon="10.4650288"><ele>124.0</ele><time>2026-03-28T09:02:57.836Z</time></trkpt><trkpt lat="45.4365711" lon="10.4650145"><ele>124.00000000000001</ele><time>2026-03-28T09:02:58.836Z</time></trkpt><trkpt lat="45.4364658" lon="10.4650863"><ele>124.0</ele><time>2026-03-28T09:03:00.836Z</time></trkpt><trkpt lat="45.436434" lon="10.4651759"><ele>124.0</ele><time>2026-03-28T09:03:01.836Z</time></trkpt><trkpt lat="45.4364159" lon="10.4653025"><ele>124.0</ele><time>2026-03-28T09:03:02.836Z</time></trkpt><trkpt lat="45.4364033" lon="10.4654721"><ele>124.0</ele><time>2026-03-28T09:03:03.836Z</time></trkpt><trkpt lat="45.4363932" lon="10.4656877"><ele>124.0</ele><time>2026-03-28T09:03:04.836Z</time></trkpt><trkpt lat="45.4363852" lon="10.4659073"><ele>124.25</ele><time>2026-03-28T09:03:05.836Z</time></trkpt><trkpt lat="45.4363822" lon="10.4661119"><ele>124.5</ele><time>2026-03-28T09:03:06.836Z</time></trkpt><trkpt lat="45.436392" lon="10.4663251"><ele>124.75</ele><time>2026-03-28T09:03:07.836Z</time></trkpt><trkpt lat="45.4364071" lon="10.4665151"><ele>125.0</ele><time>2026-03-28T09:03:08.836Z</time></trkpt><trkpt lat="45.4364145" lon="10.4666951"><ele>125.0</ele><time>2026-03-28T09:03:09.837Z</time></trkpt><trkpt lat="45.4364167" lon="10.4668765"><ele>125.0</ele><time>2026-03-28T09:03:10.836Z</time></trkpt><trkpt lat="45.4364153" lon="10.467059"><ele>125.0</ele><time>2026-03-28T09:03:11.837Z</time></trkpt><trkpt lat="45.4364091" lon="10.4672229"><ele>125.0</ele><time>2026-03-28T09:03:12.836Z</time></trkpt><trkpt lat="45.4363966" lon="10.4674188"><ele>125.0</ele><time>2026-03-28T09:03:13.837Z</time></trkpt><trkpt lat="45.4363898" lon="10.4676182"><ele>125.0</ele><time>2026-03-28T09:03:14.837Z</time></trkpt><trkpt lat="45.4363892" lon="10.4678296"><ele>125.0</ele><time>2026-03-28T09:03:15.836Z</time></trkpt><trkpt lat="45.4363862" lon="10.4680539"><ele>125.0</ele><time>2026-03-28T09:03:16.836Z</time></trkpt><trkpt lat="45.4363856" lon="10.4682706"><ele>125.0</ele><time>2026-03-28T09:03:17.836Z</time></trkpt><trkpt lat="45.4363816" lon="10.4684661"><ele>125.0</ele><time>2026-03-28T09:03:18.836Z</time></trkpt><trkpt lat="45.4363742" lon="10.4686779"><ele>125.0</ele><time>2026-03-28T09:03:19.836Z</time></trkpt><trkpt lat="45.4363707" lon="10.4688866"><ele>125.0</ele><time>2026-03-28T09:03:20.836Z</time></trkpt><trkpt lat="45.4363656" lon="10.4690861"><ele>125.25</ele><time>2026-03-28T09:03:21.836Z</time></trkpt><trkpt lat="45.4363605" lon="10.469288"><ele>125.5</ele><time>2026-03-28T09:03:22.837Z</time></trkpt><trkpt lat="45.4363642" lon="10.4694877"><ele>125.75</ele><time>2026-03-28T09:03:23.837Z</time></trkpt><trkpt lat="45.4363637" lon="10.4696626"><ele>126.0</ele><time>2026-03-28T09:03:24.837Z</time></trkpt><trkpt lat="45.4363681" lon="10.4698433"><ele>126.25</ele><time>2026-03-28T09:03:25.837Z</time></trkpt><trkpt lat="45.436378" lon="10.4700439"><ele>126.5</ele><time>2026-03-28T09:03:26.837Z</time></trkpt><trkpt lat="45.4363867" lon="10.4702568"><ele>126.75</ele><time>2026-03-28T09:03:27.836Z</time></trkpt><trkpt lat="45.4363895" lon="10.4704717"><ele>127.0</ele><time>2026-03-28T09:03:28.836Z</time></trkpt><trkpt lat="45.4363885" lon="10.47067"><ele>127.0</ele><time>2026-03-28T09:03:29.836Z</time></trkpt><trkpt lat="45.4363818" lon="10.4708615"><ele>127.0</ele><time>2026-03-28T09:03:30.837Z</time></trkpt><trkpt lat="45.4363762" lon="10.471036"><ele>127.0</ele><time>2026-03-28T09:03:31.836Z</time></trkpt><trkpt lat="45.4363769" lon="10.4712259"><ele>127.0</ele><time>2026-03-28T09:03:32.837Z</time></trkpt><trkpt lat="45.4363778" lon="10.4714271"><ele>127.0</ele><time>2026-03-28T09:03:33.837Z</time></trkpt><trkpt lat="45.4363743" lon="10.4716326"><ele>127.0</ele><time>2026-03-28T09:03:34.836Z</time></trkpt><trkpt lat="45.4363732" lon="10.4718455"><ele>127.0</ele><time>2026-03-28T09:03:35.836Z</time></trkpt><trkpt lat="45.4363712" lon="10.472058"><ele>127.0</ele><time>2026-03-28T09:03:36.837Z</time></trkpt><trkpt lat="45.4363699" lon="10.4722713"><ele>127.0</ele><time>2026-03-28T09:03:37.836Z</time></trkpt><trkpt lat="45.436374" lon="10.4724905"><ele>127.0</ele><time>2026-03-28T09:03:38.837Z</time></trkpt><trkpt lat="45.4363837" lon="10.4727055"><ele>127.0</ele><time>2026-03-28T09:03:39.836Z</time></trkpt><trkpt lat="45.4363967" lon="10.4729091"><ele>127.0</ele><time>2026-03-28T09:03:40.836Z</time></trkpt><trkpt lat="45.4364096" lon="10.4731149"><ele>127.0</ele><time>2026-03-28T09:03:41.837Z</time></trkpt><trkpt lat="45.4364299" lon="10.4733207"><ele>127.0</ele><time>2026-03-28T09:03:42.836Z</time></trkpt><trkpt lat="45.4364597" lon="10.4735381"><ele>127.0</ele><time>2026-03-28T09:03:43.836Z</time></trkpt><trkpt lat="45.4364885" lon="10.4737593"><ele>127.0</ele><time>2026-03-28T09:03:44.837Z</time></trkpt><trkpt lat="45.4365065" lon="10.4739821"><ele>127.0</ele><time>2026-03-28T09:03:45.837Z</time></trkpt><trkpt lat="45.4365248" lon="10.474189"><ele>127.0</ele><time>2026-03-28T09:03:46.836Z</time></trkpt><trkpt lat="45.4365438" lon="10.4743741"><ele>127.0</ele><time>2026-03-28T09:03:47.836Z</time></trkpt><trkpt lat="45.4365577" lon="10.474556"><ele>127.25</ele><time>2026-03-28T09:03:48.836Z</time></trkpt><trkpt lat="45.4365691" lon="10.4747443"><ele>127.5</ele><time>2026-03-28T09:03:49.836Z</time></trkpt><trkpt lat="45.4365848" lon="10.4749406"><ele>127.75</ele><time>2026-03-28T09:03:50.836Z</time></trkpt><trkpt lat="45.4366046" lon="10.4751475"><ele>128.0</ele><time>2026-03-28T09:03:51.837Z</time></trkpt><trkpt lat="45.4366258" lon="10.475331"><ele>128.0</ele><time>2026-03-28T09:03:52.836Z</time></trkpt><trkpt lat="45.4366482" lon="10.4755003"><ele>128.0</ele><time>2026-03-28T09:03:53.836Z</time></trkpt><trkpt lat="45.43667" lon="10.475671"><ele>128.0</ele><time>2026-03-28T09:03:54.836Z</time></trkpt><trkpt lat="45.4366902" lon="10.4758669"><ele>128.0</ele><time>2026-03-28T09:03:55.836Z</time></trkpt><trkpt lat="45.4367139" lon="10.4760596"><ele>128.0</ele><time>2026-03-28T09:03:56.836Z</time></trkpt><trkpt lat="45.4367339" lon="10.4762433"><ele>128.0</ele><time>2026-03-28T09:03:57.836Z</time></trkpt><trkpt lat="45.436753" lon="10.4764292"><ele>128.0</ele><time>2026-03-28T09:03:58.836Z</time></trkpt><trkpt lat="45.4367689" lon="10.4765894"><ele>128.0</ele><time>2026-03-28T09:03:59.836Z</time></trkpt><trkpt lat="45.436791" lon="10.4767518"><ele>127.99999999999999</ele><time>2026-03-28T09:04:00.836Z</time></trkpt><trkpt lat="45.4368139" lon="10.4768893"><ele>128.0</ele><time>2026-03-28T09:04:01.836Z</time></trkpt><trkpt lat="45.4368283" lon="10.4770134"><ele>128.0</ele><time>2026-03-28T09:04:02.836Z</time></trkpt><trkpt lat="45.4368404" lon="10.4771214"><ele>128.0</ele><time>2026-03-28T09:04:03.837Z</time></trkpt><trkpt lat="45.4368562" lon="10.4772167"><ele>127.99999999999999</ele><time>2026-03-28T09:04:04.836Z</time></trkpt><trkpt lat="45.4368737" lon="10.4773636"><ele>128.0</ele><time>2026-03-28T09:04:06.837Z</time></trkpt><trkpt lat="45.4369115" lon="10.4774818"><ele>128.20000000000002</ele><time>2026-03-28T09:04:09.837Z</time></trkpt><trkpt lat="45.4370151" lon="10.4775261"><ele>128.4</ele><time>2026-03-28T09:04:11.836Z</time></trkpt><trkpt lat="45.4371027" lon="10.4775362"><ele>128.60000000000002</ele><time>2026-03-28T09:04:12.836Z</time></trkpt><trkpt lat="45.4372" lon="10.4775576"><ele>128.8</ele><time>2026-03-28T09:04:13.836Z</time></trkpt><trkpt lat="45.437315" lon="10.4775768"><ele>129.0</ele><time>2026-03-28T09:04:14.836Z</time></trkpt><trkpt lat="45.4374433" lon="10.4775878"><ele>129.0</ele><time>2026-03-28T09:04:15.837Z</time></trkpt><trkpt lat="45.4375827" lon="10.4776025"><ele>129.0</ele><time>2026-03-28T09:04:16.836Z</time></trkpt><trkpt lat="45.4377288" lon="10.4776232"><ele>129.0</ele><time>2026-03-28T09:04:17.836Z</time></trkpt><trkpt lat="45.4378809" lon="10.4776442"><ele>129.0</ele><time>2026-03-28T09:04:18.836Z</time></trkpt><trkpt lat="45.4380374" lon="10.4776594"><ele>129.33333333333334</ele><time>2026-03-28T09:04:19.836Z</time></trkpt><trkpt lat="45.438195" lon="10.4776735"><ele>129.66666666666669</ele><time>2026-03-28T09:04:20.836Z</time></trkpt><trkpt lat="45.4383526" lon="10.4776811"><ele>130.0</ele><time>2026-03-28T09:04:21.836Z</time></trkpt><trkpt lat="45.4385135" lon="10.477693"><ele>130.0</ele><time>2026-03-28T09:04:22.836Z</time></trkpt><trkpt lat="45.4386801" lon="10.4777122"><ele>130.0</ele><time>2026-03-28T09:04:23.836Z</time></trkpt><trkpt lat="45.4388441" lon="10.4777434"><ele>130.0</ele><time>2026-03-28T09:04:24.836Z</time></trkpt><trkpt lat="45.4390099" lon="10.4777825"><ele>130.0</ele><time>2026-03-28T09:04:25.836Z</time></trkpt><trkpt lat="45.4391751" lon="10.4778305"><ele>130.0</ele><time>2026-03-28T09:04:26.837Z</time></trkpt><trkpt lat="45.4393396" lon="10.4778816"><ele>130.0</ele><time>2026-03-28T09:04:27.837Z</time></trkpt><trkpt lat="45.4394986" lon="10.4779497"><ele>130.33333333333334</ele><time>2026-03-28T09:04:28.836Z</time></trkpt><trkpt lat="45.4396552" lon="10.4780209"><ele>130.66666666666666</ele><time>2026-03-28T09:04:29.837Z</time></trkpt><trkpt lat="45.4398131" lon="10.478091"><ele>131.0</ele><time>2026-03-28T09:04:30.837Z</time></trkpt><trkpt lat="45.4399732" lon="10.4781561"><ele>131.0</ele><time>2026-03-28T09:04:31.836Z</time></trkpt><trkpt lat="45.4401317" lon="10.4782145"><ele>131.0</ele><time>2026-03-28T09:04:32.836Z</time></trkpt><trkpt lat="45.4402878" lon="10.4782729"><ele>131.0</ele><time>2026-03-28T09:04:33.836Z</time></trkpt><trkpt lat="45.4404442" lon="10.4783286"><ele>131.33333333333331</ele><time>2026-03-28T09:04:34.837Z</time></trkpt><trkpt lat="45.4406023" lon="10.4783812"><ele>131.66666666666666</ele><time>2026-03-28T09:04:35.837Z</time></trkpt><trkpt lat="45.4407618" lon="10.4784338"><ele>132.0</ele><time>2026-03-28T09:04:36.836Z</time></trkpt><trkpt lat="45.4409218" lon="10.4784806"><ele>132.0</ele><time>2026-03-28T09:04:37.836Z</time></trkpt><trkpt lat="45.4410768" lon="10.4785265"><ele>132.0</ele><time>2026-03-28T09:04:38.836Z</time></trkpt><trkpt lat="45.4412312" lon="10.4785732"><ele>132.0</ele><time>2026-03-28T09:04:39.836Z</time></trkpt><trkpt lat="45.4413821" lon="10.47862"><ele>132.66666666666666</ele><time>2026-03-28T09:04:40.836Z</time></trkpt><trkpt lat="45.441533" lon="10.4786568"><ele>133.33333333333331</ele><time>2026-03-28T09:04:41.836Z</time></trkpt><trkpt lat="45.4416845" lon="10.4786713"><ele>134.0</ele><time>2026-03-28T09:04:42.836Z</time></trkpt><trkpt lat="45.441835" lon="10.4786656"><ele>134.0</ele><time>2026-03-28T09:04:43.836Z</time></trkpt><trkpt lat="45.4419802" lon="10.4786481"><ele>134.0</ele><time>2026-03-28T09:04:44.837Z</time></trkpt><trkpt lat="45.4421257" lon="10.4786105"><ele>134.0</ele><time>2026-03-28T09:04:45.837Z</time></trkpt><trkpt lat="45.4422766" lon="10.4785483"><ele>134.66666666666666</ele><time>2026-03-28T09:04:46.836Z</time></trkpt><trkpt lat="45.442427" lon="10.4784727"><ele>135.33333333333334</ele><time>2026-03-28T09:04:47.837Z</time></trkpt><trkpt lat="45.4425779" lon="10.4783895"><ele>136.0</ele><time>2026-03-28T09:04:48.836Z</time></trkpt><trkpt lat="45.4427274" lon="10.4783062"><ele>136.0</ele><time>2026-03-28T09:04:49.836Z</time></trkpt><trkpt lat="45.4428761" lon="10.4782075"><ele>136.0</ele><time>2026-03-28T09:04:50.836Z</time></trkpt><trkpt lat="45.443024" lon="10.478116"><ele>136.0</ele><time>2026-03-28T09:04:51.836Z</time></trkpt><trkpt lat="45.4431756" lon="10.4780493"><ele>135.66666666666669</ele><time>2026-03-28T09:04:52.836Z</time></trkpt><trkpt lat="45.4433351" lon="10.4780018"><ele>135.33333333333334</ele><time>2026-03-28T09:04:53.836Z</time></trkpt><trkpt lat="45.4434927" lon="10.4779706"><ele>135.0</ele><time>2026-03-28T09:04:54.836Z</time></trkpt><trkpt lat="45.4436474" lon="10.4779678"><ele>135.33333333333334</ele><time>2026-03-28T09:04:55.836Z</time></trkpt><trkpt lat="45.4438027" lon="10.4779846"><ele>135.66666666666669</ele><time>2026-03-28T09:04:56.836Z</time></trkpt><trkpt lat="45.4439544" lon="10.478015"><ele>136.0</ele><time>2026-03-28T09:04:57.837Z</time></trkpt><trkpt lat="45.4441044" lon="10.478056"><ele>136.0</ele><time>2026-03-28T09:04:58.836Z</time></trkpt><trkpt lat="45.4442533" lon="10.4780937"><ele>136.0</ele><time>2026-03-28T09:04:59.836Z</time></trkpt><trkpt lat="45.444404" lon="10.478133"><ele>136.0</ele><time>2026-03-28T09:05:00.836Z</time></trkpt><trkpt lat="45.4445572" lon="10.4781763"><ele>136.33333333333334</ele><time>2026-03-28T09:05:01.837Z</time></trkpt><trkpt lat="45.4447112" lon="10.4782217"><ele>136.66666666666666</ele><time>2026-03-28T09:05:02.836Z</time></trkpt><trkpt lat="45.4448646" lon="10.4782641"><ele>137.0</ele><time>2026-03-28T09:05:03.837Z</time></trkpt><trkpt lat="45.4450179" lon="10.4783061"><ele>137.0</ele><time>2026-03-28T09:05:04.836Z</time></trkpt><trkpt lat="45.4451692" lon="10.4783541"><ele>137.0</ele><time>2026-03-28T09:05:05.836Z</time></trkpt><trkpt lat="45.4453238" lon="10.4784089"><ele>137.0</ele><time>2026-03-28T09:05:06.836Z</time></trkpt><trkpt lat="45.4454752" lon="10.4784665"><ele>137.66666666666666</ele><time>2026-03-28T09:05:07.837Z</time></trkpt><trkpt lat="45.445627" lon="10.4785374"><ele>138.33333333333334</ele><time>2026-03-28T09:05:08.837Z</time></trkpt><trkpt lat="45.4457748" lon="10.4786232"><ele>139.0</ele><time>2026-03-28T09:05:09.836Z</time></trkpt><trkpt lat="45.4459214" lon="10.478719"><ele>139.33333333333334</ele><time>2026-03-28T09:05:10.836Z</time></trkpt><trkpt lat="45.4460608" lon="10.4788242"><ele>139.66666666666666</ele><time>2026-03-28T09:05:11.837Z</time></trkpt><trkpt lat="45.4461963" lon="10.47893"><ele>140.0</ele><time>2026-03-28T09:05:12.836Z</time></trkpt><trkpt lat="45.4463333" lon="10.4790343"><ele>140.66666666666666</ele><time>2026-03-28T09:05:13.837Z</time></trkpt><trkpt lat="45.4464694" lon="10.4791423"><ele>141.33333333333334</ele><time>2026-03-28T09:05:14.836Z</time></trkpt><trkpt lat="45.4466061" lon="10.479251"><ele>142.0</ele><time>2026-03-28T09:05:15.836Z</time></trkpt><trkpt lat="45.4467413" lon="10.4793625"><ele>142.0</ele><time>2026-03-28T09:05:16.837Z</time></trkpt><trkpt lat="45.4468786" lon="10.4794726"><ele>142.0</ele><time>2026-03-28T09:05:17.837Z</time></trkpt><trkpt lat="45.4470221" lon="10.4795707"><ele>142.0</ele><time>2026-03-28T09:05:18.836Z</time></trkpt><trkpt lat="45.4471728" lon="10.479662"><ele>141.33333333333334</ele><time>2026-03-28T09:05:19.836Z</time></trkpt><trkpt lat="45.4473284" lon="10.4797494"><ele>140.66666666666666</ele><time>2026-03-28T09:05:20.836Z</time></trkpt><trkpt lat="45.4474859" lon="10.4798298"><ele>140.0</ele><time>2026-03-28T09:05:21.837Z</time></trkpt><trkpt lat="45.4476436" lon="10.4799106"><ele>140.0</ele><time>2026-03-28T09:05:22.836Z</time></trkpt><trkpt lat="45.447799" lon="10.4799931"><ele>140.0</ele><time>2026-03-28T09:05:23.837Z</time></trkpt><trkpt lat="45.4479535" lon="10.4800761"><ele>140.0</ele><time>2026-03-28T09:05:24.837Z</time></trkpt><trkpt lat="45.4481085" lon="10.4801545"><ele>140.0</ele><time>2026-03-28T09:05:25.837Z</time></trkpt><trkpt lat="45.4482661" lon="10.4802245"><ele>140.0</ele><time>2026-03-28T09:05:26.836Z</time></trkpt><trkpt lat="45.448426" lon="10.4802868"><ele>140.0</ele><time>2026-03-28T09:05:27.836Z</time></trkpt><trkpt lat="45.4485891" lon="10.4803465"><ele>140.0</ele><time>2026-03-28T09:05:28.836Z</time></trkpt><trkpt lat="45.4487541" lon="10.4804031"><ele>140.0</ele><time>2026-03-28T09:05:29.837Z</time></trkpt><trkpt lat="45.4489229" lon="10.4804578"><ele>140.0</ele><time>2026-03-28T09:05:30.836Z</time></trkpt><trkpt lat="45.4490915" lon="10.4805073"><ele>140.0</ele><time>2026-03-28T09:05:31.836Z</time></trkpt><trkpt lat="45.4492596" lon="10.4805548"><ele>140.0</ele><time>2026-03-28T09:05:32.836Z</time></trkpt><trkpt lat="45.4494154" lon="10.4805976"><ele>140.0</ele><time>2026-03-28T09:05:33.837Z</time></trkpt><trkpt lat="45.4495671" lon="10.4806349"><ele>140.75</ele><time>2026-03-28T09:05:34.837Z</time></trkpt><trkpt lat="45.4497138" lon="10.4806703"><ele>141.5</ele><time>2026-03-28T09:05:35.836Z</time></trkpt><trkpt lat="45.4498597" lon="10.4807071"><ele>142.25</ele><time>2026-03-28T09:05:36.837Z</time></trkpt><trkpt lat="45.4500041" lon="10.4807453"><ele>143.0</ele><time>2026-03-28T09:05:37.836Z</time></trkpt><trkpt lat="45.4501478" lon="10.4807875"><ele>143.0</ele><time>2026-03-28T09:05:38.836Z</time></trkpt><trkpt lat="45.4502897" lon="10.4808327"><ele>143.0</ele><time>2026-03-28T09:05:39.836Z</time></trkpt><trkpt lat="45.4504327" lon="10.4808718"><ele>143.0</ele><time>2026-03-28T09:05:40.837Z</time></trkpt><trkpt lat="45.4505771" lon="10.4809077"><ele>143.0</ele><time>2026-03-28T09:05:41.836Z</time></trkpt><trkpt lat="45.4507198" lon="10.4809395"><ele>143.25</ele><time>2026-03-28T09:05:42.837Z</time></trkpt><trkpt lat="45.4508564" lon="10.4809737"><ele>143.5</ele><time>2026-03-28T09:05:43.836Z</time></trkpt><trkpt lat="45.4509933" lon="10.4810023"><ele>143.75</ele><time>2026-03-28T09:05:44.836Z</time></trkpt><trkpt lat="45.4511335" lon="10.4810346"><ele>144.0</ele><time>2026-03-28T09:05:45.836Z</time></trkpt><trkpt lat="45.4512719" lon="10.48107"><ele>143.75</ele><time>2026-03-28T09:05:46.836Z</time></trkpt><trkpt lat="45.4514092" lon="10.4811066"><ele>143.5</ele><time>2026-03-28T09:05:47.837Z</time></trkpt><trkpt lat="45.4515418" lon="10.4811489"><ele>143.25</ele><time>2026-03-28T09:05:48.836Z</time></trkpt><trkpt lat="45.451669" lon="10.4811971"><ele>143.0</ele><time>2026-03-28T09:05:49.836Z</time></trkpt><trkpt lat="45.451784" lon="10.4812452"><ele>144.0</ele><time>2026-03-28T09:05:50.836Z</time></trkpt><trkpt lat="45.4518994" lon="10.4812931"><ele>145.0</ele><time>2026-03-28T09:05:51.837Z</time></trkpt><trkpt lat="45.4520098" lon="10.481339"><ele>146.0</ele><time>2026-03-28T09:05:52.836Z</time></trkpt><trkpt lat="45.4521245" lon="10.4813935"><ele>147.0</ele><time>2026-03-28T09:05:53.837Z</time></trkpt><trkpt lat="45.4522451" lon="10.4814783"><ele>147.0</ele><time>2026-03-28T09:05:54.836Z</time></trkpt><trkpt lat="45.4523609" lon="10.4815838"><ele>147.0</ele><time>2026-03-28T09:05:55.836Z</time></trkpt><trkpt lat="45.4524677" lon="10.4817185"><ele>147.0</ele><time>2026-03-28T09:05:56.836Z</time></trkpt><trkpt lat="45.4525613" lon="10.4818727"><ele>147.0</ele><time>2026-03-28T09:05:57.836Z</time></trkpt><trkpt lat="45.4526364" lon="10.4820401"><ele>147.25</ele><time>2026-03-28T09:05:58.837Z</time></trkpt><trkpt lat="45.4526845" lon="10.4822261"><ele>147.5</ele><time>2026-03-28T09:05:59.836Z</time></trkpt><trkpt lat="45.4527114" lon="10.4824301"><ele>147.75</ele><time>2026-03-28T09:06:00.836Z</time></trkpt><trkpt lat="45.4527166" lon="10.4826335"><ele>148.0</ele><time>2026-03-28T09:06:01.836Z</time></trkpt><trkpt lat="45.4527081" lon="10.4828372"><ele>148.5</ele><time>2026-03-28T09:06:02.836Z</time></trkpt><trkpt lat="45.4526969" lon="10.4830443"><ele>149.0</ele><time>2026-03-28T09:06:03.836Z</time></trkpt><trkpt lat="45.4526835" lon="10.4832472"><ele>149.5</ele><time>2026-03-28T09:06:04.837Z</time></trkpt><trkpt lat="45.4526726" lon="10.4834465"><ele>150.0</ele><time>2026-03-28T09:06:05.836Z</time></trkpt><trkpt lat="45.4526712" lon="10.4836452"><ele>150.0</ele><time>2026-03-28T09:06:06.836Z</time></trkpt><trkpt lat="45.4526795" lon="10.4838484"><ele>150.0</ele><time>2026-03-28T09:06:07.836Z</time></trkpt><trkpt lat="45.4527003" lon="10.4840539"><ele>150.0</ele><time>2026-03-28T09:06:08.836Z</time></trkpt><trkpt lat="45.4527412" lon="10.4842312"><ele>150.0</ele><time>2026-03-28T09:06:09.836Z</time></trkpt><trkpt lat="45.4527925" lon="10.4843832"><ele>150.0</ele><time>2026-03-28T09:06:10.837Z</time></trkpt><trkpt lat="45.4528443" lon="10.4845088"><ele>150.0</ele><time>2026-03-28T09:06:11.836Z</time></trkpt><trkpt lat="45.4529001" lon="10.484604"><ele>150.0</ele><time>2026-03-28T09:06:12.837Z</time></trkpt><trkpt lat="45.4529424" lon="10.4846839"><ele>150.0</ele><time>2026-03-28T09:06:13.837Z</time></trkpt><trkpt lat="45.4529674" lon="10.4847931"><ele>150.0</ele><time>2026-03-28T09:06:15.837Z</time></trkpt><trkpt lat="45.4529494" lon="10.4849002"><ele>150.0</ele><time>2026-03-28T09:06:17.836Z</time></trkpt><trkpt lat="45.4528998" lon="10.4850212"><ele>151.0</ele><time>2026-03-28T09:06:20.836Z</time></trkpt><trkpt lat="45.4528168" lon="10.4850799"><ele>152.0</ele><time>2026-03-28T09:06:22.836Z</time></trkpt><trkpt lat="45.4527534" lon="10.4851016"><ele>153.0</ele><time>2026-03-28T09:06:23.836Z</time></trkpt><trkpt lat="45.4526683" lon="10.4850918"><ele>154.0</ele><time>2026-03-28T09:06:24.836Z</time></trkpt><trkpt lat="45.4525772" lon="10.4850883"><ele>155.0</ele><time>2026-03-28T09:06:25.836Z</time></trkpt><trkpt lat="45.4524798" lon="10.4850872"><ele>156.0</ele><time>2026-03-28T09:06:26.837Z</time></trkpt><trkpt lat="45.4523759" lon="10.4850711"><ele>156.0</ele><time>2026-03-28T09:06:27.837Z</time></trkpt><trkpt lat="45.4522615" lon="10.4850514"><ele>156.0</ele><time>2026-03-28T09:06:28.836Z</time></trkpt><trkpt lat="45.4521464" lon="10.4850334"><ele>156.0</ele><time>2026-03-28T09:06:29.836Z</time></trkpt><trkpt lat="45.4520318" lon="10.485011"><ele>156.0</ele><time>2026-03-28T09:06:30.836Z</time></trkpt><trkpt lat="45.4519226" lon="10.4849833"><ele>156.0</ele><time>2026-03-28T09:06:31.836Z</time></trkpt><trkpt lat="45.4518125" lon="10.4849562"><ele>156.0</ele><time>2026-03-28T09:06:32.836Z</time></trkpt><trkpt lat="45.4517104" lon="10.4849148"><ele>156.0</ele><time>2026-03-28T09:06:33.836Z</time></trkpt><trkpt lat="45.4516118" lon="10.4848645"><ele>156.0</ele><time>2026-03-28T09:06:34.836Z</time></trkpt><trkpt lat="45.4515134" lon="10.4848121"><ele>156.0</ele><time>2026-03-28T09:06:35.836Z</time></trkpt><trkpt lat="45.4514104" lon="10.4847692"><ele>156.0</ele><time>2026-03-28T09:06:36.836Z</time></trkpt><trkpt lat="45.4513047" lon="10.4847268"><ele>156.0</ele><time>2026-03-28T09:06:37.837Z</time></trkpt><trkpt lat="45.4511984" lon="10.4846846"><ele>156.0</ele><time>2026-03-28T09:06:38.836Z</time></trkpt><trkpt lat="45.4510907" lon="10.4846533"><ele>156.0</ele><time>2026-03-28T09:06:39.836Z</time></trkpt><trkpt lat="45.4509758" lon="10.4846348"><ele>156.0</ele><time>2026-03-28T09:06:40.837Z</time></trkpt><trkpt lat="45.4508632" lon="10.4846166"><ele>156.4</ele><time>2026-03-28T09:06:41.836Z</time></trkpt><trkpt lat="45.4507529" lon="10.4845967"><ele>156.8</ele><time>2026-03-28T09:06:42.837Z</time></trkpt><trkpt lat="45.4506478" lon="10.4845663"><ele>157.20000000000002</ele><time>2026-03-28T09:06:43.837Z</time></trkpt><trkpt lat="45.4505481" lon="10.4845224"><ele>157.6</ele><time>2026-03-28T09:06:44.836Z</time></trkpt><trkpt lat="45.450444" lon="10.4844758"><ele>158.0</ele><time>2026-03-28T09:06:45.837Z</time></trkpt><trkpt lat="45.4503411" lon="10.4844429"><ele>155.5</ele><time>2026-03-28T09:06:46.837Z</time></trkpt><trkpt lat="45.4502208" lon="10.4844129"><ele>153.0</ele><time>2026-03-28T09:06:47.836Z</time></trkpt><trkpt lat="45.4501158" lon="10.4843877"><ele>150.5</ele><time>2026-03-28T09:06:48.836Z</time></trkpt><trkpt lat="45.4500077" lon="10.4843664"><ele>148.0</ele><time>2026-03-28T09:06:49.836Z</time></trkpt><trkpt lat="45.4498946" lon="10.4843581"><ele>148.0</ele><time>2026-03-28T09:06:50.837Z</time></trkpt><trkpt lat="45.4497805" lon="10.4843697"><ele>148.0</ele><time>2026-03-28T09:06:51.836Z</time></trkpt><trkpt lat="45.4496587" lon="10.4843954"><ele>148.0</ele><time>2026-03-28T09:06:52.836Z</time></trkpt><trkpt lat="45.4495335" lon="10.4844159"><ele>148.0</ele><time>2026-03-28T09:06:53.837Z</time></trkpt><trkpt lat="45.4494098" lon="10.4844238"><ele>147.5</ele><time>2026-03-28T09:06:54.837Z</time></trkpt><trkpt lat="45.4492836" lon="10.484428"><ele>147.0</ele><time>2026-03-28T09:06:55.837Z</time></trkpt><trkpt lat="45.4491602" lon="10.4844292"><ele>146.5</ele><time>2026-03-28T09:06:56.837Z</time></trkpt><trkpt lat="45.4490332" lon="10.484426"><ele>146.0</ele><time>2026-03-28T09:06:57.836Z</time></trkpt><trkpt lat="45.4489049" lon="10.4844241"><ele>146.25</ele><time>2026-03-28T09:06:58.837Z</time></trkpt><trkpt lat="45.4487782" lon="10.4844264"><ele>146.5</ele><time>2026-03-28T09:06:59.836Z</time></trkpt><trkpt lat="45.4486496" lon="10.4844301"><ele>146.75</ele><time>2026-03-28T09:07:00.836Z</time></trkpt><trkpt lat="45.4485196" lon="10.4844285"><ele>147.0</ele><time>2026-03-28T09:07:01.837Z</time></trkpt><trkpt lat="45.4483863" lon="10.4844214"><ele>147.0</ele><time>2026-03-28T09:07:02.836Z</time></trkpt><trkpt lat="45.4482463" lon="10.4844124"><ele>147.0</ele><time>2026-03-28T09:07:03.836Z</time></trkpt><trkpt lat="45.4481065" lon="10.4843992"><ele>147.0</ele><time>2026-03-28T09:07:04.837Z</time></trkpt><trkpt lat="45.4479962" lon="10.4843897"><ele>147.0</ele><time>2026-03-28T09:07:05.836Z</time></trkpt><trkpt lat="45.4479142" lon="10.4843756"><ele>147.79999999999998</ele><time>2026-03-28T09:07:06.836Z</time></trkpt><trkpt lat="45.4478389" lon="10.484363"><ele>148.6</ele><time>2026-03-28T09:07:08.836Z</time></trkpt><trkpt lat="45.4477478" lon="10.4842671"><ele>149.39999999999998</ele><time>2026-03-28T09:07:18.836Z</time></trkpt><trkpt lat="45.4476384" lon="10.4841758"><ele>150.2</ele><time>2026-03-28T09:07:20.836Z</time></trkpt><trkpt lat="45.4475749" lon="10.4840948"><ele>151.0</ele><time>2026-03-28T09:07:21.837Z</time></trkpt><trkpt lat="45.4475207" lon="10.483999"><ele>151.0</ele><time>2026-03-28T09:07:22.836Z</time></trkpt><trkpt lat="45.4474644" lon="10.4839376"><ele>151.0</ele><time>2026-03-28T09:07:23.836Z</time></trkpt><trkpt lat="45.4474023" lon="10.4838937"><ele>151.0</ele><time>2026-03-28T09:07:24.836Z</time></trkpt><trkpt lat="45.4473097" lon="10.4838449"><ele>151.0</ele><time>2026-03-28T09:07:25.836Z</time></trkpt><trkpt lat="45.4472335" lon="10.48382"><ele>151.0</ele><time>2026-03-28T09:07:26.837Z</time></trkpt><trkpt lat="45.447144" lon="10.4837992"><ele>151.0</ele><time>2026-03-28T09:07:27.836Z</time></trkpt><trkpt lat="45.4470498" lon="10.4837851"><ele>151.5</ele><time>2026-03-28T09:07:28.836Z</time></trkpt><trkpt lat="45.4469511" lon="10.4837671"><ele>152.0</ele><time>2026-03-28T09:07:29.836Z</time></trkpt><trkpt lat="45.4468426" lon="10.483737"><ele>152.5</ele><time>2026-03-28T09:07:30.837Z</time></trkpt><trkpt lat="45.4467231" lon="10.483706"><ele>153.0</ele><time>2026-03-28T09:07:31.836Z</time></trkpt><trkpt lat="45.4466034" lon="10.4836758"><ele>150.75</ele><time>2026-03-28T09:07:32.836Z</time></trkpt><trkpt lat="45.4464711" lon="10.4836446"><ele>148.5</ele><time>2026-03-28T09:07:33.836Z</time></trkpt><trkpt lat="45.4463309" lon="10.4836073"><ele>146.25</ele><time>2026-03-28T09:07:34.837Z</time></trkpt><trkpt lat="45.446188" lon="10.4835846"><ele>144.0</ele><time>2026-03-28T09:07:35.837Z</time></trkpt><trkpt lat="45.4460459" lon="10.4835599"><ele>143.75</ele><time>2026-03-28T09:07:36.836Z</time></trkpt><trkpt lat="45.4459047" lon="10.4835401"><ele>143.5</ele><time>2026-03-28T09:07:37.837Z</time></trkpt><trkpt lat="45.4457634" lon="10.4835133"><ele>143.25</ele><time>2026-03-28T09:07:38.836Z</time></trkpt><trkpt lat="45.4456353" lon="10.4834924"><ele>143.0</ele><time>2026-03-28T09:07:39.836Z</time></trkpt><trkpt lat="45.4455108" lon="10.4834703"><ele>143.25</ele><time>2026-03-28T09:07:40.836Z</time></trkpt><trkpt lat="45.4453831" lon="10.4834498"><ele>143.5</ele><time>2026-03-28T09:07:41.837Z</time></trkpt><trkpt lat="45.4452559" lon="10.4834291"><ele>143.75</ele><time>2026-03-28T09:07:42.836Z</time></trkpt><trkpt lat="45.445125" lon="10.4833978"><ele>144.0</ele><time>2026-03-28T09:07:43.837Z</time></trkpt><trkpt lat="45.4449942" lon="10.4833646"><ele>144.0</ele><time>2026-03-28T09:07:44.836Z</time></trkpt><trkpt lat="45.4448586" lon="10.4833322"><ele>144.0</ele><time>2026-03-28T09:07:45.836Z</time></trkpt><trkpt lat="45.4447215" lon="10.483306"><ele>144.0</ele><time>2026-03-28T09:07:46.836Z</time></trkpt><trkpt lat="45.4445864" lon="10.4832877"><ele>144.0</ele><time>2026-03-28T09:07:47.836Z</time></trkpt><trkpt lat="45.4444552" lon="10.4832697"><ele>144.0</ele><time>2026-03-28T09:07:48.837Z</time></trkpt><trkpt lat="45.4443234" lon="10.4832514"><ele>144.0</ele><time>2026-03-28T09:07:49.836Z</time></trkpt><trkpt lat="45.444198" lon="10.4832328"><ele>144.0</ele><time>2026-03-28T09:07:50.837Z</time></trkpt><trkpt lat="45.4440876" lon="10.4832084"><ele>144.0</ele><time>2026-03-28T09:07:51.836Z</time></trkpt><trkpt lat="45.4439757" lon="10.4831773"><ele>144.0</ele><time>2026-03-28T09:07:52.836Z</time></trkpt><trkpt lat="45.4438537" lon="10.4831403"><ele>144.0</ele><time>2026-03-28T09:07:53.836Z</time></trkpt><trkpt lat="45.4437276" lon="10.4831026"><ele>144.0</ele><time>2026-03-28T09:07:54.837Z</time></trkpt><trkpt lat="45.4435994" lon="10.4830707"><ele>144.0</ele><time>2026-03-28T09:07:55.837Z</time></trkpt><trkpt lat="45.443469" lon="10.4830492"><ele>144.25</ele><time>2026-03-28T09:07:56.836Z</time></trkpt><trkpt lat="45.4433389" lon="10.4830274"><ele>144.5</ele><time>2026-03-28T09:07:57.837Z</time></trkpt><trkpt lat="45.4432115" lon="10.4829983"><ele>144.75</ele><time>2026-03-28T09:07:58.837Z</time></trkpt><trkpt lat="45.4430852" lon="10.482966"><ele>145.0</ele><time>2026-03-28T09:07:59.837Z</time></trkpt><trkpt lat="45.4429616" lon="10.4829398"><ele>144.0</ele><time>2026-03-28T09:08:00.837Z</time></trkpt><trkpt lat="45.4428337" lon="10.482898"><ele>143.0</ele><time>2026-03-28T09:08:01.836Z</time></trkpt><trkpt lat="45.4427082" lon="10.4828337"><ele>142.0</ele><time>2026-03-28T09:08:02.836Z</time></trkpt><trkpt lat="45.4425794" lon="10.4827549"><ele>141.0</ele><time>2026-03-28T09:08:03.837Z</time></trkpt><trkpt lat="45.4424572" lon="10.4826648"><ele>141.0</ele><time>2026-03-28T09:08:04.837Z</time></trkpt><trkpt lat="45.4423343" lon="10.4825662"><ele>141.0</ele><time>2026-03-28T09:08:05.836Z</time></trkpt><trkpt lat="45.4422115" lon="10.4824742"><ele>141.0</ele><time>2026-03-28T09:08:06.836Z</time></trkpt><trkpt lat="45.4420925" lon="10.4823884"><ele>141.0</ele><time>2026-03-28T09:08:07.836Z</time></trkpt><trkpt lat="45.4419667" lon="10.4822916"><ele>141.0</ele><time>2026-03-28T09:08:08.836Z</time></trkpt><trkpt lat="45.4418428" lon="10.4821905"><ele>141.0</ele><time>2026-03-28T09:08:09.836Z</time></trkpt><trkpt lat="45.4417125" lon="10.4820935"><ele>141.0</ele><time>2026-03-28T09:08:10.836Z</time></trkpt><trkpt lat="45.4415828" lon="10.4819987"><ele>141.0</ele><time>2026-03-28T09:08:11.836Z</time></trkpt><trkpt lat="45.4414481" lon="10.4818954"><ele>140.25</ele><time>2026-03-28T09:08:12.836Z</time></trkpt><trkpt lat="45.4413192" lon="10.4818009"><ele>139.5</ele><time>2026-03-28T09:08:13.837Z</time></trkpt><trkpt lat="45.4411907" lon="10.4817101"><ele>138.75</ele><time>2026-03-28T09:08:14.836Z</time></trkpt><trkpt lat="45.4410665" lon="10.4816202"><ele>138.0</ele><time>2026-03-28T09:08:15.837Z</time></trkpt><trkpt lat="45.4409412" lon="10.4815308"><ele>138.0</ele><time>2026-03-28T09:08:16.836Z</time></trkpt><trkpt lat="45.4408169" lon="10.481437"><ele>138.0</ele><time>2026-03-28T09:08:17.836Z</time></trkpt><trkpt lat="45.4406912" lon="10.4813448"><ele>138.0</ele><time>2026-03-28T09:08:18.836Z</time></trkpt><trkpt lat="45.4405716" lon="10.4812552"><ele>138.0</ele><time>2026-03-28T09:08:19.836Z</time></trkpt><trkpt lat="45.4404542" lon="10.4811707"><ele>137.0</ele><time>2026-03-28T09:08:20.836Z</time></trkpt><trkpt lat="45.4403275" lon="10.4811042"><ele>136.0</ele><time>2026-03-28T09:08:21.837Z</time></trkpt><trkpt lat="45.4401922" lon="10.4810471"><ele>135.0</ele><time>2026-03-28T09:08:22.837Z</time></trkpt><trkpt lat="45.4400569" lon="10.4809893"><ele>134.0</ele><time>2026-03-28T09:08:23.836Z</time></trkpt><trkpt lat="45.4399165" lon="10.4809427"><ele>134.0</ele><time>2026-03-28T09:08:24.836Z</time></trkpt><trkpt lat="45.4397769" lon="10.4808992"><ele>134.0</ele><time>2026-03-28T09:08:25.836Z</time></trkpt><trkpt lat="45.4396336" lon="10.4808654"><ele>134.0</ele><time>2026-03-28T09:08:26.836Z</time></trkpt><trkpt lat="45.439491" lon="10.4808289"><ele>134.0</ele><time>2026-03-28T09:08:27.836Z</time></trkpt><trkpt lat="45.4393471" lon="10.48079"><ele>134.25</ele><time>2026-03-28T09:08:28.836Z</time></trkpt><trkpt lat="45.4392001" lon="10.4807524"><ele>134.5</ele><time>2026-03-28T09:08:29.836Z</time></trkpt><trkpt lat="45.43906" lon="10.4807129"><ele>134.75</ele><time>2026-03-28T09:08:30.836Z</time></trkpt><trkpt lat="45.4389211" lon="10.4806756"><ele>135.0</ele><time>2026-03-28T09:08:31.836Z</time></trkpt><trkpt lat="45.4387934" lon="10.4806416"><ele>134.6</ele><time>2026-03-28T09:08:32.836Z</time></trkpt><trkpt lat="45.4386807" lon="10.4806096"><ele>134.2</ele><time>2026-03-28T09:08:33.837Z</time></trkpt><trkpt lat="45.4385766" lon="10.4805818"><ele>133.8</ele><time>2026-03-28T09:08:34.837Z</time></trkpt><trkpt lat="45.4384838" lon="10.4805574"><ele>133.4</ele><time>2026-03-28T09:08:35.836Z</time></trkpt><trkpt lat="45.4383949" lon="10.4805372"><ele>133.0</ele><time>2026-03-28T09:08:36.836Z</time></trkpt><trkpt lat="45.4382936" lon="10.4805025"><ele>133.0</ele><time>2026-03-28T09:08:37.836Z</time></trkpt><trkpt lat="45.4381804" lon="10.4804677"><ele>133.0</ele><time>2026-03-28T09:08:38.836Z</time></trkpt><trkpt lat="45.4380573" lon="10.4804444"><ele>133.0</ele><time>2026-03-28T09:08:39.837Z</time></trkpt><trkpt lat="45.43793" lon="10.4804317"><ele>133.0</ele><time>2026-03-28T09:08:40.836Z</time></trkpt><trkpt lat="45.4377983" lon="10.4804261"><ele>132.25</ele><time>2026-03-28T09:08:41.836Z</time></trkpt><trkpt lat="45.4376619" lon="10.480424"><ele>131.5</ele><time>2026-03-28T09:08:42.836Z</time></trkpt><trkpt lat="45.4375193" lon="10.4804248"><ele>130.75</ele><time>2026-03-28T09:08:43.837Z</time></trkpt><trkpt lat="45.4373752" lon="10.4804267"><ele>130.0</ele><time>2026-03-28T09:08:44.836Z</time></trkpt><trkpt lat="45.4372309" lon="10.4804279"><ele>129.75</ele><time>2026-03-28T09:08:45.837Z</time></trkpt><trkpt lat="45.4370865" lon="10.4804294"><ele>129.5</ele><time>2026-03-28T09:08:46.836Z</time></trkpt><trkpt lat="45.4369432" lon="10.4804321"><ele>129.25</ele><time>2026-03-28T09:08:47.837Z</time></trkpt><trkpt lat="45.4368036" lon="10.4804348"><ele>129.0</ele><time>2026-03-28T09:08:48.836Z</time></trkpt><trkpt lat="45.4366615" lon="10.4804463"><ele>129.5</ele><time>2026-03-28T09:08:49.837Z</time></trkpt><trkpt lat="45.4365175" lon="10.4804758"><ele>130.0</ele><time>2026-03-28T09:08:50.836Z</time></trkpt><trkpt lat="45.4363738" lon="10.4805255"><ele>130.5</ele><time>2026-03-28T09:08:51.836Z</time></trkpt><trkpt lat="45.4362292" lon="10.4805911"><ele>131.0</ele><time>2026-03-28T09:08:52.836Z</time></trkpt><trkpt lat="45.4360832" lon="10.4806634"><ele>131.0</ele><time>2026-03-28T09:08:53.836Z</time></trkpt><trkpt lat="45.4359364" lon="10.4807401"><ele>131.0</ele><time>2026-03-28T09:08:54.837Z</time></trkpt><trkpt lat="45.4357888" lon="10.4808214"><ele>131.0</ele><time>2026-03-28T09:08:55.836Z</time></trkpt><trkpt lat="45.4356393" lon="10.4809074"><ele>131.0</ele><time>2026-03-28T09:08:56.836Z</time></trkpt><trkpt lat="45.4354881" lon="10.4809921"><ele>131.0</ele><time>2026-03-28T09:08:57.836Z</time></trkpt><trkpt lat="45.4353496" lon="10.4810601"><ele>131.0</ele><time>2026-03-28T09:08:58.836Z</time></trkpt><trkpt lat="45.4352186" lon="10.4811211"><ele>131.0</ele><time>2026-03-28T09:08:59.836Z</time></trkpt><trkpt lat="45.4350891" lon="10.4811781"><ele>131.0</ele><time>2026-03-28T09:09:00.836Z</time></trkpt><trkpt lat="45.4349569" lon="10.4812442"><ele>131.0</ele><time>2026-03-28T09:09:01.836Z</time></trkpt><trkpt lat="45.4348157" lon="10.4813003"><ele>131.0</ele><time>2026-03-28T09:09:02.836Z</time></trkpt><trkpt lat="45.4346649" lon="10.481336"><ele>131.0</ele><time>2026-03-28T09:09:03.836Z</time></trkpt><trkpt lat="45.4345077" lon="10.4813618"><ele>131.0</ele><time>2026-03-28T09:09:04.836Z</time></trkpt><trkpt lat="45.4343455" lon="10.4813811"><ele>131.0</ele><time>2026-03-28T09:09:05.836Z</time></trkpt><trkpt lat="45.434183" lon="10.4813973"><ele>131.0</ele><time>2026-03-28T09:09:06.836Z</time></trkpt><trkpt lat="45.4340177" lon="10.4814024"><ele>131.0</ele><time>2026-03-28T09:09:07.836Z</time></trkpt><trkpt lat="45.4338551" lon="10.4813901"><ele>131.0</ele><time>2026-03-28T09:09:08.836Z</time></trkpt><trkpt lat="45.4336945" lon="10.4813626"><ele>131.0</ele><time>2026-03-28T09:09:09.836Z</time></trkpt><trkpt lat="45.4335375" lon="10.4813156"><ele>130.33333333333331</ele><time>2026-03-28T09:09:10.837Z</time></trkpt><trkpt lat="45.4333768" lon="10.4812513"><ele>129.66666666666666</ele><time>2026-03-28T09:09:11.836Z</time></trkpt><trkpt lat="45.4332157" lon="10.4811737"><ele>129.0</ele><time>2026-03-28T09:09:12.836Z</time></trkpt><trkpt lat="45.4330504" lon="10.4810889"><ele>130.0</ele><time>2026-03-28T09:09:13.837Z</time></trkpt><trkpt lat="45.4328829" lon="10.480998"><ele>131.0</ele><time>2026-03-28T09:09:14.836Z</time></trkpt><trkpt lat="45.4327164" lon="10.4809"><ele>132.0</ele><time>2026-03-28T09:09:15.836Z</time></trkpt><trkpt lat="45.432549" lon="10.4807927"><ele>132.0</ele><time>2026-03-28T09:09:16.836Z</time></trkpt><trkpt lat="45.4323808" lon="10.480693"><ele>132.0</ele><time>2026-03-28T09:09:17.836Z</time></trkpt><trkpt lat="45.4322075" lon="10.4805988"><ele>132.0</ele><time>2026-03-28T09:09:18.836Z</time></trkpt><trkpt lat="45.4320322" lon="10.4805157"><ele>132.33333333333334</ele><time>2026-03-28T09:09:19.837Z</time></trkpt><trkpt lat="45.4318564" lon="10.4804396"><ele>132.66666666666669</ele><time>2026-03-28T09:09:20.836Z</time></trkpt><trkpt lat="45.4316785" lon="10.4803778"><ele>133.0</ele><time>2026-03-28T09:09:21.837Z</time></trkpt><trkpt lat="45.4314975" lon="10.4803289"><ele>131.66666666666669</ele><time>2026-03-28T09:09:22.836Z</time></trkpt><trkpt lat="45.4313156" lon="10.4802794"><ele>130.33333333333334</ele><time>2026-03-28T09:09:23.837Z</time></trkpt><trkpt lat="45.4311384" lon="10.4802272"><ele>129.0</ele><time>2026-03-28T09:09:24.836Z</time></trkpt><trkpt lat="45.4309675" lon="10.4801802"><ele>129.0</ele><time>2026-03-28T09:09:25.836Z</time></trkpt><trkpt lat="45.4307972" lon="10.4801377"><ele>129.0</ele><time>2026-03-28T09:09:26.836Z</time></trkpt><trkpt lat="45.430627" lon="10.4800949"><ele>129.0</ele><time>2026-03-28T09:09:27.836Z</time></trkpt><trkpt lat="45.4304584" lon="10.4800541"><ele>129.66666666666666</ele><time>2026-03-28T09:09:28.836Z</time></trkpt><trkpt lat="45.4302893" lon="10.4800069"><ele>130.33333333333331</ele><time>2026-03-28T09:09:29.837Z</time></trkpt><trkpt lat="45.4301212" lon="10.4799616"><ele>131.0</ele><time>2026-03-28T09:09:30.836Z</time></trkpt><trkpt lat="45.4299546" lon="10.4799168"><ele>131.0</ele><time>2026-03-28T09:09:31.837Z</time></trkpt><trkpt lat="45.4297904" lon="10.4798734"><ele>131.0</ele><time>2026-03-28T09:09:32.837Z</time></trkpt><trkpt lat="45.4296265" lon="10.4798286"><ele>131.0</ele><time>2026-03-28T09:09:33.836Z</time></trkpt><trkpt lat="45.4294652" lon="10.4797894"><ele>130.0</ele><time>2026-03-28T09:09:34.837Z</time></trkpt><trkpt lat="45.4292972" lon="10.4797632"><ele>129.0</ele><time>2026-03-28T09:09:35.837Z</time></trkpt><trkpt lat="45.4291227" lon="10.4797518"><ele>128.0</ele><time>2026-03-28T09:09:36.837Z</time></trkpt><trkpt lat="45.4289455" lon="10.4797474"><ele>127.0</ele><time>2026-03-28T09:09:37.836Z</time></trkpt><trkpt lat="45.4287668" lon="10.4797471"><ele>126.0</ele><time>2026-03-28T09:09:38.836Z</time></trkpt><trkpt lat="45.4285864" lon="10.4797481"><ele>125.0</ele><time>2026-03-28T09:09:39.836Z</time></trkpt><trkpt lat="45.428405" lon="10.4797491"><ele>125.0</ele><time>2026-03-28T09:09:40.836Z</time></trkpt><trkpt lat="45.4282246" lon="10.4797545"><ele>125.0</ele><time>2026-03-28T09:09:41.836Z</time></trkpt><trkpt lat="45.4280426" lon="10.4797589"><ele>125.0</ele><time>2026-03-28T09:09:42.837Z</time></trkpt><trkpt lat="45.427869" lon="10.4797619"><ele>125.33333333333333</ele><time>2026-03-28T09:09:43.836Z</time></trkpt><trkpt lat="45.4276935" lon="10.4797632"><ele>125.66666666666666</ele><time>2026-03-28T09:09:44.836Z</time></trkpt><trkpt lat="45.4275161" lon="10.4797587"><ele>126.0</ele><time>2026-03-28T09:09:45.836Z</time></trkpt><trkpt lat="45.4273409" lon="10.4797436"><ele>126.0</ele><time>2026-03-28T09:09:46.836Z</time></trkpt><trkpt lat="45.4271676" lon="10.4797182"><ele>126.0</ele><time>2026-03-28T09:09:47.836Z</time></trkpt><trkpt lat="45.4269961" lon="10.4796825"><ele>126.0</ele><time>2026-03-28T09:09:48.837Z</time></trkpt><trkpt lat="45.426829" lon="10.4796387"><ele>124.66666666666666</ele><time>2026-03-28T09:09:49.836Z</time></trkpt><trkpt lat="45.4266626" lon="10.4795825"><ele>123.33333333333333</ele><time>2026-03-28T09:09:50.836Z</time></trkpt><trkpt lat="45.4264951" lon="10.4795266"><ele>122.0</ele><time>2026-03-28T09:09:51.837Z</time></trkpt><trkpt lat="45.4263301" lon="10.4794729"><ele>122.66666666666666</ele><time>2026-03-28T09:09:52.837Z</time></trkpt><trkpt lat="45.4261657" lon="10.4794219"><ele>123.33333333333334</ele><time>2026-03-28T09:09:53.836Z</time></trkpt><trkpt lat="45.4260029" lon="10.4793673"><ele>124.0</ele><time>2026-03-28T09:09:54.837Z</time></trkpt><trkpt lat="45.42584" lon="10.4793127"><ele>124.0</ele><time>2026-03-28T09:09:55.836Z</time></trkpt><trkpt lat="45.4256794" lon="10.4792552"><ele>124.0</ele><time>2026-03-28T09:09:56.836Z</time></trkpt><trkpt lat="45.4255215" lon="10.4792002"><ele>124.0</ele><time>2026-03-28T09:09:57.836Z</time></trkpt><trkpt lat="45.4253653" lon="10.4791441"><ele>124.33333333333334</ele><time>2026-03-28T09:09:58.837Z</time></trkpt><trkpt lat="45.4252138" lon="10.4790904"><ele>124.66666666666666</ele><time>2026-03-28T09:09:59.836Z</time></trkpt><trkpt lat="45.4250626" lon="10.4790379"><ele>125.0</ele><time>2026-03-28T09:10:00.837Z</time></trkpt><trkpt lat="45.4249143" lon="10.4789848"><ele>125.0</ele><time>2026-03-28T09:10:01.836Z</time></trkpt><trkpt lat="45.4247666" lon="10.4789307"><ele>125.0</ele><time>2026-03-28T09:10:02.837Z</time></trkpt><trkpt lat="45.4246211" lon="10.4788765"><ele>125.0</ele><time>2026-03-28T09:10:03.836Z</time></trkpt><trkpt lat="45.4244775" lon="10.4788193"><ele>124.25</ele><time>2026-03-28T09:10:04.837Z</time></trkpt><trkpt lat="45.4243303" lon="10.4787515"><ele>123.5</ele><time>2026-03-28T09:10:05.836Z</time></trkpt><trkpt lat="45.4241988" lon="10.478713"><ele>122.75</ele><time>2026-03-28T09:10:06.836Z</time></trkpt><trkpt lat="45.42406" lon="10.4786601"><ele>122.0</ele><time>2026-03-28T09:10:07.836Z</time></trkpt><trkpt lat="45.4239306" lon="10.4786094"><ele>122.0</ele><time>2026-03-28T09:10:08.836Z</time></trkpt><trkpt lat="45.4238159" lon="10.4785571"><ele>122.0</ele><time>2026-03-28T09:10:09.836Z</time></trkpt><trkpt lat="45.4236983" lon="10.4785021"><ele>122.0</ele><time>2026-03-28T09:10:10.837Z</time></trkpt><trkpt lat="45.4235799" lon="10.4784532"><ele>122.0</ele><time>2026-03-28T09:10:11.836Z</time></trkpt><trkpt lat="45.4234527" lon="10.4784077"><ele>122.25</ele><time>2026-03-28T09:10:12.837Z</time></trkpt><trkpt lat="45.4233271" lon="10.4783537"><ele>122.5</ele><time>2026-03-28T09:10:13.836Z</time></trkpt><trkpt lat="45.4231995" lon="10.4782889"><ele>122.75</ele><time>2026-03-28T09:10:14.837Z</time></trkpt><trkpt lat="45.423071" lon="10.4782136"><ele>123.0</ele><time>2026-03-28T09:10:15.837Z</time></trkpt><trkpt lat="45.4229387" lon="10.4781379"><ele>123.5</ele><time>2026-03-28T09:10:16.836Z</time></trkpt><trkpt lat="45.4228034" lon="10.4780642"><ele>124.0</ele><time>2026-03-28T09:10:17.837Z</time></trkpt><trkpt lat="45.4226675" lon="10.4779868"><ele>124.5</ele><time>2026-03-28T09:10:18.837Z</time></trkpt><trkpt lat="45.4225324" lon="10.4779154"><ele>125.0</ele><time>2026-03-28T09:10:19.837Z</time></trkpt><trkpt lat="45.422393" lon="10.4778395"><ele>123.0</ele><time>2026-03-28T09:10:20.837Z</time></trkpt><trkpt lat="45.4222558" lon="10.477761"><ele>121.0</ele><time>2026-03-28T09:10:21.836Z</time></trkpt><trkpt lat="45.4221144" lon="10.4776769"><ele>119.0</ele><time>2026-03-28T09:10:22.837Z</time></trkpt><trkpt lat="45.4219755" lon="10.4775951"><ele>119.0</ele><time>2026-03-28T09:10:23.836Z</time></trkpt><trkpt lat="45.4218424" lon="10.4775211"><ele>119.0</ele><time>2026-03-28T09:10:24.836Z</time></trkpt><trkpt lat="45.4217076" lon="10.4774472"><ele>119.0</ele><time>2026-03-28T09:10:25.837Z</time></trkpt><trkpt lat="45.4215708" lon="10.4773794"><ele>119.0</ele><time>2026-03-28T09:10:26.837Z</time></trkpt><trkpt lat="45.4214279" lon="10.4773238"><ele>119.66666666666666</ele><time>2026-03-28T09:10:27.837Z</time></trkpt><trkpt lat="45.4212824" lon="10.4772778"><ele>120.33333333333334</ele><time>2026-03-28T09:10:28.836Z</time></trkpt><trkpt lat="45.4211344" lon="10.4772368"><ele>121.0</ele><time>2026-03-28T09:10:29.836Z</time></trkpt><trkpt lat="45.4209858" lon="10.4771977"><ele>121.0</ele><time>2026-03-28T09:10:30.837Z</time></trkpt><trkpt lat="45.4208342" lon="10.4771576"><ele>121.0</ele><time>2026-03-28T09:10:31.837Z</time></trkpt><trkpt lat="45.4206843" lon="10.4771192"><ele>121.0</ele><time>2026-03-28T09:10:32.836Z</time></trkpt><trkpt lat="45.4205337" lon="10.4770777"><ele>119.0</ele><time>2026-03-28T09:10:33.837Z</time></trkpt><trkpt lat="45.4203775" lon="10.4770417"><ele>117.0</ele><time>2026-03-28T09:10:34.836Z</time></trkpt><trkpt lat="45.4202197" lon="10.4770015"><ele>115.0</ele><time>2026-03-28T09:10:35.836Z</time></trkpt><trkpt lat="45.4200616" lon="10.4769598"><ele>115.0</ele><time>2026-03-28T09:10:36.836Z</time></trkpt><trkpt lat="45.4199037" lon="10.4769205"><ele>115.0</ele><time>2026-03-28T09:10:37.836Z</time></trkpt><trkpt lat="45.4197491" lon="10.4768782"><ele>115.0</ele><time>2026-03-28T09:10:38.837Z</time></trkpt><trkpt lat="45.419592" lon="10.4768378"><ele>115.5</ele><time>2026-03-28T09:10:39.836Z</time></trkpt><trkpt lat="45.4194437" lon="10.4768014"><ele>116.0</ele><time>2026-03-28T09:10:40.836Z</time></trkpt><trkpt lat="45.4193093" lon="10.4767688"><ele>116.5</ele><time>2026-03-28T09:10:41.836Z</time></trkpt><trkpt lat="45.4191889" lon="10.4767419"><ele>117.0</ele><time>2026-03-28T09:10:42.836Z</time></trkpt><trkpt lat="45.4190836" lon="10.4767148"><ele>117.0</ele><time>2026-03-28T09:10:43.836Z</time></trkpt><trkpt lat="45.4189968" lon="10.4766921"><ele>117.0</ele><time>2026-03-28T09:10:44.836Z</time></trkpt><trkpt lat="45.4189028" lon="10.4766829"><ele>117.0</ele><time>2026-03-28T09:10:46.836Z</time></trkpt><trkpt lat="45.4188408" lon="10.4766552"><ele>117.0</ele><time>2026-03-28T09:10:50.837Z</time></trkpt><trkpt lat="45.4187594" lon="10.4766426"><ele>117.0</ele><time>2026-03-28T09:10:52.836Z</time></trkpt><trkpt lat="45.418682" lon="10.4767197"><ele>117.0</ele><time>2026-03-28T09:10:54.836Z</time></trkpt><trkpt lat="45.4186697" lon="10.4768102"><ele>116.6</ele><time>2026-03-28T09:10:55.836Z</time></trkpt><trkpt lat="45.4186745" lon="10.476929"><ele>116.19999999999999</ele><time>2026-03-28T09:10:56.836Z</time></trkpt><trkpt lat="45.4186576" lon="10.4770559"><ele>115.8</ele><time>2026-03-28T09:10:57.836Z</time></trkpt><trkpt lat="45.4186064" lon="10.4771905"><ele>115.4</ele><time>2026-03-28T09:10:58.837Z</time></trkpt><trkpt lat="45.4185352" lon="10.4773353"><ele>115.0</ele><time>2026-03-28T09:10:59.836Z</time></trkpt><trkpt lat="45.4184555" lon="10.477476"><ele>116.25</ele><time>2026-03-28T09:11:00.836Z</time></trkpt><trkpt lat="45.4183661" lon="10.4776137"><ele>117.5</ele><time>2026-03-28T09:11:01.836Z</time></trkpt><trkpt lat="45.4182709" lon="10.4777466"><ele>118.75</ele><time>2026-03-28T09:11:02.835Z</time></trkpt><trkpt lat="45.4181904" lon="10.4778893"><ele>120.0</ele><time>2026-03-28T09:11:03.836Z</time></trkpt><trkpt lat="45.4181061" lon="10.4780444"><ele>119.5</ele><time>2026-03-28T09:11:04.837Z</time></trkpt><trkpt lat="45.4180456" lon="10.478211"><ele>119.0</ele><time>2026-03-28T09:11:05.836Z</time></trkpt><trkpt lat="45.4179802" lon="10.4784036"><ele>118.5</ele><time>2026-03-28T09:11:06.836Z</time></trkpt><trkpt lat="45.4179621" lon="10.4786286"><ele>118.0</ele><time>2026-03-28T09:11:07.836Z</time></trkpt><trkpt lat="45.4179132" lon="10.4787979"><ele>119.25</ele><time>2026-03-28T09:11:08.836Z</time></trkpt><trkpt lat="45.4178721" lon="10.4789677"><ele>120.5</ele><time>2026-03-28T09:11:09.837Z</time></trkpt><trkpt lat="45.4178392" lon="10.4791286"><ele>121.75</ele><time>2026-03-28T09:11:10.837Z</time></trkpt><trkpt lat="45.417844" lon="10.4792898"><ele>123.0</ele><time>2026-03-28T09:11:11.837Z</time></trkpt><trkpt lat="45.4178883" lon="10.4794685"><ele>122.75</ele><time>2026-03-28T09:11:12.837Z</time></trkpt><trkpt lat="45.4179502" lon="10.4796476"><ele>122.5</ele><time>2026-03-28T09:11:13.837Z</time></trkpt><trkpt lat="45.4180179" lon="10.479823"><ele>122.25</ele><time>2026-03-28T09:11:14.836Z</time></trkpt><trkpt lat="45.4180815" lon="10.4799985"><ele>122.0</ele><time>2026-03-28T09:11:15.836Z</time></trkpt><trkpt lat="45.4181361" lon="10.4801791"><ele>123.25</ele><time>2026-03-28T09:11:16.837Z</time></trkpt><trkpt lat="45.4181811" lon="10.4803511"><ele>124.5</ele><time>2026-03-28T09:11:17.837Z</time></trkpt><trkpt lat="45.4182283" lon="10.4805073"><ele>125.75</ele><time>2026-03-28T09:11:18.836Z</time></trkpt><trkpt lat="45.4182962" lon="10.4806549"><ele>127.0</ele><time>2026-03-28T09:11:19.836Z</time></trkpt><trkpt lat="45.4183804" lon="10.4807804"><ele>127.0</ele><time>2026-03-28T09:11:20.836Z</time></trkpt><trkpt lat="45.4184781" lon="10.4808855"><ele>126.99999999999999</ele><time>2026-03-28T09:11:21.837Z</time></trkpt><trkpt lat="45.418567" lon="10.4809796"><ele>126.99999999999999</ele><time>2026-03-28T09:11:22.836Z</time></trkpt><trkpt lat="45.4186482" lon="10.4810705"><ele>127.0</ele><time>2026-03-28T09:11:23.836Z</time></trkpt><trkpt lat="45.4187084" lon="10.4811715"><ele>127.0</ele><time>2026-03-28T09:11:24.836Z</time></trkpt><trkpt lat="45.4187438" lon="10.4812833"><ele>126.50000000000001</ele><time>2026-03-28T09:11:25.836Z</time></trkpt><trkpt lat="45.4187561" lon="10.481403"><ele>126.0</ele><time>2026-03-28T09:11:26.837Z</time></trkpt><trkpt lat="45.4187324" lon="10.4815251"><ele>125.5</ele><time>2026-03-28T09:11:27.836Z</time></trkpt><trkpt lat="45.4187066" lon="10.4816242"><ele>125.0</ele><time>2026-03-28T09:11:28.836Z</time></trkpt><trkpt lat="45.4186576" lon="10.481764"><ele>124.50000000000001</ele><time>2026-03-28T09:11:30.836Z</time></trkpt><trkpt lat="45.4186577" lon="10.4818759"><ele>124.0</ele><time>2026-03-28T09:11:32.836Z</time></trkpt><trkpt lat="45.4187461" lon="10.482001"><ele>124.00000000000001</ele><time>2026-03-28T09:11:34.837Z</time></trkpt><trkpt lat="45.4187923" lon="10.4820889"><ele>124.0</ele><time>2026-03-28T09:11:35.836Z</time></trkpt><trkpt lat="45.4188262" lon="10.4821896"><ele>124.0</ele><time>2026-03-28T09:11:36.836Z</time></trkpt><trkpt lat="45.4188154" lon="10.4823323"><ele>124.0</ele><time>2026-03-28T09:11:37.836Z</time></trkpt><trkpt lat="45.4188162" lon="10.4824666"><ele>124.00000000000001</ele><time>2026-03-28T09:11:38.836Z</time></trkpt><trkpt lat="45.4188203" lon="10.4826026"><ele>124.0</ele><time>2026-03-28T09:11:39.836Z</time></trkpt><trkpt lat="45.4188219" lon="10.4827417"><ele>124.00000000000001</ele><time>2026-03-28T09:11:40.836Z</time></trkpt><trkpt lat="45.4188248" lon="10.482863"><ele>124.0</ele><time>2026-03-28T09:11:41.836Z</time></trkpt><trkpt lat="45.4188351" lon="10.4829683"><ele>124.0</ele><time>2026-03-28T09:11:42.837Z</time></trkpt><trkpt lat="45.418866" lon="10.4830536"><ele>124.0</ele><time>2026-03-28T09:11:43.836Z</time></trkpt><trkpt lat="45.4189283" lon="10.4831355"><ele>124.00000000000001</ele><time>2026-03-28T09:11:44.836Z</time></trkpt><trkpt lat="45.4190105" lon="10.4832121"><ele>124.0</ele><time>2026-03-28T09:11:45.836Z</time></trkpt><trkpt lat="45.4190966" lon="10.4833"><ele>124.2</ele><time>2026-03-28T09:11:46.836Z</time></trkpt><trkpt lat="45.4191773" lon="10.4833826"><ele>124.4</ele><time>2026-03-28T09:11:47.836Z</time></trkpt><trkpt lat="45.4192483" lon="10.4834787"><ele>124.6</ele><time>2026-03-28T09:11:48.837Z</time></trkpt><trkpt lat="45.419307" lon="10.4835874"><ele>124.8</ele><time>2026-03-28T09:11:49.837Z</time></trkpt><trkpt lat="45.4193533" lon="10.4836774"><ele>125.0</ele><time>2026-03-28T09:11:50.836Z</time></trkpt><trkpt lat="45.4193885" lon="10.4838106"><ele>125.6</ele><time>2026-03-28T09:11:52.836Z</time></trkpt><trkpt lat="45.4193806" lon="10.4839801"><ele>126.2</ele><time>2026-03-28T09:11:54.837Z</time></trkpt><trkpt lat="45.4193711" lon="10.4840955"><ele>126.80000000000001</ele><time>2026-03-28T09:11:55.836Z</time></trkpt><trkpt lat="45.4193569" lon="10.4842281"><ele>127.4</ele><time>2026-03-28T09:11:56.836Z</time></trkpt><trkpt lat="45.4193481" lon="10.4843592"><ele>128.0</ele><time>2026-03-28T09:11:57.836Z</time></trkpt><trkpt lat="45.4193532" lon="10.4844788"><ele>128.0</ele><time>2026-03-28T09:11:58.836Z</time></trkpt><trkpt lat="45.4193811" lon="10.484597"><ele>128.0</ele><time>2026-03-28T09:11:59.836Z</time></trkpt><trkpt lat="45.4194241" lon="10.4847084"><ele>128.0</ele><time>2026-03-28T09:12:00.836Z</time></trkpt><trkpt lat="45.4195017" lon="10.4848283"><ele>128.0</ele><time>2026-03-28T09:12:01.837Z</time></trkpt><trkpt lat="45.4195966" lon="10.4849461"><ele>128.0</ele><time>2026-03-28T09:12:02.837Z</time></trkpt><trkpt lat="45.4197023" lon="10.4850609"><ele>128.0</ele><time>2026-03-28T09:12:03.836Z</time></trkpt><trkpt lat="45.4198215" lon="10.4851717"><ele>128.0</ele><time>2026-03-28T09:12:04.836Z</time></trkpt><trkpt lat="45.4199527" lon="10.4852731"><ele>128.0</ele><time>2026-03-28T09:12:05.837Z</time></trkpt><trkpt lat="45.4201017" lon="10.4853664"><ele>130.75</ele><time>2026-03-28T09:12:06.836Z</time></trkpt><trkpt lat="45.4202304" lon="10.4854352"><ele>133.5</ele><time>2026-03-28T09:12:07.836Z</time></trkpt><trkpt lat="45.4203557" lon="10.4854773"><ele>136.25</ele><time>2026-03-28T09:12:08.836Z</time></trkpt><trkpt lat="45.4204828" lon="10.485502"><ele>139.0</ele><time>2026-03-28T09:12:09.837Z</time></trkpt><trkpt lat="45.4206177" lon="10.4855287"><ele>139.0</ele><time>2026-03-28T09:12:10.836Z</time></trkpt><trkpt lat="45.4207578" lon="10.4855286"><ele>139.0</ele><time>2026-03-28T09:12:11.836Z</time></trkpt><trkpt lat="45.4208967" lon="10.4855146"><ele>139.0</ele><time>2026-03-28T09:12:12.837Z</time></trkpt><trkpt lat="45.4210223" lon="10.4854936"><ele>139.0</ele><time>2026-03-28T09:12:13.836Z</time></trkpt><trkpt lat="45.4211461" lon="10.4854879"><ele>139.0</ele><time>2026-03-28T09:12:14.836Z</time></trkpt><trkpt lat="45.421269" lon="10.4854898"><ele>139.0</ele><time>2026-03-28T09:12:15.837Z</time></trkpt><trkpt lat="45.4213964" lon="10.4855307"><ele>139.0</ele><time>2026-03-28T09:12:16.836Z</time></trkpt><trkpt lat="45.4215243" lon="10.485571"><ele>139.0</ele><time>2026-03-28T09:12:17.836Z</time></trkpt><trkpt lat="45.4216411" lon="10.4856056"><ele>139.25</ele><time>2026-03-28T09:12:18.837Z</time></trkpt><trkpt lat="45.4217583" lon="10.4856442"><ele>139.5</ele><time>2026-03-28T09:12:19.836Z</time></trkpt><trkpt lat="45.4218678" lon="10.4856889"><ele>139.75</ele><time>2026-03-28T09:12:20.836Z</time></trkpt><trkpt lat="45.42197" lon="10.4857417"><ele>140.0</ele><time>2026-03-28T09:12:21.836Z</time></trkpt><trkpt lat="45.4220806" lon="10.4858131"><ele>140.4</ele><time>2026-03-28T09:12:22.836Z</time></trkpt><trkpt lat="45.4221714" lon="10.4859016"><ele>140.8</ele><time>2026-03-28T09:12:23.836Z</time></trkpt><trkpt lat="45.4222567" lon="10.4860179"><ele>141.2</ele><time>2026-03-28T09:12:24.837Z</time></trkpt><trkpt lat="45.4223201" lon="10.4861268"><ele>141.6</ele><time>2026-03-28T09:12:25.836Z</time></trkpt><trkpt lat="45.4223635" lon="10.4862353"><ele>142.0</ele><time>2026-03-28T09:12:26.836Z</time></trkpt><trkpt lat="45.4224029" lon="10.48636"><ele>142.5</ele><time>2026-03-28T09:12:27.836Z</time></trkpt><trkpt lat="45.4224284" lon="10.4865117"><ele>143.0</ele><time>2026-03-28T09:12:28.837Z</time></trkpt><trkpt lat="45.4224419" lon="10.4866802"><ele>143.5</ele><time>2026-03-28T09:12:29.837Z</time></trkpt><trkpt lat="45.4224313" lon="10.4868704"><ele>144.0</ele><time>2026-03-28T09:12:30.837Z</time></trkpt><trkpt lat="45.4224148" lon="10.4870817"><ele>144.75</ele><time>2026-03-28T09:12:31.836Z</time></trkpt><trkpt lat="45.4223999" lon="10.4873027"><ele>145.5</ele><time>2026-03-28T09:12:32.836Z</time></trkpt><trkpt lat="45.4224019" lon="10.4875128"><ele>146.25</ele><time>2026-03-28T09:12:33.836Z</time></trkpt><trkpt lat="45.4224231" lon="10.4877064"><ele>147.0</ele><time>2026-03-28T09:12:34.837Z</time></trkpt><trkpt lat="45.4224604" lon="10.4878995"><ele>147.75</ele><time>2026-03-28T09:12:35.836Z</time></trkpt><trkpt lat="45.4225084" lon="10.488037"><ele>148.5</ele><time>2026-03-28T09:12:36.836Z</time></trkpt><trkpt lat="45.4225721" lon="10.488169"><ele>149.25</ele><time>2026-03-28T09:12:37.836Z</time></trkpt><trkpt lat="45.4226538" lon="10.4882861"><ele>150.0</ele><time>2026-03-28T09:12:38.836Z</time></trkpt><trkpt lat="45.4227515" lon="10.4883888"><ele>150.0</ele><time>2026-03-28T09:12:39.836Z</time></trkpt><trkpt lat="45.4228769" lon="10.4884988"><ele>150.0</ele><time>2026-03-28T09:12:40.837Z</time></trkpt><trkpt lat="45.4230014" lon="10.4886148"><ele>150.0</ele><time>2026-03-28T09:12:41.836Z</time></trkpt><trkpt lat="45.4231294" lon="10.4887296"><ele>150.0</ele><time>2026-03-28T09:12:42.837Z</time></trkpt><trkpt lat="45.4232604" lon="10.4888355"><ele>150.75</ele><time>2026-03-28T09:12:43.836Z</time></trkpt><trkpt lat="45.4233866" lon="10.4889338"><ele>151.5</ele><time>2026-03-28T09:12:44.836Z</time></trkpt><trkpt lat="45.4235148" lon="10.4890306"><ele>152.25</ele><time>2026-03-28T09:12:45.836Z</time></trkpt><trkpt lat="45.4236376" lon="10.4891369"><ele>153.0</ele><time>2026-03-28T09:12:46.836Z</time></trkpt><trkpt lat="45.4237559" lon="10.4892604"><ele>153.0</ele><time>2026-03-28T09:12:47.836Z</time></trkpt><trkpt lat="45.4238676" lon="10.4894025"><ele>153.0</ele><time>2026-03-28T09:12:48.836Z</time></trkpt><trkpt lat="45.4239756" lon="10.4895511"><ele>153.0</ele><time>2026-03-28T09:12:49.837Z</time></trkpt><trkpt lat="45.4240801" lon="10.4897064"><ele>152.66666666666666</ele><time>2026-03-28T09:12:50.837Z</time></trkpt><trkpt lat="45.4241862" lon="10.4898576"><ele>152.33333333333331</ele><time>2026-03-28T09:12:51.837Z</time></trkpt><trkpt lat="45.4242978" lon="10.490005"><ele>152.0</ele><time>2026-03-28T09:12:52.836Z</time></trkpt><trkpt lat="45.4244151" lon="10.4901515"><ele>152.0</ele><time>2026-03-28T09:12:53.836Z</time></trkpt><trkpt lat="45.4245329" lon="10.4902951"><ele>152.0</ele><time>2026-03-28T09:12:54.836Z</time></trkpt><trkpt lat="45.4246526" lon="10.4904387"><ele>152.0</ele><time>2026-03-28T09:12:55.836Z</time></trkpt><trkpt lat="45.4247627" lon="10.490571"><ele>153.25</ele><time>2026-03-28T09:12:56.836Z</time></trkpt><trkpt lat="45.4248695" lon="10.4907033"><ele>154.5</ele><time>2026-03-28T09:12:57.837Z</time></trkpt><trkpt lat="45.424949" lon="10.490847"><ele>155.75</ele><time>2026-03-28T09:12:58.836Z</time></trkpt><trkpt lat="45.4250115" lon="10.4909813"><ele>157.0</ele><time>2026-03-28T09:12:59.836Z</time></trkpt><trkpt lat="45.4250518" lon="10.4911127"><ele>157.0</ele><time>2026-03-28T09:13:00.836Z</time></trkpt><trkpt lat="45.42507" lon="10.4912455"><ele>157.0</ele><time>2026-03-28T09:13:01.836Z</time></trkpt><trkpt lat="45.4250882" lon="10.4913495"><ele>157.0</ele><time>2026-03-28T09:13:02.837Z</time></trkpt><trkpt lat="45.4251128" lon="10.4914542"><ele>157.0</ele><time>2026-03-28T09:13:03.837Z</time></trkpt><trkpt lat="45.4250948" lon="10.4916252"><ele>157.0</ele><time>2026-03-28T09:13:04.837Z</time></trkpt><trkpt lat="45.4250607" lon="10.4918486"><ele>156.0</ele><time>2026-03-28T09:13:05.836Z</time></trkpt><trkpt lat="45.4250602" lon="10.4920324"><ele>155.0</ele><time>2026-03-28T09:13:06.836Z</time></trkpt><trkpt lat="45.4250551" lon="10.4922142"><ele>154.0</ele><time>2026-03-28T09:13:07.836Z</time></trkpt><trkpt lat="45.4250589" lon="10.4923794"><ele>153.0</ele><time>2026-03-28T09:13:08.837Z</time></trkpt><trkpt lat="45.4250742" lon="10.4925217"><ele>152.0</ele><time>2026-03-28T09:13:09.836Z</time></trkpt><trkpt lat="45.4251045" lon="10.4926477"><ele>151.0</ele><time>2026-03-28T09:13:10.837Z</time></trkpt><trkpt lat="45.4251575" lon="10.4927533"><ele>150.0</ele><time>2026-03-28T09:13:11.836Z</time></trkpt><trkpt lat="45.4252369" lon="10.4928412"><ele>149.0</ele><time>2026-03-28T09:13:12.837Z</time></trkpt><trkpt lat="45.425351" lon="10.4929335"><ele>148.0</ele><time>2026-03-28T09:13:13.836Z</time></trkpt><trkpt lat="45.4254886" lon="10.4930257"><ele>147.0</ele><time>2026-03-28T09:13:14.836Z</time></trkpt><trkpt lat="45.425623" lon="10.4931171"><ele>146.0</ele><time>2026-03-28T09:13:15.836Z</time></trkpt><trkpt lat="45.4257607" lon="10.4932054"><ele>145.0</ele><time>2026-03-28T09:13:16.837Z</time></trkpt><trkpt lat="45.4258978" lon="10.4932927"><ele>145.0</ele><time>2026-03-28T09:13:17.837Z</time></trkpt><trkpt lat="45.4260316" lon="10.4933737"><ele>145.0</ele><time>2026-03-28T09:13:18.836Z</time></trkpt><trkpt lat="45.4261721" lon="10.4934557"><ele>145.0</ele><time>2026-03-28T09:13:19.836Z</time></trkpt><trkpt lat="45.4263121" lon="10.4935406"><ele>145.0</ele><time>2026-03-28T09:13:20.837Z</time></trkpt><trkpt lat="45.426447" lon="10.4936341"><ele>144.25</ele><time>2026-03-28T09:13:21.837Z</time></trkpt><trkpt lat="45.426577" lon="10.4937427"><ele>143.5</ele><time>2026-03-28T09:13:22.837Z</time></trkpt><trkpt lat="45.4267002" lon="10.4938481"><ele>142.75</ele><time>2026-03-28T09:13:23.837Z</time></trkpt><trkpt lat="45.4268168" lon="10.4939526"><ele>142.0</ele><time>2026-03-28T09:13:24.836Z</time></trkpt><trkpt lat="45.4269153" lon="10.494035"><ele>142.0</ele><time>2026-03-28T09:13:25.837Z</time></trkpt><trkpt lat="45.4270082" lon="10.4940953"><ele>142.0</ele><time>2026-03-28T09:13:26.836Z</time></trkpt><trkpt lat="45.4270954" lon="10.4941337"><ele>142.0</ele><time>2026-03-28T09:13:27.837Z</time></trkpt><trkpt lat="45.4271928" lon="10.4941459"><ele>142.0</ele><time>2026-03-28T09:13:28.836Z</time></trkpt><trkpt lat="45.4272876" lon="10.49415"><ele>142.0</ele><time>2026-03-28T09:13:29.836Z</time></trkpt><trkpt lat="45.4274337" lon="10.4941203"><ele>142.75</ele><time>2026-03-28T09:13:30.837Z</time></trkpt><trkpt lat="45.427561" lon="10.4941095"><ele>143.5</ele><time>2026-03-28T09:13:31.836Z</time></trkpt><trkpt lat="45.4276954" lon="10.4940935"><ele>144.25</ele><time>2026-03-28T09:13:32.836Z</time></trkpt><trkpt lat="45.4278303" lon="10.4940833"><ele>145.0</ele><time>2026-03-28T09:13:33.836Z</time></trkpt><trkpt lat="45.427966" lon="10.494079"><ele>145.75</ele><time>2026-03-28T09:13:34.837Z</time></trkpt><trkpt lat="45.428092" lon="10.4940725"><ele>146.5</ele><time>2026-03-28T09:13:35.836Z</time></trkpt><trkpt lat="45.4282179" lon="10.4940813"><ele>147.25</ele><time>2026-03-28T09:13:36.836Z</time></trkpt><trkpt lat="45.4283322" lon="10.4941105"><ele>148.0</ele><time>2026-03-28T09:13:37.837Z</time></trkpt><trkpt lat="45.4284418" lon="10.4941697"><ele>148.0</ele><time>2026-03-28T09:13:38.836Z</time></trkpt><trkpt lat="45.4285503" lon="10.4942419"><ele>148.0</ele><time>2026-03-28T09:13:39.836Z</time></trkpt><trkpt lat="45.4286451" lon="10.4942993"><ele>148.0</ele><time>2026-03-28T09:13:40.836Z</time></trkpt><trkpt lat="45.4287303" lon="10.4943562"><ele>148.0</ele><time>2026-03-28T09:13:41.836Z</time></trkpt><trkpt lat="45.4288064" lon="10.4944054"><ele>148.0</ele><time>2026-03-28T09:13:42.836Z</time></trkpt><trkpt lat="45.4288883" lon="10.4944487"><ele>148.33333333333334</ele><time>2026-03-28T09:13:43.836Z</time></trkpt><trkpt lat="45.4289546" lon="10.494483"><ele>148.66666666666669</ele><time>2026-03-28T09:13:44.836Z</time></trkpt><trkpt lat="45.4290376" lon="10.4945315"><ele>149.0</ele><time>2026-03-28T09:13:46.836Z</time></trkpt><trkpt lat="45.4291111" lon="10.4945719"><ele>149.33333333333334</ele><time>2026-03-28T09:14:06.836Z</time></trkpt><trkpt lat="45.4291907" lon="10.494601"><ele>149.66666666666666</ele><time>2026-03-28T09:15:16.836Z</time></trkpt><trkpt lat="45.429264" lon="10.4946338"><ele>150.0</ele><time>2026-03-28T09:15:17.837Z</time></trkpt><trkpt lat="45.4293624" lon="10.4946779"><ele>148.5</ele><time>2026-03-28T09:15:18.836Z</time></trkpt><trkpt lat="45.4294677" lon="10.4947482"><ele>147.0</ele><time>2026-03-28T09:15:19.836Z</time></trkpt><trkpt lat="45.4295784" lon="10.4948367"><ele>145.5</ele><time>2026-03-28T09:15:20.836Z</time></trkpt><trkpt lat="45.4296918" lon="10.4949504"><ele>144.0</ele><time>2026-03-28T09:15:21.836Z</time></trkpt><trkpt lat="45.4297974" lon="10.4950723"><ele>145.5</ele><time>2026-03-28T09:15:22.836Z</time></trkpt><trkpt lat="45.4299024" lon="10.4951943"><ele>147.0</ele><time>2026-03-28T09:15:23.836Z</time></trkpt><trkpt lat="45.4300197" lon="10.4953226"><ele>148.5</ele><time>2026-03-28T09:15:24.836Z</time></trkpt><trkpt lat="45.430127" lon="10.4954452"><ele>150.0</ele><time>2026-03-28T09:15:25.836Z</time></trkpt><trkpt lat="45.4302125" lon="10.4955785"><ele>150.0</ele><time>2026-03-28T09:15:26.837Z</time></trkpt><trkpt lat="45.4302823" lon="10.4957268"><ele>150.0</ele><time>2026-03-28T09:15:27.836Z</time></trkpt><trkpt lat="45.4303525" lon="10.495899"><ele>150.0</ele><time>2026-03-28T09:15:28.837Z</time></trkpt><trkpt lat="45.4304173" lon="10.4960697"><ele>150.0</ele><time>2026-03-28T09:15:29.836Z</time></trkpt><trkpt lat="45.4304966" lon="10.4962057"><ele>152.0</ele><time>2026-03-28T09:15:30.836Z</time></trkpt><trkpt lat="45.4305717" lon="10.4963399"><ele>154.0</ele><time>2026-03-28T09:15:31.836Z</time></trkpt><trkpt lat="45.4306563" lon="10.4964651"><ele>156.0</ele><time>2026-03-28T09:15:32.837Z</time></trkpt><trkpt lat="45.4307503" lon="10.4965861"><ele>158.0</ele><time>2026-03-28T09:15:33.836Z</time></trkpt><trkpt lat="45.4308578" lon="10.4967019"><ele>158.0</ele><time>2026-03-28T09:15:34.836Z</time></trkpt><trkpt lat="45.4309654" lon="10.4968045"><ele>158.0</ele><time>2026-03-28T09:15:35.837Z</time></trkpt><trkpt lat="45.4310707" lon="10.4969012"><ele>158.0</ele><time>2026-03-28T09:15:36.837Z</time></trkpt><trkpt lat="45.4311683" lon="10.4969954"><ele>158.0</ele><time>2026-03-28T09:15:37.836Z</time></trkpt><trkpt lat="45.4312549" lon="10.497078"><ele>157.6</ele><time>2026-03-28T09:15:38.836Z</time></trkpt><trkpt lat="45.4313305" lon="10.4971602"><ele>157.20000000000002</ele><time>2026-03-28T09:15:39.837Z</time></trkpt><trkpt lat="45.4313928" lon="10.4972617"><ele>156.8</ele><time>2026-03-28T09:15:40.836Z</time></trkpt><trkpt lat="45.4314442" lon="10.4973759"><ele>156.4</ele><time>2026-03-28T09:15:41.837Z</time></trkpt><trkpt lat="45.4314919" lon="10.4975093"><ele>156.0</ele><time>2026-03-28T09:15:42.836Z</time></trkpt><trkpt lat="45.4315452" lon="10.4976485"><ele>156.0</ele><time>2026-03-28T09:15:43.836Z</time></trkpt><trkpt lat="45.4315983" lon="10.497796"><ele>156.0</ele><time>2026-03-28T09:15:44.837Z</time></trkpt><trkpt lat="45.4316456" lon="10.49794"><ele>156.0</ele><time>2026-03-28T09:15:45.836Z</time></trkpt><trkpt lat="45.4316891" lon="10.4980868"><ele>156.0</ele><time>2026-03-28T09:15:46.836Z</time></trkpt><trkpt lat="45.4317276" lon="10.4982412"><ele>154.5</ele><time>2026-03-28T09:15:47.837Z</time></trkpt><trkpt lat="45.4317566" lon="10.4983996"><ele>153.0</ele><time>2026-03-28T09:15:48.837Z</time></trkpt><trkpt lat="45.4317734" lon="10.4985674"><ele>151.5</ele><time>2026-03-28T09:15:49.836Z</time></trkpt><trkpt lat="45.4317718" lon="10.4987342"><ele>150.0</ele><time>2026-03-28T09:15:50.836Z</time></trkpt><trkpt lat="45.4317636" lon="10.4989119"><ele>150.0</ele><time>2026-03-28T09:15:51.836Z</time></trkpt><trkpt lat="45.4317432" lon="10.4990863"><ele>150.0</ele><time>2026-03-28T09:15:52.836Z</time></trkpt><trkpt lat="45.4317198" lon="10.4992568"><ele>150.0</ele><time>2026-03-28T09:15:53.836Z</time></trkpt><trkpt lat="45.4316954" lon="10.4994227"><ele>150.0</ele><time>2026-03-28T09:15:54.836Z</time></trkpt><trkpt lat="45.4316711" lon="10.4995898"><ele>150.0</ele><time>2026-03-28T09:15:55.836Z</time></trkpt><trkpt lat="45.4316474" lon="10.4997542"><ele>150.0</ele><time>2026-03-28T09:15:56.837Z</time></trkpt><trkpt lat="45.4316177" lon="10.4999172"><ele>150.0</ele><time>2026-03-28T09:15:57.836Z</time></trkpt><trkpt lat="45.4315868" lon="10.5000864"><ele>150.0</ele><time>2026-03-28T09:15:58.836Z</time></trkpt><trkpt lat="45.4315525" lon="10.500257"><ele>149.5</ele><time>2026-03-28T09:15:59.836Z</time></trkpt><trkpt lat="45.4315251" lon="10.5004237"><ele>149.0</ele><time>2026-03-28T09:16:00.836Z</time></trkpt><trkpt lat="45.4314919" lon="10.5005952"><ele>148.5</ele><time>2026-03-28T09:16:01.836Z</time></trkpt><trkpt lat="45.4314623" lon="10.5007676"><ele>148.0</ele><time>2026-03-28T09:16:02.836Z</time></trkpt><trkpt lat="45.4314366" lon="10.5009405"><ele>148.0</ele><time>2026-03-28T09:16:03.837Z</time></trkpt><trkpt lat="45.4314102" lon="10.5011152"><ele>148.0</ele><time>2026-03-28T09:16:04.836Z</time></trkpt><trkpt lat="45.4313806" lon="10.5012863"><ele>148.0</ele><time>2026-03-28T09:16:05.837Z</time></trkpt><trkpt lat="45.431349" lon="10.5014575"><ele>148.0</ele><time>2026-03-28T09:16:06.836Z</time></trkpt><trkpt lat="45.431318" lon="10.5016219"><ele>147.83333333333334</ele><time>2026-03-28T09:16:07.836Z</time></trkpt><trkpt lat="45.4312915" lon="10.5017595"><ele>147.66666666666669</ele><time>2026-03-28T09:16:08.836Z</time></trkpt><trkpt lat="45.4312682" lon="10.5018763"><ele>147.5</ele><time>2026-03-28T09:16:09.836Z</time></trkpt><trkpt lat="45.4312435" lon="10.5019665"><ele>147.33333333333334</ele><time>2026-03-28T09:16:10.836Z</time></trkpt><trkpt lat="45.4311871" lon="10.5020649"><ele>147.16666666666666</ele><time>2026-03-28T09:16:12.836Z</time></trkpt><trkpt lat="45.4311215" lon="10.5020427"><ele>147.0</ele><time>2026-03-28T09:16:14.837Z</time></trkpt><trkpt lat="45.4310432" lon="10.5019401"><ele>147.0</ele><time>2026-03-28T09:16:16.837Z</time></trkpt><trkpt lat="45.4309826" lon="10.5018705"><ele>147.0</ele><time>2026-03-28T09:16:17.836Z</time></trkpt><trkpt lat="45.4309066" lon="10.5017888"><ele>147.0</ele><time>2026-03-28T09:16:18.836Z</time></trkpt><trkpt lat="45.4308275" lon="10.5017138"><ele>147.0</ele><time>2026-03-28T09:16:19.837Z</time></trkpt><trkpt lat="45.4307457" lon="10.5016364"><ele>147.0</ele><time>2026-03-28T09:16:20.837Z</time></trkpt><trkpt lat="45.4306663" lon="10.5015539"><ele>147.0</ele><time>2026-03-28T09:16:21.836Z</time></trkpt><trkpt lat="45.4305849" lon="10.501473"><ele>147.0</ele><time>2026-03-28T09:16:22.837Z</time></trkpt><trkpt lat="45.4305016" lon="10.5013942"><ele>147.0</ele><time>2026-03-28T09:16:23.837Z</time></trkpt><trkpt lat="45.4304202" lon="10.5013117"><ele>147.0</ele><time>2026-03-28T09:16:24.837Z</time></trkpt><trkpt lat="45.4303409" lon="10.5012259"><ele>147.0</ele><time>2026-03-28T09:16:25.837Z</time></trkpt><trkpt lat="45.4302611" lon="10.501148"><ele>146.66666666666666</ele><time>2026-03-28T09:16:26.836Z</time></trkpt><trkpt lat="45.4301831" lon="10.5010741"><ele>146.33333333333334</ele><time>2026-03-28T09:16:27.836Z</time></trkpt><trkpt lat="45.4301096" lon="10.5009957"><ele>146.0</ele><time>2026-03-28T09:16:28.837Z</time></trkpt><trkpt lat="45.4300425" lon="10.5009284"><ele>145.66666666666669</ele><time>2026-03-28T09:16:29.837Z</time></trkpt><trkpt lat="45.4299796" lon="10.5008763"><ele>145.33333333333334</ele><time>2026-03-28T09:16:30.836Z</time></trkpt><trkpt lat="45.4299241" lon="10.5008275"><ele>145.0</ele><time>2026-03-28T09:16:31.836Z</time></trkpt><trkpt lat="45.429814" lon="10.5008109"><ele>145.0</ele><time>2026-03-28T09:16:33.837Z</time></trkpt><trkpt lat="45.4297564" lon="10.5008613"><ele>145.0</ele><time>2026-03-28T09:16:34.837Z</time></trkpt><trkpt lat="45.4297049" lon="10.5009515"><ele>145.0</ele><time>2026-03-28T09:16:35.836Z</time></trkpt><trkpt lat="45.4296451" lon="10.5010647"><ele>145.0</ele><time>2026-03-28T09:16:36.836Z</time></trkpt><trkpt lat="45.4295804" lon="10.5011884"><ele>145.0</ele><time>2026-03-28T09:16:37.836Z</time></trkpt><trkpt lat="45.4295173" lon="10.5012969"><ele>146.0</ele><time>2026-03-28T09:16:38.836Z</time></trkpt><trkpt lat="45.4294586" lon="10.5013948"><ele>147.0</ele><time>2026-03-28T09:16:39.836Z</time></trkpt><trkpt lat="45.4293973" lon="10.5014754"><ele>148.0</ele><time>2026-03-28T09:16:40.836Z</time></trkpt><trkpt lat="45.4293498" lon="10.5015412"><ele>149.0</ele><time>2026-03-28T09:16:41.837Z</time></trkpt><trkpt lat="45.4292945" lon="10.501602"><ele>150.0</ele><time>2026-03-28T09:16:42.836Z</time></trkpt><trkpt lat="45.4292457" lon="10.5016671"><ele>151.0</ele><time>2026-03-28T09:16:43.837Z</time></trkpt><trkpt lat="45.4291763" lon="10.5017646"><ele>151.0</ele><time>2026-03-28T09:16:45.836Z</time></trkpt><trkpt lat="45.4291154" lon="10.5018859"><ele>151.0</ele><time>2026-03-28T09:16:47.836Z</time></trkpt><trkpt lat="45.4290598" lon="10.5020546"><ele>151.0</ele><time>2026-03-28T09:16:49.836Z</time></trkpt><trkpt lat="45.4290271" lon="10.5021507"><ele>151.0</ele><time>2026-03-28T09:16:50.836Z</time></trkpt><trkpt lat="45.4289936" lon="10.5022567"><ele>151.0</ele><time>2026-03-28T09:16:51.837Z</time></trkpt><trkpt lat="45.4289567" lon="10.5023697"><ele>151.2</ele><time>2026-03-28T09:16:52.836Z</time></trkpt><trkpt lat="45.4289257" lon="10.5024911"><ele>151.39999999999998</ele><time>2026-03-28T09:16:53.836Z</time></trkpt><trkpt lat="45.4288879" lon="10.5026222"><ele>151.6</ele><time>2026-03-28T09:16:54.836Z</time></trkpt><trkpt lat="45.428836" lon="10.5027563"><ele>151.79999999999998</ele><time>2026-03-28T09:16:55.836Z</time></trkpt><trkpt lat="45.4287808" lon="10.502882"><ele>152.0</ele><time>2026-03-28T09:16:56.837Z</time></trkpt><trkpt lat="45.4287277" lon="10.5029852"><ele>151.6</ele><time>2026-03-28T09:16:57.836Z</time></trkpt><trkpt lat="45.428665" lon="10.5030684"><ele>151.2</ele><time>2026-03-28T09:16:58.837Z</time></trkpt><trkpt lat="45.4285695" lon="10.5031237"><ele>150.8</ele><time>2026-03-28T09:16:59.837Z</time></trkpt><trkpt lat="45.4284885" lon="10.503173"><ele>150.4</ele><time>2026-03-28T09:17:00.836Z</time></trkpt><trkpt lat="45.4284052" lon="10.5032169"><ele>150.0</ele><time>2026-03-28T09:17:01.837Z</time></trkpt><trkpt lat="45.4283301" lon="10.5032868"><ele>150.0</ele><time>2026-03-28T09:17:02.836Z</time></trkpt><trkpt lat="45.4282749" lon="10.5033627"><ele>150.0</ele><time>2026-03-28T09:17:03.836Z</time></trkpt><trkpt lat="45.4282238" lon="10.503458"><ele>150.0</ele><time>2026-03-28T09:17:04.836Z</time></trkpt><trkpt lat="45.4281755" lon="10.5035584"><ele>150.0</ele><time>2026-03-28T09:17:05.836Z</time></trkpt><trkpt lat="45.4281234" lon="10.5036646"><ele>150.0</ele><time>2026-03-28T09:17:06.836Z</time></trkpt><trkpt lat="45.4280743" lon="10.5037282"><ele>150.0</ele><time>2026-03-28T09:17:07.836Z</time></trkpt><trkpt lat="45.428012" lon="10.503786"><ele>148.16666666666666</ele><time>2026-03-28T09:17:08.837Z</time></trkpt><trkpt lat="45.4279377" lon="10.5038279"><ele>146.33333333333334</ele><time>2026-03-28T09:17:09.837Z</time></trkpt><trkpt lat="45.4278518" lon="10.5038762"><ele>144.5</ele><time>2026-03-28T09:17:10.837Z</time></trkpt><trkpt lat="45.4277745" lon="10.5039326"><ele>142.66666666666669</ele><time>2026-03-28T09:17:11.836Z</time></trkpt><trkpt lat="45.4277187" lon="10.503979"><ele>140.83333333333334</ele><time>2026-03-28T09:17:12.836Z</time></trkpt><trkpt lat="45.4276629" lon="10.5040221"><ele>139.0</ele><time>2026-03-28T09:17:13.836Z</time></trkpt><trkpt lat="45.4275598" lon="10.5040923"><ele>139.0</ele><time>2026-03-28T09:17:15.836Z</time></trkpt><trkpt lat="45.4274938" lon="10.5041058"><ele>139.0</ele><time>2026-03-28T09:17:16.837Z</time></trkpt><trkpt lat="45.427425" lon="10.5041273"><ele>139.0</ele><time>2026-03-28T09:17:17.836Z</time></trkpt><trkpt lat="45.4272716" lon="10.5041601"><ele>139.0</ele><time>2026-03-28T09:17:19.836Z</time></trkpt><trkpt lat="45.4271961" lon="10.5041603"><ele>139.0</ele><time>2026-03-28T09:17:20.837Z</time></trkpt><trkpt lat="45.4271236" lon="10.5041554"><ele>139.0</ele><time>2026-03-28T09:17:21.836Z</time></trkpt><trkpt lat="45.4270051" lon="10.5041304"><ele>139.2</ele><time>2026-03-28T09:17:23.836Z</time></trkpt><trkpt lat="45.4268763" lon="10.5041291"><ele>139.4</ele><time>2026-03-28T09:17:25.836Z</time></trkpt><trkpt lat="45.4267917" lon="10.5041385"><ele>139.6</ele><time>2026-03-28T09:17:26.837Z</time></trkpt><trkpt lat="45.4266989" lon="10.5041429"><ele>139.8</ele><time>2026-03-28T09:17:27.836Z</time></trkpt><trkpt lat="45.4266066" lon="10.5041584"><ele>140.0</ele><time>2026-03-28T09:17:28.836Z</time></trkpt><trkpt lat="45.4265099" lon="10.5042091"><ele>140.0</ele><time>2026-03-28T09:17:29.836Z</time></trkpt><trkpt lat="45.4264126" lon="10.5042777"><ele>140.0</ele><time>2026-03-28T09:17:30.836Z</time></trkpt><trkpt lat="45.4263189" lon="10.5043615"><ele>140.0</ele><time>2026-03-28T09:17:31.837Z</time></trkpt><trkpt lat="45.4262189" lon="10.5044609"><ele>140.0</ele><time>2026-03-28T09:17:32.837Z</time></trkpt><trkpt lat="45.426123" lon="10.5045547"><ele>137.8</ele><time>2026-03-28T09:17:33.836Z</time></trkpt><trkpt lat="45.4260284" lon="10.5046619"><ele>135.6</ele><time>2026-03-28T09:17:34.836Z</time></trkpt><trkpt lat="45.4259309" lon="10.5047465"><ele>133.4</ele><time>2026-03-28T09:17:35.836Z</time></trkpt><trkpt lat="45.4258427" lon="10.5048305"><ele>131.2</ele><time>2026-03-28T09:17:36.836Z</time></trkpt><trkpt lat="45.4257568" lon="10.5049051"><ele>129.0</ele><time>2026-03-28T09:17:37.837Z</time></trkpt><trkpt lat="45.4256899" lon="10.5049574"><ele>129.0</ele><time>2026-03-28T09:17:38.837Z</time></trkpt><trkpt lat="45.4255921" lon="10.5050223"><ele>129.0</ele><time>2026-03-28T09:17:40.837Z</time></trkpt><trkpt lat="45.4254656" lon="10.5050304"><ele>129.0</ele><time>2026-03-28T09:17:42.836Z</time></trkpt><trkpt lat="45.4253684" lon="10.5050064"><ele>129.0</ele><time>2026-03-28T09:17:43.836Z</time></trkpt><trkpt lat="45.4252643" lon="10.5049931"><ele>129.0</ele><time>2026-03-28T09:17:44.836Z</time></trkpt><trkpt lat="45.4251455" lon="10.5049778"><ele>129.0</ele><time>2026-03-28T09:17:45.836Z</time></trkpt><trkpt lat="45.4250253" lon="10.5049643"><ele>129.0</ele><time>2026-03-28T09:17:46.837Z</time></trkpt><trkpt lat="45.4248938" lon="10.5049549"><ele>129.0</ele><time>2026-03-28T09:17:47.836Z</time></trkpt><trkpt lat="45.4247562" lon="10.5049591"><ele>129.0</ele><time>2026-03-28T09:17:48.836Z</time></trkpt><trkpt lat="45.4246186" lon="10.504953"><ele>129.0</ele><time>2026-03-28T09:17:49.836Z</time></trkpt><trkpt lat="45.4244793" lon="10.5049343"><ele>129.0</ele><time>2026-03-28T09:17:50.836Z</time></trkpt><trkpt lat="45.4243405" lon="10.5049159"><ele>129.0</ele><time>2026-03-28T09:17:51.836Z</time></trkpt><trkpt lat="45.4242054" lon="10.5048935"><ele>129.0</ele><time>2026-03-28T09:17:52.836Z</time></trkpt><trkpt lat="45.424079" lon="10.5048587"><ele>129.0</ele><time>2026-03-28T09:17:53.836Z</time></trkpt><trkpt lat="45.4239569" lon="10.5048077"><ele>129.0</ele><time>2026-03-28T09:17:54.836Z</time></trkpt><trkpt lat="45.4238322" lon="10.5047368"><ele>129.0</ele><time>2026-03-28T09:17:55.837Z</time></trkpt><trkpt lat="45.4237089" lon="10.5046498"><ele>129.0</ele><time>2026-03-28T09:17:56.837Z</time></trkpt><trkpt lat="45.4235836" lon="10.5045442"><ele>128.5</ele><time>2026-03-28T09:17:57.836Z</time></trkpt><trkpt lat="45.4234554" lon="10.5044367"><ele>128.0</ele><time>2026-03-28T09:17:58.837Z</time></trkpt><trkpt lat="45.42333" lon="10.5043212"><ele>127.5</ele><time>2026-03-28T09:17:59.836Z</time></trkpt><trkpt lat="45.4232003" lon="10.5042126"><ele>127.0</ele><time>2026-03-28T09:18:00.836Z</time></trkpt><trkpt lat="45.4230671" lon="10.5041211"><ele>125.66666666666667</ele><time>2026-03-28T09:18:01.836Z</time></trkpt><trkpt lat="45.4229292" lon="10.5040413"><ele>124.33333333333334</ele><time>2026-03-28T09:18:02.836Z</time></trkpt><trkpt lat="45.4227903" lon="10.5039588"><ele>123.0</ele><time>2026-03-28T09:18:03.837Z</time></trkpt><trkpt lat="45.4226471" lon="10.5038786"><ele>123.0</ele><time>2026-03-28T09:18:04.836Z</time></trkpt><trkpt lat="45.422501" lon="10.5038035"><ele>123.0</ele><time>2026-03-28T09:18:05.836Z</time></trkpt><trkpt lat="45.42235" lon="10.503743"><ele>123.0</ele><time>2026-03-28T09:18:06.836Z</time></trkpt><trkpt lat="45.4221982" lon="10.5036837"><ele>123.25</ele><time>2026-03-28T09:18:07.837Z</time></trkpt><trkpt lat="45.422053" lon="10.503618"><ele>123.5</ele><time>2026-03-28T09:18:08.837Z</time></trkpt><trkpt lat="45.4219141" lon="10.5035633"><ele>123.75</ele><time>2026-03-28T09:18:09.837Z</time></trkpt><trkpt lat="45.4217943" lon="10.5034963"><ele>124.0</ele><time>2026-03-28T09:18:10.836Z</time></trkpt><trkpt lat="45.4216857" lon="10.503396"><ele>124.0</ele><time>2026-03-28T09:18:11.837Z</time></trkpt><trkpt lat="45.421589" lon="10.5032803"><ele>124.0</ele><time>2026-03-28T09:18:12.836Z</time></trkpt><trkpt lat="45.4215078" lon="10.5031771"><ele>124.0</ele><time>2026-03-28T09:18:13.836Z</time></trkpt><trkpt lat="45.4214372" lon="10.5031086"><ele>124.0</ele><time>2026-03-28T09:18:14.837Z</time></trkpt><trkpt lat="45.4213699" lon="10.5030837"><ele>124.0</ele><time>2026-03-28T09:18:15.837Z</time></trkpt><trkpt lat="45.4212562" lon="10.5031968"><ele>124.0</ele><time>2026-03-28T09:18:17.836Z</time></trkpt><trkpt lat="45.4212113" lon="10.5033278"><ele>124.0</ele><time>2026-03-28T09:18:18.836Z</time></trkpt><trkpt lat="45.4211778" lon="10.5034903"><ele>124.0</ele><time>2026-03-28T09:18:19.836Z</time></trkpt><trkpt lat="45.4211366" lon="10.5036618"><ele>124.0</ele><time>2026-03-28T09:18:20.836Z</time></trkpt><trkpt lat="45.4210703" lon="10.5038286"><ele>124.0</ele><time>2026-03-28T09:18:21.837Z</time></trkpt><trkpt lat="45.4209942" lon="10.5039778"><ele>124.0</ele><time>2026-03-28T09:18:22.836Z</time></trkpt><trkpt lat="45.4209048" lon="10.5041267"><ele>124.0</ele><time>2026-03-28T09:18:23.836Z</time></trkpt><trkpt lat="45.4208359" lon="10.5042776"><ele>124.0</ele><time>2026-03-28T09:18:24.836Z</time></trkpt><trkpt lat="45.4207864" lon="10.5044498"><ele>123.25</ele><time>2026-03-28T09:18:25.836Z</time></trkpt><trkpt lat="45.4207578" lon="10.5046483"><ele>122.5</ele><time>2026-03-28T09:18:26.836Z</time></trkpt><trkpt lat="45.4207375" lon="10.5048524"><ele>121.75</ele><time>2026-03-28T09:18:27.837Z</time></trkpt><trkpt lat="45.420708" lon="10.5050583"><ele>121.0</ele><time>2026-03-28T09:18:28.837Z</time></trkpt><trkpt lat="45.4206719" lon="10.5052641"><ele>121.0</ele><time>2026-03-28T09:18:29.836Z</time></trkpt><trkpt lat="45.4206359" lon="10.5054739"><ele>121.0</ele><time>2026-03-28T09:18:30.836Z</time></trkpt><trkpt lat="45.4206041" lon="10.5056836"><ele>121.0</ele><time>2026-03-28T09:18:31.836Z</time></trkpt><trkpt lat="45.4205744" lon="10.5058989"><ele>121.0</ele><time>2026-03-28T09:18:32.836Z</time></trkpt><trkpt lat="45.4205449" lon="10.5061145"><ele>121.0</ele><time>2026-03-28T09:18:33.836Z</time></trkpt><trkpt lat="45.4205167" lon="10.5063331"><ele>121.0</ele><time>2026-03-28T09:18:34.837Z</time></trkpt><trkpt lat="45.4204911" lon="10.5065491"><ele>120.75</ele><time>2026-03-28T09:18:35.837Z</time></trkpt><trkpt lat="45.4204682" lon="10.5067637"><ele>120.5</ele><time>2026-03-28T09:18:36.836Z</time></trkpt><trkpt lat="45.4204498" lon="10.5069766"><ele>120.25</ele><time>2026-03-28T09:18:37.836Z</time></trkpt><trkpt lat="45.4204368" lon="10.507166"><ele>120.0</ele><time>2026-03-28T09:18:38.837Z</time></trkpt><trkpt lat="45.4204253" lon="10.5073293"><ele>119.83333333333333</ele><time>2026-03-28T09:18:39.836Z</time></trkpt><trkpt lat="45.4204142" lon="10.5074689"><ele>119.66666666666666</ele><time>2026-03-28T09:18:40.836Z</time></trkpt><trkpt lat="45.4204052" lon="10.5075728"><ele>119.5</ele><time>2026-03-28T09:18:41.836Z</time></trkpt><trkpt lat="45.4203958" lon="10.5076626"><ele>119.33333333333333</ele><time>2026-03-28T09:18:42.837Z</time></trkpt><trkpt lat="45.4203746" lon="10.5077645"><ele>119.16666666666666</ele><time>2026-03-28T09:18:44.837Z</time></trkpt><trkpt lat="45.4203852" lon="10.5079007"><ele>119.0</ele><time>2026-03-28T09:18:46.836Z</time></trkpt><trkpt lat="45.4204147" lon="10.5079983"><ele>118.80000000000001</ele><time>2026-03-28T09:18:47.836Z</time></trkpt><trkpt lat="45.4204605" lon="10.5081025"><ele>118.60000000000001</ele><time>2026-03-28T09:18:48.836Z</time></trkpt><trkpt lat="45.420497" lon="10.5082341"><ele>118.4</ele><time>2026-03-28T09:18:49.836Z</time></trkpt><trkpt lat="45.4205301" lon="10.5083782"><ele>118.2</ele><time>2026-03-28T09:18:50.836Z</time></trkpt><trkpt lat="45.4205792" lon="10.5085312"><ele>118.0</ele><time>2026-03-28T09:18:51.836Z</time></trkpt><trkpt lat="45.4206257" lon="10.5086923"><ele>117.25</ele><time>2026-03-28T09:18:52.836Z</time></trkpt><trkpt lat="45.4206671" lon="10.5088653"><ele>116.5</ele><time>2026-03-28T09:18:53.836Z</time></trkpt><trkpt lat="45.4207102" lon="10.5090418"><ele>115.75</ele><time>2026-03-28T09:18:54.836Z</time></trkpt><trkpt lat="45.4207541" lon="10.5092179"><ele>115.0</ele><time>2026-03-28T09:18:55.836Z</time></trkpt><trkpt lat="45.4207997" lon="10.5093947"><ele>115.0</ele><time>2026-03-28T09:18:56.836Z</time></trkpt><trkpt lat="45.4208569" lon="10.5095601"><ele>115.0</ele><time>2026-03-28T09:18:57.836Z</time></trkpt><trkpt lat="45.4209312" lon="10.5097059"><ele>115.0</ele><time>2026-03-28T09:18:58.836Z</time></trkpt><trkpt lat="45.421023" lon="10.5098289"><ele>115.0</ele><time>2026-03-28T09:18:59.836Z</time></trkpt><trkpt lat="45.4211221" lon="10.5099361"><ele>115.6</ele><time>2026-03-28T09:19:00.836Z</time></trkpt><trkpt lat="45.4212208" lon="10.5100314"><ele>116.2</ele><time>2026-03-28T09:19:01.836Z</time></trkpt><trkpt lat="45.4213004" lon="10.5101294"><ele>116.80000000000001</ele><time>2026-03-28T09:19:02.836Z</time></trkpt><trkpt lat="45.4213494" lon="10.510236"><ele>117.4</ele><time>2026-03-28T09:19:03.837Z</time></trkpt><trkpt lat="45.4213581" lon="10.5103292"><ele>118.0</ele><time>2026-03-28T09:19:04.836Z</time></trkpt><trkpt lat="45.4213214" lon="10.5104415"><ele>118.66666666666667</ele><time>2026-03-28T09:19:06.836Z</time></trkpt><trkpt lat="45.4212587" lon="10.5104699"><ele>119.33333333333334</ele><time>2026-03-28T09:19:09.836Z</time></trkpt><trkpt lat="45.4211815" lon="10.5104937"><ele>120.0</ele><time>2026-03-28T09:19:11.836Z</time></trkpt><trkpt lat="45.4210631" lon="10.5105389"><ele>120.66666666666666</ele><time>2026-03-28T09:19:13.836Z</time></trkpt><trkpt lat="45.4209837" lon="10.510566"><ele>121.33333333333333</ele><time>2026-03-28T09:19:14.836Z</time></trkpt><trkpt lat="45.4209036" lon="10.5106169"><ele>122.0</ele><time>2026-03-28T09:19:15.837Z</time></trkpt><trkpt lat="45.4208222" lon="10.5106908"><ele>122.0</ele><time>2026-03-28T09:19:16.836Z</time></trkpt><trkpt lat="45.4207522" lon="10.5107912"><ele>121.99999999999999</ele><time>2026-03-28T09:19:17.836Z</time></trkpt><trkpt lat="45.420696" lon="10.5109271"><ele>121.99999999999999</ele><time>2026-03-28T09:19:18.836Z</time></trkpt><trkpt lat="45.4206563" lon="10.5110659"><ele>122.0</ele><time>2026-03-28T09:19:19.836Z</time></trkpt><trkpt lat="45.4206327" lon="10.5112065"><ele>122.0</ele><time>2026-03-28T09:19:20.836Z</time></trkpt><trkpt lat="45.4206253" lon="10.5113294"><ele>121.83333333333333</ele><time>2026-03-28T09:19:21.837Z</time></trkpt><trkpt lat="45.4206167" lon="10.5114398"><ele>121.66666666666666</ele><time>2026-03-28T09:19:22.836Z</time></trkpt><trkpt lat="45.4205976" lon="10.511544"><ele>121.5</ele><time>2026-03-28T09:19:23.837Z</time></trkpt><trkpt lat="45.4205631" lon="10.5116415"><ele>121.33333333333334</ele><time>2026-03-28T09:19:24.836Z</time></trkpt><trkpt lat="45.4205055" lon="10.5117168"><ele>121.16666666666667</ele><time>2026-03-28T09:19:25.836Z</time></trkpt><trkpt lat="45.4204227" lon="10.5117636"><ele>121.0</ele><time>2026-03-28T09:19:26.836Z</time></trkpt><trkpt lat="45.4203264" lon="10.511768"><ele>121.00000000000001</ele><time>2026-03-28T09:19:27.836Z</time></trkpt><trkpt lat="45.4202281" lon="10.5117459"><ele>121.0</ele><time>2026-03-28T09:19:28.836Z</time></trkpt><trkpt lat="45.4201394" lon="10.5117171"><ele>121.0</ele><time>2026-03-28T09:19:29.836Z</time></trkpt><trkpt lat="45.4200681" lon="10.5116858"><ele>121.0</ele><time>2026-03-28T09:19:30.837Z</time></trkpt><trkpt lat="45.4200016" lon="10.5116619"><ele>121.00000000000001</ele><time>2026-03-28T09:19:31.836Z</time></trkpt><trkpt lat="45.4199281" lon="10.5116391"><ele>121.0</ele><time>2026-03-28T09:19:32.836Z</time></trkpt><trkpt lat="45.4198606" lon="10.5116287"><ele>121.00000000000001</ele><time>2026-03-28T09:19:33.837Z</time></trkpt><trkpt lat="45.4197958" lon="10.5116088"><ele>121.0</ele><time>2026-03-28T09:19:34.836Z</time></trkpt><trkpt lat="45.4197309" lon="10.5115934"><ele>121.0</ele><time>2026-03-28T09:19:35.836Z</time></trkpt><trkpt lat="45.419637" lon="10.511588"><ele>121.0</ele><time>2026-03-28T09:19:37.836Z</time></trkpt><trkpt lat="45.4196036" lon="10.5116822"><ele>121.00000000000001</ele><time>2026-03-28T09:19:39.837Z</time></trkpt><trkpt lat="45.4196068" lon="10.5118695"><ele>121.0</ele><time>2026-03-28T09:19:41.836Z</time></trkpt><trkpt lat="45.4196119" lon="10.5119777"><ele>121.16666666666667</ele><time>2026-03-28T09:19:42.837Z</time></trkpt><trkpt lat="45.4196159" lon="10.5121062"><ele>121.33333333333334</ele><time>2026-03-28T09:19:43.836Z</time></trkpt><trkpt lat="45.4196133" lon="10.5122488"><ele>121.5</ele><time>2026-03-28T09:19:44.836Z</time></trkpt><trkpt lat="45.4196175" lon="10.5123873"><ele>121.66666666666666</ele><time>2026-03-28T09:19:45.836Z</time></trkpt><trkpt lat="45.4196232" lon="10.5125013"><ele>121.83333333333333</ele><time>2026-03-28T09:19:46.837Z</time></trkpt><trkpt lat="45.4196294" lon="10.5125941"><ele>122.0</ele><time>2026-03-28T09:19:47.837Z</time></trkpt><trkpt lat="45.4196305" lon="10.5127046"><ele>121.99999999999999</ele><time>2026-03-28T09:19:49.836Z</time></trkpt><trkpt lat="45.4195696" lon="10.5127282"><ele>122.0</ele><time>2026-03-28T09:19:51.836Z</time></trkpt><trkpt lat="45.4194554" lon="10.5127227"><ele>122.0</ele><time>2026-03-28T09:19:53.836Z</time></trkpt><trkpt lat="45.4193789" lon="10.5127237"><ele>122.0</ele><time>2026-03-28T09:19:54.837Z</time></trkpt><trkpt lat="45.4192888" lon="10.512736"><ele>121.99999999999999</ele><time>2026-03-28T09:19:55.836Z</time></trkpt><trkpt lat="45.4191851" lon="10.5127479"><ele>122.0</ele><time>2026-03-28T09:19:56.836Z</time></trkpt><trkpt lat="45.4190736" lon="10.5127518"><ele>122.0</ele><time>2026-03-28T09:19:57.836Z</time></trkpt><trkpt lat="45.418954" lon="10.512756"><ele>122.0</ele><time>2026-03-28T09:19:58.837Z</time></trkpt><trkpt lat="45.4188302" lon="10.5127675"><ele>122.0</ele><time>2026-03-28T09:19:59.836Z</time></trkpt><trkpt lat="45.4187017" lon="10.51278"><ele>122.0</ele><time>2026-03-28T09:20:00.836Z</time></trkpt><trkpt lat="45.4185687" lon="10.5127926"><ele>120.75</ele><time>2026-03-28T09:20:01.836Z</time></trkpt><trkpt lat="45.418434" lon="10.5128041"><ele>119.5</ele><time>2026-03-28T09:20:02.836Z</time></trkpt><trkpt lat="45.4182962" lon="10.5128113"><ele>118.25</ele><time>2026-03-28T09:20:03.836Z</time></trkpt><trkpt lat="45.4181538" lon="10.5128214"><ele>117.0</ele><time>2026-03-28T09:20:04.836Z</time></trkpt><trkpt lat="45.4180054" lon="10.5128348"><ele>116.33333333333334</ele><time>2026-03-28T09:20:05.836Z</time></trkpt><trkpt lat="45.4178553" lon="10.5128494"><ele>115.66666666666667</ele><time>2026-03-28T09:20:06.836Z</time></trkpt><trkpt lat="45.4177041" lon="10.5128645"><ele>115.0</ele><time>2026-03-28T09:20:07.836Z</time></trkpt><trkpt lat="45.4175505" lon="10.512877"><ele>115.0</ele><time>2026-03-28T09:20:08.836Z</time></trkpt><trkpt lat="45.4173951" lon="10.5128865"><ele>115.0</ele><time>2026-03-28T09:20:09.836Z</time></trkpt><trkpt lat="45.4172406" lon="10.5128947"><ele>115.0</ele><time>2026-03-28T09:20:10.837Z</time></trkpt><trkpt lat="45.4170881" lon="10.5129047"><ele>114.66666666666667</ele><time>2026-03-28T09:20:11.836Z</time></trkpt><trkpt lat="45.4169377" lon="10.5129213"><ele>114.33333333333334</ele><time>2026-03-28T09:20:12.836Z</time></trkpt><trkpt lat="45.4167842" lon="10.5129345"><ele>114.0</ele><time>2026-03-28T09:20:13.837Z</time></trkpt><trkpt lat="45.4166332" lon="10.5129477"><ele>114.0</ele><time>2026-03-28T09:20:14.836Z</time></trkpt><trkpt lat="45.4164835" lon="10.5129588"><ele>114.0</ele><time>2026-03-28T09:20:15.836Z</time></trkpt><trkpt lat="45.416338" lon="10.5129699"><ele>114.0</ele><time>2026-03-28T09:20:16.836Z</time></trkpt><trkpt lat="45.4161871" lon="10.5129837"><ele>114.0</ele><time>2026-03-28T09:20:17.837Z</time></trkpt><trkpt lat="45.4160395" lon="10.5129945"><ele>114.5</ele><time>2026-03-28T09:20:18.836Z</time></trkpt><trkpt lat="45.4158941" lon="10.5130044"><ele>115.0</ele><time>2026-03-28T09:20:19.836Z</time></trkpt><trkpt lat="45.4157536" lon="10.5130136"><ele>115.5</ele><time>2026-03-28T09:20:20.836Z</time></trkpt><trkpt lat="45.4156166" lon="10.5130079"><ele>116.0</ele><time>2026-03-28T09:20:21.837Z</time></trkpt><trkpt lat="45.4154788" lon="10.5129935"><ele>116.19999999999999</ele><time>2026-03-28T09:20:22.837Z</time></trkpt><trkpt lat="45.4153574" lon="10.5129655"><ele>116.39999999999999</ele><time>2026-03-28T09:20:23.836Z</time></trkpt><trkpt lat="45.4152488" lon="10.512937"><ele>116.6</ele><time>2026-03-28T09:20:24.837Z</time></trkpt><trkpt lat="45.4151611" lon="10.5129117"><ele>116.8</ele><time>2026-03-28T09:20:25.836Z</time></trkpt><trkpt lat="45.4150947" lon="10.5129039"><ele>117.0</ele><time>2026-03-28T09:20:26.837Z</time></trkpt><trkpt lat="45.4150229" lon="10.5129707"><ele>117.0</ele><time>2026-03-28T09:20:28.836Z</time></trkpt><trkpt lat="45.4149964" lon="10.5130568"><ele>116.99999999999999</ele><time>2026-03-28T09:20:29.836Z</time></trkpt><trkpt lat="45.4149801" lon="10.5131756"><ele>116.99999999999999</ele><time>2026-03-28T09:20:30.837Z</time></trkpt><trkpt lat="45.4149786" lon="10.513322"><ele>117.0</ele><time>2026-03-28T09:20:31.837Z</time></trkpt><trkpt lat="45.4149727" lon="10.5134948"><ele>117.0</ele><time>2026-03-28T09:20:32.836Z</time></trkpt><trkpt lat="45.414975" lon="10.5136733"><ele>116.8</ele><time>2026-03-28T09:20:33.836Z</time></trkpt><trkpt lat="45.4149739" lon="10.5138108"><ele>116.6</ele><time>2026-03-28T09:20:34.836Z</time></trkpt><trkpt lat="45.4149605" lon="10.5139184"><ele>116.39999999999999</ele><time>2026-03-28T09:20:35.836Z</time></trkpt><trkpt lat="45.414863" lon="10.5140166"><ele>116.19999999999999</ele><time>2026-03-28T09:20:37.836Z</time></trkpt><trkpt lat="45.4147666" lon="10.5140155"><ele>116.0</ele><time>2026-03-28T09:20:38.836Z</time></trkpt><trkpt lat="45.4146422" lon="10.5140151"><ele>116.0</ele><time>2026-03-28T09:20:39.836Z</time></trkpt><trkpt lat="45.4145171" lon="10.514022"><ele>116.0</ele><time>2026-03-28T09:20:40.836Z</time></trkpt><trkpt lat="45.4144007" lon="10.514027"><ele>116.0</ele><time>2026-03-28T09:20:41.836Z</time></trkpt><trkpt lat="45.4142958" lon="10.5140518"><ele>116.0</ele><time>2026-03-28T09:20:42.836Z</time></trkpt><trkpt lat="45.4141877" lon="10.5141034"><ele>116.0</ele><time>2026-03-28T09:20:43.837Z</time></trkpt><trkpt lat="45.4140763" lon="10.5141814"><ele>116.0</ele><time>2026-03-28T09:20:44.837Z</time></trkpt><trkpt lat="45.4139504" lon="10.5142508"><ele>116.0</ele><time>2026-03-28T09:20:45.836Z</time></trkpt><trkpt lat="45.4138027" lon="10.514296"><ele>116.0</ele><time>2026-03-28T09:20:46.836Z</time></trkpt><trkpt lat="45.4136848" lon="10.514338"><ele>116.0</ele><time>2026-03-28T09:20:47.836Z</time></trkpt><trkpt lat="45.4135935" lon="10.5143766"><ele>116.0</ele><time>2026-03-28T09:20:48.836Z</time></trkpt><trkpt lat="45.4135254" lon="10.5144349"><ele>116.0</ele><time>2026-03-28T09:20:49.836Z</time></trkpt><trkpt lat="45.4134723" lon="10.5145271"><ele>116.0</ele><time>2026-03-28T09:20:50.837Z</time></trkpt><trkpt lat="45.4134266" lon="10.5146684"><ele>116.0</ele><time>2026-03-28T09:20:51.836Z</time></trkpt><trkpt lat="45.4133855" lon="10.5148459"><ele>116.0</ele><time>2026-03-28T09:20:52.836Z</time></trkpt><trkpt lat="45.4133482" lon="10.515019"><ele>116.0</ele><time>2026-03-28T09:20:53.837Z</time></trkpt><trkpt lat="45.4133107" lon="10.5151945"><ele>116.0</ele><time>2026-03-28T09:20:54.836Z</time></trkpt><trkpt lat="45.413269" lon="10.5153648"><ele>116.0</ele><time>2026-03-28T09:20:55.836Z</time></trkpt><trkpt lat="45.413227" lon="10.5155226"><ele>116.0</ele><time>2026-03-28T09:20:56.836Z</time></trkpt><trkpt lat="45.413184" lon="10.515679"><ele>116.0</ele><time>2026-03-28T09:20:57.836Z</time></trkpt><trkpt lat="45.4131343" lon="10.5158325"><ele>116.0</ele><time>2026-03-28T09:20:58.836Z</time></trkpt><trkpt lat="45.4130829" lon="10.5159802"><ele>116.0</ele><time>2026-03-28T09:20:59.837Z</time></trkpt><trkpt lat="45.4130259" lon="10.5161233"><ele>115.5</ele><time>2026-03-28T09:21:00.837Z</time></trkpt><trkpt lat="45.4129719" lon="10.516264"><ele>115.0</ele><time>2026-03-28T09:21:01.836Z</time></trkpt><trkpt lat="45.4129212" lon="10.5164095"><ele>114.5</ele><time>2026-03-28T09:21:02.836Z</time></trkpt><trkpt lat="45.4128718" lon="10.5165562"><ele>114.0</ele><time>2026-03-28T09:21:03.837Z</time></trkpt><trkpt lat="45.4128211" lon="10.5167019"><ele>114.0</ele><time>2026-03-28T09:21:04.837Z</time></trkpt><trkpt lat="45.4127724" lon="10.5168461"><ele>114.0</ele><time>2026-03-28T09:21:05.836Z</time></trkpt><trkpt lat="45.4127289" lon="10.5169926"><ele>114.0</ele><time>2026-03-28T09:21:06.836Z</time></trkpt><trkpt lat="45.4126835" lon="10.5171391"><ele>114.0</ele><time>2026-03-28T09:21:07.836Z</time></trkpt><trkpt lat="45.41264" lon="10.5172863"><ele>114.0</ele><time>2026-03-28T09:21:08.836Z</time></trkpt><trkpt lat="45.4125789" lon="10.5174268"><ele>114.0</ele><time>2026-03-28T09:21:09.836Z</time></trkpt><trkpt lat="45.4125116" lon="10.5175526"><ele>114.0</ele><time>2026-03-28T09:21:10.836Z</time></trkpt><trkpt lat="45.4124357" lon="10.5176612"><ele>114.0</ele><time>2026-03-28T09:21:11.836Z</time></trkpt><trkpt lat="45.4123499" lon="10.5177659"><ele>114.0</ele><time>2026-03-28T09:21:12.837Z</time></trkpt><trkpt lat="45.4122544" lon="10.517865"><ele>114.25</ele><time>2026-03-28T09:21:13.837Z</time></trkpt><trkpt lat="45.4121626" lon="10.5179649"><ele>114.5</ele><time>2026-03-28T09:21:14.836Z</time></trkpt><trkpt lat="45.4120703" lon="10.5180674"><ele>114.75</ele><time>2026-03-28T09:21:15.836Z</time></trkpt><trkpt lat="45.4119757" lon="10.5181919"><ele>115.0</ele><time>2026-03-28T09:21:16.836Z</time></trkpt><trkpt lat="45.4118879" lon="10.5183339"><ele>116.0</ele><time>2026-03-28T09:21:17.836Z</time></trkpt><trkpt lat="45.4118058" lon="10.518517"><ele>117.0</ele><time>2026-03-28T09:21:18.836Z</time></trkpt><trkpt lat="45.4117228" lon="10.5186941"><ele>118.0</ele><time>2026-03-28T09:21:19.836Z</time></trkpt><trkpt lat="45.4116366" lon="10.5188463"><ele>119.0</ele><time>2026-03-28T09:21:20.836Z</time></trkpt><trkpt lat="45.4115665" lon="10.5189679"><ele>118.99999999999999</ele><time>2026-03-28T09:21:21.837Z</time></trkpt><trkpt lat="45.411506" lon="10.5190676"><ele>119.0</ele><time>2026-03-28T09:21:22.836Z</time></trkpt><trkpt lat="45.4114576" lon="10.5191677"><ele>119.0</ele><time>2026-03-28T09:21:23.837Z</time></trkpt><trkpt lat="45.4114289" lon="10.5192633"><ele>119.0</ele><time>2026-03-28T09:21:24.836Z</time></trkpt><trkpt lat="45.4114267" lon="10.5193556"><ele>118.99999999999999</ele><time>2026-03-28T09:21:25.837Z</time></trkpt><trkpt lat="45.4114534" lon="10.5194406"><ele>119.0</ele><time>2026-03-28T09:21:26.836Z</time></trkpt><trkpt lat="45.4115178" lon="10.5195497"><ele>118.6</ele><time>2026-03-28T09:21:27.836Z</time></trkpt><trkpt lat="45.4115741" lon="10.5196614"><ele>118.2</ele><time>2026-03-28T09:21:28.836Z</time></trkpt><trkpt lat="45.4116086" lon="10.5197893"><ele>117.79999999999998</ele><time>2026-03-28T09:21:29.836Z</time></trkpt><trkpt lat="45.4116228" lon="10.5199497"><ele>117.39999999999999</ele><time>2026-03-28T09:21:30.836Z</time></trkpt><trkpt lat="45.4116133" lon="10.5201342"><ele>117.0</ele><time>2026-03-28T09:21:31.836Z</time></trkpt><trkpt lat="45.4116012" lon="10.5203338"><ele>116.8</ele><time>2026-03-28T09:21:32.836Z</time></trkpt><trkpt lat="45.4116002" lon="10.5205074"><ele>116.6</ele><time>2026-03-28T09:21:33.836Z</time></trkpt><trkpt lat="45.4115982" lon="10.5206731"><ele>116.39999999999999</ele><time>2026-03-28T09:21:34.836Z</time></trkpt><trkpt lat="45.4116066" lon="10.5207936"><ele>116.19999999999999</ele><time>2026-03-28T09:21:35.836Z</time></trkpt><trkpt lat="45.411639" lon="10.5208946"><ele>116.0</ele><time>2026-03-28T09:21:36.836Z</time></trkpt><trkpt lat="45.4117118" lon="10.5209941"><ele>116.0</ele><time>2026-03-28T09:21:37.837Z</time></trkpt><trkpt lat="45.4118217" lon="10.5210838"><ele>116.0</ele><time>2026-03-28T09:21:38.836Z</time></trkpt><trkpt lat="45.4119513" lon="10.521169"><ele>116.0</ele><time>2026-03-28T09:21:39.836Z</time></trkpt><trkpt lat="45.4120433" lon="10.521239"><ele>116.0</ele><time>2026-03-28T09:21:40.837Z</time></trkpt><trkpt lat="45.4121184" lon="10.5213213"><ele>116.19999999999999</ele><time>2026-03-28T09:21:41.837Z</time></trkpt><trkpt lat="45.4121711" lon="10.521425"><ele>116.39999999999999</ele><time>2026-03-28T09:21:42.836Z</time></trkpt><trkpt lat="45.4121934" lon="10.5215521"><ele>116.6</ele><time>2026-03-28T09:21:43.837Z</time></trkpt><trkpt lat="45.4121845" lon="10.521717"><ele>116.8</ele><time>2026-03-28T09:21:44.837Z</time></trkpt><trkpt lat="45.4121496" lon="10.5218981"><ele>117.0</ele><time>2026-03-28T09:21:45.837Z</time></trkpt><trkpt lat="45.4121169" lon="10.5220374"><ele>116.66666666666667</ele><time>2026-03-28T09:21:46.836Z</time></trkpt><trkpt lat="45.4120878" lon="10.5221277"><ele>116.33333333333334</ele><time>2026-03-28T09:21:47.836Z</time></trkpt><trkpt lat="45.4120675" lon="10.5222217"><ele>116.0</ele><time>2026-03-28T09:21:49.836Z</time></trkpt><trkpt lat="45.4121426" lon="10.5222748"><ele>115.66666666666667</ele><time>2026-03-28T09:21:51.836Z</time></trkpt><trkpt lat="45.412211" lon="10.5223236"><ele>115.33333333333334</ele><time>2026-03-28T09:21:52.836Z</time></trkpt><trkpt lat="45.4122964" lon="10.5223985"><ele>115.0</ele><time>2026-03-28T09:21:53.836Z</time></trkpt><trkpt lat="45.4123989" lon="10.5224591"><ele>116.25</ele><time>2026-03-28T09:21:54.836Z</time></trkpt><trkpt lat="45.4125082" lon="10.5225088"><ele>117.5</ele><time>2026-03-28T09:21:55.837Z</time></trkpt><trkpt lat="45.4126303" lon="10.5225725"><ele>118.75</ele><time>2026-03-28T09:21:56.837Z</time></trkpt><trkpt lat="45.4127428" lon="10.5226328"><ele>120.0</ele><time>2026-03-28T09:21:57.837Z</time></trkpt><trkpt lat="45.4128423" lon="10.5226842"><ele>120.0</ele><time>2026-03-28T09:21:58.836Z</time></trkpt><trkpt lat="45.4129366" lon="10.5227309"><ele>120.0</ele><time>2026-03-28T09:21:59.837Z</time></trkpt><trkpt lat="45.4130251" lon="10.5227756"><ele>120.0</ele><time>2026-03-28T09:22:00.836Z</time></trkpt><trkpt lat="45.4131128" lon="10.5228194"><ele>120.0</ele><time>2026-03-28T09:22:01.836Z</time></trkpt><trkpt lat="45.4132054" lon="10.5228617"><ele>120.0</ele><time>2026-03-28T09:22:02.837Z</time></trkpt><trkpt lat="45.4133086" lon="10.5229152"><ele>119.5</ele><time>2026-03-28T09:22:03.836Z</time></trkpt><trkpt lat="45.4134144" lon="10.5229657"><ele>119.0</ele><time>2026-03-28T09:22:04.837Z</time></trkpt><trkpt lat="45.4135259" lon="10.523003"><ele>118.5</ele><time>2026-03-28T09:22:05.837Z</time></trkpt><trkpt lat="45.4136407" lon="10.5230373"><ele>118.0</ele><time>2026-03-28T09:22:06.836Z</time></trkpt><trkpt lat="45.4137581" lon="10.5230576"><ele>117.4</ele><time>2026-03-28T09:22:07.836Z</time></trkpt><trkpt lat="45.4138704" lon="10.523079"><ele>116.80000000000001</ele><time>2026-03-28T09:22:08.836Z</time></trkpt><trkpt lat="45.4139819" lon="10.5230886"><ele>116.2</ele><time>2026-03-28T09:22:09.836Z</time></trkpt><trkpt lat="45.414076" lon="10.5230862"><ele>115.6</ele><time>2026-03-28T09:22:10.836Z</time></trkpt><trkpt lat="45.4141537" lon="10.5230936"><ele>115.0</ele><time>2026-03-28T09:22:11.836Z</time></trkpt><trkpt lat="45.4142431" lon="10.523144"><ele>115.0</ele><time>2026-03-28T09:22:13.836Z</time></trkpt><trkpt lat="45.4142556" lon="10.5233058"><ele>115.0</ele><time>2026-03-28T09:22:15.836Z</time></trkpt><trkpt lat="45.4142466" lon="10.5234427"><ele>115.0</ele><time>2026-03-28T09:22:16.836Z</time></trkpt><trkpt lat="45.4142086" lon="10.5236092"><ele>115.0</ele><time>2026-03-28T09:22:17.837Z</time></trkpt><trkpt lat="45.4141602" lon="10.5237977"><ele>115.00000000000001</ele><time>2026-03-28T09:22:18.836Z</time></trkpt><trkpt lat="45.4141312" lon="10.5239584"><ele>115.0</ele><time>2026-03-28T09:22:19.836Z</time></trkpt><trkpt lat="45.414107" lon="10.5240851"><ele>115.0</ele><time>2026-03-28T09:22:20.836Z</time></trkpt><trkpt lat="45.4141043" lon="10.5242143"><ele>115.0</ele><time>2026-03-28T09:22:22.837Z</time></trkpt><trkpt lat="45.4141524" lon="10.5242722"><ele>115.00000000000001</ele><time>2026-03-28T09:22:24.836Z</time></trkpt><trkpt lat="45.4142086" lon="10.5243203"><ele>115.0</ele><time>2026-03-28T09:22:25.836Z</time></trkpt><trkpt lat="45.4142861" lon="10.5243903"><ele>115.0</ele><time>2026-03-28T09:22:26.836Z</time></trkpt><trkpt lat="45.4143892" lon="10.5244559"><ele>115.0</ele><time>2026-03-28T09:22:27.836Z</time></trkpt><trkpt lat="45.4144994" lon="10.5245365"><ele>115.0</ele><time>2026-03-28T09:22:28.837Z</time></trkpt><trkpt lat="45.4146137" lon="10.5246266"><ele>115.0</ele><time>2026-03-28T09:22:29.836Z</time></trkpt><trkpt lat="45.41473" lon="10.5247339"><ele>115.33333333333334</ele><time>2026-03-28T09:22:30.836Z</time></trkpt><trkpt lat="45.4148547" lon="10.5248434"><ele>115.66666666666666</ele><time>2026-03-28T09:22:31.836Z</time></trkpt><trkpt lat="45.4149849" lon="10.5249561"><ele>116.0</ele><time>2026-03-28T09:22:32.836Z</time></trkpt><trkpt lat="45.4151166" lon="10.5250781"><ele>116.0</ele><time>2026-03-28T09:22:33.837Z</time></trkpt><trkpt lat="45.4152459" lon="10.5252067"><ele>116.0</ele><time>2026-03-28T09:22:34.837Z</time></trkpt><trkpt lat="45.4153722" lon="10.5253304"><ele>116.0</ele><time>2026-03-28T09:22:35.836Z</time></trkpt><trkpt lat="45.4154941" lon="10.5254542"><ele>115.75</ele><time>2026-03-28T09:22:36.836Z</time></trkpt><trkpt lat="45.4156168" lon="10.5255749"><ele>115.5</ele><time>2026-03-28T09:22:37.836Z</time></trkpt><trkpt lat="45.4157349" lon="10.5256927"><ele>115.25</ele><time>2026-03-28T09:22:38.837Z</time></trkpt><trkpt lat="45.4158579" lon="10.5258082"><ele>115.0</ele><time>2026-03-28T09:22:39.836Z</time></trkpt><trkpt lat="45.4159824" lon="10.5259239"><ele>115.0</ele><time>2026-03-28T09:22:40.837Z</time></trkpt><trkpt lat="45.4161121" lon="10.5260352"><ele>115.0</ele><time>2026-03-28T09:22:41.836Z</time></trkpt><trkpt lat="45.4162436" lon="10.5261412"><ele>115.0</ele><time>2026-03-28T09:22:42.837Z</time></trkpt><trkpt lat="45.4163739" lon="10.5262505"><ele>114.33333333333334</ele><time>2026-03-28T09:22:43.836Z</time></trkpt><trkpt lat="45.4165064" lon="10.5263582"><ele>113.66666666666666</ele><time>2026-03-28T09:22:44.837Z</time></trkpt><trkpt lat="45.4166402" lon="10.5264634"><ele>113.0</ele><time>2026-03-28T09:22:45.836Z</time></trkpt><trkpt lat="45.4167733" lon="10.5265644"><ele>113.0</ele><time>2026-03-28T09:22:46.836Z</time></trkpt><trkpt lat="45.416906" lon="10.5266625"><ele>113.0</ele><time>2026-03-28T09:22:47.837Z</time></trkpt><trkpt lat="45.4170387" lon="10.5267561"><ele>113.0</ele><time>2026-03-28T09:22:48.836Z</time></trkpt><trkpt lat="45.4171632" lon="10.5268409"><ele>113.0</ele><time>2026-03-28T09:22:49.836Z</time></trkpt><trkpt lat="45.4172908" lon="10.5269234"><ele>113.5</ele><time>2026-03-28T09:22:50.836Z</time></trkpt><trkpt lat="45.417426" lon="10.5270018"><ele>114.0</ele><time>2026-03-28T09:22:51.837Z</time></trkpt><trkpt lat="45.417565" lon="10.5270819"><ele>114.5</ele><time>2026-03-28T09:22:52.837Z</time></trkpt><trkpt lat="45.4177031" lon="10.5271679"><ele>115.0</ele><time>2026-03-28T09:22:53.836Z</time></trkpt><trkpt lat="45.4178464" lon="10.5272539"><ele>116.0</ele><time>2026-03-28T09:22:54.836Z</time></trkpt><trkpt lat="45.4179946" lon="10.5273452"><ele>117.0</ele><time>2026-03-28T09:22:55.836Z</time></trkpt><trkpt lat="45.4181419" lon="10.5274356"><ele>118.0</ele><time>2026-03-28T09:22:56.836Z</time></trkpt><trkpt lat="45.4182868" lon="10.5275285"><ele>118.0</ele><time>2026-03-28T09:22:57.836Z</time></trkpt><trkpt lat="45.4184351" lon="10.5276234"><ele>118.0</ele><time>2026-03-28T09:22:58.837Z</time></trkpt><trkpt lat="45.4185797" lon="10.5277168"><ele>118.0</ele><time>2026-03-28T09:22:59.836Z</time></trkpt><trkpt lat="45.4187285" lon="10.5278096"><ele>118.0</ele><time>2026-03-28T09:23:00.836Z</time></trkpt><trkpt lat="45.4188661" lon="10.5278937"><ele>118.0</ele><time>2026-03-28T09:23:01.837Z</time></trkpt><trkpt lat="45.4189878" lon="10.5279702"><ele>118.0</ele><time>2026-03-28T09:23:02.836Z</time></trkpt><trkpt lat="45.4191008" lon="10.5280521"><ele>118.0</ele><time>2026-03-28T09:23:03.836Z</time></trkpt><trkpt lat="45.4192062" lon="10.5281574"><ele>118.0</ele><time>2026-03-28T09:23:04.837Z</time></trkpt><trkpt lat="45.4192836" lon="10.5282702"><ele>118.00000000000001</ele><time>2026-03-28T09:23:05.836Z</time></trkpt><trkpt lat="45.4193668" lon="10.528378"><ele>118.00000000000001</ele><time>2026-03-28T09:23:06.836Z</time></trkpt><trkpt lat="45.4194515" lon="10.528457"><ele>118.0</ele><time>2026-03-28T09:23:07.836Z</time></trkpt><trkpt lat="45.4195582" lon="10.5285459"><ele>118.0</ele><time>2026-03-28T09:23:08.837Z</time></trkpt><trkpt lat="45.4196748" lon="10.5286283"><ele>118.5</ele><time>2026-03-28T09:23:09.836Z</time></trkpt><trkpt lat="45.4197939" lon="10.528708"><ele>119.0</ele><time>2026-03-28T09:23:10.836Z</time></trkpt><trkpt lat="45.4199176" lon="10.528808"><ele>119.5</ele><time>2026-03-28T09:23:11.836Z</time></trkpt><trkpt lat="45.4200347" lon="10.5289185"><ele>120.0</ele><time>2026-03-28T09:23:12.836Z</time></trkpt><trkpt lat="45.4201401" lon="10.5290499"><ele>120.25</ele><time>2026-03-28T09:23:13.836Z</time></trkpt><trkpt lat="45.4202375" lon="10.5292023"><ele>120.5</ele><time>2026-03-28T09:23:14.837Z</time></trkpt><trkpt lat="45.4203315" lon="10.5293608"><ele>120.75</ele><time>2026-03-28T09:23:15.837Z</time></trkpt><trkpt lat="45.4204255" lon="10.5295176"><ele>121.0</ele><time>2026-03-28T09:23:16.837Z</time></trkpt><trkpt lat="45.4205087" lon="10.5296697"><ele>121.25</ele><time>2026-03-28T09:23:17.837Z</time></trkpt><trkpt lat="45.4205848" lon="10.5298099"><ele>121.5</ele><time>2026-03-28T09:23:18.836Z</time></trkpt><trkpt lat="45.4206579" lon="10.5299302"><ele>121.75</ele><time>2026-03-28T09:23:19.836Z</time></trkpt><trkpt lat="45.4207331" lon="10.5300461"><ele>122.0</ele><time>2026-03-28T09:23:20.837Z</time></trkpt><trkpt lat="45.4208137" lon="10.5301526"><ele>122.0</ele><time>2026-03-28T09:23:21.836Z</time></trkpt><trkpt lat="45.4208938" lon="10.5302395"><ele>121.99999999999999</ele><time>2026-03-28T09:23:22.836Z</time></trkpt><trkpt lat="45.4209727" lon="10.5303061"><ele>121.99999999999999</ele><time>2026-03-28T09:23:23.836Z</time></trkpt><trkpt lat="45.4210612" lon="10.5303744"><ele>122.0</ele><time>2026-03-28T09:23:24.836Z</time></trkpt><trkpt lat="45.4211581" lon="10.5304255"><ele>122.0</ele><time>2026-03-28T09:23:25.836Z</time></trkpt><trkpt lat="45.4212684" lon="10.5304584"><ele>123.19999999999999</ele><time>2026-03-28T09:23:26.836Z</time></trkpt><trkpt lat="45.4213749" lon="10.5304699"><ele>124.39999999999999</ele><time>2026-03-28T09:23:27.837Z</time></trkpt><trkpt lat="45.4214801" lon="10.5304653"><ele>125.60000000000001</ele><time>2026-03-28T09:23:28.836Z</time></trkpt><trkpt lat="45.4215862" lon="10.5304773"><ele>126.80000000000001</ele><time>2026-03-28T09:23:29.836Z</time></trkpt><trkpt lat="45.4216955" lon="10.5305066"><ele>128.0</ele><time>2026-03-28T09:23:30.837Z</time></trkpt><trkpt lat="45.4218004" lon="10.5305602"><ele>128.0</ele><time>2026-03-28T09:23:31.836Z</time></trkpt><trkpt lat="45.4218904" lon="10.5306456"><ele>128.0</ele><time>2026-03-28T09:23:32.836Z</time></trkpt><trkpt lat="45.4219634" lon="10.5307508"><ele>128.0</ele><time>2026-03-28T09:23:33.836Z</time></trkpt><trkpt lat="45.4220222" lon="10.5308729"><ele>128.0</ele><time>2026-03-28T09:23:34.836Z</time></trkpt><trkpt lat="45.4220677" lon="10.5309982"><ele>128.0</ele><time>2026-03-28T09:23:35.836Z</time></trkpt><trkpt lat="45.422093" lon="10.5311395"><ele>129.0</ele><time>2026-03-28T09:23:36.836Z</time></trkpt><trkpt lat="45.4221064" lon="10.5312751"><ele>130.0</ele><time>2026-03-28T09:23:37.836Z</time></trkpt><trkpt lat="45.4221057" lon="10.5313947"><ele>131.0</ele><time>2026-03-28T09:23:38.836Z</time></trkpt><trkpt lat="45.4221032" lon="10.5315058"><ele>132.0</ele><time>2026-03-28T09:23:39.837Z</time></trkpt><trkpt lat="45.4220978" lon="10.5316104"><ele>133.0</ele><time>2026-03-28T09:23:40.836Z</time></trkpt><trkpt lat="45.4220773" lon="10.5317891"><ele>133.0</ele><time>2026-03-28T09:23:42.836Z</time></trkpt><trkpt lat="45.4220511" lon="10.5318924"><ele>133.0</ele><time>2026-03-28T09:23:43.836Z</time></trkpt><trkpt lat="45.4220127" lon="10.5319959"><ele>133.0</ele><time>2026-03-28T09:23:44.836Z</time></trkpt><trkpt lat="45.4219672" lon="10.5320993"><ele>133.0</ele><time>2026-03-28T09:23:45.836Z</time></trkpt><trkpt lat="45.4219224" lon="10.5322109"><ele>133.0</ele><time>2026-03-28T09:23:46.836Z</time></trkpt><trkpt lat="45.4218703" lon="10.53233"><ele>133.0</ele><time>2026-03-28T09:23:47.836Z</time></trkpt><trkpt lat="45.4218089" lon="10.5324427"><ele>133.8</ele><time>2026-03-28T09:23:48.836Z</time></trkpt><trkpt lat="45.4217385" lon="10.5325467"><ele>134.60000000000002</ele><time>2026-03-28T09:23:49.836Z</time></trkpt><trkpt lat="45.4216511" lon="10.5326464"><ele>135.39999999999998</ele><time>2026-03-28T09:23:50.836Z</time></trkpt><trkpt lat="45.4215528" lon="10.5327319"><ele>136.2</ele><time>2026-03-28T09:23:51.836Z</time></trkpt><trkpt lat="45.4214435" lon="10.5328049"><ele>137.0</ele><time>2026-03-28T09:23:52.836Z</time></trkpt><trkpt lat="45.4213184" lon="10.5328734"><ele>137.25</ele><time>2026-03-28T09:23:53.837Z</time></trkpt><trkpt lat="45.4211879" lon="10.532935"><ele>137.5</ele><time>2026-03-28T09:23:54.837Z</time></trkpt><trkpt lat="45.4210519" lon="10.5329919"><ele>137.75</ele><time>2026-03-28T09:23:55.836Z</time></trkpt><trkpt lat="45.4209143" lon="10.5330513"><ele>138.0</ele><time>2026-03-28T09:23:56.837Z</time></trkpt><trkpt lat="45.4207735" lon="10.5331202"><ele>138.0</ele><time>2026-03-28T09:23:57.836Z</time></trkpt><trkpt lat="45.4206309" lon="10.5331979"><ele>138.0</ele><time>2026-03-28T09:23:58.836Z</time></trkpt><trkpt lat="45.4204876" lon="10.5332885"><ele>138.0</ele><time>2026-03-28T09:23:59.837Z</time></trkpt><trkpt lat="45.420345" lon="10.5333804"><ele>135.33333333333334</ele><time>2026-03-28T09:24:00.836Z</time></trkpt><trkpt lat="45.4202043" lon="10.533484"><ele>132.66666666666669</ele><time>2026-03-28T09:24:01.836Z</time></trkpt><trkpt lat="45.4200611" lon="10.5335933"><ele>130.0</ele><time>2026-03-28T09:24:02.836Z</time></trkpt><trkpt lat="45.4199199" lon="10.5337087"><ele>130.66666666666669</ele><time>2026-03-28T09:24:03.836Z</time></trkpt><trkpt lat="45.4197799" lon="10.5338317"><ele>131.33333333333334</ele><time>2026-03-28T09:24:04.836Z</time></trkpt><trkpt lat="45.4196412" lon="10.5339638"><ele>132.0</ele><time>2026-03-28T09:24:05.836Z</time></trkpt><trkpt lat="45.4195033" lon="10.5340906"><ele>132.0</ele><time>2026-03-28T09:24:06.837Z</time></trkpt><trkpt lat="45.4193639" lon="10.5342121"><ele>132.0</ele><time>2026-03-28T09:24:07.837Z</time></trkpt><trkpt lat="45.4192258" lon="10.5343324"><ele>132.0</ele><time>2026-03-28T09:24:08.837Z</time></trkpt><trkpt lat="45.4190876" lon="10.5344508"><ele>132.0</ele><time>2026-03-28T09:24:09.836Z</time></trkpt><trkpt lat="45.4189475" lon="10.5345545"><ele>132.0</ele><time>2026-03-28T09:24:10.836Z</time></trkpt><trkpt lat="45.4188018" lon="10.5346403"><ele>132.0</ele><time>2026-03-28T09:24:11.836Z</time></trkpt><trkpt lat="45.4186515" lon="10.53471"><ele>131.0</ele><time>2026-03-28T09:24:12.836Z</time></trkpt><trkpt lat="45.4184976" lon="10.5347711"><ele>130.0</ele><time>2026-03-28T09:24:13.837Z</time></trkpt><trkpt lat="45.4183434" lon="10.5348214"><ele>129.0</ele><time>2026-03-28T09:24:14.837Z</time></trkpt><trkpt lat="45.4181877" lon="10.5348797"><ele>129.0</ele><time>2026-03-28T09:24:15.836Z</time></trkpt><trkpt lat="45.4180377" lon="10.5349477"><ele>129.0</ele><time>2026-03-28T09:24:16.836Z</time></trkpt><trkpt lat="45.4178984" lon="10.5350407"><ele>129.0</ele><time>2026-03-28T09:24:17.836Z</time></trkpt><trkpt lat="45.4177722" lon="10.5351433"><ele>128.75</ele><time>2026-03-28T09:24:18.837Z</time></trkpt><trkpt lat="45.4176565" lon="10.5352499"><ele>128.5</ele><time>2026-03-28T09:24:19.836Z</time></trkpt><trkpt lat="45.4175518" lon="10.5353639"><ele>128.25</ele><time>2026-03-28T09:24:20.836Z</time></trkpt><trkpt lat="45.4174454" lon="10.5354762"><ele>128.0</ele><time>2026-03-28T09:24:21.837Z</time></trkpt><trkpt lat="45.4173323" lon="10.5355764"><ele>128.0</ele><time>2026-03-28T09:24:22.836Z</time></trkpt><trkpt lat="45.4172044" lon="10.5356504"><ele>128.0</ele><time>2026-03-28T09:24:23.836Z</time></trkpt><trkpt lat="45.4170648" lon="10.5357039"><ele>128.0</ele><time>2026-03-28T09:24:24.836Z</time></trkpt><trkpt lat="45.4169222" lon="10.5357422"><ele>128.0</ele><time>2026-03-28T09:24:25.836Z</time></trkpt><trkpt lat="45.4167753" lon="10.5357752"><ele>127.5</ele><time>2026-03-28T09:24:26.837Z</time></trkpt><trkpt lat="45.4166301" lon="10.5358092"><ele>127.0</ele><time>2026-03-28T09:24:27.836Z</time></trkpt><trkpt lat="45.4164865" lon="10.5358511"><ele>126.5</ele><time>2026-03-28T09:24:28.836Z</time></trkpt><trkpt lat="45.4163474" lon="10.535918"><ele>126.0</ele><time>2026-03-28T09:24:29.836Z</time></trkpt><trkpt lat="45.416216" lon="10.5360109"><ele>126.33333333333334</ele><time>2026-03-28T09:24:30.836Z</time></trkpt><trkpt lat="45.4160885" lon="10.5361261"><ele>126.66666666666667</ele><time>2026-03-28T09:24:31.836Z</time></trkpt><trkpt lat="45.4159648" lon="10.5362559"><ele>127.0</ele><time>2026-03-28T09:24:32.836Z</time></trkpt><trkpt lat="45.4158476" lon="10.5363863"><ele>127.0</ele><time>2026-03-28T09:24:33.836Z</time></trkpt><trkpt lat="45.4157378" lon="10.5365264"><ele>127.0</ele><time>2026-03-28T09:24:34.836Z</time></trkpt><trkpt lat="45.4156309" lon="10.5366797"><ele>127.0</ele><time>2026-03-28T09:24:35.836Z</time></trkpt><trkpt lat="45.4155319" lon="10.5368466"><ele>126.66666666666667</ele><time>2026-03-28T09:24:36.837Z</time></trkpt><trkpt lat="45.4154447" lon="10.5370296"><ele>126.33333333333334</ele><time>2026-03-28T09:24:37.836Z</time></trkpt><trkpt lat="45.4153645" lon="10.5372167"><ele>126.0</ele><time>2026-03-28T09:24:38.836Z</time></trkpt><trkpt lat="45.4152833" lon="10.5374108"><ele>126.0</ele><time>2026-03-28T09:24:39.836Z</time></trkpt><trkpt lat="45.4152" lon="10.5375983"><ele>126.0</ele><time>2026-03-28T09:24:40.836Z</time></trkpt><trkpt lat="45.4151095" lon="10.5377763"><ele>126.0</ele><time>2026-03-28T09:24:41.836Z</time></trkpt><trkpt lat="45.4150116" lon="10.5379454"><ele>125.66666666666666</ele><time>2026-03-28T09:24:42.836Z</time></trkpt><trkpt lat="45.4148996" lon="10.5380985"><ele>125.33333333333333</ele><time>2026-03-28T09:24:43.837Z</time></trkpt><trkpt lat="45.4147795" lon="10.538237"><ele>125.0</ele><time>2026-03-28T09:24:44.837Z</time></trkpt><trkpt lat="45.4146472" lon="10.5383695"><ele>125.0</ele><time>2026-03-28T09:24:45.836Z</time></trkpt><trkpt lat="45.4145153" lon="10.5384948"><ele>125.0</ele><time>2026-03-28T09:24:46.837Z</time></trkpt><trkpt lat="45.4143813" lon="10.5386263"><ele>125.0</ele><time>2026-03-28T09:24:47.837Z</time></trkpt><trkpt lat="45.4142454" lon="10.5387592"><ele>128.0</ele><time>2026-03-28T09:24:48.836Z</time></trkpt><trkpt lat="45.4141084" lon="10.5388895"><ele>131.0</ele><time>2026-03-28T09:24:49.836Z</time></trkpt><trkpt lat="45.4139657" lon="10.5390181"><ele>134.0</ele><time>2026-03-28T09:24:50.836Z</time></trkpt><trkpt lat="45.4138285" lon="10.5391438"><ele>131.0</ele><time>2026-03-28T09:24:51.836Z</time></trkpt><trkpt lat="45.4136891" lon="10.5392704"><ele>128.0</ele><time>2026-03-28T09:24:52.836Z</time></trkpt><trkpt lat="45.4135442" lon="10.5393882"><ele>125.0</ele><time>2026-03-28T09:24:53.836Z</time></trkpt><trkpt lat="45.4133993" lon="10.5394953"><ele>125.33333333333333</ele><time>2026-03-28T09:24:54.836Z</time></trkpt><trkpt lat="45.4132551" lon="10.5395987"><ele>125.66666666666666</ele><time>2026-03-28T09:24:55.836Z</time></trkpt><trkpt lat="45.413109" lon="10.5397045"><ele>126.0</ele><time>2026-03-28T09:24:56.836Z</time></trkpt><trkpt lat="45.4129741" lon="10.5398145"><ele>126.0</ele><time>2026-03-28T09:24:57.836Z</time></trkpt><trkpt lat="45.4128475" lon="10.5399383"><ele>126.0</ele><time>2026-03-28T09:24:58.837Z</time></trkpt><trkpt lat="45.4127349" lon="10.5400937"><ele>126.0</ele><time>2026-03-28T09:24:59.836Z</time></trkpt><trkpt lat="45.4126417" lon="10.5402796"><ele>127.0</ele><time>2026-03-28T09:25:00.836Z</time></trkpt><trkpt lat="45.4125548" lon="10.5404747"><ele>128.0</ele><time>2026-03-28T09:25:01.836Z</time></trkpt><trkpt lat="45.4124765" lon="10.5406782"><ele>129.0</ele><time>2026-03-28T09:25:02.836Z</time></trkpt><trkpt lat="45.4123982" lon="10.5408859"><ele>129.0</ele><time>2026-03-28T09:25:03.836Z</time></trkpt><trkpt lat="45.4123117" lon="10.54108"><ele>129.0</ele><time>2026-03-28T09:25:04.836Z</time></trkpt><trkpt lat="45.4122185" lon="10.5412696"><ele>129.0</ele><time>2026-03-28T09:25:05.836Z</time></trkpt><trkpt lat="45.4121155" lon="10.5414452"><ele>128.33333333333334</ele><time>2026-03-28T09:25:06.836Z</time></trkpt><trkpt lat="45.4120064" lon="10.5416248"><ele>127.66666666666667</ele><time>2026-03-28T09:25:07.837Z</time></trkpt><trkpt lat="45.4119004" lon="10.5418073"><ele>127.0</ele><time>2026-03-28T09:25:08.836Z</time></trkpt><trkpt lat="45.4117974" lon="10.5419945"><ele>126.66666666666667</ele><time>2026-03-28T09:25:09.836Z</time></trkpt><trkpt lat="45.4116984" lon="10.5421893"><ele>126.33333333333334</ele><time>2026-03-28T09:25:10.836Z</time></trkpt><trkpt lat="45.4116038" lon="10.54239"><ele>126.0</ele><time>2026-03-28T09:25:11.836Z</time></trkpt><trkpt lat="45.4115097" lon="10.5425886"><ele>126.0</ele><time>2026-03-28T09:25:12.836Z</time></trkpt><trkpt lat="45.4114152" lon="10.5427878"><ele>126.0</ele><time>2026-03-28T09:25:13.836Z</time></trkpt><trkpt lat="45.411322" lon="10.542985"><ele>126.0</ele><time>2026-03-28T09:25:14.837Z</time></trkpt><trkpt lat="45.4112431" lon="10.5431851"><ele>124.66666666666666</ele><time>2026-03-28T09:25:15.837Z</time></trkpt><trkpt lat="45.4111817" lon="10.5433944"><ele>123.33333333333333</ele><time>2026-03-28T09:25:16.836Z</time></trkpt><trkpt lat="45.4111328" lon="10.5436081"><ele>122.0</ele><time>2026-03-28T09:25:17.836Z</time></trkpt><trkpt lat="45.411075" lon="10.5438198"><ele>122.0</ele><time>2026-03-28T09:25:18.836Z</time></trkpt><trkpt lat="45.4109934" lon="10.5440157"><ele>122.0</ele><time>2026-03-28T09:25:19.836Z</time></trkpt><trkpt lat="45.4108755" lon="10.5441834"><ele>122.0</ele><time>2026-03-28T09:25:20.837Z</time></trkpt><trkpt lat="45.4107513" lon="10.5443465"><ele>122.0</ele><time>2026-03-28T09:25:21.836Z</time></trkpt><trkpt lat="45.4106179" lon="10.544509"><ele>122.0</ele><time>2026-03-28T09:25:22.836Z</time></trkpt><trkpt lat="45.4104936" lon="10.5446679"><ele>122.0</ele><time>2026-03-28T09:25:23.836Z</time></trkpt><trkpt lat="45.4103691" lon="10.5448216"><ele>121.66666666666666</ele><time>2026-03-28T09:25:24.836Z</time></trkpt><trkpt lat="45.4102454" lon="10.5449695"><ele>121.33333333333334</ele><time>2026-03-28T09:25:25.837Z</time></trkpt><trkpt lat="45.4101217" lon="10.5451119"><ele>121.0</ele><time>2026-03-28T09:25:26.836Z</time></trkpt><trkpt lat="45.409997" lon="10.545255"><ele>121.33333333333334</ele><time>2026-03-28T09:25:27.836Z</time></trkpt><trkpt lat="45.4098762" lon="10.5453953"><ele>121.66666666666666</ele><time>2026-03-28T09:25:28.836Z</time></trkpt><trkpt lat="45.4097554" lon="10.5455348"><ele>122.0</ele><time>2026-03-28T09:25:29.836Z</time></trkpt><trkpt lat="45.4096363" lon="10.5456521"><ele>120.0</ele><time>2026-03-28T09:25:30.836Z</time></trkpt><trkpt lat="45.4095189" lon="10.5457472"><ele>118.0</ele><time>2026-03-28T09:25:31.836Z</time></trkpt><trkpt lat="45.4094018" lon="10.5458179"><ele>116.0</ele><time>2026-03-28T09:25:32.837Z</time></trkpt><trkpt lat="45.409287" lon="10.5458657"><ele>114.0</ele><time>2026-03-28T09:25:33.837Z</time></trkpt><trkpt lat="45.4091781" lon="10.5458974"><ele>114.0</ele><time>2026-03-28T09:25:34.836Z</time></trkpt><trkpt lat="45.4090702" lon="10.5459155"><ele>114.0</ele><time>2026-03-28T09:25:35.837Z</time></trkpt><trkpt lat="45.4089574" lon="10.545916"><ele>114.0</ele><time>2026-03-28T09:25:36.836Z</time></trkpt><trkpt lat="45.4088389" lon="10.5458976"><ele>114.0</ele><time>2026-03-28T09:25:37.836Z</time></trkpt><trkpt lat="45.4087152" lon="10.5458763"><ele>113.6</ele><time>2026-03-28T09:25:38.836Z</time></trkpt><trkpt lat="45.4085983" lon="10.545855"><ele>113.2</ele><time>2026-03-28T09:25:39.837Z</time></trkpt><trkpt lat="45.4084928" lon="10.545837"><ele>112.79999999999998</ele><time>2026-03-28T09:25:40.836Z</time></trkpt><trkpt lat="45.4083852" lon="10.5458244"><ele>112.39999999999999</ele><time>2026-03-28T09:25:41.837Z</time></trkpt><trkpt lat="45.4082782" lon="10.5458142"><ele>112.0</ele><time>2026-03-28T09:25:42.836Z</time></trkpt><trkpt lat="45.4081734" lon="10.5458164"><ele>112.0</ele><time>2026-03-28T09:25:43.837Z</time></trkpt><trkpt lat="45.408061" lon="10.5458409"><ele>112.0</ele><time>2026-03-28T09:25:44.836Z</time></trkpt><trkpt lat="45.407947" lon="10.545872"><ele>112.0</ele><time>2026-03-28T09:25:45.837Z</time></trkpt><trkpt lat="45.4078229" lon="10.545913"><ele>112.0</ele><time>2026-03-28T09:25:46.836Z</time></trkpt><trkpt lat="45.4076913" lon="10.5459468"><ele>112.0</ele><time>2026-03-28T09:25:47.837Z</time></trkpt><trkpt lat="45.4075556" lon="10.5459674"><ele>112.0</ele><time>2026-03-28T09:25:48.836Z</time></trkpt><trkpt lat="45.4074279" lon="10.545987"><ele>112.0</ele><time>2026-03-28T09:25:49.836Z</time></trkpt><trkpt lat="45.4073043" lon="10.5460323"><ele>112.0</ele><time>2026-03-28T09:25:50.837Z</time></trkpt><trkpt lat="45.4071848" lon="10.5461061"><ele>112.5</ele><time>2026-03-28T09:25:51.837Z</time></trkpt><trkpt lat="45.4070777" lon="10.5462012"><ele>113.0</ele><time>2026-03-28T09:25:52.837Z</time></trkpt><trkpt lat="45.4069763" lon="10.5463158"><ele>113.5</ele><time>2026-03-28T09:25:53.836Z</time></trkpt><trkpt lat="45.4068812" lon="10.5464435"><ele>114.0</ele><time>2026-03-28T09:25:54.837Z</time></trkpt><trkpt lat="45.4067853" lon="10.5465692"><ele>114.5</ele><time>2026-03-28T09:25:55.836Z</time></trkpt><trkpt lat="45.4066848" lon="10.5467028"><ele>115.0</ele><time>2026-03-28T09:25:56.837Z</time></trkpt><trkpt lat="45.4065815" lon="10.5468377"><ele>115.5</ele><time>2026-03-28T09:25:57.836Z</time></trkpt><trkpt lat="45.4064699" lon="10.5469649"><ele>116.0</ele><time>2026-03-28T09:25:58.837Z</time></trkpt><trkpt lat="45.406351" lon="10.5470807"><ele>117.5</ele><time>2026-03-28T09:25:59.836Z</time></trkpt><trkpt lat="45.4062229" lon="10.5471764"><ele>119.0</ele><time>2026-03-28T09:26:00.836Z</time></trkpt><trkpt lat="45.4060891" lon="10.5472487"><ele>120.5</ele><time>2026-03-28T09:26:01.836Z</time></trkpt><trkpt lat="45.4059437" lon="10.5473094"><ele>122.0</ele><time>2026-03-28T09:26:02.836Z</time></trkpt><trkpt lat="45.4058044" lon="10.5473723"><ele>122.0</ele><time>2026-03-28T09:26:03.837Z</time></trkpt><trkpt lat="45.4056796" lon="10.5474306"><ele>122.0</ele><time>2026-03-28T09:26:04.837Z</time></trkpt><trkpt lat="45.405555" lon="10.5474925"><ele>122.0</ele><time>2026-03-28T09:26:05.836Z</time></trkpt><trkpt lat="45.4054312" lon="10.5475654"><ele>122.0</ele><time>2026-03-28T09:26:06.837Z</time></trkpt><trkpt lat="45.4053046" lon="10.5476577"><ele>122.33333333333333</ele><time>2026-03-28T09:26:07.837Z</time></trkpt><trkpt lat="45.4051745" lon="10.5477641"><ele>122.66666666666666</ele><time>2026-03-28T09:26:08.836Z</time></trkpt><trkpt lat="45.4050438" lon="10.5478686"><ele>123.0</ele><time>2026-03-28T09:26:09.837Z</time></trkpt><trkpt lat="45.4049142" lon="10.547977"><ele>123.0</ele><time>2026-03-28T09:26:10.836Z</time></trkpt><trkpt lat="45.4047844" lon="10.5480898"><ele>123.0</ele><time>2026-03-28T09:26:11.836Z</time></trkpt><trkpt lat="45.4046534" lon="10.5482048"><ele>123.0</ele><time>2026-03-28T09:26:12.836Z</time></trkpt><trkpt lat="45.4045201" lon="10.5483156"><ele>122.75</ele><time>2026-03-28T09:26:13.836Z</time></trkpt><trkpt lat="45.4043956" lon="10.5484252"><ele>122.5</ele><time>2026-03-28T09:26:14.836Z</time></trkpt><trkpt lat="45.4042819" lon="10.5485224"><ele>122.25</ele><time>2026-03-28T09:26:15.836Z</time></trkpt><trkpt lat="45.404174" lon="10.5486195"><ele>122.0</ele><time>2026-03-28T09:26:16.836Z</time></trkpt><trkpt lat="45.4040702" lon="10.5487296"><ele>122.0</ele><time>2026-03-28T09:26:17.837Z</time></trkpt><trkpt lat="45.4039679" lon="10.5488524"><ele>122.0</ele><time>2026-03-28T09:26:18.837Z</time></trkpt><trkpt lat="45.4038686" lon="10.5489759"><ele>122.0</ele><time>2026-03-28T09:26:19.837Z</time></trkpt><trkpt lat="45.4037632" lon="10.5491186"><ele>122.0</ele><time>2026-03-28T09:26:20.836Z</time></trkpt><trkpt lat="45.4036566" lon="10.5492402"><ele>120.75</ele><time>2026-03-28T09:26:21.836Z</time></trkpt><trkpt lat="45.4035424" lon="10.5493366"><ele>119.5</ele><time>2026-03-28T09:26:22.836Z</time></trkpt><trkpt lat="45.4034143" lon="10.5494192"><ele>118.25</ele><time>2026-03-28T09:26:23.836Z</time></trkpt><trkpt lat="45.4032894" lon="10.5494779"><ele>117.0</ele><time>2026-03-28T09:26:24.836Z</time></trkpt><trkpt lat="45.4031719" lon="10.5495137"><ele>117.0</ele><time>2026-03-28T09:26:25.836Z</time></trkpt><trkpt lat="45.4030542" lon="10.5495204"><ele>116.99999999999999</ele><time>2026-03-28T09:26:26.836Z</time></trkpt><trkpt lat="45.402947" lon="10.5494989"><ele>116.99999999999999</ele><time>2026-03-28T09:26:27.836Z</time></trkpt><trkpt lat="45.4028432" lon="10.5494777"><ele>117.0</ele><time>2026-03-28T09:26:28.836Z</time></trkpt><trkpt lat="45.4027404" lon="10.5494727"><ele>117.0</ele><time>2026-03-28T09:26:29.836Z</time></trkpt><trkpt lat="45.4026448" lon="10.5494813"><ele>117.25</ele><time>2026-03-28T09:26:30.836Z</time></trkpt><trkpt lat="45.4025404" lon="10.5495191"><ele>117.5</ele><time>2026-03-28T09:26:31.837Z</time></trkpt><trkpt lat="45.4024359" lon="10.5495861"><ele>117.75</ele><time>2026-03-28T09:26:32.836Z</time></trkpt><trkpt lat="45.4023289" lon="10.5496838"><ele>118.0</ele><time>2026-03-28T09:26:33.836Z</time></trkpt><trkpt lat="45.4022234" lon="10.5498027"><ele>117.75</ele><time>2026-03-28T09:26:34.836Z</time></trkpt><trkpt lat="45.40212" lon="10.5499431"><ele>117.5</ele><time>2026-03-28T09:26:35.837Z</time></trkpt><trkpt lat="45.4020191" lon="10.5500849"><ele>117.25</ele><time>2026-03-28T09:26:36.837Z</time></trkpt><trkpt lat="45.4019178" lon="10.5502328"><ele>117.0</ele><time>2026-03-28T09:26:37.836Z</time></trkpt><trkpt lat="45.4018167" lon="10.550375"><ele>117.0</ele><time>2026-03-28T09:26:38.837Z</time></trkpt><trkpt lat="45.401713" lon="10.5505153"><ele>117.0</ele><time>2026-03-28T09:26:39.836Z</time></trkpt><trkpt lat="45.4016041" lon="10.5506531"><ele>117.0</ele><time>2026-03-28T09:26:40.837Z</time></trkpt><trkpt lat="45.401504" lon="10.5507765"><ele>117.0</ele><time>2026-03-28T09:26:41.836Z</time></trkpt><trkpt lat="45.401401" lon="10.5508993"><ele>116.25</ele><time>2026-03-28T09:26:42.837Z</time></trkpt><trkpt lat="45.4012972" lon="10.5510244"><ele>115.5</ele><time>2026-03-28T09:26:43.837Z</time></trkpt><trkpt lat="45.4011852" lon="10.5510738"><ele>114.75</ele><time>2026-03-28T09:26:44.836Z</time></trkpt><trkpt lat="45.4010669" lon="10.5511117"><ele>114.0</ele><time>2026-03-28T09:26:45.836Z</time></trkpt><trkpt lat="45.4009405" lon="10.5511285"><ele>114.0</ele><time>2026-03-28T09:26:46.836Z</time></trkpt><trkpt lat="45.4008011" lon="10.5511188"><ele>114.0</ele><time>2026-03-28T09:26:47.836Z</time></trkpt><trkpt lat="45.4006848" lon="10.5511121"><ele>114.0</ele><time>2026-03-28T09:26:48.837Z</time></trkpt><trkpt lat="45.4005604" lon="10.5511177"><ele>114.0</ele><time>2026-03-28T09:26:49.837Z</time></trkpt><trkpt lat="45.4004448" lon="10.5511333"><ele>114.25</ele><time>2026-03-28T09:26:50.836Z</time></trkpt><trkpt lat="45.4003443" lon="10.5511783"><ele>114.5</ele><time>2026-03-28T09:26:51.837Z</time></trkpt><trkpt lat="45.4002321" lon="10.5512345"><ele>114.75</ele><time>2026-03-28T09:26:52.837Z</time></trkpt><trkpt lat="45.4001256" lon="10.5513191"><ele>115.0</ele><time>2026-03-28T09:26:53.837Z</time></trkpt><trkpt lat="45.4000296" lon="10.5514047"><ele>115.0</ele><time>2026-03-28T09:26:54.837Z</time></trkpt><trkpt lat="45.3999381" lon="10.5514684"><ele>115.0</ele><time>2026-03-28T09:26:55.837Z</time></trkpt><trkpt lat="45.3998379" lon="10.5515205"><ele>115.0</ele><time>2026-03-28T09:26:56.836Z</time></trkpt><trkpt lat="45.3997251" lon="10.5515567"><ele>115.0</ele><time>2026-03-28T09:26:57.836Z</time></trkpt><trkpt lat="45.3995954" lon="10.5515778"><ele>115.0</ele><time>2026-03-28T09:26:58.836Z</time></trkpt><trkpt lat="45.3994559" lon="10.5515882"><ele>115.0</ele><time>2026-03-28T09:26:59.836Z</time></trkpt><trkpt lat="45.3993169" lon="10.5515966"><ele>115.0</ele><time>2026-03-28T09:27:00.836Z</time></trkpt><trkpt lat="45.3991895" lon="10.5515876"><ele>115.0</ele><time>2026-03-28T09:27:01.837Z</time></trkpt><trkpt lat="45.399067" lon="10.5515767"><ele>115.0</ele><time>2026-03-28T09:27:02.837Z</time></trkpt><trkpt lat="45.3989492" lon="10.5515861"><ele>115.0</ele><time>2026-03-28T09:27:03.836Z</time></trkpt><trkpt lat="45.3988421" lon="10.5516285"><ele>115.0</ele><time>2026-03-28T09:27:04.836Z</time></trkpt><trkpt lat="45.3987212" lon="10.5516844"><ele>115.0</ele><time>2026-03-28T09:27:05.837Z</time></trkpt><trkpt lat="45.3986159" lon="10.5517467"><ele>116.6</ele><time>2026-03-28T09:27:06.836Z</time></trkpt><trkpt lat="45.3985091" lon="10.5517979"><ele>118.2</ele><time>2026-03-28T09:27:07.836Z</time></trkpt><trkpt lat="45.3984037" lon="10.5518559"><ele>119.80000000000001</ele><time>2026-03-28T09:27:08.836Z</time></trkpt><trkpt lat="45.3983009" lon="10.5518964"><ele>121.4</ele><time>2026-03-28T09:27:09.836Z</time></trkpt><trkpt lat="45.3981972" lon="10.5519244"><ele>123.0</ele><time>2026-03-28T09:27:10.837Z</time></trkpt><trkpt lat="45.3980912" lon="10.5519322"><ele>122.80000000000001</ele><time>2026-03-28T09:27:11.836Z</time></trkpt><trkpt lat="45.3979856" lon="10.5519237"><ele>122.60000000000001</ele><time>2026-03-28T09:27:12.836Z</time></trkpt><trkpt lat="45.397879" lon="10.5519075"><ele>122.39999999999999</ele><time>2026-03-28T09:27:13.836Z</time></trkpt><trkpt lat="45.3977784" lon="10.5518888"><ele>122.19999999999999</ele><time>2026-03-28T09:27:14.836Z</time></trkpt><trkpt lat="45.3976741" lon="10.5518606"><ele>122.0</ele><time>2026-03-28T09:27:15.837Z</time></trkpt><trkpt lat="45.3975665" lon="10.5518367"><ele>122.0</ele><time>2026-03-28T09:27:16.836Z</time></trkpt><trkpt lat="45.3974547" lon="10.5518121"><ele>122.0</ele><time>2026-03-28T09:27:17.837Z</time></trkpt><trkpt lat="45.3973366" lon="10.5517881"><ele>122.0</ele><time>2026-03-28T09:27:18.836Z</time></trkpt><trkpt lat="45.3972181" lon="10.551766"><ele>122.0</ele><time>2026-03-28T09:27:19.837Z</time></trkpt><trkpt lat="45.3971164" lon="10.5517522"><ele>121.83333333333333</ele><time>2026-03-28T09:27:20.837Z</time></trkpt><trkpt lat="45.3970327" lon="10.5517561"><ele>121.66666666666666</ele><time>2026-03-28T09:27:21.837Z</time></trkpt><trkpt lat="45.3969414" lon="10.5518305"><ele>121.5</ele><time>2026-03-28T09:27:23.837Z</time></trkpt><trkpt lat="45.3969204" lon="10.5519164"><ele>121.33333333333334</ele><time>2026-03-28T09:27:24.836Z</time></trkpt><trkpt lat="45.3969042" lon="10.552029"><ele>121.16666666666667</ele><time>2026-03-28T09:27:25.836Z</time></trkpt><trkpt lat="45.3968968" lon="10.5521622"><ele>121.0</ele><time>2026-03-28T09:27:26.837Z</time></trkpt><trkpt lat="45.3969092" lon="10.5523133"><ele>123.25</ele><time>2026-03-28T09:27:27.836Z</time></trkpt><trkpt lat="45.3969456" lon="10.5524605"><ele>125.5</ele><time>2026-03-28T09:27:28.837Z</time></trkpt><trkpt lat="45.3970374" lon="10.5526599"><ele>127.75</ele><time>2026-03-28T09:27:29.837Z</time></trkpt><trkpt lat="45.3970993" lon="10.5528264"><ele>130.0</ele><time>2026-03-28T09:27:30.836Z</time></trkpt><trkpt lat="45.397148" lon="10.5530101"><ele>126.25</ele><time>2026-03-28T09:27:31.837Z</time></trkpt><trkpt lat="45.3972007" lon="10.5531994"><ele>122.5</ele><time>2026-03-28T09:27:32.837Z</time></trkpt><trkpt lat="45.3972448" lon="10.553412"><ele>118.75</ele><time>2026-03-28T09:27:33.837Z</time></trkpt><trkpt lat="45.3973099" lon="10.5536009"><ele>115.0</ele><time>2026-03-28T09:27:34.836Z</time></trkpt><trkpt lat="45.3973652" lon="10.5537802"><ele>114.5</ele><time>2026-03-28T09:27:35.836Z</time></trkpt><trkpt lat="45.3974249" lon="10.5539518"><ele>114.0</ele><time>2026-03-28T09:27:36.837Z</time></trkpt><trkpt lat="45.3974831" lon="10.5541261"><ele>113.5</ele><time>2026-03-28T09:27:37.836Z</time></trkpt><trkpt lat="45.3975397" lon="10.5543056"><ele>113.0</ele><time>2026-03-28T09:27:38.836Z</time></trkpt><trkpt lat="45.3975885" lon="10.5544929"><ele>112.25</ele><time>2026-03-28T09:27:39.836Z</time></trkpt><trkpt lat="45.3976097" lon="10.5547024"><ele>111.5</ele><time>2026-03-28T09:27:40.836Z</time></trkpt><trkpt lat="45.3976106" lon="10.5549131"><ele>110.75</ele><time>2026-03-28T09:27:41.836Z</time></trkpt><trkpt lat="45.397578" lon="10.5551167"><ele>110.0</ele><time>2026-03-28T09:27:42.836Z</time></trkpt><trkpt lat="45.3975249" lon="10.5553159"><ele>108.33333333333333</ele><time>2026-03-28T09:27:43.837Z</time></trkpt><trkpt lat="45.3974653" lon="10.55552"><ele>106.66666666666666</ele><time>2026-03-28T09:27:44.836Z</time></trkpt><trkpt lat="45.3974106" lon="10.5557274"><ele>105.0</ele><time>2026-03-28T09:27:45.836Z</time></trkpt><trkpt lat="45.3973651" lon="10.5559421"><ele>105.0</ele><time>2026-03-28T09:27:46.836Z</time></trkpt><trkpt lat="45.3973302" lon="10.5561591"><ele>105.0</ele><time>2026-03-28T09:27:47.836Z</time></trkpt><trkpt lat="45.3973067" lon="10.5563798"><ele>105.0</ele><time>2026-03-28T09:27:48.837Z</time></trkpt><trkpt lat="45.3972852" lon="10.5565945"><ele>105.25</ele><time>2026-03-28T09:27:49.837Z</time></trkpt><trkpt lat="45.3972626" lon="10.5568021"><ele>105.5</ele><time>2026-03-28T09:27:50.836Z</time></trkpt><trkpt lat="45.3972419" lon="10.5569885"><ele>105.75</ele><time>2026-03-28T09:27:51.836Z</time></trkpt><trkpt lat="45.3972092" lon="10.5571505"><ele>106.0</ele><time>2026-03-28T09:27:52.836Z</time></trkpt><trkpt lat="45.3971582" lon="10.5572979"><ele>105.5</ele><time>2026-03-28T09:27:53.836Z</time></trkpt><trkpt lat="45.3970839" lon="10.557446"><ele>105.0</ele><time>2026-03-28T09:27:54.836Z</time></trkpt><trkpt lat="45.3969939" lon="10.5576006"><ele>104.5</ele><time>2026-03-28T09:27:55.836Z</time></trkpt><trkpt lat="45.3969034" lon="10.557777"><ele>104.0</ele><time>2026-03-28T09:27:56.836Z</time></trkpt><trkpt lat="45.3968337" lon="10.557988"><ele>104.0</ele><time>2026-03-28T09:27:57.836Z</time></trkpt><trkpt lat="45.3967854" lon="10.5582179"><ele>104.0</ele><time>2026-03-28T09:27:58.837Z</time></trkpt><trkpt lat="45.3967597" lon="10.5584605"><ele>104.0</ele><time>2026-03-28T09:27:59.836Z</time></trkpt><trkpt lat="45.3967585" lon="10.5587071"><ele>103.33333333333333</ele><time>2026-03-28T09:28:00.836Z</time></trkpt><trkpt lat="45.396769" lon="10.5589522"><ele>102.66666666666666</ele><time>2026-03-28T09:28:01.837Z</time></trkpt><trkpt lat="45.3967897" lon="10.5591965"><ele>102.0</ele><time>2026-03-28T09:28:02.836Z</time></trkpt><trkpt lat="45.3968069" lon="10.5594396"><ele>102.66666666666666</ele><time>2026-03-28T09:28:03.837Z</time></trkpt><trkpt lat="45.3968243" lon="10.5596821"><ele>103.33333333333333</ele><time>2026-03-28T09:28:04.837Z</time></trkpt><trkpt lat="45.3968395" lon="10.5599218"><ele>104.0</ele><time>2026-03-28T09:28:05.836Z</time></trkpt><trkpt lat="45.3968521" lon="10.560156"><ele>104.0</ele><time>2026-03-28T09:28:06.837Z</time></trkpt><trkpt lat="45.3968639" lon="10.5603884"><ele>104.0</ele><time>2026-03-28T09:28:07.836Z</time></trkpt><trkpt lat="45.3968711" lon="10.5606177"><ele>104.0</ele><time>2026-03-28T09:28:08.836Z</time></trkpt><trkpt lat="45.3968739" lon="10.5608441"><ele>104.0</ele><time>2026-03-28T09:28:09.836Z</time></trkpt><trkpt lat="45.3968619" lon="10.5610716"><ele>104.0</ele><time>2026-03-28T09:28:10.836Z</time></trkpt><trkpt lat="45.396825" lon="10.561294"><ele>104.0</ele><time>2026-03-28T09:28:11.836Z</time></trkpt><trkpt lat="45.3967855" lon="10.5615136"><ele>104.0</ele><time>2026-03-28T09:28:12.836Z</time></trkpt><trkpt lat="45.3967408" lon="10.5617283"><ele>104.0</ele><time>2026-03-28T09:28:13.836Z</time></trkpt><trkpt lat="45.3966872" lon="10.5619404"><ele>104.0</ele><time>2026-03-28T09:28:14.836Z</time></trkpt><trkpt lat="45.396634" lon="10.5621549"><ele>103.0</ele><time>2026-03-28T09:28:15.836Z</time></trkpt><trkpt lat="45.3965765" lon="10.5623676"><ele>102.0</ele><time>2026-03-28T09:28:16.836Z</time></trkpt><trkpt lat="45.3965148" lon="10.5625754"><ele>101.0</ele><time>2026-03-28T09:28:17.837Z</time></trkpt><trkpt lat="45.3964512" lon="10.5627743"><ele>101.0</ele><time>2026-03-28T09:28:18.836Z</time></trkpt><trkpt lat="45.3963876" lon="10.5629571"><ele>101.0</ele><time>2026-03-28T09:28:19.836Z</time></trkpt><trkpt lat="45.3963232" lon="10.563126"><ele>101.0</ele><time>2026-03-28T09:28:20.836Z</time></trkpt><trkpt lat="45.3962657" lon="10.5632794"><ele>101.0</ele><time>2026-03-28T09:28:21.836Z</time></trkpt><trkpt lat="45.3962125" lon="10.5634117"><ele>101.0</ele><time>2026-03-28T09:28:22.836Z</time></trkpt><trkpt lat="45.3961698" lon="10.5635132"><ele>101.0</ele><time>2026-03-28T09:28:23.836Z</time></trkpt><trkpt lat="45.3961356" lon="10.5636602"><ele>101.0</ele><time>2026-03-28T09:28:25.836Z</time></trkpt><trkpt lat="45.3962178" lon="10.5638232"><ele>101.0</ele><time>2026-03-28T09:28:27.837Z</time></trkpt><trkpt lat="45.3962889" lon="10.5639209"><ele>101.0</ele><time>2026-03-28T09:28:28.837Z</time></trkpt><trkpt lat="45.3963704" lon="10.5640334"><ele>101.25</ele><time>2026-03-28T09:28:29.836Z</time></trkpt><trkpt lat="45.3964585" lon="10.5641495"><ele>101.5</ele><time>2026-03-28T09:28:30.836Z</time></trkpt><trkpt lat="45.3965504" lon="10.5642777"><ele>101.75</ele><time>2026-03-28T09:28:31.836Z</time></trkpt><trkpt lat="45.3966463" lon="10.5644103"><ele>102.0</ele><time>2026-03-28T09:28:32.837Z</time></trkpt><trkpt lat="45.3967437" lon="10.5645493"><ele>102.0</ele><time>2026-03-28T09:28:33.836Z</time></trkpt><trkpt lat="45.3968447" lon="10.5646883"><ele>102.0</ele><time>2026-03-28T09:28:34.837Z</time></trkpt><trkpt lat="45.3969513" lon="10.5648277"><ele>102.0</ele><time>2026-03-28T09:28:35.836Z</time></trkpt><trkpt lat="45.3970549" lon="10.5649674"><ele>102.0</ele><time>2026-03-28T09:28:36.837Z</time></trkpt><trkpt lat="45.3971554" lon="10.5651019"><ele>102.0</ele><time>2026-03-28T09:28:37.836Z</time></trkpt><trkpt lat="45.3972532" lon="10.5652403"><ele>102.0</ele><time>2026-03-28T09:28:38.836Z</time></trkpt><trkpt lat="45.3973409" lon="10.5653836"><ele>102.0</ele><time>2026-03-28T09:28:39.836Z</time></trkpt><trkpt lat="45.3974131" lon="10.5655352"><ele>102.0</ele><time>2026-03-28T09:28:40.836Z</time></trkpt><trkpt lat="45.3974559" lon="10.5656927"><ele>102.0</ele><time>2026-03-28T09:28:41.837Z</time></trkpt><trkpt lat="45.397485" lon="10.5658444"><ele>102.0</ele><time>2026-03-28T09:28:42.836Z</time></trkpt><trkpt lat="45.3975338" lon="10.5659927"><ele>102.0</ele><time>2026-03-28T09:28:43.836Z</time></trkpt><trkpt lat="45.3976007" lon="10.5661407"><ele>102.0</ele><time>2026-03-28T09:28:44.837Z</time></trkpt><trkpt lat="45.3976883" lon="10.5662832"><ele>102.0</ele><time>2026-03-28T09:28:45.836Z</time></trkpt><trkpt lat="45.3977898" lon="10.5664216"><ele>102.0</ele><time>2026-03-28T09:28:46.837Z</time></trkpt><trkpt lat="45.3978895" lon="10.5665714"><ele>102.0</ele><time>2026-03-28T09:28:47.836Z</time></trkpt><trkpt lat="45.3979974" lon="10.5667245"><ele>102.0</ele><time>2026-03-28T09:28:48.836Z</time></trkpt><trkpt lat="45.3981087" lon="10.5668743"><ele>102.0</ele><time>2026-03-28T09:28:49.836Z</time></trkpt><trkpt lat="45.3982231" lon="10.5670207"><ele>102.0</ele><time>2026-03-28T09:28:50.837Z</time></trkpt><trkpt lat="45.3983406" lon="10.5671617"><ele>102.0</ele><time>2026-03-28T09:28:51.837Z</time></trkpt><trkpt lat="45.398461" lon="10.5673082"><ele>103.0</ele><time>2026-03-28T09:28:52.837Z</time></trkpt><trkpt lat="45.3985837" lon="10.5674563"><ele>104.0</ele><time>2026-03-28T09:28:53.837Z</time></trkpt><trkpt lat="45.3987035" lon="10.5676069"><ele>105.0</ele><time>2026-03-28T09:28:54.836Z</time></trkpt><trkpt lat="45.3988208" lon="10.5677596"><ele>106.33333333333334</ele><time>2026-03-28T09:28:55.836Z</time></trkpt><trkpt lat="45.3989365" lon="10.5679133"><ele>107.66666666666667</ele><time>2026-03-28T09:28:56.836Z</time></trkpt><trkpt lat="45.3990553" lon="10.5680702"><ele>109.0</ele><time>2026-03-28T09:28:57.837Z</time></trkpt><trkpt lat="45.3991719" lon="10.5682178"><ele>109.0</ele><time>2026-03-28T09:28:58.836Z</time></trkpt><trkpt lat="45.399286" lon="10.5683604"><ele>109.0</ele><time>2026-03-28T09:28:59.837Z</time></trkpt><trkpt lat="45.3993922" lon="10.5684946"><ele>109.0</ele><time>2026-03-28T09:29:00.836Z</time></trkpt><trkpt lat="45.3994783" lon="10.5686062"><ele>109.0</ele><time>2026-03-28T09:29:01.837Z</time></trkpt><trkpt lat="45.3995451" lon="10.5687013"><ele>110.0</ele><time>2026-03-28T09:29:02.836Z</time></trkpt><trkpt lat="45.3995903" lon="10.5687867"><ele>111.0</ele><time>2026-03-28T09:29:03.837Z</time></trkpt><trkpt lat="45.3996076" lon="10.5688922"><ele>112.0</ele><time>2026-03-28T09:29:08.836Z</time></trkpt><trkpt lat="45.3995216" lon="10.5690268"><ele>113.0</ele><time>2026-03-28T09:29:10.836Z</time></trkpt><trkpt lat="45.3994567" lon="10.5691173"><ele>114.0</ele><time>2026-03-28T09:29:11.837Z</time></trkpt><trkpt lat="45.3993837" lon="10.5692145"><ele>114.0</ele><time>2026-03-28T09:29:12.836Z</time></trkpt><trkpt lat="45.3993041" lon="10.5693336"><ele>114.0</ele><time>2026-03-28T09:29:13.837Z</time></trkpt><trkpt lat="45.399222" lon="10.5694559"><ele>114.0</ele><time>2026-03-28T09:29:14.837Z</time></trkpt><trkpt lat="45.3991305" lon="10.5695824"><ele>114.0</ele><time>2026-03-28T09:29:15.836Z</time></trkpt><trkpt lat="45.3990366" lon="10.5697184"><ele>114.75</ele><time>2026-03-28T09:29:16.837Z</time></trkpt><trkpt lat="45.3989387" lon="10.5698574"><ele>115.5</ele><time>2026-03-28T09:29:17.836Z</time></trkpt><trkpt lat="45.3988418" lon="10.5699962"><ele>116.25</ele><time>2026-03-28T09:29:18.836Z</time></trkpt><trkpt lat="45.3987537" lon="10.5701223"><ele>117.0</ele><time>2026-03-28T09:29:19.836Z</time></trkpt><trkpt lat="45.3986729" lon="10.5702415"><ele>117.5</ele><time>2026-03-28T09:29:20.836Z</time></trkpt><trkpt lat="45.3985973" lon="10.5703542"><ele>118.0</ele><time>2026-03-28T09:29:21.836Z</time></trkpt><trkpt lat="45.3985048" lon="10.5704738"><ele>118.5</ele><time>2026-03-28T09:29:22.837Z</time></trkpt><trkpt lat="45.3984039" lon="10.5705993"><ele>119.0</ele><time>2026-03-28T09:29:23.836Z</time></trkpt><trkpt lat="45.398296" lon="10.5707179"><ele>119.0</ele><time>2026-03-28T09:29:24.836Z</time></trkpt><trkpt lat="45.3981903" lon="10.570832"><ele>119.0</ele><time>2026-03-28T09:29:25.836Z</time></trkpt><trkpt lat="45.3980741" lon="10.5709584"><ele>119.0</ele><time>2026-03-28T09:29:26.836Z</time></trkpt><trkpt lat="45.3979501" lon="10.5710892"><ele>119.0</ele><time>2026-03-28T09:29:27.836Z</time></trkpt><trkpt lat="45.3978194" lon="10.5712326"><ele>118.66666666666666</ele><time>2026-03-28T09:29:28.836Z</time></trkpt><trkpt lat="45.3976826" lon="10.5713801"><ele>118.33333333333334</ele><time>2026-03-28T09:29:29.837Z</time></trkpt><trkpt lat="45.3975448" lon="10.5715345"><ele>118.0</ele><time>2026-03-28T09:29:30.836Z</time></trkpt><trkpt lat="45.3974054" lon="10.5716923"><ele>118.0</ele><time>2026-03-28T09:29:31.836Z</time></trkpt><trkpt lat="45.3972648" lon="10.5718587"><ele>118.0</ele><time>2026-03-28T09:29:32.836Z</time></trkpt><trkpt lat="45.397118" lon="10.5720277"><ele>118.0</ele><time>2026-03-28T09:29:33.836Z</time></trkpt><trkpt lat="45.3969717" lon="10.5722"><ele>117.66666666666667</ele><time>2026-03-28T09:29:34.837Z</time></trkpt><trkpt lat="45.3968234" lon="10.5723673"><ele>117.33333333333334</ele><time>2026-03-28T09:29:35.836Z</time></trkpt><trkpt lat="45.396679" lon="10.572534"><ele>117.0</ele><time>2026-03-28T09:29:36.837Z</time></trkpt><trkpt lat="45.3965327" lon="10.5726897"><ele>117.0</ele><time>2026-03-28T09:29:37.836Z</time></trkpt><trkpt lat="45.3963819" lon="10.5728249"><ele>117.0</ele><time>2026-03-28T09:29:38.837Z</time></trkpt><trkpt lat="45.3962178" lon="10.5729404"><ele>117.0</ele><time>2026-03-28T09:29:39.836Z</time></trkpt><trkpt lat="45.3960533" lon="10.5730349"><ele>117.66666666666666</ele><time>2026-03-28T09:29:40.836Z</time></trkpt><trkpt lat="45.3958862" lon="10.5731261"><ele>118.33333333333333</ele><time>2026-03-28T09:29:41.837Z</time></trkpt><trkpt lat="45.3957247" lon="10.5732257"><ele>119.0</ele><time>2026-03-28T09:29:42.837Z</time></trkpt><trkpt lat="45.3955671" lon="10.5733504"><ele>119.0</ele><time>2026-03-28T09:29:43.836Z</time></trkpt><trkpt lat="45.3954174" lon="10.5734955"><ele>119.0</ele><time>2026-03-28T09:29:44.836Z</time></trkpt><trkpt lat="45.3952689" lon="10.5736416"><ele>119.0</ele><time>2026-03-28T09:29:45.836Z</time></trkpt><trkpt lat="45.3951218" lon="10.5738011"><ele>119.0</ele><time>2026-03-28T09:29:46.836Z</time></trkpt><trkpt lat="45.3949767" lon="10.5739563"><ele>119.0</ele><time>2026-03-28T09:29:47.837Z</time></trkpt><trkpt lat="45.3948335" lon="10.5741221"><ele>119.0</ele><time>2026-03-28T09:29:48.836Z</time></trkpt><trkpt lat="45.394689" lon="10.574288"><ele>119.0</ele><time>2026-03-28T09:29:49.836Z</time></trkpt><trkpt lat="45.3945443" lon="10.5744549"><ele>119.0</ele><time>2026-03-28T09:29:50.837Z</time></trkpt><trkpt lat="45.3943971" lon="10.5746215"><ele>119.0</ele><time>2026-03-28T09:29:51.837Z</time></trkpt><trkpt lat="45.3942569" lon="10.5747928"><ele>119.0</ele><time>2026-03-28T09:29:52.836Z</time></trkpt><trkpt lat="45.3941213" lon="10.5749655"><ele>119.0</ele><time>2026-03-28T09:29:53.836Z</time></trkpt><trkpt lat="45.3939855" lon="10.5751345"><ele>119.0</ele><time>2026-03-28T09:29:54.836Z</time></trkpt><trkpt lat="45.3938555" lon="10.5753028"><ele>118.66666666666666</ele><time>2026-03-28T09:29:55.836Z</time></trkpt><trkpt lat="45.3937259" lon="10.5754734"><ele>118.33333333333334</ele><time>2026-03-28T09:29:56.836Z</time></trkpt><trkpt lat="45.3936027" lon="10.5756486"><ele>118.0</ele><time>2026-03-28T09:29:57.836Z</time></trkpt><trkpt lat="45.393495" lon="10.5758415"><ele>118.0</ele><time>2026-03-28T09:29:58.836Z</time></trkpt><trkpt lat="45.3933996" lon="10.5760438"><ele>118.0</ele><time>2026-03-28T09:29:59.836Z</time></trkpt><trkpt lat="45.3933003" lon="10.5762493"><ele>118.0</ele><time>2026-03-28T09:30:00.836Z</time></trkpt><trkpt lat="45.3932004" lon="10.5764504"><ele>118.0</ele><time>2026-03-28T09:30:01.836Z</time></trkpt><trkpt lat="45.3931037" lon="10.5766467"><ele>118.0</ele><time>2026-03-28T09:30:02.836Z</time></trkpt><trkpt lat="45.3930115" lon="10.5768443"><ele>118.0</ele><time>2026-03-28T09:30:03.836Z</time></trkpt><trkpt lat="45.392921" lon="10.5770318"><ele>118.0</ele><time>2026-03-28T09:30:04.836Z</time></trkpt><trkpt lat="45.3928385" lon="10.5771995"><ele>118.0</ele><time>2026-03-28T09:30:05.836Z</time></trkpt><trkpt lat="45.3927559" lon="10.5773513"><ele>118.0</ele><time>2026-03-28T09:30:06.837Z</time></trkpt><trkpt lat="45.3926725" lon="10.5775012"><ele>118.0</ele><time>2026-03-28T09:30:07.836Z</time></trkpt><trkpt lat="45.3925862" lon="10.5776516"><ele>118.0</ele><time>2026-03-28T09:30:08.837Z</time></trkpt><trkpt lat="45.3924951" lon="10.5778032"><ele>118.0</ele><time>2026-03-28T09:30:09.836Z</time></trkpt><trkpt lat="45.3924013" lon="10.5779515"><ele>118.0</ele><time>2026-03-28T09:30:10.836Z</time></trkpt><trkpt lat="45.3922995" lon="10.5781066"><ele>118.0</ele><time>2026-03-28T09:30:11.836Z</time></trkpt><trkpt lat="45.3921929" lon="10.5782632"><ele>117.66666666666667</ele><time>2026-03-28T09:30:12.836Z</time></trkpt><trkpt lat="45.3920884" lon="10.5784165"><ele>117.33333333333334</ele><time>2026-03-28T09:30:13.836Z</time></trkpt><trkpt lat="45.3919797" lon="10.5785707"><ele>117.0</ele><time>2026-03-28T09:30:14.836Z</time></trkpt><trkpt lat="45.3918723" lon="10.578724"><ele>117.0</ele><time>2026-03-28T09:30:15.836Z</time></trkpt><trkpt lat="45.3917612" lon="10.5788745"><ele>117.0</ele><time>2026-03-28T09:30:16.836Z</time></trkpt><trkpt lat="45.391643" lon="10.5790137"><ele>117.0</ele><time>2026-03-28T09:30:17.836Z</time></trkpt><trkpt lat="45.3915215" lon="10.5791415"><ele>117.0</ele><time>2026-03-28T09:30:18.837Z</time></trkpt><trkpt lat="45.3914077" lon="10.5792552"><ele>117.0</ele><time>2026-03-28T09:30:19.836Z</time></trkpt><trkpt lat="45.3913032" lon="10.5793661"><ele>117.0</ele><time>2026-03-28T09:30:20.836Z</time></trkpt><trkpt lat="45.3912076" lon="10.5794802"><ele>117.0</ele><time>2026-03-28T09:30:21.836Z</time></trkpt><trkpt lat="45.3911346" lon="10.5796164"><ele>118.0</ele><time>2026-03-28T09:30:22.836Z</time></trkpt><trkpt lat="45.3910781" lon="10.5797567"><ele>118.99999999999999</ele><time>2026-03-28T09:30:23.836Z</time></trkpt><trkpt lat="45.3910354" lon="10.5798768"><ele>119.99999999999999</ele><time>2026-03-28T09:30:24.837Z</time></trkpt><trkpt lat="45.3909988" lon="10.5799838"><ele>121.0</ele><time>2026-03-28T09:30:25.836Z</time></trkpt><trkpt lat="45.390957" lon="10.5801168"><ele>122.0</ele><time>2026-03-28T09:30:27.836Z</time></trkpt><trkpt lat="45.3909352" lon="10.5802123"><ele>121.99999999999999</ele><time>2026-03-28T09:30:30.837Z</time></trkpt><trkpt lat="45.3909015" lon="10.5803289"><ele>122.0</ele><time>2026-03-28T09:30:33.837Z</time></trkpt><trkpt lat="45.3908539" lon="10.5804702"><ele>122.0</ele><time>2026-03-28T09:30:35.836Z</time></trkpt><trkpt lat="45.3908125" lon="10.5805626"><ele>122.0</ele><time>2026-03-28T09:30:37.837Z</time></trkpt><trkpt lat="45.390767" lon="10.5806476"><ele>121.99999999999999</ele><time>2026-03-28T09:30:40.837Z</time></trkpt><trkpt lat="45.3908439" lon="10.5806438"><ele>122.0</ele><time>2026-03-28T09:30:44.836Z</time></trkpt><trkpt lat="45.3908661" lon="10.5804964"><ele>122.0</ele><time>2026-03-28T09:30:46.836Z</time></trkpt><trkpt lat="45.3908929" lon="10.5803789"><ele>122.0</ele><time>2026-03-28T09:30:48.836Z</time></trkpt><trkpt lat="45.3911166" lon="10.5801711"><ele>122.0</ele><time>2026-03-28T09:31:43.285Z</time></trkpt><trkpt lat="45.3909413" lon="10.5802859"><ele>121.99999999999999</ele><time>2026-03-28T09:32:09.834Z</time></trkpt><trkpt lat="45.3910664" lon="10.5802824"><ele>122.0</ele><time>2026-03-28T09:32:27.833Z</time></trkpt><trkpt lat="45.3911401" lon="10.5803526"><ele>122.0</ele><time>2026-03-28T09:32:29.834Z</time></trkpt><trkpt lat="45.3911563" lon="10.5804637"><ele>122.0</ele><time>2026-03-28T09:32:31.833Z</time></trkpt><trkpt lat="45.3911436" lon="10.580557"><ele>121.99999999999999</ele><time>2026-03-28T09:32:32.835Z</time></trkpt><trkpt lat="45.3911163" lon="10.5806584"><ele>122.0</ele><time>2026-03-28T09:32:33.834Z</time></trkpt><trkpt lat="45.391076" lon="10.5807718"><ele>122.0</ele><time>2026-03-28T09:32:34.834Z</time></trkpt><trkpt lat="45.3910293" lon="10.5808902"><ele>121.99999999999999</ele><time>2026-03-28T09:32:35.833Z</time></trkpt><trkpt lat="45.390984" lon="10.5810178"><ele>121.99999999999999</ele><time>2026-03-28T09:32:36.834Z</time></trkpt><trkpt lat="45.3909377" lon="10.5811473"><ele>122.0</ele><time>2026-03-28T09:32:37.835Z</time></trkpt><trkpt lat="45.3908872" lon="10.5812741"><ele>122.0</ele><time>2026-03-28T09:32:38.834Z</time></trkpt><trkpt lat="45.3908335" lon="10.581384"><ele>121.19999999999999</ele><time>2026-03-28T09:32:39.834Z</time></trkpt><trkpt lat="45.3907747" lon="10.5814708"><ele>120.39999999999999</ele><time>2026-03-28T09:32:40.835Z</time></trkpt><trkpt lat="45.3907073" lon="10.5815688"><ele>119.60000000000001</ele><time>2026-03-28T09:32:41.835Z</time></trkpt><trkpt lat="45.3906462" lon="10.5816935"><ele>118.80000000000001</ele><time>2026-03-28T09:32:42.833Z</time></trkpt><trkpt lat="45.3905909" lon="10.5818365"><ele>118.0</ele><time>2026-03-28T09:32:43.834Z</time></trkpt><trkpt lat="45.3905409" lon="10.5819857"><ele>118.0</ele><time>2026-03-28T09:32:44.834Z</time></trkpt><trkpt lat="45.3904887" lon="10.5821351"><ele>118.0</ele><time>2026-03-28T09:32:45.835Z</time></trkpt><trkpt lat="45.3904365" lon="10.5822869"><ele>118.0</ele><time>2026-03-28T09:32:46.833Z</time></trkpt><trkpt lat="45.3903814" lon="10.5824335"><ele>118.0</ele><time>2026-03-28T09:32:47.834Z</time></trkpt><trkpt lat="45.3903182" lon="10.5825809"><ele>118.0</ele><time>2026-03-28T09:32:48.832Z</time></trkpt><trkpt lat="45.3902514" lon="10.5827214"><ele>118.00000000000001</ele><time>2026-03-28T09:32:49.833Z</time></trkpt><trkpt lat="45.3901869" lon="10.582849"><ele>118.00000000000001</ele><time>2026-03-28T09:32:50.832Z</time></trkpt><trkpt lat="45.3901296" lon="10.5829656"><ele>118.0</ele><time>2026-03-28T09:32:51.834Z</time></trkpt><trkpt lat="45.3900799" lon="10.5830699"><ele>118.0</ele><time>2026-03-28T09:32:52.832Z</time></trkpt><trkpt lat="45.3900278" lon="10.5831758"><ele>118.14285714285714</ele><time>2026-03-28T09:32:53.832Z</time></trkpt><trkpt lat="45.3899755" lon="10.5832803"><ele>118.28571428571429</ele><time>2026-03-28T09:32:54.834Z</time></trkpt><trkpt lat="45.3899373" lon="10.5833696"><ele>118.42857142857143</ele><time>2026-03-28T09:32:55.833Z</time></trkpt><trkpt lat="45.3899069" lon="10.5834548"><ele>118.57142857142857</ele><time>2026-03-28T09:32:56.834Z</time></trkpt><trkpt lat="45.3898937" lon="10.583549"><ele>118.71428571428572</ele><time>2026-03-28T09:32:57.834Z</time></trkpt><trkpt lat="45.3898938" lon="10.5836476"><ele>118.85714285714286</ele><time>2026-03-28T09:32:58.833Z</time></trkpt><trkpt lat="45.3899159" lon="10.5837364"><ele>119.0</ele><time>2026-03-28T09:32:59.834Z</time></trkpt><trkpt lat="45.3899601" lon="10.5838333"><ele>119.0</ele><time>2026-03-28T09:33:00.832Z</time></trkpt><trkpt lat="45.3900286" lon="10.5839024"><ele>119.0</ele><time>2026-03-28T09:33:01.834Z</time></trkpt><trkpt lat="45.39012" lon="10.5839452"><ele>119.0</ele><time>2026-03-28T09:33:02.833Z</time></trkpt><trkpt lat="45.390235" lon="10.583961"><ele>119.0</ele><time>2026-03-28T09:33:03.834Z</time></trkpt><trkpt lat="45.3903538" lon="10.5839764"><ele>119.0</ele><time>2026-03-28T09:33:04.833Z</time></trkpt><trkpt lat="45.3904841" lon="10.5839767"><ele>119.0</ele><time>2026-03-28T09:33:05.833Z</time></trkpt><trkpt lat="45.3906032" lon="10.5839685"><ele>119.0</ele><time>2026-03-28T09:33:06.833Z</time></trkpt><trkpt lat="45.390704" lon="10.5839658"><ele>119.0</ele><time>2026-03-28T09:33:07.832Z</time></trkpt><trkpt lat="45.390791" lon="10.5839631"><ele>119.0</ele><time>2026-03-28T09:33:08.833Z</time></trkpt><trkpt lat="45.3908687" lon="10.5839639"><ele>119.0</ele><time>2026-03-28T09:33:09.832Z</time></trkpt><trkpt lat="45.3909386" lon="10.5839657"><ele>119.0</ele><time>2026-03-28T09:33:10.832Z</time></trkpt><trkpt lat="45.3910554" lon="10.5839723"><ele>119.0</ele><time>2026-03-28T09:33:12.833Z</time></trkpt><trkpt lat="45.3911616" lon="10.5840185"><ele>119.0</ele><time>2026-03-28T09:33:14.832Z</time></trkpt><trkpt lat="45.3912288" lon="10.5840918"><ele>119.0</ele><time>2026-03-28T09:33:15.832Z</time></trkpt><trkpt lat="45.3913089" lon="10.5841843"><ele>119.0</ele><time>2026-03-28T09:33:16.832Z</time></trkpt><trkpt lat="45.3913951" lon="10.5842934"><ele>118.2</ele><time>2026-03-28T09:33:17.833Z</time></trkpt><trkpt lat="45.3914865" lon="10.5844021"><ele>117.4</ele><time>2026-03-28T09:33:18.833Z</time></trkpt><trkpt lat="45.3915761" lon="10.5845047"><ele>116.6</ele><time>2026-03-28T09:33:19.833Z</time></trkpt><trkpt lat="45.3916564" lon="10.5846046"><ele>115.8</ele><time>2026-03-28T09:33:20.832Z</time></trkpt><trkpt lat="45.3917185" lon="10.5847074"><ele>115.0</ele><time>2026-03-28T09:33:21.834Z</time></trkpt><trkpt lat="45.3917576" lon="10.5848145"><ele>115.0</ele><time>2026-03-28T09:33:22.832Z</time></trkpt><trkpt lat="45.3917703" lon="10.5849432"><ele>115.0</ele><time>2026-03-28T09:33:23.832Z</time></trkpt><trkpt lat="45.3917668" lon="10.5851024"><ele>115.0</ele><time>2026-03-28T09:33:24.832Z</time></trkpt><trkpt lat="45.391744" lon="10.5852842"><ele>115.0</ele><time>2026-03-28T09:33:25.834Z</time></trkpt><trkpt lat="45.3917106" lon="10.5854822"><ele>115.0</ele><time>2026-03-28T09:33:26.833Z</time></trkpt><trkpt lat="45.3916784" lon="10.5856858"><ele>115.0</ele><time>2026-03-28T09:33:27.832Z</time></trkpt><trkpt lat="45.3916497" lon="10.5858948"><ele>115.0</ele><time>2026-03-28T09:33:28.834Z</time></trkpt><trkpt lat="45.391616" lon="10.5860944"><ele>115.0</ele><time>2026-03-28T09:33:29.833Z</time></trkpt><trkpt lat="45.3915667" lon="10.5862937"><ele>115.0</ele><time>2026-03-28T09:33:30.833Z</time></trkpt><trkpt lat="45.3914977" lon="10.5864856"><ele>115.0</ele><time>2026-03-28T09:33:31.834Z</time></trkpt><trkpt lat="45.3914166" lon="10.5866702"><ele>115.0</ele><time>2026-03-28T09:33:32.833Z</time></trkpt><trkpt lat="45.391355" lon="10.5868507"><ele>115.0</ele><time>2026-03-28T09:33:33.834Z</time></trkpt><trkpt lat="45.3913171" lon="10.5870214"><ele>115.0</ele><time>2026-03-28T09:33:34.833Z</time></trkpt><trkpt lat="45.3913047" lon="10.5871814"><ele>115.0</ele><time>2026-03-28T09:33:35.833Z</time></trkpt><trkpt lat="45.3913202" lon="10.5873141"><ele>115.0</ele><time>2026-03-28T09:33:36.833Z</time></trkpt><trkpt lat="45.3913545" lon="10.5874398"><ele>115.0</ele><time>2026-03-28T09:33:37.834Z</time></trkpt><trkpt lat="45.3914117" lon="10.587563"><ele>115.0</ele><time>2026-03-28T09:33:38.833Z</time></trkpt><trkpt lat="45.3914881" lon="10.5876522"><ele>115.0</ele><time>2026-03-28T09:33:39.833Z</time></trkpt><trkpt lat="45.3915863" lon="10.5877501"><ele>115.0</ele><time>2026-03-28T09:33:40.833Z</time></trkpt><trkpt lat="45.3916806" lon="10.5878824"><ele>115.0</ele><time>2026-03-28T09:33:41.832Z</time></trkpt><trkpt lat="45.3917672" lon="10.5880535"><ele>115.0</ele><time>2026-03-28T09:33:42.833Z</time></trkpt><trkpt lat="45.3918442" lon="10.588247"><ele>116.0</ele><time>2026-03-28T09:33:43.833Z</time></trkpt><trkpt lat="45.3919055" lon="10.5884566"><ele>117.0</ele><time>2026-03-28T09:33:44.833Z</time></trkpt><trkpt lat="45.391951" lon="10.5886871"><ele>118.0</ele><time>2026-03-28T09:33:45.833Z</time></trkpt><trkpt lat="45.391987" lon="10.5889245"><ele>118.0</ele><time>2026-03-28T09:33:46.834Z</time></trkpt><trkpt lat="45.392015" lon="10.5891659"><ele>118.0</ele><time>2026-03-28T09:33:47.834Z</time></trkpt><trkpt lat="45.3920334" lon="10.5894074"><ele>118.0</ele><time>2026-03-28T09:33:48.833Z</time></trkpt><trkpt lat="45.3920363" lon="10.5896265"><ele>117.75</ele><time>2026-03-28T09:33:49.833Z</time></trkpt><trkpt lat="45.3920349" lon="10.5898284"><ele>117.5</ele><time>2026-03-28T09:33:50.832Z</time></trkpt><trkpt lat="45.3920384" lon="10.5900302"><ele>117.25</ele><time>2026-03-28T09:33:51.833Z</time></trkpt><trkpt lat="45.3920409" lon="10.5902526"><ele>117.0</ele><time>2026-03-28T09:33:52.833Z</time></trkpt><trkpt lat="45.3920489" lon="10.5904725"><ele>116.75</ele><time>2026-03-28T09:33:53.833Z</time></trkpt><trkpt lat="45.3920645" lon="10.5906639"><ele>116.5</ele><time>2026-03-28T09:33:54.833Z</time></trkpt><trkpt lat="45.392091" lon="10.5908359"><ele>116.25</ele><time>2026-03-28T09:33:55.834Z</time></trkpt><trkpt lat="45.3921349" lon="10.5910068"><ele>116.0</ele><time>2026-03-28T09:33:56.832Z</time></trkpt><trkpt lat="45.3921968" lon="10.5911531"><ele>117.25</ele><time>2026-03-28T09:33:57.833Z</time></trkpt><trkpt lat="45.3922731" lon="10.5912951"><ele>118.5</ele><time>2026-03-28T09:33:58.833Z</time></trkpt><trkpt lat="45.3923668" lon="10.5914394"><ele>119.75</ele><time>2026-03-28T09:33:59.832Z</time></trkpt><trkpt lat="45.3924495" lon="10.5915949"><ele>121.0</ele><time>2026-03-28T09:34:00.832Z</time></trkpt><trkpt lat="45.3925124" lon="10.5917475"><ele>121.0</ele><time>2026-03-28T09:34:01.832Z</time></trkpt><trkpt lat="45.3925616" lon="10.5919018"><ele>121.0</ele><time>2026-03-28T09:34:02.833Z</time></trkpt><trkpt lat="45.392592" lon="10.5920618"><ele>121.0</ele><time>2026-03-28T09:34:03.832Z</time></trkpt><trkpt lat="45.3926045" lon="10.5922255"><ele>121.0</ele><time>2026-03-28T09:34:04.833Z</time></trkpt><trkpt lat="45.392596" lon="10.5923879"><ele>120.8</ele><time>2026-03-28T09:34:05.833Z</time></trkpt><trkpt lat="45.3925733" lon="10.5925492"><ele>120.6</ele><time>2026-03-28T09:34:06.832Z</time></trkpt><trkpt lat="45.3925586" lon="10.5926936"><ele>120.4</ele><time>2026-03-28T09:34:07.833Z</time></trkpt><trkpt lat="45.3925535" lon="10.592808"><ele>120.2</ele><time>2026-03-28T09:34:08.832Z</time></trkpt><trkpt lat="45.3926064" lon="10.5929692"><ele>120.0</ele><time>2026-03-28T09:34:10.834Z</time></trkpt><trkpt lat="45.392665" lon="10.5930542"><ele>119.8</ele><time>2026-03-28T09:34:11.833Z</time></trkpt><trkpt lat="45.39275" lon="10.5931231"><ele>119.6</ele><time>2026-03-28T09:34:12.834Z</time></trkpt><trkpt lat="45.3928587" lon="10.5931746"><ele>119.4</ele><time>2026-03-28T09:34:13.833Z</time></trkpt><trkpt lat="45.392966" lon="10.5932143"><ele>119.2</ele><time>2026-03-28T09:34:14.833Z</time></trkpt><trkpt lat="45.3930783" lon="10.5932525"><ele>119.0</ele><time>2026-03-28T09:34:15.832Z</time></trkpt><trkpt lat="45.3931824" lon="10.5932999"><ele>118.25</ele><time>2026-03-28T09:34:16.833Z</time></trkpt><trkpt lat="45.3932816" lon="10.5933648"><ele>117.5</ele><time>2026-03-28T09:34:17.834Z</time></trkpt><trkpt lat="45.3933799" lon="10.5934489"><ele>116.75</ele><time>2026-03-28T09:34:18.832Z</time></trkpt><trkpt lat="45.3934824" lon="10.5935427"><ele>116.0</ele><time>2026-03-28T09:34:19.833Z</time></trkpt><trkpt lat="45.3935969" lon="10.5936429"><ele>116.0</ele><time>2026-03-28T09:34:20.833Z</time></trkpt><trkpt lat="45.3937086" lon="10.5937231"><ele>116.0</ele><time>2026-03-28T09:34:21.834Z</time></trkpt><trkpt lat="45.3938081" lon="10.5938035"><ele>116.0</ele><time>2026-03-28T09:34:22.833Z</time></trkpt><trkpt lat="45.3938811" lon="10.593888"><ele>116.0</ele><time>2026-03-28T09:34:23.833Z</time></trkpt><trkpt lat="45.3939192" lon="10.5939756"><ele>116.0</ele><time>2026-03-28T09:34:24.833Z</time></trkpt><trkpt lat="45.3939417" lon="10.5940955"><ele>115.6</ele><time>2026-03-28T09:34:25.833Z</time></trkpt><trkpt lat="45.3939547" lon="10.5942406"><ele>115.19999999999999</ele><time>2026-03-28T09:34:26.832Z</time></trkpt><trkpt lat="45.393943" lon="10.5944226"><ele>114.80000000000001</ele><time>2026-03-28T09:34:27.832Z</time></trkpt><trkpt lat="45.393932" lon="10.5945812"><ele>114.4</ele><time>2026-03-28T09:34:28.833Z</time></trkpt><trkpt lat="45.3939222" lon="10.5947278"><ele>114.0</ele><time>2026-03-28T09:34:29.833Z</time></trkpt><trkpt lat="45.393919" lon="10.5948733"><ele>113.80000000000001</ele><time>2026-03-28T09:34:30.833Z</time></trkpt><trkpt lat="45.3939093" lon="10.5950182"><ele>113.60000000000001</ele><time>2026-03-28T09:34:31.833Z</time></trkpt><trkpt lat="45.3938986" lon="10.5951564"><ele>113.4</ele><time>2026-03-28T09:34:32.833Z</time></trkpt><trkpt lat="45.3938871" lon="10.5952991"><ele>113.2</ele><time>2026-03-28T09:34:33.832Z</time></trkpt><trkpt lat="45.3938755" lon="10.595423"><ele>113.0</ele><time>2026-03-28T09:34:34.833Z</time></trkpt><trkpt lat="45.3938749" lon="10.5955404"><ele>113.49999999999999</ele><time>2026-03-28T09:34:35.833Z</time></trkpt><trkpt lat="45.3938916" lon="10.5956596"><ele>114.0</ele><time>2026-03-28T09:34:36.832Z</time></trkpt><trkpt lat="45.393926" lon="10.5957635"><ele>114.5</ele><time>2026-03-28T09:34:37.832Z</time></trkpt><trkpt lat="45.3939753" lon="10.5958374"><ele>115.0</ele><time>2026-03-28T09:34:38.833Z</time></trkpt><trkpt lat="45.3940306" lon="10.5958912"><ele>115.49999999999999</ele><time>2026-03-28T09:34:39.833Z</time></trkpt><trkpt lat="45.394106" lon="10.5959367"><ele>116.0</ele><time>2026-03-28T09:34:40.834Z</time></trkpt><trkpt lat="45.3941833" lon="10.5959742"><ele>116.0</ele><time>2026-03-28T09:34:41.834Z</time></trkpt><trkpt lat="45.3942649" lon="10.5960161"><ele>116.0</ele><time>2026-03-28T09:34:42.833Z</time></trkpt><trkpt lat="45.3943541" lon="10.5960565"><ele>116.0</ele><time>2026-03-28T09:34:43.833Z</time></trkpt><trkpt lat="45.3944467" lon="10.5960917"><ele>116.0</ele><time>2026-03-28T09:34:44.834Z</time></trkpt><trkpt lat="45.394551" lon="10.5961258"><ele>116.0</ele><time>2026-03-28T09:34:45.834Z</time></trkpt><trkpt lat="45.3946553" lon="10.596163"><ele>115.19999999999999</ele><time>2026-03-28T09:34:46.833Z</time></trkpt><trkpt lat="45.3947656" lon="10.596203"><ele>114.39999999999999</ele><time>2026-03-28T09:34:47.833Z</time></trkpt><trkpt lat="45.3948808" lon="10.5962335"><ele>113.6</ele><time>2026-03-28T09:34:48.834Z</time></trkpt><trkpt lat="45.3949935" lon="10.5962668"><ele>112.8</ele><time>2026-03-28T09:34:49.832Z</time></trkpt><trkpt lat="45.3950917" lon="10.5963066"><ele>112.0</ele><time>2026-03-28T09:34:50.832Z</time></trkpt><trkpt lat="45.3951903" lon="10.5963497"><ele>112.0</ele><time>2026-03-28T09:34:51.832Z</time></trkpt><trkpt lat="45.3952838" lon="10.5964092"><ele>111.99999999999999</ele><time>2026-03-28T09:34:52.832Z</time></trkpt><trkpt lat="45.3953637" lon="10.5964882"><ele>111.99999999999999</ele><time>2026-03-28T09:34:53.832Z</time></trkpt><trkpt lat="45.3954357" lon="10.5965841"><ele>112.0</ele><time>2026-03-28T09:34:54.834Z</time></trkpt><trkpt lat="45.3954986" lon="10.5966917"><ele>112.0</ele><time>2026-03-28T09:34:55.832Z</time></trkpt><trkpt lat="45.3955495" lon="10.5967954"><ele>111.33333333333334</ele><time>2026-03-28T09:34:56.833Z</time></trkpt><trkpt lat="45.3956008" lon="10.5968889"><ele>110.66666666666667</ele><time>2026-03-28T09:34:57.833Z</time></trkpt><trkpt lat="45.3956533" lon="10.5969631"><ele>110.0</ele><time>2026-03-28T09:34:58.833Z</time></trkpt><trkpt lat="45.3957145" lon="10.5970159"><ele>109.33333333333334</ele><time>2026-03-28T09:34:59.833Z</time></trkpt><trkpt lat="45.3957784" lon="10.5970598"><ele>108.66666666666667</ele><time>2026-03-28T09:35:00.833Z</time></trkpt><trkpt lat="45.3958511" lon="10.5971028"><ele>108.0</ele><time>2026-03-28T09:35:01.833Z</time></trkpt><trkpt lat="45.3959341" lon="10.597141"><ele>108.0</ele><time>2026-03-28T09:35:02.833Z</time></trkpt><trkpt lat="45.3960273" lon="10.5971716"><ele>108.00000000000001</ele><time>2026-03-28T09:35:03.832Z</time></trkpt><trkpt lat="45.3961328" lon="10.5971992"><ele>108.00000000000001</ele><time>2026-03-28T09:35:04.833Z</time></trkpt><trkpt lat="45.3962376" lon="10.597223"><ele>108.0</ele><time>2026-03-28T09:35:05.832Z</time></trkpt><trkpt lat="45.3963329" lon="10.597259"><ele>108.0</ele><time>2026-03-28T09:35:06.833Z</time></trkpt><trkpt lat="45.3964319" lon="10.5972934"><ele>107.16666666666667</ele><time>2026-03-28T09:35:07.832Z</time></trkpt><trkpt lat="45.3965349" lon="10.597295"><ele>106.33333333333334</ele><time>2026-03-28T09:35:08.833Z</time></trkpt><trkpt lat="45.3966224" lon="10.5972776"><ele>105.5</ele><time>2026-03-28T09:35:09.832Z</time></trkpt><trkpt lat="45.3966917" lon="10.5972413"><ele>104.66666666666667</ele><time>2026-03-28T09:35:10.833Z</time></trkpt><trkpt lat="45.3967505" lon="10.597204"><ele>103.83333333333334</ele><time>2026-03-28T09:35:11.833Z</time></trkpt><trkpt lat="45.3968539" lon="10.5971542"><ele>103.0</ele><time>2026-03-28T09:35:13.834Z</time></trkpt><trkpt lat="45.3969532" lon="10.5971276"><ele>103.0</ele><time>2026-03-28T09:35:15.832Z</time></trkpt><trkpt lat="45.3970597" lon="10.5971285"><ele>103.0</ele><time>2026-03-28T09:35:17.834Z</time></trkpt><trkpt lat="45.3971651" lon="10.5971293"><ele>103.0</ele><time>2026-03-28T09:35:19.833Z</time></trkpt><trkpt lat="45.3972591" lon="10.5971405"><ele>103.0</ele><time>2026-03-28T09:35:21.833Z</time></trkpt><trkpt lat="45.3973123" lon="10.5972158"><ele>103.0</ele><time>2026-03-28T09:35:23.833Z</time></trkpt><trkpt lat="45.3972987" lon="10.59741"><ele>103.2</ele><time>2026-03-28T09:35:25.832Z</time></trkpt><trkpt lat="45.39728" lon="10.5975301"><ele>103.4</ele><time>2026-03-28T09:35:26.832Z</time></trkpt><trkpt lat="45.3972665" lon="10.5976679"><ele>103.60000000000001</ele><time>2026-03-28T09:35:27.834Z</time></trkpt><trkpt lat="45.3972459" lon="10.5978173"><ele>103.80000000000001</ele><time>2026-03-28T09:35:28.833Z</time></trkpt><trkpt lat="45.3972224" lon="10.5979681"><ele>104.0</ele><time>2026-03-28T09:35:29.833Z</time></trkpt><trkpt lat="45.3971982" lon="10.5981132"><ele>103.80000000000001</ele><time>2026-03-28T09:35:30.834Z</time></trkpt><trkpt lat="45.3971664" lon="10.5982475"><ele>103.60000000000001</ele><time>2026-03-28T09:35:31.834Z</time></trkpt><trkpt lat="45.3971198" lon="10.5983915"><ele>103.4</ele><time>2026-03-28T09:35:32.834Z</time></trkpt><trkpt lat="45.3970738" lon="10.5985361"><ele>103.2</ele><time>2026-03-28T09:35:33.832Z</time></trkpt><trkpt lat="45.3970342" lon="10.5986833"><ele>103.0</ele><time>2026-03-28T09:35:34.833Z</time></trkpt><trkpt lat="45.3969943" lon="10.5988343"><ele>102.60000000000001</ele><time>2026-03-28T09:35:35.832Z</time></trkpt><trkpt lat="45.3969623" lon="10.5989834"><ele>102.2</ele><time>2026-03-28T09:35:36.832Z</time></trkpt><trkpt lat="45.3969362" lon="10.599112"><ele>101.8</ele><time>2026-03-28T09:35:37.833Z</time></trkpt><trkpt lat="45.3969122" lon="10.5992341"><ele>101.4</ele><time>2026-03-28T09:35:38.833Z</time></trkpt><trkpt lat="45.3968938" lon="10.5993424"><ele>101.0</ele><time>2026-03-28T09:35:39.832Z</time></trkpt><trkpt lat="45.396867" lon="10.5994701"><ele>101.4</ele><time>2026-03-28T09:35:40.832Z</time></trkpt><trkpt lat="45.3968354" lon="10.5995987"><ele>101.8</ele><time>2026-03-28T09:35:41.833Z</time></trkpt><trkpt lat="45.3967946" lon="10.5997394"><ele>102.2</ele><time>2026-03-28T09:35:42.834Z</time></trkpt><trkpt lat="45.3967349" lon="10.5998719"><ele>102.60000000000001</ele><time>2026-03-28T09:35:43.832Z</time></trkpt><trkpt lat="45.3966739" lon="10.5999838"><ele>103.0</ele><time>2026-03-28T09:35:44.833Z</time></trkpt><trkpt lat="45.3966208" lon="10.6001078"><ele>103.0</ele><time>2026-03-28T09:35:45.834Z</time></trkpt><trkpt lat="45.3965697" lon="10.6002559"><ele>103.0</ele><time>2026-03-28T09:35:46.833Z</time></trkpt><trkpt lat="45.3965239" lon="10.6004078"><ele>103.0</ele><time>2026-03-28T09:35:47.833Z</time></trkpt><trkpt lat="45.3964827" lon="10.6005487"><ele>103.0</ele><time>2026-03-28T09:35:48.833Z</time></trkpt><trkpt lat="45.3964398" lon="10.6006859"><ele>103.0</ele><time>2026-03-28T09:35:49.832Z</time></trkpt><trkpt lat="45.3964002" lon="10.6008176"><ele>102.66666666666667</ele><time>2026-03-28T09:35:50.833Z</time></trkpt><trkpt lat="45.3963619" lon="10.6009327"><ele>102.33333333333334</ele><time>2026-03-28T09:35:51.834Z</time></trkpt><trkpt lat="45.3963233" lon="10.6010453"><ele>102.0</ele><time>2026-03-28T09:35:52.832Z</time></trkpt><trkpt lat="45.396284" lon="10.6011618"><ele>101.66666666666666</ele><time>2026-03-28T09:35:53.833Z</time></trkpt><trkpt lat="45.3962493" lon="10.6012721"><ele>101.33333333333333</ele><time>2026-03-28T09:35:54.832Z</time></trkpt><trkpt lat="45.3962154" lon="10.6013843"><ele>101.0</ele><time>2026-03-28T09:35:55.834Z</time></trkpt><trkpt lat="45.3961822" lon="10.6015023"><ele>101.0</ele><time>2026-03-28T09:35:56.832Z</time></trkpt><trkpt lat="45.3961501" lon="10.6016277"><ele>101.0</ele><time>2026-03-28T09:35:57.833Z</time></trkpt><trkpt lat="45.3961162" lon="10.6017633"><ele>101.0</ele><time>2026-03-28T09:35:58.834Z</time></trkpt><trkpt lat="45.3960793" lon="10.6019017"><ele>101.0</ele><time>2026-03-28T09:35:59.833Z</time></trkpt><trkpt lat="45.3960377" lon="10.6020448"><ele>101.0</ele><time>2026-03-28T09:36:00.833Z</time></trkpt><trkpt lat="45.3959918" lon="10.6021908"><ele>101.19999999999999</ele><time>2026-03-28T09:36:01.833Z</time></trkpt><trkpt lat="45.3959476" lon="10.6023292"><ele>101.39999999999999</ele><time>2026-03-28T09:36:02.832Z</time></trkpt><trkpt lat="45.3959027" lon="10.6024638"><ele>101.6</ele><time>2026-03-28T09:36:03.832Z</time></trkpt><trkpt lat="45.3958552" lon="10.6026035"><ele>101.8</ele><time>2026-03-28T09:36:04.832Z</time></trkpt><trkpt lat="45.3958096" lon="10.6027504"><ele>102.0</ele><time>2026-03-28T09:36:05.832Z</time></trkpt><trkpt lat="45.3957668" lon="10.6028961"><ele>102.6</ele><time>2026-03-28T09:36:06.833Z</time></trkpt><trkpt lat="45.3957194" lon="10.6030423"><ele>103.19999999999999</ele><time>2026-03-28T09:36:07.832Z</time></trkpt><trkpt lat="45.3956744" lon="10.6031891"><ele>103.8</ele><time>2026-03-28T09:36:08.833Z</time></trkpt><trkpt lat="45.395627" lon="10.6033271"><ele>104.4</ele><time>2026-03-28T09:36:09.832Z</time></trkpt><trkpt lat="45.3955792" lon="10.6034619"><ele>105.0</ele><time>2026-03-28T09:36:10.833Z</time></trkpt><trkpt lat="45.3955315" lon="10.6036012"><ele>104.0</ele><time>2026-03-28T09:36:11.833Z</time></trkpt><trkpt lat="45.3954867" lon="10.6037307"><ele>103.0</ele><time>2026-03-28T09:36:12.832Z</time></trkpt><trkpt lat="45.3954464" lon="10.6038536"><ele>102.0</ele><time>2026-03-28T09:36:13.832Z</time></trkpt><trkpt lat="45.3954064" lon="10.6039663"><ele>101.0</ele><time>2026-03-28T09:36:14.833Z</time></trkpt><trkpt lat="45.3953671" lon="10.6040996"><ele>100.0</ele><time>2026-03-28T09:36:15.832Z</time></trkpt><trkpt lat="45.3953256" lon="10.6042402"><ele>100.0</ele><time>2026-03-28T09:36:16.832Z</time></trkpt><trkpt lat="45.3952794" lon="10.6043775"><ele>100.0</ele><time>2026-03-28T09:36:17.833Z</time></trkpt><trkpt lat="45.3952399" lon="10.6045077"><ele>100.0</ele><time>2026-03-28T09:36:18.834Z</time></trkpt><trkpt lat="45.3952103" lon="10.6046248"><ele>100.0</ele><time>2026-03-28T09:36:19.834Z</time></trkpt><trkpt lat="45.3951827" lon="10.604753"><ele>100.0</ele><time>2026-03-28T09:36:20.832Z</time></trkpt><trkpt lat="45.3951573" lon="10.6048811"><ele>100.0</ele><time>2026-03-28T09:36:21.833Z</time></trkpt><trkpt lat="45.3951308" lon="10.6050122"><ele>100.0</ele><time>2026-03-28T09:36:22.833Z</time></trkpt><trkpt lat="45.3951057" lon="10.6051419"><ele>100.0</ele><time>2026-03-28T09:36:23.833Z</time></trkpt><trkpt lat="45.3950807" lon="10.6052797"><ele>100.0</ele><time>2026-03-28T09:36:24.833Z</time></trkpt><trkpt lat="45.3950547" lon="10.6054208"><ele>100.0</ele><time>2026-03-28T09:36:25.833Z</time></trkpt><trkpt lat="45.3950317" lon="10.6055584"><ele>100.4</ele><time>2026-03-28T09:36:26.833Z</time></trkpt><trkpt lat="45.3950083" lon="10.6056833"><ele>100.8</ele><time>2026-03-28T09:36:27.833Z</time></trkpt><trkpt lat="45.3949851" lon="10.6058156"><ele>101.19999999999999</ele><time>2026-03-28T09:36:28.832Z</time></trkpt><trkpt lat="45.3949602" lon="10.6059633"><ele>101.6</ele><time>2026-03-28T09:36:29.832Z</time></trkpt><trkpt lat="45.3949295" lon="10.6061265"><ele>102.0</ele><time>2026-03-28T09:36:30.833Z</time></trkpt><trkpt lat="45.3949014" lon="10.6062718"><ele>102.0</ele><time>2026-03-28T09:36:31.832Z</time></trkpt><trkpt lat="45.3948755" lon="10.6064068"><ele>102.0</ele><time>2026-03-28T09:36:32.833Z</time></trkpt><trkpt lat="45.3948501" lon="10.6065426"><ele>102.0</ele><time>2026-03-28T09:36:33.832Z</time></trkpt><trkpt lat="45.3948294" lon="10.6066862"><ele>102.0</ele><time>2026-03-28T09:36:34.833Z</time></trkpt><trkpt lat="45.3948128" lon="10.6068425"><ele>102.0</ele><time>2026-03-28T09:36:35.833Z</time></trkpt><trkpt lat="45.3948014" lon="10.6070132"><ele>102.5</ele><time>2026-03-28T09:36:36.833Z</time></trkpt><trkpt lat="45.3947993" lon="10.6071906"><ele>103.0</ele><time>2026-03-28T09:36:37.833Z</time></trkpt><trkpt lat="45.3947962" lon="10.6073725"><ele>103.5</ele><time>2026-03-28T09:36:38.833Z</time></trkpt><trkpt lat="45.3947957" lon="10.6075587"><ele>104.0</ele><time>2026-03-28T09:36:39.833Z</time></trkpt><trkpt lat="45.3947924" lon="10.6077436"><ele>104.0</ele><time>2026-03-28T09:36:40.833Z</time></trkpt><trkpt lat="45.3947858" lon="10.607929"><ele>104.0</ele><time>2026-03-28T09:36:41.833Z</time></trkpt><trkpt lat="45.3947806" lon="10.608113"><ele>104.0</ele><time>2026-03-28T09:36:42.834Z</time></trkpt><trkpt lat="45.3947734" lon="10.6083015"><ele>104.0</ele><time>2026-03-28T09:36:43.833Z</time></trkpt><trkpt lat="45.3947664" lon="10.6084946"><ele>104.5</ele><time>2026-03-28T09:36:44.834Z</time></trkpt><trkpt lat="45.3947432" lon="10.608681"><ele>105.0</ele><time>2026-03-28T09:36:45.832Z</time></trkpt><trkpt lat="45.394711" lon="10.6088771"><ele>105.5</ele><time>2026-03-28T09:36:46.834Z</time></trkpt><trkpt lat="45.3946704" lon="10.6090681"><ele>106.0</ele><time>2026-03-28T09:36:47.834Z</time></trkpt><trkpt lat="45.3946177" lon="10.6092544"><ele>104.0</ele><time>2026-03-28T09:36:48.833Z</time></trkpt><trkpt lat="45.3945568" lon="10.6094374"><ele>102.0</ele><time>2026-03-28T09:36:49.834Z</time></trkpt><trkpt lat="45.3944857" lon="10.6096033"><ele>100.0</ele><time>2026-03-28T09:36:50.834Z</time></trkpt><trkpt lat="45.394423" lon="10.6097463"><ele>98.0</ele><time>2026-03-28T09:36:51.833Z</time></trkpt><trkpt lat="45.3943691" lon="10.6098969"><ele>98.0</ele><time>2026-03-28T09:36:52.832Z</time></trkpt><trkpt lat="45.3943266" lon="10.6100454"><ele>98.0</ele><time>2026-03-28T09:36:53.833Z</time></trkpt><trkpt lat="45.3942927" lon="10.6101993"><ele>98.0</ele><time>2026-03-28T09:36:54.833Z</time></trkpt><trkpt lat="45.3942671" lon="10.6103621"><ele>98.0</ele><time>2026-03-28T09:36:55.834Z</time></trkpt><trkpt lat="45.3942542" lon="10.6105308"><ele>98.4</ele><time>2026-03-28T09:36:56.832Z</time></trkpt><trkpt lat="45.394254" lon="10.610716"><ele>98.80000000000001</ele><time>2026-03-28T09:36:57.832Z</time></trkpt><trkpt lat="45.3942641" lon="10.6108846"><ele>99.2</ele><time>2026-03-28T09:36:58.833Z</time></trkpt><trkpt lat="45.3942754" lon="10.6110217"><ele>99.6</ele><time>2026-03-28T09:36:59.832Z</time></trkpt><trkpt lat="45.3942871" lon="10.6111249"><ele>100.0</ele><time>2026-03-28T09:37:00.834Z</time></trkpt><trkpt lat="45.394333" lon="10.6112241"><ele>100.0</ele><time>2026-03-28T09:37:02.833Z</time></trkpt><trkpt lat="45.3944389" lon="10.6112344"><ele>100.0</ele><time>2026-03-28T09:37:04.833Z</time></trkpt><trkpt lat="45.3945146" lon="10.6111885"><ele>100.0</ele><time>2026-03-28T09:37:05.833Z</time></trkpt><trkpt lat="45.394606" lon="10.6111221"><ele>100.0</ele><time>2026-03-28T09:37:06.833Z</time></trkpt><trkpt lat="45.3947167" lon="10.6110632"><ele>100.0</ele><time>2026-03-28T09:37:07.833Z</time></trkpt><trkpt lat="45.3948368" lon="10.6109957"><ele>102.5</ele><time>2026-03-28T09:37:08.834Z</time></trkpt><trkpt lat="45.3949659" lon="10.6109251"><ele>105.0</ele><time>2026-03-28T09:37:09.833Z</time></trkpt><trkpt lat="45.3950887" lon="10.61085"><ele>107.5</ele><time>2026-03-28T09:37:10.832Z</time></trkpt><trkpt lat="45.3952197" lon="10.6107891"><ele>110.0</ele><time>2026-03-28T09:37:11.832Z</time></trkpt><trkpt lat="45.3953396" lon="10.6107472"><ele>110.0</ele><time>2026-03-28T09:37:12.834Z</time></trkpt><trkpt lat="45.395473" lon="10.6106988"><ele>110.0</ele><time>2026-03-28T09:37:13.832Z</time></trkpt><trkpt lat="45.3955981" lon="10.610653"><ele>110.0</ele><time>2026-03-28T09:37:14.832Z</time></trkpt><trkpt lat="45.3957125" lon="10.6106159"><ele>110.0</ele><time>2026-03-28T09:37:15.832Z</time></trkpt><trkpt lat="45.395811" lon="10.6105649"><ele>111.25</ele><time>2026-03-28T09:37:16.833Z</time></trkpt><trkpt lat="45.3958922" lon="10.6104809"><ele>112.5</ele><time>2026-03-28T09:37:17.834Z</time></trkpt><trkpt lat="45.395971" lon="10.6103516"><ele>113.75</ele><time>2026-03-28T09:37:18.834Z</time></trkpt><trkpt lat="45.39605" lon="10.610215"><ele>115.0</ele><time>2026-03-28T09:37:19.834Z</time></trkpt><trkpt lat="45.3961322" lon="10.6100678"><ele>115.2</ele><time>2026-03-28T09:37:20.833Z</time></trkpt><trkpt lat="45.3962047" lon="10.6099297"><ele>115.4</ele><time>2026-03-28T09:37:21.833Z</time></trkpt><trkpt lat="45.3962626" lon="10.6098187"><ele>115.6</ele><time>2026-03-28T09:37:22.833Z</time></trkpt><trkpt lat="45.396314" lon="10.6097023"><ele>115.8</ele><time>2026-03-28T09:37:23.832Z</time></trkpt><trkpt lat="45.3963542" lon="10.6095654"><ele>116.0</ele><time>2026-03-28T09:37:24.832Z</time></trkpt><trkpt lat="45.3964033" lon="10.6094182"><ele>116.8</ele><time>2026-03-28T09:37:25.832Z</time></trkpt><trkpt lat="45.3964541" lon="10.6092974"><ele>117.6</ele><time>2026-03-28T09:37:26.833Z</time></trkpt><trkpt lat="45.3964962" lon="10.6091899"><ele>118.4</ele><time>2026-03-28T09:37:27.834Z</time></trkpt><trkpt lat="45.3965423" lon="10.6091276"><ele>119.2</ele><time>2026-03-28T09:37:28.832Z</time></trkpt><trkpt lat="45.396703" lon="10.6090901"><ele>120.0</ele><time>2026-03-28T09:37:30.832Z</time></trkpt><trkpt lat="45.3968238" lon="10.6090984"><ele>120.0</ele><time>2026-03-28T09:37:31.832Z</time></trkpt><trkpt lat="45.3969568" lon="10.6091134"><ele>120.0</ele><time>2026-03-28T09:37:32.832Z</time></trkpt><trkpt lat="45.3971028" lon="10.6091291"><ele>120.0</ele><time>2026-03-28T09:37:33.833Z</time></trkpt><trkpt lat="45.3972615" lon="10.6091248"><ele>120.0</ele><time>2026-03-28T09:37:34.832Z</time></trkpt><trkpt lat="45.3974222" lon="10.6091162"><ele>120.66666666666666</ele><time>2026-03-28T09:37:35.834Z</time></trkpt><trkpt lat="45.3975757" lon="10.6091012"><ele>121.33333333333333</ele><time>2026-03-28T09:37:36.833Z</time></trkpt><trkpt lat="45.3977271" lon="10.6090741"><ele>122.0</ele><time>2026-03-28T09:37:37.833Z</time></trkpt><trkpt lat="45.3978726" lon="10.609036"><ele>122.0</ele><time>2026-03-28T09:37:38.833Z</time></trkpt><trkpt lat="45.3980032" lon="10.6090023"><ele>121.99999999999999</ele><time>2026-03-28T09:37:39.833Z</time></trkpt><trkpt lat="45.3981215" lon="10.6089771"><ele>121.99999999999999</ele><time>2026-03-28T09:37:40.833Z</time></trkpt><trkpt lat="45.3982255" lon="10.6089517"><ele>122.0</ele><time>2026-03-28T09:37:41.832Z</time></trkpt><trkpt lat="45.3983004" lon="10.608933"><ele>122.0</ele><time>2026-03-28T09:37:42.833Z</time></trkpt><trkpt lat="45.3983882" lon="10.6089363"><ele>121.99999999999999</ele><time>2026-03-28T09:37:44.833Z</time></trkpt><trkpt lat="45.3984011" lon="10.6090317"><ele>122.0</ele><time>2026-03-28T09:37:46.834Z</time></trkpt><trkpt lat="45.3983805" lon="10.6091717"><ele>122.0</ele><time>2026-03-28T09:37:48.833Z</time></trkpt><trkpt lat="45.3983495" lon="10.6092889"><ele>122.0</ele><time>2026-03-28T09:38:03.833Z</time></trkpt><trkpt lat="45.3983347" lon="10.6093812"><ele>121.99999999999999</ele><time>2026-03-28T09:38:04.832Z</time></trkpt><trkpt lat="45.398318" lon="10.6095042"><ele>122.0</ele><time>2026-03-28T09:38:05.833Z</time></trkpt><trkpt lat="45.3983017" lon="10.6096509"><ele>122.75</ele><time>2026-03-28T09:38:06.834Z</time></trkpt><trkpt lat="45.3982812" lon="10.6098158"><ele>123.5</ele><time>2026-03-28T09:38:07.833Z</time></trkpt><trkpt lat="45.3982566" lon="10.6099876"><ele>124.25</ele><time>2026-03-28T09:38:08.832Z</time></trkpt><trkpt lat="45.3982364" lon="10.6101768"><ele>125.0</ele><time>2026-03-28T09:38:09.834Z</time></trkpt><trkpt lat="45.3982132" lon="10.6103785"><ele>125.0</ele><time>2026-03-28T09:38:10.834Z</time></trkpt><trkpt lat="45.3981851" lon="10.610591"><ele>125.0</ele><time>2026-03-28T09:38:11.834Z</time></trkpt><trkpt lat="45.3981467" lon="10.6108138"><ele>125.0</ele><time>2026-03-28T09:38:12.832Z</time></trkpt><trkpt lat="45.3980974" lon="10.611035"><ele>125.66666666666666</ele><time>2026-03-28T09:38:13.833Z</time></trkpt><trkpt lat="45.3980342" lon="10.6112486"><ele>126.33333333333334</ele><time>2026-03-28T09:38:14.832Z</time></trkpt><trkpt lat="45.3979657" lon="10.6114565"><ele>127.0</ele><time>2026-03-28T09:38:15.833Z</time></trkpt><trkpt lat="45.3978922" lon="10.6116632"><ele>124.0</ele><time>2026-03-28T09:38:16.832Z</time></trkpt><trkpt lat="45.3978165" lon="10.6118635"><ele>121.0</ele><time>2026-03-28T09:38:17.834Z</time></trkpt><trkpt lat="45.3977435" lon="10.6120657"><ele>118.0</ele><time>2026-03-28T09:38:18.834Z</time></trkpt><trkpt lat="45.3976762" lon="10.6122682"><ele>118.0</ele><time>2026-03-28T09:38:19.833Z</time></trkpt><trkpt lat="45.3976197" lon="10.6124848"><ele>118.0</ele><time>2026-03-28T09:38:20.832Z</time></trkpt><trkpt lat="45.3975797" lon="10.612709"><ele>118.0</ele><time>2026-03-28T09:38:21.834Z</time></trkpt><trkpt lat="45.3975589" lon="10.6129439"><ele>118.0</ele><time>2026-03-28T09:38:22.833Z</time></trkpt><trkpt lat="45.3975556" lon="10.6131871"><ele>118.0</ele><time>2026-03-28T09:38:23.834Z</time></trkpt><trkpt lat="45.3975673" lon="10.6134341"><ele>118.0</ele><time>2026-03-28T09:38:24.834Z</time></trkpt><trkpt lat="45.3975795" lon="10.6136796"><ele>118.0</ele><time>2026-03-28T09:38:25.834Z</time></trkpt><trkpt lat="45.3975887" lon="10.613924"><ele>118.0</ele><time>2026-03-28T09:38:26.834Z</time></trkpt><trkpt lat="45.3975987" lon="10.6141653"><ele>118.0</ele><time>2026-03-28T09:38:27.834Z</time></trkpt><trkpt lat="45.3976049" lon="10.6144087"><ele>118.0</ele><time>2026-03-28T09:38:28.832Z</time></trkpt><trkpt lat="45.3976115" lon="10.6146525"><ele>118.0</ele><time>2026-03-28T09:38:29.834Z</time></trkpt><trkpt lat="45.3976137" lon="10.6148945"><ele>118.0</ele><time>2026-03-28T09:38:30.833Z</time></trkpt><trkpt lat="45.3976106" lon="10.6151336"><ele>118.0</ele><time>2026-03-28T09:38:31.832Z</time></trkpt><trkpt lat="45.3976038" lon="10.6153718"><ele>118.0</ele><time>2026-03-28T09:38:32.833Z</time></trkpt><trkpt lat="45.3975953" lon="10.6156074"><ele>118.0</ele><time>2026-03-28T09:38:33.834Z</time></trkpt><trkpt lat="45.3975871" lon="10.6158435"><ele>118.0</ele><time>2026-03-28T09:38:34.834Z</time></trkpt><trkpt lat="45.3975774" lon="10.6160858"><ele>118.0</ele><time>2026-03-28T09:38:35.833Z</time></trkpt><trkpt lat="45.3975697" lon="10.6163288"><ele>118.0</ele><time>2026-03-28T09:38:36.833Z</time></trkpt><trkpt lat="45.3975545" lon="10.6165726"><ele>117.33333333333334</ele><time>2026-03-28T09:38:37.834Z</time></trkpt><trkpt lat="45.3975407" lon="10.61682"><ele>116.66666666666666</ele><time>2026-03-28T09:38:38.832Z</time></trkpt><trkpt lat="45.3975263" lon="10.617068"><ele>116.0</ele><time>2026-03-28T09:38:39.832Z</time></trkpt><trkpt lat="45.3975136" lon="10.6173191"><ele>115.33333333333333</ele><time>2026-03-28T09:38:40.832Z</time></trkpt><trkpt lat="45.3975003" lon="10.6175641"><ele>114.66666666666666</ele><time>2026-03-28T09:38:41.832Z</time></trkpt><trkpt lat="45.3974831" lon="10.6178144"><ele>114.0</ele><time>2026-03-28T09:38:42.834Z</time></trkpt><trkpt lat="45.3974699" lon="10.6180634"><ele>113.0</ele><time>2026-03-28T09:38:43.834Z</time></trkpt><trkpt lat="45.3974579" lon="10.6183111"><ele>112.0</ele><time>2026-03-28T09:38:44.833Z</time></trkpt><trkpt lat="45.3974473" lon="10.6185606"><ele>111.0</ele><time>2026-03-28T09:38:45.834Z</time></trkpt><trkpt lat="45.3974269" lon="10.6188052"><ele>108.66666666666666</ele><time>2026-03-28T09:38:46.834Z</time></trkpt><trkpt lat="45.3973946" lon="10.6190462"><ele>106.33333333333333</ele><time>2026-03-28T09:38:47.832Z</time></trkpt><trkpt lat="45.3973403" lon="10.6192842"><ele>104.0</ele><time>2026-03-28T09:38:48.834Z</time></trkpt><trkpt lat="45.3972735" lon="10.6195122"><ele>102.66666666666666</ele><time>2026-03-28T09:38:49.834Z</time></trkpt><trkpt lat="45.3971874" lon="10.6197287"><ele>101.33333333333334</ele><time>2026-03-28T09:38:50.834Z</time></trkpt><trkpt lat="45.3970811" lon="10.6199304"><ele>100.0</ele><time>2026-03-28T09:38:51.834Z</time></trkpt><trkpt lat="45.3969524" lon="10.6201145"><ele>100.0</ele><time>2026-03-28T09:38:52.833Z</time></trkpt><trkpt lat="45.3968155" lon="10.6202821"><ele>100.0</ele><time>2026-03-28T09:38:53.833Z</time></trkpt><trkpt lat="45.396678" lon="10.620441"><ele>100.0</ele><time>2026-03-28T09:38:54.832Z</time></trkpt><trkpt lat="45.3965442" lon="10.6205883"><ele>99.0</ele><time>2026-03-28T09:38:55.833Z</time></trkpt><trkpt lat="45.3964157" lon="10.6207395"><ele>98.0</ele><time>2026-03-28T09:38:56.834Z</time></trkpt><trkpt lat="45.3962972" lon="10.620882"><ele>97.0</ele><time>2026-03-28T09:38:57.834Z</time></trkpt><trkpt lat="45.3961838" lon="10.6210153"><ele>96.19999999999999</ele><time>2026-03-28T09:38:58.833Z</time></trkpt><trkpt lat="45.3960778" lon="10.6211364"><ele>95.4</ele><time>2026-03-28T09:38:59.833Z</time></trkpt><trkpt lat="45.3959876" lon="10.6212396"><ele>94.6</ele><time>2026-03-28T09:39:00.833Z</time></trkpt><trkpt lat="45.3959139" lon="10.6213192"><ele>93.80000000000001</ele><time>2026-03-28T09:39:01.832Z</time></trkpt><trkpt lat="45.3958534" lon="10.6213552"><ele>93.0</ele><time>2026-03-28T09:39:02.833Z</time></trkpt><trkpt lat="45.3957766" lon="10.6213095"><ele>93.0</ele><time>2026-03-28T09:39:04.833Z</time></trkpt><trkpt lat="45.3957484" lon="10.6211239"><ele>93.0</ele><time>2026-03-28T09:39:06.832Z</time></trkpt><trkpt lat="45.395752" lon="10.6209995"><ele>93.0</ele><time>2026-03-28T09:39:07.833Z</time></trkpt><trkpt lat="45.3957538" lon="10.6208616"><ele>93.0</ele><time>2026-03-28T09:39:08.832Z</time></trkpt><trkpt lat="45.3957472" lon="10.6207076"><ele>93.0</ele><time>2026-03-28T09:39:09.833Z</time></trkpt><trkpt lat="45.3957345" lon="10.6205419"><ele>93.0</ele><time>2026-03-28T09:39:10.832Z</time></trkpt><trkpt lat="45.3957143" lon="10.6203677"><ele>93.0</ele><time>2026-03-28T09:39:11.833Z</time></trkpt><trkpt lat="45.3956811" lon="10.6201766"><ele>93.0</ele><time>2026-03-28T09:39:12.834Z</time></trkpt><trkpt lat="45.3956288" lon="10.6199783"><ele>93.0</ele><time>2026-03-28T09:39:13.832Z</time></trkpt><trkpt lat="45.3955648" lon="10.6197785"><ele>93.0</ele><time>2026-03-28T09:39:14.833Z</time></trkpt><trkpt lat="45.395492" lon="10.619573"><ele>93.0</ele><time>2026-03-28T09:39:15.833Z</time></trkpt><trkpt lat="45.3954192" lon="10.6193701"><ele>93.0</ele><time>2026-03-28T09:39:16.833Z</time></trkpt><trkpt lat="45.3953492" lon="10.6191596"><ele>93.33333333333333</ele><time>2026-03-28T09:39:17.832Z</time></trkpt><trkpt lat="45.3952792" lon="10.6189469"><ele>93.66666666666666</ele><time>2026-03-28T09:39:18.833Z</time></trkpt><trkpt lat="45.3952092" lon="10.6187331"><ele>94.0</ele><time>2026-03-28T09:39:19.833Z</time></trkpt><trkpt lat="45.395134" lon="10.6185174"><ele>95.0</ele><time>2026-03-28T09:39:20.834Z</time></trkpt><trkpt lat="45.3950535" lon="10.6183008"><ele>96.0</ele><time>2026-03-28T09:39:21.834Z</time></trkpt><trkpt lat="45.3949722" lon="10.6180801"><ele>97.0</ele><time>2026-03-28T09:39:22.833Z</time></trkpt><trkpt lat="45.3948904" lon="10.6178641"><ele>96.0</ele><time>2026-03-28T09:39:23.832Z</time></trkpt><trkpt lat="45.394802" lon="10.6176491"><ele>95.0</ele><time>2026-03-28T09:39:24.833Z</time></trkpt><trkpt lat="45.3947081" lon="10.6174313"><ele>94.0</ele><time>2026-03-28T09:39:25.833Z</time></trkpt><trkpt lat="45.3946101" lon="10.6172174"><ele>94.0</ele><time>2026-03-28T09:39:26.832Z</time></trkpt><trkpt lat="45.3945115" lon="10.6170041"><ele>94.0</ele><time>2026-03-28T09:39:27.832Z</time></trkpt><trkpt lat="45.3944064" lon="10.6167949"><ele>94.0</ele><time>2026-03-28T09:39:28.833Z</time></trkpt><trkpt lat="45.3943032" lon="10.6165874"><ele>96.0</ele><time>2026-03-28T09:39:29.834Z</time></trkpt><trkpt lat="45.3941996" lon="10.6163787"><ele>98.0</ele><time>2026-03-28T09:39:30.834Z</time></trkpt><trkpt lat="45.3940999" lon="10.616166"><ele>100.0</ele><time>2026-03-28T09:39:31.833Z</time></trkpt><trkpt lat="45.3940047" lon="10.61595"><ele>100.66666666666667</ele><time>2026-03-28T09:39:32.834Z</time></trkpt><trkpt lat="45.3939136" lon="10.6157303"><ele>101.33333333333334</ele><time>2026-03-28T09:39:33.832Z</time></trkpt><trkpt lat="45.3938281" lon="10.6155043"><ele>102.0</ele><time>2026-03-28T09:39:34.834Z</time></trkpt><trkpt lat="45.3937411" lon="10.6152861"><ele>100.0</ele><time>2026-03-28T09:39:35.833Z</time></trkpt><trkpt lat="45.393655" lon="10.6150636"><ele>98.0</ele><time>2026-03-28T09:39:36.833Z</time></trkpt><trkpt lat="45.393571" lon="10.6148451"><ele>96.0</ele><time>2026-03-28T09:39:37.833Z</time></trkpt><trkpt lat="45.3934915" lon="10.614626"><ele>97.0</ele><time>2026-03-28T09:39:38.834Z</time></trkpt><trkpt lat="45.3934095" lon="10.6144041"><ele>98.0</ele><time>2026-03-28T09:39:39.833Z</time></trkpt><trkpt lat="45.3933242" lon="10.6141836"><ele>99.0</ele><time>2026-03-28T09:39:40.833Z</time></trkpt><trkpt lat="45.3932395" lon="10.6139633"><ele>99.0</ele><time>2026-03-28T09:39:41.833Z</time></trkpt><trkpt lat="45.3931524" lon="10.6137423"><ele>99.0</ele><time>2026-03-28T09:39:42.834Z</time></trkpt><trkpt lat="45.3930622" lon="10.6135255"><ele>99.0</ele><time>2026-03-28T09:39:43.833Z</time></trkpt><trkpt lat="45.392964" lon="10.6133173"><ele>97.0</ele><time>2026-03-28T09:39:44.834Z</time></trkpt><trkpt lat="45.3928576" lon="10.6131251"><ele>95.0</ele><time>2026-03-28T09:39:45.834Z</time></trkpt><trkpt lat="45.3927474" lon="10.6129527"><ele>93.0</ele><time>2026-03-28T09:39:46.833Z</time></trkpt><trkpt lat="45.3926389" lon="10.6127808"><ele>93.0</ele><time>2026-03-28T09:39:47.833Z</time></trkpt><trkpt lat="45.3925317" lon="10.6126224"><ele>93.0</ele><time>2026-03-28T09:39:48.832Z</time></trkpt><trkpt lat="45.39243" lon="10.6124738"><ele>93.0</ele><time>2026-03-28T09:39:49.833Z</time></trkpt><trkpt lat="45.3923393" lon="10.6123388"><ele>93.0</ele><time>2026-03-28T09:39:50.832Z</time></trkpt><trkpt lat="45.3922617" lon="10.6122225"><ele>93.0</ele><time>2026-03-28T09:39:51.833Z</time></trkpt><trkpt lat="45.3921833" lon="10.612139"><ele>93.0</ele><time>2026-03-28T09:39:52.833Z</time></trkpt><trkpt lat="45.3920901" lon="10.6120992"><ele>93.0</ele><time>2026-03-28T09:39:53.832Z</time></trkpt><trkpt lat="45.3919851" lon="10.6120923"><ele>93.0</ele><time>2026-03-28T09:39:54.833Z</time></trkpt><trkpt lat="45.3918741" lon="10.6121165"><ele>93.0</ele><time>2026-03-28T09:39:55.833Z</time></trkpt><trkpt lat="45.391755" lon="10.6121564"><ele>93.5</ele><time>2026-03-28T09:39:56.833Z</time></trkpt><trkpt lat="45.3916324" lon="10.6121929"><ele>94.0</ele><time>2026-03-28T09:39:57.834Z</time></trkpt><trkpt lat="45.3915058" lon="10.6122235"><ele>94.5</ele><time>2026-03-28T09:39:58.833Z</time></trkpt><trkpt lat="45.3913801" lon="10.6122503"><ele>95.0</ele><time>2026-03-28T09:39:59.832Z</time></trkpt><trkpt lat="45.3912538" lon="10.6122723"><ele>95.5</ele><time>2026-03-28T09:40:00.833Z</time></trkpt><trkpt lat="45.3911203" lon="10.612283"><ele>96.0</ele><time>2026-03-28T09:40:01.832Z</time></trkpt><trkpt lat="45.3909825" lon="10.6122675"><ele>96.5</ele><time>2026-03-28T09:40:02.832Z</time></trkpt><trkpt lat="45.3908479" lon="10.6122249"><ele>97.0</ele><time>2026-03-28T09:40:03.832Z</time></trkpt><trkpt lat="45.3907104" lon="10.6121605"><ele>97.0</ele><time>2026-03-28T09:40:04.832Z</time></trkpt><trkpt lat="45.3905752" lon="10.6120869"><ele>97.0</ele><time>2026-03-28T09:40:05.832Z</time></trkpt><trkpt lat="45.3904359" lon="10.6120138"><ele>97.0</ele><time>2026-03-28T09:40:06.834Z</time></trkpt><trkpt lat="45.3902956" lon="10.611937"><ele>97.0</ele><time>2026-03-28T09:40:07.833Z</time></trkpt><trkpt lat="45.3901492" lon="10.6118551"><ele>97.33333333333334</ele><time>2026-03-28T09:40:08.833Z</time></trkpt><trkpt lat="45.3900083" lon="10.6117713"><ele>97.66666666666666</ele><time>2026-03-28T09:40:09.833Z</time></trkpt><trkpt lat="45.3898657" lon="10.6116902"><ele>98.0</ele><time>2026-03-28T09:40:10.833Z</time></trkpt><trkpt lat="45.3897207" lon="10.6116098"><ele>98.33333333333333</ele><time>2026-03-28T09:40:11.833Z</time></trkpt><trkpt lat="45.389577" lon="10.6115359"><ele>98.66666666666666</ele><time>2026-03-28T09:40:12.833Z</time></trkpt><trkpt lat="45.3894299" lon="10.6114642"><ele>99.0</ele><time>2026-03-28T09:40:13.832Z</time></trkpt><trkpt lat="45.389281" lon="10.6113921"><ele>99.0</ele><time>2026-03-28T09:40:14.833Z</time></trkpt><trkpt lat="45.3891253" lon="10.6113394"><ele>99.0</ele><time>2026-03-28T09:40:15.833Z</time></trkpt><trkpt lat="45.3889631" lon="10.6113142"><ele>99.0</ele><time>2026-03-28T09:40:16.833Z</time></trkpt><trkpt lat="45.3887966" lon="10.6112917"><ele>99.0</ele><time>2026-03-28T09:40:17.832Z</time></trkpt><trkpt lat="45.3886313" lon="10.6112742"><ele>99.0</ele><time>2026-03-28T09:40:18.833Z</time></trkpt><trkpt lat="45.3884629" lon="10.6112542"><ele>99.0</ele><time>2026-03-28T09:40:19.832Z</time></trkpt><trkpt lat="45.3882893" lon="10.61123"><ele>99.0</ele><time>2026-03-28T09:40:20.833Z</time></trkpt><trkpt lat="45.3881185" lon="10.6112112"><ele>99.0</ele><time>2026-03-28T09:40:21.832Z</time></trkpt><trkpt lat="45.3879511" lon="10.6111899"><ele>99.0</ele><time>2026-03-28T09:40:22.833Z</time></trkpt><trkpt lat="45.3877806" lon="10.6111688"><ele>99.0</ele><time>2026-03-28T09:40:23.832Z</time></trkpt><trkpt lat="45.3876106" lon="10.6111483"><ele>99.0</ele><time>2026-03-28T09:40:24.832Z</time></trkpt><trkpt lat="45.3874389" lon="10.6111275"><ele>99.0</ele><time>2026-03-28T09:40:25.831Z</time></trkpt><trkpt lat="45.3872693" lon="10.6111085"><ele>99.33333333333334</ele><time>2026-03-28T09:40:26.832Z</time></trkpt><trkpt lat="45.3871013" lon="10.6110846"><ele>99.66666666666667</ele><time>2026-03-28T09:40:27.832Z</time></trkpt><trkpt lat="45.3869334" lon="10.6110611"><ele>100.0</ele><time>2026-03-28T09:40:28.832Z</time></trkpt><trkpt lat="45.3867689" lon="10.6110385"><ele>100.0</ele><time>2026-03-28T09:40:29.832Z</time></trkpt><trkpt lat="45.3866058" lon="10.6110149"><ele>100.0</ele><time>2026-03-28T09:40:30.833Z</time></trkpt><trkpt lat="45.3864441" lon="10.6109896"><ele>100.0</ele><time>2026-03-28T09:40:31.833Z</time></trkpt><trkpt lat="45.3862874" lon="10.6109677"><ele>100.25</ele><time>2026-03-28T09:40:32.832Z</time></trkpt><trkpt lat="45.3861436" lon="10.6109555"><ele>100.5</ele><time>2026-03-28T09:40:33.832Z</time></trkpt><trkpt lat="45.3860101" lon="10.6109646"><ele>100.75</ele><time>2026-03-28T09:40:34.832Z</time></trkpt><trkpt lat="45.3858928" lon="10.6109989"><ele>101.0</ele><time>2026-03-28T09:40:35.832Z</time></trkpt><trkpt lat="45.3857858" lon="10.6110607"><ele>101.0</ele><time>2026-03-28T09:40:36.831Z</time></trkpt><trkpt lat="45.3856733" lon="10.6111544"><ele>101.0</ele><time>2026-03-28T09:40:37.831Z</time></trkpt><trkpt lat="45.3855612" lon="10.611271"><ele>101.0</ele><time>2026-03-28T09:40:38.832Z</time></trkpt><trkpt lat="45.3854448" lon="10.6113892"><ele>101.0</ele><time>2026-03-28T09:40:39.832Z</time></trkpt><trkpt lat="45.3853232" lon="10.6115091"><ele>101.66666666666666</ele><time>2026-03-28T09:40:40.832Z</time></trkpt><trkpt lat="45.3852027" lon="10.6116296"><ele>102.33333333333334</ele><time>2026-03-28T09:40:41.832Z</time></trkpt><trkpt lat="45.3850721" lon="10.6117365"><ele>103.0</ele><time>2026-03-28T09:40:42.832Z</time></trkpt><trkpt lat="45.3849339" lon="10.6118308"><ele>103.0</ele><time>2026-03-28T09:40:43.833Z</time></trkpt><trkpt lat="45.3847887" lon="10.6119096"><ele>103.0</ele><time>2026-03-28T09:40:44.831Z</time></trkpt><trkpt lat="45.3846408" lon="10.6119853"><ele>103.0</ele><time>2026-03-28T09:40:45.832Z</time></trkpt><trkpt lat="45.3844936" lon="10.6120594"><ele>103.66666666666667</ele><time>2026-03-28T09:40:46.833Z</time></trkpt><trkpt lat="45.384345" lon="10.6121381"><ele>104.33333333333334</ele><time>2026-03-28T09:40:47.831Z</time></trkpt><trkpt lat="45.3841925" lon="10.6122112"><ele>105.0</ele><time>2026-03-28T09:40:48.832Z</time></trkpt><trkpt lat="45.3840432" lon="10.6122858"><ele>105.0</ele><time>2026-03-28T09:40:49.832Z</time></trkpt><trkpt lat="45.3838919" lon="10.6123595"><ele>105.0</ele><time>2026-03-28T09:40:50.832Z</time></trkpt><trkpt lat="45.3837368" lon="10.6124392"><ele>105.0</ele><time>2026-03-28T09:40:51.832Z</time></trkpt><trkpt lat="45.3835834" lon="10.6125291"><ele>104.33333333333334</ele><time>2026-03-28T09:40:52.832Z</time></trkpt><trkpt lat="45.3834341" lon="10.6126362"><ele>103.66666666666667</ele><time>2026-03-28T09:40:53.832Z</time></trkpt><trkpt lat="45.3832902" lon="10.6127606"><ele>103.0</ele><time>2026-03-28T09:40:54.831Z</time></trkpt><trkpt lat="45.3831511" lon="10.6128969"><ele>103.0</ele><time>2026-03-28T09:40:55.832Z</time></trkpt><trkpt lat="45.3830133" lon="10.613044"><ele>103.0</ele><time>2026-03-28T09:40:56.831Z</time></trkpt><trkpt lat="45.3828757" lon="10.6132009"><ele>103.0</ele><time>2026-03-28T09:40:57.832Z</time></trkpt><trkpt lat="45.3827479" lon="10.6133646"><ele>103.0</ele><time>2026-03-28T09:40:58.832Z</time></trkpt><trkpt lat="45.3826211" lon="10.613531"><ele>103.0</ele><time>2026-03-28T09:40:59.831Z</time></trkpt><trkpt lat="45.3824953" lon="10.6137006"><ele>103.0</ele><time>2026-03-28T09:41:00.832Z</time></trkpt><trkpt lat="45.382377" lon="10.6138646"><ele>103.0</ele><time>2026-03-28T09:41:01.831Z</time></trkpt><trkpt lat="45.3822694" lon="10.6140111"><ele>103.0</ele><time>2026-03-28T09:41:02.832Z</time></trkpt><trkpt lat="45.3821726" lon="10.6141448"><ele>103.0</ele><time>2026-03-28T09:41:03.833Z</time></trkpt><trkpt lat="45.3820868" lon="10.6142638"><ele>103.0</ele><time>2026-03-28T09:41:04.832Z</time></trkpt><trkpt lat="45.3820192" lon="10.6143647"><ele>103.00000000000001</ele><time>2026-03-28T09:41:05.831Z</time></trkpt><trkpt lat="45.3819806" lon="10.614459"><ele>103.0</ele><time>2026-03-28T09:41:06.832Z</time></trkpt><trkpt lat="45.3819718" lon="10.614564"><ele>103.0</ele><time>2026-03-28T09:41:07.831Z</time></trkpt><trkpt lat="45.3819753" lon="10.6146924"><ele>103.0</ele><time>2026-03-28T09:41:08.833Z</time></trkpt><trkpt lat="45.3819805" lon="10.6148177"><ele>103.00000000000001</ele><time>2026-03-28T09:41:09.832Z</time></trkpt><trkpt lat="45.3819744" lon="10.6149343"><ele>103.0</ele><time>2026-03-28T09:41:10.832Z</time></trkpt><trkpt lat="45.3819692" lon="10.6150651"><ele>103.0</ele><time>2026-03-28T09:41:11.832Z</time></trkpt><trkpt lat="45.3819705" lon="10.615212"><ele>103.0</ele><time>2026-03-28T09:41:12.832Z</time></trkpt><trkpt lat="45.3819714" lon="10.6153687"><ele>103.0</ele><time>2026-03-28T09:41:13.832Z</time></trkpt><trkpt lat="45.3819664" lon="10.61554"><ele>103.0</ele><time>2026-03-28T09:41:14.831Z</time></trkpt><trkpt lat="45.3819623" lon="10.6157235"><ele>103.0</ele><time>2026-03-28T09:41:15.831Z</time></trkpt><trkpt lat="45.3819643" lon="10.6158926"><ele>103.0</ele><time>2026-03-28T09:41:16.831Z</time></trkpt><trkpt lat="45.381967" lon="10.6160854"><ele>103.0</ele><time>2026-03-28T09:41:17.831Z</time></trkpt><trkpt lat="45.3819657" lon="10.6162805"><ele>103.0</ele><time>2026-03-28T09:41:18.833Z</time></trkpt><trkpt lat="45.3819587" lon="10.6164828"><ele>103.0</ele><time>2026-03-28T09:41:19.832Z</time></trkpt><trkpt lat="45.3819484" lon="10.616685"><ele>103.0</ele><time>2026-03-28T09:41:20.831Z</time></trkpt><trkpt lat="45.381939" lon="10.6168705"><ele>103.0</ele><time>2026-03-28T09:41:21.833Z</time></trkpt><trkpt lat="45.3819329" lon="10.6170554"><ele>103.0</ele><time>2026-03-28T09:41:22.832Z</time></trkpt><trkpt lat="45.3819296" lon="10.6172282"><ele>102.75</ele><time>2026-03-28T09:41:23.832Z</time></trkpt><trkpt lat="45.3819277" lon="10.6174039"><ele>102.5</ele><time>2026-03-28T09:41:24.833Z</time></trkpt><trkpt lat="45.3819335" lon="10.6175829"><ele>102.25</ele><time>2026-03-28T09:41:25.832Z</time></trkpt><trkpt lat="45.3819474" lon="10.617766"><ele>102.0</ele><time>2026-03-28T09:41:26.832Z</time></trkpt><trkpt lat="45.3819534" lon="10.6179558"><ele>102.0</ele><time>2026-03-28T09:41:27.832Z</time></trkpt><trkpt lat="45.3820018" lon="10.6181235"><ele>102.0</ele><time>2026-03-28T09:41:28.832Z</time></trkpt><trkpt lat="45.3820296" lon="10.6182985"><ele>102.0</ele><time>2026-03-28T09:41:29.833Z</time></trkpt><trkpt lat="45.3820273" lon="10.6184512"><ele>102.0</ele><time>2026-03-28T09:41:30.831Z</time></trkpt><trkpt lat="45.3820468" lon="10.618613"><ele>102.75</ele><time>2026-03-28T09:41:31.832Z</time></trkpt><trkpt lat="45.3820828" lon="10.6187894"><ele>103.5</ele><time>2026-03-28T09:41:32.832Z</time></trkpt><trkpt lat="45.382113" lon="10.6189588"><ele>104.25</ele><time>2026-03-28T09:41:33.832Z</time></trkpt><trkpt lat="45.382135" lon="10.6191191"><ele>105.0</ele><time>2026-03-28T09:41:34.831Z</time></trkpt><trkpt lat="45.3821466" lon="10.6192643"><ele>105.0</ele><time>2026-03-28T09:41:35.831Z</time></trkpt><trkpt lat="45.3821349" lon="10.61941"><ele>105.0</ele><time>2026-03-28T09:41:36.832Z</time></trkpt><trkpt lat="45.382113" lon="10.6195691"><ele>105.0</ele><time>2026-03-28T09:41:37.833Z</time></trkpt><trkpt lat="45.3820617" lon="10.6197441"><ele>105.0</ele><time>2026-03-28T09:41:38.831Z</time></trkpt><trkpt lat="45.3820142" lon="10.6199132"><ele>104.75</ele><time>2026-03-28T09:41:39.831Z</time></trkpt><trkpt lat="45.3819618" lon="10.620085"><ele>104.5</ele><time>2026-03-28T09:41:40.832Z</time></trkpt><trkpt lat="45.3819057" lon="10.6202523"><ele>104.25</ele><time>2026-03-28T09:41:41.831Z</time></trkpt><trkpt lat="45.3818549" lon="10.620402"><ele>104.0</ele><time>2026-03-28T09:41:42.831Z</time></trkpt><trkpt lat="45.3818158" lon="10.6205366"><ele>103.25</ele><time>2026-03-28T09:41:43.833Z</time></trkpt><trkpt lat="45.381791" lon="10.620683"><ele>102.5</ele><time>2026-03-28T09:41:44.833Z</time></trkpt><trkpt lat="45.3817807" lon="10.6208545"><ele>101.75</ele><time>2026-03-28T09:41:45.832Z</time></trkpt><trkpt lat="45.3817693" lon="10.621042"><ele>101.0</ele><time>2026-03-28T09:41:46.832Z</time></trkpt><trkpt lat="45.3817655" lon="10.6212465"><ele>100.75</ele><time>2026-03-28T09:41:47.832Z</time></trkpt><trkpt lat="45.3817723" lon="10.6214476"><ele>100.5</ele><time>2026-03-28T09:41:48.832Z</time></trkpt><trkpt lat="45.3817707" lon="10.6216505"><ele>100.25</ele><time>2026-03-28T09:41:49.832Z</time></trkpt><trkpt lat="45.3817639" lon="10.6218373"><ele>100.0</ele><time>2026-03-28T09:41:50.833Z</time></trkpt><trkpt lat="45.3817585" lon="10.6220115"><ele>100.0</ele><time>2026-03-28T09:41:51.832Z</time></trkpt><trkpt lat="45.3817488" lon="10.6221812"><ele>100.0</ele><time>2026-03-28T09:41:52.832Z</time></trkpt><trkpt lat="45.3817376" lon="10.6223475"><ele>100.0</ele><time>2026-03-28T09:41:53.832Z</time></trkpt><trkpt lat="45.3817308" lon="10.6224995"><ele>100.0</ele><time>2026-03-28T09:41:54.833Z</time></trkpt><trkpt lat="45.3817187" lon="10.6226315"><ele>100.0</ele><time>2026-03-28T09:41:55.832Z</time></trkpt><trkpt lat="45.3817056" lon="10.6227497"><ele>100.00000000000001</ele><time>2026-03-28T09:41:56.833Z</time></trkpt><trkpt lat="45.3816955" lon="10.6228504"><ele>100.0</ele><time>2026-03-28T09:41:57.833Z</time></trkpt><trkpt lat="45.3816857" lon="10.6229419"><ele>100.0</ele><time>2026-03-28T09:41:58.832Z</time></trkpt><trkpt lat="45.3816686" lon="10.6231026"><ele>100.0</ele><time>2026-03-28T09:42:00.833Z</time></trkpt><trkpt lat="45.3816761" lon="10.6232634"><ele>100.00000000000001</ele><time>2026-03-28T09:42:02.832Z</time></trkpt><trkpt lat="45.3816924" lon="10.6233513"><ele>100.0</ele><time>2026-03-28T09:42:03.832Z</time></trkpt><trkpt lat="45.3817063" lon="10.6234492"><ele>100.00000000000001</ele><time>2026-03-28T09:42:04.832Z</time></trkpt><trkpt lat="45.381707" lon="10.6235608"><ele>100.0</ele><time>2026-03-28T09:42:05.831Z</time></trkpt><trkpt lat="45.3817009" lon="10.6236823"><ele>100.0</ele><time>2026-03-28T09:42:06.832Z</time></trkpt><trkpt lat="45.3816915" lon="10.6238091"><ele>100.0</ele><time>2026-03-28T09:42:07.831Z</time></trkpt><trkpt lat="45.381681" lon="10.6239361"><ele>100.00000000000001</ele><time>2026-03-28T09:42:08.832Z</time></trkpt><trkpt lat="45.381669" lon="10.6240743"><ele>100.0</ele><time>2026-03-28T09:42:09.833Z</time></trkpt><trkpt lat="45.3816577" lon="10.6242223"><ele>100.25</ele><time>2026-03-28T09:42:10.831Z</time></trkpt><trkpt lat="45.3816473" lon="10.6243741"><ele>100.5</ele><time>2026-03-28T09:42:11.833Z</time></trkpt><trkpt lat="45.3816402" lon="10.6245468"><ele>100.75</ele><time>2026-03-28T09:42:12.833Z</time></trkpt><trkpt lat="45.3816356" lon="10.6247325"><ele>101.0</ele><time>2026-03-28T09:42:13.831Z</time></trkpt><trkpt lat="45.3816295" lon="10.6249381"><ele>100.66666666666666</ele><time>2026-03-28T09:42:14.831Z</time></trkpt><trkpt lat="45.3816114" lon="10.6251604"><ele>100.33333333333334</ele><time>2026-03-28T09:42:15.831Z</time></trkpt><trkpt lat="45.3815833" lon="10.6253907"><ele>100.0</ele><time>2026-03-28T09:42:16.832Z</time></trkpt><trkpt lat="45.3815578" lon="10.6256082"><ele>100.0</ele><time>2026-03-28T09:42:17.833Z</time></trkpt><trkpt lat="45.3815337" lon="10.6258114"><ele>100.0</ele><time>2026-03-28T09:42:18.831Z</time></trkpt><trkpt lat="45.3815058" lon="10.6260242"><ele>100.0</ele><time>2026-03-28T09:42:19.832Z</time></trkpt><trkpt lat="45.3814738" lon="10.6262443"><ele>100.25</ele><time>2026-03-28T09:42:20.832Z</time></trkpt><trkpt lat="45.381442" lon="10.6264626"><ele>100.5</ele><time>2026-03-28T09:42:21.833Z</time></trkpt><trkpt lat="45.3814136" lon="10.626668"><ele>100.75</ele><time>2026-03-28T09:42:22.831Z</time></trkpt><trkpt lat="45.3813858" lon="10.626867"><ele>101.0</ele><time>2026-03-28T09:42:23.832Z</time></trkpt><trkpt lat="45.3813584" lon="10.6270568"><ele>102.5</ele><time>2026-03-28T09:42:24.832Z</time></trkpt><trkpt lat="45.381332" lon="10.6272433"><ele>104.0</ele><time>2026-03-28T09:42:25.833Z</time></trkpt><trkpt lat="45.3813079" lon="10.6274215"><ele>105.5</ele><time>2026-03-28T09:42:26.832Z</time></trkpt><trkpt lat="45.3812893" lon="10.6275683"><ele>107.0</ele><time>2026-03-28T09:42:27.832Z</time></trkpt><trkpt lat="45.381275" lon="10.62769"><ele>107.0</ele><time>2026-03-28T09:42:28.832Z</time></trkpt><trkpt lat="45.3812517" lon="10.627784"><ele>106.99999999999999</ele><time>2026-03-28T09:42:29.832Z</time></trkpt><trkpt lat="45.3811743" lon="10.6278771"><ele>106.99999999999999</ele><time>2026-03-28T09:42:31.831Z</time></trkpt><trkpt lat="45.3810926" lon="10.627899"><ele>107.0</ele><time>2026-03-28T09:42:32.832Z</time></trkpt><trkpt lat="45.3809932" lon="10.6279357"><ele>107.0</ele><time>2026-03-28T09:42:33.832Z</time></trkpt><trkpt lat="45.3808705" lon="10.6279856"><ele>107.25</ele><time>2026-03-28T09:42:34.832Z</time></trkpt><trkpt lat="45.3807295" lon="10.6280453"><ele>107.5</ele><time>2026-03-28T09:42:35.831Z</time></trkpt><trkpt lat="45.3805826" lon="10.6281197"><ele>107.75</ele><time>2026-03-28T09:42:36.831Z</time></trkpt><trkpt lat="45.3804524" lon="10.6281994"><ele>108.0</ele><time>2026-03-28T09:42:37.832Z</time></trkpt><trkpt lat="45.3803342" lon="10.6282894"><ele>108.0</ele><time>2026-03-28T09:42:38.831Z</time></trkpt><trkpt lat="45.3802295" lon="10.628392"><ele>108.00000000000001</ele><time>2026-03-28T09:42:39.833Z</time></trkpt><trkpt lat="45.38014" lon="10.6284742"><ele>108.00000000000001</ele><time>2026-03-28T09:42:40.833Z</time></trkpt><trkpt lat="45.3800467" lon="10.6285255"><ele>108.0</ele><time>2026-03-28T09:42:41.833Z</time></trkpt><trkpt lat="45.3799453" lon="10.6285467"><ele>108.0</ele><time>2026-03-28T09:42:42.832Z</time></trkpt><trkpt lat="45.3798348" lon="10.6285397"><ele>108.0</ele><time>2026-03-28T09:42:43.831Z</time></trkpt><trkpt lat="45.3797137" lon="10.6285035"><ele>108.0</ele><time>2026-03-28T09:42:44.831Z</time></trkpt><trkpt lat="45.3795922" lon="10.6284626"><ele>108.0</ele><time>2026-03-28T09:42:45.832Z</time></trkpt><trkpt lat="45.3794875" lon="10.6284256"><ele>108.0</ele><time>2026-03-28T09:42:46.832Z</time></trkpt><trkpt lat="45.3793826" lon="10.6284076"><ele>108.5</ele><time>2026-03-28T09:42:47.832Z</time></trkpt><trkpt lat="45.3792753" lon="10.6284187"><ele>109.0</ele><time>2026-03-28T09:42:48.832Z</time></trkpt><trkpt lat="45.3791552" lon="10.6284433"><ele>109.5</ele><time>2026-03-28T09:42:49.833Z</time></trkpt><trkpt lat="45.3790216" lon="10.6284683"><ele>110.0</ele><time>2026-03-28T09:42:50.832Z</time></trkpt><trkpt lat="45.3788958" lon="10.6284985"><ele>108.75</ele><time>2026-03-28T09:42:51.832Z</time></trkpt><trkpt lat="45.3787847" lon="10.6285287"><ele>107.5</ele><time>2026-03-28T09:42:52.832Z</time></trkpt><trkpt lat="45.3786774" lon="10.6285827"><ele>106.25</ele><time>2026-03-28T09:42:53.832Z</time></trkpt><trkpt lat="45.3785652" lon="10.6286523"><ele>105.0</ele><time>2026-03-28T09:42:54.832Z</time></trkpt><trkpt lat="45.3784529" lon="10.6287299"><ele>105.0</ele><time>2026-03-28T09:42:55.832Z</time></trkpt><trkpt lat="45.3783315" lon="10.6288456"><ele>105.0</ele><time>2026-03-28T09:42:56.832Z</time></trkpt><trkpt lat="45.3782206" lon="10.6289481"><ele>105.0</ele><time>2026-03-28T09:42:57.833Z</time></trkpt><trkpt lat="45.3781081" lon="10.6290532"><ele>105.0</ele><time>2026-03-28T09:42:58.831Z</time></trkpt><trkpt lat="45.377994" lon="10.6291558"><ele>105.25</ele><time>2026-03-28T09:42:59.833Z</time></trkpt><trkpt lat="45.3778845" lon="10.6292775"><ele>105.5</ele><time>2026-03-28T09:43:00.833Z</time></trkpt><trkpt lat="45.3777791" lon="10.6294124"><ele>105.75</ele><time>2026-03-28T09:43:01.833Z</time></trkpt><trkpt lat="45.3776845" lon="10.6295585"><ele>106.0</ele><time>2026-03-28T09:43:02.833Z</time></trkpt><trkpt lat="45.3775979" lon="10.6296951"><ele>106.0</ele><time>2026-03-28T09:43:03.832Z</time></trkpt><trkpt lat="45.3775118" lon="10.6298372"><ele>106.0</ele><time>2026-03-28T09:43:04.831Z</time></trkpt><trkpt lat="45.3774244" lon="10.6299738"><ele>106.0</ele><time>2026-03-28T09:43:05.833Z</time></trkpt><trkpt lat="45.3773441" lon="10.6300926"><ele>106.0</ele><time>2026-03-28T09:43:06.833Z</time></trkpt><trkpt lat="45.377263" lon="10.6301955"><ele>107.19999999999999</ele><time>2026-03-28T09:43:07.833Z</time></trkpt><trkpt lat="45.3771809" lon="10.6302642"><ele>108.39999999999999</ele><time>2026-03-28T09:43:08.832Z</time></trkpt><trkpt lat="45.3770751" lon="10.6303119"><ele>109.6</ele><time>2026-03-28T09:43:09.831Z</time></trkpt><trkpt lat="45.376966" lon="10.6303462"><ele>110.8</ele><time>2026-03-28T09:43:10.831Z</time></trkpt><trkpt lat="45.3768626" lon="10.6303548"><ele>112.0</ele><time>2026-03-28T09:43:11.831Z</time></trkpt><trkpt lat="45.376765" lon="10.6303954"><ele>112.0</ele><time>2026-03-28T09:43:12.832Z</time></trkpt><trkpt lat="45.376671" lon="10.6304541"><ele>112.0</ele><time>2026-03-28T09:43:13.832Z</time></trkpt><trkpt lat="45.3765953" lon="10.6305403"><ele>112.0</ele><time>2026-03-28T09:43:14.832Z</time></trkpt><trkpt lat="45.3765124" lon="10.6306769"><ele>112.0</ele><time>2026-03-28T09:43:15.832Z</time></trkpt><trkpt lat="45.3764405" lon="10.630841"><ele>112.0</ele><time>2026-03-28T09:43:16.833Z</time></trkpt><trkpt lat="45.3763741" lon="10.6310231"><ele>112.0</ele><time>2026-03-28T09:43:17.831Z</time></trkpt><trkpt lat="45.3763158" lon="10.6312294"><ele>112.0</ele><time>2026-03-28T09:43:18.832Z</time></trkpt><trkpt lat="45.3762592" lon="10.6314414"><ele>114.66666666666667</ele><time>2026-03-28T09:43:19.831Z</time></trkpt><trkpt lat="45.3761979" lon="10.6316639"><ele>117.33333333333334</ele><time>2026-03-28T09:43:20.832Z</time></trkpt><trkpt lat="45.3761399" lon="10.6318807"><ele>120.0</ele><time>2026-03-28T09:43:21.832Z</time></trkpt><trkpt lat="45.3760869" lon="10.632088"><ele>120.0</ele><time>2026-03-28T09:43:22.831Z</time></trkpt><trkpt lat="45.3760421" lon="10.6323024"><ele>120.0</ele><time>2026-03-28T09:43:23.832Z</time></trkpt><trkpt lat="45.3760028" lon="10.6325138"><ele>120.0</ele><time>2026-03-28T09:43:24.833Z</time></trkpt><trkpt lat="45.375978" lon="10.6327222"><ele>117.75</ele><time>2026-03-28T09:43:25.831Z</time></trkpt><trkpt lat="45.3759573" lon="10.6329092"><ele>115.5</ele><time>2026-03-28T09:43:26.832Z</time></trkpt><trkpt lat="45.3759407" lon="10.6330855"><ele>113.25</ele><time>2026-03-28T09:43:27.831Z</time></trkpt><trkpt lat="45.3759294" lon="10.6332448"><ele>111.0</ele><time>2026-03-28T09:43:28.833Z</time></trkpt><trkpt lat="45.3759134" lon="10.6333901"><ele>111.0</ele><time>2026-03-28T09:43:29.832Z</time></trkpt><trkpt lat="45.3758946" lon="10.6335203"><ele>111.0</ele><time>2026-03-28T09:43:30.833Z</time></trkpt><trkpt lat="45.3758748" lon="10.6336459"><ele>111.0</ele><time>2026-03-28T09:43:31.832Z</time></trkpt><trkpt lat="45.3758798" lon="10.6337436"><ele>111.0</ele><time>2026-03-28T09:43:32.832Z</time></trkpt><trkpt lat="45.3759069" lon="10.6338331"><ele>111.0</ele><time>2026-03-28T09:43:33.833Z</time></trkpt><trkpt lat="45.3759574" lon="10.6339426"><ele>111.0</ele><time>2026-03-28T09:43:34.832Z</time></trkpt><trkpt lat="45.3760299" lon="10.6340703"><ele>110.25</ele><time>2026-03-28T09:43:35.833Z</time></trkpt><trkpt lat="45.3761159" lon="10.6342052"><ele>109.5</ele><time>2026-03-28T09:43:36.833Z</time></trkpt><trkpt lat="45.3762117" lon="10.6343224"><ele>108.75</ele><time>2026-03-28T09:43:37.832Z</time></trkpt><trkpt lat="45.3763044" lon="10.6344263"><ele>108.0</ele><time>2026-03-28T09:43:38.832Z</time></trkpt><trkpt lat="45.3763714" lon="10.634528"><ele>107.60000000000001</ele><time>2026-03-28T09:43:39.832Z</time></trkpt><trkpt lat="45.3764279" lon="10.634642"><ele>107.20000000000002</ele><time>2026-03-28T09:43:40.832Z</time></trkpt><trkpt lat="45.3764714" lon="10.63476"><ele>106.8</ele><time>2026-03-28T09:43:41.831Z</time></trkpt><trkpt lat="45.3765093" lon="10.6349017"><ele>106.4</ele><time>2026-03-28T09:43:42.832Z</time></trkpt><trkpt lat="45.3765411" lon="10.6350454"><ele>106.0</ele><time>2026-03-28T09:43:43.831Z</time></trkpt><trkpt lat="45.3765682" lon="10.6351798"><ele>106.0</ele><time>2026-03-28T09:43:44.832Z</time></trkpt><trkpt lat="45.3765826" lon="10.6352959"><ele>106.0</ele><time>2026-03-28T09:43:45.832Z</time></trkpt><trkpt lat="45.376594" lon="10.6353959"><ele>114.0</ele><time>2026-03-28T09:43:46.831Z</time></trkpt><trkpt lat="45.3765575" lon="10.6354737"><ele>114.0</ele><time>2026-03-28T09:43:47.832Z</time></trkpt><trkpt lat="45.376525" lon="10.6355741"><ele>114.0</ele><time>2026-03-28T09:43:48.831Z</time></trkpt></trkseg><trkseg><trkpt lat="45.3743022" lon="10.6364158"><ele>108.0</ele><time>2026-03-28T10:24:59.823Z</time></trkpt><trkpt lat="45.3743739" lon="10.636443"><ele>108.0</ele><time>2026-03-28T10:25:05.822Z</time></trkpt><trkpt lat="45.3744428" lon="10.6364513"><ele>108.0</ele><time>2026-03-28T10:28:19.822Z</time></trkpt><trkpt lat="45.3744186" lon="10.6365544"><ele>108.0</ele><time>2026-03-28T10:29:11.821Z</time></trkpt><trkpt lat="45.3744556" lon="10.6366781"><ele>108.0</ele><time>2026-03-28T10:29:13.823Z</time></trkpt><trkpt lat="45.3745258" lon="10.6368095"><ele>108.0</ele><time>2026-03-28T10:29:15.821Z</time></trkpt><trkpt lat="45.374572" lon="10.6369693"><ele>108.33333333333333</ele><time>2026-03-28T10:29:17.823Z</time></trkpt><trkpt lat="45.3746123" lon="10.6371317"><ele>108.66666666666666</ele><time>2026-03-28T10:29:19.822Z</time></trkpt><trkpt lat="45.3746237" lon="10.637226"><ele>109.0</ele><time>2026-03-28T10:29:20.822Z</time></trkpt><trkpt lat="45.3746248" lon="10.6373327"><ele>109.33333333333333</ele><time>2026-03-28T10:29:21.823Z</time></trkpt><trkpt lat="45.3746179" lon="10.637451"><ele>109.66666666666666</ele><time>2026-03-28T10:29:22.822Z</time></trkpt><trkpt lat="45.3746125" lon="10.6375784"><ele>110.0</ele><time>2026-03-28T10:29:23.822Z</time></trkpt><trkpt lat="45.374614" lon="10.6377098"><ele>110.4</ele><time>2026-03-28T10:29:24.823Z</time></trkpt><trkpt lat="45.3746235" lon="10.6378438"><ele>110.8</ele><time>2026-03-28T10:29:25.821Z</time></trkpt><trkpt lat="45.3746423" lon="10.6379817"><ele>111.19999999999999</ele><time>2026-03-28T10:29:26.822Z</time></trkpt><trkpt lat="45.37467" lon="10.638125"><ele>111.6</ele><time>2026-03-28T10:29:27.822Z</time></trkpt><trkpt lat="45.3747002" lon="10.6382618"><ele>112.0</ele><time>2026-03-28T10:29:28.821Z</time></trkpt><trkpt lat="45.3747278" lon="10.6383975"><ele>113.0</ele><time>2026-03-28T10:29:29.822Z</time></trkpt><trkpt lat="45.3747571" lon="10.6385266"><ele>113.99999999999999</ele><time>2026-03-28T10:29:30.821Z</time></trkpt><trkpt lat="45.3747834" lon="10.6386667"><ele>114.99999999999999</ele><time>2026-03-28T10:29:31.821Z</time></trkpt><trkpt lat="45.374805" lon="10.6388154"><ele>116.0</ele><time>2026-03-28T10:29:32.823Z</time></trkpt><trkpt lat="45.374816" lon="10.6389683"><ele>117.0</ele><time>2026-03-28T10:29:33.821Z</time></trkpt><trkpt lat="45.3748247" lon="10.6391252"><ele>117.25</ele><time>2026-03-28T10:29:34.822Z</time></trkpt><trkpt lat="45.3748283" lon="10.63928"><ele>117.5</ele><time>2026-03-28T10:29:35.822Z</time></trkpt><trkpt lat="45.3748361" lon="10.6394426"><ele>117.75</ele><time>2026-03-28T10:29:36.823Z</time></trkpt><trkpt lat="45.3748594" lon="10.6396131"><ele>118.0</ele><time>2026-03-28T10:29:37.823Z</time></trkpt><trkpt lat="45.3749067" lon="10.6397717"><ele>118.0</ele><time>2026-03-28T10:29:38.823Z</time></trkpt><trkpt lat="45.374961" lon="10.6399301"><ele>118.0</ele><time>2026-03-28T10:29:39.822Z</time></trkpt><trkpt lat="45.3750275" lon="10.6400719"><ele>118.0</ele><time>2026-03-28T10:29:40.822Z</time></trkpt><trkpt lat="45.3751008" lon="10.6402072"><ele>118.0</ele><time>2026-03-28T10:29:41.821Z</time></trkpt><trkpt lat="45.3751722" lon="10.6403374"><ele>117.16666666666667</ele><time>2026-03-28T10:29:42.821Z</time></trkpt><trkpt lat="45.3752304" lon="10.6404622"><ele>116.33333333333334</ele><time>2026-03-28T10:29:43.823Z</time></trkpt><trkpt lat="45.375275" lon="10.640572"><ele>115.5</ele><time>2026-03-28T10:29:44.822Z</time></trkpt><trkpt lat="45.3753051" lon="10.6406824"><ele>114.66666666666666</ele><time>2026-03-28T10:29:45.822Z</time></trkpt><trkpt lat="45.3753095" lon="10.6408029"><ele>113.83333333333333</ele><time>2026-03-28T10:29:46.823Z</time></trkpt><trkpt lat="45.3752879" lon="10.6409224"><ele>113.0</ele><time>2026-03-28T10:29:47.822Z</time></trkpt><trkpt lat="45.3752388" lon="10.6410186"><ele>113.0</ele><time>2026-03-28T10:29:48.822Z</time></trkpt><trkpt lat="45.3751665" lon="10.6410903"><ele>113.00000000000001</ele><time>2026-03-28T10:29:49.823Z</time></trkpt><trkpt lat="45.3750657" lon="10.6411379"><ele>113.00000000000001</ele><time>2026-03-28T10:29:50.822Z</time></trkpt><trkpt lat="45.3749495" lon="10.6411655"><ele>113.0</ele><time>2026-03-28T10:29:51.823Z</time></trkpt><trkpt lat="45.374825" lon="10.6411833"><ele>113.0</ele><time>2026-03-28T10:29:52.823Z</time></trkpt><trkpt lat="45.3746948" lon="10.641191"><ele>112.0</ele><time>2026-03-28T10:29:53.822Z</time></trkpt><trkpt lat="45.374557" lon="10.6411918"><ele>111.0</ele><time>2026-03-28T10:29:54.822Z</time></trkpt><trkpt lat="45.3744135" lon="10.6411876"><ele>110.0</ele><time>2026-03-28T10:29:55.822Z</time></trkpt><trkpt lat="45.3742667" lon="10.6411878"><ele>109.0</ele><time>2026-03-28T10:29:56.822Z</time></trkpt><trkpt lat="45.374119" lon="10.6411948"><ele>109.0</ele><time>2026-03-28T10:29:57.822Z</time></trkpt><trkpt lat="45.3739727" lon="10.6412187"><ele>109.0</ele><time>2026-03-28T10:29:58.822Z</time></trkpt><trkpt lat="45.3738295" lon="10.641265"><ele>109.0</ele><time>2026-03-28T10:29:59.822Z</time></trkpt><trkpt lat="45.373688" lon="10.6413487"><ele>109.0</ele><time>2026-03-28T10:30:00.821Z</time></trkpt><trkpt lat="45.3735529" lon="10.6414602"><ele>108.0</ele><time>2026-03-28T10:30:01.821Z</time></trkpt><trkpt lat="45.3734167" lon="10.6415871"><ele>107.0</ele><time>2026-03-28T10:30:02.822Z</time></trkpt><trkpt lat="45.3732821" lon="10.6417143"><ele>106.0</ele><time>2026-03-28T10:30:03.822Z</time></trkpt><trkpt lat="45.3731476" lon="10.6418454"><ele>106.0</ele><time>2026-03-28T10:30:04.821Z</time></trkpt><trkpt lat="45.3730104" lon="10.6419718"><ele>106.0</ele><time>2026-03-28T10:30:05.823Z</time></trkpt><trkpt lat="45.3728687" lon="10.6420906"><ele>106.0</ele><time>2026-03-28T10:30:06.822Z</time></trkpt><trkpt lat="45.3727167" lon="10.6421883"><ele>106.0</ele><time>2026-03-28T10:30:07.823Z</time></trkpt><trkpt lat="45.3725587" lon="10.6422544"><ele>106.0</ele><time>2026-03-28T10:30:08.822Z</time></trkpt><trkpt lat="45.3723954" lon="10.6422966"><ele>106.0</ele><time>2026-03-28T10:30:09.823Z</time></trkpt><trkpt lat="45.3722283" lon="10.642332"><ele>107.0</ele><time>2026-03-28T10:30:10.822Z</time></trkpt><trkpt lat="45.3720632" lon="10.6423643"><ele>108.0</ele><time>2026-03-28T10:30:11.823Z</time></trkpt><trkpt lat="45.3718943" lon="10.6423921"><ele>109.0</ele><time>2026-03-28T10:30:12.823Z</time></trkpt><trkpt lat="45.3717259" lon="10.6424221"><ele>109.0</ele><time>2026-03-28T10:30:13.822Z</time></trkpt><trkpt lat="45.3715587" lon="10.6424515"><ele>109.0</ele><time>2026-03-28T10:30:14.823Z</time></trkpt><trkpt lat="45.3713928" lon="10.6424848"><ele>109.0</ele><time>2026-03-28T10:30:15.822Z</time></trkpt><trkpt lat="45.3712357" lon="10.6425529"><ele>108.66666666666667</ele><time>2026-03-28T10:30:16.822Z</time></trkpt><trkpt lat="45.371089" lon="10.642671"><ele>108.33333333333334</ele><time>2026-03-28T10:30:17.821Z</time></trkpt><trkpt lat="45.3709661" lon="10.642829"><ele>108.0</ele><time>2026-03-28T10:30:18.822Z</time></trkpt><trkpt lat="45.370852" lon="10.6430015"><ele>108.0</ele><time>2026-03-28T10:30:19.821Z</time></trkpt><trkpt lat="45.3707344" lon="10.6431789"><ele>108.0</ele><time>2026-03-28T10:30:20.822Z</time></trkpt><trkpt lat="45.3706078" lon="10.6433377"><ele>108.0</ele><time>2026-03-28T10:30:21.822Z</time></trkpt><trkpt lat="45.3704634" lon="10.6434645"><ele>108.33333333333334</ele><time>2026-03-28T10:30:22.822Z</time></trkpt><trkpt lat="45.3703045" lon="10.6435507"><ele>108.66666666666667</ele><time>2026-03-28T10:30:23.822Z</time></trkpt><trkpt lat="45.3701399" lon="10.643618"><ele>109.0</ele><time>2026-03-28T10:30:24.822Z</time></trkpt><trkpt lat="45.3699717" lon="10.6436812"><ele>109.66666666666667</ele><time>2026-03-28T10:30:25.822Z</time></trkpt><trkpt lat="45.3698046" lon="10.6437436"><ele>110.33333333333334</ele><time>2026-03-28T10:30:26.822Z</time></trkpt><trkpt lat="45.3696388" lon="10.6438118"><ele>111.0</ele><time>2026-03-28T10:30:27.822Z</time></trkpt><trkpt lat="45.369477" lon="10.6438895"><ele>111.0</ele><time>2026-03-28T10:30:28.821Z</time></trkpt><trkpt lat="45.3693194" lon="10.6439717"><ele>111.0</ele><time>2026-03-28T10:30:29.822Z</time></trkpt><trkpt lat="45.369162" lon="10.6440604"><ele>111.0</ele><time>2026-03-28T10:30:30.823Z</time></trkpt><trkpt lat="45.3690041" lon="10.6441473"><ele>110.66666666666666</ele><time>2026-03-28T10:30:31.822Z</time></trkpt><trkpt lat="45.3688418" lon="10.6442114"><ele>110.33333333333333</ele><time>2026-03-28T10:30:32.821Z</time></trkpt><trkpt lat="45.3686759" lon="10.6442444"><ele>110.0</ele><time>2026-03-28T10:30:33.822Z</time></trkpt><trkpt lat="45.3685042" lon="10.6442613"><ele>110.0</ele><time>2026-03-28T10:30:34.822Z</time></trkpt><trkpt lat="45.3683337" lon="10.6442787"><ele>110.0</ele><time>2026-03-28T10:30:35.823Z</time></trkpt><trkpt lat="45.3681625" lon="10.6442897"><ele>110.0</ele><time>2026-03-28T10:30:36.822Z</time></trkpt><trkpt lat="45.3679908" lon="10.6442874"><ele>110.0</ele><time>2026-03-28T10:30:37.822Z</time></trkpt><trkpt lat="45.367817" lon="10.6442529"><ele>110.0</ele><time>2026-03-28T10:30:38.821Z</time></trkpt><trkpt lat="45.3676474" lon="10.6441964"><ele>110.0</ele><time>2026-03-28T10:30:39.823Z</time></trkpt><trkpt lat="45.3674809" lon="10.6441144"><ele>110.0</ele><time>2026-03-28T10:30:40.821Z</time></trkpt><trkpt lat="45.3673234" lon="10.6439987"><ele>110.0</ele><time>2026-03-28T10:30:41.822Z</time></trkpt><trkpt lat="45.3671826" lon="10.6438584"><ele>110.0</ele><time>2026-03-28T10:30:42.821Z</time></trkpt><trkpt lat="45.3670452" lon="10.6437044"><ele>109.0</ele><time>2026-03-28T10:30:43.821Z</time></trkpt><trkpt lat="45.3669068" lon="10.6435536"><ele>108.0</ele><time>2026-03-28T10:30:44.822Z</time></trkpt><trkpt lat="45.3667623" lon="10.6434109"><ele>107.0</ele><time>2026-03-28T10:30:45.822Z</time></trkpt><trkpt lat="45.366609" lon="10.6432921"><ele>107.0</ele><time>2026-03-28T10:30:46.821Z</time></trkpt><trkpt lat="45.3664464" lon="10.6432127"><ele>107.0</ele><time>2026-03-28T10:30:47.823Z</time></trkpt><trkpt lat="45.3662821" lon="10.6431653"><ele>107.0</ele><time>2026-03-28T10:30:48.823Z</time></trkpt><trkpt lat="45.3661323" lon="10.6431651"><ele>106.66666666666666</ele><time>2026-03-28T10:30:49.822Z</time></trkpt><trkpt lat="45.3659892" lon="10.6432236"><ele>106.33333333333334</ele><time>2026-03-28T10:30:50.823Z</time></trkpt><trkpt lat="45.3658537" lon="10.6433294"><ele>106.0</ele><time>2026-03-28T10:30:51.823Z</time></trkpt><trkpt lat="45.3657295" lon="10.6434492"><ele>106.0</ele><time>2026-03-28T10:30:52.822Z</time></trkpt><trkpt lat="45.3656083" lon="10.6435643"><ele>106.0</ele><time>2026-03-28T10:30:53.822Z</time></trkpt><trkpt lat="45.3654947" lon="10.6436622"><ele>106.0</ele><time>2026-03-28T10:30:54.822Z</time></trkpt><trkpt lat="45.3653865" lon="10.6437467"><ele>106.0</ele><time>2026-03-28T10:30:55.821Z</time></trkpt><trkpt lat="45.365283" lon="10.6438143"><ele>106.25</ele><time>2026-03-28T10:30:56.823Z</time></trkpt><trkpt lat="45.3651763" lon="10.6438629"><ele>106.5</ele><time>2026-03-28T10:30:57.822Z</time></trkpt><trkpt lat="45.3650552" lon="10.6438978"><ele>106.75</ele><time>2026-03-28T10:30:58.822Z</time></trkpt><trkpt lat="45.3649297" lon="10.643917"><ele>107.0</ele><time>2026-03-28T10:30:59.821Z</time></trkpt><trkpt lat="45.3648" lon="10.6439085"><ele>107.25</ele><time>2026-03-28T10:31:00.822Z</time></trkpt><trkpt lat="45.3646716" lon="10.643875"><ele>107.5</ele><time>2026-03-28T10:31:01.823Z</time></trkpt><trkpt lat="45.3645427" lon="10.6438341"><ele>107.75</ele><time>2026-03-28T10:31:02.822Z</time></trkpt><trkpt lat="45.36441" lon="10.6437908"><ele>108.0</ele><time>2026-03-28T10:31:03.821Z</time></trkpt><trkpt lat="45.3642834" lon="10.643744"><ele>108.0</ele><time>2026-03-28T10:31:04.821Z</time></trkpt><trkpt lat="45.3641714" lon="10.6437006"><ele>108.00000000000001</ele><time>2026-03-28T10:31:05.822Z</time></trkpt><trkpt lat="45.364072" lon="10.6436575"><ele>108.00000000000001</ele><time>2026-03-28T10:31:06.822Z</time></trkpt><trkpt lat="45.3639664" lon="10.6436509"><ele>108.0</ele><time>2026-03-28T10:31:07.822Z</time></trkpt><trkpt lat="45.3638584" lon="10.6436754"><ele>108.0</ele><time>2026-03-28T10:31:08.822Z</time></trkpt><trkpt lat="45.3637516" lon="10.6437314"><ele>109.25</ele><time>2026-03-28T10:31:09.822Z</time></trkpt><trkpt lat="45.3636427" lon="10.6438026"><ele>110.5</ele><time>2026-03-28T10:31:10.822Z</time></trkpt><trkpt lat="45.3635287" lon="10.6438826"><ele>111.75</ele><time>2026-03-28T10:31:11.823Z</time></trkpt><trkpt lat="45.3634094" lon="10.6439607"><ele>113.0</ele><time>2026-03-28T10:31:12.823Z</time></trkpt><trkpt lat="45.3632858" lon="10.6440416"><ele>113.0</ele><time>2026-03-28T10:31:13.822Z</time></trkpt><trkpt lat="45.3631576" lon="10.6441204"><ele>113.0</ele><time>2026-03-28T10:31:14.822Z</time></trkpt><trkpt lat="45.3630268" lon="10.6442001"><ele>113.0</ele><time>2026-03-28T10:31:15.821Z</time></trkpt><trkpt lat="45.3628998" lon="10.644275"><ele>113.0</ele><time>2026-03-28T10:31:16.822Z</time></trkpt><trkpt lat="45.3627697" lon="10.6443348"><ele>114.0</ele><time>2026-03-28T10:31:17.822Z</time></trkpt><trkpt lat="45.3626417" lon="10.6443766"><ele>115.0</ele><time>2026-03-28T10:31:18.822Z</time></trkpt><trkpt lat="45.3625182" lon="10.6443865"><ele>116.0</ele><time>2026-03-28T10:31:19.822Z</time></trkpt><trkpt lat="45.3623965" lon="10.644388"><ele>117.0</ele><time>2026-03-28T10:31:20.822Z</time></trkpt><trkpt lat="45.3622827" lon="10.6443873"><ele>118.25</ele><time>2026-03-28T10:31:21.821Z</time></trkpt><trkpt lat="45.3621703" lon="10.6443953"><ele>119.5</ele><time>2026-03-28T10:31:22.821Z</time></trkpt><trkpt lat="45.3620574" lon="10.6444102"><ele>120.75</ele><time>2026-03-28T10:31:23.822Z</time></trkpt><trkpt lat="45.3619469" lon="10.6444505"><ele>122.0</ele><time>2026-03-28T10:31:24.822Z</time></trkpt><trkpt lat="45.3618408" lon="10.6445177"><ele>123.75</ele><time>2026-03-28T10:31:25.823Z</time></trkpt><trkpt lat="45.3617402" lon="10.6446012"><ele>125.5</ele><time>2026-03-28T10:31:26.822Z</time></trkpt><trkpt lat="45.361646" lon="10.6446952"><ele>127.25</ele><time>2026-03-28T10:31:27.821Z</time></trkpt><trkpt lat="45.3615563" lon="10.6448012"><ele>129.0</ele><time>2026-03-28T10:31:28.823Z</time></trkpt><trkpt lat="45.3614683" lon="10.6448843"><ele>129.0</ele><time>2026-03-28T10:31:29.822Z</time></trkpt><trkpt lat="45.3613883" lon="10.644948"><ele>129.0</ele><time>2026-03-28T10:31:30.822Z</time></trkpt><trkpt lat="45.3613085" lon="10.6449879"><ele>129.0</ele><time>2026-03-28T10:31:31.822Z</time></trkpt><trkpt lat="45.3612175" lon="10.6450154"><ele>129.0</ele><time>2026-03-28T10:31:32.822Z</time></trkpt><trkpt lat="45.3611211" lon="10.6450229"><ele>129.0</ele><time>2026-03-28T10:31:33.822Z</time></trkpt><trkpt lat="45.3610123" lon="10.6450157"><ele>128.75</ele><time>2026-03-28T10:31:34.821Z</time></trkpt><trkpt lat="45.3608903" lon="10.6449841"><ele>128.5</ele><time>2026-03-28T10:31:35.821Z</time></trkpt><trkpt lat="45.3607597" lon="10.6449301"><ele>128.25</ele><time>2026-03-28T10:31:36.821Z</time></trkpt><trkpt lat="45.3606204" lon="10.6448673"><ele>128.0</ele><time>2026-03-28T10:31:37.821Z</time></trkpt><trkpt lat="45.3604666" lon="10.6447969"><ele>125.66666666666666</ele><time>2026-03-28T10:31:38.821Z</time></trkpt><trkpt lat="45.360311" lon="10.6447223"><ele>123.33333333333334</ele><time>2026-03-28T10:31:39.822Z</time></trkpt><trkpt lat="45.3601504" lon="10.644653"><ele>121.0</ele><time>2026-03-28T10:31:40.82Z</time></trkpt><trkpt lat="45.3599856" lon="10.6445987"><ele>121.0</ele><time>2026-03-28T10:31:41.821Z</time></trkpt><trkpt lat="45.3598171" lon="10.6445502"><ele>121.0</ele><time>2026-03-28T10:31:42.821Z</time></trkpt><trkpt lat="45.3596478" lon="10.644512"><ele>121.0</ele><time>2026-03-28T10:31:43.821Z</time></trkpt><trkpt lat="45.3594784" lon="10.6444731"><ele>122.0</ele><time>2026-03-28T10:31:44.821Z</time></trkpt><trkpt lat="45.3593055" lon="10.6444261"><ele>123.0</ele><time>2026-03-28T10:31:45.82Z</time></trkpt><trkpt lat="45.3591323" lon="10.6443818"><ele>124.0</ele><time>2026-03-28T10:31:46.822Z</time></trkpt><trkpt lat="45.3589593" lon="10.6443354"><ele>123.66666666666667</ele><time>2026-03-28T10:31:47.821Z</time></trkpt><trkpt lat="45.35879" lon="10.644293"><ele>123.33333333333334</ele><time>2026-03-28T10:31:48.821Z</time></trkpt><trkpt lat="45.3586301" lon="10.6442557"><ele>123.0</ele><time>2026-03-28T10:31:49.821Z</time></trkpt><trkpt lat="45.3584779" lon="10.6442232"><ele>123.0</ele><time>2026-03-28T10:31:50.821Z</time></trkpt><trkpt lat="45.3583345" lon="10.6441942"><ele>123.0</ele><time>2026-03-28T10:31:51.82Z</time></trkpt><trkpt lat="45.3582013" lon="10.6441674"><ele>123.0</ele><time>2026-03-28T10:31:52.82Z</time></trkpt><trkpt lat="45.3580821" lon="10.6441313"><ele>123.0</ele><time>2026-03-28T10:31:53.821Z</time></trkpt><trkpt lat="45.3579844" lon="10.6440856"><ele>122.4</ele><time>2026-03-28T10:31:54.821Z</time></trkpt><trkpt lat="45.3579055" lon="10.6440469"><ele>121.80000000000001</ele><time>2026-03-28T10:31:55.822Z</time></trkpt><trkpt lat="45.3578149" lon="10.6440379"><ele>121.2</ele><time>2026-03-28T10:31:57.821Z</time></trkpt><trkpt lat="45.3577106" lon="10.6441016"><ele>120.6</ele><time>2026-03-28T10:32:00.821Z</time></trkpt><trkpt lat="45.3576416" lon="10.6441268"><ele>120.0</ele><time>2026-03-28T10:32:01.821Z</time></trkpt><trkpt lat="45.3575494" lon="10.6441553"><ele>120.0</ele><time>2026-03-28T10:32:02.821Z</time></trkpt><trkpt lat="45.357442" lon="10.6441722"><ele>120.0</ele><time>2026-03-28T10:32:03.82Z</time></trkpt><trkpt lat="45.3573212" lon="10.6441782"><ele>120.0</ele><time>2026-03-28T10:32:04.82Z</time></trkpt><trkpt lat="45.3571873" lon="10.6441761"><ele>120.0</ele><time>2026-03-28T10:32:05.821Z</time></trkpt><trkpt lat="45.3570447" lon="10.6441697"><ele>119.66666666666666</ele><time>2026-03-28T10:32:06.821Z</time></trkpt><trkpt lat="45.3568923" lon="10.6441664"><ele>119.33333333333333</ele><time>2026-03-28T10:32:07.82Z</time></trkpt><trkpt lat="45.3567376" lon="10.644164"><ele>119.0</ele><time>2026-03-28T10:32:08.821Z</time></trkpt><trkpt lat="45.3565782" lon="10.6441564"><ele>119.0</ele><time>2026-03-28T10:32:09.821Z</time></trkpt><trkpt lat="45.356414" lon="10.6441335"><ele>119.0</ele><time>2026-03-28T10:32:10.821Z</time></trkpt><trkpt lat="45.3562494" lon="10.6440868"><ele>119.0</ele><time>2026-03-28T10:32:11.821Z</time></trkpt><trkpt lat="45.3560878" lon="10.6440158"><ele>119.33333333333333</ele><time>2026-03-28T10:32:12.821Z</time></trkpt><trkpt lat="45.3559276" lon="10.6439309"><ele>119.66666666666666</ele><time>2026-03-28T10:32:13.821Z</time></trkpt><trkpt lat="45.3557686" lon="10.6438424"><ele>120.0</ele><time>2026-03-28T10:32:14.82Z</time></trkpt><trkpt lat="45.3556164" lon="10.6437564"><ele>119.33333333333334</ele><time>2026-03-28T10:32:15.822Z</time></trkpt><trkpt lat="45.3554652" lon="10.6436679"><ele>118.66666666666667</ele><time>2026-03-28T10:32:16.822Z</time></trkpt><trkpt lat="45.3553208" lon="10.6435796"><ele>118.0</ele><time>2026-03-28T10:32:17.821Z</time></trkpt><trkpt lat="45.3551813" lon="10.6434981"><ele>118.0</ele><time>2026-03-28T10:32:18.821Z</time></trkpt><trkpt lat="45.3550499" lon="10.6434442"><ele>118.0</ele><time>2026-03-28T10:32:19.821Z</time></trkpt><trkpt lat="45.3549093" lon="10.6434359"><ele>118.0</ele><time>2026-03-28T10:32:20.821Z</time></trkpt><trkpt lat="45.3547668" lon="10.643487"><ele>118.0</ele><time>2026-03-28T10:32:21.822Z</time></trkpt><trkpt lat="45.3546238" lon="10.6435789"><ele>115.66666666666667</ele><time>2026-03-28T10:32:22.822Z</time></trkpt><trkpt lat="45.3544748" lon="10.6436921"><ele>113.33333333333334</ele><time>2026-03-28T10:32:23.821Z</time></trkpt><trkpt lat="45.3543229" lon="10.6438065"><ele>111.0</ele><time>2026-03-28T10:32:24.821Z</time></trkpt><trkpt lat="45.354165" lon="10.6439128"><ele>111.0</ele><time>2026-03-28T10:32:25.821Z</time></trkpt><trkpt lat="45.3539983" lon="10.6440259"><ele>111.0</ele><time>2026-03-28T10:32:26.822Z</time></trkpt><trkpt lat="45.3538317" lon="10.6441411"><ele>111.0</ele><time>2026-03-28T10:32:27.822Z</time></trkpt><trkpt lat="45.3536695" lon="10.6442545"><ele>110.66666666666666</ele><time>2026-03-28T10:32:28.821Z</time></trkpt><trkpt lat="45.3535079" lon="10.6443743"><ele>110.33333333333333</ele><time>2026-03-28T10:32:29.822Z</time></trkpt><trkpt lat="45.3533485" lon="10.6444971"><ele>110.0</ele><time>2026-03-28T10:32:30.821Z</time></trkpt><trkpt lat="45.353194" lon="10.64463"><ele>110.0</ele><time>2026-03-28T10:32:31.82Z</time></trkpt><trkpt lat="45.3530367" lon="10.6447697"><ele>110.0</ele><time>2026-03-28T10:32:32.822Z</time></trkpt><trkpt lat="45.3528852" lon="10.6449111"><ele>110.0</ele><time>2026-03-28T10:32:33.82Z</time></trkpt><trkpt lat="45.3527349" lon="10.6450536"><ele>110.0</ele><time>2026-03-28T10:32:34.82Z</time></trkpt><trkpt lat="45.3525839" lon="10.6451949"><ele>110.0</ele><time>2026-03-28T10:32:35.821Z</time></trkpt><trkpt lat="45.3524343" lon="10.645335"><ele>110.0</ele><time>2026-03-28T10:32:36.82Z</time></trkpt><trkpt lat="45.352286" lon="10.645472"><ele>109.75</ele><time>2026-03-28T10:32:37.82Z</time></trkpt><trkpt lat="45.3521495" lon="10.645595"><ele>109.5</ele><time>2026-03-28T10:32:38.822Z</time></trkpt><trkpt lat="45.35202" lon="10.6456959"><ele>109.25</ele><time>2026-03-28T10:32:39.821Z</time></trkpt><trkpt lat="45.3519013" lon="10.6457788"><ele>109.0</ele><time>2026-03-28T10:32:40.82Z</time></trkpt><trkpt lat="45.3518032" lon="10.6458365"><ele>109.0</ele><time>2026-03-28T10:32:41.821Z</time></trkpt><trkpt lat="45.3517257" lon="10.6458534"><ele>109.0</ele><time>2026-03-28T10:32:42.822Z</time></trkpt><trkpt lat="45.3516329" lon="10.6457563"><ele>109.0</ele><time>2026-03-28T10:32:44.821Z</time></trkpt><trkpt lat="45.3516279" lon="10.6456493"><ele>109.0</ele><time>2026-03-28T10:32:45.82Z</time></trkpt><trkpt lat="45.3516529" lon="10.6455123"><ele>109.0</ele><time>2026-03-28T10:32:46.821Z</time></trkpt><trkpt lat="45.3516991" lon="10.6453666"><ele>109.25</ele><time>2026-03-28T10:32:47.82Z</time></trkpt><trkpt lat="45.3517554" lon="10.6452026"><ele>109.5</ele><time>2026-03-28T10:32:48.82Z</time></trkpt><trkpt lat="45.3518258" lon="10.6450411"><ele>109.75</ele><time>2026-03-28T10:32:49.821Z</time></trkpt><trkpt lat="45.351911" lon="10.644887"><ele>110.0</ele><time>2026-03-28T10:32:50.821Z</time></trkpt><trkpt lat="45.352" lon="10.6447439"><ele>110.0</ele><time>2026-03-28T10:32:51.82Z</time></trkpt><trkpt lat="45.3520779" lon="10.6446196"><ele>110.0</ele><time>2026-03-28T10:32:52.82Z</time></trkpt><trkpt lat="45.3521465" lon="10.6445166"><ele>110.0</ele><time>2026-03-28T10:32:53.821Z</time></trkpt><trkpt lat="45.3521998" lon="10.644434"><ele>110.0</ele><time>2026-03-28T10:32:54.821Z</time></trkpt><trkpt lat="45.3522378" lon="10.6443063"><ele>110.0</ele><time>2026-03-28T10:32:56.82Z</time></trkpt><trkpt lat="45.3521637" lon="10.6442087"><ele>110.25</ele><time>2026-03-28T10:32:58.821Z</time></trkpt><trkpt lat="45.3520686" lon="10.6441633"><ele>110.5</ele><time>2026-03-28T10:32:59.82Z</time></trkpt><trkpt lat="45.3519557" lon="10.6441069"><ele>110.75</ele><time>2026-03-28T10:33:00.82Z</time></trkpt><trkpt lat="45.3518416" lon="10.6440257"><ele>111.0</ele><time>2026-03-28T10:33:01.821Z</time></trkpt><trkpt lat="45.3517239" lon="10.643928"><ele>111.0</ele><time>2026-03-28T10:33:02.822Z</time></trkpt><trkpt lat="45.3516015" lon="10.6438209"><ele>111.0</ele><time>2026-03-28T10:33:03.822Z</time></trkpt><trkpt lat="45.3514769" lon="10.6437188"><ele>111.0</ele><time>2026-03-28T10:33:04.821Z</time></trkpt><trkpt lat="45.3513465" lon="10.6436365"><ele>111.0</ele><time>2026-03-28T10:33:05.82Z</time></trkpt><trkpt lat="45.3512162" lon="10.6435672"><ele>110.25</ele><time>2026-03-28T10:33:06.821Z</time></trkpt><trkpt lat="45.3510876" lon="10.6434937"><ele>109.5</ele><time>2026-03-28T10:33:07.82Z</time></trkpt><trkpt lat="45.3509616" lon="10.6434216"><ele>108.75</ele><time>2026-03-28T10:33:08.821Z</time></trkpt><trkpt lat="45.3508322" lon="10.6433404"><ele>108.0</ele><time>2026-03-28T10:33:09.821Z</time></trkpt><trkpt lat="45.3506937" lon="10.6432508"><ele>108.0</ele><time>2026-03-28T10:33:10.821Z</time></trkpt><trkpt lat="45.3505468" lon="10.6431656"><ele>108.0</ele><time>2026-03-28T10:33:11.82Z</time></trkpt><trkpt lat="45.3503936" lon="10.64309"><ele>108.0</ele><time>2026-03-28T10:33:12.822Z</time></trkpt><trkpt lat="45.3502482" lon="10.6430256"><ele>107.75</ele><time>2026-03-28T10:33:13.821Z</time></trkpt><trkpt lat="45.3501214" lon="10.6429638"><ele>107.5</ele><time>2026-03-28T10:33:14.821Z</time></trkpt><trkpt lat="45.3500039" lon="10.6429102"><ele>107.25</ele><time>2026-03-28T10:33:15.822Z</time></trkpt><trkpt lat="45.3499047" lon="10.6428643"><ele>107.0</ele><time>2026-03-28T10:33:16.821Z</time></trkpt><trkpt lat="45.3498122" lon="10.6428209"><ele>106.5</ele><time>2026-03-28T10:33:17.821Z</time></trkpt><trkpt lat="45.3497053" lon="10.6427765"><ele>106.0</ele><time>2026-03-28T10:33:18.82Z</time></trkpt><trkpt lat="45.3495839" lon="10.6427343"><ele>105.5</ele><time>2026-03-28T10:33:19.821Z</time></trkpt><trkpt lat="45.34946" lon="10.6427027"><ele>105.0</ele><time>2026-03-28T10:33:20.821Z</time></trkpt><trkpt lat="45.3493329" lon="10.6426645"><ele>105.0</ele><time>2026-03-28T10:33:21.821Z</time></trkpt><trkpt lat="45.349201" lon="10.6426231"><ele>105.0</ele><time>2026-03-28T10:33:22.82Z</time></trkpt><trkpt lat="45.3490627" lon="10.6425835"><ele>105.0</ele><time>2026-03-28T10:33:23.821Z</time></trkpt><trkpt lat="45.3489345" lon="10.642535"><ele>105.0</ele><time>2026-03-28T10:33:24.821Z</time></trkpt><trkpt lat="45.3488342" lon="10.6424938"><ele>105.4</ele><time>2026-03-28T10:33:25.82Z</time></trkpt><trkpt lat="45.3487619" lon="10.6424598"><ele>105.8</ele><time>2026-03-28T10:33:26.822Z</time></trkpt><trkpt lat="45.34871" lon="10.6423302"><ele>106.19999999999999</ele><time>2026-03-28T10:33:28.82Z</time></trkpt><trkpt lat="45.3487225" lon="10.6421932"><ele>106.6</ele><time>2026-03-28T10:33:29.822Z</time></trkpt><trkpt lat="45.3487271" lon="10.6420377"><ele>107.0</ele><time>2026-03-28T10:33:30.821Z</time></trkpt><trkpt lat="45.3487245" lon="10.6419083"><ele>107.0</ele><time>2026-03-28T10:33:31.821Z</time></trkpt><trkpt lat="45.3487138" lon="10.6418087"><ele>106.99999999999999</ele><time>2026-03-28T10:33:32.821Z</time></trkpt><trkpt lat="45.3486051" lon="10.6417499"><ele>106.99999999999999</ele><time>2026-03-28T10:33:34.822Z</time></trkpt><trkpt lat="45.3485071" lon="10.6417698"><ele>107.0</ele><time>2026-03-28T10:33:35.821Z</time></trkpt><trkpt lat="45.348378" lon="10.6417986"><ele>107.0</ele><time>2026-03-28T10:33:36.821Z</time></trkpt><trkpt lat="45.3482578" lon="10.6418134"><ele>107.0</ele><time>2026-03-28T10:33:37.822Z</time></trkpt><trkpt lat="45.3481366" lon="10.6418384"><ele>107.0</ele><time>2026-03-28T10:33:38.821Z</time></trkpt><trkpt lat="45.3479997" lon="10.6418668"><ele>107.0</ele><time>2026-03-28T10:33:39.822Z</time></trkpt><trkpt lat="45.3478627" lon="10.6418923"><ele>107.0</ele><time>2026-03-28T10:33:40.821Z</time></trkpt><trkpt lat="45.3477151" lon="10.6419235"><ele>107.0</ele><time>2026-03-28T10:33:41.82Z</time></trkpt><trkpt lat="45.3475866" lon="10.6419502"><ele>107.0</ele><time>2026-03-28T10:33:42.821Z</time></trkpt><trkpt lat="45.347455" lon="10.6419729"><ele>107.0</ele><time>2026-03-28T10:33:43.821Z</time></trkpt><trkpt lat="45.3473178" lon="10.6420062"><ele>107.0</ele><time>2026-03-28T10:33:44.821Z</time></trkpt><trkpt lat="45.3471968" lon="10.6420285"><ele>106.39999999999999</ele><time>2026-03-28T10:33:45.821Z</time></trkpt><trkpt lat="45.3470938" lon="10.642053"><ele>105.79999999999998</ele><time>2026-03-28T10:33:46.821Z</time></trkpt><trkpt lat="45.3469972" lon="10.6420686"><ele>105.2</ele><time>2026-03-28T10:33:47.821Z</time></trkpt><trkpt lat="45.3468992" lon="10.6420947"><ele>104.6</ele><time>2026-03-28T10:33:48.821Z</time></trkpt><trkpt lat="45.3467975" lon="10.6421126"><ele>104.0</ele><time>2026-03-28T10:33:49.822Z</time></trkpt><trkpt lat="45.3467339" lon="10.6421192"><ele>104.0</ele><time>2026-03-28T10:33:50.821Z</time></trkpt><trkpt lat="45.3466632" lon="10.6420623"><ele>104.0</ele><time>2026-03-28T10:33:52.821Z</time></trkpt><trkpt lat="45.3466347" lon="10.6419798"><ele>104.0</ele><time>2026-03-28T10:33:53.821Z</time></trkpt><trkpt lat="45.3466043" lon="10.6418565"><ele>104.0</ele><time>2026-03-28T10:33:54.821Z</time></trkpt><trkpt lat="45.3465641" lon="10.6417203"><ele>104.0</ele><time>2026-03-28T10:33:55.82Z</time></trkpt><trkpt lat="45.3465091" lon="10.6415669"><ele>105.2</ele><time>2026-03-28T10:33:56.821Z</time></trkpt><trkpt lat="45.3464544" lon="10.6414116"><ele>106.4</ele><time>2026-03-28T10:33:57.82Z</time></trkpt><trkpt lat="45.3464013" lon="10.6412615"><ele>107.6</ele><time>2026-03-28T10:33:58.821Z</time></trkpt><trkpt lat="45.3463636" lon="10.6411382"><ele>108.8</ele><time>2026-03-28T10:33:59.82Z</time></trkpt><trkpt lat="45.3463475" lon="10.6410292"><ele>110.0</ele><time>2026-03-28T10:34:00.821Z</time></trkpt><trkpt lat="45.3463584" lon="10.6409146"><ele>110.2</ele><time>2026-03-28T10:34:01.82Z</time></trkpt><trkpt lat="45.346387" lon="10.6407726"><ele>110.4</ele><time>2026-03-28T10:34:02.82Z</time></trkpt><trkpt lat="45.3464143" lon="10.6406124"><ele>110.6</ele><time>2026-03-28T10:34:03.82Z</time></trkpt><trkpt lat="45.3464316" lon="10.640446"><ele>110.8</ele><time>2026-03-28T10:34:04.821Z</time></trkpt><trkpt lat="45.3464263" lon="10.6402938"><ele>111.0</ele><time>2026-03-28T10:34:05.82Z</time></trkpt><trkpt lat="45.3464031" lon="10.6401207"><ele>113.75</ele><time>2026-03-28T10:34:06.821Z</time></trkpt><trkpt lat="45.3463671" lon="10.6399452"><ele>116.5</ele><time>2026-03-28T10:34:07.82Z</time></trkpt><trkpt lat="45.3463275" lon="10.6397654"><ele>119.25</ele><time>2026-03-28T10:34:08.82Z</time></trkpt><trkpt lat="45.3463014" lon="10.639568"><ele>122.0</ele><time>2026-03-28T10:34:09.821Z</time></trkpt><trkpt lat="45.3462749" lon="10.6393722"><ele>122.0</ele><time>2026-03-28T10:34:10.821Z</time></trkpt><trkpt lat="45.3462512" lon="10.6391926"><ele>121.99999999999999</ele><time>2026-03-28T10:34:11.822Z</time></trkpt><trkpt lat="45.3462385" lon="10.6390375"><ele>121.99999999999999</ele><time>2026-03-28T10:34:12.82Z</time></trkpt><trkpt lat="45.3462235" lon="10.6388817"><ele>122.0</ele><time>2026-03-28T10:34:13.82Z</time></trkpt><trkpt lat="45.346198" lon="10.638746"><ele>122.0</ele><time>2026-03-28T10:34:14.821Z</time></trkpt><trkpt lat="45.3461565" lon="10.6386239"><ele>122.0</ele><time>2026-03-28T10:34:15.82Z</time></trkpt><trkpt lat="45.3461024" lon="10.6385068"><ele>121.99999999999999</ele><time>2026-03-28T10:34:16.82Z</time></trkpt><trkpt lat="45.3460465" lon="10.6383765"><ele>121.99999999999999</ele><time>2026-03-28T10:34:17.821Z</time></trkpt><trkpt lat="45.3459965" lon="10.6382438"><ele>122.0</ele><time>2026-03-28T10:34:18.82Z</time></trkpt><trkpt lat="45.3459476" lon="10.6381242"><ele>122.0</ele><time>2026-03-28T10:34:19.821Z</time></trkpt><trkpt lat="45.3459144" lon="10.6380148"><ele>121.99999999999999</ele><time>2026-03-28T10:34:20.821Z</time></trkpt><trkpt lat="45.3458794" lon="10.6379054"><ele>122.0</ele><time>2026-03-28T10:34:21.82Z</time></trkpt><trkpt lat="45.3458561" lon="10.6378153"><ele>122.0</ele><time>2026-03-28T10:34:22.821Z</time></trkpt><trkpt lat="45.345803" lon="10.6376861"><ele>122.0</ele><time>2026-03-28T10:34:24.822Z</time></trkpt><trkpt lat="45.3457064" lon="10.6376063"><ele>121.99999999999999</ele><time>2026-03-28T10:34:26.822Z</time></trkpt><trkpt lat="45.3456488" lon="10.637543"><ele>122.0</ele><time>2026-03-28T10:34:27.821Z</time></trkpt><trkpt lat="45.345583" lon="10.6374751"><ele>122.0</ele><time>2026-03-28T10:34:28.821Z</time></trkpt><trkpt lat="45.3455101" lon="10.6374029"><ele>121.99999999999999</ele><time>2026-03-28T10:34:29.822Z</time></trkpt><trkpt lat="45.345427" lon="10.6373448"><ele>121.99999999999999</ele><time>2026-03-28T10:34:30.82Z</time></trkpt><trkpt lat="45.3453361" lon="10.6372902"><ele>122.0</ele><time>2026-03-28T10:34:31.821Z</time></trkpt><trkpt lat="45.3452447" lon="10.6372359"><ele>122.0</ele><time>2026-03-28T10:34:32.821Z</time></trkpt><trkpt lat="45.3451516" lon="10.6371696"><ele>122.0</ele><time>2026-03-28T10:34:33.821Z</time></trkpt><trkpt lat="45.3450642" lon="10.6370956"><ele>121.99999999999999</ele><time>2026-03-28T10:34:34.821Z</time></trkpt><trkpt lat="45.3449814" lon="10.637004"><ele>121.99999999999999</ele><time>2026-03-28T10:34:35.821Z</time></trkpt><trkpt lat="45.3449085" lon="10.6369054"><ele>122.0</ele><time>2026-03-28T10:34:36.821Z</time></trkpt><trkpt lat="45.3448492" lon="10.6368034"><ele>122.0</ele><time>2026-03-28T10:34:37.821Z</time></trkpt><trkpt lat="45.3447921" lon="10.6366952"><ele>122.19999999999999</ele><time>2026-03-28T10:34:38.82Z</time></trkpt><trkpt lat="45.3447329" lon="10.6365792"><ele>122.39999999999999</ele><time>2026-03-28T10:34:39.821Z</time></trkpt><trkpt lat="45.3446823" lon="10.636454"><ele>122.60000000000001</ele><time>2026-03-28T10:34:40.821Z</time></trkpt><trkpt lat="45.3446462" lon="10.6363266"><ele>122.80000000000001</ele><time>2026-03-28T10:34:41.82Z</time></trkpt><trkpt lat="45.3446132" lon="10.6361904"><ele>123.0</ele><time>2026-03-28T10:34:42.821Z</time></trkpt><trkpt lat="45.3445713" lon="10.6360509"><ele>124.0</ele><time>2026-03-28T10:34:43.821Z</time></trkpt><trkpt lat="45.3445207" lon="10.6359278"><ele>125.0</ele><time>2026-03-28T10:34:44.822Z</time></trkpt><trkpt lat="45.3444405" lon="10.6357939"><ele>126.0</ele><time>2026-03-28T10:34:45.82Z</time></trkpt><trkpt lat="45.3443488" lon="10.6356609"><ele>127.0</ele><time>2026-03-28T10:34:46.821Z</time></trkpt><trkpt lat="45.3442463" lon="10.6355313"><ele>127.0</ele><time>2026-03-28T10:34:47.822Z</time></trkpt><trkpt lat="45.3441404" lon="10.6354057"><ele>127.0</ele><time>2026-03-28T10:34:48.82Z</time></trkpt><trkpt lat="45.3440456" lon="10.6352852"><ele>127.0</ele><time>2026-03-28T10:34:49.821Z</time></trkpt><trkpt lat="45.3439502" lon="10.6351586"><ele>127.0</ele><time>2026-03-28T10:34:50.82Z</time></trkpt><trkpt lat="45.3438587" lon="10.6350223"><ele>125.0</ele><time>2026-03-28T10:34:51.821Z</time></trkpt><trkpt lat="45.3437894" lon="10.6348778"><ele>123.0</ele><time>2026-03-28T10:34:52.821Z</time></trkpt><trkpt lat="45.3437337" lon="10.6347217"><ele>121.0</ele><time>2026-03-28T10:34:53.821Z</time></trkpt><trkpt lat="45.3437028" lon="10.6345577"><ele>119.0</ele><time>2026-03-28T10:34:54.821Z</time></trkpt><trkpt lat="45.3436734" lon="10.6343887"><ele>119.0</ele><time>2026-03-28T10:34:55.821Z</time></trkpt><trkpt lat="45.3436507" lon="10.6342159"><ele>119.0</ele><time>2026-03-28T10:34:56.822Z</time></trkpt><trkpt lat="45.3436366" lon="10.6340564"><ele>119.0</ele><time>2026-03-28T10:34:57.822Z</time></trkpt><trkpt lat="45.343628" lon="10.633898"><ele>119.0</ele><time>2026-03-28T10:34:58.821Z</time></trkpt><trkpt lat="45.3436407" lon="10.6337474"><ele>121.25</ele><time>2026-03-28T10:34:59.821Z</time></trkpt><trkpt lat="45.3436783" lon="10.633603"><ele>123.5</ele><time>2026-03-28T10:35:00.822Z</time></trkpt><trkpt lat="45.3437399" lon="10.6334668"><ele>125.75</ele><time>2026-03-28T10:35:01.822Z</time></trkpt><trkpt lat="45.3438109" lon="10.6333366"><ele>128.0</ele><time>2026-03-28T10:35:02.822Z</time></trkpt><trkpt lat="45.3438686" lon="10.6331944"><ele>128.0</ele><time>2026-03-28T10:35:03.822Z</time></trkpt><trkpt lat="45.343906" lon="10.6330378"><ele>128.0</ele><time>2026-03-28T10:35:04.821Z</time></trkpt><trkpt lat="45.3439195" lon="10.6328708"><ele>128.0</ele><time>2026-03-28T10:35:05.821Z</time></trkpt><trkpt lat="45.3439187" lon="10.6326957"><ele>128.0</ele><time>2026-03-28T10:35:06.821Z</time></trkpt><trkpt lat="45.3439252" lon="10.6325179"><ele>128.25</ele><time>2026-03-28T10:35:07.822Z</time></trkpt><trkpt lat="45.3439417" lon="10.6323323"><ele>128.5</ele><time>2026-03-28T10:35:08.82Z</time></trkpt><trkpt lat="45.3439651" lon="10.6321499"><ele>128.75</ele><time>2026-03-28T10:35:09.822Z</time></trkpt><trkpt lat="45.3439899" lon="10.6319693"><ele>129.0</ele><time>2026-03-28T10:35:10.821Z</time></trkpt><trkpt lat="45.3440114" lon="10.6317901"><ele>129.8</ele><time>2026-03-28T10:35:11.821Z</time></trkpt><trkpt lat="45.344032" lon="10.6316147"><ele>130.60000000000002</ele><time>2026-03-28T10:35:12.82Z</time></trkpt><trkpt lat="45.3440448" lon="10.6314572"><ele>131.4</ele><time>2026-03-28T10:35:13.821Z</time></trkpt><trkpt lat="45.344055" lon="10.6313319"><ele>132.20000000000002</ele><time>2026-03-28T10:35:14.821Z</time></trkpt><trkpt lat="45.3440653" lon="10.631205"><ele>133.0</ele><time>2026-03-28T10:35:15.821Z</time></trkpt><trkpt lat="45.3440844" lon="10.6310683"><ele>133.75</ele><time>2026-03-28T10:35:16.82Z</time></trkpt><trkpt lat="45.3441176" lon="10.6309147"><ele>134.5</ele><time>2026-03-28T10:35:17.821Z</time></trkpt><trkpt lat="45.344163" lon="10.6307605"><ele>135.25</ele><time>2026-03-28T10:35:18.822Z</time></trkpt><trkpt lat="45.3442195" lon="10.6306051"><ele>136.0</ele><time>2026-03-28T10:35:19.821Z</time></trkpt><trkpt lat="45.3442883" lon="10.6304578"><ele>136.0</ele><time>2026-03-28T10:35:20.821Z</time></trkpt><trkpt lat="45.3443602" lon="10.6303088"><ele>136.0</ele><time>2026-03-28T10:35:21.821Z</time></trkpt><trkpt lat="45.3444146" lon="10.6301884"><ele>136.0</ele><time>2026-03-28T10:35:22.821Z</time></trkpt><trkpt lat="45.3444391" lon="10.6300945"><ele>136.0</ele><time>2026-03-28T10:35:23.821Z</time></trkpt><trkpt lat="45.3444318" lon="10.6299311"><ele>136.0</ele><time>2026-03-28T10:35:25.82Z</time></trkpt><trkpt lat="45.344343" lon="10.6298195"><ele>135.66666666666669</ele><time>2026-03-28T10:35:27.82Z</time></trkpt><trkpt lat="45.3442647" lon="10.6297878"><ele>135.33333333333334</ele><time>2026-03-28T10:35:28.821Z</time></trkpt><trkpt lat="45.3441692" lon="10.6297799"><ele>135.0</ele><time>2026-03-28T10:35:29.821Z</time></trkpt><trkpt lat="45.3440914" lon="10.6297982"><ele>134.66666666666666</ele><time>2026-03-28T10:35:30.822Z</time></trkpt><trkpt lat="45.3440153" lon="10.6298437"><ele>134.33333333333331</ele><time>2026-03-28T10:35:31.821Z</time></trkpt><trkpt lat="45.3439391" lon="10.6299375"><ele>134.0</ele><time>2026-03-28T10:35:32.821Z</time></trkpt><trkpt lat="45.3438448" lon="10.6300594"><ele>133.75</ele><time>2026-03-28T10:35:33.82Z</time></trkpt><trkpt lat="45.3437377" lon="10.6301695"><ele>133.5</ele><time>2026-03-28T10:35:34.82Z</time></trkpt><trkpt lat="45.3436096" lon="10.6302762"><ele>133.25</ele><time>2026-03-28T10:35:35.82Z</time></trkpt><trkpt lat="45.3434817" lon="10.6303853"><ele>133.0</ele><time>2026-03-28T10:35:36.821Z</time></trkpt><trkpt lat="45.3433514" lon="10.6304977"><ele>133.0</ele><time>2026-03-28T10:35:37.822Z</time></trkpt><trkpt lat="45.3432217" lon="10.6306188"><ele>133.0</ele><time>2026-03-28T10:35:38.821Z</time></trkpt><trkpt lat="45.3430886" lon="10.63074"><ele>133.0</ele><time>2026-03-28T10:35:39.82Z</time></trkpt><trkpt lat="45.3429523" lon="10.6308641"><ele>132.66666666666669</ele><time>2026-03-28T10:35:40.821Z</time></trkpt><trkpt lat="45.3428151" lon="10.6309869"><ele>132.33333333333334</ele><time>2026-03-28T10:35:41.821Z</time></trkpt><trkpt lat="45.3426762" lon="10.6311018"><ele>132.0</ele><time>2026-03-28T10:35:42.822Z</time></trkpt><trkpt lat="45.3425373" lon="10.6312162"><ele>132.0</ele><time>2026-03-28T10:35:43.821Z</time></trkpt><trkpt lat="45.342402" lon="10.6313318"><ele>132.0</ele><time>2026-03-28T10:35:44.821Z</time></trkpt><trkpt lat="45.3422846" lon="10.631445"><ele>132.0</ele><time>2026-03-28T10:35:45.822Z</time></trkpt><trkpt lat="45.3421888" lon="10.6315814"><ele>132.0</ele><time>2026-03-28T10:35:46.821Z</time></trkpt><trkpt lat="45.3421061" lon="10.6317474"><ele>130.5</ele><time>2026-03-28T10:35:47.82Z</time></trkpt><trkpt lat="45.3420349" lon="10.6319289"><ele>129.0</ele><time>2026-03-28T10:35:48.822Z</time></trkpt><trkpt lat="45.3419612" lon="10.6321128"><ele>127.5</ele><time>2026-03-28T10:35:49.82Z</time></trkpt><trkpt lat="45.3418809" lon="10.6322954"><ele>126.0</ele><time>2026-03-28T10:35:50.82Z</time></trkpt><trkpt lat="45.3417945" lon="10.6324738"><ele>126.0</ele><time>2026-03-28T10:35:51.82Z</time></trkpt><trkpt lat="45.3417011" lon="10.632647"><ele>126.0</ele><time>2026-03-28T10:35:52.82Z</time></trkpt><trkpt lat="45.3415987" lon="10.6328069"><ele>126.0</ele><time>2026-03-28T10:35:53.821Z</time></trkpt><trkpt lat="45.3414916" lon="10.6329571"><ele>125.6</ele><time>2026-03-28T10:35:54.82Z</time></trkpt><trkpt lat="45.3413942" lon="10.6330849"><ele>125.19999999999999</ele><time>2026-03-28T10:35:55.822Z</time></trkpt><trkpt lat="45.3413038" lon="10.6331783"><ele>124.80000000000001</ele><time>2026-03-28T10:35:56.82Z</time></trkpt><trkpt lat="45.3412126" lon="10.6332505"><ele>124.4</ele><time>2026-03-28T10:35:57.822Z</time></trkpt><trkpt lat="45.3411204" lon="10.633306"><ele>124.0</ele><time>2026-03-28T10:35:58.822Z</time></trkpt><trkpt lat="45.3410222" lon="10.6333647"><ele>124.0</ele><time>2026-03-28T10:35:59.82Z</time></trkpt><trkpt lat="45.3409109" lon="10.6334162"><ele>124.0</ele><time>2026-03-28T10:36:00.821Z</time></trkpt><trkpt lat="45.3407881" lon="10.6334683"><ele>124.0</ele><time>2026-03-28T10:36:01.821Z</time></trkpt><trkpt lat="45.3406686" lon="10.6335325"><ele>124.0</ele><time>2026-03-28T10:36:02.82Z</time></trkpt><trkpt lat="45.3405419" lon="10.6336084"><ele>123.66666666666667</ele><time>2026-03-28T10:36:03.821Z</time></trkpt><trkpt lat="45.340406" lon="10.6336779"><ele>123.33333333333334</ele><time>2026-03-28T10:36:04.82Z</time></trkpt><trkpt lat="45.340262" lon="10.6337356"><ele>123.0</ele><time>2026-03-28T10:36:05.821Z</time></trkpt><trkpt lat="45.3401098" lon="10.6337911"><ele>123.0</ele><time>2026-03-28T10:36:06.821Z</time></trkpt><trkpt lat="45.3399588" lon="10.6338507"><ele>123.0</ele><time>2026-03-28T10:36:07.821Z</time></trkpt><trkpt lat="45.3398053" lon="10.6339145"><ele>123.0</ele><time>2026-03-28T10:36:08.821Z</time></trkpt><trkpt lat="45.3396624" lon="10.6339731"><ele>122.0</ele><time>2026-03-28T10:36:09.822Z</time></trkpt><trkpt lat="45.3395256" lon="10.6340287"><ele>121.0</ele><time>2026-03-28T10:36:10.821Z</time></trkpt><trkpt lat="45.3394067" lon="10.6340828"><ele>120.0</ele><time>2026-03-28T10:36:11.821Z</time></trkpt><trkpt lat="45.3393029" lon="10.6341301"><ele>119.0</ele><time>2026-03-28T10:36:12.82Z</time></trkpt><trkpt lat="45.3392246" lon="10.6341657"><ele>118.99999999999999</ele><time>2026-03-28T10:36:13.82Z</time></trkpt><trkpt lat="45.3391586" lon="10.6341779"><ele>119.0</ele><time>2026-03-28T10:36:14.821Z</time></trkpt><trkpt lat="45.3390805" lon="10.6341068"><ele>119.0</ele><time>2026-03-28T10:36:16.821Z</time></trkpt><trkpt lat="45.3390478" lon="10.634025"><ele>119.0</ele><time>2026-03-28T10:36:17.821Z</time></trkpt><trkpt lat="45.3389649" lon="10.6339612"><ele>118.99999999999999</ele><time>2026-03-28T10:36:19.82Z</time></trkpt><trkpt lat="45.3388472" lon="10.6340294"><ele>119.0</ele><time>2026-03-28T10:36:21.821Z</time></trkpt><trkpt lat="45.3387665" lon="10.634089"><ele>117.75</ele><time>2026-03-28T10:36:22.82Z</time></trkpt><trkpt lat="45.3386689" lon="10.6341751"><ele>116.5</ele><time>2026-03-28T10:36:23.821Z</time></trkpt><trkpt lat="45.3385561" lon="10.6342696"><ele>115.25</ele><time>2026-03-28T10:36:24.82Z</time></trkpt><trkpt lat="45.3384336" lon="10.6343668"><ele>114.0</ele><time>2026-03-28T10:36:25.822Z</time></trkpt><trkpt lat="45.3383115" lon="10.6344704"><ele>113.33333333333334</ele><time>2026-03-28T10:36:26.82Z</time></trkpt><trkpt lat="45.3381838" lon="10.634595"><ele>112.66666666666667</ele><time>2026-03-28T10:36:27.821Z</time></trkpt><trkpt lat="45.338055" lon="10.6347134"><ele>112.0</ele><time>2026-03-28T10:36:28.82Z</time></trkpt><trkpt lat="45.337934" lon="10.6348314"><ele>112.0</ele><time>2026-03-28T10:36:29.821Z</time></trkpt><trkpt lat="45.3378161" lon="10.6349461"><ele>112.0</ele><time>2026-03-28T10:36:30.82Z</time></trkpt><trkpt lat="45.3377132" lon="10.6350485"><ele>112.0</ele><time>2026-03-28T10:36:31.821Z</time></trkpt><trkpt lat="45.3376268" lon="10.6351385"><ele>112.0</ele><time>2026-03-28T10:36:32.821Z</time></trkpt><trkpt lat="45.3375653" lon="10.6352098"><ele>112.0</ele><time>2026-03-28T10:36:33.82Z</time></trkpt><trkpt lat="45.3375152" lon="10.6352696"><ele>111.99999999999999</ele><time>2026-03-28T10:36:34.821Z</time></trkpt><trkpt lat="45.3374198" lon="10.6352781"><ele>111.99999999999999</ele><time>2026-03-28T10:36:36.82Z</time></trkpt><trkpt lat="45.3373198" lon="10.6351873"><ele>112.0</ele><time>2026-03-28T10:36:38.821Z</time></trkpt><trkpt lat="45.337254" lon="10.6350958"><ele>112.0</ele><time>2026-03-28T10:36:39.82Z</time></trkpt><trkpt lat="45.3371758" lon="10.6350102"><ele>110.25</ele><time>2026-03-28T10:36:40.819Z</time></trkpt><trkpt lat="45.337047" lon="10.6349111"><ele>108.5</ele><time>2026-03-28T10:36:41.82Z</time></trkpt><trkpt lat="45.3369375" lon="10.6348233"><ele>106.75</ele><time>2026-03-28T10:36:42.821Z</time></trkpt><trkpt lat="45.3368268" lon="10.6347406"><ele>105.0</ele><time>2026-03-28T10:36:43.82Z</time></trkpt><trkpt lat="45.3367388" lon="10.6346493"><ele>105.0</ele><time>2026-03-28T10:36:44.82Z</time></trkpt><trkpt lat="45.3366654" lon="10.6345428"><ele>105.0</ele><time>2026-03-28T10:36:45.819Z</time></trkpt><trkpt lat="45.3366236" lon="10.6344561"><ele>105.0</ele><time>2026-03-28T10:36:46.819Z</time></trkpt><trkpt lat="45.3365827" lon="10.6343776"><ele>105.0</ele><time>2026-03-28T10:36:47.819Z</time></trkpt><trkpt lat="45.3364519" lon="10.6343534"><ele>105.0</ele><time>2026-03-28T10:36:49.819Z</time></trkpt><trkpt lat="45.3363628" lon="10.6343888"><ele>104.6</ele><time>2026-03-28T10:36:50.819Z</time></trkpt><trkpt lat="45.3362544" lon="10.6344268"><ele>104.2</ele><time>2026-03-28T10:36:51.819Z</time></trkpt><trkpt lat="45.3361438" lon="10.6344773"><ele>103.80000000000001</ele><time>2026-03-28T10:36:52.819Z</time></trkpt><trkpt lat="45.3360536" lon="10.6345455"><ele>103.4</ele><time>2026-03-28T10:36:53.819Z</time></trkpt><trkpt lat="45.3359784" lon="10.6346307"><ele>103.0</ele><time>2026-03-28T10:36:54.82Z</time></trkpt><trkpt lat="45.3359228" lon="10.6347445"><ele>102.75</ele><time>2026-03-28T10:36:55.821Z</time></trkpt><trkpt lat="45.3358563" lon="10.6348898"><ele>102.5</ele><time>2026-03-28T10:36:56.82Z</time></trkpt><trkpt lat="45.3357766" lon="10.6350238"><ele>102.25</ele><time>2026-03-28T10:36:57.82Z</time></trkpt><trkpt lat="45.3356976" lon="10.6351869"><ele>102.0</ele><time>2026-03-28T10:36:58.82Z</time></trkpt><trkpt lat="45.3356195" lon="10.6353599"><ele>100.75</ele><time>2026-03-28T10:36:59.819Z</time></trkpt><trkpt lat="45.3355407" lon="10.6355387"><ele>99.5</ele><time>2026-03-28T10:37:00.82Z</time></trkpt><trkpt lat="45.3354716" lon="10.635696"><ele>98.25</ele><time>2026-03-28T10:37:01.82Z</time></trkpt><trkpt lat="45.3353985" lon="10.6358354"><ele>97.0</ele><time>2026-03-28T10:37:02.82Z</time></trkpt><trkpt lat="45.3353289" lon="10.6359472"><ele>97.0</ele><time>2026-03-28T10:37:03.82Z</time></trkpt><trkpt lat="45.3352332" lon="10.6360513"><ele>97.0</ele><time>2026-03-28T10:37:04.82Z</time></trkpt><trkpt lat="45.3351222" lon="10.6361573"><ele>97.0</ele><time>2026-03-28T10:37:05.819Z</time></trkpt><trkpt lat="45.3350067" lon="10.6362691"><ele>97.0</ele><time>2026-03-28T10:37:06.82Z</time></trkpt><trkpt lat="45.3348878" lon="10.6363833"><ele>97.0</ele><time>2026-03-28T10:37:07.82Z</time></trkpt><trkpt lat="45.334784" lon="10.6364825"><ele>97.0</ele><time>2026-03-28T10:37:08.82Z</time></trkpt><trkpt lat="45.3346869" lon="10.6365857"><ele>97.0</ele><time>2026-03-28T10:37:09.821Z</time></trkpt><trkpt lat="45.3346113" lon="10.6366973"><ele>97.0</ele><time>2026-03-28T10:37:10.819Z</time></trkpt><trkpt lat="45.334535" lon="10.6368124"><ele>97.0</ele><time>2026-03-28T10:37:11.821Z</time></trkpt><trkpt lat="45.334459" lon="10.6369479"><ele>97.0</ele><time>2026-03-28T10:37:12.82Z</time></trkpt><trkpt lat="45.3343778" lon="10.6370954"><ele>97.0</ele><time>2026-03-28T10:37:13.819Z</time></trkpt><trkpt lat="45.3343095" lon="10.6372179"><ele>97.0</ele><time>2026-03-28T10:37:14.82Z</time></trkpt><trkpt lat="45.3342477" lon="10.6373137"><ele>97.19999999999999</ele><time>2026-03-28T10:37:15.821Z</time></trkpt><trkpt lat="45.3341951" lon="10.6373784"><ele>97.4</ele><time>2026-03-28T10:37:16.821Z</time></trkpt><trkpt lat="45.3341197" lon="10.6374306"><ele>97.6</ele><time>2026-03-28T10:37:17.82Z</time></trkpt><trkpt lat="45.3340464" lon="10.6374915"><ele>97.80000000000001</ele><time>2026-03-28T10:37:18.82Z</time></trkpt><trkpt lat="45.3339275" lon="10.6375626"><ele>98.0</ele><time>2026-03-28T10:37:19.82Z</time></trkpt><trkpt lat="45.333812" lon="10.6376234"><ele>98.0</ele><time>2026-03-28T10:37:20.819Z</time></trkpt><trkpt lat="45.333679" lon="10.6376892"><ele>98.0</ele><time>2026-03-28T10:37:21.82Z</time></trkpt><trkpt lat="45.3335442" lon="10.6377555"><ele>98.0</ele><time>2026-03-28T10:37:22.821Z</time></trkpt><trkpt lat="45.3334155" lon="10.6378129"><ele>98.0</ele><time>2026-03-28T10:37:23.82Z</time></trkpt><trkpt lat="45.3333041" lon="10.637883"><ele>97.75</ele><time>2026-03-28T10:37:24.82Z</time></trkpt><trkpt lat="45.3331994" lon="10.6379595"><ele>97.5</ele><time>2026-03-28T10:37:25.82Z</time></trkpt><trkpt lat="45.3330964" lon="10.6380708"><ele>97.25</ele><time>2026-03-28T10:37:26.82Z</time></trkpt><trkpt lat="45.3330016" lon="10.6381823"><ele>97.0</ele><time>2026-03-28T10:37:27.821Z</time></trkpt><trkpt lat="45.3329146" lon="10.6382941"><ele>97.0</ele><time>2026-03-28T10:37:28.82Z</time></trkpt><trkpt lat="45.3328237" lon="10.6383766"><ele>97.0</ele><time>2026-03-28T10:37:29.82Z</time></trkpt><trkpt lat="45.3327323" lon="10.6384619"><ele>97.0</ele><time>2026-03-28T10:37:30.82Z</time></trkpt><trkpt lat="45.3326355" lon="10.6385519"><ele>97.0</ele><time>2026-03-28T10:37:31.82Z</time></trkpt><trkpt lat="45.3325192" lon="10.6386647"><ele>94.25</ele><time>2026-03-28T10:37:32.819Z</time></trkpt><trkpt lat="45.3324078" lon="10.6387576"><ele>91.5</ele><time>2026-03-28T10:37:33.819Z</time></trkpt><trkpt lat="45.3322888" lon="10.6388359"><ele>88.75</ele><time>2026-03-28T10:37:34.82Z</time></trkpt><trkpt lat="45.3321826" lon="10.6389156"><ele>86.0</ele><time>2026-03-28T10:37:35.819Z</time></trkpt><trkpt lat="45.3320873" lon="10.6390176"><ele>85.5</ele><time>2026-03-28T10:37:36.819Z</time></trkpt><trkpt lat="45.3320019" lon="10.6391423"><ele>85.0</ele><time>2026-03-28T10:37:37.821Z</time></trkpt><trkpt lat="45.3319141" lon="10.6392558"><ele>84.5</ele><time>2026-03-28T10:37:38.82Z</time></trkpt><trkpt lat="45.3318195" lon="10.6393534"><ele>84.0</ele><time>2026-03-28T10:37:39.82Z</time></trkpt><trkpt lat="45.3317354" lon="10.6394353"><ele>84.0</ele><time>2026-03-28T10:37:40.819Z</time></trkpt><trkpt lat="45.3316828" lon="10.6395175"><ele>84.0</ele><time>2026-03-28T10:37:41.82Z</time></trkpt><trkpt lat="45.3316436" lon="10.6396161"><ele>84.0</ele><time>2026-03-28T10:37:42.819Z</time></trkpt><trkpt lat="45.3316119" lon="10.6397459"><ele>84.0</ele><time>2026-03-28T10:37:44.82Z</time></trkpt><trkpt lat="45.3315718" lon="10.639852"><ele>84.0</ele><time>2026-03-28T10:37:47.82Z</time></trkpt><trkpt lat="45.3315033" lon="10.6398847"><ele>84.0</ele><time>2026-03-28T10:37:49.819Z</time></trkpt><trkpt lat="45.3314086" lon="10.6398732"><ele>84.6</ele><time>2026-03-28T10:37:51.82Z</time></trkpt><trkpt lat="45.3312812" lon="10.6398649"><ele>85.2</ele><time>2026-03-28T10:37:53.821Z</time></trkpt><trkpt lat="45.3312005" lon="10.6398696"><ele>85.8</ele><time>2026-03-28T10:37:54.821Z</time></trkpt><trkpt lat="45.3311173" lon="10.6398645"><ele>86.39999999999999</ele><time>2026-03-28T10:37:55.819Z</time></trkpt><trkpt lat="45.3310264" lon="10.6398562"><ele>87.0</ele><time>2026-03-28T10:37:56.82Z</time></trkpt><trkpt lat="45.3309263" lon="10.639857"><ele>87.0</ele><time>2026-03-28T10:37:57.821Z</time></trkpt><trkpt lat="45.330825" lon="10.6398615"><ele>87.0</ele><time>2026-03-28T10:37:58.82Z</time></trkpt><trkpt lat="45.3307202" lon="10.6398592"><ele>87.0</ele><time>2026-03-28T10:37:59.819Z</time></trkpt><trkpt lat="45.3306124" lon="10.6398444"><ele>87.0</ele><time>2026-03-28T10:38:00.819Z</time></trkpt><trkpt lat="45.3305037" lon="10.6398125"><ele>87.0</ele><time>2026-03-28T10:38:01.819Z</time></trkpt><trkpt lat="45.3303876" lon="10.6397676"><ele>87.0</ele><time>2026-03-28T10:38:02.82Z</time></trkpt><trkpt lat="45.3302668" lon="10.6397228"><ele>87.0</ele><time>2026-03-28T10:38:03.82Z</time></trkpt><trkpt lat="45.3301446" lon="10.6396822"><ele>87.0</ele><time>2026-03-28T10:38:04.82Z</time></trkpt><trkpt lat="45.3300378" lon="10.6396437"><ele>87.0</ele><time>2026-03-28T10:38:05.819Z</time></trkpt><trkpt lat="45.3299388" lon="10.6396077"><ele>87.0</ele><time>2026-03-28T10:38:06.819Z</time></trkpt><trkpt lat="45.329838" lon="10.6396107"><ele>87.0</ele><time>2026-03-28T10:38:07.821Z</time></trkpt><trkpt lat="45.3297491" lon="10.6396464"><ele>87.0</ele><time>2026-03-28T10:38:08.821Z</time></trkpt><trkpt lat="45.3296679" lon="10.6397137"><ele>87.0</ele><time>2026-03-28T10:38:09.82Z</time></trkpt><trkpt lat="45.3295958" lon="10.6398006"><ele>87.0</ele><time>2026-03-28T10:38:10.819Z</time></trkpt><trkpt lat="45.3295336" lon="10.6398759"><ele>86.39999999999999</ele><time>2026-03-28T10:38:11.821Z</time></trkpt><trkpt lat="45.3294602" lon="10.6399709"><ele>85.8</ele><time>2026-03-28T10:38:13.821Z</time></trkpt><trkpt lat="45.3294338" lon="10.6400597"><ele>85.2</ele><time>2026-03-28T10:38:15.82Z</time></trkpt><trkpt lat="45.3294337" lon="10.6402414"><ele>84.6</ele><time>2026-03-28T10:38:17.82Z</time></trkpt><trkpt lat="45.3294605" lon="10.6403463"><ele>84.0</ele><time>2026-03-28T10:38:18.82Z</time></trkpt><trkpt lat="45.32948" lon="10.6404594"><ele>84.0</ele><time>2026-03-28T10:38:19.819Z</time></trkpt><trkpt lat="45.3295042" lon="10.6405857"><ele>84.0</ele><time>2026-03-28T10:38:20.819Z</time></trkpt><trkpt lat="45.3295323" lon="10.6407191"><ele>84.0</ele><time>2026-03-28T10:38:21.821Z</time></trkpt><trkpt lat="45.329567" lon="10.6408571"><ele>84.0</ele><time>2026-03-28T10:38:22.821Z</time></trkpt><trkpt lat="45.3295975" lon="10.6410064"><ele>84.0</ele><time>2026-03-28T10:38:23.819Z</time></trkpt><trkpt lat="45.3296056" lon="10.641168"><ele>83.75</ele><time>2026-03-28T10:38:24.82Z</time></trkpt><trkpt lat="45.329583" lon="10.6413398"><ele>83.5</ele><time>2026-03-28T10:38:25.82Z</time></trkpt><trkpt lat="45.3295297" lon="10.6414984"><ele>83.25</ele><time>2026-03-28T10:38:26.82Z</time></trkpt><trkpt lat="45.3294549" lon="10.641639"><ele>83.0</ele><time>2026-03-28T10:38:27.819Z</time></trkpt><trkpt lat="45.3293732" lon="10.6417811"><ele>83.0</ele><time>2026-03-28T10:38:28.819Z</time></trkpt><trkpt lat="45.3292985" lon="10.641933"><ele>83.0</ele><time>2026-03-28T10:38:29.819Z</time></trkpt><trkpt lat="45.3292402" lon="10.6421046"><ele>83.0</ele><time>2026-03-28T10:38:30.82Z</time></trkpt><trkpt lat="45.3291941" lon="10.6422837"><ele>83.0</ele><time>2026-03-28T10:38:31.82Z</time></trkpt><trkpt lat="45.3291656" lon="10.6424663"><ele>82.75</ele><time>2026-03-28T10:38:32.819Z</time></trkpt><trkpt lat="45.3291454" lon="10.642658"><ele>82.5</ele><time>2026-03-28T10:38:33.821Z</time></trkpt><trkpt lat="45.3291284" lon="10.6428557"><ele>82.25</ele><time>2026-03-28T10:38:34.819Z</time></trkpt><trkpt lat="45.3291112" lon="10.6430547"><ele>82.0</ele><time>2026-03-28T10:38:35.821Z</time></trkpt><trkpt lat="45.3290963" lon="10.6432586"><ele>82.25</ele><time>2026-03-28T10:38:36.82Z</time></trkpt><trkpt lat="45.3290838" lon="10.6434671"><ele>82.5</ele><time>2026-03-28T10:38:37.821Z</time></trkpt><trkpt lat="45.3290711" lon="10.6436752"><ele>82.75</ele><time>2026-03-28T10:38:38.821Z</time></trkpt><trkpt lat="45.3290602" lon="10.6438895"><ele>83.0</ele><time>2026-03-28T10:38:39.819Z</time></trkpt><trkpt lat="45.329049" lon="10.6441055"><ele>83.0</ele><time>2026-03-28T10:38:40.82Z</time></trkpt><trkpt lat="45.3290392" lon="10.6443199"><ele>83.0</ele><time>2026-03-28T10:38:41.82Z</time></trkpt><trkpt lat="45.3290318" lon="10.644538"><ele>83.0</ele><time>2026-03-28T10:38:42.82Z</time></trkpt><trkpt lat="45.3290234" lon="10.6447542"><ele>83.66666666666667</ele><time>2026-03-28T10:38:43.82Z</time></trkpt><trkpt lat="45.3290186" lon="10.6449747"><ele>84.33333333333333</ele><time>2026-03-28T10:38:44.82Z</time></trkpt><trkpt lat="45.3290126" lon="10.6451951"><ele>85.0</ele><time>2026-03-28T10:38:45.82Z</time></trkpt><trkpt lat="45.3290047" lon="10.6454113"><ele>85.5</ele><time>2026-03-28T10:38:46.821Z</time></trkpt><trkpt lat="45.3289929" lon="10.645622"><ele>86.0</ele><time>2026-03-28T10:38:47.821Z</time></trkpt><trkpt lat="45.328975" lon="10.6458077"><ele>86.5</ele><time>2026-03-28T10:38:48.82Z</time></trkpt><trkpt lat="45.3289508" lon="10.6459499"><ele>87.0</ele><time>2026-03-28T10:38:49.819Z</time></trkpt><trkpt lat="45.3289248" lon="10.6460492"><ele>87.5</ele><time>2026-03-28T10:38:50.821Z</time></trkpt><trkpt lat="45.3288724" lon="10.6461996"><ele>88.0</ele><time>2026-03-28T10:38:52.82Z</time></trkpt><trkpt lat="45.328834" lon="10.6462981"><ele>88.5</ele><time>2026-03-28T10:38:53.82Z</time></trkpt><trkpt lat="45.3288024" lon="10.6464034"><ele>89.0</ele><time>2026-03-28T10:38:54.821Z</time></trkpt><trkpt lat="45.3287714" lon="10.6465154"><ele>89.5</ele><time>2026-03-28T10:38:55.819Z</time></trkpt><trkpt lat="45.3287328" lon="10.6466221"><ele>90.0</ele><time>2026-03-28T10:38:56.82Z</time></trkpt><trkpt lat="45.3286974" lon="10.6467258"><ele>90.0</ele><time>2026-03-28T10:38:57.82Z</time></trkpt><trkpt lat="45.3286586" lon="10.6468255"><ele>90.0</ele><time>2026-03-28T10:38:58.82Z</time></trkpt><trkpt lat="45.3286216" lon="10.6469239"><ele>90.0</ele><time>2026-03-28T10:38:59.819Z</time></trkpt><trkpt lat="45.3285901" lon="10.6470272"><ele>90.0</ele><time>2026-03-28T10:39:00.819Z</time></trkpt><trkpt lat="45.328538" lon="10.6471184"><ele>90.0</ele><time>2026-03-28T10:39:01.82Z</time></trkpt><trkpt lat="45.3284747" lon="10.6471978"><ele>90.0</ele><time>2026-03-28T10:39:02.82Z</time></trkpt><trkpt lat="45.3284083" lon="10.6472719"><ele>89.8</ele><time>2026-03-28T10:39:03.82Z</time></trkpt><trkpt lat="45.3283362" lon="10.6473464"><ele>89.6</ele><time>2026-03-28T10:39:04.82Z</time></trkpt><trkpt lat="45.3282662" lon="10.6474271"><ele>89.4</ele><time>2026-03-28T10:39:05.819Z</time></trkpt><trkpt lat="45.3281964" lon="10.6475238"><ele>89.2</ele><time>2026-03-28T10:39:06.819Z</time></trkpt><trkpt lat="45.3281268" lon="10.6476301"><ele>89.0</ele><time>2026-03-28T10:39:07.82Z</time></trkpt><trkpt lat="45.3280563" lon="10.6477532"><ele>92.75</ele><time>2026-03-28T10:39:08.819Z</time></trkpt><trkpt lat="45.3279818" lon="10.6478889"><ele>96.5</ele><time>2026-03-28T10:39:09.82Z</time></trkpt><trkpt lat="45.3279075" lon="10.6480282"><ele>100.25</ele><time>2026-03-28T10:39:10.82Z</time></trkpt><trkpt lat="45.3278314" lon="10.6481729"><ele>104.0</ele><time>2026-03-28T10:39:11.82Z</time></trkpt><trkpt lat="45.3277522" lon="10.6483217"><ele>104.0</ele><time>2026-03-28T10:39:12.819Z</time></trkpt><trkpt lat="45.3276767" lon="10.6484759"><ele>104.0</ele><time>2026-03-28T10:39:13.819Z</time></trkpt><trkpt lat="45.327602" lon="10.6486333"><ele>104.0</ele><time>2026-03-28T10:39:14.82Z</time></trkpt><trkpt lat="45.3275276" lon="10.6487985"><ele>104.0</ele><time>2026-03-28T10:39:15.82Z</time></trkpt><trkpt lat="45.3274555" lon="10.6489683"><ele>103.0</ele><time>2026-03-28T10:39:16.819Z</time></trkpt><trkpt lat="45.3273824" lon="10.6491452"><ele>102.0</ele><time>2026-03-28T10:39:17.82Z</time></trkpt><trkpt lat="45.3273102" lon="10.6493199"><ele>101.0</ele><time>2026-03-28T10:39:18.821Z</time></trkpt><trkpt lat="45.3272368" lon="10.6494964"><ele>100.0</ele><time>2026-03-28T10:39:19.82Z</time></trkpt><trkpt lat="45.3271616" lon="10.6496797"><ele>101.0</ele><time>2026-03-28T10:39:20.819Z</time></trkpt><trkpt lat="45.3270875" lon="10.6498593"><ele>102.0</ele><time>2026-03-28T10:39:21.819Z</time></trkpt><trkpt lat="45.3270141" lon="10.6500397"><ele>103.0</ele><time>2026-03-28T10:39:22.819Z</time></trkpt><trkpt lat="45.3269396" lon="10.6502182"><ele>104.0</ele><time>2026-03-28T10:39:23.82Z</time></trkpt><trkpt lat="45.3268669" lon="10.6503963"><ele>104.0</ele><time>2026-03-28T10:39:24.82Z</time></trkpt><trkpt lat="45.3267907" lon="10.6505669"><ele>104.0</ele><time>2026-03-28T10:39:25.821Z</time></trkpt><trkpt lat="45.3267101" lon="10.6507404"><ele>104.0</ele><time>2026-03-28T10:39:26.82Z</time></trkpt><trkpt lat="45.3266204" lon="10.6508981"><ele>104.0</ele><time>2026-03-28T10:39:27.82Z</time></trkpt><trkpt lat="45.3265182" lon="10.6510384"><ele>103.5</ele><time>2026-03-28T10:39:28.82Z</time></trkpt><trkpt lat="45.3264088" lon="10.6511599"><ele>103.0</ele><time>2026-03-28T10:39:29.82Z</time></trkpt><trkpt lat="45.326299" lon="10.6512802"><ele>102.5</ele><time>2026-03-28T10:39:30.82Z</time></trkpt><trkpt lat="45.32619" lon="10.651401"><ele>102.0</ele><time>2026-03-28T10:39:31.82Z</time></trkpt><trkpt lat="45.3260781" lon="10.6515281"><ele>103.75</ele><time>2026-03-28T10:39:32.819Z</time></trkpt><trkpt lat="45.3259711" lon="10.6516581"><ele>105.5</ele><time>2026-03-28T10:39:33.819Z</time></trkpt><trkpt lat="45.3258686" lon="10.6517894"><ele>107.25</ele><time>2026-03-28T10:39:34.82Z</time></trkpt><trkpt lat="45.3257635" lon="10.6519273"><ele>109.0</ele><time>2026-03-28T10:39:35.82Z</time></trkpt><trkpt lat="45.3256571" lon="10.65206"><ele>113.0</ele><time>2026-03-28T10:39:36.819Z</time></trkpt><trkpt lat="45.3255525" lon="10.6522002"><ele>117.0</ele><time>2026-03-28T10:39:37.82Z</time></trkpt><trkpt lat="45.3254558" lon="10.6523525"><ele>121.0</ele><time>2026-03-28T10:39:38.819Z</time></trkpt><trkpt lat="45.325375" lon="10.6525131"><ele>125.0</ele><time>2026-03-28T10:39:39.82Z</time></trkpt><trkpt lat="45.3253035" lon="10.6526785"><ele>124.25</ele><time>2026-03-28T10:39:40.819Z</time></trkpt><trkpt lat="45.3252416" lon="10.6528589"><ele>123.5</ele><time>2026-03-28T10:39:41.82Z</time></trkpt><trkpt lat="45.3251761" lon="10.6530204"><ele>122.75</ele><time>2026-03-28T10:39:42.819Z</time></trkpt><trkpt lat="45.3251111" lon="10.6531716"><ele>122.0</ele><time>2026-03-28T10:39:43.82Z</time></trkpt><trkpt lat="45.3250356" lon="10.6533099"><ele>122.0</ele><time>2026-03-28T10:39:44.82Z</time></trkpt><trkpt lat="45.3249569" lon="10.653437"><ele>121.99999999999999</ele><time>2026-03-28T10:39:45.821Z</time></trkpt><trkpt lat="45.3248727" lon="10.6535537"><ele>121.99999999999999</ele><time>2026-03-28T10:39:46.82Z</time></trkpt><trkpt lat="45.3247852" lon="10.6536555"><ele>122.0</ele><time>2026-03-28T10:39:47.82Z</time></trkpt><trkpt lat="45.3247129" lon="10.6537484"><ele>122.0</ele><time>2026-03-28T10:39:48.82Z</time></trkpt><trkpt lat="45.3246574" lon="10.6538306"><ele>122.19999999999999</ele><time>2026-03-28T10:39:49.819Z</time></trkpt><trkpt lat="45.3245932" lon="10.6539167"><ele>122.39999999999999</ele><time>2026-03-28T10:39:51.819Z</time></trkpt><trkpt lat="45.3246446" lon="10.6540128"><ele>122.60000000000001</ele><time>2026-03-28T10:39:54.819Z</time></trkpt><trkpt lat="45.3247789" lon="10.654007"><ele>122.80000000000001</ele><time>2026-03-28T10:39:56.821Z</time></trkpt><trkpt lat="45.3248641" lon="10.6540396"><ele>123.0</ele><time>2026-03-28T10:39:57.82Z</time></trkpt><trkpt lat="45.324959" lon="10.6540762"><ele>123.0</ele><time>2026-03-28T10:39:58.82Z</time></trkpt><trkpt lat="45.325057" lon="10.654171"><ele>123.0</ele><time>2026-03-28T10:39:59.82Z</time></trkpt><trkpt lat="45.325149" lon="10.654299"><ele>123.0</ele><time>2026-03-28T10:40:00.82Z</time></trkpt><trkpt lat="45.3252526" lon="10.6544153"><ele>123.0</ele><time>2026-03-28T10:40:01.819Z</time></trkpt><trkpt lat="45.3253516" lon="10.6545689"><ele>123.25</ele><time>2026-03-28T10:40:02.819Z</time></trkpt><trkpt lat="45.3254151" lon="10.6547469"><ele>123.5</ele><time>2026-03-28T10:40:03.821Z</time></trkpt><trkpt lat="45.3254333" lon="10.654934"><ele>123.75</ele><time>2026-03-28T10:40:04.819Z</time></trkpt><trkpt lat="45.325415" lon="10.6551294"><ele>124.0</ele><time>2026-03-28T10:40:05.82Z</time></trkpt><trkpt lat="45.3253724" lon="10.6553241"><ele>122.66666666666667</ele><time>2026-03-28T10:40:06.82Z</time></trkpt><trkpt lat="45.3253223" lon="10.6555263"><ele>121.33333333333334</ele><time>2026-03-28T10:40:07.819Z</time></trkpt><trkpt lat="45.3252738" lon="10.6557294"><ele>120.0</ele><time>2026-03-28T10:40:08.82Z</time></trkpt><trkpt lat="45.325229" lon="10.6559369"><ele>117.25</ele><time>2026-03-28T10:40:09.82Z</time></trkpt><trkpt lat="45.3251833" lon="10.6561336"><ele>114.5</ele><time>2026-03-28T10:40:10.819Z</time></trkpt><trkpt lat="45.3251382" lon="10.6563159"><ele>111.75</ele><time>2026-03-28T10:40:11.82Z</time></trkpt><trkpt lat="45.3250963" lon="10.6564877"><ele>109.0</ele><time>2026-03-28T10:40:12.82Z</time></trkpt><trkpt lat="45.3250733" lon="10.6566668"><ele>109.0</ele><time>2026-03-28T10:40:13.82Z</time></trkpt><trkpt lat="45.3250805" lon="10.6568511"><ele>109.0</ele><time>2026-03-28T10:40:14.819Z</time></trkpt><trkpt lat="45.3251117" lon="10.657038"><ele>109.0</ele><time>2026-03-28T10:40:15.82Z</time></trkpt><trkpt lat="45.325147" lon="10.6572226"><ele>109.0</ele><time>2026-03-28T10:40:16.82Z</time></trkpt><trkpt lat="45.3251789" lon="10.6574081"><ele>108.25</ele><time>2026-03-28T10:40:17.82Z</time></trkpt><trkpt lat="45.3252151" lon="10.6575943"><ele>107.5</ele><time>2026-03-28T10:40:18.819Z</time></trkpt><trkpt lat="45.3252502" lon="10.6577745"><ele>106.75</ele><time>2026-03-28T10:40:19.82Z</time></trkpt><trkpt lat="45.3252774" lon="10.6579472"><ele>106.0</ele><time>2026-03-28T10:40:20.82Z</time></trkpt><trkpt lat="45.3253022" lon="10.6581028"><ele>106.0</ele><time>2026-03-28T10:40:21.821Z</time></trkpt><trkpt lat="45.3253206" lon="10.6582422"><ele>106.0</ele><time>2026-03-28T10:40:22.821Z</time></trkpt><trkpt lat="45.3253342" lon="10.6583458"><ele>106.0</ele><time>2026-03-28T10:40:23.821Z</time></trkpt><trkpt lat="45.3253615" lon="10.6584682"><ele>106.0</ele><time>2026-03-28T10:40:25.819Z</time></trkpt><trkpt lat="45.3254244" lon="10.6585398"><ele>106.0</ele><time>2026-03-28T10:40:28.821Z</time></trkpt><trkpt lat="45.3255357" lon="10.6585027"><ele>105.4</ele><time>2026-03-28T10:40:30.819Z</time></trkpt><trkpt lat="45.325617" lon="10.6584725"><ele>104.8</ele><time>2026-03-28T10:40:31.821Z</time></trkpt><trkpt lat="45.3257055" lon="10.6584445"><ele>104.2</ele><time>2026-03-28T10:40:32.819Z</time></trkpt><trkpt lat="45.3258035" lon="10.6584051"><ele>103.60000000000001</ele><time>2026-03-28T10:40:33.819Z</time></trkpt><trkpt lat="45.3259136" lon="10.6583713"><ele>103.0</ele><time>2026-03-28T10:40:34.819Z</time></trkpt><trkpt lat="45.3260239" lon="10.6583369"><ele>103.0</ele><time>2026-03-28T10:40:35.82Z</time></trkpt><trkpt lat="45.3261436" lon="10.6583052"><ele>103.0</ele><time>2026-03-28T10:40:36.819Z</time></trkpt><trkpt lat="45.3262611" lon="10.6582735"><ele>103.0</ele><time>2026-03-28T10:40:37.821Z</time></trkpt><trkpt lat="45.3263751" lon="10.6582435"><ele>103.0</ele><time>2026-03-28T10:40:38.82Z</time></trkpt><trkpt lat="45.3264734" lon="10.658215"><ele>102.66666666666667</ele><time>2026-03-28T10:40:39.82Z</time></trkpt><trkpt lat="45.3265607" lon="10.6581955"><ele>102.33333333333334</ele><time>2026-03-28T10:40:40.82Z</time></trkpt><trkpt lat="45.326636" lon="10.658201"><ele>102.0</ele><time>2026-03-28T10:40:41.82Z</time></trkpt><trkpt lat="45.326697" lon="10.6582566"><ele>101.66666666666666</ele><time>2026-03-28T10:40:42.82Z</time></trkpt><trkpt lat="45.3267512" lon="10.6583457"><ele>101.33333333333333</ele><time>2026-03-28T10:40:43.82Z</time></trkpt><trkpt lat="45.326787" lon="10.6584663"><ele>101.0</ele><time>2026-03-28T10:40:44.821Z</time></trkpt><trkpt lat="45.3268029" lon="10.6586158"><ele>100.0</ele><time>2026-03-28T10:40:45.82Z</time></trkpt><trkpt lat="45.3268054" lon="10.6587825"><ele>99.0</ele><time>2026-03-28T10:40:46.819Z</time></trkpt><trkpt lat="45.3268006" lon="10.6589495"><ele>98.0</ele><time>2026-03-28T10:40:47.819Z</time></trkpt><trkpt lat="45.3267829" lon="10.6591252"><ele>97.0</ele><time>2026-03-28T10:40:48.82Z</time></trkpt><trkpt lat="45.3267579" lon="10.6592929"><ele>96.66666666666667</ele><time>2026-03-28T10:40:49.819Z</time></trkpt><trkpt lat="45.3267352" lon="10.6594518"><ele>96.33333333333334</ele><time>2026-03-28T10:40:50.821Z</time></trkpt><trkpt lat="45.3267114" lon="10.6595838"><ele>96.0</ele><time>2026-03-28T10:40:51.819Z</time></trkpt><trkpt lat="45.3266717" lon="10.6596889"><ele>95.66666666666667</ele><time>2026-03-28T10:40:52.82Z</time></trkpt><trkpt lat="45.326636" lon="10.6597873"><ele>95.33333333333334</ele><time>2026-03-28T10:40:53.82Z</time></trkpt><trkpt lat="45.3266358" lon="10.6598889"><ele>95.0</ele><time>2026-03-28T10:40:54.82Z</time></trkpt><trkpt lat="45.3266641" lon="10.6599975"><ele>95.0</ele><time>2026-03-28T10:40:55.82Z</time></trkpt><trkpt lat="45.3266989" lon="10.6601272"><ele>95.0</ele><time>2026-03-28T10:40:56.819Z</time></trkpt><trkpt lat="45.3267236" lon="10.6602839"><ele>95.0</ele><time>2026-03-28T10:40:57.82Z</time></trkpt><trkpt lat="45.3267508" lon="10.6604542"><ele>95.0</ele><time>2026-03-28T10:40:58.82Z</time></trkpt><trkpt lat="45.3267795" lon="10.6606404"><ele>94.25</ele><time>2026-03-28T10:40:59.82Z</time></trkpt><trkpt lat="45.3268089" lon="10.6608304"><ele>93.5</ele><time>2026-03-28T10:41:00.82Z</time></trkpt><trkpt lat="45.3268366" lon="10.661031"><ele>92.75</ele><time>2026-03-28T10:41:01.819Z</time></trkpt><trkpt lat="45.3268573" lon="10.6612365"><ele>92.0</ele><time>2026-03-28T10:41:02.82Z</time></trkpt><trkpt lat="45.3268653" lon="10.6614401"><ele>91.25</ele><time>2026-03-28T10:41:03.821Z</time></trkpt><trkpt lat="45.3268659" lon="10.6616452"><ele>90.5</ele><time>2026-03-28T10:41:04.821Z</time></trkpt><trkpt lat="45.3268552" lon="10.6618356"><ele>89.75</ele><time>2026-03-28T10:41:05.819Z</time></trkpt><trkpt lat="45.3268379" lon="10.6620214"><ele>89.0</ele><time>2026-03-28T10:41:06.819Z</time></trkpt><trkpt lat="45.3268199" lon="10.6621885"><ele>89.0</ele><time>2026-03-28T10:41:07.821Z</time></trkpt><trkpt lat="45.3268039" lon="10.6623294"><ele>89.0</ele><time>2026-03-28T10:41:08.819Z</time></trkpt><trkpt lat="45.3267772" lon="10.662449"><ele>89.0</ele><time>2026-03-28T10:41:09.819Z</time></trkpt><trkpt lat="45.3267444" lon="10.6625498"><ele>89.0</ele><time>2026-03-28T10:41:10.819Z</time></trkpt><trkpt lat="45.326739" lon="10.6626527"><ele>89.0</ele><time>2026-03-28T10:41:11.82Z</time></trkpt><trkpt lat="45.3267738" lon="10.6627424"><ele>89.0</ele><time>2026-03-28T10:41:12.819Z</time></trkpt><trkpt lat="45.3268462" lon="10.6628216"><ele>89.0</ele><time>2026-03-28T10:41:13.821Z</time></trkpt><trkpt lat="45.3269318" lon="10.66291"><ele>89.0</ele><time>2026-03-28T10:41:14.821Z</time></trkpt><trkpt lat="45.3270278" lon="10.6630016"><ele>89.0</ele><time>2026-03-28T10:41:15.82Z</time></trkpt><trkpt lat="45.327128" lon="10.6630877"><ele>89.0</ele><time>2026-03-28T10:41:16.819Z</time></trkpt><trkpt lat="45.3272403" lon="10.6631712"><ele>89.0</ele><time>2026-03-28T10:41:17.819Z</time></trkpt><trkpt lat="45.3273603" lon="10.6632672"><ele>89.0</ele><time>2026-03-28T10:41:18.82Z</time></trkpt><trkpt lat="45.327481" lon="10.6633726"><ele>89.0</ele><time>2026-03-28T10:41:19.82Z</time></trkpt><trkpt lat="45.3276017" lon="10.6634835"><ele>89.0</ele><time>2026-03-28T10:41:20.82Z</time></trkpt><trkpt lat="45.3277279" lon="10.6635928"><ele>88.33333333333334</ele><time>2026-03-28T10:41:21.819Z</time></trkpt><trkpt lat="45.3278604" lon="10.6636965"><ele>87.66666666666667</ele><time>2026-03-28T10:41:22.82Z</time></trkpt><trkpt lat="45.3279943" lon="10.6638047"><ele>87.0</ele><time>2026-03-28T10:41:23.82Z</time></trkpt><trkpt lat="45.3281281" lon="10.6639133"><ele>86.66666666666667</ele><time>2026-03-28T10:41:24.821Z</time></trkpt><trkpt lat="45.3282672" lon="10.6640145"><ele>86.33333333333334</ele><time>2026-03-28T10:41:25.819Z</time></trkpt><trkpt lat="45.328413" lon="10.664106"><ele>86.0</ele><time>2026-03-28T10:41:26.819Z</time></trkpt><trkpt lat="45.328562" lon="10.6641874"><ele>86.0</ele><time>2026-03-28T10:41:27.821Z</time></trkpt><trkpt lat="45.3287111" lon="10.664264"><ele>86.0</ele><time>2026-03-28T10:41:28.819Z</time></trkpt><trkpt lat="45.3288611" lon="10.6643387"><ele>86.0</ele><time>2026-03-28T10:41:29.819Z</time></trkpt><trkpt lat="45.32901" lon="10.6644144"><ele>87.33333333333334</ele><time>2026-03-28T10:41:30.819Z</time></trkpt><trkpt lat="45.3291563" lon="10.6644996"><ele>88.66666666666667</ele><time>2026-03-28T10:41:31.819Z</time></trkpt><trkpt lat="45.3292954" lon="10.6646072"><ele>90.0</ele><time>2026-03-28T10:41:32.819Z</time></trkpt><trkpt lat="45.3294198" lon="10.664747"><ele>90.0</ele><time>2026-03-28T10:41:33.821Z</time></trkpt><trkpt lat="45.3295295" lon="10.6649083"><ele>90.0</ele><time>2026-03-28T10:41:34.82Z</time></trkpt><trkpt lat="45.3296344" lon="10.6650769"><ele>90.0</ele><time>2026-03-28T10:41:35.82Z</time></trkpt><trkpt lat="45.3297372" lon="10.6652477"><ele>90.33333333333333</ele><time>2026-03-28T10:41:36.819Z</time></trkpt><trkpt lat="45.3298379" lon="10.6654202"><ele>90.66666666666666</ele><time>2026-03-28T10:41:37.819Z</time></trkpt><trkpt lat="45.32994" lon="10.665595"><ele>91.0</ele><time>2026-03-28T10:41:38.82Z</time></trkpt><trkpt lat="45.3300406" lon="10.6657732"><ele>91.0</ele><time>2026-03-28T10:41:39.821Z</time></trkpt><trkpt lat="45.3301379" lon="10.6659587"><ele>91.0</ele><time>2026-03-28T10:41:40.821Z</time></trkpt><trkpt lat="45.3302281" lon="10.6661553"><ele>91.0</ele><time>2026-03-28T10:41:41.82Z</time></trkpt><trkpt lat="45.3303139" lon="10.6663586"><ele>91.0</ele><time>2026-03-28T10:41:42.819Z</time></trkpt><trkpt lat="45.330396" lon="10.66657"><ele>91.0</ele><time>2026-03-28T10:41:43.819Z</time></trkpt><trkpt lat="45.3304745" lon="10.6667848"><ele>91.0</ele><time>2026-03-28T10:41:44.819Z</time></trkpt><trkpt lat="45.3305485" lon="10.6670015"><ele>91.0</ele><time>2026-03-28T10:41:45.82Z</time></trkpt><trkpt lat="45.330622" lon="10.6672146"><ele>91.0</ele><time>2026-03-28T10:41:46.82Z</time></trkpt><trkpt lat="45.3306959" lon="10.6674294"><ele>91.0</ele><time>2026-03-28T10:41:47.821Z</time></trkpt><trkpt lat="45.3307669" lon="10.6676444"><ele>91.33333333333333</ele><time>2026-03-28T10:41:48.821Z</time></trkpt><trkpt lat="45.3308386" lon="10.6678595"><ele>91.66666666666667</ele><time>2026-03-28T10:41:49.82Z</time></trkpt><trkpt lat="45.3309108" lon="10.6680747"><ele>92.0</ele><time>2026-03-28T10:41:50.82Z</time></trkpt><trkpt lat="45.3309845" lon="10.6682858"><ele>92.0</ele><time>2026-03-28T10:41:51.82Z</time></trkpt><trkpt lat="45.3310647" lon="10.6684903"><ele>92.0</ele><time>2026-03-28T10:41:52.821Z</time></trkpt><trkpt lat="45.331153" lon="10.6686888"><ele>92.0</ele><time>2026-03-28T10:41:53.819Z</time></trkpt><trkpt lat="45.3312568" lon="10.6688811"><ele>92.33333333333334</ele><time>2026-03-28T10:41:54.82Z</time></trkpt><trkpt lat="45.3313741" lon="10.6690583"><ele>92.66666666666667</ele><time>2026-03-28T10:41:55.82Z</time></trkpt><trkpt lat="45.3315077" lon="10.6692133"><ele>93.0</ele><time>2026-03-28T10:41:56.819Z</time></trkpt><trkpt lat="45.3316509" lon="10.6693387"><ele>92.0</ele><time>2026-03-28T10:41:57.821Z</time></trkpt><trkpt lat="45.3317974" lon="10.6694414"><ele>91.0</ele><time>2026-03-28T10:41:58.819Z</time></trkpt><trkpt lat="45.3319485" lon="10.6695303"><ele>90.0</ele><time>2026-03-28T10:41:59.819Z</time></trkpt><trkpt lat="45.3321041" lon="10.6696204"><ele>89.0</ele><time>2026-03-28T10:42:00.82Z</time></trkpt><trkpt lat="45.3322593" lon="10.6697076"><ele>88.0</ele><time>2026-03-28T10:42:01.82Z</time></trkpt><trkpt lat="45.3324176" lon="10.6697921"><ele>87.0</ele><time>2026-03-28T10:42:02.82Z</time></trkpt><trkpt lat="45.3325785" lon="10.6698749"><ele>87.0</ele><time>2026-03-28T10:42:03.821Z</time></trkpt><trkpt lat="45.3327397" lon="10.6699544"><ele>87.0</ele><time>2026-03-28T10:42:04.82Z</time></trkpt><trkpt lat="45.3329019" lon="10.6700344"><ele>87.0</ele><time>2026-03-28T10:42:05.821Z</time></trkpt><trkpt lat="45.3330611" lon="10.6701146"><ele>87.0</ele><time>2026-03-28T10:42:06.82Z</time></trkpt><trkpt lat="45.3332187" lon="10.670204"><ele>87.0</ele><time>2026-03-28T10:42:07.819Z</time></trkpt><trkpt lat="45.3333684" lon="10.670309"><ele>87.0</ele><time>2026-03-28T10:42:08.82Z</time></trkpt><trkpt lat="45.3335104" lon="10.6704333"><ele>86.33333333333333</ele><time>2026-03-28T10:42:09.82Z</time></trkpt><trkpt lat="45.3336474" lon="10.6705734"><ele>85.66666666666666</ele><time>2026-03-28T10:42:10.82Z</time></trkpt><trkpt lat="45.3337859" lon="10.6707231"><ele>85.0</ele><time>2026-03-28T10:42:11.821Z</time></trkpt><trkpt lat="45.3339203" lon="10.6708771"><ele>84.25</ele><time>2026-03-28T10:42:12.82Z</time></trkpt><trkpt lat="45.3340438" lon="10.6710314"><ele>83.5</ele><time>2026-03-28T10:42:13.821Z</time></trkpt><trkpt lat="45.3341549" lon="10.6711715"><ele>82.75</ele><time>2026-03-28T10:42:14.82Z</time></trkpt><trkpt lat="45.3342598" lon="10.6712948"><ele>82.0</ele><time>2026-03-28T10:42:15.82Z</time></trkpt><trkpt lat="45.3343581" lon="10.6714072"><ele>82.0</ele><time>2026-03-28T10:42:16.821Z</time></trkpt><trkpt lat="45.3344506" lon="10.6714895"><ele>82.0</ele><time>2026-03-28T10:42:17.819Z</time></trkpt><trkpt lat="45.3345418" lon="10.6715475"><ele>82.0</ele><time>2026-03-28T10:42:18.819Z</time></trkpt><trkpt lat="45.3346262" lon="10.6715957"><ele>82.0</ele><time>2026-03-28T10:42:19.82Z</time></trkpt><trkpt lat="45.3346977" lon="10.6716307"><ele>82.0</ele><time>2026-03-28T10:42:20.82Z</time></trkpt><trkpt lat="45.3347813" lon="10.6717042"><ele>82.0</ele><time>2026-03-28T10:42:22.82Z</time></trkpt><trkpt lat="45.3347705" lon="10.6716039"><ele>82.0</ele><time>2026-03-28T10:42:27.819Z</time></trkpt><trkpt lat="45.3346902" lon="10.6715853"><ele>82.0</ele><time>2026-03-28T10:42:28.819Z</time></trkpt><trkpt lat="45.3345938" lon="10.6715595"><ele>82.0</ele><time>2026-03-28T10:42:29.82Z</time></trkpt><trkpt lat="45.3344831" lon="10.6715007"><ele>82.0</ele><time>2026-03-28T10:42:30.821Z</time></trkpt><trkpt lat="45.3343674" lon="10.6714137"><ele>82.0</ele><time>2026-03-28T10:42:31.821Z</time></trkpt><trkpt lat="45.334274" lon="10.6713118"><ele>82.0</ele><time>2026-03-28T10:42:32.819Z</time></trkpt><trkpt lat="45.3342011" lon="10.6712065"><ele>82.0</ele><time>2026-03-28T10:42:33.821Z</time></trkpt><trkpt lat="45.3341395" lon="10.6711207"><ele>82.0</ele><time>2026-03-28T10:42:34.82Z</time></trkpt><trkpt lat="45.3340785" lon="10.6710507"><ele>82.0</ele><time>2026-03-28T10:42:35.821Z</time></trkpt><trkpt lat="45.3339772" lon="10.6710116"><ele>82.25</ele><time>2026-03-28T10:42:37.821Z</time></trkpt><trkpt lat="45.3338738" lon="10.6711789"><ele>82.5</ele><time>2026-03-28T10:42:39.82Z</time></trkpt><trkpt lat="45.3338024" lon="10.6713545"><ele>82.75</ele><time>2026-03-28T10:42:40.821Z</time></trkpt><trkpt lat="45.3337251" lon="10.6715297"><ele>83.0</ele><time>2026-03-28T10:42:41.821Z</time></trkpt><trkpt lat="45.3336518" lon="10.6716927"><ele>83.0</ele><time>2026-03-28T10:42:42.82Z</time></trkpt><trkpt lat="45.3335672" lon="10.6718687"><ele>83.0</ele><time>2026-03-28T10:42:43.821Z</time></trkpt><trkpt lat="45.3334736" lon="10.672035"><ele>83.0</ele><time>2026-03-28T10:42:44.819Z</time></trkpt><trkpt lat="45.3333902" lon="10.6721804"><ele>83.0</ele><time>2026-03-28T10:42:45.819Z</time></trkpt><trkpt lat="45.3333294" lon="10.6723115"><ele>82.4</ele><time>2026-03-28T10:42:46.82Z</time></trkpt><trkpt lat="45.3332928" lon="10.6724316"><ele>81.80000000000001</ele><time>2026-03-28T10:42:47.821Z</time></trkpt><trkpt lat="45.3332769" lon="10.6725708"><ele>81.2</ele><time>2026-03-28T10:42:48.82Z</time></trkpt><trkpt lat="45.3332752" lon="10.6727171"><ele>80.6</ele><time>2026-03-28T10:42:49.819Z</time></trkpt><trkpt lat="45.3332798" lon="10.6728612"><ele>80.0</ele><time>2026-03-28T10:42:50.82Z</time></trkpt><trkpt lat="45.3332763" lon="10.6729727"><ele>80.0</ele><time>2026-03-28T10:42:51.819Z</time></trkpt><trkpt lat="45.3332822" lon="10.6730946"><ele>80.0</ele><time>2026-03-28T10:42:53.819Z</time></trkpt><trkpt lat="45.33332" lon="10.6731793"><ele>80.0</ele><time>2026-03-28T10:42:55.82Z</time></trkpt><trkpt lat="45.3333512" lon="10.6732581"><ele>80.0</ele><time>2026-03-28T10:42:56.82Z</time></trkpt><trkpt lat="45.3333891" lon="10.6733762"><ele>80.0</ele><time>2026-03-28T10:42:57.82Z</time></trkpt><trkpt lat="45.3334326" lon="10.6734998"><ele>80.0</ele><time>2026-03-28T10:42:58.82Z</time></trkpt><trkpt lat="45.3334749" lon="10.6736456"><ele>80.33333333333334</ele><time>2026-03-28T10:42:59.818Z</time></trkpt><trkpt lat="45.3335151" lon="10.6737735"><ele>80.66666666666667</ele><time>2026-03-28T10:43:00.819Z</time></trkpt><trkpt lat="45.3335439" lon="10.6738655"><ele>81.0</ele><time>2026-03-28T10:43:01.82Z</time></trkpt><trkpt lat="45.3335528" lon="10.6740041"><ele>81.33333333333333</ele><time>2026-03-28T10:43:03.82Z</time></trkpt><trkpt lat="45.3335183" lon="10.6740868"><ele>81.66666666666666</ele><time>2026-03-28T10:43:04.819Z</time></trkpt><trkpt lat="45.3334772" lon="10.6741759"><ele>82.0</ele><time>2026-03-28T10:43:05.818Z</time></trkpt><trkpt lat="45.3334441" lon="10.6742769"><ele>82.0</ele><time>2026-03-28T10:43:06.818Z</time></trkpt><trkpt lat="45.3334135" lon="10.674381"><ele>82.0</ele><time>2026-03-28T10:43:07.819Z</time></trkpt><trkpt lat="45.3333888" lon="10.6744896"><ele>82.0</ele><time>2026-03-28T10:43:08.818Z</time></trkpt><trkpt lat="45.3333841" lon="10.6746112"><ele>82.0</ele><time>2026-03-28T10:43:09.819Z</time></trkpt><trkpt lat="45.3334029" lon="10.6747428"><ele>82.0</ele><time>2026-03-28T10:43:10.819Z</time></trkpt><trkpt lat="45.3334492" lon="10.6748762"><ele>82.0</ele><time>2026-03-28T10:43:11.819Z</time></trkpt><trkpt lat="45.3335047" lon="10.6750108"><ele>82.0</ele><time>2026-03-28T10:43:12.819Z</time></trkpt><trkpt lat="45.3335605" lon="10.6751484"><ele>82.0</ele><time>2026-03-28T10:43:13.819Z</time></trkpt><trkpt lat="45.3336079" lon="10.6752742"><ele>82.0</ele><time>2026-03-28T10:43:14.818Z</time></trkpt><trkpt lat="45.3336514" lon="10.6753693"><ele>82.0</ele><time>2026-03-28T10:43:15.819Z</time></trkpt><trkpt lat="45.3337146" lon="10.6754628"><ele>82.0</ele><time>2026-03-28T10:43:16.819Z</time></trkpt><trkpt lat="45.3337853" lon="10.6755175"><ele>82.0</ele><time>2026-03-28T10:43:17.818Z</time></trkpt><trkpt lat="45.3338787" lon="10.6755849"><ele>82.0</ele><time>2026-03-28T10:43:19.82Z</time></trkpt><trkpt lat="45.3339018" lon="10.6757406"><ele>82.0</ele><time>2026-03-28T10:43:21.818Z</time></trkpt><trkpt lat="45.3338979" lon="10.675854"><ele>82.0</ele><time>2026-03-28T10:43:22.818Z</time></trkpt><trkpt lat="45.3338964" lon="10.6759868"><ele>82.0</ele><time>2026-03-28T10:43:23.82Z</time></trkpt><trkpt lat="45.3338958" lon="10.6761324"><ele>83.0</ele><time>2026-03-28T10:43:24.819Z</time></trkpt><trkpt lat="45.3339053" lon="10.6762885"><ele>84.0</ele><time>2026-03-28T10:43:25.82Z</time></trkpt><trkpt lat="45.3339241" lon="10.6764609"><ele>85.0</ele><time>2026-03-28T10:43:26.82Z</time></trkpt><trkpt lat="45.3339508" lon="10.676651"><ele>86.0</ele><time>2026-03-28T10:43:27.819Z</time></trkpt><trkpt lat="45.3339706" lon="10.6768411"><ele>86.5</ele><time>2026-03-28T10:43:28.819Z</time></trkpt><trkpt lat="45.3339973" lon="10.6770303"><ele>87.0</ele><time>2026-03-28T10:43:29.819Z</time></trkpt><trkpt lat="45.334025" lon="10.6772114"><ele>87.5</ele><time>2026-03-28T10:43:30.82Z</time></trkpt><trkpt lat="45.3340589" lon="10.6773861"><ele>88.0</ele><time>2026-03-28T10:43:31.819Z</time></trkpt><trkpt lat="45.3341061" lon="10.6775474"><ele>88.0</ele><time>2026-03-28T10:43:32.818Z</time></trkpt><trkpt lat="45.3341568" lon="10.6777105"><ele>88.0</ele><time>2026-03-28T10:43:33.818Z</time></trkpt><trkpt lat="45.3342151" lon="10.6778627"><ele>88.0</ele><time>2026-03-28T10:43:34.819Z</time></trkpt><trkpt lat="45.3342617" lon="10.6780211"><ele>88.0</ele><time>2026-03-28T10:43:35.818Z</time></trkpt><trkpt lat="45.3343011" lon="10.6781668"><ele>88.0</ele><time>2026-03-28T10:43:36.819Z</time></trkpt><trkpt lat="45.3343445" lon="10.6782885"><ele>88.0</ele><time>2026-03-28T10:43:37.82Z</time></trkpt><trkpt lat="45.3343913" lon="10.678388"><ele>88.0</ele><time>2026-03-28T10:43:38.82Z</time></trkpt><trkpt lat="45.3344429" lon="10.6784757"><ele>88.0</ele><time>2026-03-28T10:43:39.82Z</time></trkpt><trkpt lat="45.3345011" lon="10.6785516"><ele>88.0</ele><time>2026-03-28T10:43:40.819Z</time></trkpt><trkpt lat="45.3345565" lon="10.6786092"><ele>88.0</ele><time>2026-03-28T10:43:41.82Z</time></trkpt><trkpt lat="45.3346572" lon="10.6786821"><ele>87.4</ele><time>2026-03-28T10:43:43.82Z</time></trkpt><trkpt lat="45.3347635" lon="10.6786856"><ele>86.80000000000001</ele><time>2026-03-28T10:43:45.82Z</time></trkpt><trkpt lat="45.3348338" lon="10.6786554"><ele>86.2</ele><time>2026-03-28T10:43:46.82Z</time></trkpt><trkpt lat="45.3349134" lon="10.6786042"><ele>85.6</ele><time>2026-03-28T10:43:47.819Z</time></trkpt><trkpt lat="45.3350106" lon="10.6785338"><ele>85.0</ele><time>2026-03-28T10:43:48.819Z</time></trkpt><trkpt lat="45.335113" lon="10.6784505"><ele>85.0</ele><time>2026-03-28T10:43:49.82Z</time></trkpt><trkpt lat="45.3352017" lon="10.6783929"><ele>85.0</ele><time>2026-03-28T10:43:50.819Z</time></trkpt><trkpt lat="45.3352809" lon="10.6783774"><ele>85.0</ele><time>2026-03-28T10:43:51.82Z</time></trkpt><trkpt lat="45.3353463" lon="10.6783887"><ele>85.0</ele><time>2026-03-28T10:43:52.819Z</time></trkpt><trkpt lat="45.335418" lon="10.6784352"><ele>85.0</ele><time>2026-03-28T10:43:53.819Z</time></trkpt><trkpt lat="45.335482" lon="10.6785087"><ele>85.0</ele><time>2026-03-28T10:43:54.82Z</time></trkpt><trkpt lat="45.3355532" lon="10.6786254"><ele>85.0</ele><time>2026-03-28T10:43:55.819Z</time></trkpt><trkpt lat="45.3356454" lon="10.6787725"><ele>85.0</ele><time>2026-03-28T10:43:56.819Z</time></trkpt><trkpt lat="45.3357323" lon="10.6789251"><ele>85.0</ele><time>2026-03-28T10:43:57.819Z</time></trkpt><trkpt lat="45.3358341" lon="10.6790976"><ele>85.0</ele><time>2026-03-28T10:43:58.819Z</time></trkpt><trkpt lat="45.3359421" lon="10.6792761"><ele>85.0</ele><time>2026-03-28T10:43:59.82Z</time></trkpt><trkpt lat="45.336057" lon="10.6794575"><ele>85.0</ele><time>2026-03-28T10:44:00.82Z</time></trkpt><trkpt lat="45.3361739" lon="10.6796443"><ele>85.0</ele><time>2026-03-28T10:44:01.819Z</time></trkpt><trkpt lat="45.3362908" lon="10.6798242"><ele>85.0</ele><time>2026-03-28T10:44:02.82Z</time></trkpt><trkpt lat="45.336388" lon="10.6799762"><ele>85.0</ele><time>2026-03-28T10:44:03.819Z</time></trkpt><trkpt lat="45.3364678" lon="10.6801004"><ele>85.0</ele><time>2026-03-28T10:44:04.819Z</time></trkpt><trkpt lat="45.3365402" lon="10.6802155"><ele>85.0</ele><time>2026-03-28T10:44:05.818Z</time></trkpt><trkpt lat="45.3366119" lon="10.6803331"><ele>85.0</ele><time>2026-03-28T10:44:06.818Z</time></trkpt><trkpt lat="45.3366658" lon="10.6804152"><ele>85.0</ele><time>2026-03-28T10:44:07.819Z</time></trkpt><trkpt lat="45.3367132" lon="10.6804929"><ele>85.0</ele><time>2026-03-28T10:44:09.82Z</time></trkpt><trkpt lat="45.3367844" lon="10.680495"><ele>85.0</ele><time>2026-03-28T10:44:15.819Z</time></trkpt><trkpt lat="45.336822" lon="10.6804211"><ele>85.0</ele><time>2026-03-28T10:44:16.819Z</time></trkpt><trkpt lat="45.3368854" lon="10.6803286"><ele>85.0</ele><time>2026-03-28T10:44:17.819Z</time></trkpt><trkpt lat="45.3369591" lon="10.6802312"><ele>85.0</ele><time>2026-03-28T10:44:18.818Z</time></trkpt><trkpt lat="45.3370563" lon="10.6800986"><ele>85.0</ele><time>2026-03-28T10:44:19.819Z</time></trkpt><trkpt lat="45.3371656" lon="10.6799557"><ele>85.0</ele><time>2026-03-28T10:44:20.819Z</time></trkpt><trkpt lat="45.3372873" lon="10.6797936"><ele>86.0</ele><time>2026-03-28T10:44:21.819Z</time></trkpt><trkpt lat="45.3374209" lon="10.6796235"><ele>87.0</ele><time>2026-03-28T10:44:22.82Z</time></trkpt><trkpt lat="45.3375587" lon="10.6794431"><ele>88.0</ele><time>2026-03-28T10:44:23.82Z</time></trkpt><trkpt lat="45.3377158" lon="10.6792599"><ele>88.0</ele><time>2026-03-28T10:44:24.819Z</time></trkpt><trkpt lat="45.3378773" lon="10.6791056"><ele>88.0</ele><time>2026-03-28T10:44:25.819Z</time></trkpt><trkpt lat="45.3380284" lon="10.6789648"><ele>88.0</ele><time>2026-03-28T10:44:26.818Z</time></trkpt><trkpt lat="45.3381657" lon="10.6788411"><ele>88.0</ele><time>2026-03-28T10:44:27.818Z</time></trkpt><trkpt lat="45.3382845" lon="10.6787301"><ele>88.0</ele><time>2026-03-28T10:44:28.82Z</time></trkpt><trkpt lat="45.3383877" lon="10.6786395"><ele>88.0</ele><time>2026-03-28T10:44:29.819Z</time></trkpt><trkpt lat="45.3384635" lon="10.6785747"><ele>88.0</ele><time>2026-03-28T10:44:30.819Z</time></trkpt><trkpt lat="45.3385542" lon="10.6785661"><ele>88.0</ele><time>2026-03-28T10:44:32.819Z</time></trkpt><trkpt lat="45.3386018" lon="10.6786955"><ele>88.0</ele><time>2026-03-28T10:44:34.819Z</time></trkpt><trkpt lat="45.3386483" lon="10.6788135"><ele>88.0</ele><time>2026-03-28T10:44:35.82Z</time></trkpt><trkpt lat="45.3387207" lon="10.6789573"><ele>88.0</ele><time>2026-03-28T10:44:36.819Z</time></trkpt><trkpt lat="45.3387988" lon="10.6791339"><ele>88.0</ele><time>2026-03-28T10:44:37.819Z</time></trkpt><trkpt lat="45.3388874" lon="10.6793285"><ele>88.66666666666666</ele><time>2026-03-28T10:44:38.82Z</time></trkpt><trkpt lat="45.3389834" lon="10.6795449"><ele>89.33333333333333</ele><time>2026-03-28T10:44:39.82Z</time></trkpt><trkpt lat="45.3390805" lon="10.6797694"><ele>90.0</ele><time>2026-03-28T10:44:40.819Z</time></trkpt><trkpt lat="45.3391799" lon="10.6800116"><ele>90.0</ele><time>2026-03-28T10:44:41.819Z</time></trkpt><trkpt lat="45.3392694" lon="10.6802346"><ele>90.0</ele><time>2026-03-28T10:44:42.82Z</time></trkpt><trkpt lat="45.3393482" lon="10.6804459"><ele>90.0</ele><time>2026-03-28T10:44:43.82Z</time></trkpt><trkpt lat="45.3394345" lon="10.6806603"><ele>90.0</ele><time>2026-03-28T10:44:44.818Z</time></trkpt><trkpt lat="45.3395322" lon="10.6808789"><ele>90.0</ele><time>2026-03-28T10:44:45.82Z</time></trkpt><trkpt lat="45.3396213" lon="10.6810955"><ele>90.0</ele><time>2026-03-28T10:44:46.819Z</time></trkpt><trkpt lat="45.3397103" lon="10.6813055"><ele>90.25</ele><time>2026-03-28T10:44:47.82Z</time></trkpt><trkpt lat="45.3397948" lon="10.6814945"><ele>90.5</ele><time>2026-03-28T10:44:48.819Z</time></trkpt><trkpt lat="45.3398665" lon="10.6816708"><ele>90.75</ele><time>2026-03-28T10:44:49.82Z</time></trkpt><trkpt lat="45.3399217" lon="10.6818292"><ele>91.0</ele><time>2026-03-28T10:44:50.819Z</time></trkpt><trkpt lat="45.3399678" lon="10.6819719"><ele>91.0</ele><time>2026-03-28T10:44:51.818Z</time></trkpt><trkpt lat="45.3399898" lon="10.6821083"><ele>91.0</ele><time>2026-03-28T10:44:52.819Z</time></trkpt><trkpt lat="45.3399933" lon="10.6822598"><ele>91.0</ele><time>2026-03-28T10:44:53.82Z</time></trkpt><trkpt lat="45.3399923" lon="10.6824342"><ele>91.0</ele><time>2026-03-28T10:44:54.82Z</time></trkpt><trkpt lat="45.3400107" lon="10.6826229"><ele>91.25</ele><time>2026-03-28T10:44:55.82Z</time></trkpt><trkpt lat="45.3400457" lon="10.6828197"><ele>91.5</ele><time>2026-03-28T10:44:56.819Z</time></trkpt><trkpt lat="45.3400984" lon="10.6830141"><ele>91.75</ele><time>2026-03-28T10:44:57.819Z</time></trkpt><trkpt lat="45.3401621" lon="10.6832138"><ele>92.0</ele><time>2026-03-28T10:44:58.819Z</time></trkpt><trkpt lat="45.3402309" lon="10.6834117"><ele>91.33333333333334</ele><time>2026-03-28T10:44:59.818Z</time></trkpt><trkpt lat="45.3402965" lon="10.6836184"><ele>90.66666666666667</ele><time>2026-03-28T10:45:00.819Z</time></trkpt><trkpt lat="45.3403585" lon="10.6838172"><ele>90.0</ele><time>2026-03-28T10:45:01.819Z</time></trkpt><trkpt lat="45.3404163" lon="10.6840023"><ele>90.0</ele><time>2026-03-28T10:45:02.819Z</time></trkpt><trkpt lat="45.3404714" lon="10.6841929"><ele>90.0</ele><time>2026-03-28T10:45:03.818Z</time></trkpt><trkpt lat="45.340518" lon="10.6844033"><ele>90.0</ele><time>2026-03-28T10:45:04.819Z</time></trkpt><trkpt lat="45.3405481" lon="10.6846199"><ele>90.33333333333333</ele><time>2026-03-28T10:45:05.819Z</time></trkpt><trkpt lat="45.3405754" lon="10.6848431"><ele>90.66666666666666</ele><time>2026-03-28T10:45:06.818Z</time></trkpt><trkpt lat="45.3406095" lon="10.6850738"><ele>91.0</ele><time>2026-03-28T10:45:07.819Z</time></trkpt><trkpt lat="45.3406462" lon="10.6853119"><ele>91.0</ele><time>2026-03-28T10:45:08.82Z</time></trkpt><trkpt lat="45.3406862" lon="10.6855388"><ele>91.0</ele><time>2026-03-28T10:45:09.82Z</time></trkpt><trkpt lat="45.3407242" lon="10.6857306"><ele>91.0</ele><time>2026-03-28T10:45:10.82Z</time></trkpt><trkpt lat="45.3407577" lon="10.6859009"><ele>91.0</ele><time>2026-03-28T10:45:11.819Z</time></trkpt><trkpt lat="45.340794" lon="10.6860769"><ele>90.8</ele><time>2026-03-28T10:45:12.819Z</time></trkpt><trkpt lat="45.3408365" lon="10.6862501"><ele>90.6</ele><time>2026-03-28T10:45:13.819Z</time></trkpt><trkpt lat="45.3408715" lon="10.6864042"><ele>90.4</ele><time>2026-03-28T10:45:14.819Z</time></trkpt><trkpt lat="45.3409019" lon="10.686545"><ele>90.2</ele><time>2026-03-28T10:45:15.819Z</time></trkpt><trkpt lat="45.340926" lon="10.686673"><ele>90.0</ele><time>2026-03-28T10:45:16.819Z</time></trkpt><trkpt lat="45.3409434" lon="10.6868116"><ele>90.2</ele><time>2026-03-28T10:45:17.82Z</time></trkpt><trkpt lat="45.3409537" lon="10.6869675"><ele>90.4</ele><time>2026-03-28T10:45:18.819Z</time></trkpt><trkpt lat="45.340953" lon="10.6871216"><ele>90.6</ele><time>2026-03-28T10:45:19.82Z</time></trkpt><trkpt lat="45.3409636" lon="10.6872641"><ele>90.8</ele><time>2026-03-28T10:45:20.82Z</time></trkpt><trkpt lat="45.3409871" lon="10.6874292"><ele>91.0</ele><time>2026-03-28T10:45:21.818Z</time></trkpt><trkpt lat="45.3410168" lon="10.6876027"><ele>91.0</ele><time>2026-03-28T10:45:22.819Z</time></trkpt><trkpt lat="45.3410522" lon="10.6877857"><ele>91.0</ele><time>2026-03-28T10:45:23.819Z</time></trkpt><trkpt lat="45.3410915" lon="10.6879715"><ele>91.0</ele><time>2026-03-28T10:45:24.819Z</time></trkpt><trkpt lat="45.3411266" lon="10.6881629"><ele>91.0</ele><time>2026-03-28T10:45:25.819Z</time></trkpt><trkpt lat="45.3411633" lon="10.6883572"><ele>91.0</ele><time>2026-03-28T10:45:26.819Z</time></trkpt><trkpt lat="45.3412027" lon="10.6885501"><ele>91.0</ele><time>2026-03-28T10:45:27.819Z</time></trkpt><trkpt lat="45.3412519" lon="10.6887434"><ele>91.0</ele><time>2026-03-28T10:45:28.819Z</time></trkpt><trkpt lat="45.3412982" lon="10.688936"><ele>91.0</ele><time>2026-03-28T10:45:29.819Z</time></trkpt><trkpt lat="45.3413446" lon="10.6891277"><ele>91.0</ele><time>2026-03-28T10:45:30.818Z</time></trkpt><trkpt lat="45.3413934" lon="10.6893123"><ele>91.0</ele><time>2026-03-28T10:45:31.818Z</time></trkpt><trkpt lat="45.3414425" lon="10.6894898"><ele>91.0</ele><time>2026-03-28T10:45:32.82Z</time></trkpt><trkpt lat="45.3414963" lon="10.6896689"><ele>91.0</ele><time>2026-03-28T10:45:33.819Z</time></trkpt><trkpt lat="45.3415554" lon="10.6898483"><ele>91.0</ele><time>2026-03-28T10:45:34.819Z</time></trkpt><trkpt lat="45.3416254" lon="10.6900294"><ele>91.0</ele><time>2026-03-28T10:45:35.818Z</time></trkpt><trkpt lat="45.3416964" lon="10.6902241"><ele>91.0</ele><time>2026-03-28T10:45:36.819Z</time></trkpt><trkpt lat="45.341764" lon="10.690417"><ele>91.25</ele><time>2026-03-28T10:45:37.819Z</time></trkpt><trkpt lat="45.341829" lon="10.6906093"><ele>91.5</ele><time>2026-03-28T10:45:38.818Z</time></trkpt><trkpt lat="45.341894" lon="10.6907901"><ele>91.75</ele><time>2026-03-28T10:45:39.82Z</time></trkpt><trkpt lat="45.3419459" lon="10.6909797"><ele>92.0</ele><time>2026-03-28T10:45:40.82Z</time></trkpt><trkpt lat="45.3419808" lon="10.6911872"><ele>92.33333333333334</ele><time>2026-03-28T10:45:41.82Z</time></trkpt><trkpt lat="45.3420015" lon="10.6914215"><ele>92.66666666666667</ele><time>2026-03-28T10:45:42.818Z</time></trkpt><trkpt lat="45.3420074" lon="10.6916758"><ele>93.0</ele><time>2026-03-28T10:45:43.818Z</time></trkpt><trkpt lat="45.342007" lon="10.691903"><ele>93.25</ele><time>2026-03-28T10:45:44.82Z</time></trkpt><trkpt lat="45.342013" lon="10.6921277"><ele>93.5</ele><time>2026-03-28T10:45:45.82Z</time></trkpt><trkpt lat="45.3420265" lon="10.692337"><ele>93.75</ele><time>2026-03-28T10:45:46.818Z</time></trkpt><trkpt lat="45.3420485" lon="10.6925216"><ele>94.0</ele><time>2026-03-28T10:45:47.819Z</time></trkpt><trkpt lat="45.3420803" lon="10.6927036"><ele>94.33333333333333</ele><time>2026-03-28T10:45:48.82Z</time></trkpt><trkpt lat="45.3421315" lon="10.6929101"><ele>94.66666666666667</ele><time>2026-03-28T10:45:49.82Z</time></trkpt><trkpt lat="45.3421888" lon="10.6931249"><ele>95.0</ele><time>2026-03-28T10:45:50.82Z</time></trkpt><trkpt lat="45.3422483" lon="10.6933412"><ele>96.5</ele><time>2026-03-28T10:45:51.819Z</time></trkpt><trkpt lat="45.3423046" lon="10.6935332"><ele>98.0</ele><time>2026-03-28T10:45:52.819Z</time></trkpt><trkpt lat="45.3423592" lon="10.693721"><ele>99.5</ele><time>2026-03-28T10:45:53.818Z</time></trkpt><trkpt lat="45.3424108" lon="10.6938844"><ele>101.0</ele><time>2026-03-28T10:45:54.819Z</time></trkpt><trkpt lat="45.3424526" lon="10.6940368"><ele>101.0</ele><time>2026-03-28T10:45:55.819Z</time></trkpt><trkpt lat="45.3424982" lon="10.6941625"><ele>101.0</ele><time>2026-03-28T10:45:56.82Z</time></trkpt><trkpt lat="45.3425417" lon="10.6942986"><ele>101.0</ele><time>2026-03-28T10:45:57.819Z</time></trkpt><trkpt lat="45.3425803" lon="10.6944423"><ele>101.0</ele><time>2026-03-28T10:45:58.818Z</time></trkpt><trkpt lat="45.3426098" lon="10.6946087"><ele>101.0</ele><time>2026-03-28T10:45:59.819Z</time></trkpt><trkpt lat="45.3426392" lon="10.6947823"><ele>100.75</ele><time>2026-03-28T10:46:00.819Z</time></trkpt><trkpt lat="45.3426702" lon="10.6949691"><ele>100.5</ele><time>2026-03-28T10:46:01.819Z</time></trkpt><trkpt lat="45.3427014" lon="10.6951589"><ele>100.25</ele><time>2026-03-28T10:46:02.819Z</time></trkpt><trkpt lat="45.3427338" lon="10.6953587"><ele>100.0</ele><time>2026-03-28T10:46:03.819Z</time></trkpt><trkpt lat="45.3427652" lon="10.6955531"><ele>99.8</ele><time>2026-03-28T10:46:04.818Z</time></trkpt><trkpt lat="45.3427881" lon="10.6957262"><ele>99.6</ele><time>2026-03-28T10:46:05.819Z</time></trkpt><trkpt lat="45.3428073" lon="10.6958905"><ele>99.4</ele><time>2026-03-28T10:46:06.82Z</time></trkpt><trkpt lat="45.3428221" lon="10.6960402"><ele>99.2</ele><time>2026-03-28T10:46:07.818Z</time></trkpt><trkpt lat="45.3428361" lon="10.6961726"><ele>99.0</ele><time>2026-03-28T10:46:08.818Z</time></trkpt><trkpt lat="45.342847" lon="10.6962898"><ele>98.80000000000001</ele><time>2026-03-28T10:46:09.818Z</time></trkpt><trkpt lat="45.3428675" lon="10.6964057"><ele>98.60000000000001</ele><time>2026-03-28T10:46:10.818Z</time></trkpt><trkpt lat="45.3428943" lon="10.6965316"><ele>98.4</ele><time>2026-03-28T10:46:11.818Z</time></trkpt><trkpt lat="45.3429294" lon="10.6966689"><ele>98.2</ele><time>2026-03-28T10:46:12.819Z</time></trkpt><trkpt lat="45.3429733" lon="10.6968155"><ele>98.0</ele><time>2026-03-28T10:46:13.819Z</time></trkpt><trkpt lat="45.3430236" lon="10.6969738"><ele>99.0</ele><time>2026-03-28T10:46:14.819Z</time></trkpt><trkpt lat="45.343076" lon="10.6971374"><ele>100.0</ele><time>2026-03-28T10:46:15.818Z</time></trkpt><trkpt lat="45.3431307" lon="10.6973101"><ele>101.0</ele><time>2026-03-28T10:46:16.819Z</time></trkpt><trkpt lat="45.3431857" lon="10.6974926"><ele>102.0</ele><time>2026-03-28T10:46:17.818Z</time></trkpt><trkpt lat="45.3432419" lon="10.6976826"><ele>101.25</ele><time>2026-03-28T10:46:18.82Z</time></trkpt><trkpt lat="45.3433048" lon="10.6978683"><ele>100.5</ele><time>2026-03-28T10:46:19.819Z</time></trkpt><trkpt lat="45.34337" lon="10.6980536"><ele>99.75</ele><time>2026-03-28T10:46:20.819Z</time></trkpt><trkpt lat="45.3434416" lon="10.6982382"><ele>99.0</ele><time>2026-03-28T10:46:21.819Z</time></trkpt><trkpt lat="45.3435253" lon="10.6984171"><ele>98.0</ele><time>2026-03-28T10:46:22.82Z</time></trkpt><trkpt lat="45.3436289" lon="10.6985933"><ele>97.0</ele><time>2026-03-28T10:46:23.818Z</time></trkpt><trkpt lat="45.3437367" lon="10.6987713"><ele>96.0</ele><time>2026-03-28T10:46:24.818Z</time></trkpt><trkpt lat="45.343842" lon="10.6989562"><ele>96.0</ele><time>2026-03-28T10:46:25.818Z</time></trkpt><trkpt lat="45.3439362" lon="10.6991497"><ele>96.0</ele><time>2026-03-28T10:46:26.819Z</time></trkpt><trkpt lat="45.3440278" lon="10.6993487"><ele>96.0</ele><time>2026-03-28T10:46:27.819Z</time></trkpt><trkpt lat="45.3441167" lon="10.6995449"><ele>96.0</ele><time>2026-03-28T10:46:28.818Z</time></trkpt><trkpt lat="45.3442054" lon="10.6997448"><ele>96.0</ele><time>2026-03-28T10:46:29.818Z</time></trkpt><trkpt lat="45.3442868" lon="10.6999467"><ele>96.0</ele><time>2026-03-28T10:46:30.818Z</time></trkpt><trkpt lat="45.3443692" lon="10.700151"><ele>96.0</ele><time>2026-03-28T10:46:31.819Z</time></trkpt><trkpt lat="45.3444521" lon="10.7003564"><ele>96.0</ele><time>2026-03-28T10:46:32.819Z</time></trkpt><trkpt lat="45.3445225" lon="10.7005412"><ele>96.0</ele><time>2026-03-28T10:46:33.82Z</time></trkpt><trkpt lat="45.3445867" lon="10.7006971"><ele>96.0</ele><time>2026-03-28T10:46:34.818Z</time></trkpt><trkpt lat="45.3446434" lon="10.7008295"><ele>96.0</ele><time>2026-03-28T10:46:35.818Z</time></trkpt><trkpt lat="45.3446854" lon="10.7009371"><ele>96.0</ele><time>2026-03-28T10:46:36.818Z</time></trkpt><trkpt lat="45.3447212" lon="10.7010313"><ele>96.0</ele><time>2026-03-28T10:46:37.818Z</time></trkpt><trkpt lat="45.3447806" lon="10.701182"><ele>96.0</ele><time>2026-03-28T10:46:39.818Z</time></trkpt><trkpt lat="45.3448251" lon="10.701302"><ele>96.0</ele><time>2026-03-28T10:46:41.819Z</time></trkpt><trkpt lat="45.3448608" lon="10.701401"><ele>96.0</ele><time>2026-03-28T10:46:43.82Z</time></trkpt><trkpt lat="45.3449144" lon="10.7014603"><ele>96.0</ele><time>2026-03-28T10:46:46.82Z</time></trkpt><trkpt lat="45.3449804" lon="10.7013441"><ele>96.0</ele><time>2026-03-28T10:46:48.819Z</time></trkpt><trkpt lat="45.3450249" lon="10.7012548"><ele>96.0</ele><time>2026-03-28T10:46:49.819Z</time></trkpt><trkpt lat="45.3450709" lon="10.7011466"><ele>96.0</ele><time>2026-03-28T10:46:50.819Z</time></trkpt><trkpt lat="45.3451222" lon="10.7010329"><ele>96.0</ele><time>2026-03-28T10:46:51.818Z</time></trkpt><trkpt lat="45.3451756" lon="10.7009082"><ele>96.25</ele><time>2026-03-28T10:46:52.818Z</time></trkpt><trkpt lat="45.3452371" lon="10.7007685"><ele>96.5</ele><time>2026-03-28T10:46:53.819Z</time></trkpt><trkpt lat="45.3453" lon="10.7006188"><ele>96.75</ele><time>2026-03-28T10:46:54.819Z</time></trkpt><trkpt lat="45.3453634" lon="10.7004726"><ele>97.0</ele><time>2026-03-28T10:46:55.819Z</time></trkpt><trkpt lat="45.3454289" lon="10.7003155"><ele>98.0</ele><time>2026-03-28T10:46:56.82Z</time></trkpt><trkpt lat="45.3455079" lon="10.7001603"><ele>99.0</ele><time>2026-03-28T10:46:57.82Z</time></trkpt><trkpt lat="45.3455953" lon="10.7000119"><ele>100.0</ele><time>2026-03-28T10:46:58.819Z</time></trkpt><trkpt lat="45.345684" lon="10.6998671"><ele>101.0</ele><time>2026-03-28T10:46:59.819Z</time></trkpt><trkpt lat="45.345772" lon="10.6997186"><ele>103.0</ele><time>2026-03-28T10:47:00.818Z</time></trkpt><trkpt lat="45.3458602" lon="10.6995687"><ele>105.0</ele><time>2026-03-28T10:47:01.819Z</time></trkpt><trkpt lat="45.3459464" lon="10.6994317"><ele>107.0</ele><time>2026-03-28T10:47:02.818Z</time></trkpt><trkpt lat="45.3460246" lon="10.6992918"><ele>109.0</ele><time>2026-03-28T10:47:03.819Z</time></trkpt><trkpt lat="45.3460857" lon="10.6991502"><ele>109.4</ele><time>2026-03-28T10:47:04.819Z</time></trkpt><trkpt lat="45.3461378" lon="10.6990189"><ele>109.80000000000001</ele><time>2026-03-28T10:47:05.819Z</time></trkpt><trkpt lat="45.3461843" lon="10.6988823"><ele>110.19999999999999</ele><time>2026-03-28T10:47:06.818Z</time></trkpt><trkpt lat="45.3462261" lon="10.6987336"><ele>110.6</ele><time>2026-03-28T10:47:07.818Z</time></trkpt><trkpt lat="45.3462681" lon="10.6985769"><ele>111.0</ele><time>2026-03-28T10:47:08.818Z</time></trkpt><trkpt lat="45.346314" lon="10.6984139"><ele>110.0</ele><time>2026-03-28T10:47:09.819Z</time></trkpt><trkpt lat="45.3463657" lon="10.6982538"><ele>109.0</ele><time>2026-03-28T10:47:10.818Z</time></trkpt><trkpt lat="45.3464247" lon="10.6981037"><ele>108.0</ele><time>2026-03-28T10:47:11.819Z</time></trkpt><trkpt lat="45.3464887" lon="10.6979508"><ele>107.0</ele><time>2026-03-28T10:47:12.819Z</time></trkpt><trkpt lat="45.3465586" lon="10.6978059"><ele>105.5</ele><time>2026-03-28T10:47:13.819Z</time></trkpt><trkpt lat="45.3466287" lon="10.6976614"><ele>104.0</ele><time>2026-03-28T10:47:14.82Z</time></trkpt><trkpt lat="45.3466997" lon="10.6975266"><ele>102.5</ele><time>2026-03-28T10:47:15.819Z</time></trkpt><trkpt lat="45.3467778" lon="10.6973925"><ele>101.0</ele><time>2026-03-28T10:47:16.82Z</time></trkpt><trkpt lat="45.346867" lon="10.6972547"><ele>101.0</ele><time>2026-03-28T10:47:17.819Z</time></trkpt><trkpt lat="45.3469578" lon="10.6971217"><ele>101.0</ele><time>2026-03-28T10:47:18.818Z</time></trkpt><trkpt lat="45.3470511" lon="10.6969935"><ele>101.0</ele><time>2026-03-28T10:47:19.819Z</time></trkpt><trkpt lat="45.3471555" lon="10.6968738"><ele>101.0</ele><time>2026-03-28T10:47:20.819Z</time></trkpt><trkpt lat="45.3472719" lon="10.6967685"><ele>100.5</ele><time>2026-03-28T10:47:21.819Z</time></trkpt><trkpt lat="45.3474021" lon="10.6966837"><ele>100.0</ele><time>2026-03-28T10:47:22.819Z</time></trkpt><trkpt lat="45.3475341" lon="10.6966112"><ele>99.5</ele><time>2026-03-28T10:47:23.819Z</time></trkpt><trkpt lat="45.3476643" lon="10.6965394"><ele>99.0</ele><time>2026-03-28T10:47:24.819Z</time></trkpt><trkpt lat="45.3477773" lon="10.6964579"><ele>99.0</ele><time>2026-03-28T10:47:25.819Z</time></trkpt><trkpt lat="45.3478755" lon="10.6963737"><ele>99.0</ele><time>2026-03-28T10:47:26.819Z</time></trkpt><trkpt lat="45.3479676" lon="10.696297"><ele>99.0</ele><time>2026-03-28T10:47:27.819Z</time></trkpt><trkpt lat="45.3480612" lon="10.6962353"><ele>99.0</ele><time>2026-03-28T10:47:28.819Z</time></trkpt><trkpt lat="45.3481652" lon="10.6961893"><ele>99.0</ele><time>2026-03-28T10:47:29.82Z</time></trkpt><trkpt lat="45.3482844" lon="10.6961718"><ele>98.5</ele><time>2026-03-28T10:47:30.818Z</time></trkpt><trkpt lat="45.3484126" lon="10.6961694"><ele>98.0</ele><time>2026-03-28T10:47:31.818Z</time></trkpt><trkpt lat="45.3485541" lon="10.696171"><ele>97.5</ele><time>2026-03-28T10:47:32.819Z</time></trkpt><trkpt lat="45.3487008" lon="10.6961718"><ele>97.0</ele><time>2026-03-28T10:47:33.82Z</time></trkpt><trkpt lat="45.3488449" lon="10.6961751"><ele>96.0</ele><time>2026-03-28T10:47:34.82Z</time></trkpt><trkpt lat="45.3489804" lon="10.6961738"><ele>95.0</ele><time>2026-03-28T10:47:35.82Z</time></trkpt><trkpt lat="45.3491013" lon="10.6961662"><ele>94.0</ele><time>2026-03-28T10:47:36.819Z</time></trkpt><trkpt lat="45.3492166" lon="10.6961748"><ele>93.0</ele><time>2026-03-28T10:47:37.819Z</time></trkpt><trkpt lat="45.3493227" lon="10.6962189"><ele>93.0</ele><time>2026-03-28T10:47:38.819Z</time></trkpt><trkpt lat="45.3494039" lon="10.6962906"><ele>93.0</ele><time>2026-03-28T10:47:39.819Z</time></trkpt><trkpt lat="45.3494638" lon="10.6964041"><ele>93.0</ele><time>2026-03-28T10:47:40.818Z</time></trkpt><trkpt lat="45.3494964" lon="10.6965514"><ele>93.0</ele><time>2026-03-28T10:47:41.819Z</time></trkpt><trkpt lat="45.3495033" lon="10.696727"><ele>93.0</ele><time>2026-03-28T10:47:42.819Z</time></trkpt><trkpt lat="45.3495024" lon="10.6969183"><ele>93.66666666666667</ele><time>2026-03-28T10:47:43.819Z</time></trkpt><trkpt lat="45.3495033" lon="10.6971259"><ele>94.33333333333334</ele><time>2026-03-28T10:47:44.818Z</time></trkpt><trkpt lat="45.3495143" lon="10.6973382"><ele>95.0</ele><time>2026-03-28T10:47:45.819Z</time></trkpt><trkpt lat="45.3495368" lon="10.6975628"><ele>95.33333333333334</ele><time>2026-03-28T10:47:46.82Z</time></trkpt><trkpt lat="45.3495603" lon="10.6977964"><ele>95.66666666666667</ele><time>2026-03-28T10:47:47.819Z</time></trkpt><trkpt lat="45.3495805" lon="10.6980308"><ele>96.0</ele><time>2026-03-28T10:47:48.819Z</time></trkpt><trkpt lat="45.3495982" lon="10.6982662"><ele>96.0</ele><time>2026-03-28T10:47:49.819Z</time></trkpt><trkpt lat="45.3496128" lon="10.6985032"><ele>96.0</ele><time>2026-03-28T10:47:50.818Z</time></trkpt><trkpt lat="45.3496236" lon="10.6987348"><ele>96.0</ele><time>2026-03-28T10:47:51.82Z</time></trkpt><trkpt lat="45.3496299" lon="10.6989704"><ele>96.33333333333334</ele><time>2026-03-28T10:47:52.819Z</time></trkpt><trkpt lat="45.3496358" lon="10.6991977"><ele>96.66666666666667</ele><time>2026-03-28T10:47:53.819Z</time></trkpt><trkpt lat="45.349639" lon="10.6994235"><ele>97.0</ele><time>2026-03-28T10:47:54.819Z</time></trkpt><trkpt lat="45.3496404" lon="10.6996449"><ele>97.0</ele><time>2026-03-28T10:47:55.818Z</time></trkpt><trkpt lat="45.3496308" lon="10.6998678"><ele>97.0</ele><time>2026-03-28T10:47:56.82Z</time></trkpt><trkpt lat="45.349606" lon="10.7000819"><ele>97.0</ele><time>2026-03-28T10:47:57.819Z</time></trkpt><trkpt lat="45.3495841" lon="10.7002939"><ele>96.25</ele><time>2026-03-28T10:47:58.82Z</time></trkpt><trkpt lat="45.3495608" lon="10.7005067"><ele>95.5</ele><time>2026-03-28T10:47:59.819Z</time></trkpt><trkpt lat="45.3495388" lon="10.7007126"><ele>94.75</ele><time>2026-03-28T10:48:00.819Z</time></trkpt><trkpt lat="45.3495188" lon="10.7009004"><ele>94.0</ele><time>2026-03-28T10:48:01.818Z</time></trkpt><trkpt lat="45.3494974" lon="10.701075"><ele>93.75</ele><time>2026-03-28T10:48:02.819Z</time></trkpt><trkpt lat="45.3494767" lon="10.7012541"><ele>93.5</ele><time>2026-03-28T10:48:03.819Z</time></trkpt><trkpt lat="45.3494563" lon="10.7014352"><ele>93.25</ele><time>2026-03-28T10:48:04.819Z</time></trkpt><trkpt lat="45.3494536" lon="10.7016292"><ele>93.0</ele><time>2026-03-28T10:48:05.819Z</time></trkpt><trkpt lat="45.3494651" lon="10.7018307"><ele>92.33333333333333</ele><time>2026-03-28T10:48:06.82Z</time></trkpt><trkpt lat="45.349482" lon="10.7020446"><ele>91.66666666666666</ele><time>2026-03-28T10:48:07.819Z</time></trkpt><trkpt lat="45.349497" lon="10.702279"><ele>91.0</ele><time>2026-03-28T10:48:08.82Z</time></trkpt><trkpt lat="45.3495103" lon="10.7025133"><ele>89.66666666666666</ele><time>2026-03-28T10:48:09.82Z</time></trkpt><trkpt lat="45.3495214" lon="10.702765"><ele>88.33333333333333</ele><time>2026-03-28T10:48:10.819Z</time></trkpt><trkpt lat="45.3495352" lon="10.7030137"><ele>87.0</ele><time>2026-03-28T10:48:11.818Z</time></trkpt><trkpt lat="45.3495497" lon="10.7032625"><ele>87.0</ele><time>2026-03-28T10:48:12.82Z</time></trkpt><trkpt lat="45.3495658" lon="10.7035074"><ele>87.0</ele><time>2026-03-28T10:48:13.818Z</time></trkpt><trkpt lat="45.3495756" lon="10.7037517"><ele>87.0</ele><time>2026-03-28T10:48:14.82Z</time></trkpt><trkpt lat="45.3495749" lon="10.7039931"><ele>86.0</ele><time>2026-03-28T10:48:15.819Z</time></trkpt><trkpt lat="45.3495568" lon="10.7042246"><ele>85.0</ele><time>2026-03-28T10:48:16.819Z</time></trkpt><trkpt lat="45.3495214" lon="10.7044389"><ele>84.0</ele><time>2026-03-28T10:48:17.818Z</time></trkpt><trkpt lat="45.3494875" lon="10.7046372"><ele>84.0</ele><time>2026-03-28T10:48:18.818Z</time></trkpt><trkpt lat="45.349478" lon="10.7048526"><ele>84.0</ele><time>2026-03-28T10:48:19.82Z</time></trkpt><trkpt lat="45.3494873" lon="10.7050635"><ele>84.0</ele><time>2026-03-28T10:48:20.818Z</time></trkpt><trkpt lat="45.3495205" lon="10.7052666"><ele>84.0</ele><time>2026-03-28T10:48:21.819Z</time></trkpt><trkpt lat="45.3495808" lon="10.7054514"><ele>84.66666666666667</ele><time>2026-03-28T10:48:22.818Z</time></trkpt><trkpt lat="45.3496672" lon="10.7056279"><ele>85.33333333333334</ele><time>2026-03-28T10:48:23.819Z</time></trkpt><trkpt lat="45.3497593" lon="10.7058043"><ele>86.0</ele><time>2026-03-28T10:48:24.819Z</time></trkpt><trkpt lat="45.3498521" lon="10.7059887"><ele>79.33333333333334</ele><time>2026-03-28T10:48:25.819Z</time></trkpt><trkpt lat="45.349951" lon="10.7061648"><ele>72.66666666666667</ele><time>2026-03-28T10:48:26.82Z</time></trkpt><trkpt lat="45.350043" lon="10.7063451"><ele>66.0</ele><time>2026-03-28T10:48:27.819Z</time></trkpt><trkpt lat="45.3501318" lon="10.7065315"><ele>66.0</ele><time>2026-03-28T10:48:28.82Z</time></trkpt><trkpt lat="45.3502232" lon="10.706727"><ele>66.0</ele><time>2026-03-28T10:48:29.819Z</time></trkpt><trkpt lat="45.3503144" lon="10.7069324"><ele>66.0</ele><time>2026-03-28T10:48:30.818Z</time></trkpt><trkpt lat="45.3504005" lon="10.7071443"><ele>66.0</ele><time>2026-03-28T10:48:31.819Z</time></trkpt><trkpt lat="45.3504866" lon="10.7073556"><ele>66.0</ele><time>2026-03-28T10:48:32.818Z</time></trkpt><trkpt lat="45.3505707" lon="10.7075643"><ele>66.0</ele><time>2026-03-28T10:48:33.819Z</time></trkpt><trkpt lat="45.350654" lon="10.7077606"><ele>67.66666666666667</ele><time>2026-03-28T10:48:34.818Z</time></trkpt><trkpt lat="45.3507358" lon="10.7079528"><ele>69.33333333333334</ele><time>2026-03-28T10:48:35.819Z</time></trkpt><trkpt lat="45.35082" lon="10.7081404"><ele>71.0</ele><time>2026-03-28T10:48:36.818Z</time></trkpt><trkpt lat="45.3508954" lon="10.7083315"><ele>71.0</ele><time>2026-03-28T10:48:37.819Z</time></trkpt><trkpt lat="45.3509662" lon="10.7085214"><ele>71.0</ele><time>2026-03-28T10:48:38.82Z</time></trkpt><trkpt lat="45.3510342" lon="10.7087173"><ele>71.0</ele><time>2026-03-28T10:48:39.819Z</time></trkpt><trkpt lat="45.351098" lon="10.7089123"><ele>70.33333333333334</ele><time>2026-03-28T10:48:40.819Z</time></trkpt><trkpt lat="45.351163" lon="10.7091123"><ele>69.66666666666667</ele><time>2026-03-28T10:48:41.819Z</time></trkpt><trkpt lat="45.3512218" lon="10.7093063"><ele>69.0</ele><time>2026-03-28T10:48:42.819Z</time></trkpt><trkpt lat="45.351282" lon="10.7095007"><ele>68.66666666666667</ele><time>2026-03-28T10:48:43.818Z</time></trkpt><trkpt lat="45.3513368" lon="10.7096961"><ele>68.33333333333334</ele><time>2026-03-28T10:48:44.819Z</time></trkpt><trkpt lat="45.3513963" lon="10.709897"><ele>68.0</ele><time>2026-03-28T10:48:45.819Z</time></trkpt><trkpt lat="45.351462" lon="10.7101028"><ele>67.33333333333334</ele><time>2026-03-28T10:48:46.82Z</time></trkpt><trkpt lat="45.351539" lon="10.7103165"><ele>66.66666666666667</ele><time>2026-03-28T10:48:47.818Z</time></trkpt><trkpt lat="45.3516229" lon="10.7105304"><ele>66.0</ele><time>2026-03-28T10:48:48.82Z</time></trkpt><trkpt lat="45.3517177" lon="10.7107386"><ele>66.0</ele><time>2026-03-28T10:48:49.819Z</time></trkpt><trkpt lat="45.3518258" lon="10.7109338"><ele>66.0</ele><time>2026-03-28T10:48:50.819Z</time></trkpt><trkpt lat="45.3519363" lon="10.7111201"><ele>66.0</ele><time>2026-03-28T10:48:51.818Z</time></trkpt><trkpt lat="45.3520488" lon="10.711304"><ele>66.33333333333333</ele><time>2026-03-28T10:48:52.818Z</time></trkpt><trkpt lat="45.3521595" lon="10.7114817"><ele>66.66666666666666</ele><time>2026-03-28T10:48:53.819Z</time></trkpt><trkpt lat="45.3522657" lon="10.711647"><ele>67.0</ele><time>2026-03-28T10:48:54.819Z</time></trkpt><trkpt lat="45.3523644" lon="10.7117975"><ele>67.0</ele><time>2026-03-28T10:48:55.819Z</time></trkpt><trkpt lat="45.3524458" lon="10.7119361"><ele>67.0</ele><time>2026-03-28T10:48:56.82Z</time></trkpt><trkpt lat="45.3525112" lon="10.7120607"><ele>67.0</ele><time>2026-03-28T10:48:57.819Z</time></trkpt><trkpt lat="45.3525639" lon="10.7121729"><ele>67.0</ele><time>2026-03-28T10:48:58.819Z</time></trkpt><trkpt lat="45.352603" lon="10.7122655"><ele>67.0</ele><time>2026-03-28T10:48:59.819Z</time></trkpt><trkpt lat="45.3526595" lon="10.7123793"><ele>67.0</ele><time>2026-03-28T10:49:00.818Z</time></trkpt><trkpt lat="45.3527247" lon="10.7125099"><ele>67.0</ele><time>2026-03-28T10:49:01.819Z</time></trkpt><trkpt lat="45.3527979" lon="10.7126485"><ele>67.0</ele><time>2026-03-28T10:49:02.819Z</time></trkpt><trkpt lat="45.3528844" lon="10.7127921"><ele>67.0</ele><time>2026-03-28T10:49:03.819Z</time></trkpt><trkpt lat="45.3529734" lon="10.7129392"><ele>67.25</ele><time>2026-03-28T10:49:04.82Z</time></trkpt><trkpt lat="45.3530663" lon="10.7130892"><ele>67.5</ele><time>2026-03-28T10:49:05.819Z</time></trkpt><trkpt lat="45.35316" lon="10.7132457"><ele>67.75</ele><time>2026-03-28T10:49:06.818Z</time></trkpt><trkpt lat="45.353252" lon="10.7134201"><ele>68.0</ele><time>2026-03-28T10:49:07.819Z</time></trkpt><trkpt lat="45.3533465" lon="10.7135995"><ele>68.0</ele><time>2026-03-28T10:49:08.819Z</time></trkpt><trkpt lat="45.3534499" lon="10.7137871"><ele>68.0</ele><time>2026-03-28T10:49:09.819Z</time></trkpt><trkpt lat="45.3535539" lon="10.7139908"><ele>68.0</ele><time>2026-03-28T10:49:10.819Z</time></trkpt><trkpt lat="45.3536354" lon="10.7142191"><ele>67.33333333333334</ele><time>2026-03-28T10:49:11.818Z</time></trkpt><trkpt lat="45.3536914" lon="10.7144757"><ele>66.66666666666667</ele><time>2026-03-28T10:49:12.818Z</time></trkpt><trkpt lat="45.353735" lon="10.7147436"><ele>66.0</ele><time>2026-03-28T10:49:13.819Z</time></trkpt><trkpt lat="45.3537691" lon="10.7150281"><ele>65.0</ele><time>2026-03-28T10:49:14.819Z</time></trkpt><trkpt lat="45.3537957" lon="10.7153147"><ele>64.0</ele><time>2026-03-28T10:49:15.818Z</time></trkpt><trkpt lat="45.3538036" lon="10.7156"><ele>63.0</ele><time>2026-03-28T10:49:16.819Z</time></trkpt><trkpt lat="45.3537957" lon="10.7158818"><ele>62.66666666666667</ele><time>2026-03-28T10:49:17.82Z</time></trkpt><trkpt lat="45.3537787" lon="10.7161627"><ele>62.333333333333336</ele><time>2026-03-28T10:49:18.819Z</time></trkpt><trkpt lat="45.3537733" lon="10.7164476"><ele>62.0</ele><time>2026-03-28T10:49:19.819Z</time></trkpt><trkpt lat="45.3537897" lon="10.7167358"><ele>61.333333333333336</ele><time>2026-03-28T10:49:20.819Z</time></trkpt><trkpt lat="45.3538277" lon="10.7170224"><ele>60.66666666666667</ele><time>2026-03-28T10:49:21.819Z</time></trkpt><trkpt lat="45.3538901" lon="10.7173097"><ele>60.0</ele><time>2026-03-28T10:49:22.818Z</time></trkpt><trkpt lat="45.3539854" lon="10.7175748"><ele>61.0</ele><time>2026-03-28T10:49:23.82Z</time></trkpt><trkpt lat="45.3541031" lon="10.7178195"><ele>62.0</ele><time>2026-03-28T10:49:24.818Z</time></trkpt><trkpt lat="45.3542311" lon="10.7180575"><ele>63.0</ele><time>2026-03-28T10:49:25.82Z</time></trkpt><trkpt lat="45.354355" lon="10.7182943"><ele>63.0</ele><time>2026-03-28T10:49:26.818Z</time></trkpt><trkpt lat="45.354479" lon="10.7185257"><ele>63.0</ele><time>2026-03-28T10:49:27.819Z</time></trkpt><trkpt lat="45.3546009" lon="10.7187516"><ele>63.0</ele><time>2026-03-28T10:49:28.819Z</time></trkpt><trkpt lat="45.3547193" lon="10.7189693"><ele>63.33333333333333</ele><time>2026-03-28T10:49:29.82Z</time></trkpt><trkpt lat="45.3548355" lon="10.719185"><ele>63.666666666666664</ele><time>2026-03-28T10:49:30.819Z</time></trkpt><trkpt lat="45.3549486" lon="10.7193929"><ele>64.0</ele><time>2026-03-28T10:49:31.818Z</time></trkpt><trkpt lat="45.3550607" lon="10.7196022"><ele>64.0</ele><time>2026-03-28T10:49:32.819Z</time></trkpt><trkpt lat="45.3551671" lon="10.7198082"><ele>64.0</ele><time>2026-03-28T10:49:33.819Z</time></trkpt><trkpt lat="45.3552739" lon="10.7200084"><ele>64.0</ele><time>2026-03-28T10:49:34.819Z</time></trkpt><trkpt lat="45.355375" lon="10.7201991"><ele>63.25</ele><time>2026-03-28T10:49:35.818Z</time></trkpt><trkpt lat="45.355467" lon="10.7203717"><ele>62.5</ele><time>2026-03-28T10:49:36.819Z</time></trkpt><trkpt lat="45.3555525" lon="10.7205303"><ele>61.75</ele><time>2026-03-28T10:49:37.818Z</time></trkpt><trkpt lat="45.3556286" lon="10.7206715"><ele>61.0</ele><time>2026-03-28T10:49:38.82Z</time></trkpt><trkpt lat="45.3556984" lon="10.7207998"><ele>61.49999999999999</ele><time>2026-03-28T10:49:39.819Z</time></trkpt><trkpt lat="45.355763" lon="10.7209175"><ele>62.0</ele><time>2026-03-28T10:49:40.819Z</time></trkpt><trkpt lat="45.3558198" lon="10.7210158"><ele>62.5</ele><time>2026-03-28T10:49:41.819Z</time></trkpt><trkpt lat="45.3558762" lon="10.7211067"><ele>63.0</ele><time>2026-03-28T10:49:42.818Z</time></trkpt><trkpt lat="45.3559333" lon="10.7211834"><ele>63.49999999999999</ele><time>2026-03-28T10:49:43.819Z</time></trkpt><trkpt lat="45.3559883" lon="10.7212496"><ele>64.0</ele><time>2026-03-28T10:49:44.818Z</time></trkpt><trkpt lat="45.3560407" lon="10.7213066"><ele>64.0</ele><time>2026-03-28T10:49:45.817Z</time></trkpt><trkpt lat="45.3561124" lon="10.721422"><ele>64.0</ele><time>2026-03-28T10:49:47.818Z</time></trkpt><trkpt lat="45.3561147" lon="10.7215723"><ele>64.0</ele><time>2026-03-28T10:49:49.818Z</time></trkpt><trkpt lat="45.356081" lon="10.7216796"><ele>64.0</ele><time>2026-03-28T10:49:50.818Z</time></trkpt><trkpt lat="45.3560344" lon="10.7218077"><ele>64.0</ele><time>2026-03-28T10:49:51.818Z</time></trkpt><trkpt lat="45.3559876" lon="10.7219454"><ele>63.0</ele><time>2026-03-28T10:49:52.818Z</time></trkpt><trkpt lat="45.3559398" lon="10.7220912"><ele>62.00000000000001</ele><time>2026-03-28T10:49:53.818Z</time></trkpt><trkpt lat="45.3558916" lon="10.7222344"><ele>61.00000000000001</ele><time>2026-03-28T10:49:54.818Z</time></trkpt><trkpt lat="45.3558421" lon="10.7223639"><ele>60.0</ele><time>2026-03-28T10:49:55.818Z</time></trkpt><trkpt lat="45.3557913" lon="10.7225095"><ele>59.0</ele><time>2026-03-28T10:49:56.819Z</time></trkpt><trkpt lat="45.3557416" lon="10.7226566"><ele>59.25</ele><time>2026-03-28T10:49:57.819Z</time></trkpt><trkpt lat="45.3556883" lon="10.7228109"><ele>59.5</ele><time>2026-03-28T10:49:58.818Z</time></trkpt><trkpt lat="45.3556332" lon="10.722962"><ele>59.75</ele><time>2026-03-28T10:49:59.817Z</time></trkpt><trkpt lat="45.3555771" lon="10.7231121"><ele>60.0</ele><time>2026-03-28T10:50:00.817Z</time></trkpt><trkpt lat="45.3555271" lon="10.7232456"><ele>60.0</ele><time>2026-03-28T10:50:01.818Z</time></trkpt><trkpt lat="45.3554794" lon="10.7233743"><ele>60.0</ele><time>2026-03-28T10:50:02.818Z</time></trkpt><trkpt lat="45.3554344" lon="10.7235035"><ele>60.0</ele><time>2026-03-28T10:50:03.818Z</time></trkpt><trkpt lat="45.3553897" lon="10.7236347"><ele>60.0</ele><time>2026-03-28T10:50:04.818Z</time></trkpt><trkpt lat="45.3553453" lon="10.7237634"><ele>60.0</ele><time>2026-03-28T10:50:05.818Z</time></trkpt><trkpt lat="45.3552984" lon="10.7238977"><ele>60.0</ele><time>2026-03-28T10:50:06.818Z</time></trkpt><trkpt lat="45.3552437" lon="10.7240467"><ele>60.0</ele><time>2026-03-28T10:50:07.818Z</time></trkpt><trkpt lat="45.3551889" lon="10.7241968"><ele>60.0</ele><time>2026-03-28T10:50:08.819Z</time></trkpt><trkpt lat="45.3551349" lon="10.7243523"><ele>60.0</ele><time>2026-03-28T10:50:09.818Z</time></trkpt><trkpt lat="45.3550855" lon="10.7245037"><ele>60.0</ele><time>2026-03-28T10:50:10.817Z</time></trkpt><trkpt lat="45.3550339" lon="10.7246526"><ele>60.0</ele><time>2026-03-28T10:50:11.818Z</time></trkpt><trkpt lat="45.3549811" lon="10.7248028"><ele>60.0</ele><time>2026-03-28T10:50:12.818Z</time></trkpt><trkpt lat="45.3549289" lon="10.7249506"><ele>60.0</ele><time>2026-03-28T10:50:13.818Z</time></trkpt><trkpt lat="45.3548762" lon="10.7250963"><ele>59.4</ele><time>2026-03-28T10:50:14.818Z</time></trkpt><trkpt lat="45.3548248" lon="10.7252395"><ele>58.8</ele><time>2026-03-28T10:50:15.817Z</time></trkpt><trkpt lat="45.3547785" lon="10.7253794"><ele>58.2</ele><time>2026-03-28T10:50:16.818Z</time></trkpt><trkpt lat="45.3547311" lon="10.7255205"><ele>57.6</ele><time>2026-03-28T10:50:17.819Z</time></trkpt><trkpt lat="45.3546874" lon="10.7256414"><ele>57.0</ele><time>2026-03-28T10:50:18.818Z</time></trkpt><trkpt lat="45.3546411" lon="10.7257424"><ele>57.0</ele><time>2026-03-28T10:50:19.819Z</time></trkpt><trkpt lat="45.3546003" lon="10.725833"><ele>57.0</ele><time>2026-03-28T10:50:20.818Z</time></trkpt><trkpt lat="45.3545593" lon="10.7259163"><ele>57.0</ele><time>2026-03-28T10:50:21.817Z</time></trkpt><trkpt lat="45.3545192" lon="10.7259894"><ele>57.0</ele><time>2026-03-28T10:50:22.819Z</time></trkpt><trkpt lat="45.3544646" lon="10.7261067"><ele>57.0</ele><time>2026-03-28T10:50:24.819Z</time></trkpt><trkpt lat="45.3544309" lon="10.7262139"><ele>57.0</ele><time>2026-03-28T10:50:26.819Z</time></trkpt><trkpt lat="45.3545058" lon="10.7261546"><ele>57.0</ele><time>2026-03-28T10:51:08.818Z</time></trkpt><trkpt lat="45.3545424" lon="10.7260043"><ele>57.0</ele><time>2026-03-28T10:51:10.818Z</time></trkpt><trkpt lat="45.3545874" lon="10.7258839"><ele>57.0</ele><time>2026-03-28T10:51:12.817Z</time></trkpt><trkpt lat="45.3546281" lon="10.7258115"><ele>57.0</ele><time>2026-03-28T10:51:13.817Z</time></trkpt><trkpt lat="45.3546622" lon="10.7257347"><ele>57.0</ele><time>2026-03-28T10:51:14.819Z</time></trkpt><trkpt lat="45.3547035" lon="10.7256156"><ele>57.0</ele><time>2026-03-28T10:51:16.817Z</time></trkpt><trkpt lat="45.354725" lon="10.7254974"><ele>57.0</ele><time>2026-03-28T10:51:19.819Z</time></trkpt><trkpt lat="45.3547367" lon="10.7254007"><ele>57.0</ele><time>2026-03-28T10:53:03.818Z</time></trkpt><trkpt lat="45.3547991" lon="10.7253116"><ele>57.0</ele><time>2026-03-28T10:55:12.818Z</time></trkpt><trkpt lat="45.3548487" lon="10.7252134"><ele>57.0</ele><time>2026-03-28T10:55:13.816Z</time></trkpt><trkpt lat="45.3549221" lon="10.7250579"><ele>57.0</ele><time>2026-03-28T10:55:14.817Z</time></trkpt><trkpt lat="45.3549728" lon="10.7249666"><ele>57.0</ele><time>2026-03-28T10:55:15.816Z</time></trkpt><trkpt lat="45.3550257" lon="10.7248932"><ele>57.0</ele><time>2026-03-28T10:55:17.817Z</time></trkpt><trkpt lat="45.3549497" lon="10.7249636"><ele>57.0</ele><time>2026-03-28T10:55:21.818Z</time></trkpt><trkpt lat="45.3549179" lon="10.725046"><ele>57.0</ele><time>2026-03-28T10:55:23.816Z</time></trkpt><trkpt lat="45.3548528" lon="10.7251359"><ele>57.0</ele><time>2026-03-28T10:55:38.818Z</time></trkpt><trkpt lat="45.3548019" lon="10.7252534"><ele>57.0</ele><time>2026-03-28T10:55:40.817Z</time></trkpt><trkpt lat="45.354754" lon="10.7254125"><ele>57.0</ele><time>2026-03-28T10:55:42.816Z</time></trkpt><trkpt lat="45.3547294" lon="10.7255003"><ele>57.0</ele><time>2026-03-28T10:55:43.816Z</time></trkpt><trkpt lat="45.3546909" lon="10.7255963"><ele>57.0</ele><time>2026-03-28T10:55:44.818Z</time></trkpt><trkpt lat="45.3546463" lon="10.7257007"><ele>57.0</ele><time>2026-03-28T10:55:45.817Z</time></trkpt><trkpt lat="45.3545954" lon="10.7258262"><ele>57.0</ele><time>2026-03-28T10:55:46.817Z</time></trkpt><trkpt lat="45.3545486" lon="10.7259656"><ele>57.0</ele><time>2026-03-28T10:55:47.818Z</time></trkpt><trkpt lat="45.3544951" lon="10.726122"><ele>57.5</ele><time>2026-03-28T10:55:48.816Z</time></trkpt><trkpt lat="45.3544416" lon="10.7262871"><ele>58.0</ele><time>2026-03-28T10:55:49.817Z</time></trkpt><trkpt lat="45.3543796" lon="10.7264618"><ele>58.5</ele><time>2026-03-28T10:55:50.818Z</time></trkpt><trkpt lat="45.3543161" lon="10.7266338"><ele>59.0</ele><time>2026-03-28T10:55:51.817Z</time></trkpt><trkpt lat="45.3542467" lon="10.7268039"><ele>59.25</ele><time>2026-03-28T10:55:52.816Z</time></trkpt><trkpt lat="45.3541768" lon="10.7269752"><ele>59.5</ele><time>2026-03-28T10:55:53.817Z</time></trkpt><trkpt lat="45.3541116" lon="10.727155"><ele>59.75</ele><time>2026-03-28T10:55:54.817Z</time></trkpt><trkpt lat="45.3540486" lon="10.7273378"><ele>60.0</ele><time>2026-03-28T10:55:55.816Z</time></trkpt><trkpt lat="45.3539928" lon="10.7274984"><ele>60.0</ele><time>2026-03-28T10:55:56.816Z</time></trkpt><trkpt lat="45.353937" lon="10.7276618"><ele>60.0</ele><time>2026-03-28T10:55:57.817Z</time></trkpt><trkpt lat="45.3538823" lon="10.7278307"><ele>60.0</ele><time>2026-03-28T10:55:58.817Z</time></trkpt><trkpt lat="45.3538306" lon="10.7279782"><ele>60.0</ele><time>2026-03-28T10:55:59.818Z</time></trkpt><trkpt lat="45.3537893" lon="10.7280909"><ele>63.2</ele><time>2026-03-28T10:56:00.816Z</time></trkpt><trkpt lat="45.3537502" lon="10.7281779"><ele>66.4</ele><time>2026-03-28T10:56:01.817Z</time></trkpt><trkpt lat="45.3536726" lon="10.7283096"><ele>69.6</ele><time>2026-03-28T10:56:03.817Z</time></trkpt><trkpt lat="45.3536512" lon="10.7284475"><ele>72.8</ele><time>2026-03-28T10:56:05.816Z</time></trkpt><trkpt lat="45.3536882" lon="10.7285341"><ele>76.0</ele><time>2026-03-28T10:56:06.817Z</time></trkpt><trkpt lat="45.3537789" lon="10.7286159"><ele>77.19999999999999</ele><time>2026-03-28T10:56:07.817Z</time></trkpt><trkpt lat="45.3538676" lon="10.7286801"><ele>78.39999999999999</ele><time>2026-03-28T10:56:08.818Z</time></trkpt><trkpt lat="45.3539661" lon="10.7287306"><ele>79.6</ele><time>2026-03-28T10:56:09.817Z</time></trkpt><trkpt lat="45.3540761" lon="10.7287783"><ele>80.8</ele><time>2026-03-28T10:56:10.817Z</time></trkpt><trkpt lat="45.3541915" lon="10.7288307"><ele>82.0</ele><time>2026-03-28T10:56:11.818Z</time></trkpt><trkpt lat="45.35431" lon="10.7288894"><ele>82.0</ele><time>2026-03-28T10:56:12.818Z</time></trkpt><trkpt lat="45.3544364" lon="10.72895"><ele>82.0</ele><time>2026-03-28T10:56:13.817Z</time></trkpt><trkpt lat="45.3545653" lon="10.7290076"><ele>82.0</ele><time>2026-03-28T10:56:14.817Z</time></trkpt><trkpt lat="45.3546976" lon="10.7290673"><ele>82.0</ele><time>2026-03-28T10:56:15.818Z</time></trkpt><trkpt lat="45.3548262" lon="10.7291187"><ele>81.5</ele><time>2026-03-28T10:56:16.816Z</time></trkpt><trkpt lat="45.3549529" lon="10.7291665"><ele>81.0</ele><time>2026-03-28T10:56:17.816Z</time></trkpt><trkpt lat="45.3550861" lon="10.729215"><ele>80.5</ele><time>2026-03-28T10:56:18.818Z</time></trkpt><trkpt lat="45.3552181" lon="10.7292562"><ele>80.0</ele><time>2026-03-28T10:56:19.816Z</time></trkpt><trkpt lat="45.3553544" lon="10.7292876"><ele>80.0</ele><time>2026-03-28T10:56:20.817Z</time></trkpt><trkpt lat="45.3554932" lon="10.72932"><ele>80.0</ele><time>2026-03-28T10:56:21.817Z</time></trkpt><trkpt lat="45.3556327" lon="10.7293444"><ele>80.0</ele><time>2026-03-28T10:56:22.816Z</time></trkpt><trkpt lat="45.3557695" lon="10.7293721"><ele>80.0</ele><time>2026-03-28T10:56:23.817Z</time></trkpt><trkpt lat="45.355905" lon="10.7293951"><ele>79.75</ele><time>2026-03-28T10:56:24.817Z</time></trkpt><trkpt lat="45.3560354" lon="10.7293983"><ele>79.5</ele><time>2026-03-28T10:56:25.817Z</time></trkpt><trkpt lat="45.3561652" lon="10.729392"><ele>79.25</ele><time>2026-03-28T10:56:26.817Z</time></trkpt><trkpt lat="45.3562916" lon="10.7293758"><ele>79.0</ele><time>2026-03-28T10:56:27.816Z</time></trkpt><trkpt lat="45.3564071" lon="10.7293323"><ele>79.80000000000001</ele><time>2026-03-28T10:56:28.817Z</time></trkpt><trkpt lat="45.3565034" lon="10.7293042"><ele>80.60000000000001</ele><time>2026-03-28T10:56:29.817Z</time></trkpt><trkpt lat="45.3565764" lon="10.7292985"><ele>81.4</ele><time>2026-03-28T10:56:30.816Z</time></trkpt><trkpt lat="45.3566319" lon="10.7294018"><ele>82.2</ele><time>2026-03-28T10:56:32.816Z</time></trkpt><trkpt lat="45.3565526" lon="10.7295238"><ele>83.0</ele><time>2026-03-28T10:56:34.817Z</time></trkpt><trkpt lat="45.3564748" lon="10.7295849"><ele>86.5</ele><time>2026-03-28T10:56:35.816Z</time></trkpt><trkpt lat="45.3563057" lon="10.7296056"><ele>90.0</ele><time>2026-03-28T10:56:36.817Z</time></trkpt><trkpt lat="45.3561822" lon="10.7296813"><ele>93.5</ele><time>2026-03-28T10:56:37.817Z</time></trkpt><trkpt lat="45.3560536" lon="10.7297491"><ele>97.0</ele><time>2026-03-28T10:56:38.817Z</time></trkpt><trkpt lat="45.3559498" lon="10.7298265"><ele>97.00000000000001</ele><time>2026-03-28T10:56:39.817Z</time></trkpt><trkpt lat="45.3558557" lon="10.7298973"><ele>97.0</ele><time>2026-03-28T10:56:40.817Z</time></trkpt><trkpt lat="45.3557849" lon="10.7299855"><ele>97.0</ele><time>2026-03-28T10:56:41.817Z</time></trkpt><trkpt lat="45.3557367" lon="10.7300759"><ele>97.0</ele><time>2026-03-28T10:56:42.817Z</time></trkpt><trkpt lat="45.3556975" lon="10.7301643"><ele>97.00000000000001</ele><time>2026-03-28T10:56:43.817Z</time></trkpt><trkpt lat="45.3556893" lon="10.7302667"><ele>97.0</ele><time>2026-03-28T10:56:44.817Z</time></trkpt><trkpt lat="45.3557022" lon="10.7303665"><ele>98.00000000000001</ele><time>2026-03-28T10:56:45.816Z</time></trkpt><trkpt lat="45.3557188" lon="10.7304632"><ele>99.0</ele><time>2026-03-28T10:56:46.816Z</time></trkpt><trkpt lat="45.3557422" lon="10.7305702"><ele>100.0</ele><time>2026-03-28T10:56:47.816Z</time></trkpt><trkpt lat="45.3557585" lon="10.7306828"><ele>101.0</ele><time>2026-03-28T10:56:48.818Z</time></trkpt><trkpt lat="45.3557745" lon="10.7307906"><ele>102.00000000000001</ele><time>2026-03-28T10:56:49.817Z</time></trkpt><trkpt lat="45.3557965" lon="10.7309018"><ele>103.0</ele><time>2026-03-28T10:56:50.817Z</time></trkpt><trkpt lat="45.3558224" lon="10.7310002"><ele>102.80000000000001</ele><time>2026-03-28T10:56:51.817Z</time></trkpt><trkpt lat="45.3558522" lon="10.7311645"><ele>102.6</ele><time>2026-03-28T10:56:53.817Z</time></trkpt><trkpt lat="45.3558764" lon="10.7313123"><ele>102.4</ele><time>2026-03-28T10:56:55.817Z</time></trkpt><trkpt lat="45.3559032" lon="10.7314359"><ele>102.19999999999999</ele><time>2026-03-28T10:56:57.818Z</time></trkpt><trkpt lat="45.3559092" lon="10.7315903"><ele>102.0</ele><time>2026-03-28T10:56:59.818Z</time></trkpt><trkpt lat="45.3558757" lon="10.7317551"><ele>102.0</ele><time>2026-03-28T10:57:01.816Z</time></trkpt><trkpt lat="45.3558511" lon="10.7318385"><ele>102.0</ele><time>2026-03-28T10:57:02.817Z</time></trkpt><trkpt lat="45.3558224" lon="10.7319202"><ele>102.0</ele><time>2026-03-28T10:57:03.816Z</time></trkpt><trkpt lat="45.3557696" lon="10.7320528"><ele>102.0</ele><time>2026-03-28T10:57:05.817Z</time></trkpt><trkpt lat="45.355736" lon="10.73215"><ele>102.0</ele><time>2026-03-28T10:57:08.818Z</time></trkpt><trkpt lat="45.3556911" lon="10.7322663"><ele>102.0</ele><time>2026-03-28T10:57:27.816Z</time></trkpt><trkpt lat="45.3556446" lon="10.7324016"><ele>100.6</ele><time>2026-03-28T10:57:29.815Z</time></trkpt><trkpt lat="45.3555732" lon="10.7325372"><ele>99.19999999999999</ele><time>2026-03-28T10:57:31.816Z</time></trkpt><trkpt lat="45.3555151" lon="10.7326397"><ele>97.8</ele><time>2026-03-28T10:57:33.815Z</time></trkpt><trkpt lat="45.3554632" lon="10.7327284"><ele>96.4</ele><time>2026-03-28T10:57:35.816Z</time></trkpt><trkpt lat="45.3554051" lon="10.7328079"><ele>95.0</ele><time>2026-03-28T10:57:37.815Z</time></trkpt><trkpt lat="45.3553653" lon="10.7329171"><ele>94.83333333333334</ele><time>2026-03-28T10:57:39.817Z</time></trkpt><trkpt lat="45.3553301" lon="10.7330162"><ele>94.66666666666667</ele><time>2026-03-28T10:57:41.816Z</time></trkpt><trkpt lat="45.3552852" lon="10.7331175"><ele>94.5</ele><time>2026-03-28T10:57:43.816Z</time></trkpt><trkpt lat="45.3552353" lon="10.7332197"><ele>94.33333333333333</ele><time>2026-03-28T10:57:45.816Z</time></trkpt><trkpt lat="45.355191" lon="10.733323"><ele>94.16666666666666</ele><time>2026-03-28T10:57:47.817Z</time></trkpt><trkpt lat="45.3551648" lon="10.7334141"><ele>94.0</ele><time>2026-03-28T10:57:49.816Z</time></trkpt><trkpt lat="45.3551329" lon="10.7335122"><ele>93.80000000000001</ele><time>2026-03-28T10:57:53.815Z</time></trkpt><trkpt lat="45.3551043" lon="10.7336356"><ele>93.60000000000001</ele><time>2026-03-28T10:57:56.817Z</time></trkpt><trkpt lat="45.3550787" lon="10.7337439"><ele>93.4</ele><time>2026-03-28T10:57:58.816Z</time></trkpt><trkpt lat="45.3550395" lon="10.7338697"><ele>93.2</ele><time>2026-03-28T10:58:00.815Z</time></trkpt><trkpt lat="45.3549806" lon="10.7339909"><ele>93.0</ele><time>2026-03-28T10:58:02.816Z</time></trkpt><trkpt lat="45.3549252" lon="10.7341039"><ele>93.0</ele><time>2026-03-28T10:58:04.817Z</time></trkpt><trkpt lat="45.3548727" lon="10.7342073"><ele>93.0</ele><time>2026-03-28T10:58:06.816Z</time></trkpt><trkpt lat="45.3548579" lon="10.7342997"><ele>93.0</ele><time>2026-03-28T10:58:08.815Z</time></trkpt><trkpt lat="45.3549258" lon="10.7343861"><ele>93.0</ele><time>2026-03-28T10:58:10.816Z</time></trkpt><trkpt lat="45.3550557" lon="10.7343899"><ele>93.0</ele><time>2026-03-28T10:58:12.816Z</time></trkpt><trkpt lat="45.3551291" lon="10.7343989"><ele>93.16666666666667</ele><time>2026-03-28T10:58:13.816Z</time></trkpt><trkpt lat="45.3552063" lon="10.7344197"><ele>93.33333333333333</ele><time>2026-03-28T10:58:14.817Z</time></trkpt><trkpt lat="45.3552797" lon="10.7344427"><ele>93.5</ele><time>2026-03-28T10:58:15.817Z</time></trkpt><trkpt lat="45.3553598" lon="10.7344763"><ele>93.66666666666666</ele><time>2026-03-28T10:58:16.815Z</time></trkpt><trkpt lat="45.3554351" lon="10.734509"><ele>93.83333333333333</ele><time>2026-03-28T10:58:17.816Z</time></trkpt><trkpt lat="45.3555117" lon="10.7345348"><ele>94.0</ele><time>2026-03-28T10:58:18.815Z</time></trkpt><trkpt lat="45.3555853" lon="10.7345705"><ele>94.0</ele><time>2026-03-28T10:58:19.816Z</time></trkpt><trkpt lat="45.3556626" lon="10.7346116"><ele>94.0</ele><time>2026-03-28T10:58:20.817Z</time></trkpt><trkpt lat="45.3557396" lon="10.7346462"><ele>94.0</ele><time>2026-03-28T10:58:21.815Z</time></trkpt><trkpt lat="45.3558165" lon="10.7346841"><ele>94.0</ele><time>2026-03-28T10:58:22.816Z</time></trkpt><trkpt lat="45.3558869" lon="10.7347276"><ele>94.0</ele><time>2026-03-28T10:58:23.816Z</time></trkpt><trkpt lat="45.3559513" lon="10.7347711"><ele>94.0</ele><time>2026-03-28T10:58:24.816Z</time></trkpt><trkpt lat="45.3560213" lon="10.7348039"><ele>94.0</ele><time>2026-03-28T10:58:25.815Z</time></trkpt><trkpt lat="45.3560873" lon="10.7348357"><ele>94.0</ele><time>2026-03-28T10:58:26.816Z</time></trkpt><trkpt lat="45.3561518" lon="10.7348655"><ele>94.0</ele><time>2026-03-28T10:58:27.816Z</time></trkpt><trkpt lat="45.3562721" lon="10.7349109"><ele>94.0</ele><time>2026-03-28T10:58:29.816Z</time></trkpt><trkpt lat="45.3563365" lon="10.734932"><ele>94.0</ele><time>2026-03-28T10:58:30.815Z</time></trkpt><trkpt lat="45.3564011" lon="10.7349532"><ele>94.0</ele><time>2026-03-28T10:58:31.816Z</time></trkpt><trkpt lat="45.356474" lon="10.7349765"><ele>93.83333333333333</ele><time>2026-03-28T10:58:32.816Z</time></trkpt><trkpt lat="45.3565515" lon="10.7349942"><ele>93.66666666666666</ele><time>2026-03-28T10:58:33.816Z</time></trkpt><trkpt lat="45.3566255" lon="10.7350169"><ele>93.5</ele><time>2026-03-28T10:58:34.816Z</time></trkpt><trkpt lat="45.356702" lon="10.7350346"><ele>93.33333333333333</ele><time>2026-03-28T10:58:35.817Z</time></trkpt><trkpt lat="45.35678" lon="10.7350474"><ele>93.16666666666667</ele><time>2026-03-28T10:58:36.816Z</time></trkpt><trkpt lat="45.3568567" lon="10.7350523"><ele>93.0</ele><time>2026-03-28T10:58:37.816Z</time></trkpt><trkpt lat="45.3569308" lon="10.7350613"><ele>93.0</ele><time>2026-03-28T10:58:38.815Z</time></trkpt><trkpt lat="45.3569982" lon="10.7350657"><ele>93.0</ele><time>2026-03-28T10:58:39.816Z</time></trkpt><trkpt lat="45.3570696" lon="10.7350606"><ele>93.0</ele><time>2026-03-28T10:58:40.815Z</time></trkpt><trkpt lat="45.3571378" lon="10.7350652"><ele>93.0</ele><time>2026-03-28T10:58:41.816Z</time></trkpt><trkpt lat="45.3572634" lon="10.7350557"><ele>93.0</ele><time>2026-03-28T10:58:43.816Z</time></trkpt><trkpt lat="45.3573795" lon="10.7350259"><ele>93.0</ele><time>2026-03-28T10:58:45.815Z</time></trkpt><trkpt lat="45.3574942" lon="10.7350182"><ele>93.0</ele><time>2026-03-28T10:58:47.816Z</time></trkpt><trkpt lat="45.357556" lon="10.7350001"><ele>93.0</ele><time>2026-03-28T10:58:48.816Z</time></trkpt><trkpt lat="45.3576405" lon="10.734985"><ele>93.0</ele><time>2026-03-28T10:58:50.816Z</time></trkpt><trkpt lat="45.3577081" lon="10.7349603"><ele>93.0</ele><time>2026-03-28T10:58:52.815Z</time></trkpt><trkpt lat="45.3578299" lon="10.7349404"><ele>93.0</ele><time>2026-03-28T10:58:54.816Z</time></trkpt><trkpt lat="45.3579127" lon="10.7349461"><ele>93.0</ele><time>2026-03-28T10:58:55.816Z</time></trkpt><trkpt lat="45.3580021" lon="10.7349447"><ele>93.0</ele><time>2026-03-28T10:58:56.816Z</time></trkpt><trkpt lat="45.3581057" lon="10.7349318"><ele>93.0</ele><time>2026-03-28T10:58:57.816Z</time></trkpt><trkpt lat="45.3582151" lon="10.7349147"><ele>93.0</ele><time>2026-03-28T10:58:58.816Z</time></trkpt><trkpt lat="45.3583326" lon="10.734912"><ele>93.75</ele><time>2026-03-28T10:58:59.816Z</time></trkpt><trkpt lat="45.3584607" lon="10.7349227"><ele>94.5</ele><time>2026-03-28T10:59:00.816Z</time></trkpt><trkpt lat="45.3585922" lon="10.7349331"><ele>95.25</ele><time>2026-03-28T10:59:01.815Z</time></trkpt><trkpt lat="45.3587183" lon="10.7349445"><ele>96.0</ele><time>2026-03-28T10:59:02.816Z</time></trkpt><trkpt lat="45.3588421" lon="10.7349602"><ele>96.25</ele><time>2026-03-28T10:59:03.816Z</time></trkpt><trkpt lat="45.3589679" lon="10.7349774"><ele>96.5</ele><time>2026-03-28T10:59:04.816Z</time></trkpt><trkpt lat="45.3590916" lon="10.7350007"><ele>96.75</ele><time>2026-03-28T10:59:05.816Z</time></trkpt><trkpt lat="45.3592117" lon="10.7350182"><ele>97.0</ele><time>2026-03-28T10:59:06.816Z</time></trkpt><trkpt lat="45.3593348" lon="10.7350397"><ele>97.0</ele><time>2026-03-28T10:59:07.815Z</time></trkpt><trkpt lat="45.3594573" lon="10.7350559"><ele>97.0</ele><time>2026-03-28T10:59:08.817Z</time></trkpt><trkpt lat="45.3595668" lon="10.7350724"><ele>97.0</ele><time>2026-03-28T10:59:09.816Z</time></trkpt><trkpt lat="45.3596593" lon="10.7350807"><ele>97.0</ele><time>2026-03-28T10:59:10.816Z</time></trkpt><trkpt lat="45.3597389" lon="10.7350937"><ele>97.0</ele><time>2026-03-28T10:59:11.816Z</time></trkpt><trkpt lat="45.3598165" lon="10.7351104"><ele>96.8</ele><time>2026-03-28T10:59:12.816Z</time></trkpt><trkpt lat="45.3599234" lon="10.7351431"><ele>96.6</ele><time>2026-03-28T10:59:14.815Z</time></trkpt><trkpt lat="45.3599541" lon="10.7352859"><ele>96.39999999999999</ele><time>2026-03-28T10:59:16.816Z</time></trkpt><trkpt lat="45.3599431" lon="10.7353868"><ele>96.19999999999999</ele><time>2026-03-28T10:59:17.817Z</time></trkpt><trkpt lat="45.3599296" lon="10.7355024"><ele>96.0</ele><time>2026-03-28T10:59:18.816Z</time></trkpt><trkpt lat="45.3599214" lon="10.7356254"><ele>95.6</ele><time>2026-03-28T10:59:19.816Z</time></trkpt><trkpt lat="45.3599157" lon="10.7357479"><ele>95.19999999999999</ele><time>2026-03-28T10:59:20.816Z</time></trkpt><trkpt lat="45.3599124" lon="10.7358619"><ele>94.80000000000001</ele><time>2026-03-28T10:59:21.816Z</time></trkpt><trkpt lat="45.3599016" lon="10.7359906"><ele>94.4</ele><time>2026-03-28T10:59:22.815Z</time></trkpt><trkpt lat="45.3598847" lon="10.7361316"><ele>94.0</ele><time>2026-03-28T10:59:23.815Z</time></trkpt><trkpt lat="45.3598678" lon="10.7362751"><ele>94.0</ele><time>2026-03-28T10:59:24.816Z</time></trkpt><trkpt lat="45.3598521" lon="10.7364293"><ele>94.0</ele><time>2026-03-28T10:59:25.815Z</time></trkpt><trkpt lat="45.3598405" lon="10.7365939"><ele>94.0</ele><time>2026-03-28T10:59:26.817Z</time></trkpt><trkpt lat="45.3598283" lon="10.7367614"><ele>94.0</ele><time>2026-03-28T10:59:27.816Z</time></trkpt><trkpt lat="45.3598166" lon="10.7369335"><ele>94.0</ele><time>2026-03-28T10:59:28.816Z</time></trkpt><trkpt lat="45.3598064" lon="10.7370999"><ele>94.0</ele><time>2026-03-28T10:59:29.816Z</time></trkpt><trkpt lat="45.3597973" lon="10.7372645"><ele>94.0</ele><time>2026-03-28T10:59:30.816Z</time></trkpt><trkpt lat="45.3597879" lon="10.7374295"><ele>94.0</ele><time>2026-03-28T10:59:31.817Z</time></trkpt><trkpt lat="45.3597767" lon="10.737574"><ele>94.0</ele><time>2026-03-28T10:59:32.815Z</time></trkpt><trkpt lat="45.3597668" lon="10.7376884"><ele>94.0</ele><time>2026-03-28T10:59:33.816Z</time></trkpt><trkpt lat="45.3597562" lon="10.7377863"><ele>94.0</ele><time>2026-03-28T10:59:34.816Z</time></trkpt><trkpt lat="45.3597386" lon="10.737936"><ele>94.0</ele><time>2026-03-28T10:59:36.816Z</time></trkpt><trkpt lat="45.3597067" lon="10.7380642"><ele>94.0</ele><time>2026-03-28T10:59:38.816Z</time></trkpt><trkpt lat="45.3597136" lon="10.7382423"><ele>93.80000000000001</ele><time>2026-03-28T10:59:40.817Z</time></trkpt><trkpt lat="45.3597431" lon="10.738344"><ele>93.60000000000001</ele><time>2026-03-28T10:59:41.815Z</time></trkpt><trkpt lat="45.3597797" lon="10.7384708"><ele>93.4</ele><time>2026-03-28T10:59:42.816Z</time></trkpt><trkpt lat="45.3598017" lon="10.7386224"><ele>93.2</ele><time>2026-03-28T10:59:43.816Z</time></trkpt><trkpt lat="45.3598219" lon="10.7387671"><ele>93.0</ele><time>2026-03-28T10:59:44.816Z</time></trkpt><trkpt lat="45.3598453" lon="10.7388957"><ele>93.0</ele><time>2026-03-28T10:59:45.815Z</time></trkpt><trkpt lat="45.3598541" lon="10.7390137"><ele>93.0</ele><time>2026-03-28T10:59:46.816Z</time></trkpt><trkpt lat="45.3598717" lon="10.7391197"><ele>93.0</ele><time>2026-03-28T10:59:47.817Z</time></trkpt><trkpt lat="45.35993" lon="10.7392003"><ele>93.0</ele><time>2026-03-28T10:59:48.816Z</time></trkpt><trkpt lat="45.3600175" lon="10.7392624"><ele>93.0</ele><time>2026-03-28T10:59:49.816Z</time></trkpt><trkpt lat="45.3601292" lon="10.7393169"><ele>93.25</ele><time>2026-03-28T10:59:50.815Z</time></trkpt><trkpt lat="45.3602428" lon="10.7393899"><ele>93.5</ele><time>2026-03-28T10:59:51.816Z</time></trkpt><trkpt lat="45.3603565" lon="10.73947"><ele>93.75</ele><time>2026-03-28T10:59:52.817Z</time></trkpt><trkpt lat="45.3604527" lon="10.739535"><ele>94.0</ele><time>2026-03-28T10:59:53.817Z</time></trkpt><trkpt lat="45.3605592" lon="10.7396017"><ele>94.5</ele><time>2026-03-28T10:59:54.817Z</time></trkpt><trkpt lat="45.360664" lon="10.739662"><ele>95.0</ele><time>2026-03-28T10:59:55.816Z</time></trkpt><trkpt lat="45.3607649" lon="10.7397193"><ele>95.5</ele><time>2026-03-28T10:59:56.816Z</time></trkpt><trkpt lat="45.3608603" lon="10.7398173"><ele>96.0</ele><time>2026-03-28T10:59:57.817Z</time></trkpt><trkpt lat="45.3609424" lon="10.7399533"><ele>96.0</ele><time>2026-03-28T10:59:58.817Z</time></trkpt><trkpt lat="45.3610176" lon="10.7401142"><ele>96.0</ele><time>2026-03-28T10:59:59.815Z</time></trkpt><trkpt lat="45.3610912" lon="10.740295"><ele>96.0</ele><time>2026-03-28T11:00:00.815Z</time></trkpt><trkpt lat="45.3611688" lon="10.7404835"><ele>96.0</ele><time>2026-03-28T11:00:01.817Z</time></trkpt><trkpt lat="45.3612456" lon="10.7406766"><ele>96.0</ele><time>2026-03-28T11:00:02.817Z</time></trkpt><trkpt lat="45.3613241" lon="10.7408739"><ele>96.0</ele><time>2026-03-28T11:00:03.817Z</time></trkpt><trkpt lat="45.3613984" lon="10.7410775"><ele>96.0</ele><time>2026-03-28T11:00:04.816Z</time></trkpt><trkpt lat="45.361473" lon="10.7412811"><ele>94.66666666666667</ele><time>2026-03-28T11:00:05.816Z</time></trkpt><trkpt lat="45.3615482" lon="10.7414904"><ele>93.33333333333334</ele><time>2026-03-28T11:00:06.816Z</time></trkpt><trkpt lat="45.3616142" lon="10.7416999"><ele>92.0</ele><time>2026-03-28T11:00:07.816Z</time></trkpt><trkpt lat="45.3616752" lon="10.7419144"><ele>92.0</ele><time>2026-03-28T11:00:08.816Z</time></trkpt><trkpt lat="45.3617315" lon="10.7421276"><ele>92.0</ele><time>2026-03-28T11:00:09.815Z</time></trkpt><trkpt lat="45.3617912" lon="10.7423438"><ele>92.0</ele><time>2026-03-28T11:00:10.816Z</time></trkpt><trkpt lat="45.3618529" lon="10.7425608"><ele>92.0</ele><time>2026-03-28T11:00:11.816Z</time></trkpt><trkpt lat="45.3619151" lon="10.7427786"><ele>92.0</ele><time>2026-03-28T11:00:12.815Z</time></trkpt><trkpt lat="45.3619793" lon="10.7430007"><ele>92.0</ele><time>2026-03-28T11:00:13.816Z</time></trkpt><trkpt lat="45.3620439" lon="10.743221"><ele>92.0</ele><time>2026-03-28T11:00:14.816Z</time></trkpt><trkpt lat="45.3621111" lon="10.7434396"><ele>92.0</ele><time>2026-03-28T11:00:15.815Z</time></trkpt><trkpt lat="45.3621838" lon="10.7436598"><ele>92.0</ele><time>2026-03-28T11:00:16.816Z</time></trkpt><trkpt lat="45.3622596" lon="10.7438815"><ele>92.33333333333334</ele><time>2026-03-28T11:00:17.815Z</time></trkpt><trkpt lat="45.3623348" lon="10.7441075"><ele>92.66666666666667</ele><time>2026-03-28T11:00:18.817Z</time></trkpt><trkpt lat="45.362407" lon="10.744339"><ele>93.0</ele><time>2026-03-28T11:00:19.817Z</time></trkpt><trkpt lat="45.3624773" lon="10.7445726"><ele>93.0</ele><time>2026-03-28T11:00:20.817Z</time></trkpt><trkpt lat="45.3625473" lon="10.7448044"><ele>93.0</ele><time>2026-03-28T11:00:21.816Z</time></trkpt><trkpt lat="45.3626136" lon="10.7450365"><ele>93.0</ele><time>2026-03-28T11:00:22.816Z</time></trkpt><trkpt lat="45.3626792" lon="10.7452693"><ele>93.0</ele><time>2026-03-28T11:00:23.816Z</time></trkpt><trkpt lat="45.3627442" lon="10.7455035"><ele>93.0</ele><time>2026-03-28T11:00:24.817Z</time></trkpt><trkpt lat="45.3628107" lon="10.7457368"><ele>93.0</ele><time>2026-03-28T11:00:25.817Z</time></trkpt><trkpt lat="45.3628802" lon="10.7459656"><ele>92.66666666666667</ele><time>2026-03-28T11:00:26.816Z</time></trkpt><trkpt lat="45.3629554" lon="10.7461927"><ele>92.33333333333334</ele><time>2026-03-28T11:00:27.816Z</time></trkpt><trkpt lat="45.3630346" lon="10.7464182"><ele>92.0</ele><time>2026-03-28T11:00:28.815Z</time></trkpt><trkpt lat="45.3631192" lon="10.7466383"><ele>92.0</ele><time>2026-03-28T11:00:29.816Z</time></trkpt><trkpt lat="45.3632112" lon="10.7468509"><ele>92.0</ele><time>2026-03-28T11:00:30.816Z</time></trkpt><trkpt lat="45.3633109" lon="10.7470557"><ele>92.0</ele><time>2026-03-28T11:00:31.816Z</time></trkpt><trkpt lat="45.3634161" lon="10.7472561"><ele>92.0</ele><time>2026-03-28T11:00:32.816Z</time></trkpt><trkpt lat="45.3635249" lon="10.7474513"><ele>92.0</ele><time>2026-03-28T11:00:33.816Z</time></trkpt><trkpt lat="45.3636384" lon="10.7476405"><ele>92.0</ele><time>2026-03-28T11:00:34.816Z</time></trkpt><trkpt lat="45.3637515" lon="10.7478329"><ele>92.0</ele><time>2026-03-28T11:00:35.816Z</time></trkpt><trkpt lat="45.3638564" lon="10.7480366"><ele>92.0</ele><time>2026-03-28T11:00:36.816Z</time></trkpt><trkpt lat="45.3639505" lon="10.748254"><ele>92.0</ele><time>2026-03-28T11:00:37.815Z</time></trkpt><trkpt lat="45.3640428" lon="10.7484699"><ele>92.33333333333334</ele><time>2026-03-28T11:00:38.815Z</time></trkpt><trkpt lat="45.3641313" lon="10.7486883"><ele>92.66666666666667</ele><time>2026-03-28T11:00:39.817Z</time></trkpt><trkpt lat="45.3642245" lon="10.7489071"><ele>93.0</ele><time>2026-03-28T11:00:40.816Z</time></trkpt><trkpt lat="45.3643135" lon="10.7491204"><ele>93.0</ele><time>2026-03-28T11:00:41.817Z</time></trkpt><trkpt lat="45.364405" lon="10.7493378"><ele>93.0</ele><time>2026-03-28T11:00:42.816Z</time></trkpt><trkpt lat="45.3644916" lon="10.7495538"><ele>93.0</ele><time>2026-03-28T11:00:43.815Z</time></trkpt><trkpt lat="45.3645802" lon="10.7497711"><ele>93.0</ele><time>2026-03-28T11:00:44.816Z</time></trkpt><trkpt lat="45.3646694" lon="10.7499881"><ele>93.0</ele><time>2026-03-28T11:00:45.816Z</time></trkpt><trkpt lat="45.3647618" lon="10.7502037"><ele>93.0</ele><time>2026-03-28T11:00:46.816Z</time></trkpt><trkpt lat="45.3648555" lon="10.750413"><ele>93.33333333333333</ele><time>2026-03-28T11:00:47.816Z</time></trkpt><trkpt lat="45.3649515" lon="10.7506264"><ele>93.66666666666666</ele><time>2026-03-28T11:00:48.817Z</time></trkpt><trkpt lat="45.3650509" lon="10.7508364"><ele>94.0</ele><time>2026-03-28T11:00:49.815Z</time></trkpt><trkpt lat="45.3651517" lon="10.7510443"><ele>94.0</ele><time>2026-03-28T11:00:50.816Z</time></trkpt><trkpt lat="45.3652537" lon="10.7512497"><ele>94.0</ele><time>2026-03-28T11:00:51.817Z</time></trkpt><trkpt lat="45.3653628" lon="10.7514531"><ele>94.0</ele><time>2026-03-28T11:00:52.816Z</time></trkpt><trkpt lat="45.3654724" lon="10.7516562"><ele>94.0</ele><time>2026-03-28T11:00:53.816Z</time></trkpt><trkpt lat="45.3655839" lon="10.7518642"><ele>94.0</ele><time>2026-03-28T11:00:54.816Z</time></trkpt><trkpt lat="45.3656906" lon="10.7520743"><ele>94.0</ele><time>2026-03-28T11:00:55.816Z</time></trkpt><trkpt lat="45.3657911" lon="10.7522897"><ele>94.0</ele><time>2026-03-28T11:00:56.816Z</time></trkpt><trkpt lat="45.3658892" lon="10.752506"><ele>94.0</ele><time>2026-03-28T11:00:57.815Z</time></trkpt><trkpt lat="45.3659863" lon="10.752724"><ele>94.0</ele><time>2026-03-28T11:00:58.815Z</time></trkpt><trkpt lat="45.3660815" lon="10.752942"><ele>94.0</ele><time>2026-03-28T11:00:59.815Z</time></trkpt><trkpt lat="45.3661757" lon="10.7531612"><ele>94.0</ele><time>2026-03-28T11:01:00.816Z</time></trkpt><trkpt lat="45.3662642" lon="10.7533848"><ele>94.0</ele><time>2026-03-28T11:01:01.815Z</time></trkpt><trkpt lat="45.366344" lon="10.7536104"><ele>93.66666666666666</ele><time>2026-03-28T11:01:02.816Z</time></trkpt><trkpt lat="45.3664207" lon="10.753841"><ele>93.33333333333333</ele><time>2026-03-28T11:01:03.815Z</time></trkpt><trkpt lat="45.3664941" lon="10.7540719"><ele>93.0</ele><time>2026-03-28T11:01:04.816Z</time></trkpt><trkpt lat="45.3665719" lon="10.7542973"><ele>93.66666666666667</ele><time>2026-03-28T11:01:05.816Z</time></trkpt><trkpt lat="45.3666539" lon="10.7545162"><ele>94.33333333333334</ele><time>2026-03-28T11:01:06.816Z</time></trkpt><trkpt lat="45.3667416" lon="10.7547294"><ele>95.0</ele><time>2026-03-28T11:01:07.816Z</time></trkpt><trkpt lat="45.3668367" lon="10.7549309"><ele>95.0</ele><time>2026-03-28T11:01:08.815Z</time></trkpt><trkpt lat="45.3669296" lon="10.7551244"><ele>95.0</ele><time>2026-03-28T11:01:09.816Z</time></trkpt><trkpt lat="45.3670271" lon="10.755315"><ele>95.0</ele><time>2026-03-28T11:01:10.816Z</time></trkpt><trkpt lat="45.3671217" lon="10.7555057"><ele>95.0</ele><time>2026-03-28T11:01:11.815Z</time></trkpt><trkpt lat="45.3672172" lon="10.7556964"><ele>95.0</ele><time>2026-03-28T11:01:12.816Z</time></trkpt><trkpt lat="45.3673071" lon="10.7558917"><ele>95.0</ele><time>2026-03-28T11:01:13.817Z</time></trkpt><trkpt lat="45.3674016" lon="10.756084"><ele>95.0</ele><time>2026-03-28T11:01:14.815Z</time></trkpt><trkpt lat="45.3674906" lon="10.7562663"><ele>95.0</ele><time>2026-03-28T11:01:15.816Z</time></trkpt><trkpt lat="45.3675801" lon="10.7564444"><ele>95.0</ele><time>2026-03-28T11:01:16.816Z</time></trkpt><trkpt lat="45.3676702" lon="10.7566205"><ele>95.0</ele><time>2026-03-28T11:01:17.816Z</time></trkpt><trkpt lat="45.367753" lon="10.756793"><ele>95.0</ele><time>2026-03-28T11:01:18.816Z</time></trkpt><trkpt lat="45.3678095" lon="10.7569734"><ele>95.0</ele><time>2026-03-28T11:01:19.816Z</time></trkpt><trkpt lat="45.3678432" lon="10.7571694"><ele>95.0</ele><time>2026-03-28T11:01:20.816Z</time></trkpt><trkpt lat="45.3678679" lon="10.7573713"><ele>95.25</ele><time>2026-03-28T11:01:21.816Z</time></trkpt><trkpt lat="45.3678898" lon="10.757569"><ele>95.5</ele><time>2026-03-28T11:01:22.816Z</time></trkpt><trkpt lat="45.367915" lon="10.7577616"><ele>95.75</ele><time>2026-03-28T11:01:23.815Z</time></trkpt><trkpt lat="45.3679421" lon="10.7579543"><ele>96.0</ele><time>2026-03-28T11:01:24.816Z</time></trkpt><trkpt lat="45.3679749" lon="10.758145"><ele>96.25</ele><time>2026-03-28T11:01:25.816Z</time></trkpt><trkpt lat="45.3680085" lon="10.7583392"><ele>96.5</ele><time>2026-03-28T11:01:26.815Z</time></trkpt><trkpt lat="45.3680366" lon="10.7585347"><ele>96.75</ele><time>2026-03-28T11:01:27.816Z</time></trkpt><trkpt lat="45.3680672" lon="10.7587348"><ele>97.0</ele><time>2026-03-28T11:01:28.817Z</time></trkpt><trkpt lat="45.3681025" lon="10.758931"><ele>97.0</ele><time>2026-03-28T11:01:29.816Z</time></trkpt><trkpt lat="45.3681382" lon="10.759131"><ele>97.0</ele><time>2026-03-28T11:01:30.816Z</time></trkpt><trkpt lat="45.3681691" lon="10.7593328"><ele>97.0</ele><time>2026-03-28T11:01:31.816Z</time></trkpt><trkpt lat="45.3681976" lon="10.7595344"><ele>97.0</ele><time>2026-03-28T11:01:32.816Z</time></trkpt><trkpt lat="45.368225" lon="10.759733"><ele>97.0</ele><time>2026-03-28T11:01:33.817Z</time></trkpt><trkpt lat="45.3682546" lon="10.759937"><ele>97.0</ele><time>2026-03-28T11:01:34.816Z</time></trkpt><trkpt lat="45.3682882" lon="10.7601415"><ele>97.0</ele><time>2026-03-28T11:01:35.816Z</time></trkpt><trkpt lat="45.3683254" lon="10.7603481"><ele>97.0</ele><time>2026-03-28T11:01:36.815Z</time></trkpt><trkpt lat="45.3683662" lon="10.7605435"><ele>97.0</ele><time>2026-03-28T11:01:37.817Z</time></trkpt><trkpt lat="45.3684096" lon="10.7607297"><ele>97.0</ele><time>2026-03-28T11:01:38.816Z</time></trkpt><trkpt lat="45.3684596" lon="10.7609119"><ele>97.0</ele><time>2026-03-28T11:01:39.816Z</time></trkpt><trkpt lat="45.3685151" lon="10.7610896"><ele>97.0</ele><time>2026-03-28T11:01:40.816Z</time></trkpt><trkpt lat="45.3685766" lon="10.7612671"><ele>97.0</ele><time>2026-03-28T11:01:41.815Z</time></trkpt><trkpt lat="45.3686368" lon="10.761453"><ele>97.0</ele><time>2026-03-28T11:01:42.815Z</time></trkpt><trkpt lat="45.3686994" lon="10.7616468"><ele>97.0</ele><time>2026-03-28T11:01:43.816Z</time></trkpt><trkpt lat="45.3687631" lon="10.7618415"><ele>97.0</ele><time>2026-03-28T11:01:44.816Z</time></trkpt><trkpt lat="45.3688277" lon="10.7620401"><ele>97.66666666666667</ele><time>2026-03-28T11:01:45.816Z</time></trkpt><trkpt lat="45.368895" lon="10.7622408"><ele>98.33333333333334</ele><time>2026-03-28T11:01:46.817Z</time></trkpt><trkpt lat="45.368959" lon="10.7624475"><ele>99.0</ele><time>2026-03-28T11:01:47.815Z</time></trkpt><trkpt lat="45.3690211" lon="10.762658"><ele>98.0</ele><time>2026-03-28T11:01:48.816Z</time></trkpt><trkpt lat="45.3690818" lon="10.7628701"><ele>97.0</ele><time>2026-03-28T11:01:49.816Z</time></trkpt><trkpt lat="45.3691381" lon="10.763083"><ele>96.0</ele><time>2026-03-28T11:01:50.817Z</time></trkpt><trkpt lat="45.3691926" lon="10.7632965"><ele>96.0</ele><time>2026-03-28T11:01:51.816Z</time></trkpt><trkpt lat="45.3692381" lon="10.7635144"><ele>96.0</ele><time>2026-03-28T11:01:52.817Z</time></trkpt><trkpt lat="45.3692674" lon="10.7637351"><ele>96.0</ele><time>2026-03-28T11:01:53.816Z</time></trkpt><trkpt lat="45.3692685" lon="10.7639638"><ele>96.33333333333334</ele><time>2026-03-28T11:01:54.815Z</time></trkpt><trkpt lat="45.3692495" lon="10.7641941"><ele>96.66666666666667</ele><time>2026-03-28T11:01:55.815Z</time></trkpt><trkpt lat="45.3692324" lon="10.7644216"><ele>97.0</ele><time>2026-03-28T11:01:56.816Z</time></trkpt><trkpt lat="45.3692264" lon="10.7646338"><ele>97.0</ele><time>2026-03-28T11:01:57.816Z</time></trkpt><trkpt lat="45.3692278" lon="10.76483"><ele>97.0</ele><time>2026-03-28T11:01:58.814Z</time></trkpt><trkpt lat="45.3692315" lon="10.765017"><ele>97.0</ele><time>2026-03-28T11:01:59.814Z</time></trkpt><trkpt lat="45.3692147" lon="10.7651997"><ele>97.0</ele><time>2026-03-28T11:02:00.814Z</time></trkpt><trkpt lat="45.3691824" lon="10.7653869"><ele>97.0</ele><time>2026-03-28T11:02:01.814Z</time></trkpt><trkpt lat="45.3691275" lon="10.7655724"><ele>97.0</ele><time>2026-03-28T11:02:02.816Z</time></trkpt><trkpt lat="45.3690531" lon="10.7657676"><ele>97.0</ele><time>2026-03-28T11:02:03.815Z</time></trkpt><trkpt lat="45.3689666" lon="10.7659593"><ele>97.33333333333334</ele><time>2026-03-28T11:02:04.814Z</time></trkpt><trkpt lat="45.368889" lon="10.7661553"><ele>97.66666666666666</ele><time>2026-03-28T11:02:05.816Z</time></trkpt><trkpt lat="45.3688195" lon="10.7663655"><ele>98.0</ele><time>2026-03-28T11:02:06.815Z</time></trkpt><trkpt lat="45.3687509" lon="10.7665837"><ele>96.33333333333333</ele><time>2026-03-28T11:02:07.815Z</time></trkpt><trkpt lat="45.3686832" lon="10.7668049"><ele>94.66666666666666</ele><time>2026-03-28T11:02:08.815Z</time></trkpt><trkpt lat="45.3686204" lon="10.7670252"><ele>93.0</ele><time>2026-03-28T11:02:09.815Z</time></trkpt><trkpt lat="45.3685655" lon="10.7672412"><ele>93.0</ele><time>2026-03-28T11:02:10.816Z</time></trkpt><trkpt lat="45.3685172" lon="10.7674581"><ele>93.0</ele><time>2026-03-28T11:02:11.815Z</time></trkpt><trkpt lat="45.3684704" lon="10.7676746"><ele>93.0</ele><time>2026-03-28T11:02:12.815Z</time></trkpt><trkpt lat="45.3684219" lon="10.7678891"><ele>93.0</ele><time>2026-03-28T11:02:13.816Z</time></trkpt><trkpt lat="45.3683879" lon="10.768114"><ele>93.0</ele><time>2026-03-28T11:02:14.815Z</time></trkpt><trkpt lat="45.3683631" lon="10.7683458"><ele>93.0</ele><time>2026-03-28T11:02:15.815Z</time></trkpt><trkpt lat="45.3683414" lon="10.7685727"><ele>93.33333333333333</ele><time>2026-03-28T11:02:16.816Z</time></trkpt><trkpt lat="45.3683228" lon="10.768799"><ele>93.66666666666666</ele><time>2026-03-28T11:02:17.814Z</time></trkpt><trkpt lat="45.3683014" lon="10.7690184"><ele>94.0</ele><time>2026-03-28T11:02:18.816Z</time></trkpt><trkpt lat="45.3682865" lon="10.7692476"><ele>94.33333333333333</ele><time>2026-03-28T11:02:19.816Z</time></trkpt><trkpt lat="45.3682752" lon="10.7694759"><ele>94.66666666666667</ele><time>2026-03-28T11:02:20.814Z</time></trkpt><trkpt lat="45.3682749" lon="10.7697058"><ele>95.0</ele><time>2026-03-28T11:02:21.816Z</time></trkpt><trkpt lat="45.3682823" lon="10.7699274"><ele>95.0</ele><time>2026-03-28T11:02:22.815Z</time></trkpt><trkpt lat="45.3682825" lon="10.7701439"><ele>95.0</ele><time>2026-03-28T11:02:23.816Z</time></trkpt><trkpt lat="45.368281" lon="10.7703631"><ele>95.0</ele><time>2026-03-28T11:02:24.814Z</time></trkpt><trkpt lat="45.3682681" lon="10.7705785"><ele>95.0</ele><time>2026-03-28T11:02:25.815Z</time></trkpt><trkpt lat="45.3682452" lon="10.7707985"><ele>95.0</ele><time>2026-03-28T11:02:26.815Z</time></trkpt><trkpt lat="45.3682152" lon="10.7710207"><ele>95.0</ele><time>2026-03-28T11:02:27.814Z</time></trkpt><trkpt lat="45.3681743" lon="10.7712418"><ele>95.66666666666667</ele><time>2026-03-28T11:02:28.814Z</time></trkpt><trkpt lat="45.3681154" lon="10.7714538"><ele>96.33333333333334</ele><time>2026-03-28T11:02:29.815Z</time></trkpt><trkpt lat="45.368046" lon="10.7716641"><ele>97.0</ele><time>2026-03-28T11:02:30.815Z</time></trkpt><trkpt lat="45.3679854" lon="10.7718738"><ele>95.33333333333334</ele><time>2026-03-28T11:02:31.815Z</time></trkpt><trkpt lat="45.367931" lon="10.7720877"><ele>93.66666666666667</ele><time>2026-03-28T11:02:32.815Z</time></trkpt><trkpt lat="45.3678863" lon="10.7723097"><ele>92.0</ele><time>2026-03-28T11:02:33.815Z</time></trkpt><trkpt lat="45.3678474" lon="10.7725328"><ele>91.66666666666667</ele><time>2026-03-28T11:02:34.815Z</time></trkpt><trkpt lat="45.3678147" lon="10.7727558"><ele>91.33333333333333</ele><time>2026-03-28T11:02:35.814Z</time></trkpt><trkpt lat="45.3677888" lon="10.7729675"><ele>91.0</ele><time>2026-03-28T11:02:36.815Z</time></trkpt><trkpt lat="45.3677639" lon="10.7731704"><ele>91.0</ele><time>2026-03-28T11:02:37.816Z</time></trkpt><trkpt lat="45.3677382" lon="10.7733662"><ele>91.0</ele><time>2026-03-28T11:02:38.815Z</time></trkpt><trkpt lat="45.3677125" lon="10.7735702"><ele>91.0</ele><time>2026-03-28T11:02:39.814Z</time></trkpt><trkpt lat="45.3676831" lon="10.7737834"><ele>91.0</ele><time>2026-03-28T11:02:40.815Z</time></trkpt><trkpt lat="45.3676565" lon="10.7740011"><ele>92.0</ele><time>2026-03-28T11:02:41.815Z</time></trkpt><trkpt lat="45.3676321" lon="10.7742248"><ele>93.0</ele><time>2026-03-28T11:02:42.814Z</time></trkpt><trkpt lat="45.3676076" lon="10.7744482"><ele>94.0</ele><time>2026-03-28T11:02:43.815Z</time></trkpt><trkpt lat="45.367584" lon="10.7746729"><ele>94.0</ele><time>2026-03-28T11:02:44.815Z</time></trkpt><trkpt lat="45.3675652" lon="10.7748952"><ele>94.0</ele><time>2026-03-28T11:02:45.815Z</time></trkpt><trkpt lat="45.3675454" lon="10.775115"><ele>94.0</ele><time>2026-03-28T11:02:46.814Z</time></trkpt><trkpt lat="45.3675243" lon="10.7753349"><ele>94.0</ele><time>2026-03-28T11:02:47.815Z</time></trkpt><trkpt lat="45.3675044" lon="10.775553"><ele>94.0</ele><time>2026-03-28T11:02:48.814Z</time></trkpt><trkpt lat="45.3674844" lon="10.7757617"><ele>94.0</ele><time>2026-03-28T11:02:49.816Z</time></trkpt><trkpt lat="45.3674697" lon="10.7759549"><ele>94.0</ele><time>2026-03-28T11:02:50.815Z</time></trkpt><trkpt lat="45.3674536" lon="10.7761292"><ele>94.25</ele><time>2026-03-28T11:02:51.815Z</time></trkpt><trkpt lat="45.3674413" lon="10.7762853"><ele>94.5</ele><time>2026-03-28T11:02:52.815Z</time></trkpt><trkpt lat="45.3674286" lon="10.7764543"><ele>94.75</ele><time>2026-03-28T11:02:53.814Z</time></trkpt><trkpt lat="45.367412" lon="10.7766372"><ele>95.0</ele><time>2026-03-28T11:02:54.815Z</time></trkpt><trkpt lat="45.367407" lon="10.7768274"><ele>94.5</ele><time>2026-03-28T11:02:55.815Z</time></trkpt><trkpt lat="45.3674074" lon="10.7770306"><ele>94.0</ele><time>2026-03-28T11:02:56.816Z</time></trkpt><trkpt lat="45.367417" lon="10.777236"><ele>93.5</ele><time>2026-03-28T11:02:57.816Z</time></trkpt><trkpt lat="45.3674347" lon="10.7774522"><ele>93.0</ele><time>2026-03-28T11:02:58.815Z</time></trkpt><trkpt lat="45.3674566" lon="10.7776682"><ele>92.25</ele><time>2026-03-28T11:02:59.815Z</time></trkpt><trkpt lat="45.3674867" lon="10.7778661"><ele>91.5</ele><time>2026-03-28T11:03:00.814Z</time></trkpt><trkpt lat="45.3675044" lon="10.7780629"><ele>90.75</ele><time>2026-03-28T11:03:01.814Z</time></trkpt><trkpt lat="45.3675067" lon="10.7782668"><ele>90.0</ele><time>2026-03-28T11:03:02.814Z</time></trkpt><trkpt lat="45.3674885" lon="10.7784657"><ele>89.5</ele><time>2026-03-28T11:03:03.814Z</time></trkpt><trkpt lat="45.3674591" lon="10.7786682"><ele>89.0</ele><time>2026-03-28T11:03:04.816Z</time></trkpt><trkpt lat="45.3674093" lon="10.7788666"><ele>88.5</ele><time>2026-03-28T11:03:05.816Z</time></trkpt><trkpt lat="45.3673609" lon="10.7790568"><ele>88.0</ele><time>2026-03-28T11:03:06.816Z</time></trkpt><trkpt lat="45.3673158" lon="10.7792298"><ele>87.83333333333333</ele><time>2026-03-28T11:03:07.815Z</time></trkpt><trkpt lat="45.3672807" lon="10.77937"><ele>87.66666666666666</ele><time>2026-03-28T11:03:08.815Z</time></trkpt><trkpt lat="45.3672514" lon="10.7794814"><ele>87.5</ele><time>2026-03-28T11:03:09.815Z</time></trkpt><trkpt lat="45.3672336" lon="10.7795918"><ele>87.33333333333333</ele><time>2026-03-28T11:03:11.815Z</time></trkpt><trkpt lat="45.3673139" lon="10.7796169"><ele>87.16666666666667</ele><time>2026-03-28T11:03:13.815Z</time></trkpt><trkpt lat="45.3673822" lon="10.77963"><ele>87.0</ele><time>2026-03-28T11:03:14.815Z</time></trkpt><trkpt lat="45.3674667" lon="10.7796699"><ele>87.0</ele><time>2026-03-28T11:03:15.815Z</time></trkpt><trkpt lat="45.3675616" lon="10.779713"><ele>87.0</ele><time>2026-03-28T11:03:16.815Z</time></trkpt><trkpt lat="45.3676711" lon="10.7797523"><ele>87.0</ele><time>2026-03-28T11:03:17.815Z</time></trkpt><trkpt lat="45.3677853" lon="10.7797945"><ele>87.0</ele><time>2026-03-28T11:03:18.815Z</time></trkpt><trkpt lat="45.3679085" lon="10.7798402"><ele>88.0</ele><time>2026-03-28T11:03:19.815Z</time></trkpt><trkpt lat="45.3680391" lon="10.7798856"><ele>89.0</ele><time>2026-03-28T11:03:20.815Z</time></trkpt><trkpt lat="45.3681749" lon="10.779936"><ele>90.0</ele><time>2026-03-28T11:03:21.816Z</time></trkpt><trkpt lat="45.3683164" lon="10.7799977"><ele>91.0</ele><time>2026-03-28T11:03:22.815Z</time></trkpt><trkpt lat="45.3684601" lon="10.7800604"><ele>91.0</ele><time>2026-03-28T11:03:23.816Z</time></trkpt><trkpt lat="45.3686058" lon="10.7801143"><ele>91.0</ele><time>2026-03-28T11:03:24.814Z</time></trkpt><trkpt lat="45.3687549" lon="10.7801647"><ele>91.0</ele><time>2026-03-28T11:03:25.815Z</time></trkpt><trkpt lat="45.3689054" lon="10.7802193"><ele>91.25</ele><time>2026-03-28T11:03:26.815Z</time></trkpt><trkpt lat="45.3690529" lon="10.7802735"><ele>91.5</ele><time>2026-03-28T11:03:27.815Z</time></trkpt><trkpt lat="45.3691926" lon="10.7803371"><ele>91.75</ele><time>2026-03-28T11:03:28.816Z</time></trkpt><trkpt lat="45.3693259" lon="10.7803978"><ele>92.0</ele><time>2026-03-28T11:03:29.814Z</time></trkpt><trkpt lat="45.3694511" lon="10.7804534"><ele>92.0</ele><time>2026-03-28T11:03:30.814Z</time></trkpt><trkpt lat="45.3695585" lon="10.7805021"><ele>92.0</ele><time>2026-03-28T11:03:31.815Z</time></trkpt><trkpt lat="45.3696493" lon="10.7805518"><ele>92.0</ele><time>2026-03-28T11:03:32.814Z</time></trkpt><trkpt lat="45.3697329" lon="10.7806101"><ele>92.0</ele><time>2026-03-28T11:03:33.814Z</time></trkpt><trkpt lat="45.3698157" lon="10.7806722"><ele>92.0</ele><time>2026-03-28T11:03:34.816Z</time></trkpt><trkpt lat="45.3698868" lon="10.7807168"><ele>92.0</ele><time>2026-03-28T11:03:35.815Z</time></trkpt><trkpt lat="45.3699623" lon="10.7807701"><ele>92.0</ele><time>2026-03-28T11:03:36.814Z</time></trkpt><trkpt lat="45.3700283" lon="10.7808305"><ele>92.0</ele><time>2026-03-28T11:03:37.815Z</time></trkpt><trkpt lat="45.3701243" lon="10.7809581"><ele>92.0</ele><time>2026-03-28T11:03:39.815Z</time></trkpt><trkpt lat="45.3701663" lon="10.7810298"><ele>92.0</ele><time>2026-03-28T11:03:40.814Z</time></trkpt><trkpt lat="45.3702057" lon="10.7811071"><ele>92.0</ele><time>2026-03-28T11:03:41.814Z</time></trkpt><trkpt lat="45.3702496" lon="10.7811805"><ele>92.0</ele><time>2026-03-28T11:03:42.816Z</time></trkpt><trkpt lat="45.3703034" lon="10.7812371"><ele>92.0</ele><time>2026-03-28T11:03:43.815Z</time></trkpt><trkpt lat="45.3704145" lon="10.7813075"><ele>92.0</ele><time>2026-03-28T11:03:45.815Z</time></trkpt><trkpt lat="45.3705001" lon="10.7813412"><ele>92.0</ele><time>2026-03-28T11:03:46.815Z</time></trkpt><trkpt lat="45.3705995" lon="10.7813723"><ele>92.0</ele><time>2026-03-28T11:03:47.815Z</time></trkpt><trkpt lat="45.3707039" lon="10.7814066"><ele>91.6</ele><time>2026-03-28T11:03:48.816Z</time></trkpt><trkpt lat="45.3708091" lon="10.7814466"><ele>91.19999999999999</ele><time>2026-03-28T11:03:49.816Z</time></trkpt><trkpt lat="45.3709138" lon="10.7815035"><ele>90.8</ele><time>2026-03-28T11:03:50.815Z</time></trkpt><trkpt lat="45.3710141" lon="10.7815767"><ele>90.4</ele><time>2026-03-28T11:03:51.815Z</time></trkpt><trkpt lat="45.3711061" lon="10.7816514"><ele>90.0</ele><time>2026-03-28T11:03:52.815Z</time></trkpt><trkpt lat="45.3711946" lon="10.781736"><ele>90.0</ele><time>2026-03-28T11:03:53.815Z</time></trkpt><trkpt lat="45.371281" lon="10.7818313"><ele>90.0</ele><time>2026-03-28T11:03:54.814Z</time></trkpt><trkpt lat="45.3713606" lon="10.7819254"><ele>90.0</ele><time>2026-03-28T11:03:55.815Z</time></trkpt><trkpt lat="45.3714378" lon="10.7820216"><ele>90.0</ele><time>2026-03-28T11:03:56.815Z</time></trkpt><trkpt lat="45.3715149" lon="10.7820994"><ele>90.0</ele><time>2026-03-28T11:03:57.816Z</time></trkpt><trkpt lat="45.3715879" lon="10.7821615"><ele>89.5</ele><time>2026-03-28T11:03:58.815Z</time></trkpt><trkpt lat="45.3716501" lon="10.7822049"><ele>89.0</ele><time>2026-03-28T11:03:59.814Z</time></trkpt><trkpt lat="45.3717091" lon="10.7822411"><ele>88.5</ele><time>2026-03-28T11:04:00.814Z</time></trkpt><trkpt lat="45.3718108" lon="10.7823071"><ele>88.0</ele><time>2026-03-28T11:04:02.815Z</time></trkpt><trkpt lat="45.3719047" lon="10.7823968"><ele>87.5</ele><time>2026-03-28T11:04:04.815Z</time></trkpt><trkpt lat="45.3719599" lon="10.7824537"><ele>87.0</ele><time>2026-03-28T11:04:05.814Z</time></trkpt><trkpt lat="45.3720239" lon="10.7825223"><ele>87.0</ele><time>2026-03-28T11:04:06.814Z</time></trkpt><trkpt lat="45.3720924" lon="10.7825849"><ele>87.0</ele><time>2026-03-28T11:04:07.814Z</time></trkpt><trkpt lat="45.3721634" lon="10.782652"><ele>87.0</ele><time>2026-03-28T11:04:08.815Z</time></trkpt><trkpt lat="45.3722392" lon="10.7827404"><ele>87.0</ele><time>2026-03-28T11:04:09.815Z</time></trkpt><trkpt lat="45.3723123" lon="10.7828413"><ele>87.0</ele><time>2026-03-28T11:04:10.815Z</time></trkpt><trkpt lat="45.372391" lon="10.7829456"><ele>85.6</ele><time>2026-03-28T11:04:11.815Z</time></trkpt><trkpt lat="45.3724764" lon="10.7830567"><ele>84.19999999999999</ele><time>2026-03-28T11:04:12.816Z</time></trkpt><trkpt lat="45.3725593" lon="10.7831565"><ele>82.8</ele><time>2026-03-28T11:04:13.815Z</time></trkpt><trkpt lat="45.3726387" lon="10.7832447"><ele>81.4</ele><time>2026-03-28T11:04:14.816Z</time></trkpt><trkpt lat="45.3727114" lon="10.7833345"><ele>80.0</ele><time>2026-03-28T11:04:15.815Z</time></trkpt><trkpt lat="45.3727945" lon="10.7834205"><ele>80.0</ele><time>2026-03-28T11:04:16.816Z</time></trkpt><trkpt lat="45.3728869" lon="10.7834957"><ele>80.0</ele><time>2026-03-28T11:04:17.816Z</time></trkpt><trkpt lat="45.3729833" lon="10.7835702"><ele>80.0</ele><time>2026-03-28T11:04:18.814Z</time></trkpt><trkpt lat="45.3730773" lon="10.7836331"><ele>80.0</ele><time>2026-03-28T11:04:19.815Z</time></trkpt><trkpt lat="45.373181" lon="10.7836896"><ele>80.0</ele><time>2026-03-28T11:04:20.815Z</time></trkpt><trkpt lat="45.3733" lon="10.7837254"><ele>77.5</ele><time>2026-03-28T11:04:21.814Z</time></trkpt><trkpt lat="45.3734261" lon="10.7837446"><ele>75.0</ele><time>2026-03-28T11:04:22.815Z</time></trkpt><trkpt lat="45.3735582" lon="10.7837515"><ele>72.5</ele><time>2026-03-28T11:04:23.815Z</time></trkpt><trkpt lat="45.3736907" lon="10.7837611"><ele>70.0</ele><time>2026-03-28T11:04:24.814Z</time></trkpt><trkpt lat="45.3738224" lon="10.7837688"><ele>70.0</ele><time>2026-03-28T11:04:25.814Z</time></trkpt><trkpt lat="45.3739511" lon="10.7837787"><ele>70.0</ele><time>2026-03-28T11:04:26.815Z</time></trkpt><trkpt lat="45.3740672" lon="10.7837975"><ele>70.0</ele><time>2026-03-28T11:04:27.815Z</time></trkpt><trkpt lat="45.3741718" lon="10.783821"><ele>70.0</ele><time>2026-03-28T11:04:28.815Z</time></trkpt><trkpt lat="45.3742678" lon="10.7838338"><ele>70.0</ele><time>2026-03-28T11:04:29.816Z</time></trkpt><trkpt lat="45.3743601" lon="10.7838417"><ele>70.0</ele><time>2026-03-28T11:04:30.816Z</time></trkpt><trkpt lat="45.3744333" lon="10.7838528"><ele>70.0</ele><time>2026-03-28T11:04:31.814Z</time></trkpt><trkpt lat="45.3745275" lon="10.7838424"><ele>70.0</ele><time>2026-03-28T11:04:33.814Z</time></trkpt><trkpt lat="45.3746119" lon="10.7837252"><ele>70.0</ele><time>2026-03-28T11:04:35.815Z</time></trkpt><trkpt lat="45.3746561" lon="10.7836292"><ele>70.0</ele><time>2026-03-28T11:04:36.815Z</time></trkpt><trkpt lat="45.3747179" lon="10.7835249"><ele>70.2</ele><time>2026-03-28T11:04:37.815Z</time></trkpt><trkpt lat="45.374787" lon="10.7834239"><ele>70.4</ele><time>2026-03-28T11:04:38.816Z</time></trkpt><trkpt lat="45.3748675" lon="10.7833222"><ele>70.6</ele><time>2026-03-28T11:04:39.814Z</time></trkpt><trkpt lat="45.3749596" lon="10.7832269"><ele>70.8</ele><time>2026-03-28T11:04:40.816Z</time></trkpt><trkpt lat="45.3750694" lon="10.7831506"><ele>71.0</ele><time>2026-03-28T11:04:41.815Z</time></trkpt><trkpt lat="45.3751938" lon="10.783092"><ele>71.0</ele><time>2026-03-28T11:04:42.816Z</time></trkpt><trkpt lat="45.3753265" lon="10.7830545"><ele>71.0</ele><time>2026-03-28T11:04:43.815Z</time></trkpt><trkpt lat="45.3754629" lon="10.7830205"><ele>71.0</ele><time>2026-03-28T11:04:44.815Z</time></trkpt><trkpt lat="45.3756016" lon="10.7829788"><ele>71.0</ele><time>2026-03-28T11:04:45.816Z</time></trkpt><trkpt lat="45.3757383" lon="10.7829251"><ele>70.5</ele><time>2026-03-28T11:04:46.815Z</time></trkpt><trkpt lat="45.375871" lon="10.7828472"><ele>70.0</ele><time>2026-03-28T11:04:47.815Z</time></trkpt><trkpt lat="45.3759988" lon="10.7827519"><ele>69.5</ele><time>2026-03-28T11:04:48.816Z</time></trkpt><trkpt lat="45.3761146" lon="10.7826333"><ele>69.0</ele><time>2026-03-28T11:04:49.815Z</time></trkpt><trkpt lat="45.3762192" lon="10.7824929"><ele>69.25</ele><time>2026-03-28T11:04:50.815Z</time></trkpt><trkpt lat="45.376311" lon="10.7823269"><ele>69.5</ele><time>2026-03-28T11:04:51.815Z</time></trkpt><trkpt lat="45.3764011" lon="10.7821581"><ele>69.75</ele><time>2026-03-28T11:04:52.814Z</time></trkpt><trkpt lat="45.3764931" lon="10.781989"><ele>70.0</ele><time>2026-03-28T11:04:53.815Z</time></trkpt><trkpt lat="45.3765792" lon="10.7818155"><ele>71.0</ele><time>2026-03-28T11:04:54.814Z</time></trkpt><trkpt lat="45.3766586" lon="10.7816412"><ele>72.0</ele><time>2026-03-28T11:04:55.816Z</time></trkpt><trkpt lat="45.3767289" lon="10.7814597"><ele>73.0</ele><time>2026-03-28T11:04:56.816Z</time></trkpt><trkpt lat="45.376793" lon="10.78127"><ele>74.0</ele><time>2026-03-28T11:04:57.816Z</time></trkpt><trkpt lat="45.3768481" lon="10.7810729"><ele>74.66666666666667</ele><time>2026-03-28T11:04:58.815Z</time></trkpt><trkpt lat="45.3768971" lon="10.7808702"><ele>75.33333333333333</ele><time>2026-03-28T11:04:59.814Z</time></trkpt><trkpt lat="45.3769368" lon="10.7806635"><ele>76.0</ele><time>2026-03-28T11:05:00.815Z</time></trkpt><trkpt lat="45.3769704" lon="10.7804529"><ele>76.0</ele><time>2026-03-28T11:05:01.814Z</time></trkpt><trkpt lat="45.3770018" lon="10.7802409"><ele>76.0</ele><time>2026-03-28T11:05:02.814Z</time></trkpt><trkpt lat="45.3770366" lon="10.7800283"><ele>76.0</ele><time>2026-03-28T11:05:03.815Z</time></trkpt><trkpt lat="45.3770754" lon="10.7798161"><ele>76.33333333333333</ele><time>2026-03-28T11:05:04.814Z</time></trkpt><trkpt lat="45.3771194" lon="10.7796023"><ele>76.66666666666667</ele><time>2026-03-28T11:05:05.814Z</time></trkpt><trkpt lat="45.3771699" lon="10.7793876"><ele>77.0</ele><time>2026-03-28T11:05:06.814Z</time></trkpt><trkpt lat="45.3772243" lon="10.7791715"><ele>77.0</ele><time>2026-03-28T11:05:07.814Z</time></trkpt><trkpt lat="45.3772854" lon="10.7789568"><ele>77.0</ele><time>2026-03-28T11:05:08.815Z</time></trkpt><trkpt lat="45.3773498" lon="10.7787464"><ele>77.0</ele><time>2026-03-28T11:05:09.815Z</time></trkpt><trkpt lat="45.3774148" lon="10.778538"><ele>77.66666666666667</ele><time>2026-03-28T11:05:10.815Z</time></trkpt><trkpt lat="45.3774816" lon="10.7783315"><ele>78.33333333333333</ele><time>2026-03-28T11:05:11.815Z</time></trkpt><trkpt lat="45.377549" lon="10.7781277"><ele>79.0</ele><time>2026-03-28T11:05:12.815Z</time></trkpt><trkpt lat="45.3776239" lon="10.7779431"><ele>79.0</ele><time>2026-03-28T11:05:13.814Z</time></trkpt><trkpt lat="45.3777023" lon="10.7777701"><ele>79.0</ele><time>2026-03-28T11:05:14.816Z</time></trkpt><trkpt lat="45.3777813" lon="10.7776085"><ele>79.0</ele><time>2026-03-28T11:05:15.814Z</time></trkpt><trkpt lat="45.3778555" lon="10.7774544"><ele>79.0</ele><time>2026-03-28T11:05:16.814Z</time></trkpt><trkpt lat="45.3779287" lon="10.7773213"><ele>78.0</ele><time>2026-03-28T11:05:17.814Z</time></trkpt><trkpt lat="45.3780091" lon="10.777228"><ele>77.0</ele><time>2026-03-28T11:05:18.816Z</time></trkpt><trkpt lat="45.3781115" lon="10.7771759"><ele>76.0</ele><time>2026-03-28T11:05:19.814Z</time></trkpt><trkpt lat="45.3782331" lon="10.7771859"><ele>75.0</ele><time>2026-03-28T11:05:20.815Z</time></trkpt><trkpt lat="45.3783518" lon="10.7772549"><ele>75.0</ele><time>2026-03-28T11:05:21.815Z</time></trkpt><trkpt lat="45.3784641" lon="10.777338"><ele>75.0</ele><time>2026-03-28T11:05:22.815Z</time></trkpt><trkpt lat="45.3785745" lon="10.7773998"><ele>75.0</ele><time>2026-03-28T11:05:23.815Z</time></trkpt><trkpt lat="45.3786935" lon="10.7774238"><ele>75.0</ele><time>2026-03-28T11:05:24.815Z</time></trkpt><trkpt lat="45.3788231" lon="10.7773996"><ele>74.5</ele><time>2026-03-28T11:05:25.816Z</time></trkpt><trkpt lat="45.378951" lon="10.7773313"><ele>74.0</ele><time>2026-03-28T11:05:26.815Z</time></trkpt><trkpt lat="45.3790837" lon="10.7772436"><ele>73.5</ele><time>2026-03-28T11:05:27.815Z</time></trkpt><trkpt lat="45.3792234" lon="10.777159"><ele>73.0</ele><time>2026-03-28T11:05:28.814Z</time></trkpt><trkpt lat="45.3793669" lon="10.7770721"><ele>73.0</ele><time>2026-03-28T11:05:29.815Z</time></trkpt><trkpt lat="45.3795106" lon="10.7769791"><ele>73.0</ele><time>2026-03-28T11:05:30.815Z</time></trkpt><trkpt lat="45.3796546" lon="10.7768834"><ele>73.0</ele><time>2026-03-28T11:05:31.815Z</time></trkpt><trkpt lat="45.3797876" lon="10.7767766"><ele>74.33333333333333</ele><time>2026-03-28T11:05:32.815Z</time></trkpt><trkpt lat="45.3799169" lon="10.7766563"><ele>75.66666666666667</ele><time>2026-03-28T11:05:33.815Z</time></trkpt><trkpt lat="45.3800457" lon="10.7765353"><ele>77.0</ele><time>2026-03-28T11:05:34.815Z</time></trkpt><trkpt lat="45.3801833" lon="10.7764445"><ele>77.0</ele><time>2026-03-28T11:05:35.814Z</time></trkpt><trkpt lat="45.3803179" lon="10.7763644"><ele>77.0</ele><time>2026-03-28T11:05:36.815Z</time></trkpt><trkpt lat="45.3804565" lon="10.7762912"><ele>77.0</ele><time>2026-03-28T11:05:37.814Z</time></trkpt><trkpt lat="45.3805944" lon="10.7762207"><ele>77.0</ele><time>2026-03-28T11:05:38.815Z</time></trkpt><trkpt lat="45.3807355" lon="10.7761502"><ele>76.66666666666667</ele><time>2026-03-28T11:05:39.815Z</time></trkpt><trkpt lat="45.3808807" lon="10.776085"><ele>76.33333333333333</ele><time>2026-03-28T11:05:40.815Z</time></trkpt><trkpt lat="45.3810271" lon="10.7760185"><ele>76.0</ele><time>2026-03-28T11:05:41.815Z</time></trkpt><trkpt lat="45.3811739" lon="10.7759458"><ele>77.0</ele><time>2026-03-28T11:05:42.814Z</time></trkpt><trkpt lat="45.3813203" lon="10.7758624"><ele>78.0</ele><time>2026-03-28T11:05:43.814Z</time></trkpt><trkpt lat="45.3814654" lon="10.7757706"><ele>79.0</ele><time>2026-03-28T11:05:44.815Z</time></trkpt><trkpt lat="45.3816063" lon="10.775679"><ele>79.0</ele><time>2026-03-28T11:05:45.815Z</time></trkpt><trkpt lat="45.3817387" lon="10.7755908"><ele>79.0</ele><time>2026-03-28T11:05:46.815Z</time></trkpt><trkpt lat="45.3818459" lon="10.7754912"><ele>79.0</ele><time>2026-03-28T11:05:47.815Z</time></trkpt><trkpt lat="45.3819144" lon="10.7753648"><ele>79.0</ele><time>2026-03-28T11:05:48.816Z</time></trkpt><trkpt lat="45.3819321" lon="10.7752133"><ele>80.5</ele><time>2026-03-28T11:05:49.815Z</time></trkpt><trkpt lat="45.3819202" lon="10.7750543"><ele>82.0</ele><time>2026-03-28T11:05:50.816Z</time></trkpt><trkpt lat="45.3818721" lon="10.7748991"><ele>83.5</ele><time>2026-03-28T11:05:51.816Z</time></trkpt><trkpt lat="45.3818199" lon="10.7747413"><ele>85.0</ele><time>2026-03-28T11:05:52.815Z</time></trkpt><trkpt lat="45.3817707" lon="10.7745834"><ele>85.0</ele><time>2026-03-28T11:05:53.815Z</time></trkpt><trkpt lat="45.3817214" lon="10.7744218"><ele>85.0</ele><time>2026-03-28T11:05:54.817Z</time></trkpt><trkpt lat="45.3816979" lon="10.7742575"><ele>85.0</ele><time>2026-03-28T11:05:55.816Z</time></trkpt><trkpt lat="45.3816968" lon="10.774086"><ele>85.0</ele><time>2026-03-28T11:05:56.815Z</time></trkpt><trkpt lat="45.3816952" lon="10.7739137"><ele>87.0</ele><time>2026-03-28T11:05:57.816Z</time></trkpt><trkpt lat="45.3816925" lon="10.7737428"><ele>89.0</ele><time>2026-03-28T11:05:58.814Z</time></trkpt><trkpt lat="45.3816811" lon="10.7735712"><ele>91.0</ele><time>2026-03-28T11:05:59.814Z</time></trkpt><trkpt lat="45.3816702" lon="10.7734162"><ele>93.0</ele><time>2026-03-28T11:06:00.814Z</time></trkpt><trkpt lat="45.3816623" lon="10.7732973"><ele>95.0</ele><time>2026-03-28T11:06:01.816Z</time></trkpt><trkpt lat="45.3816649" lon="10.7732002"><ele>95.66666666666667</ele><time>2026-03-28T11:06:02.816Z</time></trkpt><trkpt lat="45.381675" lon="10.7731101"><ele>96.33333333333334</ele><time>2026-03-28T11:06:03.815Z</time></trkpt><trkpt lat="45.3816987" lon="10.7730051"><ele>97.0</ele><time>2026-03-28T11:06:04.815Z</time></trkpt><trkpt lat="45.3817215" lon="10.7728909"><ele>97.66666666666667</ele><time>2026-03-28T11:06:05.815Z</time></trkpt><trkpt lat="45.3817481" lon="10.772764"><ele>98.33333333333333</ele><time>2026-03-28T11:06:06.815Z</time></trkpt><trkpt lat="45.381786" lon="10.7726194"><ele>99.0</ele><time>2026-03-28T11:06:07.816Z</time></trkpt><trkpt lat="45.3818303" lon="10.7724724"><ele>99.25</ele><time>2026-03-28T11:06:08.815Z</time></trkpt><trkpt lat="45.3818775" lon="10.7723281"><ele>99.5</ele><time>2026-03-28T11:06:09.815Z</time></trkpt><trkpt lat="45.381928" lon="10.7721767"><ele>99.75</ele><time>2026-03-28T11:06:10.815Z</time></trkpt><trkpt lat="45.3819798" lon="10.7720198"><ele>100.0</ele><time>2026-03-28T11:06:11.815Z</time></trkpt><trkpt lat="45.3820326" lon="10.771863"><ele>100.5</ele><time>2026-03-28T11:06:12.814Z</time></trkpt><trkpt lat="45.3820833" lon="10.7717113"><ele>101.0</ele><time>2026-03-28T11:06:13.815Z</time></trkpt><trkpt lat="45.3821319" lon="10.7715615"><ele>101.5</ele><time>2026-03-28T11:06:14.815Z</time></trkpt><trkpt lat="45.3821851" lon="10.7714219"><ele>102.0</ele><time>2026-03-28T11:06:15.815Z</time></trkpt><trkpt lat="45.3822517" lon="10.7713001"><ele>103.39999999999999</ele><time>2026-03-28T11:06:16.815Z</time></trkpt><trkpt lat="45.3823239" lon="10.7711888"><ele>104.8</ele><time>2026-03-28T11:06:17.815Z</time></trkpt><trkpt lat="45.3823993" lon="10.7710803"><ele>106.2</ele><time>2026-03-28T11:06:18.814Z</time></trkpt><trkpt lat="45.382472" lon="10.7709707"><ele>107.6</ele><time>2026-03-28T11:06:19.815Z</time></trkpt><trkpt lat="45.3825397" lon="10.7708649"><ele>109.0</ele><time>2026-03-28T11:06:20.816Z</time></trkpt><trkpt lat="45.3825978" lon="10.7707775"><ele>109.16666666666667</ele><time>2026-03-28T11:06:21.816Z</time></trkpt><trkpt lat="45.3826495" lon="10.7706948"><ele>109.33333333333334</ele><time>2026-03-28T11:06:22.815Z</time></trkpt><trkpt lat="45.3826956" lon="10.7706047"><ele>109.5</ele><time>2026-03-28T11:06:23.815Z</time></trkpt><trkpt lat="45.3827802" lon="10.770525"><ele>109.66666666666666</ele><time>2026-03-28T11:06:25.814Z</time></trkpt><trkpt lat="45.382857" lon="10.7705823"><ele>109.83333333333333</ele><time>2026-03-28T11:06:27.815Z</time></trkpt><trkpt lat="45.3828954" lon="10.7706707"><ele>110.0</ele><time>2026-03-28T11:06:28.816Z</time></trkpt><trkpt lat="45.3829405" lon="10.7707767"><ele>110.0</ele><time>2026-03-28T11:06:29.815Z</time></trkpt><trkpt lat="45.3829905" lon="10.7708738"><ele>110.0</ele><time>2026-03-28T11:06:30.815Z</time></trkpt><trkpt lat="45.3830459" lon="10.7709817"><ele>110.0</ele><time>2026-03-28T11:06:31.816Z</time></trkpt><trkpt lat="45.3831054" lon="10.771091"><ele>110.0</ele><time>2026-03-28T11:06:32.815Z</time></trkpt><trkpt lat="45.3831659" lon="10.7711947"><ele>110.0</ele><time>2026-03-28T11:06:33.815Z</time></trkpt><trkpt lat="45.3832283" lon="10.771296"><ele>110.6</ele><time>2026-03-28T11:06:34.814Z</time></trkpt><trkpt lat="45.3832912" lon="10.7713943"><ele>111.2</ele><time>2026-03-28T11:06:35.815Z</time></trkpt><trkpt lat="45.3833559" lon="10.7714892"><ele>111.80000000000001</ele><time>2026-03-28T11:06:36.815Z</time></trkpt><trkpt lat="45.3834191" lon="10.771589"><ele>112.4</ele><time>2026-03-28T11:06:37.815Z</time></trkpt><trkpt lat="45.3834873" lon="10.7716858"><ele>113.0</ele><time>2026-03-28T11:06:38.815Z</time></trkpt><trkpt lat="45.3835602" lon="10.7717789"><ele>112.25</ele><time>2026-03-28T11:06:39.816Z</time></trkpt><trkpt lat="45.3836404" lon="10.7718731"><ele>111.5</ele><time>2026-03-28T11:06:40.816Z</time></trkpt><trkpt lat="45.3837291" lon="10.7719728"><ele>110.75</ele><time>2026-03-28T11:06:41.815Z</time></trkpt><trkpt lat="45.3838247" lon="10.7720764"><ele>110.0</ele><time>2026-03-28T11:06:42.815Z</time></trkpt><trkpt lat="45.3839248" lon="10.7721831"><ele>111.75</ele><time>2026-03-28T11:06:43.815Z</time></trkpt><trkpt lat="45.3840301" lon="10.7722905"><ele>113.5</ele><time>2026-03-28T11:06:44.814Z</time></trkpt><trkpt lat="45.3841372" lon="10.7723972"><ele>115.25</ele><time>2026-03-28T11:06:45.815Z</time></trkpt><trkpt lat="45.3842429" lon="10.7725159"><ele>117.0</ele><time>2026-03-28T11:06:46.815Z</time></trkpt><trkpt lat="45.3843422" lon="10.7726325"><ele>117.0</ele><time>2026-03-28T11:06:47.814Z</time></trkpt><trkpt lat="45.3844445" lon="10.772745"><ele>116.99999999999999</ele><time>2026-03-28T11:06:48.815Z</time></trkpt><trkpt lat="45.3845401" lon="10.7728464"><ele>116.99999999999999</ele><time>2026-03-28T11:06:49.815Z</time></trkpt><trkpt lat="45.3846189" lon="10.7729297"><ele>117.0</ele><time>2026-03-28T11:06:50.815Z</time></trkpt><trkpt lat="45.3846986" lon="10.7729958"><ele>117.0</ele><time>2026-03-28T11:06:51.815Z</time></trkpt><trkpt lat="45.3847928" lon="10.7730504"><ele>117.0</ele><time>2026-03-28T11:06:52.816Z</time></trkpt><trkpt lat="45.3848868" lon="10.7730876"><ele>116.99999999999999</ele><time>2026-03-28T11:06:53.816Z</time></trkpt><trkpt lat="45.3849832" lon="10.7731147"><ele>116.99999999999999</ele><time>2026-03-28T11:06:54.815Z</time></trkpt><trkpt lat="45.3850876" lon="10.7731458"><ele>117.0</ele><time>2026-03-28T11:06:55.815Z</time></trkpt><trkpt lat="45.3852014" lon="10.77318"><ele>117.0</ele><time>2026-03-28T11:06:56.814Z</time></trkpt><trkpt lat="45.3853087" lon="10.773208"><ele>117.0</ele><time>2026-03-28T11:06:57.815Z</time></trkpt><trkpt lat="45.3854157" lon="10.7732402"><ele>116.99999999999999</ele><time>2026-03-28T11:06:58.815Z</time></trkpt><trkpt lat="45.3855092" lon="10.7732906"><ele>116.99999999999999</ele><time>2026-03-28T11:06:59.814Z</time></trkpt><trkpt lat="45.3855947" lon="10.7733759"><ele>117.0</ele><time>2026-03-28T11:07:00.815Z</time></trkpt><trkpt lat="45.3856781" lon="10.7734679"><ele>117.0</ele><time>2026-03-28T11:07:01.814Z</time></trkpt><trkpt lat="45.3857535" lon="10.7735696"><ele>117.5</ele><time>2026-03-28T11:07:02.814Z</time></trkpt><trkpt lat="45.3858353" lon="10.7736685"><ele>118.0</ele><time>2026-03-28T11:07:03.814Z</time></trkpt><trkpt lat="45.3859377" lon="10.7737467"><ele>118.5</ele><time>2026-03-28T11:07:04.815Z</time></trkpt><trkpt lat="45.3860547" lon="10.7738239"><ele>119.0</ele><time>2026-03-28T11:07:05.815Z</time></trkpt><trkpt lat="45.386165" lon="10.7739168"><ele>119.0</ele><time>2026-03-28T11:07:06.815Z</time></trkpt><trkpt lat="45.3862755" lon="10.7740298"><ele>119.0</ele><time>2026-03-28T11:07:07.814Z</time></trkpt><trkpt lat="45.3863803" lon="10.7741526"><ele>119.0</ele><time>2026-03-28T11:07:08.815Z</time></trkpt><trkpt lat="45.3864839" lon="10.7742791"><ele>119.0</ele><time>2026-03-28T11:07:09.815Z</time></trkpt><trkpt lat="45.3865748" lon="10.7743846"><ele>119.5</ele><time>2026-03-28T11:07:10.816Z</time></trkpt><trkpt lat="45.3866696" lon="10.7744763"><ele>120.0</ele><time>2026-03-28T11:07:11.816Z</time></trkpt><trkpt lat="45.3867663" lon="10.7745606"><ele>120.5</ele><time>2026-03-28T11:07:12.815Z</time></trkpt><trkpt lat="45.3868584" lon="10.774665"><ele>121.0</ele><time>2026-03-28T11:07:13.815Z</time></trkpt><trkpt lat="45.3869509" lon="10.7747868"><ele>121.0</ele><time>2026-03-28T11:07:14.816Z</time></trkpt><trkpt lat="45.3870208" lon="10.7749232"><ele>121.0</ele><time>2026-03-28T11:07:15.815Z</time></trkpt><trkpt lat="45.3870885" lon="10.7750497"><ele>121.0</ele><time>2026-03-28T11:07:16.813Z</time></trkpt><trkpt lat="45.3871763" lon="10.775172"><ele>121.0</ele><time>2026-03-28T11:07:17.814Z</time></trkpt><trkpt lat="45.387279" lon="10.7752927"><ele>121.25</ele><time>2026-03-28T11:07:18.813Z</time></trkpt><trkpt lat="45.3873829" lon="10.7754161"><ele>121.5</ele><time>2026-03-28T11:07:19.813Z</time></trkpt><trkpt lat="45.3874807" lon="10.7755319"><ele>121.75</ele><time>2026-03-28T11:07:20.815Z</time></trkpt><trkpt lat="45.3875833" lon="10.7756184"><ele>122.0</ele><time>2026-03-28T11:07:21.814Z</time></trkpt><trkpt lat="45.3876964" lon="10.7756909"><ele>122.0</ele><time>2026-03-28T11:07:22.814Z</time></trkpt><trkpt lat="45.3878019" lon="10.7757711"><ele>122.0</ele><time>2026-03-28T11:07:23.815Z</time></trkpt><trkpt lat="45.387898" lon="10.7758682"><ele>122.0</ele><time>2026-03-28T11:07:24.813Z</time></trkpt><trkpt lat="45.3879864" lon="10.7759801"><ele>122.0</ele><time>2026-03-28T11:07:25.814Z</time></trkpt><trkpt lat="45.3880699" lon="10.77611"><ele>121.5</ele><time>2026-03-28T11:07:26.815Z</time></trkpt><trkpt lat="45.3881594" lon="10.7762468"><ele>121.0</ele><time>2026-03-28T11:07:27.814Z</time></trkpt><trkpt lat="45.3882387" lon="10.7763903"><ele>120.5</ele><time>2026-03-28T11:07:28.814Z</time></trkpt><trkpt lat="45.388316" lon="10.7765344"><ele>120.0</ele><time>2026-03-28T11:07:29.814Z</time></trkpt><trkpt lat="45.3883971" lon="10.7766789"><ele>120.0</ele><time>2026-03-28T11:07:30.815Z</time></trkpt><trkpt lat="45.3884735" lon="10.7768392"><ele>120.0</ele><time>2026-03-28T11:07:31.815Z</time></trkpt><trkpt lat="45.3885522" lon="10.7770051"><ele>120.0</ele><time>2026-03-28T11:07:32.813Z</time></trkpt><trkpt lat="45.388627" lon="10.7771731"><ele>120.0</ele><time>2026-03-28T11:07:33.815Z</time></trkpt><trkpt lat="45.3886882" lon="10.7773332"><ele>118.2</ele><time>2026-03-28T11:07:34.814Z</time></trkpt><trkpt lat="45.3887383" lon="10.7775023"><ele>116.4</ele><time>2026-03-28T11:07:35.815Z</time></trkpt><trkpt lat="45.3887811" lon="10.7776657"><ele>114.6</ele><time>2026-03-28T11:07:36.815Z</time></trkpt><trkpt lat="45.3888159" lon="10.7778068"><ele>112.8</ele><time>2026-03-28T11:07:37.815Z</time></trkpt><trkpt lat="45.3888427" lon="10.7779305"><ele>111.0</ele><time>2026-03-28T11:07:38.813Z</time></trkpt><trkpt lat="45.3888685" lon="10.778026"><ele>111.0</ele><time>2026-03-28T11:07:39.814Z</time></trkpt><trkpt lat="45.3889555" lon="10.7781108"><ele>111.0</ele><time>2026-03-28T11:07:41.815Z</time></trkpt><trkpt lat="45.3890346" lon="10.7781574"><ele>111.0</ele><time>2026-03-28T11:07:42.814Z</time></trkpt><trkpt lat="45.3891172" lon="10.7782103"><ele>111.0</ele><time>2026-03-28T11:07:43.814Z</time></trkpt><trkpt lat="45.3892136" lon="10.7782623"><ele>111.0</ele><time>2026-03-28T11:07:44.814Z</time></trkpt><trkpt lat="45.3893099" lon="10.7783182"><ele>111.0</ele><time>2026-03-28T11:07:45.815Z</time></trkpt><trkpt lat="45.3894141" lon="10.7783692"><ele>111.0</ele><time>2026-03-28T11:07:46.814Z</time></trkpt><trkpt lat="45.3895185" lon="10.7784436"><ele>111.0</ele><time>2026-03-28T11:07:47.814Z</time></trkpt><trkpt lat="45.3896257" lon="10.7785198"><ele>111.0</ele><time>2026-03-28T11:07:48.813Z</time></trkpt><trkpt lat="45.3897389" lon="10.7785977"><ele>110.5</ele><time>2026-03-28T11:07:49.814Z</time></trkpt><trkpt lat="45.3898592" lon="10.7786708"><ele>110.0</ele><time>2026-03-28T11:07:50.814Z</time></trkpt><trkpt lat="45.389971" lon="10.7787497"><ele>109.5</ele><time>2026-03-28T11:07:51.814Z</time></trkpt><trkpt lat="45.3900741" lon="10.7788211"><ele>109.0</ele><time>2026-03-28T11:07:52.813Z</time></trkpt><trkpt lat="45.390169" lon="10.7788945"><ele>109.0</ele><time>2026-03-28T11:07:53.813Z</time></trkpt><trkpt lat="45.3902493" lon="10.7789599"><ele>109.0</ele><time>2026-03-28T11:07:54.814Z</time></trkpt><trkpt lat="45.3903114" lon="10.7789913"><ele>109.0</ele><time>2026-03-28T11:07:55.813Z</time></trkpt><trkpt lat="45.3903765" lon="10.778974"><ele>109.0</ele><time>2026-03-28T11:07:57.814Z</time></trkpt><trkpt lat="45.3904281" lon="10.7788522"><ele>109.0</ele><time>2026-03-28T11:08:00.814Z</time></trkpt><trkpt lat="45.3904524" lon="10.7786653"><ele>109.00000000000001</ele><time>2026-03-28T11:08:02.814Z</time></trkpt><trkpt lat="45.3904662" lon="10.7785567"><ele>109.0</ele><time>2026-03-28T11:08:03.815Z</time></trkpt><trkpt lat="45.3904924" lon="10.7784442"><ele>109.0</ele><time>2026-03-28T11:08:04.814Z</time></trkpt><trkpt lat="45.3905216" lon="10.7783347"><ele>109.0</ele><time>2026-03-28T11:08:05.815Z</time></trkpt><trkpt lat="45.3905448" lon="10.7782234"><ele>109.00000000000001</ele><time>2026-03-28T11:08:06.814Z</time></trkpt><trkpt lat="45.3905683" lon="10.7781223"><ele>109.0</ele><time>2026-03-28T11:08:07.814Z</time></trkpt><trkpt lat="45.390599" lon="10.7780343"><ele>110.00000000000001</ele><time>2026-03-28T11:08:08.814Z</time></trkpt><trkpt lat="45.3906473" lon="10.7779525"><ele>111.0</ele><time>2026-03-28T11:08:09.815Z</time></trkpt><trkpt lat="45.3907097" lon="10.7778888"><ele>112.0</ele><time>2026-03-28T11:08:10.814Z</time></trkpt><trkpt lat="45.3907763" lon="10.7778376"><ele>113.0</ele><time>2026-03-28T11:08:11.814Z</time></trkpt><trkpt lat="45.3908315" lon="10.7777883"><ele>114.00000000000001</ele><time>2026-03-28T11:08:12.814Z</time></trkpt><trkpt lat="45.3908896" lon="10.7776625"><ele>115.0</ele><time>2026-03-28T11:08:14.814Z</time></trkpt><trkpt lat="45.3909303" lon="10.7775864"><ele>115.6</ele><time>2026-03-28T11:08:15.814Z</time></trkpt><trkpt lat="45.3909876" lon="10.7774657"><ele>116.2</ele><time>2026-03-28T11:08:17.814Z</time></trkpt><trkpt lat="45.3910006" lon="10.777306"><ele>116.80000000000001</ele><time>2026-03-28T11:08:19.815Z</time></trkpt><trkpt lat="45.3909974" lon="10.7772046"><ele>117.4</ele><time>2026-03-28T11:08:20.814Z</time></trkpt><trkpt lat="45.3909958" lon="10.7770809"><ele>118.0</ele><time>2026-03-28T11:08:21.814Z</time></trkpt><trkpt lat="45.3909864" lon="10.7769553"><ele>117.33333333333334</ele><time>2026-03-28T11:08:22.813Z</time></trkpt><trkpt lat="45.3909738" lon="10.7768331"><ele>116.66666666666667</ele><time>2026-03-28T11:08:23.813Z</time></trkpt><trkpt lat="45.3909242" lon="10.7767202"><ele>116.0</ele><time>2026-03-28T11:08:24.814Z</time></trkpt><trkpt lat="45.39088" lon="10.7766191"><ele>115.33333333333334</ele><time>2026-03-28T11:08:25.814Z</time></trkpt><trkpt lat="45.3908349" lon="10.7765295"><ele>114.66666666666667</ele><time>2026-03-28T11:08:26.814Z</time></trkpt><trkpt lat="45.3907808" lon="10.7764588"><ele>114.0</ele><time>2026-03-28T11:08:27.814Z</time></trkpt><trkpt lat="45.3907343" lon="10.7763845"><ele>114.0</ele><time>2026-03-28T11:08:28.814Z</time></trkpt><trkpt lat="45.3906524" lon="10.7762737"><ele>114.0</ele><time>2026-03-28T11:08:30.814Z</time></trkpt><trkpt lat="45.39058" lon="10.776145"><ele>114.0</ele><time>2026-03-28T11:08:32.813Z</time></trkpt><trkpt lat="45.3905537" lon="10.7759999"><ele>114.0</ele><time>2026-03-28T11:08:34.814Z</time></trkpt><trkpt lat="45.3905582" lon="10.7758887"><ele>114.0</ele><time>2026-03-28T11:08:36.814Z</time></trkpt><trkpt lat="45.3905808" lon="10.7758049"><ele>112.2</ele><time>2026-03-28T11:08:38.814Z</time></trkpt><trkpt lat="45.3905976" lon="10.7757113"><ele>110.4</ele><time>2026-03-28T11:08:50.814Z</time></trkpt><trkpt lat="45.3906107" lon="10.7755204"><ele>108.6</ele><time>2026-03-28T11:08:52.814Z</time></trkpt><trkpt lat="45.3906008" lon="10.7753855"><ele>106.8</ele><time>2026-03-28T11:08:53.814Z</time></trkpt><trkpt lat="45.3905939" lon="10.7752341"><ele>105.0</ele><time>2026-03-28T11:08:54.815Z</time></trkpt><trkpt lat="45.390596" lon="10.7750603"><ele>104.75</ele><time>2026-03-28T11:08:55.814Z</time></trkpt><trkpt lat="45.3905951" lon="10.7748822"><ele>104.5</ele><time>2026-03-28T11:08:56.813Z</time></trkpt><trkpt lat="45.3905776" lon="10.7747014"><ele>104.25</ele><time>2026-03-28T11:08:57.814Z</time></trkpt><trkpt lat="45.3905422" lon="10.774518"><ele>104.0</ele><time>2026-03-28T11:08:58.813Z</time></trkpt><trkpt lat="45.3904958" lon="10.7743363"><ele>104.80000000000001</ele><time>2026-03-28T11:08:59.814Z</time></trkpt><trkpt lat="45.3904442" lon="10.7741625"><ele>105.60000000000001</ele><time>2026-03-28T11:09:00.814Z</time></trkpt><trkpt lat="45.3903992" lon="10.7739926"><ele>106.4</ele><time>2026-03-28T11:09:01.814Z</time></trkpt><trkpt lat="45.3903717" lon="10.7738465"><ele>107.2</ele><time>2026-03-28T11:09:02.815Z</time></trkpt><trkpt lat="45.3903662" lon="10.7737306"><ele>108.0</ele><time>2026-03-28T11:09:03.814Z</time></trkpt><trkpt lat="45.3904324" lon="10.7736019"><ele>106.25</ele><time>2026-03-28T11:09:05.814Z</time></trkpt><trkpt lat="45.390513" lon="10.7735549"><ele>104.5</ele><time>2026-03-28T11:09:06.813Z</time></trkpt><trkpt lat="45.3906365" lon="10.7735105"><ele>102.75</ele><time>2026-03-28T11:09:07.814Z</time></trkpt><trkpt lat="45.3907576" lon="10.7734522"><ele>101.0</ele><time>2026-03-28T11:09:08.814Z</time></trkpt><trkpt lat="45.3908561" lon="10.7733869"><ele>100.4</ele><time>2026-03-28T11:09:09.813Z</time></trkpt><trkpt lat="45.3909385" lon="10.7733185"><ele>99.8</ele><time>2026-03-28T11:09:10.814Z</time></trkpt><trkpt lat="45.3910202" lon="10.7732605"><ele>99.2</ele><time>2026-03-28T11:09:11.813Z</time></trkpt><trkpt lat="45.3910899" lon="10.7731995"><ele>98.60000000000001</ele><time>2026-03-28T11:09:12.814Z</time></trkpt><trkpt lat="45.3911978" lon="10.7731183"><ele>98.0</ele><time>2026-03-28T11:09:14.813Z</time></trkpt><trkpt lat="45.391263" lon="10.7730637"><ele>97.99999999999999</ele><time>2026-03-28T11:09:15.815Z</time></trkpt><trkpt lat="45.3913162" lon="10.7729996"><ele>98.0</ele><time>2026-03-28T11:09:16.814Z</time></trkpt><trkpt lat="45.3913895" lon="10.772916"><ele>98.0</ele><time>2026-03-28T11:09:17.813Z</time></trkpt><trkpt lat="45.3914528" lon="10.7728321"><ele>98.0</ele><time>2026-03-28T11:09:18.813Z</time></trkpt><trkpt lat="45.3915228" lon="10.7727497"><ele>97.99999999999999</ele><time>2026-03-28T11:09:19.815Z</time></trkpt><trkpt lat="45.3915989" lon="10.7726733"><ele>98.0</ele><time>2026-03-28T11:09:20.815Z</time></trkpt><trkpt lat="45.3916775" lon="10.7725912"><ele>95.80000000000001</ele><time>2026-03-28T11:09:21.815Z</time></trkpt><trkpt lat="45.3917596" lon="10.7725087"><ele>93.6</ele><time>2026-03-28T11:09:22.814Z</time></trkpt><trkpt lat="45.3918366" lon="10.7724413"><ele>91.4</ele><time>2026-03-28T11:09:23.814Z</time></trkpt><trkpt lat="45.3919052" lon="10.7723701"><ele>89.19999999999999</ele><time>2026-03-28T11:09:24.813Z</time></trkpt><trkpt lat="45.3919723" lon="10.7722879"><ele>87.0</ele><time>2026-03-28T11:09:25.814Z</time></trkpt><trkpt lat="45.3920361" lon="10.7721928"><ele>87.0</ele><time>2026-03-28T11:09:26.814Z</time></trkpt><trkpt lat="45.3920923" lon="10.7720908"><ele>87.0</ele><time>2026-03-28T11:09:27.814Z</time></trkpt><trkpt lat="45.3921528" lon="10.7719902"><ele>87.0</ele><time>2026-03-28T11:09:28.815Z</time></trkpt><trkpt lat="45.3922216" lon="10.771895"><ele>87.0</ele><time>2026-03-28T11:09:29.815Z</time></trkpt><trkpt lat="45.3922931" lon="10.7718203"><ele>87.0</ele><time>2026-03-28T11:09:30.815Z</time></trkpt><trkpt lat="45.3923731" lon="10.7717539"><ele>86.85714285714286</ele><time>2026-03-28T11:09:31.814Z</time></trkpt><trkpt lat="45.3924507" lon="10.7716994"><ele>86.71428571428572</ele><time>2026-03-28T11:09:32.814Z</time></trkpt><trkpt lat="45.3925107" lon="10.7716235"><ele>86.57142857142858</ele><time>2026-03-28T11:09:33.814Z</time></trkpt><trkpt lat="45.3925523" lon="10.7715462"><ele>86.42857142857143</ele><time>2026-03-28T11:09:34.813Z</time></trkpt><trkpt lat="45.3925852" lon="10.7714601"><ele>86.28571428571429</ele><time>2026-03-28T11:09:35.813Z</time></trkpt><trkpt lat="45.3925955" lon="10.7713682"><ele>86.14285714285715</ele><time>2026-03-28T11:09:36.813Z</time></trkpt><trkpt lat="45.3925943" lon="10.7712602"><ele>86.0</ele><time>2026-03-28T11:09:37.814Z</time></trkpt><trkpt lat="45.3925802" lon="10.7711526"><ele>86.0</ele><time>2026-03-28T11:09:38.814Z</time></trkpt><trkpt lat="45.3925608" lon="10.7710253"><ele>86.0</ele><time>2026-03-28T11:09:39.815Z</time></trkpt><trkpt lat="45.3925378" lon="10.7708757"><ele>86.0</ele><time>2026-03-28T11:09:40.815Z</time></trkpt><trkpt lat="45.3925068" lon="10.7707085"><ele>86.0</ele><time>2026-03-28T11:09:41.814Z</time></trkpt><trkpt lat="45.392486" lon="10.7705591"><ele>86.0</ele><time>2026-03-28T11:09:42.813Z</time></trkpt><trkpt lat="45.3924818" lon="10.7704496"><ele>85.75</ele><time>2026-03-28T11:09:43.814Z</time></trkpt><trkpt lat="45.3925331" lon="10.7703089"><ele>85.5</ele><time>2026-03-28T11:09:45.813Z</time></trkpt><trkpt lat="45.3926645" lon="10.7703051"><ele>85.25</ele><time>2026-03-28T11:09:47.814Z</time></trkpt><trkpt lat="45.3927615" lon="10.7702999"><ele>85.0</ele><time>2026-03-28T11:09:48.814Z</time></trkpt><trkpt lat="45.3928801" lon="10.7702829"><ele>85.0</ele><time>2026-03-28T11:09:49.814Z</time></trkpt><trkpt lat="45.3930029" lon="10.7702797"><ele>85.0</ele><time>2026-03-28T11:09:50.813Z</time></trkpt><trkpt lat="45.3931269" lon="10.7702805"><ele>85.0</ele><time>2026-03-28T11:09:51.813Z</time></trkpt><trkpt lat="45.3932582" lon="10.7702821"><ele>85.0</ele><time>2026-03-28T11:09:52.814Z</time></trkpt><trkpt lat="45.3934002" lon="10.7702909"><ele>85.5</ele><time>2026-03-28T11:09:53.814Z</time></trkpt><trkpt lat="45.3935463" lon="10.7703205"><ele>86.0</ele><time>2026-03-28T11:09:54.814Z</time></trkpt><trkpt lat="45.3936918" lon="10.7703593"><ele>86.5</ele><time>2026-03-28T11:09:55.814Z</time></trkpt><trkpt lat="45.3938365" lon="10.7704036"><ele>87.0</ele><time>2026-03-28T11:09:56.814Z</time></trkpt><trkpt lat="45.3939801" lon="10.7704592"><ele>89.0</ele><time>2026-03-28T11:09:57.813Z</time></trkpt><trkpt lat="45.394115" lon="10.770529"><ele>91.0</ele><time>2026-03-28T11:09:58.814Z</time></trkpt><trkpt lat="45.3942426" lon="10.7706123"><ele>93.0</ele><time>2026-03-28T11:09:59.814Z</time></trkpt><trkpt lat="45.3943631" lon="10.7707111"><ele>95.0</ele><time>2026-03-28T11:10:00.813Z</time></trkpt><trkpt lat="45.3944754" lon="10.7708369"><ele>95.0</ele><time>2026-03-28T11:10:01.813Z</time></trkpt><trkpt lat="45.3945864" lon="10.7709624"><ele>95.0</ele><time>2026-03-28T11:10:02.813Z</time></trkpt><trkpt lat="45.3946978" lon="10.7710921"><ele>95.0</ele><time>2026-03-28T11:10:03.813Z</time></trkpt><trkpt lat="45.3948066" lon="10.7712342"><ele>95.0</ele><time>2026-03-28T11:10:04.814Z</time></trkpt><trkpt lat="45.3949121" lon="10.7713696"><ele>94.5</ele><time>2026-03-28T11:10:05.814Z</time></trkpt><trkpt lat="45.3950129" lon="10.7715072"><ele>94.0</ele><time>2026-03-28T11:10:06.814Z</time></trkpt><trkpt lat="45.3951112" lon="10.7716438"><ele>93.5</ele><time>2026-03-28T11:10:07.814Z</time></trkpt><trkpt lat="45.3951998" lon="10.7717745"><ele>93.0</ele><time>2026-03-28T11:10:08.815Z</time></trkpt><trkpt lat="45.3952786" lon="10.7719245"><ele>93.0</ele><time>2026-03-28T11:10:09.814Z</time></trkpt><trkpt lat="45.3953412" lon="10.7720926"><ele>93.0</ele><time>2026-03-28T11:10:10.814Z</time></trkpt><trkpt lat="45.3954045" lon="10.7722537"><ele>93.0</ele><time>2026-03-28T11:10:11.814Z</time></trkpt><trkpt lat="45.3954637" lon="10.7724139"><ele>93.0</ele><time>2026-03-28T11:10:12.814Z</time></trkpt><trkpt lat="45.3955242" lon="10.7725821"><ele>96.75</ele><time>2026-03-28T11:10:13.815Z</time></trkpt><trkpt lat="45.3955878" lon="10.7727479"><ele>100.5</ele><time>2026-03-28T11:10:14.815Z</time></trkpt><trkpt lat="45.3956534" lon="10.7729148"><ele>104.25</ele><time>2026-03-28T11:10:15.813Z</time></trkpt><trkpt lat="45.3957061" lon="10.7730905"><ele>108.0</ele><time>2026-03-28T11:10:16.815Z</time></trkpt><trkpt lat="45.3957425" lon="10.7732484"><ele>108.0</ele><time>2026-03-28T11:10:17.814Z</time></trkpt><trkpt lat="45.3957905" lon="10.7734232"><ele>108.0</ele><time>2026-03-28T11:10:18.815Z</time></trkpt><trkpt lat="45.3958368" lon="10.7735975"><ele>108.0</ele><time>2026-03-28T11:10:19.813Z</time></trkpt><trkpt lat="45.3958795" lon="10.773773"><ele>108.0</ele><time>2026-03-28T11:10:20.813Z</time></trkpt><trkpt lat="45.395908" lon="10.7739307"><ele>107.5</ele><time>2026-03-28T11:10:21.814Z</time></trkpt><trkpt lat="45.3959353" lon="10.7740629"><ele>107.0</ele><time>2026-03-28T11:10:22.813Z</time></trkpt><trkpt lat="45.3959723" lon="10.7741774"><ele>106.5</ele><time>2026-03-28T11:10:23.813Z</time></trkpt><trkpt lat="45.3960199" lon="10.7742545"><ele>106.0</ele><time>2026-03-28T11:10:24.814Z</time></trkpt><trkpt lat="45.3960885" lon="10.7743129"><ele>105.5</ele><time>2026-03-28T11:10:25.814Z</time></trkpt><trkpt lat="45.3961705" lon="10.774347"><ele>105.0</ele><time>2026-03-28T11:10:26.814Z</time></trkpt><trkpt lat="45.3962604" lon="10.774381"><ele>106.2</ele><time>2026-03-28T11:10:27.813Z</time></trkpt><trkpt lat="45.3963596" lon="10.7744047"><ele>107.4</ele><time>2026-03-28T11:10:28.814Z</time></trkpt><trkpt lat="45.3964644" lon="10.7744175"><ele>108.6</ele><time>2026-03-28T11:10:29.813Z</time></trkpt><trkpt lat="45.3965731" lon="10.7744328"><ele>109.8</ele><time>2026-03-28T11:10:30.813Z</time></trkpt><trkpt lat="45.3966835" lon="10.7744506"><ele>111.0</ele><time>2026-03-28T11:10:31.815Z</time></trkpt><trkpt lat="45.3967881" lon="10.7744627"><ele>111.0</ele><time>2026-03-28T11:10:32.813Z</time></trkpt><trkpt lat="45.3968706" lon="10.7744705"><ele>111.0</ele><time>2026-03-28T11:10:33.814Z</time></trkpt><trkpt lat="45.3969473" lon="10.7745262"><ele>111.0</ele><time>2026-03-28T11:10:35.814Z</time></trkpt><trkpt lat="45.396935" lon="10.7746844"><ele>111.0</ele><time>2026-03-28T11:10:37.814Z</time></trkpt><trkpt lat="45.3969095" lon="10.7747771"><ele>111.0</ele><time>2026-03-28T11:10:38.814Z</time></trkpt><trkpt lat="45.39688" lon="10.7748944"><ele>111.0</ele><time>2026-03-28T11:10:39.814Z</time></trkpt><trkpt lat="45.3968561" lon="10.7750384"><ele>111.5</ele><time>2026-03-28T11:10:40.814Z</time></trkpt><trkpt lat="45.3968318" lon="10.7751936"><ele>112.0</ele><time>2026-03-28T11:10:41.813Z</time></trkpt><trkpt lat="45.396809" lon="10.7753623"><ele>112.5</ele><time>2026-03-28T11:10:42.813Z</time></trkpt><trkpt lat="45.3967822" lon="10.7755337"><ele>113.0</ele><time>2026-03-28T11:10:43.815Z</time></trkpt><trkpt lat="45.3967666" lon="10.7757065"><ele>113.0</ele><time>2026-03-28T11:10:44.813Z</time></trkpt><trkpt lat="45.396758" lon="10.7758582"><ele>113.00000000000001</ele><time>2026-03-28T11:10:45.814Z</time></trkpt><trkpt lat="45.3967593" lon="10.7759956"><ele>113.00000000000001</ele><time>2026-03-28T11:10:46.813Z</time></trkpt><trkpt lat="45.3967636" lon="10.7761078"><ele>113.0</ele><time>2026-03-28T11:10:47.813Z</time></trkpt><trkpt lat="45.3968128" lon="10.7762325"><ele>113.0</ele><time>2026-03-28T11:10:49.815Z</time></trkpt><trkpt lat="45.3969516" lon="10.7762526"><ele>113.0</ele><time>2026-03-28T11:10:51.815Z</time></trkpt><trkpt lat="45.3970461" lon="10.7762814"><ele>113.0</ele><time>2026-03-28T11:10:52.814Z</time></trkpt><trkpt lat="45.39716" lon="10.7763092"><ele>113.0</ele><time>2026-03-28T11:10:53.815Z</time></trkpt><trkpt lat="45.3972823" lon="10.7763438"><ele>113.0</ele><time>2026-03-28T11:10:54.814Z</time></trkpt><trkpt lat="45.397405" lon="10.7763919"><ele>114.0</ele><time>2026-03-28T11:10:55.813Z</time></trkpt><trkpt lat="45.3975182" lon="10.776422"><ele>115.00000000000001</ele><time>2026-03-28T11:10:56.813Z</time></trkpt><trkpt lat="45.3976388" lon="10.7764203"><ele>116.00000000000001</ele><time>2026-03-28T11:10:57.813Z</time></trkpt><trkpt lat="45.3977557" lon="10.7764024"><ele>117.0</ele><time>2026-03-28T11:10:58.813Z</time></trkpt><trkpt lat="45.3978484" lon="10.776398"><ele>118.0</ele><time>2026-03-28T11:10:59.814Z</time></trkpt><trkpt lat="45.3979215" lon="10.776412"><ele>118.0</ele><time>2026-03-28T11:11:00.814Z</time></trkpt><trkpt lat="45.3979803" lon="10.7764531"><ele>118.00000000000001</ele><time>2026-03-28T11:11:01.815Z</time></trkpt><trkpt lat="45.3980283" lon="10.7766199"><ele>118.00000000000001</ele><time>2026-03-28T11:11:03.814Z</time></trkpt><trkpt lat="45.3980503" lon="10.7767431"><ele>118.0</ele><time>2026-03-28T11:11:04.815Z</time></trkpt><trkpt lat="45.3980884" lon="10.7768371"><ele>118.0</ele><time>2026-03-28T11:11:05.813Z</time></trkpt><trkpt lat="45.3982272" lon="10.7769066"><ele>119.0</ele><time>2026-03-28T11:11:07.814Z</time></trkpt><trkpt lat="45.3983281" lon="10.7769264"><ele>120.00000000000001</ele><time>2026-03-28T11:11:08.814Z</time></trkpt><trkpt lat="45.3984404" lon="10.7769604"><ele>121.00000000000001</ele><time>2026-03-28T11:11:09.814Z</time></trkpt><trkpt lat="45.3985422" lon="10.7769927"><ele>122.0</ele><time>2026-03-28T11:11:10.814Z</time></trkpt><trkpt lat="45.3986155" lon="10.7770273"><ele>123.0</ele><time>2026-03-28T11:11:11.814Z</time></trkpt><trkpt lat="45.3986789" lon="10.7770937"><ele>123.0</ele><time>2026-03-28T11:11:12.814Z</time></trkpt><trkpt lat="45.3987291" lon="10.777178"><ele>123.00000000000001</ele><time>2026-03-28T11:11:13.814Z</time></trkpt><trkpt lat="45.3987701" lon="10.7772959"><ele>123.00000000000001</ele><time>2026-03-28T11:11:14.813Z</time></trkpt><trkpt lat="45.3988167" lon="10.777429"><ele>123.0</ele><time>2026-03-28T11:11:15.815Z</time></trkpt><trkpt lat="45.398889" lon="10.7775518"><ele>123.0</ele><time>2026-03-28T11:11:16.813Z</time></trkpt><trkpt lat="45.3989751" lon="10.7776681"><ele>123.0</ele><time>2026-03-28T11:11:17.814Z</time></trkpt><trkpt lat="45.3990585" lon="10.7777763"><ele>123.0</ele><time>2026-03-28T11:11:18.815Z</time></trkpt><trkpt lat="45.3991155" lon="10.7778584"><ele>123.0</ele><time>2026-03-28T11:11:19.814Z</time></trkpt><trkpt lat="45.3991466" lon="10.7779441"><ele>123.0</ele><time>2026-03-28T11:11:20.814Z</time></trkpt><trkpt lat="45.3991594" lon="10.7780524"><ele>123.0</ele><time>2026-03-28T11:11:21.813Z</time></trkpt><trkpt lat="45.3991658" lon="10.77819"><ele>123.0</ele><time>2026-03-28T11:11:22.813Z</time></trkpt><trkpt lat="45.399183" lon="10.7783519"><ele>122.75</ele><time>2026-03-28T11:11:23.813Z</time></trkpt><trkpt lat="45.3992092" lon="10.7785379"><ele>122.5</ele><time>2026-03-28T11:11:24.814Z</time></trkpt><trkpt lat="45.3992338" lon="10.7787344"><ele>122.25</ele><time>2026-03-28T11:11:25.813Z</time></trkpt><trkpt lat="45.399257" lon="10.7789308"><ele>122.0</ele><time>2026-03-28T11:11:26.813Z</time></trkpt><trkpt lat="45.3992774" lon="10.7791125"><ele>121.99999999999999</ele><time>2026-03-28T11:11:27.813Z</time></trkpt><trkpt lat="45.3992968" lon="10.7792676"><ele>122.0</ele><time>2026-03-28T11:11:28.813Z</time></trkpt><trkpt lat="45.3993084" lon="10.7793857"><ele>122.0</ele><time>2026-03-28T11:11:29.814Z</time></trkpt><trkpt lat="45.3993158" lon="10.779495"><ele>122.0</ele><time>2026-03-28T11:11:30.813Z</time></trkpt><trkpt lat="45.3993205" lon="10.7795943"><ele>121.99999999999999</ele><time>2026-03-28T11:11:31.813Z</time></trkpt><trkpt lat="45.3993179" lon="10.779748"><ele>122.0</ele><time>2026-03-28T11:11:33.814Z</time></trkpt><trkpt lat="45.3993464" lon="10.7798556"><ele>121.83333333333333</ele><time>2026-03-28T11:11:36.815Z</time></trkpt><trkpt lat="45.3994035" lon="10.779895"><ele>121.66666666666666</ele><time>2026-03-28T11:11:39.813Z</time></trkpt><trkpt lat="45.3994838" lon="10.779899"><ele>121.5</ele><time>2026-03-28T11:11:41.813Z</time></trkpt><trkpt lat="45.3995825" lon="10.7798799"><ele>121.33333333333334</ele><time>2026-03-28T11:11:43.814Z</time></trkpt><trkpt lat="45.3997059" lon="10.7798744"><ele>121.16666666666667</ele><time>2026-03-28T11:11:45.814Z</time></trkpt><trkpt lat="45.3997775" lon="10.7798658"><ele>121.0</ele><time>2026-03-28T11:11:46.814Z</time></trkpt><trkpt lat="45.3998553" lon="10.7798598"><ele>121.0</ele><time>2026-03-28T11:11:47.814Z</time></trkpt><trkpt lat="45.39994" lon="10.7798594"><ele>121.0</ele><time>2026-03-28T11:11:48.815Z</time></trkpt><trkpt lat="45.4000304" lon="10.779856"><ele>121.0</ele><time>2026-03-28T11:11:49.814Z</time></trkpt><trkpt lat="45.4001234" lon="10.779855"><ele>121.0</ele><time>2026-03-28T11:11:50.814Z</time></trkpt><trkpt lat="45.4002191" lon="10.7798538"><ele>121.0</ele><time>2026-03-28T11:11:51.814Z</time></trkpt><trkpt lat="45.4003146" lon="10.7798524"><ele>121.0</ele><time>2026-03-28T11:11:52.815Z</time></trkpt><trkpt lat="45.4004089" lon="10.7798545"><ele>121.0</ele><time>2026-03-28T11:11:53.814Z</time></trkpt><trkpt lat="45.4005064" lon="10.7798782"><ele>121.0</ele><time>2026-03-28T11:11:54.814Z</time></trkpt><trkpt lat="45.4006001" lon="10.7799301"><ele>121.0</ele><time>2026-03-28T11:11:55.814Z</time></trkpt><trkpt lat="45.4007034" lon="10.7800111"><ele>121.0</ele><time>2026-03-28T11:11:56.813Z</time></trkpt><trkpt lat="45.4008038" lon="10.7801038"><ele>121.0</ele><time>2026-03-28T11:11:57.813Z</time></trkpt><trkpt lat="45.4009009" lon="10.7801875"><ele>121.0</ele><time>2026-03-28T11:11:58.813Z</time></trkpt><trkpt lat="45.4009971" lon="10.7802688"><ele>121.0</ele><time>2026-03-28T11:11:59.815Z</time></trkpt><trkpt lat="45.4010971" lon="10.7803469"><ele>121.0</ele><time>2026-03-28T11:12:00.814Z</time></trkpt><trkpt lat="45.4012006" lon="10.7804185"><ele>121.00000000000001</ele><time>2026-03-28T11:12:01.813Z</time></trkpt><trkpt lat="45.4013025" lon="10.7804842"><ele>121.0</ele><time>2026-03-28T11:12:02.815Z</time></trkpt><trkpt lat="45.4013938" lon="10.7805311"><ele>121.0</ele><time>2026-03-28T11:12:03.814Z</time></trkpt><trkpt lat="45.4014773" lon="10.7805705"><ele>121.0</ele><time>2026-03-28T11:12:04.814Z</time></trkpt><trkpt lat="45.4015453" lon="10.7806168"><ele>121.00000000000001</ele><time>2026-03-28T11:12:05.813Z</time></trkpt><trkpt lat="45.4015945" lon="10.7806756"><ele>121.0</ele><time>2026-03-28T11:12:06.813Z</time></trkpt><trkpt lat="45.4016317" lon="10.7807714"><ele>121.00000000000001</ele><time>2026-03-28T11:12:07.815Z</time></trkpt><trkpt lat="45.4016665" lon="10.7808867"><ele>121.0</ele><time>2026-03-28T11:12:08.814Z</time></trkpt><trkpt lat="45.4016991" lon="10.7809983"><ele>121.0</ele><time>2026-03-28T11:12:09.813Z</time></trkpt><trkpt lat="45.4017396" lon="10.7811032"><ele>121.0</ele><time>2026-03-28T11:12:10.813Z</time></trkpt><trkpt lat="45.4017874" lon="10.7812056"><ele>121.00000000000001</ele><time>2026-03-28T11:12:11.814Z</time></trkpt><trkpt lat="45.4018427" lon="10.7813059"><ele>121.0</ele><time>2026-03-28T11:12:12.814Z</time></trkpt><trkpt lat="45.4018989" lon="10.7813957"><ele>121.0</ele><time>2026-03-28T11:12:13.815Z</time></trkpt><trkpt lat="45.4019633" lon="10.7814854"><ele>121.0</ele><time>2026-03-28T11:12:14.813Z</time></trkpt><trkpt lat="45.4020363" lon="10.7815749"><ele>121.0</ele><time>2026-03-28T11:12:15.813Z</time></trkpt><trkpt lat="45.4021231" lon="10.781656"><ele>121.0</ele><time>2026-03-28T11:12:16.813Z</time></trkpt><trkpt lat="45.402214" lon="10.7817338"><ele>121.0</ele><time>2026-03-28T11:12:17.814Z</time></trkpt><trkpt lat="45.4023123" lon="10.7818094"><ele>120.8</ele><time>2026-03-28T11:12:18.813Z</time></trkpt><trkpt lat="45.4024038" lon="10.7818992"><ele>120.6</ele><time>2026-03-28T11:12:19.813Z</time></trkpt><trkpt lat="45.4024863" lon="10.7820074"><ele>120.4</ele><time>2026-03-28T11:12:20.814Z</time></trkpt><trkpt lat="45.4025636" lon="10.7821254"><ele>120.2</ele><time>2026-03-28T11:12:21.814Z</time></trkpt><trkpt lat="45.4026328" lon="10.7822486"><ele>120.0</ele><time>2026-03-28T11:12:22.814Z</time></trkpt><trkpt lat="45.4027008" lon="10.7823669"><ele>120.0</ele><time>2026-03-28T11:12:23.815Z</time></trkpt><trkpt lat="45.4027677" lon="10.7824856"><ele>120.0</ele><time>2026-03-28T11:12:24.814Z</time></trkpt><trkpt lat="45.4028364" lon="10.7826066"><ele>120.0</ele><time>2026-03-28T11:12:25.813Z</time></trkpt><trkpt lat="45.4029099" lon="10.7827216"><ele>120.0</ele><time>2026-03-28T11:12:26.814Z</time></trkpt><trkpt lat="45.4029785" lon="10.7828107"><ele>120.0</ele><time>2026-03-28T11:12:27.813Z</time></trkpt><trkpt lat="45.4030526" lon="10.7828915"><ele>119.83333333333333</ele><time>2026-03-28T11:12:28.812Z</time></trkpt><trkpt lat="45.4031107" lon="10.7829482"><ele>119.66666666666666</ele><time>2026-03-28T11:12:29.813Z</time></trkpt><trkpt lat="45.4031878" lon="10.7830379"><ele>119.5</ele><time>2026-03-28T11:12:31.813Z</time></trkpt><trkpt lat="45.4032329" lon="10.7831837"><ele>119.33333333333333</ele><time>2026-03-28T11:12:33.814Z</time></trkpt><trkpt lat="45.4032695" lon="10.7832597"><ele>119.16666666666666</ele><time>2026-03-28T11:12:34.814Z</time></trkpt><trkpt lat="45.4033216" lon="10.7833332"><ele>119.0</ele><time>2026-03-28T11:12:35.812Z</time></trkpt><trkpt lat="45.403377" lon="10.7834198"><ele>119.2</ele><time>2026-03-28T11:12:36.813Z</time></trkpt><trkpt lat="45.4034328" lon="10.783519"><ele>119.4</ele><time>2026-03-28T11:12:37.814Z</time></trkpt><trkpt lat="45.4034996" lon="10.7836278"><ele>119.6</ele><time>2026-03-28T11:12:38.812Z</time></trkpt><trkpt lat="45.4035743" lon="10.7837486"><ele>119.8</ele><time>2026-03-28T11:12:39.813Z</time></trkpt><trkpt lat="45.4036509" lon="10.7838705"><ele>120.0</ele><time>2026-03-28T11:12:40.814Z</time></trkpt><trkpt lat="45.4037379" lon="10.7839983"><ele>120.0</ele><time>2026-03-28T11:12:41.813Z</time></trkpt><trkpt lat="45.4038224" lon="10.7841299"><ele>120.0</ele><time>2026-03-28T11:12:42.814Z</time></trkpt><trkpt lat="45.4039015" lon="10.7842602"><ele>120.0</ele><time>2026-03-28T11:12:43.812Z</time></trkpt><trkpt lat="45.4039623" lon="10.7843856"><ele>120.0</ele><time>2026-03-28T11:12:44.813Z</time></trkpt><trkpt lat="45.4040183" lon="10.784534"><ele>120.75</ele><time>2026-03-28T11:12:45.812Z</time></trkpt><trkpt lat="45.4040597" lon="10.7847018"><ele>121.5</ele><time>2026-03-28T11:12:46.813Z</time></trkpt><trkpt lat="45.4040829" lon="10.784865"><ele>122.25</ele><time>2026-03-28T11:12:47.814Z</time></trkpt><trkpt lat="45.4040842" lon="10.7850467"><ele>123.0</ele><time>2026-03-28T11:12:48.813Z</time></trkpt><trkpt lat="45.4040933" lon="10.7852264"><ele>123.25</ele><time>2026-03-28T11:12:49.813Z</time></trkpt><trkpt lat="45.4041066" lon="10.7854065"><ele>123.5</ele><time>2026-03-28T11:12:50.813Z</time></trkpt><trkpt lat="45.4041208" lon="10.7855856"><ele>123.75</ele><time>2026-03-28T11:12:51.813Z</time></trkpt><trkpt lat="45.4041456" lon="10.7857561"><ele>124.0</ele><time>2026-03-28T11:12:52.813Z</time></trkpt><trkpt lat="45.404186" lon="10.7859275"><ele>124.0</ele><time>2026-03-28T11:12:53.812Z</time></trkpt><trkpt lat="45.4042311" lon="10.7860923"><ele>124.0</ele><time>2026-03-28T11:12:54.813Z</time></trkpt><trkpt lat="45.404271" lon="10.7862387"><ele>124.0</ele><time>2026-03-28T11:12:55.812Z</time></trkpt><trkpt lat="45.4042934" lon="10.7863713"><ele>124.0</ele><time>2026-03-28T11:12:56.813Z</time></trkpt><trkpt lat="45.404301" lon="10.7864779"><ele>124.0</ele><time>2026-03-28T11:12:57.813Z</time></trkpt><trkpt lat="45.4042886" lon="10.7865788"><ele>124.0</ele><time>2026-03-28T11:12:58.813Z</time></trkpt><trkpt lat="45.404265" lon="10.7866941"><ele>124.0</ele><time>2026-03-28T11:12:59.813Z</time></trkpt><trkpt lat="45.4042489" lon="10.786829"><ele>124.0</ele><time>2026-03-28T11:13:00.812Z</time></trkpt><trkpt lat="45.4042476" lon="10.7869795"><ele>124.0</ele><time>2026-03-28T11:13:01.813Z</time></trkpt><trkpt lat="45.4042636" lon="10.7871399"><ele>124.0</ele><time>2026-03-28T11:13:02.813Z</time></trkpt><trkpt lat="45.4042843" lon="10.7872934"><ele>123.0</ele><time>2026-03-28T11:13:03.813Z</time></trkpt><trkpt lat="45.4043096" lon="10.787442"><ele>122.0</ele><time>2026-03-28T11:13:04.813Z</time></trkpt><trkpt lat="45.4043436" lon="10.7875762"><ele>121.0</ele><time>2026-03-28T11:13:05.814Z</time></trkpt><trkpt lat="45.404392" lon="10.7877136"><ele>120.0</ele><time>2026-03-28T11:13:06.814Z</time></trkpt><trkpt lat="45.404448" lon="10.7878508"><ele>119.0</ele><time>2026-03-28T11:13:07.812Z</time></trkpt><trkpt lat="45.4045182" lon="10.7879746"><ele>118.2</ele><time>2026-03-28T11:13:08.813Z</time></trkpt><trkpt lat="45.4045916" lon="10.7880903"><ele>117.4</ele><time>2026-03-28T11:13:09.813Z</time></trkpt><trkpt lat="45.404666" lon="10.7881997"><ele>116.6</ele><time>2026-03-28T11:13:10.813Z</time></trkpt><trkpt lat="45.4047401" lon="10.7882979"><ele>115.8</ele><time>2026-03-28T11:13:11.813Z</time></trkpt><trkpt lat="45.4047983" lon="10.7883879"><ele>115.0</ele><time>2026-03-28T11:13:12.814Z</time></trkpt><trkpt lat="45.4048382" lon="10.7884838"><ele>114.0</ele><time>2026-03-28T11:13:13.813Z</time></trkpt><trkpt lat="45.4048576" lon="10.7886017"><ele>113.0</ele><time>2026-03-28T11:13:14.813Z</time></trkpt><trkpt lat="45.4048661" lon="10.7887361"><ele>112.0</ele><time>2026-03-28T11:13:15.814Z</time></trkpt><trkpt lat="45.4048732" lon="10.7888833"><ele>111.0</ele><time>2026-03-28T11:13:16.813Z</time></trkpt><trkpt lat="45.404879" lon="10.7890427"><ele>110.0</ele><time>2026-03-28T11:13:17.812Z</time></trkpt><trkpt lat="45.4048869" lon="10.7891997"><ele>110.2</ele><time>2026-03-28T11:13:18.813Z</time></trkpt><trkpt lat="45.4048926" lon="10.789356"><ele>110.4</ele><time>2026-03-28T11:13:19.814Z</time></trkpt><trkpt lat="45.4048969" lon="10.7894925"><ele>110.6</ele><time>2026-03-28T11:13:20.813Z</time></trkpt><trkpt lat="45.4048996" lon="10.7896104"><ele>110.8</ele><time>2026-03-28T11:13:21.813Z</time></trkpt><trkpt lat="45.4049039" lon="10.7897274"><ele>111.0</ele><time>2026-03-28T11:13:22.813Z</time></trkpt><trkpt lat="45.404907" lon="10.7898508"><ele>111.0</ele><time>2026-03-28T11:13:23.812Z</time></trkpt><trkpt lat="45.4049011" lon="10.7899821"><ele>111.0</ele><time>2026-03-28T11:13:24.812Z</time></trkpt><trkpt lat="45.4048998" lon="10.7901155"><ele>111.0</ele><time>2026-03-28T11:13:25.812Z</time></trkpt><trkpt lat="45.4048986" lon="10.7902464"><ele>111.0</ele><time>2026-03-28T11:13:26.813Z</time></trkpt><trkpt lat="45.4048999" lon="10.7903796"><ele>111.0</ele><time>2026-03-28T11:13:27.813Z</time></trkpt><trkpt lat="45.404906" lon="10.7905135"><ele>110.8</ele><time>2026-03-28T11:13:28.814Z</time></trkpt><trkpt lat="45.4049122" lon="10.7906577"><ele>110.6</ele><time>2026-03-28T11:13:29.813Z</time></trkpt><trkpt lat="45.4049136" lon="10.7908095"><ele>110.4</ele><time>2026-03-28T11:13:30.814Z</time></trkpt><trkpt lat="45.4049133" lon="10.7909618"><ele>110.2</ele><time>2026-03-28T11:13:31.814Z</time></trkpt><trkpt lat="45.4049149" lon="10.7911166"><ele>110.0</ele><time>2026-03-28T11:13:32.814Z</time></trkpt><trkpt lat="45.4049215" lon="10.7912546"><ele>110.4</ele><time>2026-03-28T11:13:33.813Z</time></trkpt><trkpt lat="45.4049363" lon="10.7913626"><ele>110.8</ele><time>2026-03-28T11:13:34.813Z</time></trkpt><trkpt lat="45.4050037" lon="10.7914844"><ele>111.19999999999999</ele><time>2026-03-28T11:13:36.813Z</time></trkpt><trkpt lat="45.4051301" lon="10.791486"><ele>111.6</ele><time>2026-03-28T11:13:38.813Z</time></trkpt><trkpt lat="45.4052209" lon="10.7914438"><ele>112.0</ele><time>2026-03-28T11:13:39.812Z</time></trkpt><trkpt lat="45.4053096" lon="10.7914322"><ele>112.0</ele><time>2026-03-28T11:13:40.812Z</time></trkpt><trkpt lat="45.405413" lon="10.7914286"><ele>111.99999999999999</ele><time>2026-03-28T11:13:41.812Z</time></trkpt><trkpt lat="45.4055244" lon="10.7914399"><ele>111.99999999999999</ele><time>2026-03-28T11:13:42.813Z</time></trkpt><trkpt lat="45.4056385" lon="10.7914565"><ele>112.0</ele><time>2026-03-28T11:13:43.812Z</time></trkpt><trkpt lat="45.4057572" lon="10.791471"><ele>112.0</ele><time>2026-03-28T11:13:44.813Z</time></trkpt><trkpt lat="45.4058865" lon="10.7914681"><ele>112.0</ele><time>2026-03-28T11:13:45.813Z</time></trkpt><trkpt lat="45.4060145" lon="10.7914529"><ele>112.0</ele><time>2026-03-28T11:13:46.813Z</time></trkpt><trkpt lat="45.4061462" lon="10.7914374"><ele>112.0</ele><time>2026-03-28T11:13:47.812Z</time></trkpt><trkpt lat="45.4062751" lon="10.7914241"><ele>112.0</ele><time>2026-03-28T11:13:48.813Z</time></trkpt><trkpt lat="45.4064071" lon="10.7914145"><ele>112.0</ele><time>2026-03-28T11:13:49.813Z</time></trkpt><trkpt lat="45.4065382" lon="10.7914098"><ele>112.0</ele><time>2026-03-28T11:13:50.813Z</time></trkpt><trkpt lat="45.4066698" lon="10.7914053"><ele>112.0</ele><time>2026-03-28T11:13:51.814Z</time></trkpt><trkpt lat="45.4068008" lon="10.7914004"><ele>112.0</ele><time>2026-03-28T11:13:52.812Z</time></trkpt><trkpt lat="45.4069275" lon="10.7913962"><ele>112.0</ele><time>2026-03-28T11:13:53.814Z</time></trkpt><trkpt lat="45.4070573" lon="10.7913891"><ele>112.0</ele><time>2026-03-28T11:13:54.813Z</time></trkpt><trkpt lat="45.4071861" lon="10.7913777"><ele>112.0</ele><time>2026-03-28T11:13:55.812Z</time></trkpt><trkpt lat="45.4073184" lon="10.7913665"><ele>112.0</ele><time>2026-03-28T11:13:56.813Z</time></trkpt><trkpt lat="45.4074521" lon="10.79136"><ele>112.0</ele><time>2026-03-28T11:13:57.814Z</time></trkpt><trkpt lat="45.4075884" lon="10.7913554"><ele>112.0</ele><time>2026-03-28T11:13:58.814Z</time></trkpt><trkpt lat="45.4077266" lon="10.7913473"><ele>112.0</ele><time>2026-03-28T11:13:59.814Z</time></trkpt><trkpt lat="45.4078669" lon="10.7913352"><ele>112.0</ele><time>2026-03-28T11:14:00.812Z</time></trkpt><trkpt lat="45.4079998" lon="10.7913226"><ele>112.25</ele><time>2026-03-28T11:14:01.813Z</time></trkpt><trkpt lat="45.4081379" lon="10.7913098"><ele>112.5</ele><time>2026-03-28T11:14:02.814Z</time></trkpt><trkpt lat="45.4082766" lon="10.7913051"><ele>112.75</ele><time>2026-03-28T11:14:03.812Z</time></trkpt><trkpt lat="45.4084125" lon="10.7912992"><ele>113.0</ele><time>2026-03-28T11:14:04.812Z</time></trkpt><trkpt lat="45.4085474" lon="10.7912924"><ele>113.0</ele><time>2026-03-28T11:14:05.813Z</time></trkpt><trkpt lat="45.4086832" lon="10.7912821"><ele>113.0</ele><time>2026-03-28T11:14:06.814Z</time></trkpt><trkpt lat="45.4088141" lon="10.7912723"><ele>113.0</ele><time>2026-03-28T11:14:07.813Z</time></trkpt><trkpt lat="45.4089292" lon="10.7912616"><ele>113.0</ele><time>2026-03-28T11:14:08.813Z</time></trkpt><trkpt lat="45.4090408" lon="10.7912502"><ele>113.0</ele><time>2026-03-28T11:14:09.813Z</time></trkpt><trkpt lat="45.4091336" lon="10.7912382"><ele>113.00000000000001</ele><time>2026-03-28T11:14:10.813Z</time></trkpt><trkpt lat="45.4092062" lon="10.7912335"><ele>113.00000000000001</ele><time>2026-03-28T11:14:11.812Z</time></trkpt><trkpt lat="45.4092749" lon="10.7912254"><ele>113.0</ele><time>2026-03-28T11:14:13.814Z</time></trkpt><trkpt lat="45.4093353" lon="10.7911149"><ele>113.0</ele><time>2026-03-28T11:14:17.814Z</time></trkpt><trkpt lat="45.4093186" lon="10.7909332"><ele>113.2</ele><time>2026-03-28T11:14:19.813Z</time></trkpt><trkpt lat="45.4093064" lon="10.7908186"><ele>113.4</ele><time>2026-03-28T11:14:20.813Z</time></trkpt><trkpt lat="45.4093031" lon="10.7906876"><ele>113.60000000000001</ele><time>2026-03-28T11:14:21.812Z</time></trkpt><trkpt lat="45.4093044" lon="10.7905562"><ele>113.80000000000001</ele><time>2026-03-28T11:14:22.813Z</time></trkpt><trkpt lat="45.4093065" lon="10.7904439"><ele>114.0</ele><time>2026-03-28T11:14:23.812Z</time></trkpt><trkpt lat="45.4093538" lon="10.7903046"><ele>114.0</ele><time>2026-03-28T11:14:25.812Z</time></trkpt><trkpt lat="45.4094134" lon="10.7902327"><ele>114.0</ele><time>2026-03-28T11:14:26.814Z</time></trkpt><trkpt lat="45.4095074" lon="10.7901561"><ele>114.0</ele><time>2026-03-28T11:14:27.813Z</time></trkpt><trkpt lat="45.4096164" lon="10.7900735"><ele>114.0</ele><time>2026-03-28T11:14:28.812Z</time></trkpt><trkpt lat="45.4097303" lon="10.7899723"><ele>114.0</ele><time>2026-03-28T11:14:29.814Z</time></trkpt><trkpt lat="45.4098483" lon="10.7898565"><ele>114.66666666666666</ele><time>2026-03-28T11:14:30.813Z</time></trkpt><trkpt lat="45.4099696" lon="10.78974"><ele>115.33333333333333</ele><time>2026-03-28T11:14:31.813Z</time></trkpt><trkpt lat="45.4100971" lon="10.7896201"><ele>116.0</ele><time>2026-03-28T11:14:32.813Z</time></trkpt><trkpt lat="45.4102269" lon="10.7894946"><ele>116.0</ele><time>2026-03-28T11:14:33.813Z</time></trkpt><trkpt lat="45.4103591" lon="10.7893682"><ele>116.0</ele><time>2026-03-28T11:14:34.813Z</time></trkpt><trkpt lat="45.4104957" lon="10.7892428"><ele>116.0</ele><time>2026-03-28T11:14:35.813Z</time></trkpt><trkpt lat="45.4106307" lon="10.7891158"><ele>116.33333333333333</ele><time>2026-03-28T11:14:36.813Z</time></trkpt><trkpt lat="45.410766" lon="10.7889907"><ele>116.66666666666666</ele><time>2026-03-28T11:14:37.813Z</time></trkpt><trkpt lat="45.4109037" lon="10.7888727"><ele>117.0</ele><time>2026-03-28T11:14:38.813Z</time></trkpt><trkpt lat="45.4110407" lon="10.7887484"><ele>117.0</ele><time>2026-03-28T11:14:39.813Z</time></trkpt><trkpt lat="45.4111713" lon="10.7886135"><ele>117.0</ele><time>2026-03-28T11:14:40.813Z</time></trkpt><trkpt lat="45.4112937" lon="10.7884732"><ele>117.0</ele><time>2026-03-28T11:14:41.814Z</time></trkpt><trkpt lat="45.4114087" lon="10.788333"><ele>117.25</ele><time>2026-03-28T11:14:42.813Z</time></trkpt><trkpt lat="45.4115151" lon="10.7882055"><ele>117.5</ele><time>2026-03-28T11:14:43.814Z</time></trkpt><trkpt lat="45.4116104" lon="10.7880912"><ele>117.75</ele><time>2026-03-28T11:14:44.814Z</time></trkpt><trkpt lat="45.411699" lon="10.7879948"><ele>118.0</ele><time>2026-03-28T11:14:45.813Z</time></trkpt><trkpt lat="45.4117827" lon="10.7879138"><ele>118.0</ele><time>2026-03-28T11:14:46.813Z</time></trkpt><trkpt lat="45.4118642" lon="10.7878498"><ele>118.00000000000001</ele><time>2026-03-28T11:14:47.813Z</time></trkpt><trkpt lat="45.4119391" lon="10.7877811"><ele>118.00000000000001</ele><time>2026-03-28T11:14:48.813Z</time></trkpt><trkpt lat="45.4120175" lon="10.7877028"><ele>118.0</ele><time>2026-03-28T11:14:49.813Z</time></trkpt><trkpt lat="45.4120886" lon="10.7876143"><ele>118.0</ele><time>2026-03-28T11:14:50.813Z</time></trkpt><trkpt lat="45.4121482" lon="10.7874987"><ele>118.0</ele><time>2026-03-28T11:14:51.813Z</time></trkpt><trkpt lat="45.4121876" lon="10.7873674"><ele>118.00000000000001</ele><time>2026-03-28T11:14:52.813Z</time></trkpt><trkpt lat="45.4122165" lon="10.7872238"><ele>118.00000000000001</ele><time>2026-03-28T11:14:53.812Z</time></trkpt><trkpt lat="45.4122377" lon="10.7870689"><ele>118.0</ele><time>2026-03-28T11:14:54.812Z</time></trkpt><trkpt lat="45.4122715" lon="10.7869206"><ele>118.0</ele><time>2026-03-28T11:14:55.812Z</time></trkpt><trkpt lat="45.412327" lon="10.7867827"><ele>117.5</ele><time>2026-03-28T11:14:56.812Z</time></trkpt><trkpt lat="45.41241" lon="10.7866503"><ele>117.0</ele><time>2026-03-28T11:14:57.812Z</time></trkpt><trkpt lat="45.4125083" lon="10.786514"><ele>116.5</ele><time>2026-03-28T11:14:58.813Z</time></trkpt><trkpt lat="45.4126088" lon="10.7863806"><ele>116.0</ele><time>2026-03-28T11:14:59.813Z</time></trkpt><trkpt lat="45.4127064" lon="10.7862471"><ele>116.0</ele><time>2026-03-28T11:15:00.813Z</time></trkpt><trkpt lat="45.4128019" lon="10.7861179"><ele>116.0</ele><time>2026-03-28T11:15:01.813Z</time></trkpt><trkpt lat="45.4128942" lon="10.7859917"><ele>116.0</ele><time>2026-03-28T11:15:02.814Z</time></trkpt><trkpt lat="45.4129827" lon="10.7858703"><ele>116.0</ele><time>2026-03-28T11:15:03.813Z</time></trkpt><trkpt lat="45.4130693" lon="10.7857478"><ele>116.75</ele><time>2026-03-28T11:15:04.812Z</time></trkpt><trkpt lat="45.4131518" lon="10.7856227"><ele>117.5</ele><time>2026-03-28T11:15:05.814Z</time></trkpt><trkpt lat="45.4132305" lon="10.785492"><ele>118.25</ele><time>2026-03-28T11:15:06.813Z</time></trkpt><trkpt lat="45.4133125" lon="10.785364"><ele>119.0</ele><time>2026-03-28T11:15:07.813Z</time></trkpt><trkpt lat="45.4133927" lon="10.7852348"><ele>119.75</ele><time>2026-03-28T11:15:08.813Z</time></trkpt><trkpt lat="45.4134721" lon="10.7850973"><ele>120.5</ele><time>2026-03-28T11:15:09.812Z</time></trkpt><trkpt lat="45.4135498" lon="10.7849542"><ele>121.25</ele><time>2026-03-28T11:15:10.812Z</time></trkpt><trkpt lat="45.4136284" lon="10.784802"><ele>122.0</ele><time>2026-03-28T11:15:11.813Z</time></trkpt><trkpt lat="45.4137147" lon="10.7846592"><ele>122.0</ele><time>2026-03-28T11:15:12.812Z</time></trkpt><trkpt lat="45.4137968" lon="10.7845301"><ele>121.99999999999999</ele><time>2026-03-28T11:15:13.812Z</time></trkpt><trkpt lat="45.4138648" lon="10.7844199"><ele>121.99999999999999</ele><time>2026-03-28T11:15:14.813Z</time></trkpt><trkpt lat="45.4139138" lon="10.7843223"><ele>122.0</ele><time>2026-03-28T11:15:15.812Z</time></trkpt><trkpt lat="45.4140084" lon="10.7842196"><ele>122.0</ele><time>2026-03-28T11:15:17.814Z</time></trkpt><trkpt lat="45.4141532" lon="10.7842562"><ele>122.0</ele><time>2026-03-28T11:15:19.813Z</time></trkpt><trkpt lat="45.4142525" lon="10.7843224"><ele>122.0</ele><time>2026-03-28T11:15:20.813Z</time></trkpt><trkpt lat="45.4143668" lon="10.7843985"><ele>122.0</ele><time>2026-03-28T11:15:21.813Z</time></trkpt><trkpt lat="45.4144874" lon="10.7844798"><ele>122.0</ele><time>2026-03-28T11:15:22.812Z</time></trkpt><trkpt lat="45.4146128" lon="10.7845577"><ele>122.0</ele><time>2026-03-28T11:15:23.813Z</time></trkpt><trkpt lat="45.4147435" lon="10.7846368"><ele>122.0</ele><time>2026-03-28T11:15:24.814Z</time></trkpt><trkpt lat="45.4148744" lon="10.7847189"><ele>122.0</ele><time>2026-03-28T11:15:25.813Z</time></trkpt><trkpt lat="45.4150065" lon="10.7848141"><ele>122.0</ele><time>2026-03-28T11:15:26.814Z</time></trkpt><trkpt lat="45.4151379" lon="10.7849034"><ele>122.0</ele><time>2026-03-28T11:15:27.814Z</time></trkpt><trkpt lat="45.415269" lon="10.7849887"><ele>122.0</ele><time>2026-03-28T11:15:28.813Z</time></trkpt><trkpt lat="45.4154033" lon="10.7850759"><ele>122.0</ele><time>2026-03-28T11:15:29.813Z</time></trkpt><trkpt lat="45.4155372" lon="10.7851607"><ele>122.0</ele><time>2026-03-28T11:15:30.813Z</time></trkpt><trkpt lat="45.4156711" lon="10.7852489"><ele>121.75</ele><time>2026-03-28T11:15:31.814Z</time></trkpt><trkpt lat="45.4158024" lon="10.7853303"><ele>121.5</ele><time>2026-03-28T11:15:32.812Z</time></trkpt><trkpt lat="45.4159324" lon="10.7854137"><ele>121.25</ele><time>2026-03-28T11:15:33.813Z</time></trkpt><trkpt lat="45.4160617" lon="10.7854969"><ele>121.0</ele><time>2026-03-28T11:15:34.812Z</time></trkpt><trkpt lat="45.4161888" lon="10.7855792"><ele>121.0</ele><time>2026-03-28T11:15:35.813Z</time></trkpt><trkpt lat="45.4163182" lon="10.7856623"><ele>121.0</ele><time>2026-03-28T11:15:36.813Z</time></trkpt><trkpt lat="45.4164458" lon="10.7857487"><ele>121.0</ele><time>2026-03-28T11:15:37.814Z</time></trkpt><trkpt lat="45.4165696" lon="10.7858277"><ele>121.0</ele><time>2026-03-28T11:15:38.813Z</time></trkpt><trkpt lat="45.4166961" lon="10.7859114"><ele>121.0</ele><time>2026-03-28T11:15:39.813Z</time></trkpt><trkpt lat="45.4168172" lon="10.7859978"><ele>121.0</ele><time>2026-03-28T11:15:40.813Z</time></trkpt><trkpt lat="45.4169384" lon="10.7860805"><ele>121.0</ele><time>2026-03-28T11:15:41.812Z</time></trkpt><trkpt lat="45.4170576" lon="10.7861654"><ele>121.0</ele><time>2026-03-28T11:15:42.813Z</time></trkpt><trkpt lat="45.4171815" lon="10.7862437"><ele>122.0</ele><time>2026-03-28T11:15:43.814Z</time></trkpt><trkpt lat="45.4173015" lon="10.7863173"><ele>123.0</ele><time>2026-03-28T11:15:44.813Z</time></trkpt><trkpt lat="45.4174232" lon="10.7864015"><ele>124.0</ele><time>2026-03-28T11:15:45.813Z</time></trkpt><trkpt lat="45.4175487" lon="10.7864818"><ele>125.0</ele><time>2026-03-28T11:15:46.813Z</time></trkpt><trkpt lat="45.4176747" lon="10.7865624"><ele>125.0</ele><time>2026-03-28T11:15:47.814Z</time></trkpt><trkpt lat="45.417801" lon="10.7866451"><ele>125.0</ele><time>2026-03-28T11:15:48.812Z</time></trkpt><trkpt lat="45.4179285" lon="10.7867299"><ele>125.0</ele><time>2026-03-28T11:15:49.813Z</time></trkpt><trkpt lat="45.4180537" lon="10.7868123"><ele>125.0</ele><time>2026-03-28T11:15:50.813Z</time></trkpt><trkpt lat="45.4181821" lon="10.7868962"><ele>125.0</ele><time>2026-03-28T11:15:51.812Z</time></trkpt><trkpt lat="45.4183091" lon="10.7869891"><ele>125.0</ele><time>2026-03-28T11:15:52.812Z</time></trkpt><trkpt lat="45.4184306" lon="10.7870787"><ele>125.0</ele><time>2026-03-28T11:15:53.813Z</time></trkpt><trkpt lat="45.4185489" lon="10.78716"><ele>125.0</ele><time>2026-03-28T11:15:54.813Z</time></trkpt><trkpt lat="45.4186702" lon="10.7872332"><ele>125.0</ele><time>2026-03-28T11:15:55.813Z</time></trkpt><trkpt lat="45.418783" lon="10.7872938"><ele>125.0</ele><time>2026-03-28T11:15:56.812Z</time></trkpt><trkpt lat="45.4188799" lon="10.7873417"><ele>125.0</ele><time>2026-03-28T11:15:57.813Z</time></trkpt><trkpt lat="45.4189634" lon="10.7873851"><ele>125.0</ele><time>2026-03-28T11:15:58.813Z</time></trkpt><trkpt lat="45.4190395" lon="10.7874095"><ele>125.0</ele><time>2026-03-28T11:15:59.813Z</time></trkpt><trkpt lat="45.4191492" lon="10.7874037"><ele>124.6</ele><time>2026-03-28T11:16:01.813Z</time></trkpt><trkpt lat="45.4192211" lon="10.7873065"><ele>124.2</ele><time>2026-03-28T11:16:03.813Z</time></trkpt><trkpt lat="45.419279" lon="10.787148"><ele>123.80000000000001</ele><time>2026-03-28T11:16:05.812Z</time></trkpt><trkpt lat="45.4193002" lon="10.7870634"><ele>123.4</ele><time>2026-03-28T11:16:06.812Z</time></trkpt><trkpt lat="45.4193586" lon="10.7869729"><ele>123.0</ele><time>2026-03-28T11:16:08.813Z</time></trkpt><trkpt lat="45.4194489" lon="10.7869779"><ele>123.0</ele><time>2026-03-28T11:16:10.814Z</time></trkpt><trkpt lat="45.4195663" lon="10.7870643"><ele>123.00000000000001</ele><time>2026-03-28T11:16:12.814Z</time></trkpt><trkpt lat="45.419633" lon="10.7871019"><ele>123.00000000000001</ele><time>2026-03-28T11:16:13.813Z</time></trkpt><trkpt lat="45.4197084" lon="10.7871453"><ele>123.0</ele><time>2026-03-28T11:16:14.813Z</time></trkpt><trkpt lat="45.4197872" lon="10.7871909"><ele>123.0</ele><time>2026-03-28T11:16:15.813Z</time></trkpt><trkpt lat="45.4198725" lon="10.7872341"><ele>123.2</ele><time>2026-03-28T11:16:16.814Z</time></trkpt><trkpt lat="45.4199643" lon="10.7872843"><ele>123.4</ele><time>2026-03-28T11:16:17.812Z</time></trkpt><trkpt lat="45.4200593" lon="10.7873591"><ele>123.60000000000001</ele><time>2026-03-28T11:16:18.813Z</time></trkpt><trkpt lat="45.4201548" lon="10.7874586"><ele>123.80000000000001</ele><time>2026-03-28T11:16:19.812Z</time></trkpt><trkpt lat="45.4202423" lon="10.7875812"><ele>124.0</ele><time>2026-03-28T11:16:20.813Z</time></trkpt><trkpt lat="45.4203256" lon="10.7877216"><ele>124.0</ele><time>2026-03-28T11:16:21.813Z</time></trkpt><trkpt lat="45.4204152" lon="10.7878588"><ele>124.0</ele><time>2026-03-28T11:16:22.813Z</time></trkpt><trkpt lat="45.4205092" lon="10.7879894"><ele>124.0</ele><time>2026-03-28T11:16:23.813Z</time></trkpt><trkpt lat="45.4206097" lon="10.7881054"><ele>124.0</ele><time>2026-03-28T11:16:24.814Z</time></trkpt><trkpt lat="45.4207105" lon="10.7882133"><ele>125.25</ele><time>2026-03-28T11:16:25.813Z</time></trkpt><trkpt lat="45.4208118" lon="10.7883123"><ele>126.5</ele><time>2026-03-28T11:16:26.813Z</time></trkpt><trkpt lat="45.4209087" lon="10.7884189"><ele>127.75</ele><time>2026-03-28T11:16:27.813Z</time></trkpt><trkpt lat="45.4209988" lon="10.7885174"><ele>129.0</ele><time>2026-03-28T11:16:28.813Z</time></trkpt><trkpt lat="45.4210852" lon="10.788616"><ele>129.0</ele><time>2026-03-28T11:16:29.813Z</time></trkpt><trkpt lat="45.4211714" lon="10.7887174"><ele>129.0</ele><time>2026-03-28T11:16:30.812Z</time></trkpt><trkpt lat="45.4212567" lon="10.7888213"><ele>129.0</ele><time>2026-03-28T11:16:31.813Z</time></trkpt><trkpt lat="45.4213431" lon="10.788931"><ele>129.0</ele><time>2026-03-28T11:16:32.812Z</time></trkpt><trkpt lat="45.4214297" lon="10.7890425"><ele>129.25</ele><time>2026-03-28T11:16:33.812Z</time></trkpt><trkpt lat="45.4215129" lon="10.789162"><ele>129.5</ele><time>2026-03-28T11:16:34.812Z</time></trkpt><trkpt lat="45.4215949" lon="10.7892926"><ele>129.75</ele><time>2026-03-28T11:16:35.813Z</time></trkpt><trkpt lat="45.4216705" lon="10.7894313"><ele>130.0</ele><time>2026-03-28T11:16:36.814Z</time></trkpt><trkpt lat="45.4217351" lon="10.7895714"><ele>130.25</ele><time>2026-03-28T11:16:37.812Z</time></trkpt><trkpt lat="45.4217961" lon="10.7897185"><ele>130.5</ele><time>2026-03-28T11:16:38.813Z</time></trkpt><trkpt lat="45.4218467" lon="10.7898652"><ele>130.75</ele><time>2026-03-28T11:16:39.813Z</time></trkpt><trkpt lat="45.4218957" lon="10.7900067"><ele>131.0</ele><time>2026-03-28T11:16:40.813Z</time></trkpt><trkpt lat="45.4219395" lon="10.7901468"><ele>131.0</ele><time>2026-03-28T11:16:41.813Z</time></trkpt><trkpt lat="45.42198" lon="10.7902661"><ele>131.0</ele><time>2026-03-28T11:16:42.813Z</time></trkpt><trkpt lat="45.4220264" lon="10.7903729"><ele>131.0</ele><time>2026-03-28T11:16:43.813Z</time></trkpt><trkpt lat="45.4220728" lon="10.7904617"><ele>131.0</ele><time>2026-03-28T11:16:44.813Z</time></trkpt><trkpt lat="45.4221239" lon="10.7905175"><ele>131.0</ele><time>2026-03-28T11:16:45.813Z</time></trkpt><trkpt lat="45.4222436" lon="10.7904917"><ele>131.0</ele><time>2026-03-28T11:16:47.814Z</time></trkpt><trkpt lat="45.4223126" lon="10.7904462"><ele>131.0</ele><time>2026-03-28T11:16:48.814Z</time></trkpt><trkpt lat="45.422387" lon="10.7904095"><ele>131.0</ele><time>2026-03-28T11:16:49.814Z</time></trkpt><trkpt lat="45.4224694" lon="10.7903802"><ele>131.0</ele><time>2026-03-28T11:16:50.813Z</time></trkpt><trkpt lat="45.4225676" lon="10.7903679"><ele>131.0</ele><time>2026-03-28T11:16:51.813Z</time></trkpt><trkpt lat="45.4226652" lon="10.7903536"><ele>131.0</ele><time>2026-03-28T11:16:52.812Z</time></trkpt><trkpt lat="45.4227746" lon="10.7903362"><ele>131.0</ele><time>2026-03-28T11:16:53.812Z</time></trkpt><trkpt lat="45.4228895" lon="10.7903144"><ele>131.0</ele><time>2026-03-28T11:16:54.813Z</time></trkpt><trkpt lat="45.4230035" lon="10.7902865"><ele>131.0</ele><time>2026-03-28T11:16:55.813Z</time></trkpt><trkpt lat="45.4231169" lon="10.7902535"><ele>131.0</ele><time>2026-03-28T11:16:56.813Z</time></trkpt><trkpt lat="45.4232312" lon="10.7902231"><ele>130.8</ele><time>2026-03-28T11:16:57.814Z</time></trkpt><trkpt lat="45.4233424" lon="10.7901927"><ele>130.6</ele><time>2026-03-28T11:16:58.812Z</time></trkpt><trkpt lat="45.4234525" lon="10.7901666"><ele>130.4</ele><time>2026-03-28T11:16:59.812Z</time></trkpt><trkpt lat="45.4235664" lon="10.7901407"><ele>130.2</ele><time>2026-03-28T11:17:00.814Z</time></trkpt><trkpt lat="45.4236726" lon="10.7901079"><ele>130.0</ele><time>2026-03-28T11:17:01.814Z</time></trkpt><trkpt lat="45.4237672" lon="10.7900607"><ele>130.2</ele><time>2026-03-28T11:17:02.813Z</time></trkpt><trkpt lat="45.4238466" lon="10.7900078"><ele>130.4</ele><time>2026-03-28T11:17:03.813Z</time></trkpt><trkpt lat="45.4239174" lon="10.7899711"><ele>130.6</ele><time>2026-03-28T11:17:04.813Z</time></trkpt><trkpt lat="45.4240122" lon="10.7899813"><ele>130.8</ele><time>2026-03-28T11:17:06.813Z</time></trkpt><trkpt lat="45.4240525" lon="10.7901524"><ele>131.0</ele><time>2026-03-28T11:17:08.813Z</time></trkpt><trkpt lat="45.4240594" lon="10.7902873"><ele>131.0</ele><time>2026-03-28T11:17:09.813Z</time></trkpt><trkpt lat="45.4240634" lon="10.7904349"><ele>131.0</ele><time>2026-03-28T11:17:10.813Z</time></trkpt><trkpt lat="45.4240743" lon="10.7905958"><ele>131.0</ele><time>2026-03-28T11:17:11.812Z</time></trkpt><trkpt lat="45.4240895" lon="10.7907659"><ele>131.0</ele><time>2026-03-28T11:17:12.812Z</time></trkpt><trkpt lat="45.4241088" lon="10.7909446"><ele>131.0</ele><time>2026-03-28T11:17:13.813Z</time></trkpt><trkpt lat="45.4241238" lon="10.7911274"><ele>131.0</ele><time>2026-03-28T11:17:14.812Z</time></trkpt><trkpt lat="45.4241277" lon="10.79131"><ele>131.0</ele><time>2026-03-28T11:17:15.814Z</time></trkpt><trkpt lat="45.4241265" lon="10.7914925"><ele>131.0</ele><time>2026-03-28T11:17:16.813Z</time></trkpt><trkpt lat="45.4241259" lon="10.7916642"><ele>131.0</ele><time>2026-03-28T11:17:17.813Z</time></trkpt><trkpt lat="45.424125" lon="10.7918123"><ele>131.0</ele><time>2026-03-28T11:17:18.814Z</time></trkpt><trkpt lat="45.4241241" lon="10.7919333"><ele>131.0</ele><time>2026-03-28T11:17:19.814Z</time></trkpt><trkpt lat="45.4241295" lon="10.7920319"><ele>131.0</ele><time>2026-03-28T11:17:20.813Z</time></trkpt><trkpt lat="45.4242099" lon="10.7921721"><ele>131.0</ele><time>2026-03-28T11:17:22.813Z</time></trkpt><trkpt lat="45.4242902" lon="10.7922126"><ele>130.6</ele><time>2026-03-28T11:17:23.812Z</time></trkpt><trkpt lat="45.4243824" lon="10.7922431"><ele>130.2</ele><time>2026-03-28T11:17:24.813Z</time></trkpt><trkpt lat="45.4244844" lon="10.7922721"><ele>129.8</ele><time>2026-03-28T11:17:25.813Z</time></trkpt><trkpt lat="45.4245921" lon="10.7923025"><ele>129.4</ele><time>2026-03-28T11:17:26.812Z</time></trkpt><trkpt lat="45.4247029" lon="10.7923397"><ele>129.0</ele><time>2026-03-28T11:17:27.814Z</time></trkpt><trkpt lat="45.4248123" lon="10.7923729"><ele>128.33333333333334</ele><time>2026-03-28T11:17:28.814Z</time></trkpt><trkpt lat="45.4249097" lon="10.7924009"><ele>127.66666666666666</ele><time>2026-03-28T11:17:29.812Z</time></trkpt><trkpt lat="45.4250046" lon="10.7924307"><ele>127.0</ele><time>2026-03-28T11:17:30.813Z</time></trkpt><trkpt lat="45.4250841" lon="10.7924595"><ele>126.33333333333333</ele><time>2026-03-28T11:17:31.813Z</time></trkpt><trkpt lat="45.4251777" lon="10.7925016"><ele>125.66666666666666</ele><time>2026-03-28T11:17:33.814Z</time></trkpt><trkpt lat="45.4252461" lon="10.7925273"><ele>125.0</ele><time>2026-03-28T11:17:36.813Z</time></trkpt><trkpt lat="45.425359" lon="10.7925359"><ele>125.0</ele><time>2026-03-28T11:17:38.813Z</time></trkpt><trkpt lat="45.42545" lon="10.7925237"><ele>125.0</ele><time>2026-03-28T11:17:39.813Z</time></trkpt><trkpt lat="45.4255454" lon="10.7924858"><ele>125.0</ele><time>2026-03-28T11:17:40.813Z</time></trkpt><trkpt lat="45.4256474" lon="10.7924404"><ele>125.0</ele><time>2026-03-28T11:17:41.813Z</time></trkpt><trkpt lat="45.4257617" lon="10.7923991"><ele>125.0</ele><time>2026-03-28T11:17:42.813Z</time></trkpt><trkpt lat="45.425881" lon="10.7923575"><ele>125.25</ele><time>2026-03-28T11:17:43.812Z</time></trkpt><trkpt lat="45.4260039" lon="10.7923122"><ele>125.5</ele><time>2026-03-28T11:17:44.813Z</time></trkpt><trkpt lat="45.4261311" lon="10.7922713"><ele>125.75</ele><time>2026-03-28T11:17:45.813Z</time></trkpt><trkpt lat="45.4262605" lon="10.7922281"><ele>126.0</ele><time>2026-03-28T11:17:46.812Z</time></trkpt><trkpt lat="45.4263951" lon="10.7921879"><ele>125.5</ele><time>2026-03-28T11:17:47.813Z</time></trkpt><trkpt lat="45.4265329" lon="10.7921487"><ele>125.0</ele><time>2026-03-28T11:17:48.813Z</time></trkpt><trkpt lat="45.4266724" lon="10.7921081"><ele>124.5</ele><time>2026-03-28T11:17:49.813Z</time></trkpt><trkpt lat="45.4268173" lon="10.7920636"><ele>124.0</ele><time>2026-03-28T11:17:50.812Z</time></trkpt><trkpt lat="45.4269611" lon="10.7920211"><ele>124.0</ele><time>2026-03-28T11:17:51.813Z</time></trkpt><trkpt lat="45.4271066" lon="10.7919726"><ele>124.0</ele><time>2026-03-28T11:17:52.813Z</time></trkpt><trkpt lat="45.4272517" lon="10.7919221"><ele>124.0</ele><time>2026-03-28T11:17:53.812Z</time></trkpt><trkpt lat="45.427396" lon="10.7918723"><ele>124.0</ele><time>2026-03-28T11:17:54.813Z</time></trkpt><trkpt lat="45.4275434" lon="10.7918182"><ele>124.0</ele><time>2026-03-28T11:17:55.813Z</time></trkpt><trkpt lat="45.4276915" lon="10.7917698"><ele>124.0</ele><time>2026-03-28T11:17:56.812Z</time></trkpt><trkpt lat="45.4278411" lon="10.7917255"><ele>124.0</ele><time>2026-03-28T11:17:57.813Z</time></trkpt><trkpt lat="45.4279929" lon="10.791679"><ele>124.33333333333334</ele><time>2026-03-28T11:17:58.812Z</time></trkpt><trkpt lat="45.4281446" lon="10.7916293"><ele>124.66666666666666</ele><time>2026-03-28T11:17:59.813Z</time></trkpt><trkpt lat="45.4282995" lon="10.7915804"><ele>125.0</ele><time>2026-03-28T11:18:00.814Z</time></trkpt><trkpt lat="45.4284347" lon="10.7915403"><ele>125.0</ele><time>2026-03-28T11:18:01.812Z</time></trkpt><trkpt lat="45.4285751" lon="10.7914971"><ele>125.0</ele><time>2026-03-28T11:18:02.813Z</time></trkpt><trkpt lat="45.4287167" lon="10.7914527"><ele>125.0</ele><time>2026-03-28T11:18:03.813Z</time></trkpt><trkpt lat="45.4288588" lon="10.7914073"><ele>125.0</ele><time>2026-03-28T11:18:04.813Z</time></trkpt><trkpt lat="45.4289999" lon="10.7913584"><ele>125.0</ele><time>2026-03-28T11:18:05.813Z</time></trkpt><trkpt lat="45.4291386" lon="10.7913139"><ele>125.0</ele><time>2026-03-28T11:18:06.812Z</time></trkpt><trkpt lat="45.4292762" lon="10.7912724"><ele>125.0</ele><time>2026-03-28T11:18:07.813Z</time></trkpt><trkpt lat="45.4294021" lon="10.7912247"><ele>125.0</ele><time>2026-03-28T11:18:08.814Z</time></trkpt><trkpt lat="45.4295156" lon="10.7911894"><ele>124.99999999999999</ele><time>2026-03-28T11:18:09.812Z</time></trkpt><trkpt lat="45.429609" lon="10.7911561"><ele>125.0</ele><time>2026-03-28T11:18:10.812Z</time></trkpt><trkpt lat="45.4296868" lon="10.7911305"><ele>125.0</ele><time>2026-03-28T11:18:11.812Z</time></trkpt><trkpt lat="45.4297736" lon="10.7911103"><ele>125.0</ele><time>2026-03-28T11:18:13.811Z</time></trkpt><trkpt lat="45.4298671" lon="10.791148"><ele>124.99999999999999</ele><time>2026-03-28T11:18:16.811Z</time></trkpt><trkpt lat="45.4299178" lon="10.7912112"><ele>125.0</ele><time>2026-03-28T11:18:17.812Z</time></trkpt><trkpt lat="45.429964" lon="10.7912953"><ele>125.16666666666666</ele><time>2026-03-28T11:18:18.811Z</time></trkpt><trkpt lat="45.4300011" lon="10.7913944"><ele>125.33333333333333</ele><time>2026-03-28T11:18:19.812Z</time></trkpt><trkpt lat="45.4300458" lon="10.7914917"><ele>125.5</ele><time>2026-03-28T11:18:20.813Z</time></trkpt><trkpt lat="45.4301073" lon="10.791573"><ele>125.66666666666666</ele><time>2026-03-28T11:18:21.811Z</time></trkpt><trkpt lat="45.4301924" lon="10.7916114"><ele>125.83333333333333</ele><time>2026-03-28T11:18:22.812Z</time></trkpt><trkpt lat="45.4302902" lon="10.7916105"><ele>126.0</ele><time>2026-03-28T11:18:23.812Z</time></trkpt><trkpt lat="45.4303966" lon="10.7915796"><ele>126.25</ele><time>2026-03-28T11:18:24.813Z</time></trkpt><trkpt lat="45.4305052" lon="10.7915436"><ele>126.5</ele><time>2026-03-28T11:18:25.812Z</time></trkpt><trkpt lat="45.4306202" lon="10.7915189"><ele>126.75</ele><time>2026-03-28T11:18:26.813Z</time></trkpt><trkpt lat="45.4307336" lon="10.7915001"><ele>127.0</ele><time>2026-03-28T11:18:27.812Z</time></trkpt><trkpt lat="45.4308524" lon="10.7914806"><ele>127.0</ele><time>2026-03-28T11:18:28.813Z</time></trkpt><trkpt lat="45.4309697" lon="10.7914601"><ele>127.0</ele><time>2026-03-28T11:18:29.811Z</time></trkpt><trkpt lat="45.4310872" lon="10.7914454"><ele>127.0</ele><time>2026-03-28T11:18:30.812Z</time></trkpt><trkpt lat="45.431205" lon="10.7914376"><ele>127.0</ele><time>2026-03-28T11:18:31.813Z</time></trkpt><trkpt lat="45.4313255" lon="10.7914318"><ele>126.5</ele><time>2026-03-28T11:18:32.813Z</time></trkpt><trkpt lat="45.4314491" lon="10.7914414"><ele>126.0</ele><time>2026-03-28T11:18:33.811Z</time></trkpt><trkpt lat="45.431572" lon="10.7914709"><ele>125.5</ele><time>2026-03-28T11:18:34.812Z</time></trkpt><trkpt lat="45.4316907" lon="10.7915216"><ele>125.0</ele><time>2026-03-28T11:18:35.812Z</time></trkpt><trkpt lat="45.4318034" lon="10.7915843"><ele>125.0</ele><time>2026-03-28T11:18:36.811Z</time></trkpt><trkpt lat="45.4319172" lon="10.7916531"><ele>125.0</ele><time>2026-03-28T11:18:37.811Z</time></trkpt><trkpt lat="45.4320329" lon="10.791725"><ele>125.0</ele><time>2026-03-28T11:18:38.811Z</time></trkpt><trkpt lat="45.4321468" lon="10.7918021"><ele>125.0</ele><time>2026-03-28T11:18:39.812Z</time></trkpt><trkpt lat="45.432258" lon="10.7918814"><ele>125.5</ele><time>2026-03-28T11:18:40.812Z</time></trkpt><trkpt lat="45.4323735" lon="10.7919666"><ele>126.0</ele><time>2026-03-28T11:18:41.812Z</time></trkpt><trkpt lat="45.4324889" lon="10.7920582"><ele>126.5</ele><time>2026-03-28T11:18:42.812Z</time></trkpt><trkpt lat="45.4326093" lon="10.7921449"><ele>127.0</ele><time>2026-03-28T11:18:43.811Z</time></trkpt><trkpt lat="45.4327362" lon="10.7922149"><ele>127.0</ele><time>2026-03-28T11:18:44.812Z</time></trkpt><trkpt lat="45.4328681" lon="10.7922742"><ele>127.0</ele><time>2026-03-28T11:18:45.813Z</time></trkpt><trkpt lat="45.4330037" lon="10.7923135"><ele>127.0</ele><time>2026-03-28T11:18:46.812Z</time></trkpt><trkpt lat="45.4331427" lon="10.7923355"><ele>127.0</ele><time>2026-03-28T11:18:47.812Z</time></trkpt><trkpt lat="45.4332824" lon="10.7923522"><ele>128.0</ele><time>2026-03-28T11:18:48.811Z</time></trkpt><trkpt lat="45.4334244" lon="10.7923637"><ele>129.0</ele><time>2026-03-28T11:18:49.811Z</time></trkpt><trkpt lat="45.433567" lon="10.7923762"><ele>130.0</ele><time>2026-03-28T11:18:50.811Z</time></trkpt><trkpt lat="45.4337118" lon="10.7923814"><ele>131.0</ele><time>2026-03-28T11:18:51.812Z</time></trkpt><trkpt lat="45.4338511" lon="10.7923868"><ele>131.0</ele><time>2026-03-28T11:18:52.811Z</time></trkpt><trkpt lat="45.4339851" lon="10.792394"><ele>131.0</ele><time>2026-03-28T11:18:53.813Z</time></trkpt><trkpt lat="45.4341175" lon="10.7923959"><ele>131.0</ele><time>2026-03-28T11:18:54.812Z</time></trkpt><trkpt lat="45.4342507" lon="10.7923853"><ele>131.0</ele><time>2026-03-28T11:18:55.812Z</time></trkpt><trkpt lat="45.4343863" lon="10.7923697"><ele>131.0</ele><time>2026-03-28T11:18:56.811Z</time></trkpt><trkpt lat="45.4345266" lon="10.792353"><ele>131.0</ele><time>2026-03-28T11:18:57.812Z</time></trkpt><trkpt lat="45.4346682" lon="10.7923351"><ele>131.0</ele><time>2026-03-28T11:18:58.812Z</time></trkpt><trkpt lat="45.4348159" lon="10.7923126"><ele>131.0</ele><time>2026-03-28T11:18:59.811Z</time></trkpt><trkpt lat="45.4349601" lon="10.7922916"><ele>131.0</ele><time>2026-03-28T11:19:00.811Z</time></trkpt><trkpt lat="45.4351042" lon="10.792272"><ele>131.0</ele><time>2026-03-28T11:19:01.812Z</time></trkpt><trkpt lat="45.4352473" lon="10.7922509"><ele>131.0</ele><time>2026-03-28T11:19:02.812Z</time></trkpt><trkpt lat="45.4353935" lon="10.7922313"><ele>131.0</ele><time>2026-03-28T11:19:03.812Z</time></trkpt><trkpt lat="45.4355386" lon="10.7922116"><ele>131.75</ele><time>2026-03-28T11:19:04.812Z</time></trkpt><trkpt lat="45.4356816" lon="10.7921947"><ele>132.5</ele><time>2026-03-28T11:19:05.811Z</time></trkpt><trkpt lat="45.4358234" lon="10.7921762"><ele>133.25</ele><time>2026-03-28T11:19:06.813Z</time></trkpt><trkpt lat="45.4359649" lon="10.7921563"><ele>134.0</ele><time>2026-03-28T11:19:07.811Z</time></trkpt><trkpt lat="45.4361063" lon="10.7921313"><ele>134.0</ele><time>2026-03-28T11:19:08.811Z</time></trkpt><trkpt lat="45.4362431" lon="10.7921088"><ele>134.0</ele><time>2026-03-28T11:19:09.812Z</time></trkpt><trkpt lat="45.4363695" lon="10.7920882"><ele>134.0</ele><time>2026-03-28T11:19:10.812Z</time></trkpt><trkpt lat="45.436488" lon="10.7920686"><ele>134.0</ele><time>2026-03-28T11:19:11.812Z</time></trkpt><trkpt lat="45.436596" lon="10.7920555"><ele>134.0</ele><time>2026-03-28T11:19:12.811Z</time></trkpt><trkpt lat="45.4366914" lon="10.7920389"><ele>134.0</ele><time>2026-03-28T11:19:13.812Z</time></trkpt><trkpt lat="45.4367757" lon="10.7920256"><ele>134.0</ele><time>2026-03-28T11:19:14.812Z</time></trkpt><trkpt lat="45.4368397" lon="10.7920115"><ele>134.0</ele><time>2026-03-28T11:19:15.813Z</time></trkpt><trkpt lat="45.4368962" lon="10.7919001"><ele>134.0</ele><time>2026-03-28T11:19:17.813Z</time></trkpt><trkpt lat="45.4369094" lon="10.7917977"><ele>134.0</ele><time>2026-03-28T11:19:18.812Z</time></trkpt><trkpt lat="45.4369338" lon="10.7916917"><ele>134.0</ele><time>2026-03-28T11:19:19.811Z</time></trkpt><trkpt lat="45.4369771" lon="10.7915686"><ele>134.0</ele><time>2026-03-28T11:19:20.812Z</time></trkpt><trkpt lat="45.4370125" lon="10.7914669"><ele>134.0</ele><time>2026-03-28T11:19:21.811Z</time></trkpt><trkpt lat="45.437034" lon="10.7913603"><ele>134.0</ele><time>2026-03-28T11:19:22.812Z</time></trkpt><trkpt lat="45.4370253" lon="10.7912338"><ele>134.0</ele><time>2026-03-28T11:19:23.812Z</time></trkpt><trkpt lat="45.436991" lon="10.7910999"><ele>134.0</ele><time>2026-03-28T11:19:24.812Z</time></trkpt><trkpt lat="45.4369268" lon="10.7909519"><ele>134.0</ele><time>2026-03-28T11:19:25.812Z</time></trkpt><trkpt lat="45.4368398" lon="10.7908004"><ele>134.0</ele><time>2026-03-28T11:19:26.813Z</time></trkpt><trkpt lat="45.4367672" lon="10.7906777"><ele>134.0</ele><time>2026-03-28T11:19:27.812Z</time></trkpt><trkpt lat="45.4366982" lon="10.7905862"><ele>134.0</ele><time>2026-03-28T11:19:28.813Z</time></trkpt><trkpt lat="45.4366526" lon="10.7905119"><ele>134.0</ele><time>2026-03-28T11:19:29.812Z</time></trkpt><trkpt lat="45.4366545" lon="10.7903887"><ele>134.0</ele><time>2026-03-28T11:19:32.811Z</time></trkpt><trkpt lat="45.4366998" lon="10.7903153"><ele>134.0</ele><time>2026-03-28T11:19:33.812Z</time></trkpt><trkpt lat="45.4367709" lon="10.790231"><ele>134.0</ele><time>2026-03-28T11:19:34.813Z</time></trkpt><trkpt lat="45.4368469" lon="10.7901367"><ele>134.0</ele><time>2026-03-28T11:19:35.812Z</time></trkpt><trkpt lat="45.4369266" lon="10.790011"><ele>134.0</ele><time>2026-03-28T11:19:36.812Z</time></trkpt><trkpt lat="45.4370172" lon="10.7898805"><ele>133.5</ele><time>2026-03-28T11:19:37.813Z</time></trkpt><trkpt lat="45.4370998" lon="10.7897552"><ele>133.0</ele><time>2026-03-28T11:19:38.811Z</time></trkpt><trkpt lat="45.4371647" lon="10.7896543"><ele>132.5</ele><time>2026-03-28T11:19:39.812Z</time></trkpt><trkpt lat="45.4372201" lon="10.7895661"><ele>132.0</ele><time>2026-03-28T11:19:40.812Z</time></trkpt><trkpt lat="45.4372452" lon="10.7894809"><ele>131.5</ele><time>2026-03-28T11:19:41.812Z</time></trkpt><trkpt lat="45.4372592" lon="10.7893717"><ele>131.0</ele><time>2026-03-28T11:19:43.811Z</time></trkpt><trkpt lat="45.4373226" lon="10.789311"><ele>130.5</ele><time>2026-03-28T11:19:46.812Z</time></trkpt><trkpt lat="45.437386" lon="10.789301"><ele>130.0</ele><time>2026-03-28T11:19:48.812Z</time></trkpt><trkpt lat="45.4374533" lon="10.7892912"><ele>129.5</ele><time>2026-03-28T11:19:51.812Z</time></trkpt><trkpt lat="45.4375343" lon="10.7892819"><ele>129.0</ele><time>2026-03-28T11:19:55.812Z</time></trkpt><trkpt lat="45.4374595" lon="10.7892615"><ele>128.5</ele><time>2026-03-28T11:20:03.812Z</time></trkpt><trkpt lat="45.4373627" lon="10.7892901"><ele>128.0</ele><time>2026-03-28T11:20:05.812Z</time></trkpt><trkpt lat="45.43728" lon="10.7893085"><ele>127.99999999999999</ele><time>2026-03-28T11:20:07.811Z</time></trkpt><trkpt lat="45.4371836" lon="10.7892588"><ele>128.0</ele><time>2026-03-28T11:20:09.812Z</time></trkpt><trkpt lat="45.4371097" lon="10.7892314"><ele>128.0</ele><time>2026-03-28T11:20:10.811Z</time></trkpt><trkpt lat="45.4370336" lon="10.7891924"><ele>128.0</ele><time>2026-03-28T11:20:11.812Z</time></trkpt><trkpt lat="45.4369722" lon="10.7891442"><ele>127.99999999999999</ele><time>2026-03-28T11:20:12.813Z</time></trkpt><trkpt lat="45.4369264" lon="10.7890223"><ele>128.0</ele><time>2026-03-28T11:20:14.811Z</time></trkpt><trkpt lat="45.4369819" lon="10.7888696"><ele>128.16666666666666</ele><time>2026-03-28T11:20:16.813Z</time></trkpt><trkpt lat="45.4370283" lon="10.7888046"><ele>128.33333333333331</ele><time>2026-03-28T11:20:17.812Z</time></trkpt><trkpt lat="45.4370559" lon="10.7887217"><ele>128.5</ele><time>2026-03-28T11:20:18.813Z</time></trkpt><trkpt lat="45.4370592" lon="10.7886274"><ele>128.66666666666666</ele><time>2026-03-28T11:20:19.812Z</time></trkpt><trkpt lat="45.4370558" lon="10.788508"><ele>128.83333333333334</ele><time>2026-03-28T11:20:20.812Z</time></trkpt><trkpt lat="45.4370503" lon="10.7883788"><ele>129.0</ele><time>2026-03-28T11:20:21.812Z</time></trkpt><trkpt lat="45.4370379" lon="10.7882355"><ele>128.8</ele><time>2026-03-28T11:20:22.811Z</time></trkpt><trkpt lat="45.4370234" lon="10.7880976"><ele>128.60000000000002</ele><time>2026-03-28T11:20:23.812Z</time></trkpt><trkpt lat="45.4370018" lon="10.7879474"><ele>128.4</ele><time>2026-03-28T11:20:24.811Z</time></trkpt><trkpt lat="45.436979" lon="10.7877991"><ele>128.20000000000002</ele><time>2026-03-28T11:20:25.812Z</time></trkpt><trkpt lat="45.4369682" lon="10.7876409"><ele>128.0</ele><time>2026-03-28T11:20:26.812Z</time></trkpt><trkpt lat="45.4369689" lon="10.7874921"><ele>128.0</ele><time>2026-03-28T11:20:27.813Z</time></trkpt><trkpt lat="45.4369901" lon="10.7873372"><ele>128.0</ele><time>2026-03-28T11:20:28.813Z</time></trkpt><trkpt lat="45.4370298" lon="10.787183"><ele>128.0</ele><time>2026-03-28T11:20:29.813Z</time></trkpt><trkpt lat="45.4370718" lon="10.7870253"><ele>128.0</ele><time>2026-03-28T11:20:30.812Z</time></trkpt><trkpt lat="45.4371119" lon="10.7868644"><ele>127.75</ele><time>2026-03-28T11:20:31.812Z</time></trkpt><trkpt lat="45.4371557" lon="10.7867094"><ele>127.5</ele><time>2026-03-28T11:20:32.812Z</time></trkpt><trkpt lat="45.4372107" lon="10.7865482"><ele>127.25</ele><time>2026-03-28T11:20:33.811Z</time></trkpt><trkpt lat="45.437247" lon="10.7863911"><ele>127.0</ele><time>2026-03-28T11:20:34.812Z</time></trkpt><trkpt lat="45.4372799" lon="10.7862341"><ele>127.0</ele><time>2026-03-28T11:20:35.812Z</time></trkpt><trkpt lat="45.4373132" lon="10.7860755"><ele>127.0</ele><time>2026-03-28T11:20:36.813Z</time></trkpt><trkpt lat="45.4373558" lon="10.7859047"><ele>127.0</ele><time>2026-03-28T11:20:37.811Z</time></trkpt><trkpt lat="45.4373962" lon="10.7857369"><ele>127.0</ele><time>2026-03-28T11:20:38.812Z</time></trkpt><trkpt lat="45.4374416" lon="10.785576"><ele>128.2</ele><time>2026-03-28T11:20:39.812Z</time></trkpt><trkpt lat="45.4374808" lon="10.78544"><ele>129.39999999999998</ele><time>2026-03-28T11:20:40.812Z</time></trkpt><trkpt lat="45.4375145" lon="10.7853167"><ele>130.60000000000002</ele><time>2026-03-28T11:20:41.812Z</time></trkpt><trkpt lat="45.4375414" lon="10.7851879"><ele>131.8</ele><time>2026-03-28T11:20:42.811Z</time></trkpt><trkpt lat="45.4375608" lon="10.7850789"><ele>133.0</ele><time>2026-03-28T11:20:43.812Z</time></trkpt><trkpt lat="45.4375848" lon="10.7849348"><ele>133.33333333333334</ele><time>2026-03-28T11:20:45.812Z</time></trkpt><trkpt lat="45.4375875" lon="10.7848042"><ele>133.66666666666669</ele><time>2026-03-28T11:20:48.812Z</time></trkpt><trkpt lat="45.4376084" lon="10.7847156"><ele>134.0</ele><time>2026-03-28T11:20:50.812Z</time></trkpt><trkpt lat="45.4376246" lon="10.7845667"><ele>134.33333333333334</ele><time>2026-03-28T11:20:53.812Z</time></trkpt><trkpt lat="45.4376321" lon="10.7844055"><ele>134.66666666666666</ele><time>2026-03-28T11:20:55.812Z</time></trkpt><trkpt lat="45.4376385" lon="10.7843078"><ele>135.0</ele><time>2026-03-28T11:20:56.811Z</time></trkpt><trkpt lat="45.4376466" lon="10.7842063"><ele>135.0</ele><time>2026-03-28T11:20:57.812Z</time></trkpt><trkpt lat="45.4376523" lon="10.7840947"><ele>135.0</ele><time>2026-03-28T11:20:58.812Z</time></trkpt><trkpt lat="45.4376608" lon="10.7839773"><ele>135.0</ele><time>2026-03-28T11:20:59.812Z</time></trkpt><trkpt lat="45.4376691" lon="10.7838575"><ele>135.0</ele><time>2026-03-28T11:21:00.813Z</time></trkpt><trkpt lat="45.437678" lon="10.7837478"><ele>135.0</ele><time>2026-03-28T11:21:01.813Z</time></trkpt><trkpt lat="45.4376868" lon="10.783654"><ele>135.0</ele><time>2026-03-28T11:21:02.812Z</time></trkpt><trkpt lat="45.4376946" lon="10.7834603"><ele>134.0</ele><time>2026-03-28T11:21:04.812Z</time></trkpt><trkpt lat="45.4377088" lon="10.7833429"><ele>133.0</ele><time>2026-03-28T11:21:05.812Z</time></trkpt><trkpt lat="45.4377254" lon="10.7832185"><ele>132.0</ele><time>2026-03-28T11:21:06.812Z</time></trkpt><trkpt lat="45.4377442" lon="10.7830861"><ele>131.0</ele><time>2026-03-28T11:21:07.812Z</time></trkpt><trkpt lat="45.4377602" lon="10.7829458"><ele>130.0</ele><time>2026-03-28T11:21:08.812Z</time></trkpt><trkpt lat="45.4377744" lon="10.7828104"><ele>130.0</ele><time>2026-03-28T11:21:09.811Z</time></trkpt><trkpt lat="45.4377869" lon="10.7826877"><ele>130.0</ele><time>2026-03-28T11:21:10.812Z</time></trkpt><trkpt lat="45.4377902" lon="10.7825704"><ele>130.0</ele><time>2026-03-28T11:21:11.812Z</time></trkpt><trkpt lat="45.437815" lon="10.7824017"><ele>130.0</ele><time>2026-03-28T11:21:13.811Z</time></trkpt><trkpt lat="45.4379124" lon="10.7823176"><ele>130.0</ele><time>2026-03-28T11:21:15.812Z</time></trkpt><trkpt lat="45.4379855" lon="10.7823155"><ele>128.4</ele><time>2026-03-28T11:21:16.812Z</time></trkpt><trkpt lat="45.4380752" lon="10.7823227"><ele>126.8</ele><time>2026-03-28T11:21:17.813Z</time></trkpt><trkpt lat="45.4381764" lon="10.7823357"><ele>125.19999999999999</ele><time>2026-03-28T11:21:18.812Z</time></trkpt><trkpt lat="45.4382844" lon="10.7823433"><ele>123.6</ele><time>2026-03-28T11:21:19.812Z</time></trkpt><trkpt lat="45.4384023" lon="10.7823528"><ele>122.0</ele><time>2026-03-28T11:21:20.813Z</time></trkpt><trkpt lat="45.4385219" lon="10.7823656"><ele>122.0</ele><time>2026-03-28T11:21:21.812Z</time></trkpt><trkpt lat="45.4386393" lon="10.7823723"><ele>122.0</ele><time>2026-03-28T11:21:22.813Z</time></trkpt><trkpt lat="45.4387569" lon="10.7823803"><ele>122.0</ele><time>2026-03-28T11:21:23.812Z</time></trkpt><trkpt lat="45.4388749" lon="10.7823901"><ele>122.0</ele><time>2026-03-28T11:21:24.811Z</time></trkpt><trkpt lat="45.4389922" lon="10.7823997"><ele>122.25</ele><time>2026-03-28T11:21:25.812Z</time></trkpt><trkpt lat="45.4391096" lon="10.7824142"><ele>122.5</ele><time>2026-03-28T11:21:26.812Z</time></trkpt><trkpt lat="45.4392261" lon="10.7824317"><ele>122.75</ele><time>2026-03-28T11:21:27.813Z</time></trkpt><trkpt lat="45.4393418" lon="10.7824489"><ele>123.0</ele><time>2026-03-28T11:21:28.812Z</time></trkpt><trkpt lat="45.4394516" lon="10.782459"><ele>123.0</ele><time>2026-03-28T11:21:29.813Z</time></trkpt><trkpt lat="45.4395501" lon="10.7824673"><ele>123.0</ele><time>2026-03-28T11:21:30.812Z</time></trkpt><trkpt lat="45.4396381" lon="10.7824789"><ele>123.0</ele><time>2026-03-28T11:21:31.811Z</time></trkpt><trkpt lat="45.4397098" lon="10.7824973"><ele>123.0</ele><time>2026-03-28T11:21:32.813Z</time></trkpt><trkpt lat="45.4397801" lon="10.7824973"><ele>123.0</ele><time>2026-03-28T11:21:34.812Z</time></trkpt><trkpt lat="45.4398243" lon="10.7824074"><ele>123.0</ele><time>2026-03-28T11:21:52.812Z</time></trkpt><trkpt lat="45.4398422" lon="10.7823117"><ele>123.25</ele><time>2026-03-28T11:21:53.812Z</time></trkpt><trkpt lat="45.4398692" lon="10.7821717"><ele>123.5</ele><time>2026-03-28T11:21:54.812Z</time></trkpt><trkpt lat="45.4398948" lon="10.7820036"><ele>123.75</ele><time>2026-03-28T11:21:55.812Z</time></trkpt><trkpt lat="45.439911" lon="10.7818177"><ele>124.0</ele><time>2026-03-28T11:21:56.813Z</time></trkpt><trkpt lat="45.439923" lon="10.7816209"><ele>123.5</ele><time>2026-03-28T11:21:57.813Z</time></trkpt><trkpt lat="45.439936" lon="10.7814217"><ele>123.0</ele><time>2026-03-28T11:21:58.812Z</time></trkpt><trkpt lat="45.4399488" lon="10.7812442"><ele>122.5</ele><time>2026-03-28T11:21:59.812Z</time></trkpt><trkpt lat="45.4399605" lon="10.7810933"><ele>122.0</ele><time>2026-03-28T11:22:00.813Z</time></trkpt><trkpt lat="45.4399876" lon="10.7809772"><ele>121.8</ele><time>2026-03-28T11:22:01.812Z</time></trkpt><trkpt lat="45.4400383" lon="10.780888"><ele>121.6</ele><time>2026-03-28T11:22:02.813Z</time></trkpt><trkpt lat="45.4401061" lon="10.7808425"><ele>121.39999999999999</ele><time>2026-03-28T11:22:03.812Z</time></trkpt><trkpt lat="45.4401948" lon="10.7808387"><ele>121.19999999999999</ele><time>2026-03-28T11:22:04.811Z</time></trkpt><trkpt lat="45.440296" lon="10.7808647"><ele>121.0</ele><time>2026-03-28T11:22:05.813Z</time></trkpt><trkpt lat="45.4404055" lon="10.7809138"><ele>121.0</ele><time>2026-03-28T11:22:06.812Z</time></trkpt><trkpt lat="45.4405215" lon="10.7809735"><ele>121.0</ele><time>2026-03-28T11:22:07.813Z</time></trkpt><trkpt lat="45.4406404" lon="10.7810382"><ele>121.0</ele><time>2026-03-28T11:22:08.812Z</time></trkpt><trkpt lat="45.4407589" lon="10.7811122"><ele>121.0</ele><time>2026-03-28T11:22:09.812Z</time></trkpt><trkpt lat="45.4408783" lon="10.7812005"><ele>120.75</ele><time>2026-03-28T11:22:10.812Z</time></trkpt><trkpt lat="45.4409969" lon="10.7812955"><ele>120.5</ele><time>2026-03-28T11:22:11.812Z</time></trkpt><trkpt lat="45.4411106" lon="10.7813926"><ele>120.25</ele><time>2026-03-28T11:22:12.812Z</time></trkpt><trkpt lat="45.4412235" lon="10.7814893"><ele>120.0</ele><time>2026-03-28T11:22:13.812Z</time></trkpt><trkpt lat="45.4413432" lon="10.7815785"><ele>120.0</ele><time>2026-03-28T11:22:14.813Z</time></trkpt><trkpt lat="45.4414633" lon="10.7816706"><ele>120.0</ele><time>2026-03-28T11:22:15.813Z</time></trkpt><trkpt lat="45.4415868" lon="10.7817659"><ele>120.0</ele><time>2026-03-28T11:22:16.812Z</time></trkpt><trkpt lat="45.4417063" lon="10.7818536"><ele>120.0</ele><time>2026-03-28T11:22:17.812Z</time></trkpt><trkpt lat="45.44183" lon="10.7819283"><ele>119.75</ele><time>2026-03-28T11:22:18.813Z</time></trkpt><trkpt lat="45.4419625" lon="10.7819824"><ele>119.5</ele><time>2026-03-28T11:22:19.812Z</time></trkpt><trkpt lat="45.4420958" lon="10.782022"><ele>119.25</ele><time>2026-03-28T11:22:20.812Z</time></trkpt><trkpt lat="45.4422311" lon="10.7820553"><ele>119.0</ele><time>2026-03-28T11:22:21.811Z</time></trkpt><trkpt lat="45.4423646" lon="10.7820888"><ele>118.75</ele><time>2026-03-28T11:22:22.812Z</time></trkpt><trkpt lat="45.4424963" lon="10.7821305"><ele>118.5</ele><time>2026-03-28T11:22:23.812Z</time></trkpt><trkpt lat="45.4426299" lon="10.7821763"><ele>118.25</ele><time>2026-03-28T11:22:24.812Z</time></trkpt><trkpt lat="45.4427651" lon="10.7822277"><ele>118.0</ele><time>2026-03-28T11:22:25.812Z</time></trkpt><trkpt lat="45.4429053" lon="10.7822725"><ele>118.25</ele><time>2026-03-28T11:22:26.812Z</time></trkpt><trkpt lat="45.4430481" lon="10.7823061"><ele>118.5</ele><time>2026-03-28T11:22:27.812Z</time></trkpt><trkpt lat="45.443195" lon="10.7823324"><ele>118.75</ele><time>2026-03-28T11:22:28.812Z</time></trkpt><trkpt lat="45.4433451" lon="10.7823544"><ele>119.0</ele><time>2026-03-28T11:22:29.812Z</time></trkpt><trkpt lat="45.4434964" lon="10.7823798"><ele>119.0</ele><time>2026-03-28T11:22:30.812Z</time></trkpt><trkpt lat="45.4436452" lon="10.7824051"><ele>119.0</ele><time>2026-03-28T11:22:31.813Z</time></trkpt><trkpt lat="45.4437943" lon="10.7824293"><ele>119.0</ele><time>2026-03-28T11:22:32.813Z</time></trkpt><trkpt lat="45.4439417" lon="10.7824577"><ele>119.0</ele><time>2026-03-28T11:22:33.811Z</time></trkpt><trkpt lat="45.444088" lon="10.7824881"><ele>119.5</ele><time>2026-03-28T11:22:34.812Z</time></trkpt><trkpt lat="45.4442351" lon="10.7825177"><ele>120.0</ele><time>2026-03-28T11:22:35.812Z</time></trkpt><trkpt lat="45.4443826" lon="10.7825459"><ele>120.5</ele><time>2026-03-28T11:22:36.811Z</time></trkpt><trkpt lat="45.4445292" lon="10.7825737"><ele>121.0</ele><time>2026-03-28T11:22:37.813Z</time></trkpt><trkpt lat="45.4446712" lon="10.7826012"><ele>121.0</ele><time>2026-03-28T11:22:38.812Z</time></trkpt><trkpt lat="45.4448104" lon="10.7826246"><ele>121.0</ele><time>2026-03-28T11:22:39.811Z</time></trkpt><trkpt lat="45.4449452" lon="10.7826492"><ele>121.0</ele><time>2026-03-28T11:22:40.812Z</time></trkpt><trkpt lat="45.4450752" lon="10.7826795"><ele>121.0</ele><time>2026-03-28T11:22:41.812Z</time></trkpt><trkpt lat="45.4452007" lon="10.7827035"><ele>121.0</ele><time>2026-03-28T11:22:42.812Z</time></trkpt><trkpt lat="45.4453258" lon="10.7827055"><ele>121.0</ele><time>2026-03-28T11:22:43.812Z</time></trkpt><trkpt lat="45.4454472" lon="10.7826739"><ele>121.0</ele><time>2026-03-28T11:22:44.812Z</time></trkpt><trkpt lat="45.4455658" lon="10.7826251"><ele>121.0</ele><time>2026-03-28T11:22:45.812Z</time></trkpt><trkpt lat="45.4456827" lon="10.7825704"><ele>120.5</ele><time>2026-03-28T11:22:46.812Z</time></trkpt><trkpt lat="45.445801" lon="10.7825096"><ele>120.0</ele><time>2026-03-28T11:22:47.812Z</time></trkpt><trkpt lat="45.4459202" lon="10.7824413"><ele>119.5</ele><time>2026-03-28T11:22:48.812Z</time></trkpt><trkpt lat="45.4460388" lon="10.7823726"><ele>119.0</ele><time>2026-03-28T11:22:49.811Z</time></trkpt><trkpt lat="45.446161" lon="10.782308"><ele>119.0</ele><time>2026-03-28T11:22:50.813Z</time></trkpt><trkpt lat="45.4462847" lon="10.7822461"><ele>119.0</ele><time>2026-03-28T11:22:51.813Z</time></trkpt><trkpt lat="45.4464093" lon="10.7821912"><ele>119.0</ele><time>2026-03-28T11:22:52.812Z</time></trkpt><trkpt lat="45.4465303" lon="10.7821343"><ele>119.0</ele><time>2026-03-28T11:22:53.811Z</time></trkpt><trkpt lat="45.446651" lon="10.7820704"><ele>118.75</ele><time>2026-03-28T11:22:54.812Z</time></trkpt><trkpt lat="45.4467647" lon="10.7819834"><ele>118.5</ele><time>2026-03-28T11:22:55.812Z</time></trkpt><trkpt lat="45.4468731" lon="10.781873"><ele>118.25</ele><time>2026-03-28T11:22:56.813Z</time></trkpt><trkpt lat="45.4469753" lon="10.7817409"><ele>118.0</ele><time>2026-03-28T11:22:57.811Z</time></trkpt><trkpt lat="45.4470723" lon="10.7815981"><ele>116.75</ele><time>2026-03-28T11:22:58.812Z</time></trkpt><trkpt lat="45.4471677" lon="10.7814583"><ele>115.5</ele><time>2026-03-28T11:22:59.812Z</time></trkpt><trkpt lat="45.447263" lon="10.7813161"><ele>114.25</ele><time>2026-03-28T11:23:00.812Z</time></trkpt><trkpt lat="45.4473642" lon="10.7811839"><ele>113.0</ele><time>2026-03-28T11:23:01.812Z</time></trkpt><trkpt lat="45.4474795" lon="10.781068"><ele>113.0</ele><time>2026-03-28T11:23:02.812Z</time></trkpt><trkpt lat="45.4476052" lon="10.7809754"><ele>113.0</ele><time>2026-03-28T11:23:03.813Z</time></trkpt><trkpt lat="45.4477347" lon="10.7809027"><ele>113.0</ele><time>2026-03-28T11:23:04.812Z</time></trkpt><trkpt lat="45.4478675" lon="10.7808385"><ele>113.0</ele><time>2026-03-28T11:23:05.812Z</time></trkpt><trkpt lat="45.4480028" lon="10.7807795"><ele>113.75</ele><time>2026-03-28T11:23:06.812Z</time></trkpt><trkpt lat="45.4481346" lon="10.7807181"><ele>114.5</ele><time>2026-03-28T11:23:07.812Z</time></trkpt><trkpt lat="45.4482597" lon="10.7806604"><ele>115.25</ele><time>2026-03-28T11:23:08.813Z</time></trkpt><trkpt lat="45.4483817" lon="10.7806026"><ele>116.0</ele><time>2026-03-28T11:23:09.812Z</time></trkpt><trkpt lat="45.4484975" lon="10.7805399"><ele>116.0</ele><time>2026-03-28T11:23:10.812Z</time></trkpt><trkpt lat="45.4486068" lon="10.7804693"><ele>116.0</ele><time>2026-03-28T11:23:11.812Z</time></trkpt><trkpt lat="45.4487061" lon="10.7803807"><ele>116.0</ele><time>2026-03-28T11:23:12.812Z</time></trkpt><trkpt lat="45.4487958" lon="10.7802736"><ele>116.0</ele><time>2026-03-28T11:23:13.813Z</time></trkpt><trkpt lat="45.4488806" lon="10.7801631"><ele>116.4</ele><time>2026-03-28T11:23:14.811Z</time></trkpt><trkpt lat="45.4489498" lon="10.7800484"><ele>116.8</ele><time>2026-03-28T11:23:15.812Z</time></trkpt><trkpt lat="45.4490115" lon="10.7799465"><ele>117.20000000000002</ele><time>2026-03-28T11:23:16.812Z</time></trkpt><trkpt lat="45.4490512" lon="10.7798597"><ele>117.60000000000001</ele><time>2026-03-28T11:23:17.811Z</time></trkpt><trkpt lat="45.4490419" lon="10.7797137"><ele>118.0</ele><time>2026-03-28T11:23:19.811Z</time></trkpt><trkpt lat="45.4489913" lon="10.7796335"><ele>118.0</ele><time>2026-03-28T11:23:20.812Z</time></trkpt><trkpt lat="45.4489083" lon="10.7795583"><ele>118.0</ele><time>2026-03-28T11:23:21.812Z</time></trkpt><trkpt lat="45.4488043" lon="10.7794629"><ele>118.0</ele><time>2026-03-28T11:23:22.812Z</time></trkpt><trkpt lat="45.4486867" lon="10.7793223"><ele>118.0</ele><time>2026-03-28T11:23:23.812Z</time></trkpt><trkpt lat="45.4485678" lon="10.7791655"><ele>117.66666666666667</ele><time>2026-03-28T11:23:24.812Z</time></trkpt><trkpt lat="45.4484411" lon="10.7790098"><ele>117.33333333333334</ele><time>2026-03-28T11:23:25.812Z</time></trkpt><trkpt lat="45.4483117" lon="10.7788474"><ele>117.0</ele><time>2026-03-28T11:23:26.811Z</time></trkpt><trkpt lat="45.4481846" lon="10.778682"><ele>116.0</ele><time>2026-03-28T11:23:27.811Z</time></trkpt><trkpt lat="45.4480582" lon="10.7785126"><ele>115.0</ele><time>2026-03-28T11:23:28.813Z</time></trkpt><trkpt lat="45.4479306" lon="10.7783438"><ele>114.0</ele><time>2026-03-28T11:23:29.811Z</time></trkpt><trkpt lat="45.4477978" lon="10.7781808"><ele>114.0</ele><time>2026-03-28T11:23:30.813Z</time></trkpt><trkpt lat="45.4476707" lon="10.7780191"><ele>114.0</ele><time>2026-03-28T11:23:31.811Z</time></trkpt><trkpt lat="45.447544" lon="10.7778541"><ele>114.0</ele><time>2026-03-28T11:23:32.812Z</time></trkpt><trkpt lat="45.4474215" lon="10.7776912"><ele>114.66666666666666</ele><time>2026-03-28T11:23:33.812Z</time></trkpt><trkpt lat="45.4472969" lon="10.77753"><ele>115.33333333333333</ele><time>2026-03-28T11:23:34.812Z</time></trkpt><trkpt lat="45.4471743" lon="10.7773713"><ele>116.0</ele><time>2026-03-28T11:23:35.811Z</time></trkpt><trkpt lat="45.4470488" lon="10.7772107"><ele>116.0</ele><time>2026-03-28T11:23:36.811Z</time></trkpt><trkpt lat="45.4469262" lon="10.7770478"><ele>116.0</ele><time>2026-03-28T11:23:37.813Z</time></trkpt><trkpt lat="45.4468006" lon="10.7768851"><ele>116.0</ele><time>2026-03-28T11:23:38.811Z</time></trkpt><trkpt lat="45.4466795" lon="10.7767187"><ele>116.0</ele><time>2026-03-28T11:23:39.811Z</time></trkpt><trkpt lat="45.4465642" lon="10.7765464"><ele>116.0</ele><time>2026-03-28T11:23:40.812Z</time></trkpt><trkpt lat="45.4464609" lon="10.776367"><ele>116.0</ele><time>2026-03-28T11:23:41.812Z</time></trkpt><trkpt lat="45.4463633" lon="10.7761828"><ele>114.66666666666666</ele><time>2026-03-28T11:23:42.813Z</time></trkpt><trkpt lat="45.4462773" lon="10.7759923"><ele>113.33333333333334</ele><time>2026-03-28T11:23:43.811Z</time></trkpt><trkpt lat="45.4462038" lon="10.7757964"><ele>112.0</ele><time>2026-03-28T11:23:44.811Z</time></trkpt><trkpt lat="45.4461407" lon="10.7755918"><ele>112.0</ele><time>2026-03-28T11:23:45.813Z</time></trkpt><trkpt lat="45.446084" lon="10.775375"><ele>112.0</ele><time>2026-03-28T11:23:46.811Z</time></trkpt><trkpt lat="45.4460281" lon="10.7751593"><ele>112.0</ele><time>2026-03-28T11:23:47.811Z</time></trkpt><trkpt lat="45.4459621" lon="10.7749473"><ele>112.33333333333334</ele><time>2026-03-28T11:23:48.813Z</time></trkpt><trkpt lat="45.4458977" lon="10.774735"><ele>112.66666666666666</ele><time>2026-03-28T11:23:49.812Z</time></trkpt><trkpt lat="45.4458396" lon="10.7745216"><ele>113.0</ele><time>2026-03-28T11:23:50.813Z</time></trkpt><trkpt lat="45.4457901" lon="10.7743188"><ele>113.0</ele><time>2026-03-28T11:23:51.812Z</time></trkpt><trkpt lat="45.445752" lon="10.7741369"><ele>113.0</ele><time>2026-03-28T11:23:52.812Z</time></trkpt><trkpt lat="45.4457193" lon="10.7739732"><ele>113.0</ele><time>2026-03-28T11:23:53.811Z</time></trkpt><trkpt lat="45.4456896" lon="10.7738253"><ele>113.0</ele><time>2026-03-28T11:23:54.812Z</time></trkpt><trkpt lat="45.445654" lon="10.7736898"><ele>113.0</ele><time>2026-03-28T11:23:55.811Z</time></trkpt><trkpt lat="45.4456155" lon="10.7735565"><ele>113.00000000000001</ele><time>2026-03-28T11:23:56.812Z</time></trkpt><trkpt lat="45.4455769" lon="10.7734356"><ele>113.00000000000001</ele><time>2026-03-28T11:23:57.811Z</time></trkpt><trkpt lat="45.4455328" lon="10.7733063"><ele>113.0</ele><time>2026-03-28T11:23:58.812Z</time></trkpt><trkpt lat="45.4454876" lon="10.7731714"><ele>113.0</ele><time>2026-03-28T11:23:59.813Z</time></trkpt><trkpt lat="45.4454378" lon="10.7730316"><ele>112.75</ele><time>2026-03-28T11:24:00.812Z</time></trkpt><trkpt lat="45.4453818" lon="10.7728875"><ele>112.5</ele><time>2026-03-28T11:24:01.812Z</time></trkpt><trkpt lat="45.4453208" lon="10.7727484"><ele>112.25</ele><time>2026-03-28T11:24:02.813Z</time></trkpt><trkpt lat="45.4452486" lon="10.7726175"><ele>112.0</ele><time>2026-03-28T11:24:03.812Z</time></trkpt><trkpt lat="45.4451703" lon="10.7724918"><ele>112.0</ele><time>2026-03-28T11:24:04.811Z</time></trkpt><trkpt lat="45.4451012" lon="10.7723603"><ele>111.99999999999999</ele><time>2026-03-28T11:24:05.813Z</time></trkpt><trkpt lat="45.4450468" lon="10.77222"><ele>111.99999999999999</ele><time>2026-03-28T11:24:06.813Z</time></trkpt><trkpt lat="45.4450108" lon="10.772081"><ele>112.0</ele><time>2026-03-28T11:24:07.812Z</time></trkpt><trkpt lat="45.4449902" lon="10.7719204"><ele>112.0</ele><time>2026-03-28T11:24:08.812Z</time></trkpt><trkpt lat="45.4449808" lon="10.7717363"><ele>112.0</ele><time>2026-03-28T11:24:09.811Z</time></trkpt><trkpt lat="45.4449731" lon="10.771526"><ele>112.0</ele><time>2026-03-28T11:24:10.813Z</time></trkpt><trkpt lat="45.4449607" lon="10.7713106"><ele>112.0</ele><time>2026-03-28T11:24:11.812Z</time></trkpt><trkpt lat="45.4449456" lon="10.771089"><ele>113.5</ele><time>2026-03-28T11:24:12.811Z</time></trkpt><trkpt lat="45.4449321" lon="10.7708712"><ele>115.0</ele><time>2026-03-28T11:24:13.812Z</time></trkpt><trkpt lat="45.4449174" lon="10.7706714"><ele>116.5</ele><time>2026-03-28T11:24:14.811Z</time></trkpt><trkpt lat="45.4448983" lon="10.770478"><ele>118.0</ele><time>2026-03-28T11:24:15.813Z</time></trkpt><trkpt lat="45.4448825" lon="10.7702965"><ele>118.80000000000001</ele><time>2026-03-28T11:24:16.811Z</time></trkpt><trkpt lat="45.4448555" lon="10.7701303"><ele>119.60000000000001</ele><time>2026-03-28T11:24:17.813Z</time></trkpt><trkpt lat="45.4448126" lon="10.7699738"><ele>120.39999999999999</ele><time>2026-03-28T11:24:18.813Z</time></trkpt><trkpt lat="45.4447569" lon="10.7698442"><ele>121.19999999999999</ele><time>2026-03-28T11:24:19.813Z</time></trkpt><trkpt lat="45.4446943" lon="10.7697274"><ele>122.0</ele><time>2026-03-28T11:24:20.812Z</time></trkpt><trkpt lat="45.4446383" lon="10.7696006"><ele>122.0</ele><time>2026-03-28T11:24:21.811Z</time></trkpt><trkpt lat="45.4445844" lon="10.7694641"><ele>121.99999999999999</ele><time>2026-03-28T11:24:22.812Z</time></trkpt><trkpt lat="45.4445298" lon="10.7693239"><ele>121.99999999999999</ele><time>2026-03-28T11:24:23.812Z</time></trkpt><trkpt lat="45.4444784" lon="10.7691901"><ele>122.0</ele><time>2026-03-28T11:24:24.811Z</time></trkpt><trkpt lat="45.4444248" lon="10.7690607"><ele>122.0</ele><time>2026-03-28T11:24:25.812Z</time></trkpt><trkpt lat="45.4443624" lon="10.7689343"><ele>121.8</ele><time>2026-03-28T11:24:26.813Z</time></trkpt><trkpt lat="45.4442925" lon="10.7688163"><ele>121.6</ele><time>2026-03-28T11:24:27.812Z</time></trkpt><trkpt lat="45.4442197" lon="10.7687122"><ele>121.39999999999999</ele><time>2026-03-28T11:24:28.811Z</time></trkpt><trkpt lat="45.4441474" lon="10.7686293"><ele>121.19999999999999</ele><time>2026-03-28T11:24:29.812Z</time></trkpt><trkpt lat="45.4440789" lon="10.7685581"><ele>121.0</ele><time>2026-03-28T11:24:30.811Z</time></trkpt><trkpt lat="45.4440133" lon="10.7684956"><ele>120.16666666666667</ele><time>2026-03-28T11:24:31.811Z</time></trkpt><trkpt lat="45.4439475" lon="10.7684326"><ele>119.33333333333334</ele><time>2026-03-28T11:24:32.812Z</time></trkpt><trkpt lat="45.4438988" lon="10.7683746"><ele>118.5</ele><time>2026-03-28T11:24:33.813Z</time></trkpt><trkpt lat="45.4438578" lon="10.7682915"><ele>117.66666666666666</ele><time>2026-03-28T11:24:35.812Z</time></trkpt><trkpt lat="45.4438815" lon="10.7682014"><ele>116.83333333333333</ele><time>2026-03-28T11:24:43.811Z</time></trkpt><trkpt lat="45.4439919" lon="10.7681664"><ele>116.0</ele><time>2026-03-28T11:24:45.811Z</time></trkpt><trkpt lat="45.4440732" lon="10.7681598"><ele>116.0</ele><time>2026-03-28T11:24:46.81Z</time></trkpt><trkpt lat="45.4441673" lon="10.7681529"><ele>116.0</ele><time>2026-03-28T11:24:47.811Z</time></trkpt><trkpt lat="45.4442729" lon="10.7681379"><ele>116.0</ele><time>2026-03-28T11:24:48.81Z</time></trkpt><trkpt lat="45.4443928" lon="10.7681256"><ele>116.0</ele><time>2026-03-28T11:24:49.81Z</time></trkpt><trkpt lat="45.4445188" lon="10.768117"><ele>116.0</ele><time>2026-03-28T11:24:50.811Z</time></trkpt><trkpt lat="45.444654" lon="10.7681074"><ele>116.0</ele><time>2026-03-28T11:24:51.812Z</time></trkpt><trkpt lat="45.4447939" lon="10.7680957"><ele>116.0</ele><time>2026-03-28T11:24:52.81Z</time></trkpt><trkpt lat="45.4449379" lon="10.7680807"><ele>116.0</ele><time>2026-03-28T11:24:53.81Z</time></trkpt><trkpt lat="45.4450886" lon="10.768063"><ele>116.0</ele><time>2026-03-28T11:24:54.811Z</time></trkpt><trkpt lat="45.4452447" lon="10.7680469"><ele>116.0</ele><time>2026-03-28T11:24:55.812Z</time></trkpt><trkpt lat="45.4453986" lon="10.7680318"><ele>116.0</ele><time>2026-03-28T11:24:56.812Z</time></trkpt><trkpt lat="45.4455546" lon="10.7680184"><ele>116.0</ele><time>2026-03-28T11:24:57.811Z</time></trkpt><trkpt lat="45.4457112" lon="10.7680092"><ele>115.33333333333333</ele><time>2026-03-28T11:24:58.811Z</time></trkpt><trkpt lat="45.445866" lon="10.7680128"><ele>114.66666666666666</ele><time>2026-03-28T11:24:59.811Z</time></trkpt><trkpt lat="45.4460261" lon="10.7680279"><ele>114.0</ele><time>2026-03-28T11:25:00.812Z</time></trkpt><trkpt lat="45.4461843" lon="10.7680564"><ele>113.33333333333334</ele><time>2026-03-28T11:25:01.811Z</time></trkpt><trkpt lat="45.4463399" lon="10.7681021"><ele>112.66666666666667</ele><time>2026-03-28T11:25:02.812Z</time></trkpt><trkpt lat="45.446496" lon="10.768162"><ele>112.0</ele><time>2026-03-28T11:25:03.81Z</time></trkpt><trkpt lat="45.4466508" lon="10.7682305"><ele>112.0</ele><time>2026-03-28T11:25:04.81Z</time></trkpt><trkpt lat="45.446803" lon="10.7683023"><ele>112.0</ele><time>2026-03-28T11:25:05.81Z</time></trkpt><trkpt lat="45.4469545" lon="10.7683817"><ele>112.0</ele><time>2026-03-28T11:25:06.811Z</time></trkpt><trkpt lat="45.4471042" lon="10.7684634"><ele>113.0</ele><time>2026-03-28T11:25:07.811Z</time></trkpt><trkpt lat="45.4472562" lon="10.7685534"><ele>114.0</ele><time>2026-03-28T11:25:08.812Z</time></trkpt><trkpt lat="45.4474073" lon="10.7686486"><ele>115.0</ele><time>2026-03-28T11:25:09.811Z</time></trkpt><trkpt lat="45.4475582" lon="10.7687468"><ele>115.0</ele><time>2026-03-28T11:25:10.811Z</time></trkpt><trkpt lat="45.4477124" lon="10.7688481"><ele>115.0</ele><time>2026-03-28T11:25:11.81Z</time></trkpt><trkpt lat="45.4478676" lon="10.768955"><ele>115.0</ele><time>2026-03-28T11:25:12.811Z</time></trkpt><trkpt lat="45.4480208" lon="10.7690644"><ele>114.66666666666667</ele><time>2026-03-28T11:25:13.81Z</time></trkpt><trkpt lat="45.4481744" lon="10.76918"><ele>114.33333333333334</ele><time>2026-03-28T11:25:14.81Z</time></trkpt><trkpt lat="45.448321" lon="10.7693086"><ele>114.0</ele><time>2026-03-28T11:25:15.81Z</time></trkpt><trkpt lat="45.4484632" lon="10.7694454"><ele>113.66666666666666</ele><time>2026-03-28T11:25:16.81Z</time></trkpt><trkpt lat="45.4486006" lon="10.7695886"><ele>113.33333333333333</ele><time>2026-03-28T11:25:17.812Z</time></trkpt><trkpt lat="45.4487238" lon="10.7697246"><ele>113.0</ele><time>2026-03-28T11:25:18.812Z</time></trkpt><trkpt lat="45.4488319" lon="10.7698541"><ele>113.4</ele><time>2026-03-28T11:25:19.811Z</time></trkpt><trkpt lat="45.4489219" lon="10.7699658"><ele>113.80000000000001</ele><time>2026-03-28T11:25:20.811Z</time></trkpt><trkpt lat="45.4489952" lon="10.7700632"><ele>114.2</ele><time>2026-03-28T11:25:21.811Z</time></trkpt><trkpt lat="45.4490548" lon="10.7701385"><ele>114.6</ele><time>2026-03-28T11:25:22.811Z</time></trkpt><trkpt lat="45.4491129" lon="10.7702185"><ele>115.0</ele><time>2026-03-28T11:25:23.811Z</time></trkpt><trkpt lat="45.4491622" lon="10.7702941"><ele>115.0</ele><time>2026-03-28T11:25:24.811Z</time></trkpt><trkpt lat="45.4492127" lon="10.7703548"><ele>115.0</ele><time>2026-03-28T11:25:25.812Z</time></trkpt><trkpt lat="45.4492859" lon="10.7703927"><ele>115.0</ele><time>2026-03-28T11:25:26.811Z</time></trkpt><trkpt lat="45.4493799" lon="10.7704007"><ele>115.0</ele><time>2026-03-28T11:25:27.811Z</time></trkpt><trkpt lat="45.4494907" lon="10.7704014"><ele>115.0</ele><time>2026-03-28T11:25:28.811Z</time></trkpt><trkpt lat="45.4496117" lon="10.7704141"><ele>115.0</ele><time>2026-03-28T11:25:29.81Z</time></trkpt><trkpt lat="45.4497385" lon="10.7704262"><ele>115.0</ele><time>2026-03-28T11:25:30.81Z</time></trkpt><trkpt lat="45.4498689" lon="10.7704445"><ele>115.0</ele><time>2026-03-28T11:25:31.811Z</time></trkpt><trkpt lat="45.4500008" lon="10.7704627"><ele>115.0</ele><time>2026-03-28T11:25:32.811Z</time></trkpt><trkpt lat="45.4501366" lon="10.770484"><ele>115.0</ele><time>2026-03-28T11:25:33.812Z</time></trkpt><trkpt lat="45.4502745" lon="10.7705032"><ele>115.0</ele><time>2026-03-28T11:25:34.811Z</time></trkpt><trkpt lat="45.4504165" lon="10.770522"><ele>115.0</ele><time>2026-03-28T11:25:35.811Z</time></trkpt><trkpt lat="45.4505613" lon="10.7705421"><ele>115.0</ele><time>2026-03-28T11:25:36.811Z</time></trkpt><trkpt lat="45.4507058" lon="10.7705636"><ele>115.25</ele><time>2026-03-28T11:25:37.811Z</time></trkpt><trkpt lat="45.4508493" lon="10.7705839"><ele>115.5</ele><time>2026-03-28T11:25:38.81Z</time></trkpt><trkpt lat="45.4509921" lon="10.7706065"><ele>115.75</ele><time>2026-03-28T11:25:39.811Z</time></trkpt><trkpt lat="45.4511335" lon="10.770631"><ele>116.0</ele><time>2026-03-28T11:25:40.811Z</time></trkpt><trkpt lat="45.4512752" lon="10.7706564"><ele>116.25</ele><time>2026-03-28T11:25:41.811Z</time></trkpt><trkpt lat="45.4514174" lon="10.7706769"><ele>116.5</ele><time>2026-03-28T11:25:42.811Z</time></trkpt><trkpt lat="45.4515574" lon="10.7707025"><ele>116.75</ele><time>2026-03-28T11:25:43.81Z</time></trkpt><trkpt lat="45.4516983" lon="10.7707313"><ele>117.0</ele><time>2026-03-28T11:25:44.81Z</time></trkpt><trkpt lat="45.4518393" lon="10.7707632"><ele>117.0</ele><time>2026-03-28T11:25:45.812Z</time></trkpt><trkpt lat="45.4519785" lon="10.7707915"><ele>117.0</ele><time>2026-03-28T11:25:46.811Z</time></trkpt><trkpt lat="45.452114" lon="10.7708168"><ele>117.0</ele><time>2026-03-28T11:25:47.811Z</time></trkpt><trkpt lat="45.4522474" lon="10.7708405"><ele>117.0</ele><time>2026-03-28T11:25:48.811Z</time></trkpt><trkpt lat="45.45238" lon="10.7708597"><ele>117.5</ele><time>2026-03-28T11:25:49.81Z</time></trkpt><trkpt lat="45.4525107" lon="10.7708805"><ele>118.0</ele><time>2026-03-28T11:25:50.811Z</time></trkpt><trkpt lat="45.452635" lon="10.7708979"><ele>118.5</ele><time>2026-03-28T11:25:51.811Z</time></trkpt><trkpt lat="45.4527651" lon="10.7709172"><ele>119.0</ele><time>2026-03-28T11:25:52.811Z</time></trkpt><trkpt lat="45.4528936" lon="10.7709418"><ele>118.75</ele><time>2026-03-28T11:25:53.81Z</time></trkpt><trkpt lat="45.453024" lon="10.7709731"><ele>118.5</ele><time>2026-03-28T11:25:54.812Z</time></trkpt><trkpt lat="45.4531575" lon="10.7709915"><ele>118.25</ele><time>2026-03-28T11:25:55.811Z</time></trkpt><trkpt lat="45.4532907" lon="10.77102"><ele>118.0</ele><time>2026-03-28T11:25:56.811Z</time></trkpt><trkpt lat="45.4534292" lon="10.7710463"><ele>118.0</ele><time>2026-03-28T11:25:57.81Z</time></trkpt><trkpt lat="45.4535704" lon="10.7710692"><ele>118.0</ele><time>2026-03-28T11:25:58.812Z</time></trkpt><trkpt lat="45.4537135" lon="10.7710875"><ele>118.0</ele><time>2026-03-28T11:25:59.81Z</time></trkpt><trkpt lat="45.4538581" lon="10.7711089"><ele>118.0</ele><time>2026-03-28T11:26:00.811Z</time></trkpt><trkpt lat="45.4540026" lon="10.7711338"><ele>117.75</ele><time>2026-03-28T11:26:01.811Z</time></trkpt><trkpt lat="45.4541454" lon="10.7711571"><ele>117.5</ele><time>2026-03-28T11:26:02.81Z</time></trkpt><trkpt lat="45.4542873" lon="10.7711796"><ele>117.25</ele><time>2026-03-28T11:26:03.811Z</time></trkpt><trkpt lat="45.4544274" lon="10.771205"><ele>117.0</ele><time>2026-03-28T11:26:04.811Z</time></trkpt><trkpt lat="45.4545658" lon="10.7712293"><ele>117.6</ele><time>2026-03-28T11:26:05.812Z</time></trkpt><trkpt lat="45.4546896" lon="10.771245"><ele>118.19999999999999</ele><time>2026-03-28T11:26:06.812Z</time></trkpt><trkpt lat="45.4548013" lon="10.7712568"><ele>118.8</ele><time>2026-03-28T11:26:07.812Z</time></trkpt><trkpt lat="45.4548919" lon="10.7712686"><ele>119.4</ele><time>2026-03-28T11:26:08.812Z</time></trkpt><trkpt lat="45.4549608" lon="10.7712749"><ele>120.0</ele><time>2026-03-28T11:26:09.811Z</time></trkpt><trkpt lat="45.4550298" lon="10.7713153"><ele>120.0</ele><time>2026-03-28T11:26:11.811Z</time></trkpt><trkpt lat="45.4550454" lon="10.7714369"><ele>120.0</ele><time>2026-03-28T11:26:13.81Z</time></trkpt><trkpt lat="45.4550446" lon="10.7715971"><ele>120.0</ele><time>2026-03-28T11:26:15.812Z</time></trkpt><trkpt lat="45.4551531" lon="10.771708"><ele>120.0</ele><time>2026-03-28T11:26:17.811Z</time></trkpt><trkpt lat="45.4552476" lon="10.7717268"><ele>120.0</ele><time>2026-03-28T11:26:18.81Z</time></trkpt><trkpt lat="45.455358" lon="10.7717432"><ele>120.0</ele><time>2026-03-28T11:26:19.81Z</time></trkpt><trkpt lat="45.4554797" lon="10.7717673"><ele>120.0</ele><time>2026-03-28T11:26:20.81Z</time></trkpt><trkpt lat="45.455607" lon="10.7718011"><ele>120.0</ele><time>2026-03-28T11:26:21.811Z</time></trkpt><trkpt lat="45.4557368" lon="10.7718365"><ele>120.0</ele><time>2026-03-28T11:26:22.811Z</time></trkpt><trkpt lat="45.4558676" lon="10.7718648"><ele>120.25</ele><time>2026-03-28T11:26:23.811Z</time></trkpt><trkpt lat="45.4559997" lon="10.7718981"><ele>120.5</ele><time>2026-03-28T11:26:24.81Z</time></trkpt><trkpt lat="45.4561268" lon="10.7719268"><ele>120.75</ele><time>2026-03-28T11:26:25.811Z</time></trkpt><trkpt lat="45.4562552" lon="10.7719545"><ele>121.0</ele><time>2026-03-28T11:26:26.811Z</time></trkpt><trkpt lat="45.4563843" lon="10.7719853"><ele>121.0</ele><time>2026-03-28T11:26:27.81Z</time></trkpt><trkpt lat="45.4565098" lon="10.7720147"><ele>121.0</ele><time>2026-03-28T11:26:28.812Z</time></trkpt><trkpt lat="45.4566386" lon="10.7720384"><ele>121.0</ele><time>2026-03-28T11:26:29.812Z</time></trkpt><trkpt lat="45.4567719" lon="10.7720526"><ele>121.0</ele><time>2026-03-28T11:26:30.811Z</time></trkpt><trkpt lat="45.4569061" lon="10.7720625"><ele>121.0</ele><time>2026-03-28T11:26:31.812Z</time></trkpt><trkpt lat="45.4570402" lon="10.7720748"><ele>121.0</ele><time>2026-03-28T11:26:32.81Z</time></trkpt><trkpt lat="45.4571769" lon="10.772085"><ele>121.0</ele><time>2026-03-28T11:26:33.81Z</time></trkpt><trkpt lat="45.4573116" lon="10.772092"><ele>121.0</ele><time>2026-03-28T11:26:34.811Z</time></trkpt><trkpt lat="45.4574435" lon="10.7720915"><ele>121.0</ele><time>2026-03-28T11:26:35.812Z</time></trkpt><trkpt lat="45.4575728" lon="10.7720882"><ele>121.0</ele><time>2026-03-28T11:26:36.81Z</time></trkpt><trkpt lat="45.457701" lon="10.7720866"><ele>121.0</ele><time>2026-03-28T11:26:37.81Z</time></trkpt><trkpt lat="45.4578323" lon="10.7720841"><ele>121.0</ele><time>2026-03-28T11:26:38.81Z</time></trkpt><trkpt lat="45.4579679" lon="10.7720827"><ele>121.0</ele><time>2026-03-28T11:26:39.811Z</time></trkpt><trkpt lat="45.458105" lon="10.7720842"><ele>121.0</ele><time>2026-03-28T11:26:40.812Z</time></trkpt><trkpt lat="45.4582406" lon="10.7720848"><ele>121.0</ele><time>2026-03-28T11:26:41.811Z</time></trkpt><trkpt lat="45.4583755" lon="10.7720782"><ele>121.0</ele><time>2026-03-28T11:26:42.811Z</time></trkpt><trkpt lat="45.4585076" lon="10.772065"><ele>121.0</ele><time>2026-03-28T11:26:43.811Z</time></trkpt><trkpt lat="45.4586429" lon="10.7720496"><ele>121.0</ele><time>2026-03-28T11:26:44.81Z</time></trkpt><trkpt lat="45.4587746" lon="10.7720295"><ele>121.0</ele><time>2026-03-28T11:26:45.811Z</time></trkpt><trkpt lat="45.458907" lon="10.7720095"><ele>121.0</ele><time>2026-03-28T11:26:46.811Z</time></trkpt><trkpt lat="45.4590419" lon="10.7719882"><ele>121.0</ele><time>2026-03-28T11:26:47.811Z</time></trkpt><trkpt lat="45.4591726" lon="10.7719619"><ele>121.0</ele><time>2026-03-28T11:26:48.81Z</time></trkpt><trkpt lat="45.4593062" lon="10.7719372"><ele>121.0</ele><time>2026-03-28T11:26:49.811Z</time></trkpt><trkpt lat="45.4594405" lon="10.7719236"><ele>121.0</ele><time>2026-03-28T11:26:50.81Z</time></trkpt><trkpt lat="45.4595719" lon="10.7719253"><ele>121.25</ele><time>2026-03-28T11:26:51.811Z</time></trkpt><trkpt lat="45.4596925" lon="10.7719337"><ele>121.5</ele><time>2026-03-28T11:26:52.811Z</time></trkpt><trkpt lat="45.4598211" lon="10.7719394"><ele>121.75</ele><time>2026-03-28T11:26:53.81Z</time></trkpt><trkpt lat="45.459951" lon="10.7719455"><ele>122.0</ele><time>2026-03-28T11:26:54.811Z</time></trkpt><trkpt lat="45.4600844" lon="10.7719478"><ele>122.0</ele><time>2026-03-28T11:26:55.81Z</time></trkpt><trkpt lat="45.4602201" lon="10.7719475"><ele>122.0</ele><time>2026-03-28T11:26:56.811Z</time></trkpt><trkpt lat="45.4603557" lon="10.7719503"><ele>122.0</ele><time>2026-03-28T11:26:57.81Z</time></trkpt><trkpt lat="45.4604884" lon="10.7719537"><ele>122.0</ele><time>2026-03-28T11:26:58.81Z</time></trkpt><trkpt lat="45.4606163" lon="10.771959"><ele>122.19999999999999</ele><time>2026-03-28T11:26:59.811Z</time></trkpt><trkpt lat="45.4607433" lon="10.7719647"><ele>122.39999999999999</ele><time>2026-03-28T11:27:00.812Z</time></trkpt><trkpt lat="45.4608669" lon="10.7719734"><ele>122.60000000000001</ele><time>2026-03-28T11:27:01.811Z</time></trkpt><trkpt lat="45.4609763" lon="10.7719744"><ele>122.80000000000001</ele><time>2026-03-28T11:27:02.81Z</time></trkpt><trkpt lat="45.4610613" lon="10.7719757"><ele>123.0</ele><time>2026-03-28T11:27:03.811Z</time></trkpt><trkpt lat="45.4611318" lon="10.7719765"><ele>123.0</ele><time>2026-03-28T11:27:04.811Z</time></trkpt><trkpt lat="45.4612089" lon="10.7719901"><ele>123.0</ele><time>2026-03-28T11:27:06.811Z</time></trkpt><trkpt lat="45.461247" lon="10.7720776"><ele>123.0</ele><time>2026-03-28T11:27:09.811Z</time></trkpt><trkpt lat="45.4612506" lon="10.7722265"><ele>123.0</ele><time>2026-03-28T11:27:11.811Z</time></trkpt><trkpt lat="45.4612572" lon="10.7723228"><ele>123.0</ele><time>2026-03-28T11:27:12.81Z</time></trkpt><trkpt lat="45.4612658" lon="10.7724181"><ele>123.0</ele><time>2026-03-28T11:27:13.811Z</time></trkpt><trkpt lat="45.461319" lon="10.7725412"><ele>123.33333333333333</ele><time>2026-03-28T11:27:15.811Z</time></trkpt><trkpt lat="45.4613831" lon="10.77257"><ele>123.66666666666666</ele><time>2026-03-28T11:27:16.811Z</time></trkpt><trkpt lat="45.461464" lon="10.77258"><ele>124.0</ele><time>2026-03-28T11:27:17.811Z</time></trkpt><trkpt lat="45.4615531" lon="10.7725816"><ele>124.33333333333333</ele><time>2026-03-28T11:27:18.811Z</time></trkpt><trkpt lat="45.4616522" lon="10.7725814"><ele>124.66666666666666</ele><time>2026-03-28T11:27:19.812Z</time></trkpt><trkpt lat="45.461757" lon="10.7725812"><ele>125.0</ele><time>2026-03-28T11:27:20.811Z</time></trkpt><trkpt lat="45.4618647" lon="10.7725854"><ele>125.0</ele><time>2026-03-28T11:27:21.811Z</time></trkpt><trkpt lat="45.4619635" lon="10.7725797"><ele>125.0</ele><time>2026-03-28T11:27:22.811Z</time></trkpt><trkpt lat="45.4620584" lon="10.7725738"><ele>125.0</ele><time>2026-03-28T11:27:23.811Z</time></trkpt><trkpt lat="45.4621498" lon="10.7725613"><ele>125.0</ele><time>2026-03-28T11:27:24.811Z</time></trkpt><trkpt lat="45.4622465" lon="10.772531"><ele>125.0</ele><time>2026-03-28T11:27:25.811Z</time></trkpt><trkpt lat="45.4623512" lon="10.7724992"><ele>125.5</ele><time>2026-03-28T11:27:26.811Z</time></trkpt><trkpt lat="45.4624596" lon="10.7724696"><ele>126.0</ele><time>2026-03-28T11:27:27.811Z</time></trkpt><trkpt lat="45.4625744" lon="10.7724393"><ele>126.5</ele><time>2026-03-28T11:27:28.811Z</time></trkpt><trkpt lat="45.4626877" lon="10.7724032"><ele>127.0</ele><time>2026-03-28T11:27:29.811Z</time></trkpt><trkpt lat="45.462803" lon="10.7723752"><ele>127.0</ele><time>2026-03-28T11:27:30.811Z</time></trkpt><trkpt lat="45.462918" lon="10.7723612"><ele>127.0</ele><time>2026-03-28T11:27:31.81Z</time></trkpt><trkpt lat="45.4630428" lon="10.772368"><ele>127.0</ele><time>2026-03-28T11:27:32.81Z</time></trkpt><trkpt lat="45.4631659" lon="10.772396"><ele>127.0</ele><time>2026-03-28T11:27:33.811Z</time></trkpt><trkpt lat="45.463289" lon="10.7724265"><ele>128.0</ele><time>2026-03-28T11:27:34.81Z</time></trkpt><trkpt lat="45.4634135" lon="10.7724474"><ele>129.0</ele><time>2026-03-28T11:27:35.812Z</time></trkpt><trkpt lat="45.4635359" lon="10.7724733"><ele>130.0</ele><time>2026-03-28T11:27:36.81Z</time></trkpt><trkpt lat="45.4636509" lon="10.7725114"><ele>131.0</ele><time>2026-03-28T11:27:37.812Z</time></trkpt><trkpt lat="45.4637655" lon="10.7725689"><ele>131.75</ele><time>2026-03-28T11:27:38.81Z</time></trkpt><trkpt lat="45.4638787" lon="10.7726438"><ele>132.5</ele><time>2026-03-28T11:27:39.81Z</time></trkpt><trkpt lat="45.4639923" lon="10.7727162"><ele>133.25</ele><time>2026-03-28T11:27:40.812Z</time></trkpt><trkpt lat="45.4640963" lon="10.7728034"><ele>134.0</ele><time>2026-03-28T11:27:41.811Z</time></trkpt><trkpt lat="45.4641841" lon="10.772886"><ele>134.6</ele><time>2026-03-28T11:27:42.811Z</time></trkpt><trkpt lat="45.464245" lon="10.772971"><ele>135.2</ele><time>2026-03-28T11:27:43.81Z</time></trkpt><trkpt lat="45.4642898" lon="10.7730459"><ele>135.79999999999998</ele><time>2026-03-28T11:27:44.812Z</time></trkpt><trkpt lat="45.4643314" lon="10.773132"><ele>136.4</ele><time>2026-03-28T11:27:46.811Z</time></trkpt><trkpt lat="45.4643116" lon="10.7732648"><ele>137.0</ele><time>2026-03-28T11:27:49.811Z</time></trkpt><trkpt lat="45.4642257" lon="10.7734067"><ele>137.0</ele><time>2026-03-28T11:27:51.812Z</time></trkpt><trkpt lat="45.4641801" lon="10.7735037"><ele>137.0</ele><time>2026-03-28T11:27:52.811Z</time></trkpt><trkpt lat="45.4641284" lon="10.773608"><ele>137.0</ele><time>2026-03-28T11:27:53.81Z</time></trkpt><trkpt lat="45.4640829" lon="10.7737177"><ele>137.0</ele><time>2026-03-28T11:27:54.81Z</time></trkpt><trkpt lat="45.4640402" lon="10.7738398"><ele>137.0</ele><time>2026-03-28T11:27:55.811Z</time></trkpt><trkpt lat="45.4639895" lon="10.7739632"><ele>137.79999999999998</ele><time>2026-03-28T11:27:56.811Z</time></trkpt><trkpt lat="45.4639323" lon="10.7740761"><ele>138.6</ele><time>2026-03-28T11:27:57.811Z</time></trkpt><trkpt lat="45.4638797" lon="10.7741889"><ele>139.39999999999998</ele><time>2026-03-28T11:27:58.811Z</time></trkpt><trkpt lat="45.4638519" lon="10.7742819"><ele>140.2</ele><time>2026-03-28T11:27:59.81Z</time></trkpt><trkpt lat="45.4638713" lon="10.7744535"><ele>141.0</ele><time>2026-03-28T11:28:01.811Z</time></trkpt><trkpt lat="45.4639088" lon="10.7745299"><ele>141.2</ele><time>2026-03-28T11:28:02.811Z</time></trkpt><trkpt lat="45.4639708" lon="10.7745954"><ele>141.39999999999998</ele><time>2026-03-28T11:28:03.81Z</time></trkpt><trkpt lat="45.4640597" lon="10.7746677"><ele>141.6</ele><time>2026-03-28T11:28:04.811Z</time></trkpt><trkpt lat="45.464148" lon="10.7747673"><ele>141.79999999999998</ele><time>2026-03-28T11:28:05.811Z</time></trkpt><trkpt lat="45.4642392" lon="10.774882"><ele>142.0</ele><time>2026-03-28T11:28:06.81Z</time></trkpt><trkpt lat="45.4643429" lon="10.7750018"><ele>142.0</ele><time>2026-03-28T11:28:07.812Z</time></trkpt><trkpt lat="45.4644379" lon="10.7751123"><ele>142.0</ele><time>2026-03-28T11:28:08.811Z</time></trkpt><trkpt lat="45.46453" lon="10.7752153"><ele>142.0</ele><time>2026-03-28T11:28:09.811Z</time></trkpt><trkpt lat="45.4646239" lon="10.7753157"><ele>142.0</ele><time>2026-03-28T11:28:10.811Z</time></trkpt><trkpt lat="45.4647133" lon="10.7754099"><ele>143.4</ele><time>2026-03-28T11:28:11.812Z</time></trkpt><trkpt lat="45.4648002" lon="10.7754995"><ele>144.79999999999998</ele><time>2026-03-28T11:28:12.811Z</time></trkpt><trkpt lat="45.4648982" lon="10.7755729"><ele>146.2</ele><time>2026-03-28T11:28:13.812Z</time></trkpt><trkpt lat="45.465002" lon="10.7756378"><ele>147.6</ele><time>2026-03-28T11:28:14.811Z</time></trkpt><trkpt lat="45.4651011" lon="10.7757135"><ele>149.0</ele><time>2026-03-28T11:28:15.81Z</time></trkpt><trkpt lat="45.4652005" lon="10.7758015"><ele>149.0</ele><time>2026-03-28T11:28:16.812Z</time></trkpt><trkpt lat="45.4652985" lon="10.7758922"><ele>149.0</ele><time>2026-03-28T11:28:17.812Z</time></trkpt><trkpt lat="45.4653943" lon="10.7759789"><ele>149.0</ele><time>2026-03-28T11:28:18.811Z</time></trkpt><trkpt lat="45.4654945" lon="10.7760494"><ele>149.0</ele><time>2026-03-28T11:28:19.811Z</time></trkpt><trkpt lat="45.4655922" lon="10.776119"><ele>149.4</ele><time>2026-03-28T11:28:20.811Z</time></trkpt><trkpt lat="45.4656961" lon="10.7761824"><ele>149.8</ele><time>2026-03-28T11:28:21.811Z</time></trkpt><trkpt lat="45.4657898" lon="10.7762407"><ele>150.2</ele><time>2026-03-28T11:28:22.811Z</time></trkpt><trkpt lat="45.4658901" lon="10.77628"><ele>150.6</ele><time>2026-03-28T11:28:23.81Z</time></trkpt><trkpt lat="45.4659959" lon="10.776308"><ele>151.0</ele><time>2026-03-28T11:28:24.811Z</time></trkpt><trkpt lat="45.4661047" lon="10.7763489"><ele>151.0</ele><time>2026-03-28T11:28:25.811Z</time></trkpt><trkpt lat="45.4662121" lon="10.7764044"><ele>151.0</ele><time>2026-03-28T11:28:26.812Z</time></trkpt><trkpt lat="45.4663215" lon="10.7764573"><ele>151.0</ele><time>2026-03-28T11:28:27.81Z</time></trkpt><trkpt lat="45.4664296" lon="10.7765178"><ele>151.0</ele><time>2026-03-28T11:28:28.81Z</time></trkpt><trkpt lat="45.4665387" lon="10.7765756"><ele>151.75</ele><time>2026-03-28T11:28:29.81Z</time></trkpt><trkpt lat="45.4666518" lon="10.776632"><ele>152.5</ele><time>2026-03-28T11:28:30.81Z</time></trkpt><trkpt lat="45.4667627" lon="10.7766939"><ele>153.25</ele><time>2026-03-28T11:28:31.811Z</time></trkpt><trkpt lat="45.4668723" lon="10.7767565"><ele>154.0</ele><time>2026-03-28T11:28:32.811Z</time></trkpt><trkpt lat="45.466987" lon="10.776819"><ele>153.5</ele><time>2026-03-28T11:28:33.811Z</time></trkpt><trkpt lat="45.4670982" lon="10.7768757"><ele>153.0</ele><time>2026-03-28T11:28:34.811Z</time></trkpt><trkpt lat="45.4672052" lon="10.7769307"><ele>152.5</ele><time>2026-03-28T11:28:35.811Z</time></trkpt><trkpt lat="45.4673135" lon="10.7769823"><ele>152.0</ele><time>2026-03-28T11:28:36.81Z</time></trkpt><trkpt lat="45.4674173" lon="10.7770396"><ele>153.2</ele><time>2026-03-28T11:28:37.81Z</time></trkpt><trkpt lat="45.467525" lon="10.7770945"><ele>154.39999999999998</ele><time>2026-03-28T11:28:38.811Z</time></trkpt><trkpt lat="45.4676246" lon="10.7771466"><ele>155.60000000000002</ele><time>2026-03-28T11:28:39.811Z</time></trkpt><trkpt lat="45.4677151" lon="10.7771984"><ele>156.8</ele><time>2026-03-28T11:28:40.812Z</time></trkpt><trkpt lat="45.4678011" lon="10.7772623"><ele>158.0</ele><time>2026-03-28T11:28:41.812Z</time></trkpt><trkpt lat="45.4678928" lon="10.7773337"><ele>157.5</ele><time>2026-03-28T11:28:42.811Z</time></trkpt><trkpt lat="45.4679968" lon="10.777394"><ele>157.0</ele><time>2026-03-28T11:28:43.811Z</time></trkpt><trkpt lat="45.4681156" lon="10.7774544"><ele>156.5</ele><time>2026-03-28T11:28:44.811Z</time></trkpt><trkpt lat="45.4682384" lon="10.7775231"><ele>156.0</ele><time>2026-03-28T11:28:45.811Z</time></trkpt><trkpt lat="45.4683631" lon="10.7775839"><ele>156.0</ele><time>2026-03-28T11:28:46.811Z</time></trkpt><trkpt lat="45.4684776" lon="10.7776471"><ele>156.0</ele><time>2026-03-28T11:28:47.811Z</time></trkpt><trkpt lat="45.468601" lon="10.7777151"><ele>156.0</ele><time>2026-03-28T11:28:48.811Z</time></trkpt><trkpt lat="45.4687204" lon="10.7777849"><ele>156.0</ele><time>2026-03-28T11:28:49.811Z</time></trkpt><trkpt lat="45.4688388" lon="10.7778605"><ele>155.6</ele><time>2026-03-28T11:28:50.811Z</time></trkpt><trkpt lat="45.468944" lon="10.7779294"><ele>155.2</ele><time>2026-03-28T11:28:51.811Z</time></trkpt><trkpt lat="45.4690414" lon="10.7779843"><ele>154.8</ele><time>2026-03-28T11:28:52.811Z</time></trkpt><trkpt lat="45.4691212" lon="10.7780359"><ele>154.4</ele><time>2026-03-28T11:28:53.811Z</time></trkpt><trkpt lat="45.4691826" lon="10.7780765"><ele>154.0</ele><time>2026-03-28T11:28:54.811Z</time></trkpt><trkpt lat="45.4692285" lon="10.7781876"><ele>154.0</ele><time>2026-03-28T11:28:56.812Z</time></trkpt><trkpt lat="45.4691908" lon="10.778311"><ele>154.0</ele><time>2026-03-28T11:28:58.811Z</time></trkpt><trkpt lat="45.469145" lon="10.7783854"><ele>154.0</ele><time>2026-03-28T11:28:59.811Z</time></trkpt><trkpt lat="45.4690957" lon="10.7784757"><ele>154.0</ele><time>2026-03-28T11:29:00.811Z</time></trkpt><trkpt lat="45.4690377" lon="10.7785737"><ele>154.0</ele><time>2026-03-28T11:29:01.811Z</time></trkpt><trkpt lat="45.4689708" lon="10.7786707"><ele>154.0</ele><time>2026-03-28T11:29:02.812Z</time></trkpt><trkpt lat="45.4688995" lon="10.7787804"><ele>154.0</ele><time>2026-03-28T11:29:03.811Z</time></trkpt><trkpt lat="45.468825" lon="10.7788977"><ele>154.0</ele><time>2026-03-28T11:29:04.81Z</time></trkpt><trkpt lat="45.4687412" lon="10.7790206"><ele>154.0</ele><time>2026-03-28T11:29:05.81Z</time></trkpt><trkpt lat="45.468649" lon="10.7791521"><ele>154.0</ele><time>2026-03-28T11:29:06.81Z</time></trkpt><trkpt lat="45.4685553" lon="10.77929"><ele>153.5</ele><time>2026-03-28T11:29:07.81Z</time></trkpt><trkpt lat="45.4684517" lon="10.7794271"><ele>153.0</ele><time>2026-03-28T11:29:08.812Z</time></trkpt><trkpt lat="45.4683443" lon="10.7795588"><ele>152.5</ele><time>2026-03-28T11:29:09.812Z</time></trkpt><trkpt lat="45.4682335" lon="10.7796838"><ele>152.0</ele><time>2026-03-28T11:29:10.81Z</time></trkpt><trkpt lat="45.4681128" lon="10.779784"><ele>152.0</ele><time>2026-03-28T11:29:11.81Z</time></trkpt><trkpt lat="45.4679945" lon="10.7798645"><ele>152.0</ele><time>2026-03-28T11:29:12.811Z</time></trkpt><trkpt lat="45.4678792" lon="10.7799521"><ele>152.0</ele><time>2026-03-28T11:29:13.81Z</time></trkpt><trkpt lat="45.467771" lon="10.7800655"><ele>152.0</ele><time>2026-03-28T11:29:14.81Z</time></trkpt><trkpt lat="45.4676665" lon="10.7801982"><ele>154.0</ele><time>2026-03-28T11:29:15.81Z</time></trkpt><trkpt lat="45.4675662" lon="10.7803608"><ele>156.0</ele><time>2026-03-28T11:29:16.811Z</time></trkpt><trkpt lat="45.4674703" lon="10.7805291"><ele>158.0</ele><time>2026-03-28T11:29:17.812Z</time></trkpt><trkpt lat="45.4673764" lon="10.7807056"><ele>158.0</ele><time>2026-03-28T11:29:18.812Z</time></trkpt><trkpt lat="45.467291" lon="10.7808763"><ele>158.0</ele><time>2026-03-28T11:29:19.811Z</time></trkpt><trkpt lat="45.4672116" lon="10.7810209"><ele>158.0</ele><time>2026-03-28T11:29:20.811Z</time></trkpt><trkpt lat="45.4671339" lon="10.7811684"><ele>158.0</ele><time>2026-03-28T11:29:21.812Z</time></trkpt><trkpt lat="45.4670605" lon="10.7813259"><ele>157.0</ele><time>2026-03-28T11:29:22.811Z</time></trkpt><trkpt lat="45.4669917" lon="10.7814956"><ele>156.0</ele><time>2026-03-28T11:29:23.811Z</time></trkpt><trkpt lat="45.4669306" lon="10.7816771"><ele>155.0</ele><time>2026-03-28T11:29:24.81Z</time></trkpt><trkpt lat="45.4668833" lon="10.7818694"><ele>154.0</ele><time>2026-03-28T11:29:25.811Z</time></trkpt><trkpt lat="45.4668503" lon="10.7820683"><ele>154.0</ele><time>2026-03-28T11:29:26.811Z</time></trkpt><trkpt lat="45.4668307" lon="10.7822637"><ele>154.0</ele><time>2026-03-28T11:29:27.81Z</time></trkpt><trkpt lat="45.4668101" lon="10.7824532"><ele>154.0</ele><time>2026-03-28T11:29:28.811Z</time></trkpt><trkpt lat="45.4667863" lon="10.7826321"><ele>154.0</ele><time>2026-03-28T11:29:29.81Z</time></trkpt><trkpt lat="45.4667574" lon="10.78281"><ele>153.75</ele><time>2026-03-28T11:29:30.81Z</time></trkpt><trkpt lat="45.466726" lon="10.7829836"><ele>153.5</ele><time>2026-03-28T11:29:31.811Z</time></trkpt><trkpt lat="45.4666883" lon="10.7831568"><ele>153.25</ele><time>2026-03-28T11:29:32.811Z</time></trkpt><trkpt lat="45.4666448" lon="10.7833304"><ele>153.0</ele><time>2026-03-28T11:29:33.81Z</time></trkpt><trkpt lat="45.466607" lon="10.7835049"><ele>152.75</ele><time>2026-03-28T11:29:34.811Z</time></trkpt><trkpt lat="45.4665826" lon="10.7836927"><ele>152.5</ele><time>2026-03-28T11:29:35.812Z</time></trkpt><trkpt lat="45.4665778" lon="10.7838856"><ele>152.25</ele><time>2026-03-28T11:29:36.81Z</time></trkpt><trkpt lat="45.4665776" lon="10.7840632"><ele>152.0</ele><time>2026-03-28T11:29:37.812Z</time></trkpt><trkpt lat="45.4665678" lon="10.7842233"><ele>152.5</ele><time>2026-03-28T11:29:38.811Z</time></trkpt><trkpt lat="45.4665548" lon="10.7843604"><ele>153.0</ele><time>2026-03-28T11:29:39.811Z</time></trkpt><trkpt lat="45.4665409" lon="10.7844665"><ele>153.5</ele><time>2026-03-28T11:29:40.81Z</time></trkpt><trkpt lat="45.4665636" lon="10.7845804"><ele>154.0</ele><time>2026-03-28T11:29:42.812Z</time></trkpt><trkpt lat="45.4666454" lon="10.7846052"><ele>154.5</ele><time>2026-03-28T11:29:44.811Z</time></trkpt><trkpt lat="45.4667126" lon="10.7845849"><ele>155.0</ele><time>2026-03-28T11:29:45.81Z</time></trkpt><trkpt lat="45.466813" lon="10.7845705"><ele>155.0</ele><time>2026-03-28T11:29:47.811Z</time></trkpt><trkpt lat="45.4668759" lon="10.7845782"><ele>155.0</ele><time>2026-03-28T11:29:48.812Z</time></trkpt><trkpt lat="45.4669427" lon="10.7845992"><ele>155.0</ele><time>2026-03-28T11:29:49.811Z</time></trkpt><trkpt lat="45.4670094" lon="10.7846404"><ele>155.0</ele><time>2026-03-28T11:29:50.811Z</time></trkpt><trkpt lat="45.4670752" lon="10.7846863"><ele>155.0</ele><time>2026-03-28T11:29:51.81Z</time></trkpt><trkpt lat="45.4671431" lon="10.7847018"><ele>155.0</ele><time>2026-03-28T11:29:52.811Z</time></trkpt><trkpt lat="45.4672527" lon="10.7846379"><ele>155.0</ele><time>2026-03-28T11:29:54.81Z</time></trkpt><trkpt lat="45.4673116" lon="10.7845733"><ele>155.0</ele><time>2026-03-28T11:29:55.811Z</time></trkpt><trkpt lat="45.4673911" lon="10.7845003"><ele>155.0</ele><time>2026-03-28T11:29:56.812Z</time></trkpt><trkpt lat="45.467487" lon="10.7844404"><ele>155.0</ele><time>2026-03-28T11:29:57.811Z</time></trkpt><trkpt lat="45.4675969" lon="10.7844024"><ele>155.0</ele><time>2026-03-28T11:29:58.811Z</time></trkpt><trkpt lat="45.4677116" lon="10.78439"><ele>155.0</ele><time>2026-03-28T11:29:59.81Z</time></trkpt><trkpt lat="45.4678354" lon="10.7843931"><ele>155.0</ele><time>2026-03-28T11:30:00.81Z</time></trkpt><trkpt lat="45.4679629" lon="10.7843926"><ele>155.0</ele><time>2026-03-28T11:30:01.811Z</time></trkpt><trkpt lat="45.4680884" lon="10.7843773"><ele>155.0</ele><time>2026-03-28T11:30:02.811Z</time></trkpt><trkpt lat="45.4682009" lon="10.7843551"><ele>154.6</ele><time>2026-03-28T11:30:03.811Z</time></trkpt><trkpt lat="45.4683078" lon="10.7843212"><ele>154.2</ele><time>2026-03-28T11:30:04.811Z</time></trkpt><trkpt lat="45.4684044" lon="10.7842693"><ele>153.8</ele><time>2026-03-28T11:30:05.81Z</time></trkpt><trkpt lat="45.4684907" lon="10.7842"><ele>153.4</ele><time>2026-03-28T11:30:06.811Z</time></trkpt><trkpt lat="45.4685763" lon="10.7841303"><ele>153.0</ele><time>2026-03-28T11:30:07.811Z</time></trkpt><trkpt lat="45.4686698" lon="10.7840639"><ele>152.0</ele><time>2026-03-28T11:30:08.811Z</time></trkpt><trkpt lat="45.4687775" lon="10.7840133"><ele>151.0</ele><time>2026-03-28T11:30:09.81Z</time></trkpt><trkpt lat="45.4689026" lon="10.7839702"><ele>150.0</ele><time>2026-03-28T11:30:10.812Z</time></trkpt><trkpt lat="45.4690362" lon="10.783927"><ele>149.0</ele><time>2026-03-28T11:30:11.811Z</time></trkpt><trkpt lat="45.4691737" lon="10.783877"><ele>149.0</ele><time>2026-03-28T11:30:12.811Z</time></trkpt><trkpt lat="45.4693091" lon="10.7838317"><ele>149.0</ele><time>2026-03-28T11:30:13.811Z</time></trkpt><trkpt lat="45.4694472" lon="10.7837972"><ele>149.0</ele><time>2026-03-28T11:30:14.811Z</time></trkpt><trkpt lat="45.4695862" lon="10.7837766"><ele>149.0</ele><time>2026-03-28T11:30:15.812Z</time></trkpt><trkpt lat="45.4697198" lon="10.7837677"><ele>148.25</ele><time>2026-03-28T11:30:16.812Z</time></trkpt><trkpt lat="45.4698566" lon="10.7837699"><ele>147.5</ele><time>2026-03-28T11:30:17.811Z</time></trkpt><trkpt lat="45.4699944" lon="10.7837868"><ele>146.75</ele><time>2026-03-28T11:30:18.811Z</time></trkpt><trkpt lat="45.4701351" lon="10.7838154"><ele>146.0</ele><time>2026-03-28T11:30:19.81Z</time></trkpt><trkpt lat="45.4702769" lon="10.7838454"><ele>146.0</ele><time>2026-03-28T11:30:20.811Z</time></trkpt><trkpt lat="45.4704206" lon="10.7838709"><ele>146.0</ele><time>2026-03-28T11:30:21.811Z</time></trkpt><trkpt lat="45.470564" lon="10.7838849"><ele>146.0</ele><time>2026-03-28T11:30:22.811Z</time></trkpt><trkpt lat="45.4707072" lon="10.7838778"><ele>146.0</ele><time>2026-03-28T11:30:23.812Z</time></trkpt><trkpt lat="45.4708522" lon="10.78386"><ele>145.25</ele><time>2026-03-28T11:30:24.811Z</time></trkpt><trkpt lat="45.4709941" lon="10.7838317"><ele>144.5</ele><time>2026-03-28T11:30:25.811Z</time></trkpt><trkpt lat="45.4711429" lon="10.7837946"><ele>143.75</ele><time>2026-03-28T11:30:26.811Z</time></trkpt><trkpt lat="45.4712878" lon="10.7837511"><ele>143.0</ele><time>2026-03-28T11:30:27.811Z</time></trkpt><trkpt lat="45.4714343" lon="10.783708"><ele>142.25</ele><time>2026-03-28T11:30:28.81Z</time></trkpt><trkpt lat="45.4715776" lon="10.783667"><ele>141.5</ele><time>2026-03-28T11:30:29.811Z</time></trkpt><trkpt lat="45.4717226" lon="10.7836261"><ele>140.75</ele><time>2026-03-28T11:30:30.811Z</time></trkpt><trkpt lat="45.4718662" lon="10.7835855"><ele>140.0</ele><time>2026-03-28T11:30:31.811Z</time></trkpt><trkpt lat="45.4720087" lon="10.783551"><ele>139.75</ele><time>2026-03-28T11:30:32.81Z</time></trkpt><trkpt lat="45.4721504" lon="10.7835191"><ele>139.5</ele><time>2026-03-28T11:30:33.81Z</time></trkpt><trkpt lat="45.4722937" lon="10.7834897"><ele>139.25</ele><time>2026-03-28T11:30:34.81Z</time></trkpt><trkpt lat="45.4724379" lon="10.7834593"><ele>139.0</ele><time>2026-03-28T11:30:35.811Z</time></trkpt><trkpt lat="45.4725861" lon="10.7834317"><ele>139.0</ele><time>2026-03-28T11:30:36.81Z</time></trkpt><trkpt lat="45.472737" lon="10.7834103"><ele>139.0</ele><time>2026-03-28T11:30:37.811Z</time></trkpt><trkpt lat="45.4728722" lon="10.7833964"><ele>139.0</ele><time>2026-03-28T11:30:38.811Z</time></trkpt><trkpt lat="45.4730009" lon="10.7833921"><ele>139.0</ele><time>2026-03-28T11:30:39.811Z</time></trkpt><trkpt lat="45.4731145" lon="10.7833845"><ele>139.0</ele><time>2026-03-28T11:30:40.812Z</time></trkpt><trkpt lat="45.473212" lon="10.7833804"><ele>139.0</ele><time>2026-03-28T11:30:41.81Z</time></trkpt><trkpt lat="45.4732937" lon="10.783383"><ele>139.0</ele><time>2026-03-28T11:30:42.81Z</time></trkpt><trkpt lat="45.4734003" lon="10.7833858"><ele>139.0</ele><time>2026-03-28T11:30:44.81Z</time></trkpt><trkpt lat="45.473476" lon="10.7834111"><ele>139.0</ele><time>2026-03-28T11:30:46.811Z</time></trkpt><trkpt lat="45.4735884" lon="10.783453"><ele>139.0</ele><time>2026-03-28T11:30:48.811Z</time></trkpt><trkpt lat="45.4736579" lon="10.7834526"><ele>139.0</ele><time>2026-03-28T11:30:49.811Z</time></trkpt><trkpt lat="45.4737383" lon="10.7834502"><ele>139.0</ele><time>2026-03-28T11:30:50.812Z</time></trkpt><trkpt lat="45.4738224" lon="10.7834336"><ele>139.0</ele><time>2026-03-28T11:30:51.811Z</time></trkpt><trkpt lat="45.4739095" lon="10.7833955"><ele>139.0</ele><time>2026-03-28T11:30:52.81Z</time></trkpt><trkpt lat="45.4739976" lon="10.7833486"><ele>139.0</ele><time>2026-03-28T11:30:53.81Z</time></trkpt><trkpt lat="45.4740884" lon="10.7833054"><ele>139.2</ele><time>2026-03-28T11:30:54.812Z</time></trkpt><trkpt lat="45.4741824" lon="10.7832671"><ele>139.4</ele><time>2026-03-28T11:30:55.811Z</time></trkpt><trkpt lat="45.4742823" lon="10.7832347"><ele>139.6</ele><time>2026-03-28T11:30:56.811Z</time></trkpt><trkpt lat="45.4743858" lon="10.7831927"><ele>139.8</ele><time>2026-03-28T11:30:57.812Z</time></trkpt><trkpt lat="45.4745006" lon="10.7831516"><ele>140.0</ele><time>2026-03-28T11:30:58.811Z</time></trkpt><trkpt lat="45.4746177" lon="10.7831038"><ele>140.0</ele><time>2026-03-28T11:30:59.811Z</time></trkpt><trkpt lat="45.4747375" lon="10.7830525"><ele>140.0</ele><time>2026-03-28T11:31:00.811Z</time></trkpt><trkpt lat="45.4748515" lon="10.7829886"><ele>140.0</ele><time>2026-03-28T11:31:01.811Z</time></trkpt><trkpt lat="45.4749626" lon="10.7829055"><ele>140.0</ele><time>2026-03-28T11:31:02.811Z</time></trkpt><trkpt lat="45.4750691" lon="10.782811"><ele>140.0</ele><time>2026-03-28T11:31:03.811Z</time></trkpt><trkpt lat="45.4751756" lon="10.7827115"><ele>140.0</ele><time>2026-03-28T11:31:04.811Z</time></trkpt><trkpt lat="45.4752818" lon="10.782619"><ele>140.0</ele><time>2026-03-28T11:31:05.811Z</time></trkpt><trkpt lat="45.4753854" lon="10.7825283"><ele>140.0</ele><time>2026-03-28T11:31:06.812Z</time></trkpt><trkpt lat="45.4754854" lon="10.7824401"><ele>139.5</ele><time>2026-03-28T11:31:07.811Z</time></trkpt><trkpt lat="45.4755809" lon="10.7823421"><ele>139.0</ele><time>2026-03-28T11:31:08.811Z</time></trkpt><trkpt lat="45.4756711" lon="10.7822457"><ele>138.5</ele><time>2026-03-28T11:31:09.811Z</time></trkpt><trkpt lat="45.4757624" lon="10.7821425"><ele>138.0</ele><time>2026-03-28T11:31:10.812Z</time></trkpt><trkpt lat="45.475857" lon="10.7820398"><ele>138.0</ele><time>2026-03-28T11:31:11.812Z</time></trkpt><trkpt lat="45.475944" lon="10.7819198"><ele>138.0</ele><time>2026-03-28T11:31:12.811Z</time></trkpt><trkpt lat="45.4760227" lon="10.7817902"><ele>138.0</ele><time>2026-03-28T11:31:13.81Z</time></trkpt><trkpt lat="45.476101" lon="10.7816606"><ele>138.0</ele><time>2026-03-28T11:31:14.811Z</time></trkpt><trkpt lat="45.4761827" lon="10.7815442"><ele>137.0</ele><time>2026-03-28T11:31:15.812Z</time></trkpt><trkpt lat="45.4762815" lon="10.781437"><ele>136.0</ele><time>2026-03-28T11:31:16.811Z</time></trkpt><trkpt lat="45.4763957" lon="10.7813395"><ele>135.0</ele><time>2026-03-28T11:31:17.811Z</time></trkpt><trkpt lat="45.4765041" lon="10.7812582"><ele>134.0</ele><time>2026-03-28T11:31:18.81Z</time></trkpt><trkpt lat="45.4765999" lon="10.7811889"><ele>134.0</ele><time>2026-03-28T11:31:19.811Z</time></trkpt><trkpt lat="45.4766946" lon="10.781127"><ele>134.0</ele><time>2026-03-28T11:31:20.811Z</time></trkpt><trkpt lat="45.476779" lon="10.7810747"><ele>134.0</ele><time>2026-03-28T11:31:21.811Z</time></trkpt><trkpt lat="45.4768662" lon="10.7809862"><ele>134.0</ele><time>2026-03-28T11:31:23.812Z</time></trkpt><trkpt lat="45.4768686" lon="10.7808073"><ele>134.0</ele><time>2026-03-28T11:31:25.812Z</time></trkpt><trkpt lat="45.4768638" lon="10.7806684"><ele>134.5</ele><time>2026-03-28T11:31:26.812Z</time></trkpt><trkpt lat="45.4768633" lon="10.7805035"><ele>135.0</ele><time>2026-03-28T11:31:27.811Z</time></trkpt><trkpt lat="45.4768595" lon="10.7803277"><ele>135.5</ele><time>2026-03-28T11:31:28.811Z</time></trkpt><trkpt lat="45.4768572" lon="10.7801495"><ele>136.0</ele><time>2026-03-28T11:31:29.812Z</time></trkpt><trkpt lat="45.4768616" lon="10.7799599"><ele>136.5</ele><time>2026-03-28T11:31:30.811Z</time></trkpt><trkpt lat="45.4768636" lon="10.7797651"><ele>137.0</ele><time>2026-03-28T11:31:31.812Z</time></trkpt><trkpt lat="45.4768603" lon="10.7795627"><ele>137.5</ele><time>2026-03-28T11:31:32.811Z</time></trkpt><trkpt lat="45.4768582" lon="10.7793643"><ele>138.0</ele><time>2026-03-28T11:31:33.811Z</time></trkpt><trkpt lat="45.4768567" lon="10.7791603"><ele>138.25</ele><time>2026-03-28T11:31:34.812Z</time></trkpt><trkpt lat="45.4768528" lon="10.7789589"><ele>138.5</ele><time>2026-03-28T11:31:35.81Z</time></trkpt><trkpt lat="45.4768499" lon="10.7787629"><ele>138.75</ele><time>2026-03-28T11:31:36.811Z</time></trkpt><trkpt lat="45.4768475" lon="10.7785649"><ele>139.0</ele><time>2026-03-28T11:31:37.81Z</time></trkpt><trkpt lat="45.4768437" lon="10.7783739"><ele>138.25</ele><time>2026-03-28T11:31:38.81Z</time></trkpt><trkpt lat="45.4768428" lon="10.7781857"><ele>137.5</ele><time>2026-03-28T11:31:39.811Z</time></trkpt><trkpt lat="45.4768393" lon="10.7780079"><ele>136.75</ele><time>2026-03-28T11:31:40.811Z</time></trkpt><trkpt lat="45.4768359" lon="10.7778385"><ele>136.0</ele><time>2026-03-28T11:31:41.811Z</time></trkpt><trkpt lat="45.4768265" lon="10.7776723"><ele>135.8</ele><time>2026-03-28T11:31:42.811Z</time></trkpt><trkpt lat="45.4768132" lon="10.7775201"><ele>135.6</ele><time>2026-03-28T11:31:43.81Z</time></trkpt><trkpt lat="45.4768135" lon="10.7773848"><ele>135.4</ele><time>2026-03-28T11:31:44.812Z</time></trkpt><trkpt lat="45.4768342" lon="10.7772635"><ele>135.2</ele><time>2026-03-28T11:31:45.811Z</time></trkpt><trkpt lat="45.4768806" lon="10.777166"><ele>135.0</ele><time>2026-03-28T11:31:46.812Z</time></trkpt><trkpt lat="45.4769479" lon="10.7770978"><ele>135.0</ele><time>2026-03-28T11:31:47.812Z</time></trkpt><trkpt lat="45.4770337" lon="10.7770381"><ele>135.0</ele><time>2026-03-28T11:31:48.811Z</time></trkpt><trkpt lat="45.4771356" lon="10.7769925"><ele>135.0</ele><time>2026-03-28T11:31:49.81Z</time></trkpt><trkpt lat="45.4772502" lon="10.7769497"><ele>135.0</ele><time>2026-03-28T11:31:50.811Z</time></trkpt><trkpt lat="45.4773612" lon="10.7769048"><ele>135.0</ele><time>2026-03-28T11:31:51.811Z</time></trkpt><trkpt lat="45.4774773" lon="10.7768615"><ele>134.6</ele><time>2026-03-28T11:31:52.81Z</time></trkpt><trkpt lat="45.4775807" lon="10.7768132"><ele>134.2</ele><time>2026-03-28T11:31:53.811Z</time></trkpt><trkpt lat="45.4776848" lon="10.7767764"><ele>133.8</ele><time>2026-03-28T11:31:54.81Z</time></trkpt><trkpt lat="45.4777814" lon="10.7767436"><ele>133.4</ele><time>2026-03-28T11:31:55.811Z</time></trkpt><trkpt lat="45.4778836" lon="10.7767414"><ele>133.0</ele><time>2026-03-28T11:31:56.81Z</time></trkpt><trkpt lat="45.4779878" lon="10.7767577"><ele>134.6</ele><time>2026-03-28T11:31:57.811Z</time></trkpt><trkpt lat="45.478089" lon="10.7767795"><ele>136.20000000000002</ele><time>2026-03-28T11:31:58.811Z</time></trkpt><trkpt lat="45.4781957" lon="10.7767977"><ele>137.8</ele><time>2026-03-28T11:31:59.812Z</time></trkpt><trkpt lat="45.478298" lon="10.7767932"><ele>139.4</ele><time>2026-03-28T11:32:00.81Z</time></trkpt><trkpt lat="45.4784065" lon="10.776749"><ele>141.0</ele><time>2026-03-28T11:32:01.811Z</time></trkpt><trkpt lat="45.4784942" lon="10.7767263"><ele>141.0</ele><time>2026-03-28T11:32:02.811Z</time></trkpt><trkpt lat="45.4785787" lon="10.776681"><ele>141.0</ele><time>2026-03-28T11:32:03.811Z</time></trkpt><trkpt lat="45.4786461" lon="10.7765982"><ele>141.0</ele><time>2026-03-28T11:32:04.811Z</time></trkpt><trkpt lat="45.4787039" lon="10.7764967"><ele>141.0</ele><time>2026-03-28T11:32:05.811Z</time></trkpt><trkpt lat="45.4787354" lon="10.7763758"><ele>141.0</ele><time>2026-03-28T11:32:06.812Z</time></trkpt><trkpt lat="45.4787379" lon="10.7762505"><ele>141.0</ele><time>2026-03-28T11:32:07.811Z</time></trkpt><trkpt lat="45.478726" lon="10.7761227"><ele>141.0</ele><time>2026-03-28T11:32:08.812Z</time></trkpt><trkpt lat="45.4787404" lon="10.7760347"><ele>141.0</ele><time>2026-03-28T11:32:09.811Z</time></trkpt><trkpt lat="45.4788301" lon="10.7759463"><ele>141.0</ele><time>2026-03-28T11:32:11.811Z</time></trkpt><trkpt lat="45.4789229" lon="10.7759428"><ele>141.0</ele><time>2026-03-28T11:32:12.812Z</time></trkpt><trkpt lat="45.479033" lon="10.7759619"><ele>141.0</ele><time>2026-03-28T11:32:13.81Z</time></trkpt><trkpt lat="45.4791585" lon="10.7759836"><ele>140.0</ele><time>2026-03-28T11:32:14.811Z</time></trkpt><trkpt lat="45.4792765" lon="10.775996"><ele>139.0</ele><time>2026-03-28T11:32:15.811Z</time></trkpt><trkpt lat="45.4793682" lon="10.7760103"><ele>138.0</ele><time>2026-03-28T11:32:16.811Z</time></trkpt><trkpt lat="45.4794327" lon="10.7760052"><ele>137.0</ele><time>2026-03-28T11:32:17.81Z</time></trkpt><trkpt lat="45.4795071" lon="10.775884"><ele>136.0</ele><time>2026-03-28T11:32:19.811Z</time></trkpt><trkpt lat="45.4795156" lon="10.7757716"><ele>136.0</ele><time>2026-03-28T11:32:20.812Z</time></trkpt><trkpt lat="45.4795322" lon="10.7756262"><ele>136.0</ele><time>2026-03-28T11:32:21.812Z</time></trkpt><trkpt lat="45.4795643" lon="10.7754606"><ele>136.0</ele><time>2026-03-28T11:32:22.811Z</time></trkpt><trkpt lat="45.4796001" lon="10.7752938"><ele>136.0</ele><time>2026-03-28T11:32:23.811Z</time></trkpt><trkpt lat="45.4796539" lon="10.7751224"><ele>135.0</ele><time>2026-03-28T11:32:24.812Z</time></trkpt><trkpt lat="45.4797219" lon="10.7749388"><ele>134.0</ele><time>2026-03-28T11:32:25.811Z</time></trkpt><trkpt lat="45.4797857" lon="10.7747512"><ele>133.0</ele><time>2026-03-28T11:32:26.811Z</time></trkpt><trkpt lat="45.4798524" lon="10.7745588"><ele>132.0</ele><time>2026-03-28T11:32:27.811Z</time></trkpt><trkpt lat="45.4799189" lon="10.7743735"><ele>132.25</ele><time>2026-03-28T11:32:28.811Z</time></trkpt><trkpt lat="45.4799769" lon="10.7741903"><ele>132.5</ele><time>2026-03-28T11:32:29.811Z</time></trkpt><trkpt lat="45.4800349" lon="10.7740247"><ele>132.75</ele><time>2026-03-28T11:32:30.812Z</time></trkpt><trkpt lat="45.4800904" lon="10.7738691"><ele>133.0</ele><time>2026-03-28T11:32:31.81Z</time></trkpt><trkpt lat="45.4801397" lon="10.7737303"><ele>133.0</ele><time>2026-03-28T11:32:32.811Z</time></trkpt><trkpt lat="45.4801978" lon="10.7736368"><ele>133.0</ele><time>2026-03-28T11:32:33.811Z</time></trkpt><trkpt lat="45.4802703" lon="10.7735714"><ele>133.0</ele><time>2026-03-28T11:32:34.811Z</time></trkpt><trkpt lat="45.4803545" lon="10.7735475"><ele>133.0</ele><time>2026-03-28T11:32:35.811Z</time></trkpt><trkpt lat="45.4804622" lon="10.77356"><ele>133.0</ele><time>2026-03-28T11:32:36.811Z</time></trkpt><trkpt lat="45.4805614" lon="10.773591"><ele>133.0</ele><time>2026-03-28T11:32:37.81Z</time></trkpt><trkpt lat="45.4806374" lon="10.7736079"><ele>133.0</ele><time>2026-03-28T11:32:38.811Z</time></trkpt><trkpt lat="45.4807021" lon="10.7735894"><ele>133.0</ele><time>2026-03-28T11:32:39.811Z</time></trkpt><trkpt lat="45.48075" lon="10.7735306"><ele>133.0</ele><time>2026-03-28T11:32:40.811Z</time></trkpt><trkpt lat="45.4807804" lon="10.7734264"><ele>133.0</ele><time>2026-03-28T11:32:41.81Z</time></trkpt><trkpt lat="45.4808018" lon="10.7732776"><ele>133.0</ele><time>2026-03-28T11:32:42.81Z</time></trkpt><trkpt lat="45.480824" lon="10.7731219"><ele>133.0</ele><time>2026-03-28T11:32:43.811Z</time></trkpt><trkpt lat="45.4808382" lon="10.7729586"><ele>133.0</ele><time>2026-03-28T11:32:44.809Z</time></trkpt><trkpt lat="45.4808661" lon="10.7728068"><ele>133.0</ele><time>2026-03-28T11:32:45.811Z</time></trkpt><trkpt lat="45.4809162" lon="10.7726637"><ele>133.0</ele><time>2026-03-28T11:32:46.81Z</time></trkpt><trkpt lat="45.4809996" lon="10.7725218"><ele>133.5</ele><time>2026-03-28T11:32:47.811Z</time></trkpt><trkpt lat="45.4811151" lon="10.772374"><ele>134.0</ele><time>2026-03-28T11:32:48.811Z</time></trkpt><trkpt lat="45.4812238" lon="10.7722378"><ele>134.5</ele><time>2026-03-28T11:32:49.809Z</time></trkpt><trkpt lat="45.481321" lon="10.7721108"><ele>135.0</ele><time>2026-03-28T11:32:50.81Z</time></trkpt><trkpt lat="45.4814076" lon="10.7719977"><ele>135.0</ele><time>2026-03-28T11:32:51.81Z</time></trkpt><trkpt lat="45.4814845" lon="10.7718959"><ele>135.0</ele><time>2026-03-28T11:32:52.81Z</time></trkpt><trkpt lat="45.4815528" lon="10.7718051"><ele>135.0</ele><time>2026-03-28T11:32:53.809Z</time></trkpt><trkpt lat="45.4816187" lon="10.7717257"><ele>135.0</ele><time>2026-03-28T11:32:54.81Z</time></trkpt><trkpt lat="45.4816867" lon="10.7716551"><ele>135.0</ele><time>2026-03-28T11:32:55.81Z</time></trkpt><trkpt lat="45.481755" lon="10.7715827"><ele>135.0</ele><time>2026-03-28T11:32:56.811Z</time></trkpt><trkpt lat="45.4818191" lon="10.7715016"><ele>135.0</ele><time>2026-03-28T11:32:57.81Z</time></trkpt><trkpt lat="45.4818784" lon="10.7714122"><ele>135.0</ele><time>2026-03-28T11:32:58.81Z</time></trkpt><trkpt lat="45.4819404" lon="10.7713177"><ele>135.0</ele><time>2026-03-28T11:32:59.81Z</time></trkpt><trkpt lat="45.4820093" lon="10.7712247"><ele>135.0</ele><time>2026-03-28T11:33:00.809Z</time></trkpt><trkpt lat="45.4820739" lon="10.7711218"><ele>135.0</ele><time>2026-03-28T11:33:01.809Z</time></trkpt><trkpt lat="45.4821423" lon="10.771024"><ele>135.0</ele><time>2026-03-28T11:33:02.811Z</time></trkpt><trkpt lat="45.4822109" lon="10.7709367"><ele>135.0</ele><time>2026-03-28T11:33:03.81Z</time></trkpt><trkpt lat="45.4822724" lon="10.7708453"><ele>135.0</ele><time>2026-03-28T11:33:04.81Z</time></trkpt><trkpt lat="45.4823348" lon="10.7707578"><ele>135.0</ele><time>2026-03-28T11:33:05.809Z</time></trkpt><trkpt lat="45.4823951" lon="10.7706652"><ele>135.0</ele><time>2026-03-28T11:33:06.809Z</time></trkpt><trkpt lat="45.4824522" lon="10.7705707"><ele>135.0</ele><time>2026-03-28T11:33:07.811Z</time></trkpt><trkpt lat="45.4825131" lon="10.7704924"><ele>135.0</ele><time>2026-03-28T11:33:08.81Z</time></trkpt><trkpt lat="45.4825655" lon="10.7704332"><ele>135.0</ele><time>2026-03-28T11:33:09.81Z</time></trkpt><trkpt lat="45.4826739" lon="10.7703737"><ele>135.0</ele><time>2026-03-28T11:33:11.811Z</time></trkpt><trkpt lat="45.4827424" lon="10.7703767"><ele>135.0</ele><time>2026-03-28T11:33:12.809Z</time></trkpt><trkpt lat="45.4828232" lon="10.7704038"><ele>135.0</ele><time>2026-03-28T11:33:13.81Z</time></trkpt><trkpt lat="45.4829099" lon="10.7704483"><ele>135.0</ele><time>2026-03-28T11:33:14.81Z</time></trkpt><trkpt lat="45.4830175" lon="10.7704991"><ele>135.0</ele><time>2026-03-28T11:33:15.81Z</time></trkpt><trkpt lat="45.4831343" lon="10.7705436"><ele>135.0</ele><time>2026-03-28T11:33:16.81Z</time></trkpt><trkpt lat="45.4832538" lon="10.7705875"><ele>135.5</ele><time>2026-03-28T11:33:17.81Z</time></trkpt><trkpt lat="45.4833687" lon="10.7706192"><ele>136.0</ele><time>2026-03-28T11:33:18.811Z</time></trkpt><trkpt lat="45.4834891" lon="10.7706368"><ele>136.5</ele><time>2026-03-28T11:33:19.81Z</time></trkpt><trkpt lat="45.4836106" lon="10.7706433"><ele>137.0</ele><time>2026-03-28T11:33:20.81Z</time></trkpt><trkpt lat="45.4837271" lon="10.7706455"><ele>137.4</ele><time>2026-03-28T11:33:21.81Z</time></trkpt><trkpt lat="45.4838381" lon="10.7706603"><ele>137.79999999999998</ele><time>2026-03-28T11:33:22.811Z</time></trkpt><trkpt lat="45.4839484" lon="10.7706819"><ele>138.2</ele><time>2026-03-28T11:33:23.811Z</time></trkpt><trkpt lat="45.4840504" lon="10.7707213"><ele>138.6</ele><time>2026-03-28T11:33:24.81Z</time></trkpt><trkpt lat="45.4841553" lon="10.7707662"><ele>139.0</ele><time>2026-03-28T11:33:25.809Z</time></trkpt><trkpt lat="45.4842596" lon="10.7708184"><ele>139.0</ele><time>2026-03-28T11:33:26.81Z</time></trkpt><trkpt lat="45.4843635" lon="10.7708837"><ele>139.0</ele><time>2026-03-28T11:33:27.809Z</time></trkpt><trkpt lat="45.4844645" lon="10.7709671"><ele>139.0</ele><time>2026-03-28T11:33:28.81Z</time></trkpt><trkpt lat="45.4845604" lon="10.7710613"><ele>139.0</ele><time>2026-03-28T11:33:29.811Z</time></trkpt><trkpt lat="45.4846508" lon="10.7711614"><ele>137.75</ele><time>2026-03-28T11:33:30.811Z</time></trkpt><trkpt lat="45.4847436" lon="10.7712622"><ele>136.5</ele><time>2026-03-28T11:33:31.811Z</time></trkpt><trkpt lat="45.4848423" lon="10.7713591"><ele>135.25</ele><time>2026-03-28T11:33:32.809Z</time></trkpt><trkpt lat="45.4849437" lon="10.7714531"><ele>134.0</ele><time>2026-03-28T11:33:33.81Z</time></trkpt><trkpt lat="45.4850471" lon="10.7715472"><ele>134.0</ele><time>2026-03-28T11:33:34.81Z</time></trkpt><trkpt lat="45.4851527" lon="10.7716459"><ele>134.0</ele><time>2026-03-28T11:33:35.811Z</time></trkpt><trkpt lat="45.4852592" lon="10.7717487"><ele>134.0</ele><time>2026-03-28T11:33:36.809Z</time></trkpt><trkpt lat="45.4853644" lon="10.771859"><ele>134.0</ele><time>2026-03-28T11:33:37.81Z</time></trkpt><trkpt lat="45.4854691" lon="10.7719715"><ele>134.25</ele><time>2026-03-28T11:33:38.81Z</time></trkpt><trkpt lat="45.4855715" lon="10.7720832"><ele>134.5</ele><time>2026-03-28T11:33:39.81Z</time></trkpt><trkpt lat="45.4856754" lon="10.7721914"><ele>134.75</ele><time>2026-03-28T11:33:40.81Z</time></trkpt><trkpt lat="45.4857789" lon="10.7723003"><ele>135.0</ele><time>2026-03-28T11:33:41.81Z</time></trkpt><trkpt lat="45.4858833" lon="10.7723971"><ele>135.0</ele><time>2026-03-28T11:33:42.809Z</time></trkpt><trkpt lat="45.4859758" lon="10.7724811"><ele>135.0</ele><time>2026-03-28T11:33:43.81Z</time></trkpt><trkpt lat="45.4860534" lon="10.7725544"><ele>135.0</ele><time>2026-03-28T11:33:44.81Z</time></trkpt><trkpt lat="45.4861173" lon="10.7726166"><ele>135.0</ele><time>2026-03-28T11:33:45.81Z</time></trkpt><trkpt lat="45.4862021" lon="10.7726958"><ele>135.0</ele><time>2026-03-28T11:33:47.81Z</time></trkpt><trkpt lat="45.486285" lon="10.7727706"><ele>135.16666666666666</ele><time>2026-03-28T11:33:50.811Z</time></trkpt><trkpt lat="45.4863608" lon="10.772731"><ele>135.33333333333334</ele><time>2026-03-28T11:33:52.809Z</time></trkpt><trkpt lat="45.4864171" lon="10.7726818"><ele>135.5</ele><time>2026-03-28T11:33:53.81Z</time></trkpt><trkpt lat="45.4864811" lon="10.7726157"><ele>135.66666666666669</ele><time>2026-03-28T11:33:54.81Z</time></trkpt><trkpt lat="45.4865491" lon="10.7725411"><ele>135.83333333333334</ele><time>2026-03-28T11:33:55.81Z</time></trkpt><trkpt lat="45.486624" lon="10.7724507"><ele>136.0</ele><time>2026-03-28T11:33:56.81Z</time></trkpt><trkpt lat="45.4867033" lon="10.7723565"><ele>136.0</ele><time>2026-03-28T11:33:57.809Z</time></trkpt><trkpt lat="45.4867882" lon="10.7722583"><ele>136.0</ele><time>2026-03-28T11:33:58.811Z</time></trkpt><trkpt lat="45.4868741" lon="10.7721546"><ele>136.0</ele><time>2026-03-28T11:33:59.809Z</time></trkpt><trkpt lat="45.4869588" lon="10.7720418"><ele>136.0</ele><time>2026-03-28T11:34:00.81Z</time></trkpt><trkpt lat="45.4870436" lon="10.7719215"><ele>136.0</ele><time>2026-03-28T11:34:01.81Z</time></trkpt><trkpt lat="45.4871228" lon="10.7717864"><ele>136.0</ele><time>2026-03-28T11:34:02.809Z</time></trkpt><trkpt lat="45.4872" lon="10.7716491"><ele>136.0</ele><time>2026-03-28T11:34:03.81Z</time></trkpt><trkpt lat="45.4872713" lon="10.7715084"><ele>136.0</ele><time>2026-03-28T11:34:04.809Z</time></trkpt><trkpt lat="45.487345" lon="10.7713703"><ele>136.0</ele><time>2026-03-28T11:34:05.81Z</time></trkpt><trkpt lat="45.4874215" lon="10.7712395"><ele>136.0</ele><time>2026-03-28T11:34:06.811Z</time></trkpt><trkpt lat="45.4874983" lon="10.7711087"><ele>136.0</ele><time>2026-03-28T11:34:07.81Z</time></trkpt><trkpt lat="45.4875718" lon="10.770974"><ele>136.0</ele><time>2026-03-28T11:34:08.811Z</time></trkpt><trkpt lat="45.4876403" lon="10.770842"><ele>135.83333333333334</ele><time>2026-03-28T11:34:09.809Z</time></trkpt><trkpt lat="45.4877088" lon="10.7707153"><ele>135.66666666666669</ele><time>2026-03-28T11:34:10.81Z</time></trkpt><trkpt lat="45.4877693" lon="10.770611"><ele>135.5</ele><time>2026-03-28T11:34:11.811Z</time></trkpt><trkpt lat="45.4878233" lon="10.7705379"><ele>135.33333333333334</ele><time>2026-03-28T11:34:12.81Z</time></trkpt><trkpt lat="45.4879165" lon="10.7704976"><ele>135.16666666666666</ele><time>2026-03-28T11:34:14.811Z</time></trkpt><trkpt lat="45.4879763" lon="10.7705304"><ele>135.0</ele><time>2026-03-28T11:34:15.81Z</time></trkpt><trkpt lat="45.4880432" lon="10.7705933"><ele>135.0</ele><time>2026-03-28T11:34:16.809Z</time></trkpt><trkpt lat="45.4881118" lon="10.7706681"><ele>135.0</ele><time>2026-03-28T11:34:17.809Z</time></trkpt><trkpt lat="45.4881834" lon="10.7707473"><ele>135.0</ele><time>2026-03-28T11:34:18.81Z</time></trkpt><trkpt lat="45.4882546" lon="10.7708308"><ele>135.0</ele><time>2026-03-28T11:34:19.811Z</time></trkpt><trkpt lat="45.4883154" lon="10.7709057"><ele>135.0</ele><time>2026-03-28T11:34:20.81Z</time></trkpt><trkpt lat="45.4883628" lon="10.7709766"><ele>135.0</ele><time>2026-03-28T11:34:21.811Z</time></trkpt><trkpt lat="45.4884328" lon="10.7710913"><ele>135.2</ele><time>2026-03-28T11:34:23.809Z</time></trkpt><trkpt lat="45.4884479" lon="10.7712067"><ele>135.4</ele><time>2026-03-28T11:34:31.81Z</time></trkpt><trkpt lat="45.4884274" lon="10.7713668"><ele>135.6</ele><time>2026-03-28T11:34:33.81Z</time></trkpt><trkpt lat="45.4884004" lon="10.7714515"><ele>135.8</ele><time>2026-03-28T11:34:34.81Z</time></trkpt><trkpt lat="45.4884339" lon="10.7715764"><ele>136.0</ele><time>2026-03-28T11:34:36.809Z</time></trkpt><trkpt lat="45.48854" lon="10.7715447"><ele>136.0</ele><time>2026-03-28T11:34:38.81Z</time></trkpt><trkpt lat="45.4885871" lon="10.7714751"><ele>136.0</ele><time>2026-03-28T11:34:39.809Z</time></trkpt><trkpt lat="45.488632" lon="10.7713829"><ele>136.0</ele><time>2026-03-28T11:34:40.811Z</time></trkpt><trkpt lat="45.4886852" lon="10.7712833"><ele>136.0</ele><time>2026-03-28T11:34:41.81Z</time></trkpt><trkpt lat="45.4887544" lon="10.7711891"><ele>136.0</ele><time>2026-03-28T11:34:42.809Z</time></trkpt><trkpt lat="45.4888346" lon="10.771091"><ele>136.0</ele><time>2026-03-28T11:34:43.809Z</time></trkpt><trkpt lat="45.4889218" lon="10.7710009"><ele>136.5</ele><time>2026-03-28T11:34:44.811Z</time></trkpt><trkpt lat="45.4890206" lon="10.7709271"><ele>137.0</ele><time>2026-03-28T11:34:45.81Z</time></trkpt><trkpt lat="45.4891272" lon="10.7708704"><ele>137.5</ele><time>2026-03-28T11:34:46.81Z</time></trkpt><trkpt lat="45.489236" lon="10.7708206"><ele>138.0</ele><time>2026-03-28T11:34:47.811Z</time></trkpt><trkpt lat="45.4893485" lon="10.7707776"><ele>138.0</ele><time>2026-03-28T11:34:48.811Z</time></trkpt><trkpt lat="45.4894588" lon="10.7707383"><ele>138.0</ele><time>2026-03-28T11:34:49.81Z</time></trkpt><trkpt lat="45.4895758" lon="10.7706973"><ele>138.0</ele><time>2026-03-28T11:34:50.81Z</time></trkpt><trkpt lat="45.4896993" lon="10.7706668"><ele>138.0</ele><time>2026-03-28T11:34:51.809Z</time></trkpt><trkpt lat="45.4898285" lon="10.770632"><ele>138.0</ele><time>2026-03-28T11:34:52.811Z</time></trkpt><trkpt lat="45.4899596" lon="10.7705917"><ele>138.0</ele><time>2026-03-28T11:34:53.809Z</time></trkpt><trkpt lat="45.4900934" lon="10.7705548"><ele>138.0</ele><time>2026-03-28T11:34:54.809Z</time></trkpt><trkpt lat="45.4902298" lon="10.7705231"><ele>138.0</ele><time>2026-03-28T11:34:55.81Z</time></trkpt><trkpt lat="45.4903668" lon="10.770491"><ele>138.0</ele><time>2026-03-28T11:34:56.809Z</time></trkpt><trkpt lat="45.4905084" lon="10.7704529"><ele>138.0</ele><time>2026-03-28T11:34:57.809Z</time></trkpt><trkpt lat="45.4906525" lon="10.770417"><ele>138.0</ele><time>2026-03-28T11:34:58.809Z</time></trkpt><trkpt lat="45.4908007" lon="10.7703797"><ele>138.0</ele><time>2026-03-28T11:34:59.81Z</time></trkpt><trkpt lat="45.4909484" lon="10.7703393"><ele>138.0</ele><time>2026-03-28T11:35:00.809Z</time></trkpt><trkpt lat="45.4910958" lon="10.7702952"><ele>138.0</ele><time>2026-03-28T11:35:01.81Z</time></trkpt><trkpt lat="45.4912433" lon="10.7702372"><ele>138.0</ele><time>2026-03-28T11:35:02.81Z</time></trkpt><trkpt lat="45.4913911" lon="10.7701786"><ele>137.0</ele><time>2026-03-28T11:35:03.81Z</time></trkpt><trkpt lat="45.4915417" lon="10.7701107"><ele>136.0</ele><time>2026-03-28T11:35:04.811Z</time></trkpt><trkpt lat="45.4916926" lon="10.7700417"><ele>135.0</ele><time>2026-03-28T11:35:05.81Z</time></trkpt><trkpt lat="45.4918357" lon="10.7699751"><ele>135.0</ele><time>2026-03-28T11:35:06.811Z</time></trkpt><trkpt lat="45.4919662" lon="10.7698965"><ele>135.0</ele><time>2026-03-28T11:35:07.81Z</time></trkpt><trkpt lat="45.4920879" lon="10.7698267"><ele>135.0</ele><time>2026-03-28T11:35:08.81Z</time></trkpt><trkpt lat="45.4921984" lon="10.7697557"><ele>135.0</ele><time>2026-03-28T11:35:09.811Z</time></trkpt><trkpt lat="45.4922969" lon="10.7696842"><ele>134.6</ele><time>2026-03-28T11:35:10.81Z</time></trkpt><trkpt lat="45.4923822" lon="10.7696164"><ele>134.2</ele><time>2026-03-28T11:35:11.811Z</time></trkpt><trkpt lat="45.4924527" lon="10.769564"><ele>133.8</ele><time>2026-03-28T11:35:12.81Z</time></trkpt><trkpt lat="45.4925463" lon="10.7695705"><ele>133.4</ele><time>2026-03-28T11:35:14.81Z</time></trkpt><trkpt lat="45.4926409" lon="10.7697007"><ele>133.0</ele><time>2026-03-28T11:35:16.81Z</time></trkpt><trkpt lat="45.4926877" lon="10.7698097"><ele>133.0</ele><time>2026-03-28T11:35:17.81Z</time></trkpt><trkpt lat="45.4927363" lon="10.7699474"><ele>133.0</ele><time>2026-03-28T11:35:18.811Z</time></trkpt><trkpt lat="45.4927923" lon="10.7700842"><ele>133.0</ele><time>2026-03-28T11:35:19.811Z</time></trkpt><trkpt lat="45.4928545" lon="10.770215"><ele>133.0</ele><time>2026-03-28T11:35:20.81Z</time></trkpt><trkpt lat="45.4929181" lon="10.7703436"><ele>133.0</ele><time>2026-03-28T11:35:21.81Z</time></trkpt><trkpt lat="45.4929732" lon="10.7704812"><ele>133.0</ele><time>2026-03-28T11:35:22.809Z</time></trkpt><trkpt lat="45.4930247" lon="10.7706241"><ele>133.0</ele><time>2026-03-28T11:35:23.81Z</time></trkpt><trkpt lat="45.493085" lon="10.770763"><ele>133.0</ele><time>2026-03-28T11:35:24.81Z</time></trkpt><trkpt lat="45.4931578" lon="10.7708981"><ele>133.0</ele><time>2026-03-28T11:35:25.81Z</time></trkpt><trkpt lat="45.4932324" lon="10.771014"><ele>133.8</ele><time>2026-03-28T11:35:26.81Z</time></trkpt><trkpt lat="45.4933011" lon="10.771097"><ele>134.60000000000002</ele><time>2026-03-28T11:35:27.809Z</time></trkpt><trkpt lat="45.4933762" lon="10.7711562"><ele>135.39999999999998</ele><time>2026-03-28T11:35:28.81Z</time></trkpt><trkpt lat="45.493469" lon="10.7711862"><ele>136.2</ele><time>2026-03-28T11:35:29.81Z</time></trkpt><trkpt lat="45.4935837" lon="10.771174"><ele>137.0</ele><time>2026-03-28T11:35:30.809Z</time></trkpt><trkpt lat="45.4937047" lon="10.7711564"><ele>137.0</ele><time>2026-03-28T11:35:31.811Z</time></trkpt><trkpt lat="45.4938392" lon="10.7711546"><ele>137.0</ele><time>2026-03-28T11:35:32.81Z</time></trkpt><trkpt lat="45.4939775" lon="10.7711638"><ele>137.0</ele><time>2026-03-28T11:35:33.811Z</time></trkpt><trkpt lat="45.4941023" lon="10.7711822"><ele>137.0</ele><time>2026-03-28T11:35:34.81Z</time></trkpt><trkpt lat="45.4942004" lon="10.7712048"><ele>137.0</ele><time>2026-03-28T11:35:35.81Z</time></trkpt><trkpt lat="45.4942781" lon="10.7712378"><ele>137.0</ele><time>2026-03-28T11:35:36.809Z</time></trkpt><trkpt lat="45.4943223" lon="10.7713019"><ele>137.0</ele><time>2026-03-28T11:35:37.81Z</time></trkpt><trkpt lat="45.4943593" lon="10.7713904"><ele>137.0</ele><time>2026-03-28T11:35:38.81Z</time></trkpt><trkpt lat="45.4943701" lon="10.771497"><ele>137.0</ele><time>2026-03-28T11:35:39.811Z</time></trkpt><trkpt lat="45.4943567" lon="10.7716428"><ele>137.0</ele><time>2026-03-28T11:35:40.809Z</time></trkpt><trkpt lat="45.4943547" lon="10.7718122"><ele>137.0</ele><time>2026-03-28T11:35:41.809Z</time></trkpt><trkpt lat="45.4943622" lon="10.7719871"><ele>137.0</ele><time>2026-03-28T11:35:42.809Z</time></trkpt><trkpt lat="45.4943721" lon="10.772171"><ele>137.0</ele><time>2026-03-28T11:35:43.81Z</time></trkpt><trkpt lat="45.4943837" lon="10.7723568"><ele>137.0</ele><time>2026-03-28T11:35:44.81Z</time></trkpt><trkpt lat="45.4943999" lon="10.772545"><ele>137.25</ele><time>2026-03-28T11:35:45.81Z</time></trkpt><trkpt lat="45.4944164" lon="10.7727356"><ele>137.5</ele><time>2026-03-28T11:35:46.81Z</time></trkpt><trkpt lat="45.4944279" lon="10.7729334"><ele>137.75</ele><time>2026-03-28T11:35:47.811Z</time></trkpt><trkpt lat="45.4944432" lon="10.7731261"><ele>138.0</ele><time>2026-03-28T11:35:48.81Z</time></trkpt><trkpt lat="45.4944626" lon="10.7733158"><ele>138.0</ele><time>2026-03-28T11:35:49.809Z</time></trkpt><trkpt lat="45.494483" lon="10.7734996"><ele>138.0</ele><time>2026-03-28T11:35:50.81Z</time></trkpt><trkpt lat="45.4945014" lon="10.7736795"><ele>138.0</ele><time>2026-03-28T11:35:51.81Z</time></trkpt><trkpt lat="45.49452" lon="10.7738591"><ele>138.0</ele><time>2026-03-28T11:35:52.81Z</time></trkpt><trkpt lat="45.4945408" lon="10.7740368"><ele>139.0</ele><time>2026-03-28T11:35:53.811Z</time></trkpt><trkpt lat="45.4945614" lon="10.7742081"><ele>140.0</ele><time>2026-03-28T11:35:54.811Z</time></trkpt><trkpt lat="45.4945862" lon="10.7743783"><ele>141.0</ele><time>2026-03-28T11:35:55.81Z</time></trkpt><trkpt lat="45.4946121" lon="10.7745501"><ele>142.0</ele><time>2026-03-28T11:35:56.809Z</time></trkpt><trkpt lat="45.4946269" lon="10.7747252"><ele>143.5</ele><time>2026-03-28T11:35:57.811Z</time></trkpt><trkpt lat="45.4946381" lon="10.7749035"><ele>145.0</ele><time>2026-03-28T11:35:58.811Z</time></trkpt><trkpt lat="45.4946487" lon="10.7750882"><ele>146.5</ele><time>2026-03-28T11:35:59.81Z</time></trkpt><trkpt lat="45.4946532" lon="10.7752787"><ele>148.0</ele><time>2026-03-28T11:36:00.811Z</time></trkpt><trkpt lat="45.4946551" lon="10.7754756"><ele>148.0</ele><time>2026-03-28T11:36:01.81Z</time></trkpt><trkpt lat="45.4946623" lon="10.7756719"><ele>148.0</ele><time>2026-03-28T11:36:02.809Z</time></trkpt><trkpt lat="45.4946725" lon="10.7758654"><ele>148.0</ele><time>2026-03-28T11:36:03.81Z</time></trkpt><trkpt lat="45.4946814" lon="10.7760351"><ele>148.0</ele><time>2026-03-28T11:36:04.81Z</time></trkpt><trkpt lat="45.494689" lon="10.7761781"><ele>148.33333333333334</ele><time>2026-03-28T11:36:05.81Z</time></trkpt><trkpt lat="45.4946971" lon="10.7762954"><ele>148.66666666666669</ele><time>2026-03-28T11:36:06.81Z</time></trkpt><trkpt lat="45.4947198" lon="10.7763857"><ele>149.0</ele><time>2026-03-28T11:36:07.809Z</time></trkpt><trkpt lat="45.4947717" lon="10.776467"><ele>149.33333333333334</ele><time>2026-03-28T11:36:08.81Z</time></trkpt><trkpt lat="45.4948487" lon="10.7765417"><ele>149.66666666666666</ele><time>2026-03-28T11:36:09.81Z</time></trkpt><trkpt lat="45.4949235" lon="10.7766221"><ele>150.0</ele><time>2026-03-28T11:36:10.81Z</time></trkpt><trkpt lat="45.4949954" lon="10.7767093"><ele>150.0</ele><time>2026-03-28T11:36:11.811Z</time></trkpt><trkpt lat="45.4950828" lon="10.7767919"><ele>150.0</ele><time>2026-03-28T11:36:12.809Z</time></trkpt><trkpt lat="45.4951801" lon="10.7768736"><ele>150.0</ele><time>2026-03-28T11:36:13.809Z</time></trkpt><trkpt lat="45.4952839" lon="10.7769707"><ele>150.0</ele><time>2026-03-28T11:36:14.811Z</time></trkpt><trkpt lat="45.4953886" lon="10.7770795"><ele>149.0</ele><time>2026-03-28T11:36:15.81Z</time></trkpt><trkpt lat="45.4954848" lon="10.7771979"><ele>148.0</ele><time>2026-03-28T11:36:16.81Z</time></trkpt><trkpt lat="45.4955741" lon="10.7773254"><ele>147.0</ele><time>2026-03-28T11:36:17.811Z</time></trkpt><trkpt lat="45.4956521" lon="10.7774387"><ele>146.0</ele><time>2026-03-28T11:36:18.809Z</time></trkpt><trkpt lat="45.4957084" lon="10.7775542"><ele>144.8</ele><time>2026-03-28T11:36:19.811Z</time></trkpt><trkpt lat="45.4957568" lon="10.7776862"><ele>143.6</ele><time>2026-03-28T11:36:20.81Z</time></trkpt><trkpt lat="45.4957968" lon="10.7777979"><ele>142.4</ele><time>2026-03-28T11:36:21.81Z</time></trkpt><trkpt lat="45.4958289" lon="10.7778837"><ele>141.2</ele><time>2026-03-28T11:36:22.81Z</time></trkpt><trkpt lat="45.4959475" lon="10.7779443"><ele>140.0</ele><time>2026-03-28T11:36:24.811Z</time></trkpt><trkpt lat="45.4960371" lon="10.7779281"><ele>140.0</ele><time>2026-03-28T11:36:25.809Z</time></trkpt><trkpt lat="45.4961255" lon="10.777897"><ele>140.0</ele><time>2026-03-28T11:36:26.811Z</time></trkpt><trkpt lat="45.4962183" lon="10.7778724"><ele>140.0</ele><time>2026-03-28T11:36:27.809Z</time></trkpt><trkpt lat="45.4963212" lon="10.7778622"><ele>140.0</ele><time>2026-03-28T11:36:28.81Z</time></trkpt><trkpt lat="45.4964183" lon="10.7778637"><ele>140.0</ele><time>2026-03-28T11:36:29.81Z</time></trkpt><trkpt lat="45.4965123" lon="10.7778554"><ele>139.83333333333331</ele><time>2026-03-28T11:36:30.81Z</time></trkpt><trkpt lat="45.4965985" lon="10.7778544"><ele>139.66666666666666</ele><time>2026-03-28T11:36:31.81Z</time></trkpt><trkpt lat="45.4966829" lon="10.777858"><ele>139.5</ele><time>2026-03-28T11:36:32.81Z</time></trkpt><trkpt lat="45.4967662" lon="10.7778712"><ele>139.33333333333334</ele><time>2026-03-28T11:36:33.81Z</time></trkpt><trkpt lat="45.4968503" lon="10.7779184"><ele>139.16666666666669</ele><time>2026-03-28T11:36:34.809Z</time></trkpt><trkpt lat="45.4969317" lon="10.7779867"><ele>139.0</ele><time>2026-03-28T11:36:35.81Z</time></trkpt><trkpt lat="45.4970017" lon="10.7780685"><ele>139.0</ele><time>2026-03-28T11:36:36.81Z</time></trkpt><trkpt lat="45.4970661" lon="10.778139"><ele>139.0</ele><time>2026-03-28T11:36:37.811Z</time></trkpt><trkpt lat="45.4971229" lon="10.778179"><ele>139.0</ele><time>2026-03-28T11:36:38.81Z</time></trkpt><trkpt lat="45.4972156" lon="10.7782323"><ele>139.0</ele><time>2026-03-28T11:36:40.811Z</time></trkpt><trkpt lat="45.4972418" lon="10.7783474"><ele>139.0</ele><time>2026-03-28T11:36:43.81Z</time></trkpt><trkpt lat="45.4972065" lon="10.778471"><ele>139.0</ele><time>2026-03-28T11:36:45.81Z</time></trkpt><trkpt lat="45.4971851" lon="10.778566"><ele>139.16666666666669</ele><time>2026-03-28T11:36:46.81Z</time></trkpt><trkpt lat="45.4971432" lon="10.7787455"><ele>139.33333333333334</ele><time>2026-03-28T11:36:48.81Z</time></trkpt><trkpt lat="45.4971248" lon="10.7788478"><ele>139.5</ele><time>2026-03-28T11:36:49.81Z</time></trkpt><trkpt lat="45.4971054" lon="10.7789514"><ele>139.66666666666666</ele><time>2026-03-28T11:36:50.81Z</time></trkpt><trkpt lat="45.4970835" lon="10.7790619"><ele>139.83333333333331</ele><time>2026-03-28T11:36:51.81Z</time></trkpt><trkpt lat="45.4970551" lon="10.7791754"><ele>140.0</ele><time>2026-03-28T11:36:52.81Z</time></trkpt><trkpt lat="45.4970333" lon="10.7792932"><ele>139.0</ele><time>2026-03-28T11:36:53.81Z</time></trkpt><trkpt lat="45.4970181" lon="10.7794193"><ele>138.0</ele><time>2026-03-28T11:36:54.81Z</time></trkpt><trkpt lat="45.4970091" lon="10.7795553"><ele>137.0</ele><time>2026-03-28T11:36:55.81Z</time></trkpt><trkpt lat="45.4969985" lon="10.7796925"><ele>136.0</ele><time>2026-03-28T11:36:56.811Z</time></trkpt><trkpt lat="45.4969847" lon="10.779838"><ele>135.0</ele><time>2026-03-28T11:36:57.809Z</time></trkpt><trkpt lat="45.4969772" lon="10.7799903"><ele>135.0</ele><time>2026-03-28T11:36:58.809Z</time></trkpt><trkpt lat="45.496975" lon="10.7801487"><ele>135.0</ele><time>2026-03-28T11:36:59.81Z</time></trkpt><trkpt lat="45.4969803" lon="10.7803127"><ele>135.0</ele><time>2026-03-28T11:37:00.81Z</time></trkpt><trkpt lat="45.4969837" lon="10.7804707"><ele>135.0</ele><time>2026-03-28T11:37:01.809Z</time></trkpt><trkpt lat="45.4969747" lon="10.7806145"><ele>135.0</ele><time>2026-03-28T11:37:02.81Z</time></trkpt><trkpt lat="45.4969489" lon="10.780747"><ele>135.0</ele><time>2026-03-28T11:37:03.809Z</time></trkpt><trkpt lat="45.4969145" lon="10.7808719"><ele>135.0</ele><time>2026-03-28T11:37:04.81Z</time></trkpt><trkpt lat="45.4968855" lon="10.7809795"><ele>135.0</ele><time>2026-03-28T11:37:05.809Z</time></trkpt><trkpt lat="45.4969073" lon="10.7811139"><ele>135.0</ele><time>2026-03-28T11:37:07.81Z</time></trkpt><trkpt lat="45.4970099" lon="10.7811434"><ele>135.0</ele><time>2026-03-28T11:37:09.809Z</time></trkpt><trkpt lat="45.4970883" lon="10.7811416"><ele>136.2</ele><time>2026-03-28T11:37:10.81Z</time></trkpt><trkpt lat="45.4971844" lon="10.7811459"><ele>137.4</ele><time>2026-03-28T11:37:11.809Z</time></trkpt><trkpt lat="45.4972791" lon="10.781157"><ele>138.6</ele><time>2026-03-28T11:37:12.811Z</time></trkpt><trkpt lat="45.4973756" lon="10.7811677"><ele>139.8</ele><time>2026-03-28T11:37:13.81Z</time></trkpt><trkpt lat="45.4974701" lon="10.7811772"><ele>141.0</ele><time>2026-03-28T11:37:14.811Z</time></trkpt><trkpt lat="45.4975633" lon="10.7811812"><ele>141.0</ele><time>2026-03-28T11:37:15.809Z</time></trkpt><trkpt lat="45.4976559" lon="10.7811844"><ele>141.0</ele><time>2026-03-28T11:37:16.81Z</time></trkpt><trkpt lat="45.4977474" lon="10.7811917"><ele>141.0</ele><time>2026-03-28T11:37:17.811Z</time></trkpt><trkpt lat="45.4978266" lon="10.7812029"><ele>141.0</ele><time>2026-03-28T11:37:18.811Z</time></trkpt><trkpt lat="45.4978868" lon="10.781238"><ele>141.0</ele><time>2026-03-28T11:37:19.811Z</time></trkpt><trkpt lat="45.497929" lon="10.7813073"><ele>141.0</ele><time>2026-03-28T11:37:20.81Z</time></trkpt><trkpt lat="45.497947" lon="10.7814165"><ele>143.2</ele><time>2026-03-28T11:37:21.81Z</time></trkpt><trkpt lat="45.4979494" lon="10.7815438"><ele>145.39999999999998</ele><time>2026-03-28T11:37:22.809Z</time></trkpt><trkpt lat="45.4979613" lon="10.781685"><ele>147.6</ele><time>2026-03-28T11:37:23.81Z</time></trkpt><trkpt lat="45.4979732" lon="10.7818289"><ele>149.79999999999998</ele><time>2026-03-28T11:37:24.81Z</time></trkpt><trkpt lat="45.4979837" lon="10.7819777"><ele>152.0</ele><time>2026-03-28T11:37:25.81Z</time></trkpt><trkpt lat="45.4979867" lon="10.7821368"><ele>152.4</ele><time>2026-03-28T11:37:26.81Z</time></trkpt><trkpt lat="45.4979937" lon="10.7822943"><ele>152.79999999999998</ele><time>2026-03-28T11:37:27.811Z</time></trkpt><trkpt lat="45.4980076" lon="10.7824541"><ele>153.2</ele><time>2026-03-28T11:37:28.81Z</time></trkpt><trkpt lat="45.4980284" lon="10.7826099"><ele>153.6</ele><time>2026-03-28T11:37:29.81Z</time></trkpt><trkpt lat="45.4980458" lon="10.7827566"><ele>154.0</ele><time>2026-03-28T11:37:30.809Z</time></trkpt><trkpt lat="45.4980545" lon="10.782893"><ele>154.0</ele><time>2026-03-28T11:37:31.81Z</time></trkpt><trkpt lat="45.4980612" lon="10.7830246"><ele>154.0</ele><time>2026-03-28T11:37:32.81Z</time></trkpt><trkpt lat="45.4980742" lon="10.7831533"><ele>154.0</ele><time>2026-03-28T11:37:33.811Z</time></trkpt><trkpt lat="45.4981058" lon="10.7832858"><ele>154.0</ele><time>2026-03-28T11:37:34.809Z</time></trkpt><trkpt lat="45.4981546" lon="10.7834061"><ele>154.0</ele><time>2026-03-28T11:37:35.811Z</time></trkpt><trkpt lat="45.4982015" lon="10.7835331"><ele>154.33333333333334</ele><time>2026-03-28T11:37:36.81Z</time></trkpt><trkpt lat="45.4982264" lon="10.7836716"><ele>154.66666666666669</ele><time>2026-03-28T11:37:37.809Z</time></trkpt><trkpt lat="45.498229" lon="10.783809"><ele>155.0</ele><time>2026-03-28T11:37:38.809Z</time></trkpt><trkpt lat="45.4982145" lon="10.7839362"><ele>155.33333333333334</ele><time>2026-03-28T11:37:39.81Z</time></trkpt><trkpt lat="45.498209" lon="10.7840306"><ele>155.66666666666666</ele><time>2026-03-28T11:37:40.81Z</time></trkpt><trkpt lat="45.498256" lon="10.7841043"><ele>156.0</ele><time>2026-03-28T11:37:42.81Z</time></trkpt><trkpt lat="45.4983872" lon="10.7841269"><ele>156.0</ele><time>2026-03-28T11:37:44.81Z</time></trkpt><trkpt lat="45.4984737" lon="10.7841247"><ele>156.0</ele><time>2026-03-28T11:37:45.811Z</time></trkpt><trkpt lat="45.4985736" lon="10.7841249"><ele>156.0</ele><time>2026-03-28T11:37:46.81Z</time></trkpt><trkpt lat="45.4986795" lon="10.7841258"><ele>156.0</ele><time>2026-03-28T11:37:47.809Z</time></trkpt><trkpt lat="45.498787" lon="10.7841277"><ele>156.0</ele><time>2026-03-28T11:37:48.81Z</time></trkpt><trkpt lat="45.4988969" lon="10.7841329"><ele>156.2</ele><time>2026-03-28T11:37:49.809Z</time></trkpt><trkpt lat="45.4990065" lon="10.784143"><ele>156.39999999999998</ele><time>2026-03-28T11:37:50.809Z</time></trkpt><trkpt lat="45.4991063" lon="10.7841512"><ele>156.6</ele><time>2026-03-28T11:37:51.81Z</time></trkpt><trkpt lat="45.4991934" lon="10.7841522"><ele>156.79999999999998</ele><time>2026-03-28T11:37:52.811Z</time></trkpt><trkpt lat="45.4992756" lon="10.784142"><ele>157.0</ele><time>2026-03-28T11:37:53.811Z</time></trkpt><trkpt lat="45.4993611" lon="10.7841338"><ele>157.0</ele><time>2026-03-28T11:37:54.81Z</time></trkpt><trkpt lat="45.4994493" lon="10.784135"><ele>157.0</ele><time>2026-03-28T11:37:55.81Z</time></trkpt><trkpt lat="45.4995367" lon="10.784129"><ele>157.0</ele><time>2026-03-28T11:37:56.811Z</time></trkpt><trkpt lat="45.4996206" lon="10.7840963"><ele>157.0</ele><time>2026-03-28T11:37:57.811Z</time></trkpt><trkpt lat="45.4996974" lon="10.7840335"><ele>157.0</ele><time>2026-03-28T11:37:58.809Z</time></trkpt><trkpt lat="45.4997725" lon="10.7839595"><ele>157.0</ele><time>2026-03-28T11:37:59.809Z</time></trkpt><trkpt lat="45.4998483" lon="10.7838918"><ele>157.4</ele><time>2026-03-28T11:38:00.81Z</time></trkpt><trkpt lat="45.4999282" lon="10.7838286"><ele>157.79999999999998</ele><time>2026-03-28T11:38:01.809Z</time></trkpt><trkpt lat="45.5000071" lon="10.7837641"><ele>158.2</ele><time>2026-03-28T11:38:02.81Z</time></trkpt><trkpt lat="45.5000853" lon="10.783696"><ele>158.6</ele><time>2026-03-28T11:38:03.811Z</time></trkpt><trkpt lat="45.5001666" lon="10.783629"><ele>159.0</ele><time>2026-03-28T11:38:04.811Z</time></trkpt><trkpt lat="45.5002422" lon="10.7835532"><ele>158.8</ele><time>2026-03-28T11:38:05.81Z</time></trkpt><trkpt lat="45.5003134" lon="10.7834565"><ele>158.60000000000002</ele><time>2026-03-28T11:38:06.811Z</time></trkpt><trkpt lat="45.5003772" lon="10.7833365"><ele>158.4</ele><time>2026-03-28T11:38:07.811Z</time></trkpt><trkpt lat="45.5004377" lon="10.7832001"><ele>158.20000000000002</ele><time>2026-03-28T11:38:08.81Z</time></trkpt><trkpt lat="45.5005015" lon="10.7830745"><ele>158.0</ele><time>2026-03-28T11:38:09.81Z</time></trkpt><trkpt lat="45.5005604" lon="10.7829692"><ele>158.33333333333331</ele><time>2026-03-28T11:38:10.81Z</time></trkpt><trkpt lat="45.5006147" lon="10.7828931"><ele>158.66666666666666</ele><time>2026-03-28T11:38:11.81Z</time></trkpt><trkpt lat="45.5006783" lon="10.7828407"><ele>159.0</ele><time>2026-03-28T11:38:12.809Z</time></trkpt><trkpt lat="45.5007596" lon="10.7828097"><ele>159.33333333333334</ele><time>2026-03-28T11:38:13.81Z</time></trkpt><trkpt lat="45.5008474" lon="10.7827928"><ele>159.66666666666669</ele><time>2026-03-28T11:38:14.811Z</time></trkpt><trkpt lat="45.5009487" lon="10.7827764"><ele>160.0</ele><time>2026-03-28T11:38:15.811Z</time></trkpt><trkpt lat="45.5010581" lon="10.7827655"><ele>160.0</ele><time>2026-03-28T11:38:16.81Z</time></trkpt><trkpt lat="45.5011777" lon="10.7827483"><ele>160.0</ele><time>2026-03-28T11:38:17.81Z</time></trkpt><trkpt lat="45.5012954" lon="10.7827264"><ele>160.0</ele><time>2026-03-28T11:38:18.809Z</time></trkpt><trkpt lat="45.5014158" lon="10.7827042"><ele>160.0</ele><time>2026-03-28T11:38:19.81Z</time></trkpt><trkpt lat="45.5015258" lon="10.7826835"><ele>160.25</ele><time>2026-03-28T11:38:20.81Z</time></trkpt><trkpt lat="45.5016327" lon="10.7826752"><ele>160.5</ele><time>2026-03-28T11:38:21.81Z</time></trkpt><trkpt lat="45.5017475" lon="10.7826949"><ele>160.75</ele><time>2026-03-28T11:38:22.81Z</time></trkpt><trkpt lat="45.5018643" lon="10.7827227"><ele>161.0</ele><time>2026-03-28T11:38:23.81Z</time></trkpt><trkpt lat="45.5019761" lon="10.7827762"><ele>161.0</ele><time>2026-03-28T11:38:24.811Z</time></trkpt><trkpt lat="45.5020805" lon="10.7828372"><ele>161.0</ele><time>2026-03-28T11:38:25.809Z</time></trkpt><trkpt lat="45.5021799" lon="10.7828974"><ele>161.0</ele><time>2026-03-28T11:38:26.809Z</time></trkpt><trkpt lat="45.5022702" lon="10.7829422"><ele>161.0</ele><time>2026-03-28T11:38:27.811Z</time></trkpt><trkpt lat="45.5023536" lon="10.7829651"><ele>161.0</ele><time>2026-03-28T11:38:28.811Z</time></trkpt><trkpt lat="45.50245" lon="10.7829683"><ele>160.0</ele><time>2026-03-28T11:38:29.809Z</time></trkpt><trkpt lat="45.50255" lon="10.7829689"><ele>159.0</ele><time>2026-03-28T11:38:30.81Z</time></trkpt><trkpt lat="45.5026582" lon="10.7829553"><ele>158.0</ele><time>2026-03-28T11:38:31.81Z</time></trkpt><trkpt lat="45.5027549" lon="10.7829489"><ele>157.0</ele><time>2026-03-28T11:38:32.809Z</time></trkpt><trkpt lat="45.5028412" lon="10.7829529"><ele>156.0</ele><time>2026-03-28T11:38:33.81Z</time></trkpt><trkpt lat="45.5029208" lon="10.7829666"><ele>155.4</ele><time>2026-03-28T11:38:34.809Z</time></trkpt><trkpt lat="45.5030004" lon="10.7829998"><ele>154.8</ele><time>2026-03-28T11:38:35.81Z</time></trkpt><trkpt lat="45.5030859" lon="10.783013"><ele>154.20000000000002</ele><time>2026-03-28T11:38:36.809Z</time></trkpt><trkpt lat="45.5031894" lon="10.7830138"><ele>153.6</ele><time>2026-03-28T11:38:37.81Z</time></trkpt><trkpt lat="45.5032989" lon="10.7830331"><ele>153.0</ele><time>2026-03-28T11:38:38.81Z</time></trkpt><trkpt lat="45.503406" lon="10.7830688"><ele>153.0</ele><time>2026-03-28T11:38:39.81Z</time></trkpt><trkpt lat="45.5035061" lon="10.7830905"><ele>153.0</ele><time>2026-03-28T11:38:40.811Z</time></trkpt><trkpt lat="45.5036059" lon="10.7830937"><ele>153.0</ele><time>2026-03-28T11:38:41.81Z</time></trkpt><trkpt lat="45.5037141" lon="10.7830809"><ele>153.0</ele><time>2026-03-28T11:38:42.809Z</time></trkpt><trkpt lat="45.5038247" lon="10.7830604"><ele>153.0</ele><time>2026-03-28T11:38:43.81Z</time></trkpt><trkpt lat="45.5039414" lon="10.7830389"><ele>153.75</ele><time>2026-03-28T11:38:44.811Z</time></trkpt><trkpt lat="45.5040594" lon="10.7830146"><ele>154.5</ele><time>2026-03-28T11:38:45.81Z</time></trkpt><trkpt lat="45.5041868" lon="10.7830014"><ele>155.25</ele><time>2026-03-28T11:38:46.81Z</time></trkpt><trkpt lat="45.5043165" lon="10.7829842"><ele>156.0</ele><time>2026-03-28T11:38:47.811Z</time></trkpt><trkpt lat="45.5044191" lon="10.7829785"><ele>156.0</ele><time>2026-03-28T11:38:48.81Z</time></trkpt><trkpt lat="45.5044986" lon="10.7829918"><ele>156.0</ele><time>2026-03-28T11:38:49.81Z</time></trkpt><trkpt lat="45.5045759" lon="10.783033"><ele>156.0</ele><time>2026-03-28T11:38:50.811Z</time></trkpt><trkpt lat="45.504655" lon="10.7830929"><ele>156.0</ele><time>2026-03-28T11:38:51.81Z</time></trkpt><trkpt lat="45.5047238" lon="10.7831436"><ele>156.0</ele><time>2026-03-28T11:38:52.811Z</time></trkpt><trkpt lat="45.504793" lon="10.7831754"><ele>156.0</ele><time>2026-03-28T11:38:53.809Z</time></trkpt><trkpt lat="45.5048779" lon="10.7831845"><ele>155.2</ele><time>2026-03-28T11:38:54.81Z</time></trkpt><trkpt lat="45.50497" lon="10.7831808"><ele>154.39999999999998</ele><time>2026-03-28T11:38:55.809Z</time></trkpt><trkpt lat="45.5050532" lon="10.7831766"><ele>153.6</ele><time>2026-03-28T11:38:56.809Z</time></trkpt><trkpt lat="45.5051556" lon="10.7832016"><ele>152.79999999999998</ele><time>2026-03-28T11:38:58.81Z</time></trkpt><trkpt lat="45.5052092" lon="10.7833222"><ele>152.0</ele><time>2026-03-28T11:39:00.811Z</time></trkpt><trkpt lat="45.5052238" lon="10.7835273"><ele>151.79999999999998</ele><time>2026-03-28T11:39:02.809Z</time></trkpt><trkpt lat="45.5052243" lon="10.7836569"><ele>151.6</ele><time>2026-03-28T11:39:03.81Z</time></trkpt><trkpt lat="45.5052321" lon="10.7838124"><ele>151.39999999999998</ele><time>2026-03-28T11:39:04.81Z</time></trkpt><trkpt lat="45.5052338" lon="10.7839615"><ele>151.2</ele><time>2026-03-28T11:39:05.809Z</time></trkpt><trkpt lat="45.5052408" lon="10.7841062"><ele>151.0</ele><time>2026-03-28T11:39:06.809Z</time></trkpt><trkpt lat="45.5052397" lon="10.784262"><ele>150.8</ele><time>2026-03-28T11:39:07.81Z</time></trkpt><trkpt lat="45.5052535" lon="10.7844101"><ele>150.6</ele><time>2026-03-28T11:39:08.809Z</time></trkpt><trkpt lat="45.5052993" lon="10.7845116"><ele>150.4</ele><time>2026-03-28T11:39:09.811Z</time></trkpt><trkpt lat="45.50533" lon="10.7846636"><ele>150.2</ele><time>2026-03-28T11:39:10.809Z</time></trkpt><trkpt lat="45.5053619" lon="10.7848382"><ele>150.0</ele><time>2026-03-28T11:39:11.81Z</time></trkpt><trkpt lat="45.505387" lon="10.7850275"><ele>149.75</ele><time>2026-03-28T11:39:12.81Z</time></trkpt><trkpt lat="45.5054089" lon="10.7852302"><ele>149.5</ele><time>2026-03-28T11:39:13.809Z</time></trkpt><trkpt lat="45.5054317" lon="10.7854324"><ele>149.25</ele><time>2026-03-28T11:39:14.81Z</time></trkpt><trkpt lat="45.5054499" lon="10.7856358"><ele>149.0</ele><time>2026-03-28T11:39:15.81Z</time></trkpt><trkpt lat="45.5054695" lon="10.7858489"><ele>148.66666666666666</ele><time>2026-03-28T11:39:16.81Z</time></trkpt><trkpt lat="45.5054973" lon="10.7860637"><ele>148.33333333333334</ele><time>2026-03-28T11:39:17.809Z</time></trkpt><trkpt lat="45.5055217" lon="10.7862786"><ele>148.0</ele><time>2026-03-28T11:39:18.809Z</time></trkpt><trkpt lat="45.5055444" lon="10.7864985"><ele>148.0</ele><time>2026-03-28T11:39:19.809Z</time></trkpt><trkpt lat="45.5055735" lon="10.7867228"><ele>148.0</ele><time>2026-03-28T11:39:20.811Z</time></trkpt><trkpt lat="45.5056025" lon="10.7869483"><ele>148.0</ele><time>2026-03-28T11:39:21.81Z</time></trkpt><trkpt lat="45.5056319" lon="10.7871782"><ele>147.33333333333334</ele><time>2026-03-28T11:39:22.81Z</time></trkpt><trkpt lat="45.5056595" lon="10.7874007"><ele>146.66666666666666</ele><time>2026-03-28T11:39:23.81Z</time></trkpt><trkpt lat="45.5056859" lon="10.7876103"><ele>146.0</ele><time>2026-03-28T11:39:24.81Z</time></trkpt><trkpt lat="45.5057098" lon="10.7878212"><ele>146.0</ele><time>2026-03-28T11:39:25.81Z</time></trkpt><trkpt lat="45.5057343" lon="10.788018"><ele>146.0</ele><time>2026-03-28T11:39:26.81Z</time></trkpt><trkpt lat="45.5057555" lon="10.7881933"><ele>146.0</ele><time>2026-03-28T11:39:27.81Z</time></trkpt><trkpt lat="45.5057867" lon="10.7883378"><ele>146.0</ele><time>2026-03-28T11:39:28.81Z</time></trkpt><trkpt lat="45.5058408" lon="10.7884892"><ele>145.75</ele><time>2026-03-28T11:39:29.809Z</time></trkpt><trkpt lat="45.5059046" lon="10.7886493"><ele>145.5</ele><time>2026-03-28T11:39:30.811Z</time></trkpt><trkpt lat="45.5059494" lon="10.7888012"><ele>145.25</ele><time>2026-03-28T11:39:31.809Z</time></trkpt><trkpt lat="45.5059926" lon="10.7889699"><ele>145.0</ele><time>2026-03-28T11:39:32.808Z</time></trkpt><trkpt lat="45.5060296" lon="10.7891336"><ele>145.0</ele><time>2026-03-28T11:39:33.809Z</time></trkpt><trkpt lat="45.5060656" lon="10.7892841"><ele>145.0</ele><time>2026-03-28T11:39:34.809Z</time></trkpt><trkpt lat="45.5060919" lon="10.7894023"><ele>145.0</ele><time>2026-03-28T11:39:35.808Z</time></trkpt><trkpt lat="45.5061169" lon="10.7895337"><ele>145.0</ele><time>2026-03-28T11:39:36.809Z</time></trkpt><trkpt lat="45.5061413" lon="10.789646"><ele>145.0</ele><time>2026-03-28T11:39:37.81Z</time></trkpt><trkpt lat="45.5061635" lon="10.789748"><ele>145.6</ele><time>2026-03-28T11:39:38.809Z</time></trkpt><trkpt lat="45.5061856" lon="10.7898708"><ele>146.2</ele><time>2026-03-28T11:39:39.81Z</time></trkpt><trkpt lat="45.5062058" lon="10.7899887"><ele>146.8</ele><time>2026-03-28T11:39:40.809Z</time></trkpt><trkpt lat="45.5062264" lon="10.7901406"><ele>147.4</ele><time>2026-03-28T11:39:41.809Z</time></trkpt><trkpt lat="45.5062506" lon="10.7903046"><ele>148.0</ele><time>2026-03-28T11:39:42.81Z</time></trkpt><trkpt lat="45.5062699" lon="10.7904415"><ele>148.0</ele><time>2026-03-28T11:39:43.81Z</time></trkpt><trkpt lat="45.506287" lon="10.7905685"><ele>148.0</ele><time>2026-03-28T11:39:44.81Z</time></trkpt><trkpt lat="45.5063022" lon="10.7907284"><ele>148.0</ele><time>2026-03-28T11:39:45.81Z</time></trkpt><trkpt lat="45.5063196" lon="10.7908905"><ele>148.0</ele><time>2026-03-28T11:39:46.81Z</time></trkpt><trkpt lat="45.5063372" lon="10.7910562"><ele>148.0</ele><time>2026-03-28T11:39:47.809Z</time></trkpt><trkpt lat="45.5063517" lon="10.7912219"><ele>148.25</ele><time>2026-03-28T11:39:48.809Z</time></trkpt><trkpt lat="45.5063651" lon="10.7914061"><ele>148.5</ele><time>2026-03-28T11:39:49.81Z</time></trkpt><trkpt lat="45.5063771" lon="10.7915884"><ele>148.75</ele><time>2026-03-28T11:39:50.81Z</time></trkpt><trkpt lat="45.5063948" lon="10.7917557"><ele>149.0</ele><time>2026-03-28T11:39:51.809Z</time></trkpt><trkpt lat="45.5064218" lon="10.7919296"><ele>149.0</ele><time>2026-03-28T11:39:52.809Z</time></trkpt><trkpt lat="45.5064605" lon="10.792108"><ele>149.0</ele><time>2026-03-28T11:39:53.809Z</time></trkpt><trkpt lat="45.5064988" lon="10.7922912"><ele>149.0</ele><time>2026-03-28T11:39:54.809Z</time></trkpt><trkpt lat="45.5065402" lon="10.7924695"><ele>149.0</ele><time>2026-03-28T11:39:55.809Z</time></trkpt><trkpt lat="45.5065799" lon="10.7926436"><ele>149.2</ele><time>2026-03-28T11:39:56.809Z</time></trkpt><trkpt lat="45.5066081" lon="10.7927885"><ele>149.4</ele><time>2026-03-28T11:39:57.808Z</time></trkpt><trkpt lat="45.5066296" lon="10.7929202"><ele>149.6</ele><time>2026-03-28T11:39:58.81Z</time></trkpt><trkpt lat="45.5066426" lon="10.7930515"><ele>149.8</ele><time>2026-03-28T11:39:59.809Z</time></trkpt><trkpt lat="45.5066508" lon="10.7932044"><ele>150.0</ele><time>2026-03-28T11:40:00.809Z</time></trkpt><trkpt lat="45.5066444" lon="10.7933733"><ele>150.5</ele><time>2026-03-28T11:40:01.808Z</time></trkpt><trkpt lat="45.5066371" lon="10.7935512"><ele>151.0</ele><time>2026-03-28T11:40:02.808Z</time></trkpt><trkpt lat="45.5066286" lon="10.7937391"><ele>151.5</ele><time>2026-03-28T11:40:03.809Z</time></trkpt><trkpt lat="45.5066145" lon="10.7939367"><ele>152.0</ele><time>2026-03-28T11:40:04.808Z</time></trkpt><trkpt lat="45.5065994" lon="10.7941345"><ele>152.0</ele><time>2026-03-28T11:40:05.809Z</time></trkpt><trkpt lat="45.5065867" lon="10.7943323"><ele>152.0</ele><time>2026-03-28T11:40:06.81Z</time></trkpt><trkpt lat="45.5065727" lon="10.794514"><ele>152.0</ele><time>2026-03-28T11:40:07.809Z</time></trkpt><trkpt lat="45.506564" lon="10.794674"><ele>152.0</ele><time>2026-03-28T11:40:08.808Z</time></trkpt><trkpt lat="45.5065607" lon="10.7948277"><ele>151.83333333333331</ele><time>2026-03-28T11:40:09.81Z</time></trkpt><trkpt lat="45.5065598" lon="10.7949437"><ele>151.66666666666666</ele><time>2026-03-28T11:40:10.809Z</time></trkpt><trkpt lat="45.5065536" lon="10.7950907"><ele>151.5</ele><time>2026-03-28T11:40:12.809Z</time></trkpt><trkpt lat="45.5065235" lon="10.7951749"><ele>151.33333333333334</ele><time>2026-03-28T11:40:14.808Z</time></trkpt><trkpt lat="45.506458" lon="10.795244"><ele>151.16666666666669</ele><time>2026-03-28T11:40:17.809Z</time></trkpt><trkpt lat="45.5064388" lon="10.7953388"><ele>151.0</ele><time>2026-03-28T11:40:22.809Z</time></trkpt><trkpt lat="45.5065151" lon="10.7953446"><ele>150.85714285714286</ele><time>2026-03-28T11:40:24.808Z</time></trkpt><trkpt lat="45.5065786" lon="10.7953355"><ele>150.71428571428572</ele><time>2026-03-28T11:40:26.809Z</time></trkpt><trkpt lat="45.5066656" lon="10.7953933"><ele>150.57142857142856</ele><time>2026-03-28T11:40:28.808Z</time></trkpt><trkpt lat="45.5067245" lon="10.7954271"><ele>150.42857142857144</ele><time>2026-03-28T11:40:29.809Z</time></trkpt><trkpt lat="45.5067914" lon="10.7954473"><ele>150.28571428571428</ele><time>2026-03-28T11:40:30.808Z</time></trkpt><trkpt lat="45.5068648" lon="10.7954236"><ele>150.14285714285714</ele><time>2026-03-28T11:40:31.809Z</time></trkpt><trkpt lat="45.5069265" lon="10.7953576"><ele>150.0</ele><time>2026-03-28T11:40:32.808Z</time></trkpt><trkpt lat="45.5069553" lon="10.7952394"><ele>150.2</ele><time>2026-03-28T11:40:33.809Z</time></trkpt><trkpt lat="45.5069577" lon="10.795115"><ele>150.4</ele><time>2026-03-28T11:40:34.81Z</time></trkpt><trkpt lat="45.5069513" lon="10.7949776"><ele>150.6</ele><time>2026-03-28T11:40:35.808Z</time></trkpt><trkpt lat="45.5069761" lon="10.7948495"><ele>150.8</ele><time>2026-03-28T11:40:36.809Z</time></trkpt><trkpt lat="45.5070298" lon="10.794726"><ele>151.0</ele><time>2026-03-28T11:40:37.808Z</time></trkpt><trkpt lat="45.5071106" lon="10.7946233"><ele>151.0</ele><time>2026-03-28T11:40:38.809Z</time></trkpt><trkpt lat="45.5072034" lon="10.7945245"><ele>151.0</ele><time>2026-03-28T11:40:39.808Z</time></trkpt><trkpt lat="45.5072972" lon="10.7944194"><ele>151.0</ele><time>2026-03-28T11:40:40.809Z</time></trkpt><trkpt lat="45.507393" lon="10.7943112"><ele>151.0</ele><time>2026-03-28T11:40:41.809Z</time></trkpt><trkpt lat="45.5074928" lon="10.7941989"><ele>151.0</ele><time>2026-03-28T11:40:42.808Z</time></trkpt><trkpt lat="45.5075862" lon="10.7940873"><ele>151.0</ele><time>2026-03-28T11:40:43.809Z</time></trkpt><trkpt lat="45.5076807" lon="10.7939746"><ele>151.0</ele><time>2026-03-28T11:40:44.81Z</time></trkpt><trkpt lat="45.5077735" lon="10.7938604"><ele>151.0</ele><time>2026-03-28T11:40:45.809Z</time></trkpt><trkpt lat="45.5078592" lon="10.7937483"><ele>151.0</ele><time>2026-03-28T11:40:46.808Z</time></trkpt><trkpt lat="45.5079513" lon="10.7936394"><ele>151.0</ele><time>2026-03-28T11:40:47.809Z</time></trkpt><trkpt lat="45.5080434" lon="10.793534"><ele>151.0</ele><time>2026-03-28T11:40:48.809Z</time></trkpt><trkpt lat="45.5081393" lon="10.7934282"><ele>151.0</ele><time>2026-03-28T11:40:49.81Z</time></trkpt><trkpt lat="45.5082398" lon="10.7933171"><ele>151.0</ele><time>2026-03-28T11:40:50.808Z</time></trkpt><trkpt lat="45.5083408" lon="10.7932042"><ele>151.0</ele><time>2026-03-28T11:40:51.808Z</time></trkpt><trkpt lat="45.5084442" lon="10.7930904"><ele>151.0</ele><time>2026-03-28T11:40:52.809Z</time></trkpt><trkpt lat="45.5085452" lon="10.7929652"><ele>151.0</ele><time>2026-03-28T11:40:53.809Z</time></trkpt><trkpt lat="45.5086542" lon="10.7928431"><ele>151.25</ele><time>2026-03-28T11:40:54.808Z</time></trkpt><trkpt lat="45.5087592" lon="10.7927244"><ele>151.5</ele><time>2026-03-28T11:40:55.81Z</time></trkpt><trkpt lat="45.5088637" lon="10.7926015"><ele>151.75</ele><time>2026-03-28T11:40:56.809Z</time></trkpt><trkpt lat="45.5089731" lon="10.7924821"><ele>152.0</ele><time>2026-03-28T11:40:57.81Z</time></trkpt><trkpt lat="45.5090865" lon="10.7923691"><ele>152.0</ele><time>2026-03-28T11:40:58.808Z</time></trkpt><trkpt lat="45.5091879" lon="10.7922402"><ele>152.0</ele><time>2026-03-28T11:40:59.81Z</time></trkpt><trkpt lat="45.509278" lon="10.7920887"><ele>152.0</ele><time>2026-03-28T11:41:00.809Z</time></trkpt><trkpt lat="45.5093499" lon="10.79192"><ele>152.0</ele><time>2026-03-28T11:41:01.81Z</time></trkpt><trkpt lat="45.509413" lon="10.7917437"><ele>151.75</ele><time>2026-03-28T11:41:02.809Z</time></trkpt><trkpt lat="45.5094712" lon="10.7915606"><ele>151.5</ele><time>2026-03-28T11:41:03.809Z</time></trkpt><trkpt lat="45.5095229" lon="10.7913761"><ele>151.25</ele><time>2026-03-28T11:41:04.808Z</time></trkpt><trkpt lat="45.5095635" lon="10.79118"><ele>151.0</ele><time>2026-03-28T11:41:05.809Z</time></trkpt><trkpt lat="45.5095985" lon="10.7909811"><ele>151.5</ele><time>2026-03-28T11:41:06.81Z</time></trkpt><trkpt lat="45.5096191" lon="10.7907735"><ele>152.0</ele><time>2026-03-28T11:41:07.809Z</time></trkpt><trkpt lat="45.5096292" lon="10.7905619"><ele>152.5</ele><time>2026-03-28T11:41:08.809Z</time></trkpt><trkpt lat="45.5096302" lon="10.7903462"><ele>153.0</ele><time>2026-03-28T11:41:09.81Z</time></trkpt><trkpt lat="45.5096311" lon="10.7901339"><ele>153.33333333333334</ele><time>2026-03-28T11:41:10.809Z</time></trkpt><trkpt lat="45.5096292" lon="10.7899156"><ele>153.66666666666669</ele><time>2026-03-28T11:41:11.808Z</time></trkpt><trkpt lat="45.509632" lon="10.7896935"><ele>154.0</ele><time>2026-03-28T11:41:12.81Z</time></trkpt><trkpt lat="45.509639" lon="10.7894718"><ele>153.33333333333334</ele><time>2026-03-28T11:41:13.808Z</time></trkpt><trkpt lat="45.5096482" lon="10.7892476"><ele>152.66666666666666</ele><time>2026-03-28T11:41:14.809Z</time></trkpt><trkpt lat="45.5096672" lon="10.7890204"><ele>152.0</ele><time>2026-03-28T11:41:15.809Z</time></trkpt><trkpt lat="45.5096974" lon="10.7887958"><ele>152.0</ele><time>2026-03-28T11:41:16.808Z</time></trkpt><trkpt lat="45.5097281" lon="10.7885754"><ele>152.0</ele><time>2026-03-28T11:41:17.809Z</time></trkpt><trkpt lat="45.5097621" lon="10.788362"><ele>152.0</ele><time>2026-03-28T11:41:18.809Z</time></trkpt><trkpt lat="45.5097863" lon="10.7881479"><ele>151.66666666666666</ele><time>2026-03-28T11:41:19.81Z</time></trkpt><trkpt lat="45.5097867" lon="10.7879279"><ele>151.33333333333334</ele><time>2026-03-28T11:41:20.81Z</time></trkpt><trkpt lat="45.5097658" lon="10.7877079"><ele>151.0</ele><time>2026-03-28T11:41:21.809Z</time></trkpt><trkpt lat="45.5097396" lon="10.7874847"><ele>151.33333333333334</ele><time>2026-03-28T11:41:22.808Z</time></trkpt><trkpt lat="45.5097059" lon="10.7872603"><ele>151.66666666666666</ele><time>2026-03-28T11:41:23.808Z</time></trkpt><trkpt lat="45.509665" lon="10.7870344"><ele>152.0</ele><time>2026-03-28T11:41:24.809Z</time></trkpt><trkpt lat="45.5096162" lon="10.7868094"><ele>151.33333333333331</ele><time>2026-03-28T11:41:25.808Z</time></trkpt><trkpt lat="45.5095609" lon="10.7865908"><ele>150.66666666666666</ele><time>2026-03-28T11:41:26.808Z</time></trkpt><trkpt lat="45.5094985" lon="10.7863766"><ele>150.0</ele><time>2026-03-28T11:41:27.808Z</time></trkpt><trkpt lat="45.5094321" lon="10.7861677"><ele>150.5</ele><time>2026-03-28T11:41:28.808Z</time></trkpt><trkpt lat="45.5093735" lon="10.7859643"><ele>151.0</ele><time>2026-03-28T11:41:29.809Z</time></trkpt><trkpt lat="45.5093257" lon="10.7857605"><ele>151.5</ele><time>2026-03-28T11:41:30.809Z</time></trkpt><trkpt lat="45.5092951" lon="10.7855757"><ele>152.0</ele><time>2026-03-28T11:41:31.809Z</time></trkpt><trkpt lat="45.509274" lon="10.7854072"><ele>152.0</ele><time>2026-03-28T11:41:32.809Z</time></trkpt><trkpt lat="45.5092559" lon="10.7852465"><ele>152.0</ele><time>2026-03-28T11:41:33.809Z</time></trkpt><trkpt lat="45.5092441" lon="10.7851026"><ele>152.0</ele><time>2026-03-28T11:41:34.809Z</time></trkpt><trkpt lat="45.5092408" lon="10.7849727"><ele>152.0</ele><time>2026-03-28T11:41:35.81Z</time></trkpt><trkpt lat="45.5092423" lon="10.7848542"><ele>152.0</ele><time>2026-03-28T11:41:36.809Z</time></trkpt><trkpt lat="45.5092473" lon="10.784747"><ele>152.33333333333331</ele><time>2026-03-28T11:41:37.81Z</time></trkpt><trkpt lat="45.5092565" lon="10.7846455"><ele>152.66666666666666</ele><time>2026-03-28T11:41:38.809Z</time></trkpt><trkpt lat="45.5092627" lon="10.7845343"><ele>153.0</ele><time>2026-03-28T11:41:39.808Z</time></trkpt><trkpt lat="45.5092659" lon="10.7844145"><ele>153.33333333333334</ele><time>2026-03-28T11:41:40.81Z</time></trkpt><trkpt lat="45.5092719" lon="10.784291"><ele>153.66666666666669</ele><time>2026-03-28T11:41:41.809Z</time></trkpt><trkpt lat="45.5092784" lon="10.7841564"><ele>154.0</ele><time>2026-03-28T11:41:42.808Z</time></trkpt><trkpt lat="45.509283" lon="10.7840127"><ele>154.0</ele><time>2026-03-28T11:41:43.809Z</time></trkpt><trkpt lat="45.5092881" lon="10.7838641"><ele>154.0</ele><time>2026-03-28T11:41:44.81Z</time></trkpt><trkpt lat="45.509298" lon="10.7837225"><ele>154.0</ele><time>2026-03-28T11:41:45.809Z</time></trkpt><trkpt lat="45.5093061" lon="10.7835806"><ele>154.0</ele><time>2026-03-28T11:41:46.809Z</time></trkpt><trkpt lat="45.5093145" lon="10.7834392"><ele>154.0</ele><time>2026-03-28T11:41:47.81Z</time></trkpt><trkpt lat="45.5093214" lon="10.7833023"><ele>154.0</ele><time>2026-03-28T11:41:48.809Z</time></trkpt><trkpt lat="45.5093278" lon="10.7831673"><ele>154.0</ele><time>2026-03-28T11:41:49.81Z</time></trkpt><trkpt lat="45.509337" lon="10.7830314"><ele>154.0</ele><time>2026-03-28T11:41:50.808Z</time></trkpt><trkpt lat="45.5093432" lon="10.7829036"><ele>154.0</ele><time>2026-03-28T11:41:51.81Z</time></trkpt><trkpt lat="45.5093505" lon="10.7827871"><ele>154.0</ele><time>2026-03-28T11:41:52.809Z</time></trkpt><trkpt lat="45.5093653" lon="10.7826872"><ele>154.0</ele><time>2026-03-28T11:41:53.808Z</time></trkpt><trkpt lat="45.5093883" lon="10.7825752"><ele>154.0</ele><time>2026-03-28T11:41:55.809Z</time></trkpt><trkpt lat="45.509352" lon="10.7826601"><ele>154.0</ele><time>2026-03-28T11:42:13.81Z</time></trkpt><trkpt lat="45.5093931" lon="10.7828365"><ele>154.0</ele><time>2026-03-28T11:42:15.809Z</time></trkpt><trkpt lat="45.509403" lon="10.7830038"><ele>154.0</ele><time>2026-03-28T11:42:17.808Z</time></trkpt><trkpt lat="45.5094121" lon="10.7831352"><ele>154.0</ele><time>2026-03-28T11:42:19.809Z</time></trkpt><trkpt lat="45.5094302" lon="10.7832592"><ele>154.0</ele><time>2026-03-28T11:42:21.809Z</time></trkpt><trkpt lat="45.5094528" lon="10.7834219"><ele>154.0</ele><time>2026-03-28T11:42:23.81Z</time></trkpt><trkpt lat="45.509472" lon="10.7835097"><ele>154.0</ele><time>2026-03-28T11:42:24.809Z</time></trkpt><trkpt lat="45.509535" lon="10.7836269"><ele>154.0</ele><time>2026-03-28T11:42:26.809Z</time></trkpt><trkpt lat="45.5096327" lon="10.783637"><ele>154.0</ele><time>2026-03-28T11:42:28.809Z</time></trkpt><trkpt lat="45.5096986" lon="10.783606"><ele>153.8</ele><time>2026-03-28T11:42:29.81Z</time></trkpt><trkpt lat="45.509767" lon="10.7835742"><ele>153.60000000000002</ele><time>2026-03-28T11:42:30.809Z</time></trkpt><trkpt lat="45.5098416" lon="10.7835384"><ele>153.4</ele><time>2026-03-28T11:42:31.808Z</time></trkpt><trkpt lat="45.5099309" lon="10.7834967"><ele>153.20000000000002</ele><time>2026-03-28T11:42:32.809Z</time></trkpt><trkpt lat="45.5100306" lon="10.7834552"><ele>153.0</ele><time>2026-03-28T11:42:33.809Z</time></trkpt><trkpt lat="45.5101388" lon="10.7834104"><ele>152.8</ele><time>2026-03-28T11:42:34.809Z</time></trkpt><trkpt lat="45.5102501" lon="10.7833685"><ele>152.60000000000002</ele><time>2026-03-28T11:42:35.808Z</time></trkpt><trkpt lat="45.5103573" lon="10.783326"><ele>152.39999999999998</ele><time>2026-03-28T11:42:36.808Z</time></trkpt><trkpt lat="45.5104628" lon="10.783291"><ele>152.2</ele><time>2026-03-28T11:42:37.809Z</time></trkpt><trkpt lat="45.5105549" lon="10.7832613"><ele>152.0</ele><time>2026-03-28T11:42:38.809Z</time></trkpt><trkpt lat="45.5106321" lon="10.78323"><ele>152.66666666666666</ele><time>2026-03-28T11:42:39.809Z</time></trkpt><trkpt lat="45.5106978" lon="10.7832277"><ele>153.33333333333331</ele><time>2026-03-28T11:42:40.81Z</time></trkpt><trkpt lat="45.5108063" lon="10.7833123"><ele>154.0</ele><time>2026-03-28T11:42:42.81Z</time></trkpt><trkpt lat="45.5108494" lon="10.783398"><ele>154.66666666666666</ele><time>2026-03-28T11:42:43.81Z</time></trkpt><trkpt lat="45.510885" lon="10.7834945"><ele>155.33333333333334</ele><time>2026-03-28T11:42:44.809Z</time></trkpt><trkpt lat="45.5109099" lon="10.7835873"><ele>156.0</ele><time>2026-03-28T11:42:45.809Z</time></trkpt><trkpt lat="45.5109581" lon="10.7837362"><ele>156.0</ele><time>2026-03-28T11:42:47.809Z</time></trkpt><trkpt lat="45.5110215" lon="10.7838797"><ele>156.0</ele><time>2026-03-28T11:42:49.808Z</time></trkpt><trkpt lat="45.5110653" lon="10.7839565"><ele>156.0</ele><time>2026-03-28T11:42:50.809Z</time></trkpt><trkpt lat="45.5111016" lon="10.7840409"><ele>156.0</ele><time>2026-03-28T11:42:51.809Z</time></trkpt><trkpt lat="45.5111319" lon="10.7841466"><ele>156.0</ele><time>2026-03-28T11:42:52.81Z</time></trkpt><trkpt lat="45.5111593" lon="10.7842354"><ele>156.0</ele><time>2026-03-28T11:42:53.809Z</time></trkpt><trkpt lat="45.5112266" lon="10.7843525"><ele>156.2</ele><time>2026-03-28T11:42:55.809Z</time></trkpt><trkpt lat="45.5113373" lon="10.7843562"><ele>156.39999999999998</ele><time>2026-03-28T11:42:57.809Z</time></trkpt><trkpt lat="45.5114101" lon="10.7843681"><ele>156.6</ele><time>2026-03-28T11:42:58.809Z</time></trkpt><trkpt lat="45.5114961" lon="10.7843846"><ele>156.79999999999998</ele><time>2026-03-28T11:42:59.809Z</time></trkpt><trkpt lat="45.5115953" lon="10.784386"><ele>157.0</ele><time>2026-03-28T11:43:00.81Z</time></trkpt><trkpt lat="45.5116941" lon="10.7843852"><ele>157.0</ele><time>2026-03-28T11:43:01.809Z</time></trkpt><trkpt lat="45.5117888" lon="10.7843861"><ele>157.0</ele><time>2026-03-28T11:43:02.808Z</time></trkpt><trkpt lat="45.5118595" lon="10.7843917"><ele>157.0</ele><time>2026-03-28T11:43:03.809Z</time></trkpt><trkpt lat="45.5119527" lon="10.7843972"><ele>157.0</ele><time>2026-03-28T11:43:05.809Z</time></trkpt><trkpt lat="45.5120305" lon="10.7843552"><ele>157.0</ele><time>2026-03-28T11:43:08.809Z</time></trkpt><trkpt lat="45.5121443" lon="10.78435"><ele>156.6</ele><time>2026-03-28T11:43:10.808Z</time></trkpt><trkpt lat="45.512222" lon="10.7843736"><ele>156.2</ele><time>2026-03-28T11:43:11.81Z</time></trkpt><trkpt lat="45.5123091" lon="10.7843876"><ele>155.8</ele><time>2026-03-28T11:43:12.809Z</time></trkpt><trkpt lat="45.5124031" lon="10.784387"><ele>155.4</ele><time>2026-03-28T11:43:13.809Z</time></trkpt><trkpt lat="45.5125067" lon="10.7843851"><ele>155.0</ele><time>2026-03-28T11:43:14.809Z</time></trkpt><trkpt lat="45.5126191" lon="10.7843867"><ele>155.0</ele><time>2026-03-28T11:43:15.81Z</time></trkpt><trkpt lat="45.5127392" lon="10.7843896"><ele>155.0</ele><time>2026-03-28T11:43:16.808Z</time></trkpt><trkpt lat="45.5128669" lon="10.7843891"><ele>155.0</ele><time>2026-03-28T11:43:17.809Z</time></trkpt><trkpt lat="45.512997" lon="10.7843811"><ele>155.0</ele><time>2026-03-28T11:43:18.808Z</time></trkpt><trkpt lat="45.5131219" lon="10.7843756"><ele>155.75</ele><time>2026-03-28T11:43:19.808Z</time></trkpt><trkpt lat="45.5132435" lon="10.7843663"><ele>156.5</ele><time>2026-03-28T11:43:20.809Z</time></trkpt><trkpt lat="45.5133584" lon="10.7843567"><ele>157.25</ele><time>2026-03-28T11:43:21.809Z</time></trkpt><trkpt lat="45.513476" lon="10.7843452"><ele>158.0</ele><time>2026-03-28T11:43:22.809Z</time></trkpt><trkpt lat="45.5136006" lon="10.7843248"><ele>158.0</ele><time>2026-03-28T11:43:23.809Z</time></trkpt><trkpt lat="45.513731" lon="10.784307"><ele>158.0</ele><time>2026-03-28T11:43:24.809Z</time></trkpt><trkpt lat="45.5138645" lon="10.78429"><ele>158.0</ele><time>2026-03-28T11:43:25.809Z</time></trkpt><trkpt lat="45.5139994" lon="10.7842698"><ele>158.0</ele><time>2026-03-28T11:43:26.808Z</time></trkpt><trkpt lat="45.5141357" lon="10.7842467"><ele>159.0</ele><time>2026-03-28T11:43:27.81Z</time></trkpt><trkpt lat="45.5142723" lon="10.7842235"><ele>160.0</ele><time>2026-03-28T11:43:28.809Z</time></trkpt><trkpt lat="45.5144088" lon="10.7842008"><ele>161.0</ele><time>2026-03-28T11:43:29.81Z</time></trkpt><trkpt lat="45.5145502" lon="10.7841718"><ele>162.0</ele><time>2026-03-28T11:43:30.809Z</time></trkpt><trkpt lat="45.5146919" lon="10.7841421"><ele>162.75</ele><time>2026-03-28T11:43:31.809Z</time></trkpt><trkpt lat="45.5148348" lon="10.7841162"><ele>163.5</ele><time>2026-03-28T11:43:32.809Z</time></trkpt><trkpt lat="45.5149729" lon="10.7840916"><ele>164.25</ele><time>2026-03-28T11:43:33.809Z</time></trkpt><trkpt lat="45.5150978" lon="10.7840642"><ele>165.0</ele><time>2026-03-28T11:43:34.81Z</time></trkpt><trkpt lat="45.5152064" lon="10.7840355"><ele>165.0</ele><time>2026-03-28T11:43:35.809Z</time></trkpt><trkpt lat="45.5152977" lon="10.7839904"><ele>165.0</ele><time>2026-03-28T11:43:36.809Z</time></trkpt><trkpt lat="45.5153688" lon="10.7839327"><ele>165.0</ele><time>2026-03-28T11:43:37.809Z</time></trkpt><trkpt lat="45.5154319" lon="10.783866"><ele>165.0</ele><time>2026-03-28T11:43:38.809Z</time></trkpt><trkpt lat="45.5155141" lon="10.7838044"><ele>165.0</ele><time>2026-03-28T11:43:39.81Z</time></trkpt><trkpt lat="45.5156121" lon="10.7837482"><ele>165.2</ele><time>2026-03-28T11:43:40.809Z</time></trkpt><trkpt lat="45.5157081" lon="10.7837076"><ele>165.4</ele><time>2026-03-28T11:43:41.808Z</time></trkpt><trkpt lat="45.5158084" lon="10.7836941"><ele>165.60000000000002</ele><time>2026-03-28T11:43:42.808Z</time></trkpt><trkpt lat="45.5159201" lon="10.7837004"><ele>165.8</ele><time>2026-03-28T11:43:43.808Z</time></trkpt><trkpt lat="45.5160453" lon="10.7837081"><ele>166.0</ele><time>2026-03-28T11:43:44.808Z</time></trkpt><trkpt lat="45.5161687" lon="10.7837154"><ele>166.5</ele><time>2026-03-28T11:43:45.808Z</time></trkpt><trkpt lat="45.5162899" lon="10.7837059"><ele>167.0</ele><time>2026-03-28T11:43:46.808Z</time></trkpt><trkpt lat="45.5164191" lon="10.7836779"><ele>167.5</ele><time>2026-03-28T11:43:47.808Z</time></trkpt><trkpt lat="45.5165479" lon="10.7836552"><ele>168.0</ele><time>2026-03-28T11:43:48.809Z</time></trkpt><trkpt lat="45.5166686" lon="10.7836289"><ele>168.0</ele><time>2026-03-28T11:43:49.808Z</time></trkpt><trkpt lat="45.5167648" lon="10.7836102"><ele>168.0</ele><time>2026-03-28T11:43:50.808Z</time></trkpt><trkpt lat="45.5168391" lon="10.7835834"><ele>168.0</ele><time>2026-03-28T11:43:51.81Z</time></trkpt><trkpt lat="45.5169061" lon="10.7834838"><ele>168.0</ele><time>2026-03-28T11:43:53.809Z</time></trkpt><trkpt lat="45.5169272" lon="10.7833964"><ele>168.0</ele><time>2026-03-28T11:43:55.809Z</time></trkpt><trkpt lat="45.5169792" lon="10.7834956"><ele>168.0</ele><time>2026-03-28T11:43:59.81Z</time></trkpt><trkpt lat="45.5170449" lon="10.7835656"><ele>168.0</ele><time>2026-03-28T11:44:01.809Z</time></trkpt><trkpt lat="45.5171146" lon="10.783554"><ele>168.0</ele><time>2026-03-28T11:44:02.809Z</time></trkpt><trkpt lat="45.5171963" lon="10.7835326"><ele>168.0</ele><time>2026-03-28T11:44:03.81Z</time></trkpt><trkpt lat="45.517295" lon="10.7835049"><ele>168.0</ele><time>2026-03-28T11:44:04.809Z</time></trkpt><trkpt lat="45.5174068" lon="10.7834796"><ele>168.0</ele><time>2026-03-28T11:44:05.808Z</time></trkpt><trkpt lat="45.5175231" lon="10.7834457"><ele>168.0</ele><time>2026-03-28T11:44:06.809Z</time></trkpt><trkpt lat="45.5176542" lon="10.7834058"><ele>168.0</ele><time>2026-03-28T11:44:07.809Z</time></trkpt><trkpt lat="45.517789" lon="10.7833721"><ele>168.0</ele><time>2026-03-28T11:44:08.809Z</time></trkpt><trkpt lat="45.5179312" lon="10.7833397"><ele>168.0</ele><time>2026-03-28T11:44:09.81Z</time></trkpt><trkpt lat="45.5180812" lon="10.7832981"><ele>169.0</ele><time>2026-03-28T11:44:10.809Z</time></trkpt><trkpt lat="45.5182364" lon="10.7832506"><ele>170.0</ele><time>2026-03-28T11:44:11.808Z</time></trkpt><trkpt lat="45.5183956" lon="10.7832057"><ele>171.0</ele><time>2026-03-28T11:44:12.809Z</time></trkpt><trkpt lat="45.5185578" lon="10.783161"><ele>171.0</ele><time>2026-03-28T11:44:13.808Z</time></trkpt><trkpt lat="45.5187279" lon="10.7831192"><ele>171.0</ele><time>2026-03-28T11:44:14.81Z</time></trkpt><trkpt lat="45.5189004" lon="10.7830743"><ele>171.0</ele><time>2026-03-28T11:44:15.809Z</time></trkpt><trkpt lat="45.5190751" lon="10.7830253"><ele>170.0</ele><time>2026-03-28T11:44:16.809Z</time></trkpt><trkpt lat="45.5192458" lon="10.782978"><ele>169.0</ele><time>2026-03-28T11:44:17.81Z</time></trkpt><trkpt lat="45.5194217" lon="10.7829269"><ele>168.0</ele><time>2026-03-28T11:44:18.81Z</time></trkpt><trkpt lat="45.5195953" lon="10.7828719"><ele>167.66666666666666</ele><time>2026-03-28T11:44:19.808Z</time></trkpt><trkpt lat="45.5197707" lon="10.7828263"><ele>167.33333333333331</ele><time>2026-03-28T11:44:20.808Z</time></trkpt><trkpt lat="45.5199463" lon="10.7827888"><ele>167.0</ele><time>2026-03-28T11:44:21.809Z</time></trkpt><trkpt lat="45.5201222" lon="10.7827529"><ele>167.0</ele><time>2026-03-28T11:44:22.809Z</time></trkpt><trkpt lat="45.5202996" lon="10.7827211"><ele>167.0</ele><time>2026-03-28T11:44:23.808Z</time></trkpt><trkpt lat="45.5204793" lon="10.7826914"><ele>167.0</ele><time>2026-03-28T11:44:24.809Z</time></trkpt><trkpt lat="45.5206514" lon="10.7826598"><ele>167.33333333333331</ele><time>2026-03-28T11:44:25.81Z</time></trkpt><trkpt lat="45.5208079" lon="10.782624"><ele>167.66666666666666</ele><time>2026-03-28T11:44:26.809Z</time></trkpt><trkpt lat="45.5209527" lon="10.7825769"><ele>168.0</ele><time>2026-03-28T11:44:27.809Z</time></trkpt><trkpt lat="45.521095" lon="10.782527"><ele>168.66666666666666</ele><time>2026-03-28T11:44:28.81Z</time></trkpt><trkpt lat="45.5212408" lon="10.7824787"><ele>169.33333333333331</ele><time>2026-03-28T11:44:29.809Z</time></trkpt><trkpt lat="45.5213931" lon="10.7824334"><ele>170.0</ele><time>2026-03-28T11:44:30.808Z</time></trkpt><trkpt lat="45.5215515" lon="10.7823882"><ele>170.0</ele><time>2026-03-28T11:44:31.808Z</time></trkpt><trkpt lat="45.5217153" lon="10.7823407"><ele>170.0</ele><time>2026-03-28T11:44:32.809Z</time></trkpt><trkpt lat="45.5218798" lon="10.7822961"><ele>170.0</ele><time>2026-03-28T11:44:33.809Z</time></trkpt><trkpt lat="45.5220469" lon="10.7822541"><ele>169.33333333333331</ele><time>2026-03-28T11:44:34.809Z</time></trkpt><trkpt lat="45.5222159" lon="10.7822132"><ele>168.66666666666666</ele><time>2026-03-28T11:44:35.809Z</time></trkpt><trkpt lat="45.5223839" lon="10.7821707"><ele>168.0</ele><time>2026-03-28T11:44:36.809Z</time></trkpt><trkpt lat="45.5225506" lon="10.7821309"><ele>168.0</ele><time>2026-03-28T11:44:37.81Z</time></trkpt><trkpt lat="45.5227128" lon="10.782091"><ele>168.0</ele><time>2026-03-28T11:44:38.809Z</time></trkpt><trkpt lat="45.5228727" lon="10.7820549"><ele>168.0</ele><time>2026-03-28T11:44:39.809Z</time></trkpt><trkpt lat="45.5230374" lon="10.7820184"><ele>166.66666666666666</ele><time>2026-03-28T11:44:40.808Z</time></trkpt><trkpt lat="45.5232002" lon="10.7819853"><ele>165.33333333333331</ele><time>2026-03-28T11:44:41.809Z</time></trkpt><trkpt lat="45.5233492" lon="10.7819512"><ele>164.0</ele><time>2026-03-28T11:44:42.809Z</time></trkpt><trkpt lat="45.5234909" lon="10.781918"><ele>164.0</ele><time>2026-03-28T11:44:43.809Z</time></trkpt><trkpt lat="45.5236244" lon="10.7818834"><ele>164.0</ele><time>2026-03-28T11:44:44.809Z</time></trkpt><trkpt lat="45.5237531" lon="10.7818503"><ele>164.0</ele><time>2026-03-28T11:44:45.809Z</time></trkpt><trkpt lat="45.5238794" lon="10.7818048"><ele>164.0</ele><time>2026-03-28T11:44:46.81Z</time></trkpt><trkpt lat="45.5239941" lon="10.7817631"><ele>163.79999999999998</ele><time>2026-03-28T11:44:47.809Z</time></trkpt><trkpt lat="45.5240979" lon="10.7817284"><ele>163.6</ele><time>2026-03-28T11:44:48.809Z</time></trkpt><trkpt lat="45.5241904" lon="10.7816996"><ele>163.4</ele><time>2026-03-28T11:44:49.808Z</time></trkpt><trkpt lat="45.5242577" lon="10.7816753"><ele>163.2</ele><time>2026-03-28T11:44:50.808Z</time></trkpt><trkpt lat="45.5243572" lon="10.781629"><ele>163.0</ele><time>2026-03-28T11:44:52.809Z</time></trkpt><trkpt lat="45.5244389" lon="10.7815399"><ele>163.0</ele><time>2026-03-28T11:44:54.808Z</time></trkpt><trkpt lat="45.524508" lon="10.78137"><ele>163.0</ele><time>2026-03-28T11:44:56.809Z</time></trkpt><trkpt lat="45.5245439" lon="10.7812625"><ele>163.0</ele><time>2026-03-28T11:44:57.808Z</time></trkpt><trkpt lat="45.5245746" lon="10.7811615"><ele>163.0</ele><time>2026-03-28T11:44:58.81Z</time></trkpt><trkpt lat="45.5246014" lon="10.7810508"><ele>163.0</ele><time>2026-03-28T11:44:59.809Z</time></trkpt><trkpt lat="45.5246137" lon="10.7809215"><ele>162.60000000000002</ele><time>2026-03-28T11:45:00.808Z</time></trkpt><trkpt lat="45.5246139" lon="10.7807818"><ele>162.20000000000002</ele><time>2026-03-28T11:45:01.81Z</time></trkpt><trkpt lat="45.5246018" lon="10.7806305"><ele>161.8</ele><time>2026-03-28T11:45:02.809Z</time></trkpt><trkpt lat="45.5245852" lon="10.7804713"><ele>161.4</ele><time>2026-03-28T11:45:03.808Z</time></trkpt><trkpt lat="45.524572" lon="10.780307"><ele>161.0</ele><time>2026-03-28T11:45:04.808Z</time></trkpt><trkpt lat="45.5245684" lon="10.7801328"><ele>161.0</ele><time>2026-03-28T11:45:05.809Z</time></trkpt><trkpt lat="45.5245771" lon="10.7799553"><ele>161.0</ele><time>2026-03-28T11:45:06.808Z</time></trkpt><trkpt lat="45.5245876" lon="10.7797862"><ele>161.0</ele><time>2026-03-28T11:45:07.809Z</time></trkpt><trkpt lat="45.5246038" lon="10.7796162"><ele>161.0</ele><time>2026-03-28T11:45:08.809Z</time></trkpt><trkpt lat="45.524614" lon="10.7794473"><ele>160.75</ele><time>2026-03-28T11:45:09.808Z</time></trkpt><trkpt lat="45.5246216" lon="10.7792765"><ele>160.5</ele><time>2026-03-28T11:45:10.809Z</time></trkpt><trkpt lat="45.5246174" lon="10.7791054"><ele>160.25</ele><time>2026-03-28T11:45:11.808Z</time></trkpt><trkpt lat="45.5246048" lon="10.7789304"><ele>160.0</ele><time>2026-03-28T11:45:12.808Z</time></trkpt><trkpt lat="45.5245842" lon="10.778752"><ele>160.0</ele><time>2026-03-28T11:45:13.809Z</time></trkpt><trkpt lat="45.5245661" lon="10.7785712"><ele>160.0</ele><time>2026-03-28T11:45:14.809Z</time></trkpt><trkpt lat="45.5245499" lon="10.7783796"><ele>160.0</ele><time>2026-03-28T11:45:15.808Z</time></trkpt><trkpt lat="45.5245408" lon="10.7782095"><ele>160.0</ele><time>2026-03-28T11:45:16.809Z</time></trkpt><trkpt lat="45.5245249" lon="10.7780428"><ele>159.75</ele><time>2026-03-28T11:45:17.809Z</time></trkpt><trkpt lat="45.5245062" lon="10.7778902"><ele>159.5</ele><time>2026-03-28T11:45:18.81Z</time></trkpt><trkpt lat="45.5244849" lon="10.7777305"><ele>159.25</ele><time>2026-03-28T11:45:19.808Z</time></trkpt><trkpt lat="45.5244636" lon="10.7775626"><ele>159.0</ele><time>2026-03-28T11:45:20.809Z</time></trkpt><trkpt lat="45.5244477" lon="10.7773827"><ele>159.0</ele><time>2026-03-28T11:45:21.809Z</time></trkpt><trkpt lat="45.5244354" lon="10.7771909"><ele>159.0</ele><time>2026-03-28T11:45:22.808Z</time></trkpt><trkpt lat="45.5244239" lon="10.7770008"><ele>159.0</ele><time>2026-03-28T11:45:23.809Z</time></trkpt><trkpt lat="45.5244118" lon="10.7768168"><ele>159.0</ele><time>2026-03-28T11:45:24.809Z</time></trkpt><trkpt lat="45.5243968" lon="10.7766549"><ele>159.0</ele><time>2026-03-28T11:45:25.809Z</time></trkpt><trkpt lat="45.5243805" lon="10.7765058"><ele>159.0</ele><time>2026-03-28T11:45:26.809Z</time></trkpt><trkpt lat="45.5243704" lon="10.7763726"><ele>159.0</ele><time>2026-03-28T11:45:27.809Z</time></trkpt><trkpt lat="45.5243825" lon="10.7762434"><ele>159.0</ele><time>2026-03-28T11:45:28.808Z</time></trkpt><trkpt lat="45.5244189" lon="10.7761418"><ele>159.0</ele><time>2026-03-28T11:45:29.808Z</time></trkpt><trkpt lat="45.5244714" lon="10.776064"><ele>159.0</ele><time>2026-03-28T11:45:30.809Z</time></trkpt><trkpt lat="45.5245574" lon="10.7759798"><ele>158.8</ele><time>2026-03-28T11:45:32.81Z</time></trkpt><trkpt lat="45.524635" lon="10.7759427"><ele>158.60000000000002</ele><time>2026-03-28T11:45:34.809Z</time></trkpt><trkpt lat="45.5247018" lon="10.7759357"><ele>158.4</ele><time>2026-03-28T11:45:35.81Z</time></trkpt><trkpt lat="45.5247891" lon="10.7759375"><ele>158.20000000000002</ele><time>2026-03-28T11:45:36.808Z</time></trkpt><trkpt lat="45.5248947" lon="10.775936"><ele>158.0</ele><time>2026-03-28T11:45:37.809Z</time></trkpt><trkpt lat="45.5250128" lon="10.7759323"><ele>158.0</ele><time>2026-03-28T11:45:38.808Z</time></trkpt><trkpt lat="45.5251422" lon="10.7759257"><ele>158.0</ele><time>2026-03-28T11:45:39.809Z</time></trkpt><trkpt lat="45.525273" lon="10.7759135"><ele>158.0</ele><time>2026-03-28T11:45:40.81Z</time></trkpt><trkpt lat="45.5254042" lon="10.7758955"><ele>158.0</ele><time>2026-03-28T11:45:41.808Z</time></trkpt><trkpt lat="45.5255352" lon="10.7758718"><ele>158.0</ele><time>2026-03-28T11:45:42.81Z</time></trkpt><trkpt lat="45.5256625" lon="10.7758489"><ele>158.0</ele><time>2026-03-28T11:45:43.81Z</time></trkpt><trkpt lat="45.5257814" lon="10.7758209"><ele>158.0</ele><time>2026-03-28T11:45:44.809Z</time></trkpt><trkpt lat="45.5259008" lon="10.7757796"><ele>158.0</ele><time>2026-03-28T11:45:45.81Z</time></trkpt><trkpt lat="45.5260229" lon="10.7757336"><ele>158.0</ele><time>2026-03-28T11:45:46.808Z</time></trkpt><trkpt lat="45.5261471" lon="10.7756819"><ele>158.0</ele><time>2026-03-28T11:45:47.809Z</time></trkpt><trkpt lat="45.5262645" lon="10.7756266"><ele>158.0</ele><time>2026-03-28T11:45:48.809Z</time></trkpt><trkpt lat="45.5263755" lon="10.7755753"><ele>158.0</ele><time>2026-03-28T11:45:49.809Z</time></trkpt><trkpt lat="45.5264857" lon="10.7755201"><ele>158.0</ele><time>2026-03-28T11:45:50.809Z</time></trkpt><trkpt lat="45.526601" lon="10.7754829"><ele>158.0</ele><time>2026-03-28T11:45:51.809Z</time></trkpt><trkpt lat="45.5267084" lon="10.7754678"><ele>158.0</ele><time>2026-03-28T11:45:52.809Z</time></trkpt><trkpt lat="45.5268123" lon="10.7754794"><ele>158.0</ele><time>2026-03-28T11:45:53.809Z</time></trkpt><trkpt lat="45.526921" lon="10.775516"><ele>158.0</ele><time>2026-03-28T11:45:54.809Z</time></trkpt><trkpt lat="45.527032" lon="10.7755764"><ele>157.5</ele><time>2026-03-28T11:45:55.809Z</time></trkpt><trkpt lat="45.5271477" lon="10.7756425"><ele>157.0</ele><time>2026-03-28T11:45:56.809Z</time></trkpt><trkpt lat="45.5272691" lon="10.7756969"><ele>156.5</ele><time>2026-03-28T11:45:57.81Z</time></trkpt><trkpt lat="45.5273916" lon="10.7757479"><ele>156.0</ele><time>2026-03-28T11:45:58.809Z</time></trkpt><trkpt lat="45.527514" lon="10.7758058"><ele>156.0</ele><time>2026-03-28T11:45:59.808Z</time></trkpt><trkpt lat="45.5276337" lon="10.7758645"><ele>156.0</ele><time>2026-03-28T11:46:00.81Z</time></trkpt><trkpt lat="45.5277564" lon="10.7759223"><ele>156.0</ele><time>2026-03-28T11:46:01.809Z</time></trkpt><trkpt lat="45.5278812" lon="10.7759645"><ele>156.0</ele><time>2026-03-28T11:46:02.808Z</time></trkpt><trkpt lat="45.5280126" lon="10.7759963"><ele>156.25</ele><time>2026-03-28T11:46:03.809Z</time></trkpt><trkpt lat="45.5281382" lon="10.7760113"><ele>156.5</ele><time>2026-03-28T11:46:04.81Z</time></trkpt><trkpt lat="45.5282633" lon="10.7760217"><ele>156.75</ele><time>2026-03-28T11:46:05.809Z</time></trkpt><trkpt lat="45.5283875" lon="10.7760299"><ele>157.0</ele><time>2026-03-28T11:46:06.81Z</time></trkpt><trkpt lat="45.5285095" lon="10.7760362"><ele>157.0</ele><time>2026-03-28T11:46:07.81Z</time></trkpt><trkpt lat="45.528626" lon="10.7760371"><ele>157.0</ele><time>2026-03-28T11:46:08.809Z</time></trkpt><trkpt lat="45.5287396" lon="10.7760212"><ele>157.0</ele><time>2026-03-28T11:46:09.81Z</time></trkpt><trkpt lat="45.5288593" lon="10.7759917"><ele>157.0</ele><time>2026-03-28T11:46:10.809Z</time></trkpt><trkpt lat="45.5289776" lon="10.7759464"><ele>157.75</ele><time>2026-03-28T11:46:11.809Z</time></trkpt><trkpt lat="45.529088" lon="10.7758855"><ele>158.5</ele><time>2026-03-28T11:46:12.809Z</time></trkpt><trkpt lat="45.5291939" lon="10.7758048"><ele>159.25</ele><time>2026-03-28T11:46:13.808Z</time></trkpt><trkpt lat="45.5293016" lon="10.7757023"><ele>160.0</ele><time>2026-03-28T11:46:14.809Z</time></trkpt><trkpt lat="45.5294059" lon="10.7755933"><ele>160.0</ele><time>2026-03-28T11:46:15.81Z</time></trkpt><trkpt lat="45.5295112" lon="10.7754843"><ele>160.0</ele><time>2026-03-28T11:46:16.81Z</time></trkpt><trkpt lat="45.5296127" lon="10.7753922"><ele>160.0</ele><time>2026-03-28T11:46:17.809Z</time></trkpt><trkpt lat="45.5297066" lon="10.7753176"><ele>160.0</ele><time>2026-03-28T11:46:18.808Z</time></trkpt><trkpt lat="45.5297939" lon="10.7752719"><ele>160.2</ele><time>2026-03-28T11:46:19.808Z</time></trkpt><trkpt lat="45.5298809" lon="10.775263"><ele>160.4</ele><time>2026-03-28T11:46:20.808Z</time></trkpt><trkpt lat="45.5299716" lon="10.775292"><ele>160.60000000000002</ele><time>2026-03-28T11:46:21.809Z</time></trkpt><trkpt lat="45.5300773" lon="10.7753595"><ele>160.8</ele><time>2026-03-28T11:46:22.808Z</time></trkpt><trkpt lat="45.5301918" lon="10.7754334"><ele>161.0</ele><time>2026-03-28T11:46:23.809Z</time></trkpt><trkpt lat="45.5303243" lon="10.7754973"><ele>161.0</ele><time>2026-03-28T11:46:24.809Z</time></trkpt><trkpt lat="45.5304368" lon="10.775565"><ele>161.0</ele><time>2026-03-28T11:46:25.809Z</time></trkpt><trkpt lat="45.5305324" lon="10.7756358"><ele>161.0</ele><time>2026-03-28T11:46:26.809Z</time></trkpt><trkpt lat="45.5306067" lon="10.7757319"><ele>161.0</ele><time>2026-03-28T11:46:27.808Z</time></trkpt><trkpt lat="45.5306748" lon="10.7758609"><ele>161.0</ele><time>2026-03-28T11:46:28.81Z</time></trkpt><trkpt lat="45.5307168" lon="10.7760051"><ele>160.60000000000002</ele><time>2026-03-28T11:46:29.809Z</time></trkpt><trkpt lat="45.5307429" lon="10.7761548"><ele>160.20000000000002</ele><time>2026-03-28T11:46:30.808Z</time></trkpt><trkpt lat="45.5307743" lon="10.7762787"><ele>159.8</ele><time>2026-03-28T11:46:31.809Z</time></trkpt><trkpt lat="45.5308239" lon="10.7763883"><ele>159.4</ele><time>2026-03-28T11:46:32.809Z</time></trkpt><trkpt lat="45.5308963" lon="10.7765002"><ele>159.0</ele><time>2026-03-28T11:46:33.809Z</time></trkpt><trkpt lat="45.5309837" lon="10.7765911"><ele>159.0</ele><time>2026-03-28T11:46:34.81Z</time></trkpt><trkpt lat="45.5310991" lon="10.776667"><ele>159.0</ele><time>2026-03-28T11:46:35.81Z</time></trkpt><trkpt lat="45.5312172" lon="10.776728"><ele>159.0</ele><time>2026-03-28T11:46:36.808Z</time></trkpt><trkpt lat="45.5313373" lon="10.7767679"><ele>159.0</ele><time>2026-03-28T11:46:37.807Z</time></trkpt><trkpt lat="45.5314319" lon="10.7768069"><ele>159.5</ele><time>2026-03-28T11:46:38.809Z</time></trkpt><trkpt lat="45.5315035" lon="10.7768509"><ele>160.0</ele><time>2026-03-28T11:46:39.808Z</time></trkpt><trkpt lat="45.5315523" lon="10.7769287"><ele>160.5</ele><time>2026-03-28T11:46:40.807Z</time></trkpt><trkpt lat="45.5316003" lon="10.7769895"><ele>161.0</ele><time>2026-03-28T11:46:41.808Z</time></trkpt><trkpt lat="45.531609" lon="10.7770913"><ele>161.5</ele><time>2026-03-28T11:46:42.808Z</time></trkpt><trkpt lat="45.5316187" lon="10.7772309"><ele>162.0</ele><time>2026-03-28T11:46:44.807Z</time></trkpt><trkpt lat="45.5316487" lon="10.7773225"><ele>162.39999999999998</ele><time>2026-03-28T11:46:47.808Z</time></trkpt><trkpt lat="45.5317227" lon="10.7773608"><ele>162.79999999999998</ele><time>2026-03-28T11:46:50.807Z</time></trkpt><trkpt lat="45.5317895" lon="10.7773028"><ele>163.2</ele><time>2026-03-28T11:46:52.808Z</time></trkpt><trkpt lat="45.5318806" lon="10.7771903"><ele>163.6</ele><time>2026-03-28T11:46:54.808Z</time></trkpt><trkpt lat="45.5319473" lon="10.7771234"><ele>164.0</ele><time>2026-03-28T11:46:55.808Z</time></trkpt><trkpt lat="45.5320272" lon="10.7770412"><ele>164.25</ele><time>2026-03-28T11:46:56.808Z</time></trkpt><trkpt lat="45.5321156" lon="10.7769485"><ele>164.5</ele><time>2026-03-28T11:46:57.808Z</time></trkpt><trkpt lat="45.53221" lon="10.7768502"><ele>164.75</ele><time>2026-03-28T11:46:58.809Z</time></trkpt><trkpt lat="45.5323067" lon="10.7767464"><ele>165.0</ele><time>2026-03-28T11:46:59.809Z</time></trkpt><trkpt lat="45.5324063" lon="10.7766392"><ele>165.0</ele><time>2026-03-28T11:47:00.807Z</time></trkpt><trkpt lat="45.5325093" lon="10.7765338"><ele>165.0</ele><time>2026-03-28T11:47:01.807Z</time></trkpt><trkpt lat="45.5326156" lon="10.7764309"><ele>165.0</ele><time>2026-03-28T11:47:02.809Z</time></trkpt><trkpt lat="45.5327211" lon="10.7763253"><ele>165.0</ele><time>2026-03-28T11:47:03.808Z</time></trkpt><trkpt lat="45.5328341" lon="10.776219"><ele>165.25</ele><time>2026-03-28T11:47:04.808Z</time></trkpt><trkpt lat="45.5329566" lon="10.7761093"><ele>165.5</ele><time>2026-03-28T11:47:05.808Z</time></trkpt><trkpt lat="45.5330764" lon="10.7759875"><ele>165.75</ele><time>2026-03-28T11:47:06.809Z</time></trkpt><trkpt lat="45.5332109" lon="10.7758994"><ele>166.0</ele><time>2026-03-28T11:47:07.808Z</time></trkpt><trkpt lat="45.5333623" lon="10.7758462"><ele>166.0</ele><time>2026-03-28T11:47:08.807Z</time></trkpt><trkpt lat="45.5335271" lon="10.7758293"><ele>166.0</ele><time>2026-03-28T11:47:09.807Z</time></trkpt><trkpt lat="45.5336953" lon="10.7758489"><ele>166.0</ele><time>2026-03-28T11:47:10.807Z</time></trkpt><trkpt lat="45.5338575" lon="10.7759042"><ele>166.0</ele><time>2026-03-28T11:47:11.808Z</time></trkpt><trkpt lat="45.5340198" lon="10.7759693"><ele>166.0</ele><time>2026-03-28T11:47:12.807Z</time></trkpt><trkpt lat="45.5341825" lon="10.7760318"><ele>166.0</ele><time>2026-03-28T11:47:13.808Z</time></trkpt><trkpt lat="45.5343498" lon="10.7760917"><ele>166.33333333333334</ele><time>2026-03-28T11:47:14.808Z</time></trkpt><trkpt lat="45.5345199" lon="10.7761497"><ele>166.66666666666666</ele><time>2026-03-28T11:47:15.807Z</time></trkpt><trkpt lat="45.5346853" lon="10.7762046"><ele>167.0</ele><time>2026-03-28T11:47:16.808Z</time></trkpt><trkpt lat="45.5348434" lon="10.7762496"><ele>168.0</ele><time>2026-03-28T11:47:17.808Z</time></trkpt><trkpt lat="45.5350054" lon="10.7762693"><ele>169.0</ele><time>2026-03-28T11:47:18.808Z</time></trkpt><trkpt lat="45.5351666" lon="10.7762575"><ele>170.0</ele><time>2026-03-28T11:47:19.809Z</time></trkpt><trkpt lat="45.5353266" lon="10.776207"><ele>170.0</ele><time>2026-03-28T11:47:20.807Z</time></trkpt><trkpt lat="45.5354843" lon="10.7761346"><ele>170.0</ele><time>2026-03-28T11:47:21.807Z</time></trkpt><trkpt lat="45.5356366" lon="10.7760451"><ele>170.0</ele><time>2026-03-28T11:47:22.808Z</time></trkpt><trkpt lat="45.5357819" lon="10.7759592"><ele>170.0</ele><time>2026-03-28T11:47:23.808Z</time></trkpt><trkpt lat="45.5359222" lon="10.7758713"><ele>170.0</ele><time>2026-03-28T11:47:24.808Z</time></trkpt><trkpt lat="45.5360479" lon="10.7757961"><ele>170.0</ele><time>2026-03-28T11:47:25.809Z</time></trkpt><trkpt lat="45.5361543" lon="10.7757303"><ele>170.0</ele><time>2026-03-28T11:47:26.808Z</time></trkpt><trkpt lat="45.5362472" lon="10.7756864"><ele>170.16666666666666</ele><time>2026-03-28T11:47:27.807Z</time></trkpt><trkpt lat="45.5363317" lon="10.7756773"><ele>170.33333333333331</ele><time>2026-03-28T11:47:28.808Z</time></trkpt><trkpt lat="45.5364066" lon="10.7756798"><ele>170.5</ele><time>2026-03-28T11:47:29.807Z</time></trkpt><trkpt lat="45.5365019" lon="10.7756574"><ele>170.66666666666666</ele><time>2026-03-28T11:47:31.809Z</time></trkpt><trkpt lat="45.5365704" lon="10.7756333"><ele>170.83333333333334</ele><time>2026-03-28T11:47:34.808Z</time></trkpt><trkpt lat="45.5366529" lon="10.7755654"><ele>171.0</ele><time>2026-03-28T11:52:09.807Z</time></trkpt><trkpt lat="45.5367219" lon="10.7754944"><ele>171.0</ele><time>2026-03-28T11:52:11.808Z</time></trkpt><trkpt lat="45.5368002" lon="10.7753832"><ele>171.0</ele><time>2026-03-28T11:52:13.808Z</time></trkpt><trkpt lat="45.536876" lon="10.7753414"><ele>171.0</ele><time>2026-03-28T11:52:14.808Z</time></trkpt><trkpt lat="45.536954" lon="10.7752966"><ele>171.0</ele><time>2026-03-28T11:52:15.808Z</time></trkpt><trkpt lat="45.5370404" lon="10.7752491"><ele>171.0</ele><time>2026-03-28T11:52:16.807Z</time></trkpt><trkpt lat="45.5371298" lon="10.7751965"><ele>171.42857142857142</ele><time>2026-03-28T11:52:17.808Z</time></trkpt><trkpt lat="45.5372117" lon="10.7751437"><ele>171.85714285714286</ele><time>2026-03-28T11:52:18.808Z</time></trkpt><trkpt lat="45.5372838" lon="10.7750984"><ele>172.28571428571428</ele><time>2026-03-28T11:52:19.807Z</time></trkpt><trkpt lat="45.5373492" lon="10.7750616"><ele>172.71428571428572</ele><time>2026-03-28T11:52:20.808Z</time></trkpt><trkpt lat="45.5374183" lon="10.7750352"><ele>173.14285714285714</ele><time>2026-03-28T11:52:21.808Z</time></trkpt><trkpt lat="45.5374843" lon="10.7750396"><ele>173.57142857142856</ele><time>2026-03-28T11:52:22.808Z</time></trkpt><trkpt lat="45.5375336" lon="10.7750972"><ele>174.0</ele><time>2026-03-28T11:52:23.807Z</time></trkpt><trkpt lat="45.5375598" lon="10.7751826"><ele>174.16666666666666</ele><time>2026-03-28T11:52:24.808Z</time></trkpt><trkpt lat="45.5375742" lon="10.7752872"><ele>174.33333333333334</ele><time>2026-03-28T11:52:25.808Z</time></trkpt><trkpt lat="45.5375946" lon="10.7753943"><ele>174.5</ele><time>2026-03-28T11:52:26.808Z</time></trkpt><trkpt lat="45.5376147" lon="10.7755113"><ele>174.66666666666669</ele><time>2026-03-28T11:52:27.807Z</time></trkpt><trkpt lat="45.5376203" lon="10.7756393"><ele>174.83333333333334</ele><time>2026-03-28T11:52:28.807Z</time></trkpt><trkpt lat="45.5376168" lon="10.7757741"><ele>175.0</ele><time>2026-03-28T11:52:29.807Z</time></trkpt><trkpt lat="45.5376121" lon="10.7759245"><ele>174.5</ele><time>2026-03-28T11:52:30.809Z</time></trkpt><trkpt lat="45.5376135" lon="10.7760834"><ele>174.0</ele><time>2026-03-28T11:52:31.808Z</time></trkpt><trkpt lat="45.5376167" lon="10.7762492"><ele>173.5</ele><time>2026-03-28T11:52:32.808Z</time></trkpt><trkpt lat="45.537623" lon="10.7764129"><ele>173.0</ele><time>2026-03-28T11:52:33.807Z</time></trkpt><trkpt lat="45.5376319" lon="10.7765793"><ele>173.0</ele><time>2026-03-28T11:52:34.808Z</time></trkpt><trkpt lat="45.5376384" lon="10.7767439"><ele>173.0</ele><time>2026-03-28T11:52:35.808Z</time></trkpt><trkpt lat="45.5376435" lon="10.7769135"><ele>173.0</ele><time>2026-03-28T11:52:36.809Z</time></trkpt><trkpt lat="45.5376488" lon="10.77708"><ele>173.0</ele><time>2026-03-28T11:52:37.808Z</time></trkpt><trkpt lat="45.5376555" lon="10.7772418"><ele>173.5</ele><time>2026-03-28T11:52:38.808Z</time></trkpt><trkpt lat="45.5376651" lon="10.777406"><ele>174.0</ele><time>2026-03-28T11:52:39.809Z</time></trkpt><trkpt lat="45.537672" lon="10.7775763"><ele>174.5</ele><time>2026-03-28T11:52:40.808Z</time></trkpt><trkpt lat="45.5376813" lon="10.7777371"><ele>175.0</ele><time>2026-03-28T11:52:41.808Z</time></trkpt><trkpt lat="45.5376923" lon="10.7779061"><ele>175.0</ele><time>2026-03-28T11:52:42.809Z</time></trkpt><trkpt lat="45.5377006" lon="10.778081"><ele>175.0</ele><time>2026-03-28T11:52:43.808Z</time></trkpt><trkpt lat="45.5377105" lon="10.7782656"><ele>175.0</ele><time>2026-03-28T11:52:44.809Z</time></trkpt><trkpt lat="45.5377198" lon="10.778454"><ele>175.0</ele><time>2026-03-28T11:52:45.808Z</time></trkpt><trkpt lat="45.5377322" lon="10.7786485"><ele>174.5</ele><time>2026-03-28T11:52:46.808Z</time></trkpt><trkpt lat="45.5377439" lon="10.7788446"><ele>174.0</ele><time>2026-03-28T11:52:47.808Z</time></trkpt><trkpt lat="45.5377572" lon="10.7790407"><ele>173.5</ele><time>2026-03-28T11:52:48.807Z</time></trkpt><trkpt lat="45.5377707" lon="10.7792392"><ele>173.0</ele><time>2026-03-28T11:52:49.807Z</time></trkpt><trkpt lat="45.5377816" lon="10.7794398"><ele>173.0</ele><time>2026-03-28T11:52:50.808Z</time></trkpt><trkpt lat="45.5377932" lon="10.7796404"><ele>173.0</ele><time>2026-03-28T11:52:51.808Z</time></trkpt><trkpt lat="45.5378074" lon="10.779836"><ele>173.0</ele><time>2026-03-28T11:52:52.808Z</time></trkpt><trkpt lat="45.5378189" lon="10.780015"><ele>173.0</ele><time>2026-03-28T11:52:53.808Z</time></trkpt><trkpt lat="45.5378188" lon="10.7801463"><ele>173.0</ele><time>2026-03-28T11:52:54.809Z</time></trkpt><trkpt lat="45.5376831" lon="10.7801237"><ele>173.0</ele><time>2026-03-28T11:52:57.809Z</time></trkpt><trkpt lat="45.5376024" lon="10.7801217"><ele>173.0</ele><time>2026-03-28T11:52:58.808Z</time></trkpt><trkpt lat="45.5375178" lon="10.7801211"><ele>173.0</ele><time>2026-03-28T11:52:59.808Z</time></trkpt><trkpt lat="45.5374229" lon="10.780137"><ele>173.0</ele><time>2026-03-28T11:53:00.808Z</time></trkpt><trkpt lat="45.5373233" lon="10.7801494"><ele>173.0</ele><time>2026-03-28T11:53:01.808Z</time></trkpt><trkpt lat="45.5372208" lon="10.7801676"><ele>173.0</ele><time>2026-03-28T11:53:02.809Z</time></trkpt><trkpt lat="45.5371082" lon="10.7801875"><ele>173.0</ele><time>2026-03-28T11:53:03.808Z</time></trkpt><trkpt lat="45.5369854" lon="10.7802033"><ele>173.0</ele><time>2026-03-28T11:53:04.808Z</time></trkpt><trkpt lat="45.53686" lon="10.7802206"><ele>172.25</ele><time>2026-03-28T11:53:05.809Z</time></trkpt><trkpt lat="45.5367298" lon="10.7802392"><ele>171.5</ele><time>2026-03-28T11:53:06.807Z</time></trkpt><trkpt lat="45.5365974" lon="10.7802601"><ele>170.75</ele><time>2026-03-28T11:53:07.807Z</time></trkpt><trkpt lat="45.5364579" lon="10.7802811"><ele>170.0</ele><time>2026-03-28T11:53:08.807Z</time></trkpt><trkpt lat="45.5363144" lon="10.7802994"><ele>168.25</ele><time>2026-03-28T11:53:09.807Z</time></trkpt><trkpt lat="45.5361692" lon="10.7803246"><ele>166.5</ele><time>2026-03-28T11:53:10.808Z</time></trkpt><trkpt lat="45.5360244" lon="10.7803479"><ele>164.75</ele><time>2026-03-28T11:53:11.807Z</time></trkpt><trkpt lat="45.5358791" lon="10.7803737"><ele>163.0</ele><time>2026-03-28T11:53:12.808Z</time></trkpt><trkpt lat="45.5357306" lon="10.7804065"><ele>163.0</ele><time>2026-03-28T11:53:13.807Z</time></trkpt><trkpt lat="45.535576" lon="10.7804363"><ele>163.0</ele><time>2026-03-28T11:53:14.808Z</time></trkpt><trkpt lat="45.5354182" lon="10.7804612"><ele>163.0</ele><time>2026-03-28T11:53:15.808Z</time></trkpt><trkpt lat="45.5352573" lon="10.7804879"><ele>163.33333333333334</ele><time>2026-03-28T11:53:16.808Z</time></trkpt><trkpt lat="45.5350919" lon="10.7805122"><ele>163.66666666666666</ele><time>2026-03-28T11:53:17.809Z</time></trkpt><trkpt lat="45.5349213" lon="10.7805418"><ele>164.0</ele><time>2026-03-28T11:53:18.808Z</time></trkpt><trkpt lat="45.534749" lon="10.7805646"><ele>164.0</ele><time>2026-03-28T11:53:19.809Z</time></trkpt><trkpt lat="45.534579" lon="10.7805796"><ele>164.0</ele><time>2026-03-28T11:53:20.809Z</time></trkpt><trkpt lat="45.5344176" lon="10.7805934"><ele>164.0</ele><time>2026-03-28T11:53:21.808Z</time></trkpt><trkpt lat="45.534271" lon="10.780608"><ele>163.5</ele><time>2026-03-28T11:53:22.808Z</time></trkpt><trkpt lat="45.5341365" lon="10.7806227"><ele>163.0</ele><time>2026-03-28T11:53:23.808Z</time></trkpt><trkpt lat="45.53401" lon="10.7806391"><ele>162.5</ele><time>2026-03-28T11:53:24.807Z</time></trkpt><trkpt lat="45.5338833" lon="10.7806542"><ele>162.0</ele><time>2026-03-28T11:53:25.809Z</time></trkpt><trkpt lat="45.5337555" lon="10.7806713"><ele>162.5</ele><time>2026-03-28T11:53:26.807Z</time></trkpt><trkpt lat="45.5336253" lon="10.7806847"><ele>163.0</ele><time>2026-03-28T11:53:27.807Z</time></trkpt><trkpt lat="45.5334962" lon="10.7806985"><ele>163.5</ele><time>2026-03-28T11:53:28.807Z</time></trkpt><trkpt lat="45.5333649" lon="10.7807109"><ele>164.0</ele><time>2026-03-28T11:53:29.809Z</time></trkpt><trkpt lat="45.5332292" lon="10.7807272"><ele>164.0</ele><time>2026-03-28T11:53:30.808Z</time></trkpt><trkpt lat="45.5330906" lon="10.7807486"><ele>164.0</ele><time>2026-03-28T11:53:31.809Z</time></trkpt><trkpt lat="45.5329515" lon="10.7807713"><ele>164.0</ele><time>2026-03-28T11:53:32.808Z</time></trkpt><trkpt lat="45.5328142" lon="10.7807874"><ele>164.0</ele><time>2026-03-28T11:53:33.807Z</time></trkpt><trkpt lat="45.5326806" lon="10.7808051"><ele>164.5</ele><time>2026-03-28T11:53:34.808Z</time></trkpt><trkpt lat="45.5325565" lon="10.7808175"><ele>165.0</ele><time>2026-03-28T11:53:35.807Z</time></trkpt><trkpt lat="45.5324382" lon="10.7808311"><ele>165.5</ele><time>2026-03-28T11:53:36.809Z</time></trkpt><trkpt lat="45.5323201" lon="10.7808608"><ele>166.0</ele><time>2026-03-28T11:53:37.807Z</time></trkpt><trkpt lat="45.5322058" lon="10.7808897"><ele>166.0</ele><time>2026-03-28T11:53:38.808Z</time></trkpt><trkpt lat="45.5321119" lon="10.7809028"><ele>166.0</ele><time>2026-03-28T11:53:39.808Z</time></trkpt><trkpt lat="45.5320357" lon="10.7809127"><ele>166.0</ele><time>2026-03-28T11:53:40.807Z</time></trkpt><trkpt lat="45.5319649" lon="10.7810003"><ele>166.0</ele><time>2026-03-28T11:53:42.808Z</time></trkpt><trkpt lat="45.5320022" lon="10.7811823"><ele>166.0</ele><time>2026-03-28T11:53:44.808Z</time></trkpt><trkpt lat="45.5320552" lon="10.7813176"><ele>165.5</ele><time>2026-03-28T11:53:45.807Z</time></trkpt><trkpt lat="45.5321073" lon="10.7814782"><ele>165.0</ele><time>2026-03-28T11:53:46.808Z</time></trkpt><trkpt lat="45.532169" lon="10.7816583"><ele>164.5</ele><time>2026-03-28T11:53:47.808Z</time></trkpt><trkpt lat="45.5322307" lon="10.7818526"><ele>164.0</ele><time>2026-03-28T11:53:48.807Z</time></trkpt><trkpt lat="45.5322912" lon="10.7820476"><ele>163.0</ele><time>2026-03-28T11:53:49.808Z</time></trkpt><trkpt lat="45.532344" lon="10.7822538"><ele>162.0</ele><time>2026-03-28T11:53:50.807Z</time></trkpt><trkpt lat="45.5323942" lon="10.782462"><ele>161.0</ele><time>2026-03-28T11:53:51.808Z</time></trkpt><trkpt lat="45.5324484" lon="10.7826684"><ele>161.5</ele><time>2026-03-28T11:53:52.808Z</time></trkpt><trkpt lat="45.5324988" lon="10.7828739"><ele>162.0</ele><time>2026-03-28T11:53:53.808Z</time></trkpt><trkpt lat="45.5325457" lon="10.7830797"><ele>162.5</ele><time>2026-03-28T11:53:54.808Z</time></trkpt><trkpt lat="45.5325806" lon="10.7832635"><ele>163.0</ele><time>2026-03-28T11:53:55.807Z</time></trkpt><trkpt lat="45.5325998" lon="10.7834327"><ele>163.5</ele><time>2026-03-28T11:53:56.808Z</time></trkpt><trkpt lat="45.532598" lon="10.7835764"><ele>164.0</ele><time>2026-03-28T11:53:57.807Z</time></trkpt><trkpt lat="45.5325647" lon="10.7837283"><ele>164.5</ele><time>2026-03-28T11:53:58.809Z</time></trkpt><trkpt lat="45.5325038" lon="10.7838953"><ele>165.0</ele><time>2026-03-28T11:53:59.808Z</time></trkpt><trkpt lat="45.5324319" lon="10.7840757"><ele>165.0</ele><time>2026-03-28T11:54:00.808Z</time></trkpt><trkpt lat="45.5323665" lon="10.7842707"><ele>165.0</ele><time>2026-03-28T11:54:01.808Z</time></trkpt><trkpt lat="45.5323097" lon="10.7844469"><ele>165.0</ele><time>2026-03-28T11:54:02.808Z</time></trkpt><trkpt lat="45.5322769" lon="10.7845959"><ele>165.0</ele><time>2026-03-28T11:54:03.808Z</time></trkpt><trkpt lat="45.5322595" lon="10.7847392"><ele>165.4</ele><time>2026-03-28T11:54:04.807Z</time></trkpt><trkpt lat="45.5322632" lon="10.7848672"><ele>165.8</ele><time>2026-03-28T11:54:05.808Z</time></trkpt><trkpt lat="45.5322903" lon="10.7850175"><ele>166.2</ele><time>2026-03-28T11:54:06.808Z</time></trkpt><trkpt lat="45.5323041" lon="10.7851545"><ele>166.6</ele><time>2026-03-28T11:54:07.808Z</time></trkpt><trkpt lat="45.532293" lon="10.7852772"><ele>167.0</ele><time>2026-03-28T11:54:08.809Z</time></trkpt><trkpt lat="45.5322473" lon="10.7854138"><ele>167.25</ele><time>2026-03-28T11:54:09.808Z</time></trkpt><trkpt lat="45.5321742" lon="10.7855623"><ele>167.5</ele><time>2026-03-28T11:54:10.807Z</time></trkpt><trkpt lat="45.5320907" lon="10.785695"><ele>167.75</ele><time>2026-03-28T11:54:11.807Z</time></trkpt><trkpt lat="45.5320056" lon="10.7858212"><ele>168.0</ele><time>2026-03-28T11:54:12.808Z</time></trkpt><trkpt lat="45.5319143" lon="10.7859482"><ele>168.5</ele><time>2026-03-28T11:54:13.808Z</time></trkpt><trkpt lat="45.531822" lon="10.7860732"><ele>169.0</ele><time>2026-03-28T11:54:14.808Z</time></trkpt><trkpt lat="45.5317377" lon="10.7861964"><ele>169.5</ele><time>2026-03-28T11:54:15.808Z</time></trkpt><trkpt lat="45.5316554" lon="10.7863312"><ele>170.0</ele><time>2026-03-28T11:54:16.808Z</time></trkpt><trkpt lat="45.5315743" lon="10.7864727"><ele>170.0</ele><time>2026-03-28T11:54:17.808Z</time></trkpt><trkpt lat="45.5314923" lon="10.7866163"><ele>170.0</ele><time>2026-03-28T11:54:18.807Z</time></trkpt><trkpt lat="45.5314087" lon="10.7867662"><ele>170.0</ele><time>2026-03-28T11:54:19.808Z</time></trkpt><trkpt lat="45.5313282" lon="10.786914"><ele>170.0</ele><time>2026-03-28T11:54:20.807Z</time></trkpt><trkpt lat="45.5312569" lon="10.7870399"><ele>170.16666666666666</ele><time>2026-03-28T11:54:21.807Z</time></trkpt><trkpt lat="45.5312065" lon="10.7871396"><ele>170.33333333333331</ele><time>2026-03-28T11:54:22.808Z</time></trkpt><trkpt lat="45.5311778" lon="10.7872272"><ele>170.5</ele><time>2026-03-28T11:54:23.808Z</time></trkpt><trkpt lat="45.5311706" lon="10.7873273"><ele>170.66666666666666</ele><time>2026-03-28T11:54:24.807Z</time></trkpt><trkpt lat="45.5311816" lon="10.7874506"><ele>170.83333333333334</ele><time>2026-03-28T11:54:25.808Z</time></trkpt><trkpt lat="45.5312015" lon="10.7875958"><ele>171.0</ele><time>2026-03-28T11:54:26.807Z</time></trkpt><trkpt lat="45.5312272" lon="10.7877394"><ele>172.4</ele><time>2026-03-28T11:54:27.808Z</time></trkpt><trkpt lat="45.5312637" lon="10.7878709"><ele>173.8</ele><time>2026-03-28T11:54:28.808Z</time></trkpt><trkpt lat="45.5313111" lon="10.7879892"><ele>175.20000000000002</ele><time>2026-03-28T11:54:29.807Z</time></trkpt><trkpt lat="45.5313635" lon="10.7881138"><ele>176.60000000000002</ele><time>2026-03-28T11:54:30.807Z</time></trkpt><trkpt lat="45.5314126" lon="10.7882322"><ele>178.0</ele><time>2026-03-28T11:54:31.807Z</time></trkpt><trkpt lat="45.5314546" lon="10.7883415"><ele>178.0</ele><time>2026-03-28T11:54:32.807Z</time></trkpt><trkpt lat="45.5314905" lon="10.7884371"><ele>178.0</ele><time>2026-03-28T11:54:33.808Z</time></trkpt><trkpt lat="45.5315211" lon="10.7885546"><ele>178.0</ele><time>2026-03-28T11:54:35.808Z</time></trkpt><trkpt lat="45.5316196" lon="10.7885661"><ele>178.0</ele><time>2026-03-28T11:54:39.808Z</time></trkpt><trkpt lat="45.5317247" lon="10.7885198"><ele>178.0</ele><time>2026-03-28T11:54:41.808Z</time></trkpt><trkpt lat="45.5318253" lon="10.7884327"><ele>178.0</ele><time>2026-03-28T11:54:43.809Z</time></trkpt><trkpt lat="45.5318846" lon="10.7883779"><ele>178.0</ele><time>2026-03-28T11:54:44.808Z</time></trkpt><trkpt lat="45.5319533" lon="10.7883248"><ele>178.0</ele><time>2026-03-28T11:54:45.809Z</time></trkpt><trkpt lat="45.5320279" lon="10.7882724"><ele>178.0</ele><time>2026-03-28T11:54:46.808Z</time></trkpt><trkpt lat="45.5321104" lon="10.7882121"><ele>178.0</ele><time>2026-03-28T11:54:47.807Z</time></trkpt><trkpt lat="45.5321947" lon="10.7881477"><ele>178.0</ele><time>2026-03-28T11:54:48.808Z</time></trkpt><trkpt lat="45.5322794" lon="10.7880851"><ele>178.33333333333334</ele><time>2026-03-28T11:54:49.807Z</time></trkpt><trkpt lat="45.5323636" lon="10.7880246"><ele>178.66666666666669</ele><time>2026-03-28T11:54:50.807Z</time></trkpt><trkpt lat="45.5324455" lon="10.7879737"><ele>179.0</ele><time>2026-03-28T11:54:51.809Z</time></trkpt><trkpt lat="45.5325293" lon="10.7879273"><ele>179.33333333333334</ele><time>2026-03-28T11:54:52.809Z</time></trkpt><trkpt lat="45.532607" lon="10.7878862"><ele>179.66666666666666</ele><time>2026-03-28T11:54:53.807Z</time></trkpt><trkpt lat="45.5326824" lon="10.7878525"><ele>180.0</ele><time>2026-03-28T11:54:54.809Z</time></trkpt><trkpt lat="45.5327597" lon="10.7878121"><ele>180.0</ele><time>2026-03-28T11:54:55.807Z</time></trkpt><trkpt lat="45.5328193" lon="10.7877801"><ele>180.0</ele><time>2026-03-28T11:54:56.808Z</time></trkpt><trkpt lat="45.5328952" lon="10.7877874"><ele>180.0</ele><time>2026-03-28T11:54:58.808Z</time></trkpt><trkpt lat="45.5329541" lon="10.7879121"><ele>180.0</ele><time>2026-03-28T11:55:00.808Z</time></trkpt><trkpt lat="45.5330045" lon="10.7880043"><ele>180.0</ele><time>2026-03-28T11:55:01.807Z</time></trkpt><trkpt lat="45.5330608" lon="10.7881077"><ele>180.0</ele><time>2026-03-28T11:55:02.807Z</time></trkpt><trkpt lat="45.5331182" lon="10.7882306"><ele>180.25</ele><time>2026-03-28T11:55:03.808Z</time></trkpt><trkpt lat="45.5331777" lon="10.7883648"><ele>180.5</ele><time>2026-03-28T11:55:04.809Z</time></trkpt><trkpt lat="45.5332419" lon="10.7884992"><ele>180.75</ele><time>2026-03-28T11:55:05.808Z</time></trkpt><trkpt lat="45.5333108" lon="10.7886399"><ele>181.0</ele><time>2026-03-28T11:55:06.808Z</time></trkpt><trkpt lat="45.5333804" lon="10.7887774"><ele>181.4</ele><time>2026-03-28T11:55:07.808Z</time></trkpt><trkpt lat="45.5334397" lon="10.7889057"><ele>181.8</ele><time>2026-03-28T11:55:08.809Z</time></trkpt><trkpt lat="45.5334802" lon="10.7890192"><ele>182.20000000000002</ele><time>2026-03-28T11:55:09.808Z</time></trkpt><trkpt lat="45.5335257" lon="10.7891277"><ele>182.60000000000002</ele><time>2026-03-28T11:55:10.809Z</time></trkpt><trkpt lat="45.5335763" lon="10.7892322"><ele>183.0</ele><time>2026-03-28T11:55:11.808Z</time></trkpt><trkpt lat="45.5336334" lon="10.7893468"><ele>184.0</ele><time>2026-03-28T11:55:12.807Z</time></trkpt><trkpt lat="45.5336951" lon="10.7894592"><ele>185.0</ele><time>2026-03-28T11:55:13.808Z</time></trkpt><trkpt lat="45.5337618" lon="10.7895705"><ele>186.0</ele><time>2026-03-28T11:55:14.808Z</time></trkpt><trkpt lat="45.5338338" lon="10.7896759"><ele>187.0</ele><time>2026-03-28T11:55:15.807Z</time></trkpt><trkpt lat="45.5339092" lon="10.7897754"><ele>188.0</ele><time>2026-03-28T11:55:16.809Z</time></trkpt><trkpt lat="45.5339941" lon="10.7898581"><ele>190.60000000000002</ele><time>2026-03-28T11:55:17.808Z</time></trkpt><trkpt lat="45.5340799" lon="10.7899417"><ele>193.20000000000002</ele><time>2026-03-28T11:55:18.808Z</time></trkpt><trkpt lat="45.5341623" lon="10.7900281"><ele>195.8</ele><time>2026-03-28T11:55:19.808Z</time></trkpt><trkpt lat="45.5342423" lon="10.7901077"><ele>198.4</ele><time>2026-03-28T11:55:20.808Z</time></trkpt><trkpt lat="45.534314" lon="10.7901814"><ele>201.0</ele><time>2026-03-28T11:55:21.809Z</time></trkpt><trkpt lat="45.5343748" lon="10.7902461"><ele>201.66666666666666</ele><time>2026-03-28T11:55:22.808Z</time></trkpt><trkpt lat="45.5344374" lon="10.7902897"><ele>202.33333333333331</ele><time>2026-03-28T11:55:23.807Z</time></trkpt><trkpt lat="45.5345116" lon="10.7903271"><ele>203.0</ele><time>2026-03-28T11:55:24.807Z</time></trkpt><trkpt lat="45.5345777" lon="10.7903588"><ele>203.66666666666666</ele><time>2026-03-28T11:55:25.807Z</time></trkpt><trkpt lat="45.5346698" lon="10.7904429"><ele>204.33333333333331</ele><time>2026-03-28T11:55:27.807Z</time></trkpt><trkpt lat="45.534713" lon="10.790532"><ele>205.0</ele><time>2026-03-28T11:55:28.809Z</time></trkpt><trkpt lat="45.5347641" lon="10.7906298"><ele>205.0</ele><time>2026-03-28T11:55:29.808Z</time></trkpt><trkpt lat="45.5348268" lon="10.7907321"><ele>205.0</ele><time>2026-03-28T11:55:30.809Z</time></trkpt><trkpt lat="45.5348939" lon="10.7908365"><ele>205.0</ele><time>2026-03-28T11:55:31.807Z</time></trkpt><trkpt lat="45.5349612" lon="10.790947"><ele>205.0</ele><time>2026-03-28T11:55:32.808Z</time></trkpt><trkpt lat="45.5350431" lon="10.7910524"><ele>205.0</ele><time>2026-03-28T11:55:33.808Z</time></trkpt><trkpt lat="45.5351268" lon="10.7911437"><ele>204.99999999999997</ele><time>2026-03-28T11:55:34.809Z</time></trkpt><trkpt lat="45.5351916" lon="10.7912098"><ele>205.0</ele><time>2026-03-28T11:55:35.809Z</time></trkpt><trkpt lat="45.5352644" lon="10.7912549"><ele>205.0</ele><time>2026-03-28T11:55:37.808Z</time></trkpt><trkpt lat="45.5353271" lon="10.7912197"><ele>205.0</ele><time>2026-03-28T11:55:43.807Z</time></trkpt><trkpt lat="45.5354108" lon="10.7911646"><ele>204.99999999999997</ele><time>2026-03-28T11:55:45.808Z</time></trkpt><trkpt lat="45.5354718" lon="10.7911392"><ele>205.0</ele><time>2026-03-28T11:55:46.808Z</time></trkpt><trkpt lat="45.535552" lon="10.7911147"><ele>203.49999999999997</ele><time>2026-03-28T11:55:47.808Z</time></trkpt><trkpt lat="45.5356224" lon="10.7911124"><ele>202.0</ele><time>2026-03-28T11:55:48.808Z</time></trkpt><trkpt lat="45.5357013" lon="10.7911385"><ele>200.5</ele><time>2026-03-28T11:55:49.807Z</time></trkpt><trkpt lat="45.5357779" lon="10.7911927"><ele>199.0</ele><time>2026-03-28T11:55:50.809Z</time></trkpt><trkpt lat="45.5358487" lon="10.7912601"><ele>197.49999999999997</ele><time>2026-03-28T11:55:51.808Z</time></trkpt><trkpt lat="45.5359126" lon="10.791386"><ele>196.0</ele><time>2026-03-28T11:55:52.809Z</time></trkpt><trkpt lat="45.5359657" lon="10.7914868"><ele>195.99999999999997</ele><time>2026-03-28T11:55:53.807Z</time></trkpt><trkpt lat="45.5360218" lon="10.7915789"><ele>196.0</ele><time>2026-03-28T11:55:54.807Z</time></trkpt><trkpt lat="45.5360794" lon="10.7916386"><ele>196.0</ele><time>2026-03-28T11:55:55.807Z</time></trkpt><trkpt lat="45.5361806" lon="10.7916435"><ele>196.0</ele><time>2026-03-28T11:55:57.809Z</time></trkpt><trkpt lat="45.5362468" lon="10.7915359"><ele>195.99999999999997</ele><time>2026-03-28T11:55:59.807Z</time></trkpt><trkpt lat="45.5362889" lon="10.7914584"><ele>196.0</ele><time>2026-03-28T11:56:00.808Z</time></trkpt><trkpt lat="45.5363382" lon="10.7913894"><ele>193.99999999999997</ele><time>2026-03-28T11:56:01.809Z</time></trkpt><trkpt lat="45.5364002" lon="10.7913306"><ele>192.0</ele><time>2026-03-28T11:56:02.808Z</time></trkpt><trkpt lat="45.5364827" lon="10.7913242"><ele>190.0</ele><time>2026-03-28T11:56:03.808Z</time></trkpt><trkpt lat="45.5365603" lon="10.7913221"><ele>188.0</ele><time>2026-03-28T11:56:04.807Z</time></trkpt><trkpt lat="45.5366536" lon="10.7913297"><ele>186.0</ele><time>2026-03-28T11:56:05.807Z</time></trkpt><trkpt lat="45.5367161" lon="10.7913518"><ele>184.0</ele><time>2026-03-28T11:56:06.809Z</time></trkpt><trkpt lat="45.5368337" lon="10.7913516"><ele>184.0</ele><time>2026-03-28T11:56:08.807Z</time></trkpt><trkpt lat="45.5368944" lon="10.7913191"><ele>184.0</ele><time>2026-03-28T11:56:09.807Z</time></trkpt><trkpt lat="45.5369552" lon="10.7912752"><ele>184.0</ele><time>2026-03-28T11:56:10.809Z</time></trkpt><trkpt lat="45.537039" lon="10.7911558"><ele>184.0</ele><time>2026-03-28T11:56:11.809Z</time></trkpt><trkpt lat="45.5371048" lon="10.791071"><ele>184.0</ele><time>2026-03-28T11:56:12.809Z</time></trkpt><trkpt lat="45.5371719" lon="10.7910047"><ele>184.0</ele><time>2026-03-28T11:56:13.809Z</time></trkpt><trkpt lat="45.5372965" lon="10.7909485"><ele>185.0</ele><time>2026-03-28T11:56:15.808Z</time></trkpt><trkpt lat="45.537381" lon="10.7909286"><ele>186.0</ele><time>2026-03-28T11:56:16.808Z</time></trkpt><trkpt lat="45.5375116" lon="10.7908388"><ele>187.0</ele><time>2026-03-28T11:56:18.807Z</time></trkpt><trkpt lat="45.5375869" lon="10.790778"><ele>188.0</ele><time>2026-03-28T11:56:19.809Z</time></trkpt><trkpt lat="45.5376822" lon="10.7906987"><ele>189.0</ele><time>2026-03-28T11:56:20.808Z</time></trkpt><trkpt lat="45.5377686" lon="10.7906559"><ele>189.0</ele><time>2026-03-28T11:56:21.808Z</time></trkpt><trkpt lat="45.5378556" lon="10.7906289"><ele>189.0</ele><time>2026-03-28T11:56:22.808Z</time></trkpt><trkpt lat="45.5379285" lon="10.7906095"><ele>189.0</ele><time>2026-03-28T11:56:23.809Z</time></trkpt><trkpt lat="45.5379992" lon="10.7905317"><ele>189.0</ele><time>2026-03-28T11:56:24.809Z</time></trkpt><trkpt lat="45.5380707" lon="10.7904482"><ele>189.0</ele><time>2026-03-28T11:56:25.808Z</time></trkpt><trkpt lat="45.5381509" lon="10.7903594"><ele>189.0</ele><time>2026-03-28T11:56:26.809Z</time></trkpt><trkpt lat="45.5382442" lon="10.7902961"><ele>187.5</ele><time>2026-03-28T11:56:27.808Z</time></trkpt><trkpt lat="45.5383249" lon="10.7901899"><ele>186.0</ele><time>2026-03-28T11:56:28.809Z</time></trkpt><trkpt lat="45.5384043" lon="10.7900738"><ele>184.5</ele><time>2026-03-28T11:56:29.807Z</time></trkpt><trkpt lat="45.5384925" lon="10.7899255"><ele>183.0</ele><time>2026-03-28T11:56:30.807Z</time></trkpt><trkpt lat="45.5385735" lon="10.7897825"><ele>183.0</ele><time>2026-03-28T11:56:31.809Z</time></trkpt><trkpt lat="45.5386627" lon="10.7896602"><ele>183.0</ele><time>2026-03-28T11:56:32.808Z</time></trkpt><trkpt lat="45.5387581" lon="10.7895491"><ele>183.0</ele><time>2026-03-28T11:56:33.807Z</time></trkpt><trkpt lat="45.5388621" lon="10.7894363"><ele>183.0</ele><time>2026-03-28T11:56:34.807Z</time></trkpt><trkpt lat="45.5389499" lon="10.7893352"><ele>181.25</ele><time>2026-03-28T11:56:35.807Z</time></trkpt><trkpt lat="45.5390099" lon="10.7891988"><ele>179.5</ele><time>2026-03-28T11:56:36.807Z</time></trkpt><trkpt lat="45.5390923" lon="10.7890681"><ele>177.75</ele><time>2026-03-28T11:56:37.808Z</time></trkpt><trkpt lat="45.5391686" lon="10.7889228"><ele>176.0</ele><time>2026-03-28T11:56:38.808Z</time></trkpt><trkpt lat="45.5392493" lon="10.7887564"><ele>176.0</ele><time>2026-03-28T11:56:39.807Z</time></trkpt><trkpt lat="45.5393165" lon="10.7886198"><ele>176.0</ele><time>2026-03-28T11:56:40.808Z</time></trkpt><trkpt lat="45.5393887" lon="10.7884852"><ele>176.0</ele><time>2026-03-28T11:56:41.808Z</time></trkpt><trkpt lat="45.539432" lon="10.7883763"><ele>176.0</ele><time>2026-03-28T11:56:42.809Z</time></trkpt><trkpt lat="45.5394885" lon="10.7882288"><ele>176.0</ele><time>2026-03-28T11:56:43.807Z</time></trkpt><trkpt lat="45.5395312" lon="10.7880941"><ele>175.4</ele><time>2026-03-28T11:56:44.808Z</time></trkpt><trkpt lat="45.5396076" lon="10.787977"><ele>174.8</ele><time>2026-03-28T11:56:45.807Z</time></trkpt><trkpt lat="45.5396789" lon="10.7878923"><ele>174.20000000000002</ele><time>2026-03-28T11:56:46.808Z</time></trkpt><trkpt lat="45.5397497" lon="10.7878011"><ele>173.60000000000002</ele><time>2026-03-28T11:56:47.807Z</time></trkpt><trkpt lat="45.5398204" lon="10.7877261"><ele>173.0</ele><time>2026-03-28T11:56:48.806Z</time></trkpt><trkpt lat="45.5399027" lon="10.7876384"><ele>175.5</ele><time>2026-03-28T11:56:49.807Z</time></trkpt><trkpt lat="45.5399856" lon="10.7875411"><ele>178.0</ele><time>2026-03-28T11:56:50.807Z</time></trkpt><trkpt lat="45.5400983" lon="10.7874186"><ele>180.5</ele><time>2026-03-28T11:56:51.808Z</time></trkpt><trkpt lat="45.5401975" lon="10.7873058"><ele>183.0</ele><time>2026-03-28T11:56:52.807Z</time></trkpt><trkpt lat="45.5402913" lon="10.7871847"><ele>183.0</ele><time>2026-03-28T11:56:53.807Z</time></trkpt><trkpt lat="45.5403763" lon="10.7870737"><ele>183.0</ele><time>2026-03-28T11:56:54.807Z</time></trkpt><trkpt lat="45.5404034" lon="10.786982"><ele>183.0</ele><time>2026-03-28T11:56:55.808Z</time></trkpt><trkpt lat="45.5404594" lon="10.786882"><ele>183.0</ele><time>2026-03-28T11:56:56.807Z</time></trkpt><trkpt lat="45.5404978" lon="10.7867169"><ele>183.0</ele><time>2026-03-28T11:56:58.807Z</time></trkpt><trkpt lat="45.5405209" lon="10.786606"><ele>183.4</ele><time>2026-03-28T11:56:59.806Z</time></trkpt><trkpt lat="45.5405498" lon="10.7864778"><ele>183.8</ele><time>2026-03-28T11:57:00.806Z</time></trkpt><trkpt lat="45.540599" lon="10.786356"><ele>184.2</ele><time>2026-03-28T11:57:01.806Z</time></trkpt><trkpt lat="45.5406647" lon="10.7862375"><ele>184.6</ele><time>2026-03-28T11:57:02.806Z</time></trkpt><trkpt lat="45.540734" lon="10.7860989"><ele>185.0</ele><time>2026-03-28T11:57:03.807Z</time></trkpt><trkpt lat="45.5408125" lon="10.7859528"><ele>185.0</ele><time>2026-03-28T11:57:04.806Z</time></trkpt><trkpt lat="45.5409157" lon="10.7857886"><ele>185.0</ele><time>2026-03-28T11:57:05.807Z</time></trkpt><trkpt lat="45.5410254" lon="10.785624"><ele>185.0</ele><time>2026-03-28T11:57:06.808Z</time></trkpt><trkpt lat="45.5411342" lon="10.7854706"><ele>184.8</ele><time>2026-03-28T11:57:07.806Z</time></trkpt><trkpt lat="45.5412459" lon="10.7853498"><ele>184.6</ele><time>2026-03-28T11:57:08.807Z</time></trkpt><trkpt lat="45.5413437" lon="10.7852461"><ele>184.39999999999998</ele><time>2026-03-28T11:57:09.807Z</time></trkpt><trkpt lat="45.541424" lon="10.7851753"><ele>184.2</ele><time>2026-03-28T11:57:10.808Z</time></trkpt><trkpt lat="45.5414905" lon="10.7851299"><ele>184.0</ele><time>2026-03-28T11:57:11.808Z</time></trkpt><trkpt lat="45.5415712" lon="10.7850863"><ele>184.0</ele><time>2026-03-28T11:57:12.808Z</time></trkpt><trkpt lat="45.5416508" lon="10.7850425"><ele>184.0</ele><time>2026-03-28T11:57:13.807Z</time></trkpt><trkpt lat="45.5417294" lon="10.7849858"><ele>184.0</ele><time>2026-03-28T11:57:14.807Z</time></trkpt><trkpt lat="45.5418094" lon="10.7849166"><ele>184.0</ele><time>2026-03-28T11:57:15.807Z</time></trkpt><trkpt lat="45.5418902" lon="10.7848576"><ele>184.0</ele><time>2026-03-28T11:57:16.806Z</time></trkpt><trkpt lat="45.5419726" lon="10.7848027"><ele>184.0</ele><time>2026-03-28T11:57:17.807Z</time></trkpt><trkpt lat="45.5420519" lon="10.7847468"><ele>183.6</ele><time>2026-03-28T11:57:18.806Z</time></trkpt><trkpt lat="45.5421237" lon="10.7846809"><ele>183.2</ele><time>2026-03-28T11:57:19.807Z</time></trkpt><trkpt lat="45.5421932" lon="10.7846035"><ele>182.79999999999998</ele><time>2026-03-28T11:57:20.806Z</time></trkpt><trkpt lat="45.5422645" lon="10.7845087"><ele>182.39999999999998</ele><time>2026-03-28T11:57:21.807Z</time></trkpt><trkpt lat="45.5423267" lon="10.7843925"><ele>182.0</ele><time>2026-03-28T11:57:22.807Z</time></trkpt><trkpt lat="45.5423867" lon="10.7842642"><ele>183.0</ele><time>2026-03-28T11:57:23.808Z</time></trkpt><trkpt lat="45.5424507" lon="10.7841265"><ele>184.0</ele><time>2026-03-28T11:57:24.806Z</time></trkpt><trkpt lat="45.542513" lon="10.7839832"><ele>185.0</ele><time>2026-03-28T11:57:25.806Z</time></trkpt><trkpt lat="45.5425888" lon="10.7838344"><ele>186.0</ele><time>2026-03-28T11:57:26.808Z</time></trkpt><trkpt lat="45.5426805" lon="10.7836941"><ele>186.0</ele><time>2026-03-28T11:57:27.808Z</time></trkpt><trkpt lat="45.5427868" lon="10.7835611"><ele>186.0</ele><time>2026-03-28T11:57:28.808Z</time></trkpt><trkpt lat="45.5428947" lon="10.7834285"><ele>186.0</ele><time>2026-03-28T11:57:29.806Z</time></trkpt><trkpt lat="45.5430044" lon="10.7832938"><ele>186.0</ele><time>2026-03-28T11:57:30.807Z</time></trkpt><trkpt lat="45.5431066" lon="10.7831628"><ele>186.0</ele><time>2026-03-28T11:57:31.807Z</time></trkpt><trkpt lat="45.5431895" lon="10.7830316"><ele>186.0</ele><time>2026-03-28T11:57:32.807Z</time></trkpt><trkpt lat="45.5432441" lon="10.7829036"><ele>186.0</ele><time>2026-03-28T11:57:33.807Z</time></trkpt><trkpt lat="45.5432733" lon="10.7827873"><ele>186.0</ele><time>2026-03-28T11:57:34.806Z</time></trkpt><trkpt lat="45.5432873" lon="10.7826971"><ele>186.0</ele><time>2026-03-28T11:57:35.808Z</time></trkpt><trkpt lat="45.5432847" lon="10.7825402"><ele>186.83333333333334</ele><time>2026-03-28T11:57:37.807Z</time></trkpt><trkpt lat="45.5432604" lon="10.782441"><ele>187.66666666666666</ele><time>2026-03-28T11:57:38.807Z</time></trkpt><trkpt lat="45.5432244" lon="10.7823271"><ele>188.5</ele><time>2026-03-28T11:57:39.807Z</time></trkpt><trkpt lat="45.5431917" lon="10.7822048"><ele>189.33333333333331</ele><time>2026-03-28T11:57:40.807Z</time></trkpt><trkpt lat="45.5431687" lon="10.7820766"><ele>190.16666666666666</ele><time>2026-03-28T11:57:41.806Z</time></trkpt><trkpt lat="45.5431547" lon="10.7819433"><ele>191.0</ele><time>2026-03-28T11:57:42.808Z</time></trkpt><trkpt lat="45.5431696" lon="10.7818125"><ele>191.0</ele><time>2026-03-28T11:57:43.807Z</time></trkpt><trkpt lat="45.5432039" lon="10.7816854"><ele>191.0</ele><time>2026-03-28T11:57:44.808Z</time></trkpt><trkpt lat="45.5432488" lon="10.7815623"><ele>191.0</ele><time>2026-03-28T11:57:45.806Z</time></trkpt><trkpt lat="45.5432976" lon="10.7814415"><ele>191.0</ele><time>2026-03-28T11:57:46.807Z</time></trkpt><trkpt lat="45.5433419" lon="10.7813222"><ele>191.0</ele><time>2026-03-28T11:57:47.806Z</time></trkpt><trkpt lat="45.5433854" lon="10.7812185"><ele>191.0</ele><time>2026-03-28T11:57:48.806Z</time></trkpt><trkpt lat="45.5434321" lon="10.7811422"><ele>191.0</ele><time>2026-03-28T11:57:49.807Z</time></trkpt><trkpt lat="45.543497" lon="10.7811023"><ele>191.0</ele><time>2026-03-28T11:57:50.808Z</time></trkpt><trkpt lat="45.5435654" lon="10.7811196"><ele>191.0</ele><time>2026-03-28T11:57:51.808Z</time></trkpt><trkpt lat="45.5436365" lon="10.7811961"><ele>191.0</ele><time>2026-03-28T11:57:52.807Z</time></trkpt><trkpt lat="45.5437" lon="10.7813092"><ele>191.0</ele><time>2026-03-28T11:57:53.808Z</time></trkpt><trkpt lat="45.5437652" lon="10.7814384"><ele>191.0</ele><time>2026-03-28T11:57:54.808Z</time></trkpt><trkpt lat="45.5438552" lon="10.7815735"><ele>191.0</ele><time>2026-03-28T11:57:55.807Z</time></trkpt><trkpt lat="45.5439558" lon="10.7817128"><ele>191.0</ele><time>2026-03-28T11:57:56.807Z</time></trkpt><trkpt lat="45.5440621" lon="10.7818584"><ele>191.0</ele><time>2026-03-28T11:57:57.807Z</time></trkpt><trkpt lat="45.5441801" lon="10.7820049"><ele>189.66666666666666</ele><time>2026-03-28T11:57:58.806Z</time></trkpt><trkpt lat="45.5443037" lon="10.782155"><ele>188.33333333333334</ele><time>2026-03-28T11:57:59.807Z</time></trkpt><trkpt lat="45.5444307" lon="10.7823108"><ele>187.0</ele><time>2026-03-28T11:58:00.808Z</time></trkpt><trkpt lat="45.5445607" lon="10.7824686"><ele>187.0</ele><time>2026-03-28T11:58:01.807Z</time></trkpt><trkpt lat="45.5446915" lon="10.7826293"><ele>187.0</ele><time>2026-03-28T11:58:02.806Z</time></trkpt><trkpt lat="45.5448264" lon="10.7827891"><ele>187.0</ele><time>2026-03-28T11:58:03.807Z</time></trkpt><trkpt lat="45.5449574" lon="10.7829516"><ele>186.33333333333334</ele><time>2026-03-28T11:58:04.807Z</time></trkpt><trkpt lat="45.5450873" lon="10.7831175"><ele>185.66666666666666</ele><time>2026-03-28T11:58:05.808Z</time></trkpt><trkpt lat="45.5452185" lon="10.7832882"><ele>185.0</ele><time>2026-03-28T11:58:06.806Z</time></trkpt><trkpt lat="45.5453453" lon="10.7834675"><ele>184.66666666666666</ele><time>2026-03-28T11:58:07.806Z</time></trkpt><trkpt lat="45.5454651" lon="10.7836543"><ele>184.33333333333334</ele><time>2026-03-28T11:58:08.807Z</time></trkpt><trkpt lat="45.5455826" lon="10.783844"><ele>184.0</ele><time>2026-03-28T11:58:09.807Z</time></trkpt><trkpt lat="45.5456974" lon="10.7840393"><ele>184.0</ele><time>2026-03-28T11:58:10.806Z</time></trkpt><trkpt lat="45.5458126" lon="10.784235"><ele>184.0</ele><time>2026-03-28T11:58:11.808Z</time></trkpt><trkpt lat="45.5459272" lon="10.7844307"><ele>184.0</ele><time>2026-03-28T11:58:12.808Z</time></trkpt><trkpt lat="45.5460416" lon="10.784631"><ele>183.33333333333334</ele><time>2026-03-28T11:58:13.806Z</time></trkpt><trkpt lat="45.5461538" lon="10.784838"><ele>182.66666666666666</ele><time>2026-03-28T11:58:14.807Z</time></trkpt><trkpt lat="45.5462654" lon="10.7850422"><ele>182.0</ele><time>2026-03-28T11:58:15.807Z</time></trkpt><trkpt lat="45.5463782" lon="10.7852464"><ele>182.0</ele><time>2026-03-28T11:58:16.807Z</time></trkpt><trkpt lat="45.5464924" lon="10.7854513"><ele>182.0</ele><time>2026-03-28T11:58:17.806Z</time></trkpt><trkpt lat="45.5466094" lon="10.7856548"><ele>182.0</ele><time>2026-03-28T11:58:18.806Z</time></trkpt><trkpt lat="45.5467319" lon="10.7858572"><ele>180.0</ele><time>2026-03-28T11:58:19.807Z</time></trkpt><trkpt lat="45.5468538" lon="10.7860591"><ele>178.0</ele><time>2026-03-28T11:58:20.806Z</time></trkpt><trkpt lat="45.5469757" lon="10.7862688"><ele>176.0</ele><time>2026-03-28T11:58:21.806Z</time></trkpt><trkpt lat="45.5470984" lon="10.7864815"><ele>175.0</ele><time>2026-03-28T11:58:22.807Z</time></trkpt><trkpt lat="45.547222" lon="10.7866957"><ele>174.0</ele><time>2026-03-28T11:58:23.807Z</time></trkpt><trkpt lat="45.5473433" lon="10.78691"><ele>173.0</ele><time>2026-03-28T11:58:24.807Z</time></trkpt><trkpt lat="45.5474593" lon="10.7871243"><ele>173.0</ele><time>2026-03-28T11:58:25.807Z</time></trkpt><trkpt lat="45.5475701" lon="10.7873411"><ele>173.0</ele><time>2026-03-28T11:58:26.807Z</time></trkpt><trkpt lat="45.5476802" lon="10.7875503"><ele>173.0</ele><time>2026-03-28T11:58:27.807Z</time></trkpt><trkpt lat="45.5477946" lon="10.7877582"><ele>174.0</ele><time>2026-03-28T11:58:28.808Z</time></trkpt><trkpt lat="45.5479065" lon="10.7879578"><ele>175.0</ele><time>2026-03-28T11:58:29.808Z</time></trkpt><trkpt lat="45.5480096" lon="10.7881392"><ele>176.0</ele><time>2026-03-28T11:58:30.807Z</time></trkpt><trkpt lat="45.548104" lon="10.7883036"><ele>176.0</ele><time>2026-03-28T11:58:31.807Z</time></trkpt><trkpt lat="45.5481857" lon="10.7884489"><ele>176.0</ele><time>2026-03-28T11:58:32.807Z</time></trkpt><trkpt lat="45.5482548" lon="10.7885696"><ele>176.0</ele><time>2026-03-28T11:58:33.807Z</time></trkpt><trkpt lat="45.5483107" lon="10.7886574"><ele>176.0</ele><time>2026-03-28T11:58:34.807Z</time></trkpt><trkpt lat="45.5483281" lon="10.7888065"><ele>176.0</ele><time>2026-03-28T11:58:36.807Z</time></trkpt><trkpt lat="45.5482438" lon="10.788936"><ele>177.25</ele><time>2026-03-28T11:58:38.807Z</time></trkpt><trkpt lat="45.548196" lon="10.7890056"><ele>178.5</ele><time>2026-03-28T11:58:39.807Z</time></trkpt><trkpt lat="45.5481393" lon="10.7890855"><ele>179.75</ele><time>2026-03-28T11:58:40.807Z</time></trkpt><trkpt lat="45.5479687" lon="10.7891775"><ele>181.0</ele><time>2026-03-28T11:58:41.807Z</time></trkpt><trkpt lat="45.5478443" lon="10.7893488"><ele>181.5</ele><time>2026-03-28T11:58:42.808Z</time></trkpt><trkpt lat="45.5477395" lon="10.789472"><ele>182.0</ele><time>2026-03-28T11:58:43.807Z</time></trkpt><trkpt lat="45.5476286" lon="10.7895927"><ele>182.5</ele><time>2026-03-28T11:58:44.808Z</time></trkpt><trkpt lat="45.5475101" lon="10.7896885"><ele>183.0</ele><time>2026-03-28T11:58:45.807Z</time></trkpt><trkpt lat="45.5473813" lon="10.7897545"><ele>183.0</ele><time>2026-03-28T11:58:46.806Z</time></trkpt><trkpt lat="45.5472545" lon="10.7898113"><ele>183.0</ele><time>2026-03-28T11:58:47.808Z</time></trkpt><trkpt lat="45.5471304" lon="10.7898798"><ele>183.0</ele><time>2026-03-28T11:58:48.808Z</time></trkpt><trkpt lat="45.5470226" lon="10.7899451"><ele>183.0</ele><time>2026-03-28T11:58:49.807Z</time></trkpt><trkpt lat="45.5469248" lon="10.7900028"><ele>182.60000000000002</ele><time>2026-03-28T11:58:50.807Z</time></trkpt><trkpt lat="45.5468411" lon="10.790067"><ele>182.20000000000002</ele><time>2026-03-28T11:58:51.807Z</time></trkpt><trkpt lat="45.5467647" lon="10.7901703"><ele>181.8</ele><time>2026-03-28T11:58:52.808Z</time></trkpt><trkpt lat="45.5467191" lon="10.7903036"><ele>181.4</ele><time>2026-03-28T11:58:53.807Z</time></trkpt><trkpt lat="45.5466897" lon="10.7904719"><ele>181.0</ele><time>2026-03-28T11:58:54.807Z</time></trkpt><trkpt lat="45.5466689" lon="10.7906601"><ele>180.75</ele><time>2026-03-28T11:58:55.807Z</time></trkpt><trkpt lat="45.5466354" lon="10.7908562"><ele>180.5</ele><time>2026-03-28T11:58:56.807Z</time></trkpt><trkpt lat="45.5466009" lon="10.7910624"><ele>180.25</ele><time>2026-03-28T11:58:57.806Z</time></trkpt><trkpt lat="45.5465671" lon="10.791274"><ele>180.0</ele><time>2026-03-28T11:58:58.807Z</time></trkpt><trkpt lat="45.5465311" lon="10.7914925"><ele>181.0</ele><time>2026-03-28T11:58:59.808Z</time></trkpt><trkpt lat="45.5464971" lon="10.7917142"><ele>182.0</ele><time>2026-03-28T11:59:00.808Z</time></trkpt><trkpt lat="45.5464633" lon="10.7919383"><ele>183.0</ele><time>2026-03-28T11:59:01.807Z</time></trkpt><trkpt lat="45.5464297" lon="10.7921672"><ele>183.0</ele><time>2026-03-28T11:59:02.807Z</time></trkpt><trkpt lat="45.5463982" lon="10.7923906"><ele>183.0</ele><time>2026-03-28T11:59:03.806Z</time></trkpt><trkpt lat="45.5463653" lon="10.7926134"><ele>183.0</ele><time>2026-03-28T11:59:04.808Z</time></trkpt><trkpt lat="45.5463351" lon="10.7928356"><ele>182.66666666666666</ele><time>2026-03-28T11:59:05.806Z</time></trkpt><trkpt lat="45.5463078" lon="10.7930574"><ele>182.33333333333331</ele><time>2026-03-28T11:59:06.806Z</time></trkpt><trkpt lat="45.546278" lon="10.7932782"><ele>182.0</ele><time>2026-03-28T11:59:07.806Z</time></trkpt><trkpt lat="45.5462392" lon="10.7934974"><ele>182.66666666666666</ele><time>2026-03-28T11:59:08.806Z</time></trkpt><trkpt lat="45.5461968" lon="10.7937153"><ele>183.33333333333334</ele><time>2026-03-28T11:59:09.807Z</time></trkpt><trkpt lat="45.5461568" lon="10.7939374"><ele>184.0</ele><time>2026-03-28T11:59:10.806Z</time></trkpt><trkpt lat="45.5461231" lon="10.7941495"><ele>184.0</ele><time>2026-03-28T11:59:11.808Z</time></trkpt><trkpt lat="45.5460948" lon="10.794321"><ele>184.0</ele><time>2026-03-28T11:59:12.807Z</time></trkpt><trkpt lat="45.5460647" lon="10.7944518"><ele>184.0</ele><time>2026-03-28T11:59:13.807Z</time></trkpt><trkpt lat="45.5460344" lon="10.7945521"><ele>184.0</ele><time>2026-03-28T11:59:14.807Z</time></trkpt><trkpt lat="45.5460034" lon="10.7946819"><ele>184.0</ele><time>2026-03-28T11:59:16.806Z</time></trkpt><trkpt lat="45.5460751" lon="10.7946606"><ele>184.0</ele><time>2026-03-28T11:59:20.806Z</time></trkpt><trkpt lat="45.5460982" lon="10.7944564"><ele>184.0</ele><time>2026-03-28T11:59:22.806Z</time></trkpt><trkpt lat="45.5461162" lon="10.7942951"><ele>184.0</ele><time>2026-03-28T11:59:23.806Z</time></trkpt><trkpt lat="45.546144" lon="10.7941094"><ele>184.0</ele><time>2026-03-28T11:59:24.807Z</time></trkpt><trkpt lat="45.5461779" lon="10.7938982"><ele>183.75</ele><time>2026-03-28T11:59:25.807Z</time></trkpt><trkpt lat="45.546219" lon="10.7936715"><ele>183.5</ele><time>2026-03-28T11:59:26.808Z</time></trkpt><trkpt lat="45.5462528" lon="10.7934728"><ele>183.25</ele><time>2026-03-28T11:59:27.808Z</time></trkpt><trkpt lat="45.5462735" lon="10.7933131"><ele>183.0</ele><time>2026-03-28T11:59:28.807Z</time></trkpt><trkpt lat="45.5462923" lon="10.7932057"><ele>182.83333333333334</ele><time>2026-03-28T11:59:29.808Z</time></trkpt><trkpt lat="45.5463243" lon="10.7931258"><ele>182.66666666666666</ele><time>2026-03-28T11:59:31.807Z</time></trkpt><trkpt lat="45.5464079" lon="10.7931146"><ele>182.5</ele><time>2026-03-28T11:59:35.807Z</time></trkpt><trkpt lat="45.5464708" lon="10.7931196"><ele>182.33333333333331</ele><time>2026-03-28T11:59:36.808Z</time></trkpt><trkpt lat="45.546556" lon="10.7931433"><ele>182.16666666666666</ele><time>2026-03-28T11:59:37.807Z</time></trkpt><trkpt lat="45.5466596" lon="10.7931848"><ele>182.0</ele><time>2026-03-28T11:59:38.807Z</time></trkpt><trkpt lat="45.5467782" lon="10.7932445"><ele>182.0</ele><time>2026-03-28T11:59:39.807Z</time></trkpt><trkpt lat="45.5469113" lon="10.7933112"><ele>182.0</ele><time>2026-03-28T11:59:40.807Z</time></trkpt><trkpt lat="45.54704" lon="10.7933762"><ele>182.0</ele><time>2026-03-28T11:59:41.806Z</time></trkpt><trkpt lat="45.5471489" lon="10.7934272"><ele>182.0</ele><time>2026-03-28T11:59:42.806Z</time></trkpt><trkpt lat="45.5472442" lon="10.7934744"><ele>182.0</ele><time>2026-03-28T11:59:43.807Z</time></trkpt><trkpt lat="45.5473153" lon="10.7935024"><ele>182.0</ele><time>2026-03-28T11:59:44.806Z</time></trkpt><trkpt lat="45.547426" lon="10.7934882"><ele>182.0</ele><time>2026-03-28T11:59:46.808Z</time></trkpt><trkpt lat="45.5474741" lon="10.7934132"><ele>182.0</ele><time>2026-03-28T11:59:47.807Z</time></trkpt><trkpt lat="45.5475025" lon="10.7933076"><ele>182.0</ele><time>2026-03-28T11:59:48.808Z</time></trkpt><trkpt lat="45.5475265" lon="10.793167"><ele>182.0</ele><time>2026-03-28T11:59:49.807Z</time></trkpt><trkpt lat="45.5475565" lon="10.7930141"><ele>182.0</ele><time>2026-03-28T11:59:50.806Z</time></trkpt><trkpt lat="45.5475808" lon="10.7928629"><ele>182.0</ele><time>2026-03-28T11:59:51.807Z</time></trkpt><trkpt lat="45.5476086" lon="10.7927367"><ele>182.0</ele><time>2026-03-28T11:59:52.806Z</time></trkpt><trkpt lat="45.5476267" lon="10.7926398"><ele>182.0</ele><time>2026-03-28T11:59:53.807Z</time></trkpt><trkpt lat="45.5476802" lon="10.7925038"><ele>182.0</ele><time>2026-03-28T11:59:55.807Z</time></trkpt><trkpt lat="45.5477685" lon="10.7924328"><ele>182.2</ele><time>2026-03-28T11:59:57.807Z</time></trkpt><trkpt lat="45.5478791" lon="10.7924553"><ele>182.39999999999998</ele><time>2026-03-28T11:59:59.807Z</time></trkpt><trkpt lat="45.5479419" lon="10.7925007"><ele>182.60000000000002</ele><time>2026-03-28T12:00:00.807Z</time></trkpt><trkpt lat="45.5480076" lon="10.7925755"><ele>182.8</ele><time>2026-03-28T12:00:01.806Z</time></trkpt><trkpt lat="45.5480829" lon="10.7926525"><ele>183.0</ele><time>2026-03-28T12:00:02.808Z</time></trkpt><trkpt lat="45.548176" lon="10.7927195"><ele>183.0</ele><time>2026-03-28T12:00:03.808Z</time></trkpt><trkpt lat="45.548274" lon="10.7927714"><ele>183.0</ele><time>2026-03-28T12:00:04.807Z</time></trkpt><trkpt lat="45.548387" lon="10.7928084"><ele>183.0</ele><time>2026-03-28T12:00:05.808Z</time></trkpt><trkpt lat="45.5485048" lon="10.7928352"><ele>183.0</ele><time>2026-03-28T12:00:06.808Z</time></trkpt><trkpt lat="45.5486266" lon="10.7928462"><ele>184.0</ele><time>2026-03-28T12:00:07.807Z</time></trkpt><trkpt lat="45.5487544" lon="10.7928411"><ele>185.0</ele><time>2026-03-28T12:00:08.807Z</time></trkpt><trkpt lat="45.5488666" lon="10.7928323"><ele>186.0</ele><time>2026-03-28T12:00:09.807Z</time></trkpt><trkpt lat="45.5489661" lon="10.7928115"><ele>187.0</ele><time>2026-03-28T12:00:10.807Z</time></trkpt><trkpt lat="45.5490763" lon="10.7927854"><ele>187.0</ele><time>2026-03-28T12:00:11.807Z</time></trkpt><trkpt lat="45.5491729" lon="10.79276"><ele>187.0</ele><time>2026-03-28T12:00:12.807Z</time></trkpt><trkpt lat="45.5492575" lon="10.7927413"><ele>187.0</ele><time>2026-03-28T12:00:13.807Z</time></trkpt><trkpt lat="45.5493302" lon="10.7927324"><ele>187.0</ele><time>2026-03-28T12:00:14.807Z</time></trkpt><trkpt lat="45.5494066" lon="10.7927224"><ele>187.0</ele><time>2026-03-28T12:00:15.806Z</time></trkpt><trkpt lat="45.5494786" lon="10.7927201"><ele>187.0</ele><time>2026-03-28T12:00:16.807Z</time></trkpt><trkpt lat="45.5495596" lon="10.7927366"><ele>186.83333333333334</ele><time>2026-03-28T12:00:17.807Z</time></trkpt><trkpt lat="45.5496269" lon="10.7927741"><ele>186.66666666666669</ele><time>2026-03-28T12:00:18.808Z</time></trkpt><trkpt lat="45.5496948" lon="10.7928226"><ele>186.5</ele><time>2026-03-28T12:00:19.806Z</time></trkpt><trkpt lat="45.5497701" lon="10.7928741"><ele>186.33333333333334</ele><time>2026-03-28T12:00:20.807Z</time></trkpt><trkpt lat="45.5498426" lon="10.7929315"><ele>186.16666666666666</ele><time>2026-03-28T12:00:21.808Z</time></trkpt><trkpt lat="45.5499098" lon="10.792999"><ele>186.0</ele><time>2026-03-28T12:00:22.807Z</time></trkpt><trkpt lat="45.5499775" lon="10.7930669"><ele>186.0</ele><time>2026-03-28T12:00:23.807Z</time></trkpt><trkpt lat="45.5500534" lon="10.7931467"><ele>186.0</ele><time>2026-03-28T12:00:24.806Z</time></trkpt><trkpt lat="45.550139" lon="10.7932389"><ele>186.0</ele><time>2026-03-28T12:00:25.806Z</time></trkpt><trkpt lat="45.5502174" lon="10.7933522"><ele>186.0</ele><time>2026-03-28T12:00:26.807Z</time></trkpt><trkpt lat="45.5502929" lon="10.7934791"><ele>186.0</ele><time>2026-03-28T12:00:27.808Z</time></trkpt><trkpt lat="45.5503679" lon="10.7936202"><ele>186.25</ele><time>2026-03-28T12:00:28.807Z</time></trkpt><trkpt lat="45.5504467" lon="10.7937623"><ele>186.5</ele><time>2026-03-28T12:00:29.807Z</time></trkpt><trkpt lat="45.5505191" lon="10.7938926"><ele>186.75</ele><time>2026-03-28T12:00:30.807Z</time></trkpt><trkpt lat="45.5505882" lon="10.7940123"><ele>187.0</ele><time>2026-03-28T12:00:31.807Z</time></trkpt><trkpt lat="45.5506563" lon="10.7941329"><ele>187.0</ele><time>2026-03-28T12:00:32.807Z</time></trkpt><trkpt lat="45.5507155" lon="10.7942452"><ele>187.0</ele><time>2026-03-28T12:00:33.807Z</time></trkpt><trkpt lat="45.5507671" lon="10.794353"><ele>187.0</ele><time>2026-03-28T12:00:34.808Z</time></trkpt><trkpt lat="45.5508037" lon="10.7944644"><ele>187.0</ele><time>2026-03-28T12:00:35.806Z</time></trkpt><trkpt lat="45.5508114" lon="10.7945691"><ele>187.0</ele><time>2026-03-28T12:00:36.806Z</time></trkpt><trkpt lat="45.5507982" lon="10.7946912"><ele>187.0</ele><time>2026-03-28T12:00:37.807Z</time></trkpt><trkpt lat="45.55079" lon="10.794811"><ele>186.75</ele><time>2026-03-28T12:00:38.807Z</time></trkpt><trkpt lat="45.5507887" lon="10.7949502"><ele>186.5</ele><time>2026-03-28T12:00:39.808Z</time></trkpt><trkpt lat="45.5507918" lon="10.7951035"><ele>186.25</ele><time>2026-03-28T12:00:40.807Z</time></trkpt><trkpt lat="45.550792" lon="10.7952711"><ele>186.0</ele><time>2026-03-28T12:00:41.807Z</time></trkpt><trkpt lat="45.5507885" lon="10.795455"><ele>186.0</ele><time>2026-03-28T12:00:42.806Z</time></trkpt><trkpt lat="45.5507851" lon="10.7956499"><ele>186.0</ele><time>2026-03-28T12:00:43.807Z</time></trkpt><trkpt lat="45.5507864" lon="10.7958426"><ele>186.0</ele><time>2026-03-28T12:00:44.807Z</time></trkpt><trkpt lat="45.5507881" lon="10.7960092"><ele>186.0</ele><time>2026-03-28T12:00:45.807Z</time></trkpt><trkpt lat="45.550796" lon="10.7961697"><ele>186.0</ele><time>2026-03-28T12:00:46.807Z</time></trkpt><trkpt lat="45.5508059" lon="10.7963297"><ele>186.0</ele><time>2026-03-28T12:00:47.806Z</time></trkpt><trkpt lat="45.5508146" lon="10.7964688"><ele>186.0</ele><time>2026-03-28T12:00:48.807Z</time></trkpt><trkpt lat="45.5508284" lon="10.7965934"><ele>186.0</ele><time>2026-03-28T12:00:49.807Z</time></trkpt><trkpt lat="45.5508427" lon="10.7967103"><ele>186.0</ele><time>2026-03-28T12:00:50.808Z</time></trkpt><trkpt lat="45.5508568" lon="10.7968451"><ele>185.75</ele><time>2026-03-28T12:00:51.807Z</time></trkpt><trkpt lat="45.5508612" lon="10.7970083"><ele>185.5</ele><time>2026-03-28T12:00:52.807Z</time></trkpt><trkpt lat="45.5508547" lon="10.797182"><ele>185.25</ele><time>2026-03-28T12:00:53.807Z</time></trkpt><trkpt lat="45.5508464" lon="10.7973811"><ele>185.0</ele><time>2026-03-28T12:00:54.807Z</time></trkpt><trkpt lat="45.5508373" lon="10.7975914"><ele>185.33333333333331</ele><time>2026-03-28T12:00:55.807Z</time></trkpt><trkpt lat="45.5508316" lon="10.7978065"><ele>185.66666666666666</ele><time>2026-03-28T12:00:56.806Z</time></trkpt><trkpt lat="45.5508267" lon="10.7980299"><ele>186.0</ele><time>2026-03-28T12:00:57.807Z</time></trkpt><trkpt lat="45.550818" lon="10.798256"><ele>186.0</ele><time>2026-03-28T12:00:58.807Z</time></trkpt><trkpt lat="45.5508093" lon="10.7984676"><ele>186.0</ele><time>2026-03-28T12:00:59.807Z</time></trkpt><trkpt lat="45.5507999" lon="10.7986695"><ele>186.0</ele><time>2026-03-28T12:01:00.808Z</time></trkpt><trkpt lat="45.550792" lon="10.798887"><ele>186.0</ele><time>2026-03-28T12:01:01.807Z</time></trkpt><trkpt lat="45.5507875" lon="10.7991163"><ele>185.33333333333334</ele><time>2026-03-28T12:01:02.806Z</time></trkpt><trkpt lat="45.5507877" lon="10.7993545"><ele>184.66666666666669</ele><time>2026-03-28T12:01:03.807Z</time></trkpt><trkpt lat="45.5507928" lon="10.7996019"><ele>184.0</ele><time>2026-03-28T12:01:04.808Z</time></trkpt><trkpt lat="45.5508015" lon="10.7998578"><ele>184.0</ele><time>2026-03-28T12:01:05.808Z</time></trkpt><trkpt lat="45.550814" lon="10.8001153"><ele>184.0</ele><time>2026-03-28T12:01:06.806Z</time></trkpt><trkpt lat="45.5508338" lon="10.8003695"><ele>184.0</ele><time>2026-03-28T12:01:07.807Z</time></trkpt><trkpt lat="45.5508538" lon="10.8006216"><ele>182.66666666666669</ele><time>2026-03-28T12:01:08.806Z</time></trkpt><trkpt lat="45.5508756" lon="10.8008755"><ele>181.33333333333334</ele><time>2026-03-28T12:01:09.807Z</time></trkpt><trkpt lat="45.5508941" lon="10.8011237"><ele>180.0</ele><time>2026-03-28T12:01:10.807Z</time></trkpt><trkpt lat="45.5509019" lon="10.8013716"><ele>179.0</ele><time>2026-03-28T12:01:11.806Z</time></trkpt><trkpt lat="45.5508944" lon="10.8016184"><ele>178.0</ele><time>2026-03-28T12:01:12.806Z</time></trkpt><trkpt lat="45.550877" lon="10.8018607"><ele>177.0</ele><time>2026-03-28T12:01:13.808Z</time></trkpt><trkpt lat="45.5508569" lon="10.8020928"><ele>177.0</ele><time>2026-03-28T12:01:14.807Z</time></trkpt><trkpt lat="45.5508398" lon="10.802305"><ele>177.0</ele><time>2026-03-28T12:01:15.807Z</time></trkpt><trkpt lat="45.5508229" lon="10.8025064"><ele>177.0</ele><time>2026-03-28T12:01:16.808Z</time></trkpt><trkpt lat="45.550791" lon="10.8026986"><ele>177.0</ele><time>2026-03-28T12:01:17.807Z</time></trkpt><trkpt lat="45.5507417" lon="10.8028825"><ele>176.0</ele><time>2026-03-28T12:01:18.808Z</time></trkpt><trkpt lat="45.5506798" lon="10.8030515"><ele>175.0</ele><time>2026-03-28T12:01:19.807Z</time></trkpt><trkpt lat="45.5506075" lon="10.8032051"><ele>174.0</ele><time>2026-03-28T12:01:20.808Z</time></trkpt><trkpt lat="45.5505327" lon="10.8033438"><ele>173.0</ele><time>2026-03-28T12:01:21.807Z</time></trkpt><trkpt lat="45.5504615" lon="10.8034713"><ele>172.66666666666666</ele><time>2026-03-28T12:01:22.807Z</time></trkpt><trkpt lat="45.550414" lon="10.8035916"><ele>172.33333333333331</ele><time>2026-03-28T12:01:23.807Z</time></trkpt><trkpt lat="45.5503986" lon="10.8036979"><ele>172.0</ele><time>2026-03-28T12:01:24.806Z</time></trkpt><trkpt lat="45.550415" lon="10.8037906"><ele>171.66666666666666</ele><time>2026-03-28T12:01:25.808Z</time></trkpt><trkpt lat="45.5504591" lon="10.8038626"><ele>171.33333333333334</ele><time>2026-03-28T12:01:26.807Z</time></trkpt><trkpt lat="45.5505295" lon="10.8039302"><ele>171.0</ele><time>2026-03-28T12:01:27.807Z</time></trkpt><trkpt lat="45.5506269" lon="10.8039812"><ele>171.0</ele><time>2026-03-28T12:01:28.806Z</time></trkpt><trkpt lat="45.5507417" lon="10.8040141"><ele>171.0</ele><time>2026-03-28T12:01:29.807Z</time></trkpt><trkpt lat="45.5508736" lon="10.804023"><ele>171.0</ele><time>2026-03-28T12:01:30.807Z</time></trkpt><trkpt lat="45.5510204" lon="10.804015"><ele>171.0</ele><time>2026-03-28T12:01:31.806Z</time></trkpt><trkpt lat="45.551178" lon="10.8040042"><ele>171.66666666666666</ele><time>2026-03-28T12:01:32.807Z</time></trkpt><trkpt lat="45.5513494" lon="10.8039969"><ele>172.33333333333331</ele><time>2026-03-28T12:01:33.806Z</time></trkpt><trkpt lat="45.5515309" lon="10.8039841"><ele>173.0</ele><time>2026-03-28T12:01:34.808Z</time></trkpt><trkpt lat="45.5517204" lon="10.803968"><ele>173.0</ele><time>2026-03-28T12:01:35.807Z</time></trkpt><trkpt lat="45.5519149" lon="10.8039506"><ele>173.0</ele><time>2026-03-28T12:01:36.807Z</time></trkpt><trkpt lat="45.5521083" lon="10.8039294"><ele>173.0</ele><time>2026-03-28T12:01:37.806Z</time></trkpt><trkpt lat="45.552291" lon="10.8039048"><ele>172.66666666666666</ele><time>2026-03-28T12:01:38.807Z</time></trkpt><trkpt lat="45.5524629" lon="10.8038746"><ele>172.33333333333334</ele><time>2026-03-28T12:01:39.807Z</time></trkpt><trkpt lat="45.5526364" lon="10.8038488"><ele>172.0</ele><time>2026-03-28T12:01:40.806Z</time></trkpt><trkpt lat="45.5527999" lon="10.8038189"><ele>173.0</ele><time>2026-03-28T12:01:41.807Z</time></trkpt><trkpt lat="45.5529598" lon="10.8037868"><ele>174.0</ele><time>2026-03-28T12:01:42.807Z</time></trkpt><trkpt lat="45.5531168" lon="10.8037572"><ele>175.0</ele><time>2026-03-28T12:01:43.807Z</time></trkpt><trkpt lat="45.5532789" lon="10.803726"><ele>175.0</ele><time>2026-03-28T12:01:44.808Z</time></trkpt><trkpt lat="45.5534434" lon="10.8036973"><ele>175.0</ele><time>2026-03-28T12:01:45.806Z</time></trkpt><trkpt lat="45.5536116" lon="10.8036669"><ele>175.0</ele><time>2026-03-28T12:01:46.807Z</time></trkpt><trkpt lat="45.5537839" lon="10.8036412"><ele>175.0</ele><time>2026-03-28T12:01:47.808Z</time></trkpt><trkpt lat="45.553957" lon="10.8036175"><ele>175.0</ele><time>2026-03-28T12:01:48.808Z</time></trkpt><trkpt lat="45.554128" lon="10.8036104"><ele>175.0</ele><time>2026-03-28T12:01:49.806Z</time></trkpt><trkpt lat="45.5542992" lon="10.8036195"><ele>175.0</ele><time>2026-03-28T12:01:50.807Z</time></trkpt><trkpt lat="45.554469" lon="10.8036415"><ele>175.0</ele><time>2026-03-28T12:01:51.808Z</time></trkpt><trkpt lat="45.5546328" lon="10.8036655"><ele>175.0</ele><time>2026-03-28T12:01:52.806Z</time></trkpt><trkpt lat="45.5548043" lon="10.8036726"><ele>176.0</ele><time>2026-03-28T12:01:53.807Z</time></trkpt><trkpt lat="45.5549794" lon="10.8036538"><ele>177.0</ele><time>2026-03-28T12:01:54.807Z</time></trkpt><trkpt lat="45.5551551" lon="10.8036036"><ele>178.0</ele><time>2026-03-28T12:01:55.806Z</time></trkpt><trkpt lat="45.5553285" lon="10.8035263"><ele>178.0</ele><time>2026-03-28T12:01:56.806Z</time></trkpt><trkpt lat="45.5554934" lon="10.8034278"><ele>178.0</ele><time>2026-03-28T12:01:57.807Z</time></trkpt><trkpt lat="45.5556517" lon="10.8033052"><ele>178.0</ele><time>2026-03-28T12:01:58.807Z</time></trkpt><trkpt lat="45.5558059" lon="10.8031709"><ele>178.0</ele><time>2026-03-28T12:01:59.806Z</time></trkpt><trkpt lat="45.5559566" lon="10.8030319"><ele>178.0</ele><time>2026-03-28T12:02:00.807Z</time></trkpt><trkpt lat="45.5561019" lon="10.8028941"><ele>178.0</ele><time>2026-03-28T12:02:01.807Z</time></trkpt><trkpt lat="45.5562454" lon="10.8027591"><ele>178.66666666666669</ele><time>2026-03-28T12:02:02.806Z</time></trkpt><trkpt lat="45.5563889" lon="10.8026287"><ele>179.33333333333334</ele><time>2026-03-28T12:02:03.806Z</time></trkpt><trkpt lat="45.5565332" lon="10.802497"><ele>180.0</ele><time>2026-03-28T12:02:04.806Z</time></trkpt><trkpt lat="45.5566771" lon="10.8023621"><ele>180.0</ele><time>2026-03-28T12:02:05.807Z</time></trkpt><trkpt lat="45.5568253" lon="10.8022244"><ele>180.0</ele><time>2026-03-28T12:02:06.807Z</time></trkpt><trkpt lat="45.5569706" lon="10.802091"><ele>180.0</ele><time>2026-03-28T12:02:07.806Z</time></trkpt><trkpt lat="45.5571148" lon="10.8019583"><ele>181.0</ele><time>2026-03-28T12:02:08.808Z</time></trkpt><trkpt lat="45.5572563" lon="10.8018271"><ele>182.0</ele><time>2026-03-28T12:02:09.807Z</time></trkpt><trkpt lat="45.5574017" lon="10.8016936"><ele>183.0</ele><time>2026-03-28T12:02:10.806Z</time></trkpt><trkpt lat="45.5575522" lon="10.8015623"><ele>183.0</ele><time>2026-03-28T12:02:11.807Z</time></trkpt><trkpt lat="45.5577061" lon="10.8014393"><ele>183.0</ele><time>2026-03-28T12:02:12.807Z</time></trkpt><trkpt lat="45.5578579" lon="10.8013241"><ele>183.0</ele><time>2026-03-28T12:02:13.807Z</time></trkpt><trkpt lat="45.5580116" lon="10.8012112"><ele>183.66666666666666</ele><time>2026-03-28T12:02:14.807Z</time></trkpt><trkpt lat="45.5581654" lon="10.8010915"><ele>184.33333333333331</ele><time>2026-03-28T12:02:15.806Z</time></trkpt><trkpt lat="45.558318" lon="10.8009631"><ele>185.0</ele><time>2026-03-28T12:02:16.806Z</time></trkpt><trkpt lat="45.5584654" lon="10.8008219"><ele>185.0</ele><time>2026-03-28T12:02:17.807Z</time></trkpt><trkpt lat="45.5586046" lon="10.8006634"><ele>185.0</ele><time>2026-03-28T12:02:18.807Z</time></trkpt><trkpt lat="45.5587395" lon="10.8004985"><ele>185.0</ele><time>2026-03-28T12:02:19.808Z</time></trkpt><trkpt lat="45.558871" lon="10.8003362"><ele>185.0</ele><time>2026-03-28T12:02:20.807Z</time></trkpt><trkpt lat="45.5590084" lon="10.8001943"><ele>185.0</ele><time>2026-03-28T12:02:21.807Z</time></trkpt><trkpt lat="45.5591617" lon="10.800082"><ele>185.0</ele><time>2026-03-28T12:02:22.806Z</time></trkpt><trkpt lat="45.5593248" lon="10.7999899"><ele>185.0</ele><time>2026-03-28T12:02:23.807Z</time></trkpt><trkpt lat="45.5595017" lon="10.799932"><ele>185.0</ele><time>2026-03-28T12:02:24.807Z</time></trkpt><trkpt lat="45.5596807" lon="10.7999135"><ele>185.0</ele><time>2026-03-28T12:02:25.808Z</time></trkpt><trkpt lat="45.5598648" lon="10.799923"><ele>185.0</ele><time>2026-03-28T12:02:26.807Z</time></trkpt><trkpt lat="45.5600548" lon="10.7999397"><ele>185.0</ele><time>2026-03-28T12:02:27.806Z</time></trkpt><trkpt lat="45.5602467" lon="10.7999619"><ele>185.0</ele><time>2026-03-28T12:02:28.806Z</time></trkpt><trkpt lat="45.5604382" lon="10.7999825"><ele>185.0</ele><time>2026-03-28T12:02:29.808Z</time></trkpt><trkpt lat="45.5606329" lon="10.8000035"><ele>185.0</ele><time>2026-03-28T12:02:30.807Z</time></trkpt><trkpt lat="45.5608252" lon="10.8000244"><ele>185.0</ele><time>2026-03-28T12:02:31.808Z</time></trkpt><trkpt lat="45.5610195" lon="10.8000441"><ele>185.33333333333331</ele><time>2026-03-28T12:02:32.807Z</time></trkpt><trkpt lat="45.5612146" lon="10.800062"><ele>185.66666666666666</ele><time>2026-03-28T12:02:33.808Z</time></trkpt><trkpt lat="45.5614072" lon="10.8000775"><ele>186.0</ele><time>2026-03-28T12:02:34.806Z</time></trkpt><trkpt lat="45.5615982" lon="10.8000976"><ele>186.0</ele><time>2026-03-28T12:02:35.807Z</time></trkpt><trkpt lat="45.5617868" lon="10.8001237"><ele>186.0</ele><time>2026-03-28T12:02:36.807Z</time></trkpt><trkpt lat="45.5619727" lon="10.8001553"><ele>186.0</ele><time>2026-03-28T12:02:37.806Z</time></trkpt><trkpt lat="45.5621552" lon="10.8001933"><ele>186.66666666666666</ele><time>2026-03-28T12:02:38.806Z</time></trkpt><trkpt lat="45.5623381" lon="10.8002324"><ele>187.33333333333331</ele><time>2026-03-28T12:02:39.807Z</time></trkpt><trkpt lat="45.5625213" lon="10.8002748"><ele>188.0</ele><time>2026-03-28T12:02:40.807Z</time></trkpt><trkpt lat="45.5627018" lon="10.800323"><ele>189.0</ele><time>2026-03-28T12:02:41.808Z</time></trkpt><trkpt lat="45.5628811" lon="10.8003775"><ele>190.0</ele><time>2026-03-28T12:02:42.806Z</time></trkpt><trkpt lat="45.563057" lon="10.8004437"><ele>191.0</ele><time>2026-03-28T12:02:43.806Z</time></trkpt><trkpt lat="45.5632292" lon="10.8005285"><ele>191.0</ele><time>2026-03-28T12:02:44.807Z</time></trkpt><trkpt lat="45.5633937" lon="10.8006243"><ele>191.0</ele><time>2026-03-28T12:02:45.807Z</time></trkpt><trkpt lat="45.5635546" lon="10.800742"><ele>191.0</ele><time>2026-03-28T12:02:46.808Z</time></trkpt><trkpt lat="45.563709" lon="10.800869"><ele>190.33333333333331</ele><time>2026-03-28T12:02:47.808Z</time></trkpt><trkpt lat="45.5638665" lon="10.8010002"><ele>189.66666666666666</ele><time>2026-03-28T12:02:48.806Z</time></trkpt><trkpt lat="45.564023" lon="10.8011297"><ele>189.0</ele><time>2026-03-28T12:02:49.808Z</time></trkpt><trkpt lat="45.5641805" lon="10.8012582"><ele>189.0</ele><time>2026-03-28T12:02:50.807Z</time></trkpt><trkpt lat="45.5643417" lon="10.8013884"><ele>189.0</ele><time>2026-03-28T12:02:51.808Z</time></trkpt><trkpt lat="45.5645055" lon="10.8015112"><ele>189.0</ele><time>2026-03-28T12:02:52.807Z</time></trkpt><trkpt lat="45.5646755" lon="10.8016276"><ele>189.33333333333334</ele><time>2026-03-28T12:02:53.806Z</time></trkpt><trkpt lat="45.5648522" lon="10.8017307"><ele>189.66666666666669</ele><time>2026-03-28T12:02:54.808Z</time></trkpt><trkpt lat="45.5650336" lon="10.80181"><ele>190.0</ele><time>2026-03-28T12:02:55.807Z</time></trkpt><trkpt lat="45.5652172" lon="10.8018666"><ele>190.33333333333334</ele><time>2026-03-28T12:02:56.806Z</time></trkpt><trkpt lat="45.5654031" lon="10.8019143"><ele>190.66666666666666</ele><time>2026-03-28T12:02:57.807Z</time></trkpt><trkpt lat="45.5655904" lon="10.8019548"><ele>191.0</ele><time>2026-03-28T12:02:58.807Z</time></trkpt><trkpt lat="45.5657779" lon="10.8019967"><ele>191.0</ele><time>2026-03-28T12:02:59.808Z</time></trkpt><trkpt lat="45.5659635" lon="10.802036"><ele>191.0</ele><time>2026-03-28T12:03:00.808Z</time></trkpt><trkpt lat="45.5661471" lon="10.80208"><ele>191.0</ele><time>2026-03-28T12:03:01.808Z</time></trkpt><trkpt lat="45.5663299" lon="10.8021247"><ele>190.66666666666666</ele><time>2026-03-28T12:03:02.807Z</time></trkpt><trkpt lat="45.5665117" lon="10.8021716"><ele>190.33333333333334</ele><time>2026-03-28T12:03:03.808Z</time></trkpt><trkpt lat="45.5666918" lon="10.8022166"><ele>190.0</ele><time>2026-03-28T12:03:04.807Z</time></trkpt><trkpt lat="45.5668756" lon="10.8022512"><ele>190.66666666666669</ele><time>2026-03-28T12:03:05.808Z</time></trkpt><trkpt lat="45.567061" lon="10.8022697"><ele>191.33333333333334</ele><time>2026-03-28T12:03:06.807Z</time></trkpt><trkpt lat="45.5672486" lon="10.8022765"><ele>192.0</ele><time>2026-03-28T12:03:07.807Z</time></trkpt><trkpt lat="45.5674362" lon="10.802272"><ele>192.0</ele><time>2026-03-28T12:03:08.807Z</time></trkpt><trkpt lat="45.5676231" lon="10.8022634"><ele>192.0</ele><time>2026-03-28T12:03:09.807Z</time></trkpt><trkpt lat="45.5678123" lon="10.802244"><ele>192.0</ele><time>2026-03-28T12:03:10.806Z</time></trkpt><trkpt lat="45.5679978" lon="10.8022223"><ele>191.66666666666666</ele><time>2026-03-28T12:03:11.807Z</time></trkpt><trkpt lat="45.5681799" lon="10.8021991"><ele>191.33333333333331</ele><time>2026-03-28T12:03:12.807Z</time></trkpt><trkpt lat="45.5683545" lon="10.8021777"><ele>191.0</ele><time>2026-03-28T12:03:13.807Z</time></trkpt><trkpt lat="45.5685156" lon="10.8021596"><ele>191.0</ele><time>2026-03-28T12:03:14.807Z</time></trkpt><trkpt lat="45.5686605" lon="10.8021484"><ele>191.0</ele><time>2026-03-28T12:03:15.807Z</time></trkpt><trkpt lat="45.5687925" lon="10.8021442"><ele>191.0</ele><time>2026-03-28T12:03:16.807Z</time></trkpt><trkpt lat="45.5689117" lon="10.802143"><ele>191.0</ele><time>2026-03-28T12:03:17.806Z</time></trkpt><trkpt lat="45.5690189" lon="10.802146"><ele>191.5</ele><time>2026-03-28T12:03:18.807Z</time></trkpt><trkpt lat="45.5691142" lon="10.802146"><ele>192.0</ele><time>2026-03-28T12:03:19.807Z</time></trkpt><trkpt lat="45.5692014" lon="10.8021377"><ele>192.5</ele><time>2026-03-28T12:03:20.807Z</time></trkpt><trkpt lat="45.5692786" lon="10.8021161"><ele>193.0</ele><time>2026-03-28T12:03:21.807Z</time></trkpt><trkpt lat="45.5693451" lon="10.8020606"><ele>193.50000000000003</ele><time>2026-03-28T12:03:22.807Z</time></trkpt><trkpt lat="45.569401" lon="10.8019672"><ele>194.0</ele><time>2026-03-28T12:03:23.807Z</time></trkpt><trkpt lat="45.5694521" lon="10.8018368"><ele>193.5</ele><time>2026-03-28T12:03:24.807Z</time></trkpt><trkpt lat="45.5694925" lon="10.8016846"><ele>193.0</ele><time>2026-03-28T12:03:25.807Z</time></trkpt><trkpt lat="45.5695247" lon="10.8015328"><ele>192.5</ele><time>2026-03-28T12:03:26.807Z</time></trkpt><trkpt lat="45.5695568" lon="10.801381"><ele>192.0</ele><time>2026-03-28T12:03:27.807Z</time></trkpt><trkpt lat="45.5695983" lon="10.801225"><ele>192.0</ele><time>2026-03-28T12:03:28.807Z</time></trkpt><trkpt lat="45.569642" lon="10.8010652"><ele>192.0</ele><time>2026-03-28T12:03:29.807Z</time></trkpt><trkpt lat="45.5696829" lon="10.8009078"><ele>192.0</ele><time>2026-03-28T12:03:30.808Z</time></trkpt><trkpt lat="45.5697182" lon="10.8007638"><ele>192.0</ele><time>2026-03-28T12:03:31.807Z</time></trkpt><trkpt lat="45.5697563" lon="10.8006181"><ele>192.0</ele><time>2026-03-28T12:03:32.807Z</time></trkpt><trkpt lat="45.5697909" lon="10.8004747"><ele>192.0</ele><time>2026-03-28T12:03:33.806Z</time></trkpt><trkpt lat="45.5698254" lon="10.8003517"><ele>192.0</ele><time>2026-03-28T12:03:34.807Z</time></trkpt><trkpt lat="45.5698614" lon="10.8002529"><ele>192.0</ele><time>2026-03-28T12:03:35.807Z</time></trkpt><trkpt lat="45.5699076" lon="10.8001622"><ele>192.0</ele><time>2026-03-28T12:03:36.807Z</time></trkpt><trkpt lat="45.5699614" lon="10.8001004"><ele>192.0</ele><time>2026-03-28T12:03:37.807Z</time></trkpt><trkpt lat="45.5700284" lon="10.8000597"><ele>192.33333333333334</ele><time>2026-03-28T12:03:38.806Z</time></trkpt><trkpt lat="45.5701007" lon="10.8000373"><ele>192.66666666666669</ele><time>2026-03-28T12:03:39.807Z</time></trkpt><trkpt lat="45.5701761" lon="10.8000166"><ele>193.0</ele><time>2026-03-28T12:03:40.807Z</time></trkpt><trkpt lat="45.5702499" lon="10.8000005"><ele>193.33333333333334</ele><time>2026-03-28T12:03:41.806Z</time></trkpt><trkpt lat="45.5703284" lon="10.7999756"><ele>193.66666666666669</ele><time>2026-03-28T12:03:42.807Z</time></trkpt><trkpt lat="45.5704085" lon="10.7999593"><ele>194.0</ele><time>2026-03-28T12:03:43.807Z</time></trkpt><trkpt lat="45.5704944" lon="10.7999331"><ele>194.6</ele><time>2026-03-28T12:03:44.808Z</time></trkpt><trkpt lat="45.5705797" lon="10.7998917"><ele>195.2</ele><time>2026-03-28T12:03:45.806Z</time></trkpt><trkpt lat="45.5706659" lon="10.7998311"><ele>195.79999999999998</ele><time>2026-03-28T12:03:46.807Z</time></trkpt><trkpt lat="45.5707477" lon="10.7997618"><ele>196.39999999999998</ele><time>2026-03-28T12:03:47.807Z</time></trkpt><trkpt lat="45.5708309" lon="10.7996865"><ele>197.0</ele><time>2026-03-28T12:03:48.806Z</time></trkpt><trkpt lat="45.5709226" lon="10.7996232"><ele>197.0</ele><time>2026-03-28T12:03:49.808Z</time></trkpt><trkpt lat="45.5710232" lon="10.799566"><ele>197.0</ele><time>2026-03-28T12:03:50.808Z</time></trkpt><trkpt lat="45.5711241" lon="10.7995044"><ele>197.0</ele><time>2026-03-28T12:03:51.807Z</time></trkpt><trkpt lat="45.5712238" lon="10.7994321"><ele>197.0</ele><time>2026-03-28T12:03:52.806Z</time></trkpt><trkpt lat="45.5713232" lon="10.7993563"><ele>197.0</ele><time>2026-03-28T12:03:53.808Z</time></trkpt><trkpt lat="45.5714216" lon="10.7992826"><ele>198.0</ele><time>2026-03-28T12:03:54.806Z</time></trkpt><trkpt lat="45.5715214" lon="10.7992061"><ele>199.0</ele><time>2026-03-28T12:03:55.808Z</time></trkpt><trkpt lat="45.5716243" lon="10.7991309"><ele>200.0</ele><time>2026-03-28T12:03:56.806Z</time></trkpt><trkpt lat="45.571731" lon="10.7990509"><ele>201.0</ele><time>2026-03-28T12:03:57.807Z</time></trkpt><trkpt lat="45.5718393" lon="10.7989702"><ele>201.0</ele><time>2026-03-28T12:03:58.808Z</time></trkpt><trkpt lat="45.571947" lon="10.7988926"><ele>201.0</ele><time>2026-03-28T12:03:59.807Z</time></trkpt><trkpt lat="45.5720483" lon="10.7988168"><ele>201.0</ele><time>2026-03-28T12:04:00.807Z</time></trkpt><trkpt lat="45.5721395" lon="10.7987286"><ele>201.0</ele><time>2026-03-28T12:04:01.806Z</time></trkpt><trkpt lat="45.5722333" lon="10.7986406"><ele>201.0</ele><time>2026-03-28T12:04:02.808Z</time></trkpt><trkpt lat="45.5723374" lon="10.7985608"><ele>201.0</ele><time>2026-03-28T12:04:03.807Z</time></trkpt><trkpt lat="45.5724541" lon="10.7984914"><ele>201.0</ele><time>2026-03-28T12:04:04.807Z</time></trkpt><trkpt lat="45.57257" lon="10.7984113"><ele>201.0</ele><time>2026-03-28T12:04:05.807Z</time></trkpt><trkpt lat="45.5726893" lon="10.7983307"><ele>201.5</ele><time>2026-03-28T12:04:06.807Z</time></trkpt><trkpt lat="45.5728116" lon="10.7982501"><ele>202.0</ele><time>2026-03-28T12:04:07.807Z</time></trkpt><trkpt lat="45.572936" lon="10.7981808"><ele>202.5</ele><time>2026-03-28T12:04:08.807Z</time></trkpt><trkpt lat="45.5730632" lon="10.7981287"><ele>203.0</ele><time>2026-03-28T12:04:09.807Z</time></trkpt><trkpt lat="45.5731857" lon="10.7980723"><ele>203.0</ele><time>2026-03-28T12:04:10.807Z</time></trkpt><trkpt lat="45.5733075" lon="10.7980199"><ele>203.0</ele><time>2026-03-28T12:04:11.807Z</time></trkpt><trkpt lat="45.5734322" lon="10.7979739"><ele>203.0</ele><time>2026-03-28T12:04:12.806Z</time></trkpt><trkpt lat="45.5735537" lon="10.7979263"><ele>203.0</ele><time>2026-03-28T12:04:13.807Z</time></trkpt><trkpt lat="45.5736723" lon="10.7978718"><ele>201.75</ele><time>2026-03-28T12:04:14.806Z</time></trkpt><trkpt lat="45.5737911" lon="10.7978218"><ele>200.5</ele><time>2026-03-28T12:04:15.808Z</time></trkpt><trkpt lat="45.5739023" lon="10.7977685"><ele>199.25</ele><time>2026-03-28T12:04:16.808Z</time></trkpt><trkpt lat="45.5740139" lon="10.7977105"><ele>198.0</ele><time>2026-03-28T12:04:17.808Z</time></trkpt><trkpt lat="45.5741254" lon="10.7976462"><ele>201.0</ele><time>2026-03-28T12:04:18.806Z</time></trkpt><trkpt lat="45.5742316" lon="10.7975775"><ele>204.0</ele><time>2026-03-28T12:04:19.808Z</time></trkpt><trkpt lat="45.5743314" lon="10.7974961"><ele>207.0</ele><time>2026-03-28T12:04:20.806Z</time></trkpt><trkpt lat="45.574419" lon="10.7973987"><ele>210.0</ele><time>2026-03-28T12:04:21.806Z</time></trkpt><trkpt lat="45.5745032" lon="10.7972831"><ele>207.5</ele><time>2026-03-28T12:04:22.807Z</time></trkpt><trkpt lat="45.5745825" lon="10.7971518"><ele>205.0</ele><time>2026-03-28T12:04:23.806Z</time></trkpt><trkpt lat="45.5746687" lon="10.7970334"><ele>202.5</ele><time>2026-03-28T12:04:24.807Z</time></trkpt><trkpt lat="45.574773" lon="10.7969324"><ele>200.0</ele><time>2026-03-28T12:04:25.807Z</time></trkpt><trkpt lat="45.5748932" lon="10.7968376"><ele>202.75</ele><time>2026-03-28T12:04:26.807Z</time></trkpt><trkpt lat="45.5750139" lon="10.7967473"><ele>205.5</ele><time>2026-03-28T12:04:27.807Z</time></trkpt><trkpt lat="45.5751259" lon="10.7966579"><ele>208.25</ele><time>2026-03-28T12:04:28.805Z</time></trkpt><trkpt lat="45.5752278" lon="10.7965593"><ele>211.0</ele><time>2026-03-28T12:04:29.805Z</time></trkpt><trkpt lat="45.5753236" lon="10.796451"><ele>209.25</ele><time>2026-03-28T12:04:30.807Z</time></trkpt><trkpt lat="45.5754218" lon="10.796336"><ele>207.5</ele><time>2026-03-28T12:04:31.806Z</time></trkpt><trkpt lat="45.575515" lon="10.7962106"><ele>205.75</ele><time>2026-03-28T12:04:32.806Z</time></trkpt><trkpt lat="45.5756071" lon="10.7960761"><ele>204.0</ele><time>2026-03-28T12:04:33.806Z</time></trkpt><trkpt lat="45.575697" lon="10.7959333"><ele>204.0</ele><time>2026-03-28T12:04:34.805Z</time></trkpt><trkpt lat="45.5757841" lon="10.795787"><ele>204.0</ele><time>2026-03-28T12:04:35.805Z</time></trkpt><trkpt lat="45.5758644" lon="10.7956425"><ele>204.0</ele><time>2026-03-28T12:04:36.807Z</time></trkpt><trkpt lat="45.5759412" lon="10.7955096"><ele>204.0</ele><time>2026-03-28T12:04:37.806Z</time></trkpt><trkpt lat="45.5760292" lon="10.795397"><ele>204.0</ele><time>2026-03-28T12:04:38.807Z</time></trkpt><trkpt lat="45.5761238" lon="10.7953006"><ele>204.0</ele><time>2026-03-28T12:04:39.806Z</time></trkpt><trkpt lat="45.5762026" lon="10.7952279"><ele>204.0</ele><time>2026-03-28T12:04:40.807Z</time></trkpt><trkpt lat="45.5762799" lon="10.7951744"><ele>204.0</ele><time>2026-03-28T12:04:41.806Z</time></trkpt><trkpt lat="45.5763477" lon="10.7951504"><ele>204.0</ele><time>2026-03-28T12:04:42.806Z</time></trkpt><trkpt lat="45.5764556" lon="10.7951152"><ele>203.6</ele><time>2026-03-28T12:04:44.807Z</time></trkpt><trkpt lat="45.5765098" lon="10.7950206"><ele>203.2</ele><time>2026-03-28T12:04:47.807Z</time></trkpt><trkpt lat="45.5765303" lon="10.7948245"><ele>202.79999999999998</ele><time>2026-03-28T12:04:49.806Z</time></trkpt><trkpt lat="45.5765377" lon="10.7946918"><ele>202.39999999999998</ele><time>2026-03-28T12:04:50.806Z</time></trkpt><trkpt lat="45.5765468" lon="10.7945408"><ele>202.0</ele><time>2026-03-28T12:04:51.805Z</time></trkpt><trkpt lat="45.5765551" lon="10.7943795"><ele>202.25</ele><time>2026-03-28T12:04:52.806Z</time></trkpt><trkpt lat="45.5765626" lon="10.7942009"><ele>202.5</ele><time>2026-03-28T12:04:53.805Z</time></trkpt><trkpt lat="45.5765693" lon="10.794015"><ele>202.75</ele><time>2026-03-28T12:04:54.806Z</time></trkpt><trkpt lat="45.5765716" lon="10.7938149"><ele>203.0</ele><time>2026-03-28T12:04:55.805Z</time></trkpt><trkpt lat="45.5765785" lon="10.7936044"><ele>202.66666666666669</ele><time>2026-03-28T12:04:56.805Z</time></trkpt><trkpt lat="45.5765834" lon="10.7933835"><ele>202.33333333333331</ele><time>2026-03-28T12:04:57.807Z</time></trkpt><trkpt lat="45.5765865" lon="10.7931576"><ele>202.0</ele><time>2026-03-28T12:04:58.806Z</time></trkpt><trkpt lat="45.5765959" lon="10.7929245"><ele>202.0</ele><time>2026-03-28T12:04:59.805Z</time></trkpt><trkpt lat="45.5766079" lon="10.7926856"><ele>202.0</ele><time>2026-03-28T12:05:00.806Z</time></trkpt><trkpt lat="45.5766172" lon="10.7924416"><ele>202.0</ele><time>2026-03-28T12:05:01.806Z</time></trkpt><trkpt lat="45.5766256" lon="10.7922008"><ele>202.0</ele><time>2026-03-28T12:05:02.805Z</time></trkpt><trkpt lat="45.5766243" lon="10.7919648"><ele>202.0</ele><time>2026-03-28T12:05:03.807Z</time></trkpt><trkpt lat="45.5766032" lon="10.7917341"><ele>202.0</ele><time>2026-03-28T12:05:04.806Z</time></trkpt><trkpt lat="45.576552" lon="10.7915074"><ele>202.0</ele><time>2026-03-28T12:05:05.807Z</time></trkpt><trkpt lat="45.5764709" lon="10.7913009"><ele>202.0</ele><time>2026-03-28T12:05:06.806Z</time></trkpt><trkpt lat="45.5763686" lon="10.7911134"><ele>202.0</ele><time>2026-03-28T12:05:07.806Z</time></trkpt><trkpt lat="45.5762594" lon="10.7909399"><ele>203.0</ele><time>2026-03-28T12:05:08.806Z</time></trkpt><trkpt lat="45.5761528" lon="10.7907671"><ele>204.0</ele><time>2026-03-28T12:05:09.806Z</time></trkpt><trkpt lat="45.5760553" lon="10.7905848"><ele>205.0</ele><time>2026-03-28T12:05:10.807Z</time></trkpt><trkpt lat="45.5759667" lon="10.7903941"><ele>205.0</ele><time>2026-03-28T12:05:11.807Z</time></trkpt><trkpt lat="45.5758787" lon="10.7902055"><ele>205.0</ele><time>2026-03-28T12:05:12.805Z</time></trkpt><trkpt lat="45.5757984" lon="10.7900164"><ele>205.0</ele><time>2026-03-28T12:05:13.805Z</time></trkpt><trkpt lat="45.57572" lon="10.7898236"><ele>206.33333333333331</ele><time>2026-03-28T12:05:14.805Z</time></trkpt><trkpt lat="45.5756481" lon="10.7896331"><ele>207.66666666666669</ele><time>2026-03-28T12:05:15.805Z</time></trkpt><trkpt lat="45.5755797" lon="10.7894413"><ele>209.0</ele><time>2026-03-28T12:05:16.806Z</time></trkpt><trkpt lat="45.5755248" lon="10.7892394"><ele>212.66666666666669</ele><time>2026-03-28T12:05:17.807Z</time></trkpt><trkpt lat="45.5754883" lon="10.7890312"><ele>216.33333333333331</ele><time>2026-03-28T12:05:18.806Z</time></trkpt><trkpt lat="45.5754682" lon="10.788816"><ele>220.0</ele><time>2026-03-28T12:05:19.805Z</time></trkpt><trkpt lat="45.575466" lon="10.7885979"><ele>219.66666666666666</ele><time>2026-03-28T12:05:20.805Z</time></trkpt><trkpt lat="45.5754727" lon="10.7883749"><ele>219.33333333333331</ele><time>2026-03-28T12:05:21.805Z</time></trkpt><trkpt lat="45.5754808" lon="10.7881543"><ele>219.0</ele><time>2026-03-28T12:05:22.806Z</time></trkpt><trkpt lat="45.5754971" lon="10.7879221"><ele>219.0</ele><time>2026-03-28T12:05:23.806Z</time></trkpt><trkpt lat="45.5755159" lon="10.7876915"><ele>219.0</ele><time>2026-03-28T12:05:24.806Z</time></trkpt><trkpt lat="45.5755446" lon="10.787459"><ele>219.0</ele><time>2026-03-28T12:05:25.806Z</time></trkpt><trkpt lat="45.5755741" lon="10.7872355"><ele>219.0</ele><time>2026-03-28T12:05:26.806Z</time></trkpt><trkpt lat="45.5756032" lon="10.7870107"><ele>219.0</ele><time>2026-03-28T12:05:27.806Z</time></trkpt><trkpt lat="45.5756288" lon="10.786796"><ele>219.0</ele><time>2026-03-28T12:05:28.806Z</time></trkpt><trkpt lat="45.5756527" lon="10.7865722"><ele>219.0</ele><time>2026-03-28T12:05:29.805Z</time></trkpt><trkpt lat="45.5756694" lon="10.7863556"><ele>219.0</ele><time>2026-03-28T12:05:30.807Z</time></trkpt><trkpt lat="45.5756761" lon="10.7861357"><ele>219.0</ele><time>2026-03-28T12:05:31.806Z</time></trkpt><trkpt lat="45.5756713" lon="10.7859104"><ele>220.66666666666669</ele><time>2026-03-28T12:05:32.806Z</time></trkpt><trkpt lat="45.5756582" lon="10.7856796"><ele>222.33333333333334</ele><time>2026-03-28T12:05:33.806Z</time></trkpt><trkpt lat="45.5756369" lon="10.7854478"><ele>224.0</ele><time>2026-03-28T12:05:34.806Z</time></trkpt><trkpt lat="45.5756104" lon="10.7852135"><ele>226.33333333333334</ele><time>2026-03-28T12:05:35.806Z</time></trkpt><trkpt lat="45.5755812" lon="10.7849719"><ele>228.66666666666669</ele><time>2026-03-28T12:05:36.805Z</time></trkpt><trkpt lat="45.5755519" lon="10.784732"><ele>231.0</ele><time>2026-03-28T12:05:37.806Z</time></trkpt><trkpt lat="45.5755149" lon="10.7845034"><ele>233.33333333333331</ele><time>2026-03-28T12:05:38.806Z</time></trkpt><trkpt lat="45.5754793" lon="10.7842816"><ele>235.66666666666666</ele><time>2026-03-28T12:05:39.805Z</time></trkpt><trkpt lat="45.5754407" lon="10.7840707"><ele>238.0</ele><time>2026-03-28T12:05:40.807Z</time></trkpt><trkpt lat="45.5754062" lon="10.7838548"><ele>238.0</ele><time>2026-03-28T12:05:41.806Z</time></trkpt><trkpt lat="45.5753731" lon="10.7836421"><ele>238.0</ele><time>2026-03-28T12:05:42.807Z</time></trkpt><trkpt lat="45.57535" lon="10.7834201"><ele>238.0</ele><time>2026-03-28T12:05:43.806Z</time></trkpt><trkpt lat="45.5753401" lon="10.7831956"><ele>234.33333333333331</ele><time>2026-03-28T12:05:44.805Z</time></trkpt><trkpt lat="45.5753309" lon="10.7829728"><ele>230.66666666666669</ele><time>2026-03-28T12:05:45.807Z</time></trkpt><trkpt lat="45.5753239" lon="10.7827449"><ele>227.0</ele><time>2026-03-28T12:05:46.806Z</time></trkpt><trkpt lat="45.5753128" lon="10.7825238"><ele>227.0</ele><time>2026-03-28T12:05:47.805Z</time></trkpt><trkpt lat="45.5753077" lon="10.7823021"><ele>227.0</ele><time>2026-03-28T12:05:48.807Z</time></trkpt><trkpt lat="45.5753095" lon="10.7820836"><ele>227.0</ele><time>2026-03-28T12:05:49.806Z</time></trkpt><trkpt lat="45.5753334" lon="10.7818667"><ele>232.66666666666669</ele><time>2026-03-28T12:05:50.806Z</time></trkpt><trkpt lat="45.5753871" lon="10.7816641"><ele>238.33333333333331</ele><time>2026-03-28T12:05:51.806Z</time></trkpt><trkpt lat="45.5754647" lon="10.781476"><ele>244.0</ele><time>2026-03-28T12:05:52.807Z</time></trkpt><trkpt lat="45.575548" lon="10.7812887"><ele>244.0</ele><time>2026-03-28T12:05:53.806Z</time></trkpt><trkpt lat="45.5756211" lon="10.7810932"><ele>244.0</ele><time>2026-03-28T12:05:54.805Z</time></trkpt><trkpt lat="45.5756769" lon="10.7808802"><ele>244.0</ele><time>2026-03-28T12:05:55.806Z</time></trkpt><trkpt lat="45.5757106" lon="10.7806535"><ele>243.0</ele><time>2026-03-28T12:05:56.806Z</time></trkpt><trkpt lat="45.5757291" lon="10.7804263"><ele>242.0</ele><time>2026-03-28T12:05:57.807Z</time></trkpt><trkpt lat="45.5757234" lon="10.7802026"><ele>241.0</ele><time>2026-03-28T12:05:58.806Z</time></trkpt><trkpt lat="45.5756894" lon="10.7799741"><ele>238.0</ele><time>2026-03-28T12:05:59.805Z</time></trkpt><trkpt lat="45.5756265" lon="10.7797543"><ele>235.0</ele><time>2026-03-28T12:06:00.805Z</time></trkpt><trkpt lat="45.5755444" lon="10.7795443"><ele>232.0</ele><time>2026-03-28T12:06:01.806Z</time></trkpt><trkpt lat="45.5754387" lon="10.7793473"><ele>232.33333333333331</ele><time>2026-03-28T12:06:02.805Z</time></trkpt><trkpt lat="45.5753181" lon="10.7791663"><ele>232.66666666666669</ele><time>2026-03-28T12:06:03.805Z</time></trkpt><trkpt lat="45.5751991" lon="10.7789856"><ele>233.0</ele><time>2026-03-28T12:06:04.806Z</time></trkpt><trkpt lat="45.5750789" lon="10.7788004"><ele>233.0</ele><time>2026-03-28T12:06:05.805Z</time></trkpt><trkpt lat="45.5749649" lon="10.7786082"><ele>233.0</ele><time>2026-03-28T12:06:06.805Z</time></trkpt><trkpt lat="45.5748575" lon="10.7784088"><ele>233.0</ele><time>2026-03-28T12:06:07.807Z</time></trkpt><trkpt lat="45.574759" lon="10.7782059"><ele>229.33333333333334</ele><time>2026-03-28T12:06:08.805Z</time></trkpt><trkpt lat="45.5746677" lon="10.7780048"><ele>225.66666666666669</ele><time>2026-03-28T12:06:09.806Z</time></trkpt><trkpt lat="45.5745824" lon="10.7778054"><ele>222.0</ele><time>2026-03-28T12:06:10.806Z</time></trkpt><trkpt lat="45.5744985" lon="10.7776005"><ele>221.0</ele><time>2026-03-28T12:06:11.806Z</time></trkpt><trkpt lat="45.5744155" lon="10.7773961"><ele>220.0</ele><time>2026-03-28T12:06:12.806Z</time></trkpt><trkpt lat="45.574331" lon="10.7771931"><ele>219.0</ele><time>2026-03-28T12:06:13.807Z</time></trkpt><trkpt lat="45.574249" lon="10.7769926"><ele>219.33333333333331</ele><time>2026-03-28T12:06:14.806Z</time></trkpt><trkpt lat="45.5741633" lon="10.7767863"><ele>219.66666666666666</ele><time>2026-03-28T12:06:15.806Z</time></trkpt><trkpt lat="45.5740808" lon="10.7765807"><ele>220.0</ele><time>2026-03-28T12:06:16.805Z</time></trkpt><trkpt lat="45.5740002" lon="10.7763738"><ele>220.0</ele><time>2026-03-28T12:06:17.806Z</time></trkpt><trkpt lat="45.5739254" lon="10.7761652"><ele>220.0</ele><time>2026-03-28T12:06:18.805Z</time></trkpt><trkpt lat="45.5738535" lon="10.7759551"><ele>220.0</ele><time>2026-03-28T12:06:19.806Z</time></trkpt><trkpt lat="45.5737843" lon="10.7757393"><ele>219.66666666666666</ele><time>2026-03-28T12:06:20.806Z</time></trkpt><trkpt lat="45.5737165" lon="10.7755174"><ele>219.33333333333331</ele><time>2026-03-28T12:06:21.805Z</time></trkpt><trkpt lat="45.5736464" lon="10.7752906"><ele>219.0</ele><time>2026-03-28T12:06:22.806Z</time></trkpt><trkpt lat="45.5735851" lon="10.7750566"><ele>218.0</ele><time>2026-03-28T12:06:23.806Z</time></trkpt><trkpt lat="45.5735343" lon="10.7748213"><ele>217.0</ele><time>2026-03-28T12:06:24.806Z</time></trkpt><trkpt lat="45.5734968" lon="10.7746086"><ele>216.0</ele><time>2026-03-28T12:06:25.805Z</time></trkpt><trkpt lat="45.5734696" lon="10.7744219"><ele>215.4</ele><time>2026-03-28T12:06:26.806Z</time></trkpt><trkpt lat="45.5734518" lon="10.7742614"><ele>214.8</ele><time>2026-03-28T12:06:27.806Z</time></trkpt><trkpt lat="45.5734414" lon="10.7741283"><ele>214.20000000000002</ele><time>2026-03-28T12:06:28.806Z</time></trkpt><trkpt lat="45.573445" lon="10.7740129"><ele>213.60000000000002</ele><time>2026-03-28T12:06:29.806Z</time></trkpt><trkpt lat="45.5734463" lon="10.7738888"><ele>213.0</ele><time>2026-03-28T12:06:30.805Z</time></trkpt><trkpt lat="45.5734393" lon="10.773752"><ele>213.0</ele><time>2026-03-28T12:06:31.807Z</time></trkpt><trkpt lat="45.5734233" lon="10.7735915"><ele>213.0</ele><time>2026-03-28T12:06:32.805Z</time></trkpt><trkpt lat="45.5734099" lon="10.7734128"><ele>213.0</ele><time>2026-03-28T12:06:33.806Z</time></trkpt><trkpt lat="45.5734004" lon="10.7732171"><ele>213.0</ele><time>2026-03-28T12:06:34.806Z</time></trkpt><trkpt lat="45.5733999" lon="10.7730139"><ele>213.0</ele><time>2026-03-28T12:06:35.806Z</time></trkpt><trkpt lat="45.5734049" lon="10.7728171"><ele>213.0</ele><time>2026-03-28T12:06:36.806Z</time></trkpt><trkpt lat="45.5734137" lon="10.7726205"><ele>213.0</ele><time>2026-03-28T12:06:37.805Z</time></trkpt><trkpt lat="45.5734267" lon="10.7724306"><ele>213.0</ele><time>2026-03-28T12:06:38.806Z</time></trkpt><trkpt lat="45.5734471" lon="10.7722439"><ele>213.0</ele><time>2026-03-28T12:06:39.806Z</time></trkpt><trkpt lat="45.5734672" lon="10.772061"><ele>213.0</ele><time>2026-03-28T12:06:40.807Z</time></trkpt><trkpt lat="45.5734892" lon="10.7718758"><ele>213.0</ele><time>2026-03-28T12:06:41.806Z</time></trkpt><trkpt lat="45.5735094" lon="10.7716822"><ele>213.0</ele><time>2026-03-28T12:06:42.806Z</time></trkpt><trkpt lat="45.5735316" lon="10.7714862"><ele>212.5</ele><time>2026-03-28T12:06:43.806Z</time></trkpt><trkpt lat="45.5735576" lon="10.7712844"><ele>212.0</ele><time>2026-03-28T12:06:44.805Z</time></trkpt><trkpt lat="45.5735879" lon="10.7710772"><ele>211.5</ele><time>2026-03-28T12:06:45.807Z</time></trkpt><trkpt lat="45.5736183" lon="10.7708615"><ele>211.0</ele><time>2026-03-28T12:06:46.806Z</time></trkpt><trkpt lat="45.573646" lon="10.7706391"><ele>210.66666666666666</ele><time>2026-03-28T12:06:47.806Z</time></trkpt><trkpt lat="45.5736578" lon="10.7704117"><ele>210.33333333333331</ele><time>2026-03-28T12:06:48.807Z</time></trkpt><trkpt lat="45.5736588" lon="10.770179"><ele>210.0</ele><time>2026-03-28T12:06:49.805Z</time></trkpt><trkpt lat="45.5736613" lon="10.7699453"><ele>209.75</ele><time>2026-03-28T12:06:50.806Z</time></trkpt><trkpt lat="45.5736649" lon="10.769732"><ele>209.5</ele><time>2026-03-28T12:06:51.806Z</time></trkpt><trkpt lat="45.5736667" lon="10.7695351"><ele>209.25</ele><time>2026-03-28T12:06:52.806Z</time></trkpt><trkpt lat="45.5736711" lon="10.7693241"><ele>209.0</ele><time>2026-03-28T12:06:53.806Z</time></trkpt><trkpt lat="45.5736778" lon="10.769102"><ele>209.33333333333334</ele><time>2026-03-28T12:06:54.806Z</time></trkpt><trkpt lat="45.5736889" lon="10.7688753"><ele>209.66666666666669</ele><time>2026-03-28T12:06:55.806Z</time></trkpt><trkpt lat="45.5736959" lon="10.7686424"><ele>210.0</ele><time>2026-03-28T12:06:56.806Z</time></trkpt><trkpt lat="45.5736974" lon="10.7684097"><ele>209.0</ele><time>2026-03-28T12:06:57.807Z</time></trkpt><trkpt lat="45.5736921" lon="10.7681791"><ele>208.0</ele><time>2026-03-28T12:06:58.807Z</time></trkpt><trkpt lat="45.5736829" lon="10.7679443"><ele>207.0</ele><time>2026-03-28T12:06:59.806Z</time></trkpt><trkpt lat="45.5736779" lon="10.7677051"><ele>206.33333333333331</ele><time>2026-03-28T12:07:00.805Z</time></trkpt><trkpt lat="45.5736782" lon="10.767465"><ele>205.66666666666666</ele><time>2026-03-28T12:07:01.807Z</time></trkpt><trkpt lat="45.5736825" lon="10.7672265"><ele>205.0</ele><time>2026-03-28T12:07:02.805Z</time></trkpt><trkpt lat="45.5736944" lon="10.7669937"><ele>205.0</ele><time>2026-03-28T12:07:03.806Z</time></trkpt><trkpt lat="45.5737073" lon="10.766773"><ele>205.0</ele><time>2026-03-28T12:07:04.805Z</time></trkpt><trkpt lat="45.5737241" lon="10.7665493"><ele>205.0</ele><time>2026-03-28T12:07:05.807Z</time></trkpt><trkpt lat="45.5737297" lon="10.766324"><ele>205.0</ele><time>2026-03-28T12:07:06.806Z</time></trkpt><trkpt lat="45.573729" lon="10.7661011"><ele>205.0</ele><time>2026-03-28T12:07:07.806Z</time></trkpt><trkpt lat="45.5737121" lon="10.7658863"><ele>205.0</ele><time>2026-03-28T12:07:08.806Z</time></trkpt><trkpt lat="45.5736732" lon="10.7656806"><ele>205.0</ele><time>2026-03-28T12:07:09.805Z</time></trkpt><trkpt lat="45.5736099" lon="10.765482"><ele>205.0</ele><time>2026-03-28T12:07:10.805Z</time></trkpt><trkpt lat="45.5735259" lon="10.7652886"><ele>205.0</ele><time>2026-03-28T12:07:11.806Z</time></trkpt><trkpt lat="45.5734341" lon="10.7651047"><ele>205.66666666666666</ele><time>2026-03-28T12:07:12.806Z</time></trkpt><trkpt lat="45.5733356" lon="10.7649255"><ele>206.33333333333331</ele><time>2026-03-28T12:07:13.807Z</time></trkpt><trkpt lat="45.57324" lon="10.7647464"><ele>207.0</ele><time>2026-03-28T12:07:14.807Z</time></trkpt><trkpt lat="45.5731557" lon="10.7645549"><ele>206.66666666666669</ele><time>2026-03-28T12:07:15.806Z</time></trkpt><trkpt lat="45.5730914" lon="10.7643451"><ele>206.33333333333334</ele><time>2026-03-28T12:07:16.807Z</time></trkpt><trkpt lat="45.5730479" lon="10.7641197"><ele>206.0</ele><time>2026-03-28T12:07:17.805Z</time></trkpt><trkpt lat="45.5730149" lon="10.7638869"><ele>206.0</ele><time>2026-03-28T12:07:18.806Z</time></trkpt><trkpt lat="45.5729839" lon="10.7636571"><ele>206.0</ele><time>2026-03-28T12:07:19.805Z</time></trkpt><trkpt lat="45.5729554" lon="10.7634302"><ele>206.0</ele><time>2026-03-28T12:07:20.806Z</time></trkpt><trkpt lat="45.5729245" lon="10.7632051"><ele>205.33333333333334</ele><time>2026-03-28T12:07:21.806Z</time></trkpt><trkpt lat="45.5728927" lon="10.7629812"><ele>204.66666666666669</ele><time>2026-03-28T12:07:22.806Z</time></trkpt><trkpt lat="45.5728565" lon="10.7627554"><ele>204.0</ele><time>2026-03-28T12:07:23.806Z</time></trkpt><trkpt lat="45.5728212" lon="10.7625287"><ele>203.33333333333331</ele><time>2026-03-28T12:07:24.806Z</time></trkpt><trkpt lat="45.572785" lon="10.7623028"><ele>202.66666666666666</ele><time>2026-03-28T12:07:25.806Z</time></trkpt><trkpt lat="45.5727526" lon="10.7620725"><ele>202.0</ele><time>2026-03-28T12:07:26.806Z</time></trkpt><trkpt lat="45.5727158" lon="10.7618413"><ele>202.0</ele><time>2026-03-28T12:07:27.807Z</time></trkpt><trkpt lat="45.5726775" lon="10.761611"><ele>202.0</ele><time>2026-03-28T12:07:28.806Z</time></trkpt><trkpt lat="45.5726389" lon="10.7613876"><ele>202.0</ele><time>2026-03-28T12:07:29.806Z</time></trkpt><trkpt lat="45.5726" lon="10.7611579"><ele>202.0</ele><time>2026-03-28T12:07:30.805Z</time></trkpt><trkpt lat="45.5725626" lon="10.7609341"><ele>202.0</ele><time>2026-03-28T12:07:31.806Z</time></trkpt><trkpt lat="45.572527" lon="10.7607114"><ele>202.0</ele><time>2026-03-28T12:07:32.806Z</time></trkpt><trkpt lat="45.572489" lon="10.7604923"><ele>202.0</ele><time>2026-03-28T12:07:33.805Z</time></trkpt><trkpt lat="45.572454" lon="10.7602764"><ele>202.0</ele><time>2026-03-28T12:07:34.806Z</time></trkpt><trkpt lat="45.5724182" lon="10.7600643"><ele>202.0</ele><time>2026-03-28T12:07:35.806Z</time></trkpt><trkpt lat="45.5723828" lon="10.7598542"><ele>202.0</ele><time>2026-03-28T12:07:36.805Z</time></trkpt><trkpt lat="45.572348" lon="10.7596492"><ele>202.0</ele><time>2026-03-28T12:07:37.805Z</time></trkpt><trkpt lat="45.5723118" lon="10.7594538"><ele>202.0</ele><time>2026-03-28T12:07:38.807Z</time></trkpt><trkpt lat="45.5722825" lon="10.7592744"><ele>202.0</ele><time>2026-03-28T12:07:39.806Z</time></trkpt><trkpt lat="45.5722536" lon="10.7591083"><ele>202.39999999999998</ele><time>2026-03-28T12:07:40.806Z</time></trkpt><trkpt lat="45.5722303" lon="10.7589577"><ele>202.79999999999998</ele><time>2026-03-28T12:07:41.806Z</time></trkpt><trkpt lat="45.5722102" lon="10.758834"><ele>203.2</ele><time>2026-03-28T12:07:42.806Z</time></trkpt><trkpt lat="45.5722053" lon="10.7587159"><ele>203.6</ele><time>2026-03-28T12:07:43.806Z</time></trkpt><trkpt lat="45.5722185" lon="10.7586028"><ele>204.0</ele><time>2026-03-28T12:07:44.807Z</time></trkpt><trkpt lat="45.5722638" lon="10.7584914"><ele>204.75</ele><time>2026-03-28T12:07:45.806Z</time></trkpt><trkpt lat="45.5723368" lon="10.7583913"><ele>205.5</ele><time>2026-03-28T12:07:46.806Z</time></trkpt><trkpt lat="45.5724279" lon="10.7583042"><ele>206.25</ele><time>2026-03-28T12:07:47.806Z</time></trkpt><trkpt lat="45.5725392" lon="10.7582437"><ele>207.0</ele><time>2026-03-28T12:07:48.806Z</time></trkpt><trkpt lat="45.5726592" lon="10.7582136"><ele>207.0</ele><time>2026-03-28T12:07:49.805Z</time></trkpt><trkpt lat="45.5727846" lon="10.7581797"><ele>207.0</ele><time>2026-03-28T12:07:50.807Z</time></trkpt><trkpt lat="45.5729126" lon="10.7581372"><ele>207.0</ele><time>2026-03-28T12:07:51.806Z</time></trkpt><trkpt lat="45.5730457" lon="10.7580863"><ele>207.0</ele><time>2026-03-28T12:07:52.806Z</time></trkpt><trkpt lat="45.5731809" lon="10.7580487"><ele>206.75</ele><time>2026-03-28T12:07:53.807Z</time></trkpt><trkpt lat="45.5733235" lon="10.7580076"><ele>206.5</ele><time>2026-03-28T12:07:54.806Z</time></trkpt><trkpt lat="45.5734662" lon="10.7579607"><ele>206.25</ele><time>2026-03-28T12:07:55.807Z</time></trkpt><trkpt lat="45.573609" lon="10.7579118"><ele>206.0</ele><time>2026-03-28T12:07:56.807Z</time></trkpt><trkpt lat="45.5737542" lon="10.7578609"><ele>205.33333333333334</ele><time>2026-03-28T12:07:57.806Z</time></trkpt><trkpt lat="45.5739032" lon="10.757808"><ele>204.66666666666669</ele><time>2026-03-28T12:07:58.806Z</time></trkpt><trkpt lat="45.5740532" lon="10.7577544"><ele>204.0</ele><time>2026-03-28T12:07:59.806Z</time></trkpt><trkpt lat="45.5742055" lon="10.7577028"><ele>204.33333333333331</ele><time>2026-03-28T12:08:00.806Z</time></trkpt><trkpt lat="45.5743545" lon="10.757657"><ele>204.66666666666666</ele><time>2026-03-28T12:08:01.805Z</time></trkpt><trkpt lat="45.5745005" lon="10.7576102"><ele>205.0</ele><time>2026-03-28T12:08:02.806Z</time></trkpt><trkpt lat="45.574646" lon="10.7575673"><ele>205.66666666666666</ele><time>2026-03-28T12:08:03.807Z</time></trkpt><trkpt lat="45.5747921" lon="10.7575256"><ele>206.33333333333331</ele><time>2026-03-28T12:08:04.806Z</time></trkpt><trkpt lat="45.5749412" lon="10.7574836"><ele>207.0</ele><time>2026-03-28T12:08:05.806Z</time></trkpt><trkpt lat="45.5750906" lon="10.757439"><ele>207.0</ele><time>2026-03-28T12:08:06.806Z</time></trkpt><trkpt lat="45.5752441" lon="10.7573892"><ele>207.0</ele><time>2026-03-28T12:08:07.807Z</time></trkpt><trkpt lat="45.5754001" lon="10.7573373"><ele>207.0</ele><time>2026-03-28T12:08:08.806Z</time></trkpt><trkpt lat="45.5755553" lon="10.7572839"><ele>207.33333333333331</ele><time>2026-03-28T12:08:09.806Z</time></trkpt><trkpt lat="45.575713" lon="10.7572283"><ele>207.66666666666666</ele><time>2026-03-28T12:08:10.806Z</time></trkpt><trkpt lat="45.5758738" lon="10.7571753"><ele>208.0</ele><time>2026-03-28T12:08:11.806Z</time></trkpt><trkpt lat="45.5760306" lon="10.7571215"><ele>208.0</ele><time>2026-03-28T12:08:12.805Z</time></trkpt><trkpt lat="45.5761789" lon="10.7570689"><ele>208.0</ele><time>2026-03-28T12:08:13.805Z</time></trkpt><trkpt lat="45.576301" lon="10.7570241"><ele>208.0</ele><time>2026-03-28T12:08:14.805Z</time></trkpt><trkpt lat="45.5763969" lon="10.7569917"><ele>208.0</ele><time>2026-03-28T12:08:15.806Z</time></trkpt><trkpt lat="45.576481" lon="10.7569705"><ele>207.66666666666666</ele><time>2026-03-28T12:08:16.806Z</time></trkpt><trkpt lat="45.5765611" lon="10.7569442"><ele>207.33333333333331</ele><time>2026-03-28T12:08:17.807Z</time></trkpt><trkpt lat="45.5766394" lon="10.7569162"><ele>207.0</ele><time>2026-03-28T12:08:18.805Z</time></trkpt><trkpt lat="45.5767219" lon="10.7568844"><ele>206.66666666666669</ele><time>2026-03-28T12:08:19.806Z</time></trkpt><trkpt lat="45.5767989" lon="10.7568507"><ele>206.33333333333334</ele><time>2026-03-28T12:08:20.807Z</time></trkpt><trkpt lat="45.5768681" lon="10.7567987"><ele>206.0</ele><time>2026-03-28T12:08:21.805Z</time></trkpt><trkpt lat="45.5769318" lon="10.7567219"><ele>206.0</ele><time>2026-03-28T12:08:22.806Z</time></trkpt><trkpt lat="45.5769972" lon="10.7566157"><ele>206.0</ele><time>2026-03-28T12:08:23.806Z</time></trkpt><trkpt lat="45.5770633" lon="10.7564883"><ele>206.0</ele><time>2026-03-28T12:08:24.806Z</time></trkpt><trkpt lat="45.5771348" lon="10.7563608"><ele>206.0</ele><time>2026-03-28T12:08:25.805Z</time></trkpt><trkpt lat="45.5771947" lon="10.7562163"><ele>206.0</ele><time>2026-03-28T12:08:26.806Z</time></trkpt><trkpt lat="45.5772333" lon="10.7560516"><ele>206.0</ele><time>2026-03-28T12:08:27.805Z</time></trkpt><trkpt lat="45.5772532" lon="10.7558847"><ele>206.0</ele><time>2026-03-28T12:08:28.807Z</time></trkpt><trkpt lat="45.5772551" lon="10.7557137"><ele>206.0</ele><time>2026-03-28T12:08:29.805Z</time></trkpt><trkpt lat="45.5772479" lon="10.7555403"><ele>206.0</ele><time>2026-03-28T12:08:30.806Z</time></trkpt><trkpt lat="45.5772378" lon="10.7553665"><ele>206.0</ele><time>2026-03-28T12:08:31.805Z</time></trkpt><trkpt lat="45.5772183" lon="10.7552135"><ele>206.0</ele><time>2026-03-28T12:08:32.806Z</time></trkpt><trkpt lat="45.577197" lon="10.7550792"><ele>206.0</ele><time>2026-03-28T12:08:33.806Z</time></trkpt><trkpt lat="45.5771845" lon="10.7549601"><ele>206.0</ele><time>2026-03-28T12:08:34.807Z</time></trkpt><trkpt lat="45.5771719" lon="10.7548493"><ele>206.0</ele><time>2026-03-28T12:08:35.807Z</time></trkpt><trkpt lat="45.5771523" lon="10.7546892"><ele>206.16666666666669</ele><time>2026-03-28T12:08:37.805Z</time></trkpt><trkpt lat="45.5771294" lon="10.7545581"><ele>206.33333333333334</ele><time>2026-03-28T12:08:39.806Z</time></trkpt><trkpt lat="45.5771081" lon="10.7544504"><ele>206.5</ele><time>2026-03-28T12:08:41.807Z</time></trkpt><trkpt lat="45.5770775" lon="10.7543651"><ele>206.66666666666669</ele><time>2026-03-28T12:08:43.806Z</time></trkpt><trkpt lat="45.577046" lon="10.7542545"><ele>206.83333333333334</ele><time>2026-03-28T12:08:46.807Z</time></trkpt><trkpt lat="45.5769979" lon="10.7541882"><ele>207.0</ele><time>2026-03-28T12:08:48.805Z</time></trkpt><trkpt lat="45.5769305" lon="10.7541745"><ele>207.42857142857144</ele><time>2026-03-28T12:08:54.805Z</time></trkpt><trkpt lat="45.5768588" lon="10.7541783"><ele>207.85714285714286</ele><time>2026-03-28T12:08:59.807Z</time></trkpt><trkpt lat="45.5767974" lon="10.7541066"><ele>208.28571428571428</ele><time>2026-03-28T12:11:48.805Z</time></trkpt><trkpt lat="45.5767485" lon="10.7540419"><ele>208.71428571428572</ele><time>2026-03-28T12:11:56.804Z</time></trkpt><trkpt lat="45.5767013" lon="10.7539788"><ele>209.14285714285714</ele><time>2026-03-28T12:12:07.805Z</time></trkpt><trkpt lat="45.576752" lon="10.7539119"><ele>209.57142857142858</ele><time>2026-03-28T12:13:02.612Z</time></trkpt><trkpt lat="45.5766854" lon="10.7538922"><ele>210.0</ele><time>2026-03-28T12:13:25.757Z</time></trkpt><trkpt lat="45.5766143" lon="10.753911"><ele>210.0</ele><time>2026-03-28T12:14:03.804Z</time></trkpt><trkpt lat="45.5765515" lon="10.753945"><ele>210.0</ele><time>2026-03-28T12:14:10.806Z</time></trkpt><trkpt lat="45.5765103" lon="10.7540277"><ele>210.0</ele><time>2026-03-28T12:14:17.79Z</time></trkpt><trkpt lat="45.576461" lon="10.7540989"><ele>210.0</ele><time>2026-03-28T12:14:24.805Z</time></trkpt><trkpt lat="45.5764061" lon="10.7541647"><ele>210.0</ele><time>2026-03-28T12:14:30.805Z</time></trkpt><trkpt lat="45.5763844" lon="10.7542569"><ele>210.0</ele><time>2026-03-28T12:14:36.804Z</time></trkpt><trkpt lat="45.5763776" lon="10.7541601"><ele>210.0</ele><time>2026-03-28T12:16:29.805Z</time></trkpt><trkpt lat="45.5764142" lon="10.7540791"><ele>210.0</ele><time>2026-03-28T12:16:35.806Z</time></trkpt><trkpt lat="45.576436" lon="10.7539837"><ele>210.0</ele><time>2026-03-28T12:16:42.75Z</time></trkpt><trkpt lat="45.5764467" lon="10.7538945"><ele>210.0</ele><time>2026-03-28T12:17:09.805Z</time></trkpt><trkpt lat="45.5764909" lon="10.7538295"><ele>210.0</ele><time>2026-03-28T12:17:14.776Z</time></trkpt><trkpt lat="45.5765659" lon="10.7538413"><ele>210.0</ele><time>2026-03-28T12:17:19.804Z</time></trkpt><trkpt lat="45.5766241" lon="10.7538779"><ele>210.0</ele><time>2026-03-28T12:17:24.805Z</time></trkpt><trkpt lat="45.5766912" lon="10.7538971"><ele>210.0</ele><time>2026-03-28T12:18:44.805Z</time></trkpt><trkpt lat="45.5767507" lon="10.753859"><ele>210.0</ele><time>2026-03-28T12:18:49.805Z</time></trkpt><trkpt lat="45.5767537" lon="10.7539528"><ele>210.0</ele><time>2026-03-28T12:19:32.804Z</time></trkpt><trkpt lat="45.5766898" lon="10.7539945"><ele>210.0</ele><time>2026-03-28T12:19:38.782Z</time></trkpt><trkpt lat="45.5766787" lon="10.7539031"><ele>210.0</ele><time>2026-03-28T12:19:45.805Z</time></trkpt></trkseg></trk></gpx>